<?xml version="1.0" encoding="UTF-8" standalone="no" ?>
<gpx xmlns="http://www.topografix.com/GPX/1/1" xmlns:xsi="http://www.w3.org/2001/XMLSchema-instance" xsi:schemaLocation="http://www.topografix.com/GPX/1/1 http://www.topografix.com/GPX/1/1/gpx.xsd" version="1.1" creator="VisuGPX - https://www.visugpx.com">
  <metadata>
    <name>#velotaf24/13…fin de semaine 🥵</name>
  </metadata>
  <trk>
    <name><![CDATA[#velotaf24/13…fin de semaine 🥵_1]]></name>
    <trkseg>
      <trkpt lat="50.0231" lon="4.32119">
        <ele>257.8</ele>
        <time>2024-04-26T05:01:03Z</time>
      </trkpt>
      <trkpt lat="50.02309" lon="4.32119">
        <ele>258.2</ele>
        <time>2024-04-26T05:01:04Z</time>
      </trkpt>
      <trkpt lat="50.02308" lon="4.32119">
        <ele>259</ele>
        <time>2024-04-26T05:01:05Z</time>
      </trkpt>
      <trkpt lat="50.02308" lon="4.32121">
        <ele>259.2</ele>
        <time>2024-04-26T05:01:06Z</time>
      </trkpt>
      <trkpt lat="50.02308" lon="4.32122">
        <ele>259.2</ele>
        <time>2024-04-26T05:01:07Z</time>
      </trkpt>
      <trkpt lat="50.02308" lon="4.32123">
        <ele>258.8</ele>
        <time>2024-04-26T05:01:08Z</time>
      </trkpt>
      <trkpt lat="50.02306" lon="4.32123">
        <ele>258.6</ele>
        <time>2024-04-26T05:01:09Z</time>
      </trkpt>
      <trkpt lat="50.02304" lon="4.32122">
        <ele>258.8</ele>
        <time>2024-04-26T05:01:10Z</time>
      </trkpt>
      <trkpt lat="50.02303" lon="4.3212">
        <ele>258.8</ele>
        <time>2024-04-26T05:01:11Z</time>
      </trkpt>
      <trkpt lat="50.02301" lon="4.32118">
        <ele>259.4</ele>
        <time>2024-04-26T05:01:12Z</time>
      </trkpt>
      <trkpt lat="50.02301" lon="4.32115">
        <ele>259.8</ele>
        <time>2024-04-26T05:01:13Z</time>
      </trkpt>
      <trkpt lat="50.023" lon="4.32111">
        <ele>260.2</ele>
        <time>2024-04-26T05:01:14Z</time>
      </trkpt>
      <trkpt lat="50.023" lon="4.32107">
        <ele>260.6</ele>
        <time>2024-04-26T05:01:15Z</time>
      </trkpt>
      <trkpt lat="50.023" lon="4.32103">
        <ele>261.2</ele>
        <time>2024-04-26T05:01:16Z</time>
      </trkpt>
      <trkpt lat="50.02299" lon="4.32099">
        <ele>261.8</ele>
        <time>2024-04-26T05:01:17Z</time>
      </trkpt>
      <trkpt lat="50.02299" lon="4.32095">
        <ele>262</ele>
        <time>2024-04-26T05:01:18Z</time>
      </trkpt>
      <trkpt lat="50.02297" lon="4.32091">
        <ele>262</ele>
        <time>2024-04-26T05:01:19Z</time>
      </trkpt>
      <trkpt lat="50.02296" lon="4.32088">
        <ele>262.4</ele>
        <time>2024-04-26T05:01:20Z</time>
      </trkpt>
      <trkpt lat="50.02295" lon="4.32085">
        <ele>262.8</ele>
        <time>2024-04-26T05:01:21Z</time>
      </trkpt>
      <trkpt lat="50.02294" lon="4.32082">
        <ele>263</ele>
        <time>2024-04-26T05:01:22Z</time>
      </trkpt>
      <trkpt lat="50.02293" lon="4.32078">
        <ele>261.8</ele>
        <time>2024-04-26T05:01:23Z</time>
      </trkpt>
      <trkpt lat="50.02292" lon="4.32074">
        <ele>261.2</ele>
        <time>2024-04-26T05:01:24Z</time>
      </trkpt>
      <trkpt lat="50.02291" lon="4.32068">
        <ele>261.2</ele>
        <time>2024-04-26T05:01:25Z</time>
      </trkpt>
      <trkpt lat="50.02289" lon="4.32062">
        <ele>261.4</ele>
        <time>2024-04-26T05:01:26Z</time>
      </trkpt>
      <trkpt lat="50.02288" lon="4.32055">
        <ele>261.6</ele>
        <time>2024-04-26T05:01:27Z</time>
      </trkpt>
      <trkpt lat="50.02288" lon="4.32049">
        <ele>262</ele>
        <time>2024-04-26T05:01:28Z</time>
      </trkpt>
      <trkpt lat="50.02287" lon="4.32043">
        <ele>262.4</ele>
        <time>2024-04-26T05:01:29Z</time>
      </trkpt>
      <trkpt lat="50.02286" lon="4.32037">
        <ele>262.6</ele>
        <time>2024-04-26T05:01:30Z</time>
      </trkpt>
      <trkpt lat="50.02286" lon="4.32031">
        <ele>263</ele>
        <time>2024-04-26T05:01:31Z</time>
      </trkpt>
      <trkpt lat="50.02286" lon="4.32026">
        <ele>263.6</ele>
        <time>2024-04-26T05:01:32Z</time>
      </trkpt>
      <trkpt lat="50.02285" lon="4.32021">
        <ele>264</ele>
        <time>2024-04-26T05:01:33Z</time>
      </trkpt>
      <trkpt lat="50.02284" lon="4.32016">
        <ele>264</ele>
        <time>2024-04-26T05:01:34Z</time>
      </trkpt>
      <trkpt lat="50.02283" lon="4.32012">
        <ele>264.2</ele>
        <time>2024-04-26T05:01:35Z</time>
      </trkpt>
      <trkpt lat="50.02282" lon="4.32008">
        <ele>264.2</ele>
        <time>2024-04-26T05:01:36Z</time>
      </trkpt>
      <trkpt lat="50.0228" lon="4.32004">
        <ele>264.4</ele>
        <time>2024-04-26T05:01:37Z</time>
      </trkpt>
      <trkpt lat="50.02278" lon="4.32001">
        <ele>264.4</ele>
        <time>2024-04-26T05:01:38Z</time>
      </trkpt>
      <trkpt lat="50.02277" lon="4.31996">
        <ele>264.4</ele>
        <time>2024-04-26T05:01:39Z</time>
      </trkpt>
      <trkpt lat="50.02275" lon="4.31992">
        <ele>264.6</ele>
        <time>2024-04-26T05:01:40Z</time>
      </trkpt>
      <trkpt lat="50.02274" lon="4.31989">
        <ele>264.6</ele>
        <time>2024-04-26T05:01:41Z</time>
      </trkpt>
      <trkpt lat="50.02272" lon="4.31986">
        <ele>264.8</ele>
        <time>2024-04-26T05:01:42Z</time>
      </trkpt>
      <trkpt lat="50.02271" lon="4.31982">
        <ele>265.6</ele>
        <time>2024-04-26T05:01:43Z</time>
      </trkpt>
      <trkpt lat="50.02269" lon="4.31979">
        <ele>265.8</ele>
        <time>2024-04-26T05:01:44Z</time>
      </trkpt>
      <trkpt lat="50.02267" lon="4.31976">
        <ele>266</ele>
        <time>2024-04-26T05:01:45Z</time>
      </trkpt>
      <trkpt lat="50.02266" lon="4.31972">
        <ele>266</ele>
        <time>2024-04-26T05:01:46Z</time>
      </trkpt>
      <trkpt lat="50.02266" lon="4.31967">
        <ele>266.2</ele>
        <time>2024-04-26T05:01:47Z</time>
      </trkpt>
      <trkpt lat="50.02267" lon="4.31962">
        <ele>266.4</ele>
        <time>2024-04-26T05:01:48Z</time>
      </trkpt>
      <trkpt lat="50.02269" lon="4.31957">
        <ele>266.4</ele>
        <time>2024-04-26T05:01:49Z</time>
      </trkpt>
      <trkpt lat="50.02271" lon="4.31951">
        <ele>266.4</ele>
        <time>2024-04-26T05:01:50Z</time>
      </trkpt>
      <trkpt lat="50.02273" lon="4.31946">
        <ele>266.6</ele>
        <time>2024-04-26T05:01:51Z</time>
      </trkpt>
      <trkpt lat="50.02276" lon="4.3194">
        <ele>266.6</ele>
        <time>2024-04-26T05:01:52Z</time>
      </trkpt>
      <trkpt lat="50.02279" lon="4.31935">
        <ele>266.6</ele>
        <time>2024-04-26T05:01:53Z</time>
      </trkpt>
      <trkpt lat="50.02281" lon="4.31929">
        <ele>266.8</ele>
        <time>2024-04-26T05:01:54Z</time>
      </trkpt>
      <trkpt lat="50.02283" lon="4.31924">
        <ele>266.8</ele>
        <time>2024-04-26T05:01:55Z</time>
      </trkpt>
      <trkpt lat="50.02284" lon="4.31919">
        <ele>266.8</ele>
        <time>2024-04-26T05:01:56Z</time>
      </trkpt>
      <trkpt lat="50.02286" lon="4.31914">
        <ele>266.8</ele>
        <time>2024-04-26T05:01:57Z</time>
      </trkpt>
      <trkpt lat="50.02288" lon="4.3191">
        <ele>267</ele>
        <time>2024-04-26T05:01:58Z</time>
      </trkpt>
      <trkpt lat="50.02289" lon="4.31906">
        <ele>267</ele>
        <time>2024-04-26T05:01:59Z</time>
      </trkpt>
      <trkpt lat="50.02291" lon="4.31902">
        <ele>267</ele>
        <time>2024-04-26T05:02:00Z</time>
      </trkpt>
      <trkpt lat="50.02293" lon="4.31898">
        <ele>267</ele>
        <time>2024-04-26T05:02:01Z</time>
      </trkpt>
      <trkpt lat="50.02295" lon="4.31893">
        <ele>267</ele>
        <time>2024-04-26T05:02:02Z</time>
      </trkpt>
      <trkpt lat="50.02297" lon="4.31889">
        <ele>267</ele>
        <time>2024-04-26T05:02:03Z</time>
      </trkpt>
      <trkpt lat="50.02299" lon="4.31884">
        <ele>267.4</ele>
        <time>2024-04-26T05:02:04Z</time>
      </trkpt>
      <trkpt lat="50.02301" lon="4.31879">
        <ele>267.4</ele>
        <time>2024-04-26T05:02:05Z</time>
      </trkpt>
      <trkpt lat="50.02303" lon="4.31874">
        <ele>267.8</ele>
        <time>2024-04-26T05:02:06Z</time>
      </trkpt>
      <trkpt lat="50.02305" lon="4.3187">
        <ele>268.4</ele>
        <time>2024-04-26T05:02:07Z</time>
      </trkpt>
      <trkpt lat="50.02307" lon="4.31865">
        <ele>268.8</ele>
        <time>2024-04-26T05:02:08Z</time>
      </trkpt>
      <trkpt lat="50.02309" lon="4.31861">
        <ele>269.2</ele>
        <time>2024-04-26T05:02:09Z</time>
      </trkpt>
      <trkpt lat="50.0231" lon="4.31856">
        <ele>269.6</ele>
        <time>2024-04-26T05:02:10Z</time>
      </trkpt>
      <trkpt lat="50.02311" lon="4.31852">
        <ele>270</ele>
        <time>2024-04-26T05:02:11Z</time>
      </trkpt>
      <trkpt lat="50.02312" lon="4.31847">
        <ele>270.2</ele>
        <time>2024-04-26T05:02:12Z</time>
      </trkpt>
      <trkpt lat="50.02312" lon="4.31841">
        <ele>270.4</ele>
        <time>2024-04-26T05:02:13Z</time>
      </trkpt>
      <trkpt lat="50.0231" lon="4.31836">
        <ele>270.8</ele>
        <time>2024-04-26T05:02:14Z</time>
      </trkpt>
      <trkpt lat="50.02309" lon="4.31831">
        <ele>271.2</ele>
        <time>2024-04-26T05:02:15Z</time>
      </trkpt>
      <trkpt lat="50.02307" lon="4.31827">
        <ele>271.4</ele>
        <time>2024-04-26T05:02:16Z</time>
      </trkpt>
      <trkpt lat="50.02304" lon="4.31823">
        <ele>271.6</ele>
        <time>2024-04-26T05:02:17Z</time>
      </trkpt>
      <trkpt lat="50.02301" lon="4.31819">
        <ele>272</ele>
        <time>2024-04-26T05:02:18Z</time>
      </trkpt>
      <trkpt lat="50.02299" lon="4.31815">
        <ele>272</ele>
        <time>2024-04-26T05:02:19Z</time>
      </trkpt>
      <trkpt lat="50.02297" lon="4.3181">
        <ele>272.4</ele>
        <time>2024-04-26T05:02:20Z</time>
      </trkpt>
      <trkpt lat="50.02295" lon="4.31806">
        <ele>272.6</ele>
        <time>2024-04-26T05:02:21Z</time>
      </trkpt>
      <trkpt lat="50.02292" lon="4.31802">
        <ele>273</ele>
        <time>2024-04-26T05:02:22Z</time>
      </trkpt>
      <trkpt lat="50.0229" lon="4.31798">
        <ele>273.2</ele>
        <time>2024-04-26T05:02:23Z</time>
      </trkpt>
      <trkpt lat="50.02288" lon="4.31794">
        <ele>273.2</ele>
        <time>2024-04-26T05:02:24Z</time>
      </trkpt>
      <trkpt lat="50.02285" lon="4.31789">
        <ele>273.4</ele>
        <time>2024-04-26T05:02:25Z</time>
      </trkpt>
      <trkpt lat="50.02283" lon="4.31785">
        <ele>273.6</ele>
        <time>2024-04-26T05:02:26Z</time>
      </trkpt>
      <trkpt lat="50.02281" lon="4.3178">
        <ele>273.8</ele>
        <time>2024-04-26T05:02:27Z</time>
      </trkpt>
      <trkpt lat="50.02279" lon="4.31776">
        <ele>274</ele>
        <time>2024-04-26T05:02:28Z</time>
      </trkpt>
      <trkpt lat="50.02277" lon="4.31771">
        <ele>274.2</ele>
        <time>2024-04-26T05:02:29Z</time>
      </trkpt>
      <trkpt lat="50.02274" lon="4.31767">
        <ele>274.4</ele>
        <time>2024-04-26T05:02:30Z</time>
      </trkpt>
      <trkpt lat="50.02273" lon="4.31765">
        <ele>274.6</ele>
        <time>2024-04-26T05:02:31Z</time>
      </trkpt>
      <trkpt lat="50.02271" lon="4.31761">
        <ele>275</ele>
        <time>2024-04-26T05:02:32Z</time>
      </trkpt>
      <trkpt lat="50.02269" lon="4.31757">
        <ele>275.2</ele>
        <time>2024-04-26T05:02:33Z</time>
      </trkpt>
      <trkpt lat="50.02267" lon="4.31753">
        <ele>275.4</ele>
        <time>2024-04-26T05:02:34Z</time>
      </trkpt>
      <trkpt lat="50.02265" lon="4.31748">
        <ele>275.6</ele>
        <time>2024-04-26T05:02:35Z</time>
      </trkpt>
      <trkpt lat="50.02263" lon="4.31744">
        <ele>275.8</ele>
        <time>2024-04-26T05:02:36Z</time>
      </trkpt>
      <trkpt lat="50.02261" lon="4.3174">
        <ele>276.2</ele>
        <time>2024-04-26T05:02:37Z</time>
      </trkpt>
      <trkpt lat="50.02259" lon="4.31735">
        <ele>276.6</ele>
        <time>2024-04-26T05:02:38Z</time>
      </trkpt>
      <trkpt lat="50.02257" lon="4.31731">
        <ele>277</ele>
        <time>2024-04-26T05:02:39Z</time>
      </trkpt>
      <trkpt lat="50.02255" lon="4.31727">
        <ele>277.2</ele>
        <time>2024-04-26T05:02:40Z</time>
      </trkpt>
      <trkpt lat="50.02253" lon="4.31722">
        <ele>277.4</ele>
        <time>2024-04-26T05:02:41Z</time>
      </trkpt>
      <trkpt lat="50.02251" lon="4.31717">
        <ele>277.8</ele>
        <time>2024-04-26T05:02:42Z</time>
      </trkpt>
      <trkpt lat="50.02248" lon="4.31713">
        <ele>278.2</ele>
        <time>2024-04-26T05:02:43Z</time>
      </trkpt>
      <trkpt lat="50.02246" lon="4.31708">
        <ele>278.4</ele>
        <time>2024-04-26T05:02:44Z</time>
      </trkpt>
      <trkpt lat="50.02244" lon="4.31704">
        <ele>278.4</ele>
        <time>2024-04-26T05:02:45Z</time>
      </trkpt>
      <trkpt lat="50.02242" lon="4.31699">
        <ele>278.4</ele>
        <time>2024-04-26T05:02:46Z</time>
      </trkpt>
      <trkpt lat="50.02239" lon="4.31694">
        <ele>278.8</ele>
        <time>2024-04-26T05:02:47Z</time>
      </trkpt>
      <trkpt lat="50.02237" lon="4.31689">
        <ele>278.8</ele>
        <time>2024-04-26T05:02:48Z</time>
      </trkpt>
      <trkpt lat="50.02235" lon="4.31684">
        <ele>279.2</ele>
        <time>2024-04-26T05:02:49Z</time>
      </trkpt>
      <trkpt lat="50.02233" lon="4.31679">
        <ele>279.4</ele>
        <time>2024-04-26T05:02:50Z</time>
      </trkpt>
      <trkpt lat="50.02231" lon="4.31674">
        <ele>279.6</ele>
        <time>2024-04-26T05:02:51Z</time>
      </trkpt>
      <trkpt lat="50.02229" lon="4.31669">
        <ele>279.8</ele>
        <time>2024-04-26T05:02:52Z</time>
      </trkpt>
      <trkpt lat="50.02227" lon="4.31664">
        <ele>280.2</ele>
        <time>2024-04-26T05:02:53Z</time>
      </trkpt>
      <trkpt lat="50.02225" lon="4.31659">
        <ele>280.2</ele>
        <time>2024-04-26T05:02:54Z</time>
      </trkpt>
      <trkpt lat="50.02222" lon="4.31654">
        <ele>280.4</ele>
        <time>2024-04-26T05:02:55Z</time>
      </trkpt>
      <trkpt lat="50.0222" lon="4.31649">
        <ele>280.6</ele>
        <time>2024-04-26T05:02:56Z</time>
      </trkpt>
      <trkpt lat="50.02218" lon="4.31644">
        <ele>280.6</ele>
        <time>2024-04-26T05:02:57Z</time>
      </trkpt>
      <trkpt lat="50.02215" lon="4.3164">
        <ele>281</ele>
        <time>2024-04-26T05:02:58Z</time>
      </trkpt>
      <trkpt lat="50.02212" lon="4.31635">
        <ele>281.6</ele>
        <time>2024-04-26T05:02:59Z</time>
      </trkpt>
      <trkpt lat="50.02209" lon="4.31631">
        <ele>282</ele>
        <time>2024-04-26T05:03:00Z</time>
      </trkpt>
      <trkpt lat="50.02206" lon="4.31627">
        <ele>282.2</ele>
        <time>2024-04-26T05:03:01Z</time>
      </trkpt>
      <trkpt lat="50.02203" lon="4.31623">
        <ele>282.6</ele>
        <time>2024-04-26T05:03:02Z</time>
      </trkpt>
      <trkpt lat="50.022" lon="4.31619">
        <ele>283</ele>
        <time>2024-04-26T05:03:03Z</time>
      </trkpt>
      <trkpt lat="50.02197" lon="4.31615">
        <ele>283</ele>
        <time>2024-04-26T05:03:04Z</time>
      </trkpt>
      <trkpt lat="50.02193" lon="4.31611">
        <ele>283.2</ele>
        <time>2024-04-26T05:03:05Z</time>
      </trkpt>
      <trkpt lat="50.0219" lon="4.31608">
        <ele>283.4</ele>
        <time>2024-04-26T05:03:06Z</time>
      </trkpt>
      <trkpt lat="50.02186" lon="4.31604">
        <ele>283.4</ele>
        <time>2024-04-26T05:03:07Z</time>
      </trkpt>
      <trkpt lat="50.02182" lon="4.31602">
        <ele>283.6</ele>
        <time>2024-04-26T05:03:08Z</time>
      </trkpt>
      <trkpt lat="50.02177" lon="4.316">
        <ele>283.6</ele>
        <time>2024-04-26T05:03:09Z</time>
      </trkpt>
      <trkpt lat="50.02173" lon="4.31597">
        <ele>283.8</ele>
        <time>2024-04-26T05:03:10Z</time>
      </trkpt>
      <trkpt lat="50.02169" lon="4.31595">
        <ele>283.8</ele>
        <time>2024-04-26T05:03:11Z</time>
      </trkpt>
      <trkpt lat="50.02165" lon="4.31592">
        <ele>283.8</ele>
        <time>2024-04-26T05:03:12Z</time>
      </trkpt>
      <trkpt lat="50.02161" lon="4.3159">
        <ele>283.8</ele>
        <time>2024-04-26T05:03:13Z</time>
      </trkpt>
      <trkpt lat="50.02156" lon="4.31587">
        <ele>284</ele>
        <time>2024-04-26T05:03:14Z</time>
      </trkpt>
      <trkpt lat="50.02152" lon="4.31585">
        <ele>283.8</ele>
        <time>2024-04-26T05:03:15Z</time>
      </trkpt>
      <trkpt lat="50.02147" lon="4.31583">
        <ele>284</ele>
        <time>2024-04-26T05:03:16Z</time>
      </trkpt>
      <trkpt lat="50.02143" lon="4.3158">
        <ele>284</ele>
        <time>2024-04-26T05:03:17Z</time>
      </trkpt>
      <trkpt lat="50.02138" lon="4.31579">
        <ele>284</ele>
        <time>2024-04-26T05:03:18Z</time>
      </trkpt>
      <trkpt lat="50.02134" lon="4.31577">
        <ele>284</ele>
        <time>2024-04-26T05:03:19Z</time>
      </trkpt>
      <trkpt lat="50.02129" lon="4.31575">
        <ele>284.2</ele>
        <time>2024-04-26T05:03:20Z</time>
      </trkpt>
      <trkpt lat="50.02125" lon="4.31573">
        <ele>284.2</ele>
        <time>2024-04-26T05:03:21Z</time>
      </trkpt>
      <trkpt lat="50.0212" lon="4.31571">
        <ele>284.2</ele>
        <time>2024-04-26T05:03:22Z</time>
      </trkpt>
      <trkpt lat="50.02116" lon="4.31569">
        <ele>284.2</ele>
        <time>2024-04-26T05:03:23Z</time>
      </trkpt>
      <trkpt lat="50.02111" lon="4.31567">
        <ele>284.4</ele>
        <time>2024-04-26T05:03:24Z</time>
      </trkpt>
      <trkpt lat="50.02107" lon="4.31565">
        <ele>284.6</ele>
        <time>2024-04-26T05:03:25Z</time>
      </trkpt>
      <trkpt lat="50.02102" lon="4.31564">
        <ele>285</ele>
        <time>2024-04-26T05:03:26Z</time>
      </trkpt>
      <trkpt lat="50.02098" lon="4.31562">
        <ele>285</ele>
        <time>2024-04-26T05:03:27Z</time>
      </trkpt>
      <trkpt lat="50.02093" lon="4.31561">
        <ele>285.2</ele>
        <time>2024-04-26T05:03:28Z</time>
      </trkpt>
      <trkpt lat="50.02089" lon="4.31559">
        <ele>285.2</ele>
        <time>2024-04-26T05:03:29Z</time>
      </trkpt>
      <trkpt lat="50.02084" lon="4.31557">
        <ele>285.4</ele>
        <time>2024-04-26T05:03:30Z</time>
      </trkpt>
      <trkpt lat="50.02079" lon="4.31555">
        <ele>286</ele>
        <time>2024-04-26T05:03:31Z</time>
      </trkpt>
      <trkpt lat="50.02075" lon="4.31553">
        <ele>286.4</ele>
        <time>2024-04-26T05:03:32Z</time>
      </trkpt>
      <trkpt lat="50.0207" lon="4.31551">
        <ele>286.8</ele>
        <time>2024-04-26T05:03:33Z</time>
      </trkpt>
      <trkpt lat="50.02066" lon="4.31549">
        <ele>287.2</ele>
        <time>2024-04-26T05:03:34Z</time>
      </trkpt>
      <trkpt lat="50.02061" lon="4.31547">
        <ele>287.4</ele>
        <time>2024-04-26T05:03:35Z</time>
      </trkpt>
      <trkpt lat="50.02057" lon="4.31545">
        <ele>287.6</ele>
        <time>2024-04-26T05:03:36Z</time>
      </trkpt>
      <trkpt lat="50.02052" lon="4.31544">
        <ele>287.6</ele>
        <time>2024-04-26T05:03:37Z</time>
      </trkpt>
      <trkpt lat="50.02048" lon="4.31542">
        <ele>287.6</ele>
        <time>2024-04-26T05:03:38Z</time>
      </trkpt>
      <trkpt lat="50.02044" lon="4.3154">
        <ele>288</ele>
        <time>2024-04-26T05:03:39Z</time>
      </trkpt>
      <trkpt lat="50.02039" lon="4.31538">
        <ele>287.8</ele>
        <time>2024-04-26T05:03:40Z</time>
      </trkpt>
      <trkpt lat="50.02035" lon="4.31536">
        <ele>288</ele>
        <time>2024-04-26T05:03:41Z</time>
      </trkpt>
      <trkpt lat="50.0203" lon="4.31534">
        <ele>288</ele>
        <time>2024-04-26T05:03:42Z</time>
      </trkpt>
      <trkpt lat="50.02026" lon="4.31533">
        <ele>288.2</ele>
        <time>2024-04-26T05:03:43Z</time>
      </trkpt>
      <trkpt lat="50.02021" lon="4.31531">
        <ele>288.2</ele>
        <time>2024-04-26T05:03:44Z</time>
      </trkpt>
      <trkpt lat="50.02017" lon="4.31529">
        <ele>288.4</ele>
        <time>2024-04-26T05:03:45Z</time>
      </trkpt>
      <trkpt lat="50.02012" lon="4.31527">
        <ele>288.6</ele>
        <time>2024-04-26T05:03:46Z</time>
      </trkpt>
      <trkpt lat="50.02008" lon="4.31525">
        <ele>288.8</ele>
        <time>2024-04-26T05:03:47Z</time>
      </trkpt>
      <trkpt lat="50.02003" lon="4.31524">
        <ele>288.8</ele>
        <time>2024-04-26T05:03:48Z</time>
      </trkpt>
      <trkpt lat="50.01999" lon="4.31522">
        <ele>288.8</ele>
        <time>2024-04-26T05:03:49Z</time>
      </trkpt>
      <trkpt lat="50.01995" lon="4.31521">
        <ele>289</ele>
        <time>2024-04-26T05:03:50Z</time>
      </trkpt>
      <trkpt lat="50.0199" lon="4.31519">
        <ele>289</ele>
        <time>2024-04-26T05:03:51Z</time>
      </trkpt>
      <trkpt lat="50.01985" lon="4.31518">
        <ele>289.4</ele>
        <time>2024-04-26T05:03:52Z</time>
      </trkpt>
      <trkpt lat="50.01981" lon="4.31516">
        <ele>289.6</ele>
        <time>2024-04-26T05:03:53Z</time>
      </trkpt>
      <trkpt lat="50.01977" lon="4.31514">
        <ele>289.6</ele>
        <time>2024-04-26T05:03:54Z</time>
      </trkpt>
      <trkpt lat="50.01972" lon="4.31512">
        <ele>289.8</ele>
        <time>2024-04-26T05:03:55Z</time>
      </trkpt>
      <trkpt lat="50.01967" lon="4.31511">
        <ele>289.8</ele>
        <time>2024-04-26T05:03:56Z</time>
      </trkpt>
      <trkpt lat="50.01962" lon="4.3151">
        <ele>290</ele>
        <time>2024-04-26T05:03:57Z</time>
      </trkpt>
      <trkpt lat="50.01957" lon="4.31508">
        <ele>290.4</ele>
        <time>2024-04-26T05:03:58Z</time>
      </trkpt>
      <trkpt lat="50.01952" lon="4.31507">
        <ele>291.2</ele>
        <time>2024-04-26T05:03:59Z</time>
      </trkpt>
      <trkpt lat="50.01948" lon="4.31505">
        <ele>291.8</ele>
        <time>2024-04-26T05:04:00Z</time>
      </trkpt>
      <trkpt lat="50.01943" lon="4.31503">
        <ele>291.8</ele>
        <time>2024-04-26T05:04:01Z</time>
      </trkpt>
      <trkpt lat="50.01938" lon="4.31502">
        <ele>292</ele>
        <time>2024-04-26T05:04:02Z</time>
      </trkpt>
      <trkpt lat="50.01934" lon="4.315">
        <ele>292.2</ele>
        <time>2024-04-26T05:04:03Z</time>
      </trkpt>
      <trkpt lat="50.01929" lon="4.31499">
        <ele>292.2</ele>
        <time>2024-04-26T05:04:04Z</time>
      </trkpt>
      <trkpt lat="50.01924" lon="4.31497">
        <ele>292.4</ele>
        <time>2024-04-26T05:04:05Z</time>
      </trkpt>
      <trkpt lat="50.0192" lon="4.31496">
        <ele>292.4</ele>
        <time>2024-04-26T05:04:06Z</time>
      </trkpt>
      <trkpt lat="50.01915" lon="4.31494">
        <ele>292.4</ele>
        <time>2024-04-26T05:04:07Z</time>
      </trkpt>
      <trkpt lat="50.0191" lon="4.31493">
        <ele>292.4</ele>
        <time>2024-04-26T05:04:08Z</time>
      </trkpt>
      <trkpt lat="50.01905" lon="4.31492">
        <ele>292.6</ele>
        <time>2024-04-26T05:04:09Z</time>
      </trkpt>
      <trkpt lat="50.01901" lon="4.3149">
        <ele>292.8</ele>
        <time>2024-04-26T05:04:10Z</time>
      </trkpt>
      <trkpt lat="50.01896" lon="4.31489">
        <ele>292.8</ele>
        <time>2024-04-26T05:04:11Z</time>
      </trkpt>
      <trkpt lat="50.01891" lon="4.31487">
        <ele>292.8</ele>
        <time>2024-04-26T05:04:12Z</time>
      </trkpt>
      <trkpt lat="50.01886" lon="4.31485">
        <ele>293</ele>
        <time>2024-04-26T05:04:13Z</time>
      </trkpt>
      <trkpt lat="50.01881" lon="4.31483">
        <ele>293</ele>
        <time>2024-04-26T05:04:14Z</time>
      </trkpt>
      <trkpt lat="50.01877" lon="4.31481">
        <ele>293.4</ele>
        <time>2024-04-26T05:04:15Z</time>
      </trkpt>
      <trkpt lat="50.01872" lon="4.31479">
        <ele>293.4</ele>
        <time>2024-04-26T05:04:16Z</time>
      </trkpt>
      <trkpt lat="50.01867" lon="4.31476">
        <ele>293.6</ele>
        <time>2024-04-26T05:04:17Z</time>
      </trkpt>
      <trkpt lat="50.01862" lon="4.31474">
        <ele>293.8</ele>
        <time>2024-04-26T05:04:18Z</time>
      </trkpt>
      <trkpt lat="50.01857" lon="4.31472">
        <ele>293.8</ele>
        <time>2024-04-26T05:04:19Z</time>
      </trkpt>
      <trkpt lat="50.01853" lon="4.3147">
        <ele>294</ele>
        <time>2024-04-26T05:04:20Z</time>
      </trkpt>
      <trkpt lat="50.01848" lon="4.31467">
        <ele>294</ele>
        <time>2024-04-26T05:04:21Z</time>
      </trkpt>
      <trkpt lat="50.01843" lon="4.31465">
        <ele>294.2</ele>
        <time>2024-04-26T05:04:22Z</time>
      </trkpt>
      <trkpt lat="50.01838" lon="4.31463">
        <ele>294.4</ele>
        <time>2024-04-26T05:04:23Z</time>
      </trkpt>
      <trkpt lat="50.01834" lon="4.31461">
        <ele>294.6</ele>
        <time>2024-04-26T05:04:24Z</time>
      </trkpt>
      <trkpt lat="50.01829" lon="4.31459">
        <ele>294.6</ele>
        <time>2024-04-26T05:04:25Z</time>
      </trkpt>
      <trkpt lat="50.01824" lon="4.31457">
        <ele>294.6</ele>
        <time>2024-04-26T05:04:26Z</time>
      </trkpt>
      <trkpt lat="50.0182" lon="4.31455">
        <ele>294.8</ele>
        <time>2024-04-26T05:04:27Z</time>
      </trkpt>
      <trkpt lat="50.01815" lon="4.31453">
        <ele>294.8</ele>
        <time>2024-04-26T05:04:28Z</time>
      </trkpt>
      <trkpt lat="50.01811" lon="4.3145">
        <ele>294.8</ele>
        <time>2024-04-26T05:04:29Z</time>
      </trkpt>
      <trkpt lat="50.01806" lon="4.31448">
        <ele>295</ele>
        <time>2024-04-26T05:04:30Z</time>
      </trkpt>
      <trkpt lat="50.01802" lon="4.31446">
        <ele>295.2</ele>
        <time>2024-04-26T05:04:31Z</time>
      </trkpt>
      <trkpt lat="50.01797" lon="4.31444">
        <ele>295.4</ele>
        <time>2024-04-26T05:04:32Z</time>
      </trkpt>
      <trkpt lat="50.01793" lon="4.31441">
        <ele>295.4</ele>
        <time>2024-04-26T05:04:33Z</time>
      </trkpt>
      <trkpt lat="50.01789" lon="4.31439">
        <ele>295.8</ele>
        <time>2024-04-26T05:04:34Z</time>
      </trkpt>
      <trkpt lat="50.01784" lon="4.31436">
        <ele>296</ele>
        <time>2024-04-26T05:04:35Z</time>
      </trkpt>
      <trkpt lat="50.0178" lon="4.31433">
        <ele>296.2</ele>
        <time>2024-04-26T05:04:36Z</time>
      </trkpt>
      <trkpt lat="50.01775" lon="4.3143">
        <ele>296.2</ele>
        <time>2024-04-26T05:04:37Z</time>
      </trkpt>
      <trkpt lat="50.01771" lon="4.31427">
        <ele>296.2</ele>
        <time>2024-04-26T05:04:38Z</time>
      </trkpt>
      <trkpt lat="50.01767" lon="4.31423">
        <ele>296.2</ele>
        <time>2024-04-26T05:04:39Z</time>
      </trkpt>
      <trkpt lat="50.01763" lon="4.3142">
        <ele>296.6</ele>
        <time>2024-04-26T05:04:40Z</time>
      </trkpt>
      <trkpt lat="50.01759" lon="4.31416">
        <ele>296.8</ele>
        <time>2024-04-26T05:04:41Z</time>
      </trkpt>
      <trkpt lat="50.01754" lon="4.31412">
        <ele>296.8</ele>
        <time>2024-04-26T05:04:42Z</time>
      </trkpt>
      <trkpt lat="50.0175" lon="4.31408">
        <ele>296.8</ele>
        <time>2024-04-26T05:04:43Z</time>
      </trkpt>
      <trkpt lat="50.01746" lon="4.31405">
        <ele>297</ele>
        <time>2024-04-26T05:04:44Z</time>
      </trkpt>
      <trkpt lat="50.01741" lon="4.31401">
        <ele>297</ele>
        <time>2024-04-26T05:04:45Z</time>
      </trkpt>
      <trkpt lat="50.01737" lon="4.31397">
        <ele>297.2</ele>
        <time>2024-04-26T05:04:46Z</time>
      </trkpt>
      <trkpt lat="50.01733" lon="4.31394">
        <ele>297</ele>
        <time>2024-04-26T05:04:47Z</time>
      </trkpt>
      <trkpt lat="50.01729" lon="4.3139">
        <ele>297.2</ele>
        <time>2024-04-26T05:04:48Z</time>
      </trkpt>
      <trkpt lat="50.01724" lon="4.31387">
        <ele>297.2</ele>
        <time>2024-04-26T05:04:49Z</time>
      </trkpt>
      <trkpt lat="50.0172" lon="4.31383">
        <ele>297.4</ele>
        <time>2024-04-26T05:04:50Z</time>
      </trkpt>
      <trkpt lat="50.01715" lon="4.3138">
        <ele>297.4</ele>
        <time>2024-04-26T05:04:51Z</time>
      </trkpt>
      <trkpt lat="50.01711" lon="4.31377">
        <ele>297.6</ele>
        <time>2024-04-26T05:04:52Z</time>
      </trkpt>
      <trkpt lat="50.01706" lon="4.31374">
        <ele>297.6</ele>
        <time>2024-04-26T05:04:53Z</time>
      </trkpt>
      <trkpt lat="50.01701" lon="4.31372">
        <ele>297.6</ele>
        <time>2024-04-26T05:04:54Z</time>
      </trkpt>
      <trkpt lat="50.01697" lon="4.3137">
        <ele>297.8</ele>
        <time>2024-04-26T05:04:55Z</time>
      </trkpt>
      <trkpt lat="50.01692" lon="4.31367">
        <ele>298</ele>
        <time>2024-04-26T05:04:56Z</time>
      </trkpt>
      <trkpt lat="50.01688" lon="4.31365">
        <ele>298</ele>
        <time>2024-04-26T05:04:57Z</time>
      </trkpt>
      <trkpt lat="50.01683" lon="4.31363">
        <ele>298.2</ele>
        <time>2024-04-26T05:04:58Z</time>
      </trkpt>
      <trkpt lat="50.01678" lon="4.31361">
        <ele>298.4</ele>
        <time>2024-04-26T05:04:59Z</time>
      </trkpt>
      <trkpt lat="50.01674" lon="4.31359">
        <ele>298.6</ele>
        <time>2024-04-26T05:05:00Z</time>
      </trkpt>
      <trkpt lat="50.01669" lon="4.31357">
        <ele>298.8</ele>
        <time>2024-04-26T05:05:01Z</time>
      </trkpt>
      <trkpt lat="50.01665" lon="4.31354">
        <ele>299</ele>
        <time>2024-04-26T05:05:02Z</time>
      </trkpt>
      <trkpt lat="50.0166" lon="4.31352">
        <ele>299</ele>
        <time>2024-04-26T05:05:03Z</time>
      </trkpt>
      <trkpt lat="50.01655" lon="4.31349">
        <ele>299.2</ele>
        <time>2024-04-26T05:05:04Z</time>
      </trkpt>
      <trkpt lat="50.01651" lon="4.31346">
        <ele>299.2</ele>
        <time>2024-04-26T05:05:05Z</time>
      </trkpt>
      <trkpt lat="50.01646" lon="4.31342">
        <ele>299.4</ele>
        <time>2024-04-26T05:05:06Z</time>
      </trkpt>
      <trkpt lat="50.01642" lon="4.31338">
        <ele>299.6</ele>
        <time>2024-04-26T05:05:07Z</time>
      </trkpt>
      <trkpt lat="50.01638" lon="4.31334">
        <ele>299.6</ele>
        <time>2024-04-26T05:05:08Z</time>
      </trkpt>
      <trkpt lat="50.01633" lon="4.3133">
        <ele>299.6</ele>
        <time>2024-04-26T05:05:09Z</time>
      </trkpt>
      <trkpt lat="50.01629" lon="4.31326">
        <ele>300</ele>
        <time>2024-04-26T05:05:10Z</time>
      </trkpt>
      <trkpt lat="50.01625" lon="4.31322">
        <ele>300.6</ele>
        <time>2024-04-26T05:05:11Z</time>
      </trkpt>
      <trkpt lat="50.01621" lon="4.31318">
        <ele>301</ele>
        <time>2024-04-26T05:05:12Z</time>
      </trkpt>
      <trkpt lat="50.01618" lon="4.31313">
        <ele>301.4</ele>
        <time>2024-04-26T05:05:13Z</time>
      </trkpt>
      <trkpt lat="50.01614" lon="4.31309">
        <ele>301.8</ele>
        <time>2024-04-26T05:05:14Z</time>
      </trkpt>
      <trkpt lat="50.0161" lon="4.31305">
        <ele>301.8</ele>
        <time>2024-04-26T05:05:15Z</time>
      </trkpt>
      <trkpt lat="50.01606" lon="4.31301">
        <ele>301.8</ele>
        <time>2024-04-26T05:05:16Z</time>
      </trkpt>
      <trkpt lat="50.01602" lon="4.31296">
        <ele>302</ele>
        <time>2024-04-26T05:05:17Z</time>
      </trkpt>
      <trkpt lat="50.01598" lon="4.31292">
        <ele>302.2</ele>
        <time>2024-04-26T05:05:18Z</time>
      </trkpt>
      <trkpt lat="50.01594" lon="4.31288">
        <ele>302.4</ele>
        <time>2024-04-26T05:05:19Z</time>
      </trkpt>
      <trkpt lat="50.0159" lon="4.31284">
        <ele>302.4</ele>
        <time>2024-04-26T05:05:20Z</time>
      </trkpt>
      <trkpt lat="50.01587" lon="4.31278">
        <ele>302.4</ele>
        <time>2024-04-26T05:05:21Z</time>
      </trkpt>
      <trkpt lat="50.01585" lon="4.3127">
        <ele>302.6</ele>
        <time>2024-04-26T05:05:22Z</time>
      </trkpt>
      <trkpt lat="50.01585" lon="4.31262">
        <ele>302.6</ele>
        <time>2024-04-26T05:05:23Z</time>
      </trkpt>
      <trkpt lat="50.01585" lon="4.31254">
        <ele>302.8</ele>
        <time>2024-04-26T05:05:24Z</time>
      </trkpt>
      <trkpt lat="50.01586" lon="4.31245">
        <ele>302.8</ele>
        <time>2024-04-26T05:05:25Z</time>
      </trkpt>
      <trkpt lat="50.01587" lon="4.31236">
        <ele>302.8</ele>
        <time>2024-04-26T05:05:26Z</time>
      </trkpt>
      <trkpt lat="50.01589" lon="4.31227">
        <ele>303</ele>
        <time>2024-04-26T05:05:27Z</time>
      </trkpt>
      <trkpt lat="50.0159" lon="4.31218">
        <ele>303.2</ele>
        <time>2024-04-26T05:05:28Z</time>
      </trkpt>
      <trkpt lat="50.01592" lon="4.31209">
        <ele>303.4</ele>
        <time>2024-04-26T05:05:29Z</time>
      </trkpt>
      <trkpt lat="50.01594" lon="4.312">
        <ele>303.2</ele>
        <time>2024-04-26T05:05:30Z</time>
      </trkpt>
      <trkpt lat="50.01596" lon="4.31191">
        <ele>303.4</ele>
        <time>2024-04-26T05:05:31Z</time>
      </trkpt>
      <trkpt lat="50.01598" lon="4.31182">
        <ele>303.4</ele>
        <time>2024-04-26T05:05:32Z</time>
      </trkpt>
      <trkpt lat="50.016" lon="4.31173">
        <ele>303.2</ele>
        <time>2024-04-26T05:05:33Z</time>
      </trkpt>
      <trkpt lat="50.01602" lon="4.31163">
        <ele>303.4</ele>
        <time>2024-04-26T05:05:34Z</time>
      </trkpt>
      <trkpt lat="50.01604" lon="4.31153">
        <ele>303.4</ele>
        <time>2024-04-26T05:05:35Z</time>
      </trkpt>
      <trkpt lat="50.01606" lon="4.31143">
        <ele>303.4</ele>
        <time>2024-04-26T05:05:36Z</time>
      </trkpt>
      <trkpt lat="50.01609" lon="4.31133">
        <ele>303.4</ele>
        <time>2024-04-26T05:05:37Z</time>
      </trkpt>
      <trkpt lat="50.01611" lon="4.31123">
        <ele>303.4</ele>
        <time>2024-04-26T05:05:38Z</time>
      </trkpt>
      <trkpt lat="50.01613" lon="4.31113">
        <ele>303.2</ele>
        <time>2024-04-26T05:05:39Z</time>
      </trkpt>
      <trkpt lat="50.01616" lon="4.31102">
        <ele>303.2</ele>
        <time>2024-04-26T05:05:40Z</time>
      </trkpt>
      <trkpt lat="50.01618" lon="4.31091">
        <ele>303.2</ele>
        <time>2024-04-26T05:05:41Z</time>
      </trkpt>
      <trkpt lat="50.01621" lon="4.31081">
        <ele>303.2</ele>
        <time>2024-04-26T05:05:42Z</time>
      </trkpt>
      <trkpt lat="50.01623" lon="4.3107">
        <ele>303.2</ele>
        <time>2024-04-26T05:05:43Z</time>
      </trkpt>
      <trkpt lat="50.01626" lon="4.31058">
        <ele>303</ele>
        <time>2024-04-26T05:05:44Z</time>
      </trkpt>
      <trkpt lat="50.01628" lon="4.31047">
        <ele>302.8</ele>
        <time>2024-04-26T05:05:45Z</time>
      </trkpt>
      <trkpt lat="50.01631" lon="4.31036">
        <ele>302.6</ele>
        <time>2024-04-26T05:05:46Z</time>
      </trkpt>
      <trkpt lat="50.01634" lon="4.31024">
        <ele>302.4</ele>
        <time>2024-04-26T05:05:47Z</time>
      </trkpt>
      <trkpt lat="50.01636" lon="4.31013">
        <ele>302</ele>
        <time>2024-04-26T05:05:48Z</time>
      </trkpt>
      <trkpt lat="50.01639" lon="4.31001">
        <ele>301.8</ele>
        <time>2024-04-26T05:05:49Z</time>
      </trkpt>
      <trkpt lat="50.01641" lon="4.30989">
        <ele>301.4</ele>
        <time>2024-04-26T05:05:50Z</time>
      </trkpt>
      <trkpt lat="50.01644" lon="4.30977">
        <ele>301.2</ele>
        <time>2024-04-26T05:05:51Z</time>
      </trkpt>
      <trkpt lat="50.01647" lon="4.30965">
        <ele>301.2</ele>
        <time>2024-04-26T05:05:52Z</time>
      </trkpt>
      <trkpt lat="50.01649" lon="4.30953">
        <ele>301</ele>
        <time>2024-04-26T05:05:53Z</time>
      </trkpt>
      <trkpt lat="50.01652" lon="4.30941">
        <ele>300.6</ele>
        <time>2024-04-26T05:05:54Z</time>
      </trkpt>
      <trkpt lat="50.01655" lon="4.30929">
        <ele>300.6</ele>
        <time>2024-04-26T05:05:55Z</time>
      </trkpt>
      <trkpt lat="50.01657" lon="4.30917">
        <ele>300.4</ele>
        <time>2024-04-26T05:05:56Z</time>
      </trkpt>
      <trkpt lat="50.0166" lon="4.30905">
        <ele>300.4</ele>
        <time>2024-04-26T05:05:57Z</time>
      </trkpt>
      <trkpt lat="50.01663" lon="4.30893">
        <ele>300.2</ele>
        <time>2024-04-26T05:05:58Z</time>
      </trkpt>
      <trkpt lat="50.01665" lon="4.3088">
        <ele>300.2</ele>
        <time>2024-04-26T05:05:59Z</time>
      </trkpt>
      <trkpt lat="50.01668" lon="4.30868">
        <ele>299.8</ele>
        <time>2024-04-26T05:06:00Z</time>
      </trkpt>
      <trkpt lat="50.01671" lon="4.30855">
        <ele>299.8</ele>
        <time>2024-04-26T05:06:01Z</time>
      </trkpt>
      <trkpt lat="50.01674" lon="4.30843">
        <ele>299.6</ele>
        <time>2024-04-26T05:06:02Z</time>
      </trkpt>
      <trkpt lat="50.01676" lon="4.30831">
        <ele>299.6</ele>
        <time>2024-04-26T05:06:03Z</time>
      </trkpt>
      <trkpt lat="50.01679" lon="4.30819">
        <ele>299.6</ele>
        <time>2024-04-26T05:06:04Z</time>
      </trkpt>
      <trkpt lat="50.01682" lon="4.30807">
        <ele>299.2</ele>
        <time>2024-04-26T05:06:05Z</time>
      </trkpt>
      <trkpt lat="50.01684" lon="4.30795">
        <ele>299</ele>
        <time>2024-04-26T05:06:06Z</time>
      </trkpt>
      <trkpt lat="50.01687" lon="4.30784">
        <ele>299</ele>
        <time>2024-04-26T05:06:07Z</time>
      </trkpt>
      <trkpt lat="50.01689" lon="4.30772">
        <ele>298.6</ele>
        <time>2024-04-26T05:06:08Z</time>
      </trkpt>
      <trkpt lat="50.01692" lon="4.30761">
        <ele>298.4</ele>
        <time>2024-04-26T05:06:09Z</time>
      </trkpt>
      <trkpt lat="50.01694" lon="4.30751">
        <ele>298</ele>
        <time>2024-04-26T05:06:10Z</time>
      </trkpt>
      <trkpt lat="50.01697" lon="4.3074">
        <ele>298</ele>
        <time>2024-04-26T05:06:11Z</time>
      </trkpt>
      <trkpt lat="50.01699" lon="4.30729">
        <ele>298</ele>
        <time>2024-04-26T05:06:12Z</time>
      </trkpt>
      <trkpt lat="50.01701" lon="4.30719">
        <ele>298</ele>
        <time>2024-04-26T05:06:13Z</time>
      </trkpt>
      <trkpt lat="50.01704" lon="4.30709">
        <ele>297.8</ele>
        <time>2024-04-26T05:06:14Z</time>
      </trkpt>
      <trkpt lat="50.01706" lon="4.30699">
        <ele>298</ele>
        <time>2024-04-26T05:06:15Z</time>
      </trkpt>
      <trkpt lat="50.01708" lon="4.3069">
        <ele>298</ele>
        <time>2024-04-26T05:06:16Z</time>
      </trkpt>
      <trkpt lat="50.0171" lon="4.3068">
        <ele>298</ele>
        <time>2024-04-26T05:06:17Z</time>
      </trkpt>
      <trkpt lat="50.01711" lon="4.3067">
        <ele>298</ele>
        <time>2024-04-26T05:06:18Z</time>
      </trkpt>
      <trkpt lat="50.01713" lon="4.30661">
        <ele>298</ele>
        <time>2024-04-26T05:06:19Z</time>
      </trkpt>
      <trkpt lat="50.01715" lon="4.30651">
        <ele>298</ele>
        <time>2024-04-26T05:06:20Z</time>
      </trkpt>
      <trkpt lat="50.01717" lon="4.30642">
        <ele>298</ele>
        <time>2024-04-26T05:06:21Z</time>
      </trkpt>
      <trkpt lat="50.01719" lon="4.30632">
        <ele>298</ele>
        <time>2024-04-26T05:06:22Z</time>
      </trkpt>
      <trkpt lat="50.01721" lon="4.30623">
        <ele>298.2</ele>
        <time>2024-04-26T05:06:23Z</time>
      </trkpt>
      <trkpt lat="50.01723" lon="4.30614">
        <ele>298.2</ele>
        <time>2024-04-26T05:06:24Z</time>
      </trkpt>
      <trkpt lat="50.01725" lon="4.30605">
        <ele>298.4</ele>
        <time>2024-04-26T05:06:25Z</time>
      </trkpt>
      <trkpt lat="50.01727" lon="4.30595">
        <ele>298.4</ele>
        <time>2024-04-26T05:06:26Z</time>
      </trkpt>
      <trkpt lat="50.01729" lon="4.30586">
        <ele>298.4</ele>
        <time>2024-04-26T05:06:27Z</time>
      </trkpt>
      <trkpt lat="50.01731" lon="4.30577">
        <ele>298.6</ele>
        <time>2024-04-26T05:06:28Z</time>
      </trkpt>
      <trkpt lat="50.01733" lon="4.30568">
        <ele>298.8</ele>
        <time>2024-04-26T05:06:29Z</time>
      </trkpt>
      <trkpt lat="50.01735" lon="4.30559">
        <ele>299</ele>
        <time>2024-04-26T05:06:30Z</time>
      </trkpt>
      <trkpt lat="50.01737" lon="4.30549">
        <ele>299</ele>
        <time>2024-04-26T05:06:31Z</time>
      </trkpt>
      <trkpt lat="50.01739" lon="4.3054">
        <ele>299.2</ele>
        <time>2024-04-26T05:06:32Z</time>
      </trkpt>
      <trkpt lat="50.01741" lon="4.30531">
        <ele>299.4</ele>
        <time>2024-04-26T05:06:33Z</time>
      </trkpt>
      <trkpt lat="50.01744" lon="4.30522">
        <ele>299.6</ele>
        <time>2024-04-26T05:06:34Z</time>
      </trkpt>
      <trkpt lat="50.01745" lon="4.30513">
        <ele>299.6</ele>
        <time>2024-04-26T05:06:35Z</time>
      </trkpt>
      <trkpt lat="50.01747" lon="4.30504">
        <ele>299.8</ele>
        <time>2024-04-26T05:06:36Z</time>
      </trkpt>
      <trkpt lat="50.01749" lon="4.30496">
        <ele>299.8</ele>
        <time>2024-04-26T05:06:37Z</time>
      </trkpt>
      <trkpt lat="50.01751" lon="4.30487">
        <ele>299.8</ele>
        <time>2024-04-26T05:06:38Z</time>
      </trkpt>
      <trkpt lat="50.01753" lon="4.30478">
        <ele>300</ele>
        <time>2024-04-26T05:06:39Z</time>
      </trkpt>
      <trkpt lat="50.01755" lon="4.30469">
        <ele>300</ele>
        <time>2024-04-26T05:06:40Z</time>
      </trkpt>
      <trkpt lat="50.01757" lon="4.30461">
        <ele>300</ele>
        <time>2024-04-26T05:06:41Z</time>
      </trkpt>
      <trkpt lat="50.01759" lon="4.30452">
        <ele>300</ele>
        <time>2024-04-26T05:06:42Z</time>
      </trkpt>
      <trkpt lat="50.01761" lon="4.30443">
        <ele>300.4</ele>
        <time>2024-04-26T05:06:43Z</time>
      </trkpt>
      <trkpt lat="50.01763" lon="4.30434">
        <ele>300.6</ele>
        <time>2024-04-26T05:06:44Z</time>
      </trkpt>
      <trkpt lat="50.01765" lon="4.30425">
        <ele>300.6</ele>
        <time>2024-04-26T05:06:45Z</time>
      </trkpt>
      <trkpt lat="50.01767" lon="4.30416">
        <ele>301</ele>
        <time>2024-04-26T05:06:46Z</time>
      </trkpt>
      <trkpt lat="50.01768" lon="4.30407">
        <ele>301</ele>
        <time>2024-04-26T05:06:47Z</time>
      </trkpt>
      <trkpt lat="50.01769" lon="4.30397">
        <ele>301.2</ele>
        <time>2024-04-26T05:06:48Z</time>
      </trkpt>
      <trkpt lat="50.01768" lon="4.30388">
        <ele>301.2</ele>
        <time>2024-04-26T05:06:49Z</time>
      </trkpt>
      <trkpt lat="50.01767" lon="4.3038">
        <ele>301.4</ele>
        <time>2024-04-26T05:06:50Z</time>
      </trkpt>
      <trkpt lat="50.01765" lon="4.30371">
        <ele>301.4</ele>
        <time>2024-04-26T05:06:51Z</time>
      </trkpt>
      <trkpt lat="50.01763" lon="4.30363">
        <ele>301.4</ele>
        <time>2024-04-26T05:06:52Z</time>
      </trkpt>
      <trkpt lat="50.01761" lon="4.30354">
        <ele>301.6</ele>
        <time>2024-04-26T05:06:53Z</time>
      </trkpt>
      <trkpt lat="50.0176" lon="4.30346">
        <ele>301.6</ele>
        <time>2024-04-26T05:06:54Z</time>
      </trkpt>
      <trkpt lat="50.01758" lon="4.30338">
        <ele>301.8</ele>
        <time>2024-04-26T05:06:55Z</time>
      </trkpt>
      <trkpt lat="50.01755" lon="4.3033">
        <ele>301.8</ele>
        <time>2024-04-26T05:06:56Z</time>
      </trkpt>
      <trkpt lat="50.01753" lon="4.30321">
        <ele>302</ele>
        <time>2024-04-26T05:06:57Z</time>
      </trkpt>
      <trkpt lat="50.01751" lon="4.30313">
        <ele>302.2</ele>
        <time>2024-04-26T05:06:58Z</time>
      </trkpt>
      <trkpt lat="50.01749" lon="4.30304">
        <ele>302.4</ele>
        <time>2024-04-26T05:06:59Z</time>
      </trkpt>
      <trkpt lat="50.01747" lon="4.30296">
        <ele>302.4</ele>
        <time>2024-04-26T05:07:00Z</time>
      </trkpt>
      <trkpt lat="50.01745" lon="4.30287">
        <ele>302.8</ele>
        <time>2024-04-26T05:07:01Z</time>
      </trkpt>
      <trkpt lat="50.01742" lon="4.30279">
        <ele>302.8</ele>
        <time>2024-04-26T05:07:02Z</time>
      </trkpt>
      <trkpt lat="50.0174" lon="4.30271">
        <ele>302.8</ele>
        <time>2024-04-26T05:07:03Z</time>
      </trkpt>
      <trkpt lat="50.01738" lon="4.30263">
        <ele>302.8</ele>
        <time>2024-04-26T05:07:04Z</time>
      </trkpt>
      <trkpt lat="50.01735" lon="4.30255">
        <ele>303</ele>
        <time>2024-04-26T05:07:05Z</time>
      </trkpt>
      <trkpt lat="50.01733" lon="4.30246">
        <ele>303</ele>
        <time>2024-04-26T05:07:06Z</time>
      </trkpt>
      <trkpt lat="50.01731" lon="4.30237">
        <ele>303</ele>
        <time>2024-04-26T05:07:07Z</time>
      </trkpt>
      <trkpt lat="50.01728" lon="4.30228">
        <ele>303.2</ele>
        <time>2024-04-26T05:07:08Z</time>
      </trkpt>
      <trkpt lat="50.01726" lon="4.30219">
        <ele>303.2</ele>
        <time>2024-04-26T05:07:09Z</time>
      </trkpt>
      <trkpt lat="50.01724" lon="4.3021">
        <ele>303.2</ele>
        <time>2024-04-26T05:07:10Z</time>
      </trkpt>
      <trkpt lat="50.01722" lon="4.30201">
        <ele>303.4</ele>
        <time>2024-04-26T05:07:11Z</time>
      </trkpt>
      <trkpt lat="50.0172" lon="4.30191">
        <ele>303.4</ele>
        <time>2024-04-26T05:07:12Z</time>
      </trkpt>
      <trkpt lat="50.01718" lon="4.30182">
        <ele>303.6</ele>
        <time>2024-04-26T05:07:13Z</time>
      </trkpt>
      <trkpt lat="50.01715" lon="4.30172">
        <ele>303.4</ele>
        <time>2024-04-26T05:07:14Z</time>
      </trkpt>
      <trkpt lat="50.01714" lon="4.30162">
        <ele>303.6</ele>
        <time>2024-04-26T05:07:15Z</time>
      </trkpt>
      <trkpt lat="50.01711" lon="4.30153">
        <ele>303.6</ele>
        <time>2024-04-26T05:07:16Z</time>
      </trkpt>
      <trkpt lat="50.01709" lon="4.30143">
        <ele>303.6</ele>
        <time>2024-04-26T05:07:17Z</time>
      </trkpt>
      <trkpt lat="50.01707" lon="4.30133">
        <ele>303.6</ele>
        <time>2024-04-26T05:07:18Z</time>
      </trkpt>
      <trkpt lat="50.01705" lon="4.30124">
        <ele>303.6</ele>
        <time>2024-04-26T05:07:19Z</time>
      </trkpt>
      <trkpt lat="50.01703" lon="4.30115">
        <ele>303.6</ele>
        <time>2024-04-26T05:07:20Z</time>
      </trkpt>
      <trkpt lat="50.01701" lon="4.30105">
        <ele>303.6</ele>
        <time>2024-04-26T05:07:21Z</time>
      </trkpt>
      <trkpt lat="50.01699" lon="4.30095">
        <ele>303.8</ele>
        <time>2024-04-26T05:07:22Z</time>
      </trkpt>
      <trkpt lat="50.01697" lon="4.30085">
        <ele>303.8</ele>
        <time>2024-04-26T05:07:23Z</time>
      </trkpt>
      <trkpt lat="50.01695" lon="4.30076">
        <ele>303.4</ele>
        <time>2024-04-26T05:07:24Z</time>
      </trkpt>
      <trkpt lat="50.01692" lon="4.30065">
        <ele>303.4</ele>
        <time>2024-04-26T05:07:25Z</time>
      </trkpt>
      <trkpt lat="50.0169" lon="4.30055">
        <ele>303.6</ele>
        <time>2024-04-26T05:07:26Z</time>
      </trkpt>
      <trkpt lat="50.01688" lon="4.30045">
        <ele>303.6</ele>
        <time>2024-04-26T05:07:27Z</time>
      </trkpt>
      <trkpt lat="50.01686" lon="4.30035">
        <ele>303.6</ele>
        <time>2024-04-26T05:07:28Z</time>
      </trkpt>
      <trkpt lat="50.01684" lon="4.30025">
        <ele>303.4</ele>
        <time>2024-04-26T05:07:29Z</time>
      </trkpt>
      <trkpt lat="50.01682" lon="4.30015">
        <ele>303.6</ele>
        <time>2024-04-26T05:07:30Z</time>
      </trkpt>
      <trkpt lat="50.0168" lon="4.30005">
        <ele>303.4</ele>
        <time>2024-04-26T05:07:31Z</time>
      </trkpt>
      <trkpt lat="50.01678" lon="4.29996">
        <ele>303.4</ele>
        <time>2024-04-26T05:07:32Z</time>
      </trkpt>
      <trkpt lat="50.01676" lon="4.29987">
        <ele>303.2</ele>
        <time>2024-04-26T05:07:33Z</time>
      </trkpt>
      <trkpt lat="50.01674" lon="4.29977">
        <ele>303.2</ele>
        <time>2024-04-26T05:07:34Z</time>
      </trkpt>
      <trkpt lat="50.01673" lon="4.29967">
        <ele>303.2</ele>
        <time>2024-04-26T05:07:35Z</time>
      </trkpt>
      <trkpt lat="50.01671" lon="4.29957">
        <ele>303.2</ele>
        <time>2024-04-26T05:07:36Z</time>
      </trkpt>
      <trkpt lat="50.01669" lon="4.29948">
        <ele>302.8</ele>
        <time>2024-04-26T05:07:37Z</time>
      </trkpt>
      <trkpt lat="50.01667" lon="4.29938">
        <ele>302.8</ele>
        <time>2024-04-26T05:07:38Z</time>
      </trkpt>
      <trkpt lat="50.01665" lon="4.29929">
        <ele>302.8</ele>
        <time>2024-04-26T05:07:39Z</time>
      </trkpt>
      <trkpt lat="50.01662" lon="4.29919">
        <ele>302.8</ele>
        <time>2024-04-26T05:07:40Z</time>
      </trkpt>
      <trkpt lat="50.0166" lon="4.2991">
        <ele>302.6</ele>
        <time>2024-04-26T05:07:41Z</time>
      </trkpt>
      <trkpt lat="50.01658" lon="4.299">
        <ele>302.8</ele>
        <time>2024-04-26T05:07:42Z</time>
      </trkpt>
      <trkpt lat="50.01655" lon="4.2989">
        <ele>302.8</ele>
        <time>2024-04-26T05:07:43Z</time>
      </trkpt>
      <trkpt lat="50.01653" lon="4.29881">
        <ele>302.8</ele>
        <time>2024-04-26T05:07:44Z</time>
      </trkpt>
      <trkpt lat="50.01651" lon="4.29871">
        <ele>302.8</ele>
        <time>2024-04-26T05:07:45Z</time>
      </trkpt>
      <trkpt lat="50.01649" lon="4.29861">
        <ele>302.8</ele>
        <time>2024-04-26T05:07:46Z</time>
      </trkpt>
      <trkpt lat="50.01647" lon="4.29851">
        <ele>302.8</ele>
        <time>2024-04-26T05:07:47Z</time>
      </trkpt>
      <trkpt lat="50.01644" lon="4.29841">
        <ele>302.8</ele>
        <time>2024-04-26T05:07:48Z</time>
      </trkpt>
      <trkpt lat="50.01642" lon="4.29831">
        <ele>303</ele>
        <time>2024-04-26T05:07:49Z</time>
      </trkpt>
      <trkpt lat="50.0164" lon="4.29822">
        <ele>303</ele>
        <time>2024-04-26T05:07:50Z</time>
      </trkpt>
      <trkpt lat="50.01638" lon="4.29812">
        <ele>303</ele>
        <time>2024-04-26T05:07:51Z</time>
      </trkpt>
      <trkpt lat="50.01635" lon="4.29802">
        <ele>303.2</ele>
        <time>2024-04-26T05:07:52Z</time>
      </trkpt>
      <trkpt lat="50.01633" lon="4.29793">
        <ele>303.2</ele>
        <time>2024-04-26T05:07:53Z</time>
      </trkpt>
      <trkpt lat="50.01631" lon="4.29783">
        <ele>303.2</ele>
        <time>2024-04-26T05:07:54Z</time>
      </trkpt>
      <trkpt lat="50.01629" lon="4.29773">
        <ele>303.2</ele>
        <time>2024-04-26T05:07:55Z</time>
      </trkpt>
      <trkpt lat="50.01627" lon="4.29763">
        <ele>303.2</ele>
        <time>2024-04-26T05:07:56Z</time>
      </trkpt>
      <trkpt lat="50.01625" lon="4.29753">
        <ele>303.2</ele>
        <time>2024-04-26T05:07:57Z</time>
      </trkpt>
      <trkpt lat="50.01623" lon="4.29744">
        <ele>303.2</ele>
        <time>2024-04-26T05:07:58Z</time>
      </trkpt>
      <trkpt lat="50.01621" lon="4.29734">
        <ele>303.2</ele>
        <time>2024-04-26T05:07:59Z</time>
      </trkpt>
      <trkpt lat="50.01619" lon="4.29724">
        <ele>303.4</ele>
        <time>2024-04-26T05:08:00Z</time>
      </trkpt>
      <trkpt lat="50.01617" lon="4.29714">
        <ele>303.2</ele>
        <time>2024-04-26T05:08:01Z</time>
      </trkpt>
      <trkpt lat="50.01615" lon="4.29704">
        <ele>303</ele>
        <time>2024-04-26T05:08:02Z</time>
      </trkpt>
      <trkpt lat="50.01613" lon="4.29695">
        <ele>303</ele>
        <time>2024-04-26T05:08:03Z</time>
      </trkpt>
      <trkpt lat="50.01611" lon="4.29685">
        <ele>302.8</ele>
        <time>2024-04-26T05:08:04Z</time>
      </trkpt>
      <trkpt lat="50.01609" lon="4.29675">
        <ele>302.8</ele>
        <time>2024-04-26T05:08:05Z</time>
      </trkpt>
      <trkpt lat="50.01607" lon="4.29665">
        <ele>302.8</ele>
        <time>2024-04-26T05:08:06Z</time>
      </trkpt>
      <trkpt lat="50.01605" lon="4.29655">
        <ele>302.8</ele>
        <time>2024-04-26T05:08:07Z</time>
      </trkpt>
      <trkpt lat="50.01603" lon="4.29645">
        <ele>302.8</ele>
        <time>2024-04-26T05:08:08Z</time>
      </trkpt>
      <trkpt lat="50.01601" lon="4.29634">
        <ele>302.6</ele>
        <time>2024-04-26T05:08:09Z</time>
      </trkpt>
      <trkpt lat="50.01599" lon="4.29624">
        <ele>302.6</ele>
        <time>2024-04-26T05:08:10Z</time>
      </trkpt>
      <trkpt lat="50.01597" lon="4.29614">
        <ele>302.6</ele>
        <time>2024-04-26T05:08:11Z</time>
      </trkpt>
      <trkpt lat="50.01595" lon="4.29604">
        <ele>302.4</ele>
        <time>2024-04-26T05:08:12Z</time>
      </trkpt>
      <trkpt lat="50.01592" lon="4.29594">
        <ele>302.4</ele>
        <time>2024-04-26T05:08:13Z</time>
      </trkpt>
      <trkpt lat="50.0159" lon="4.29584">
        <ele>302.4</ele>
        <time>2024-04-26T05:08:14Z</time>
      </trkpt>
      <trkpt lat="50.01588" lon="4.29574">
        <ele>302.2</ele>
        <time>2024-04-26T05:08:15Z</time>
      </trkpt>
      <trkpt lat="50.01586" lon="4.29564">
        <ele>302.2</ele>
        <time>2024-04-26T05:08:16Z</time>
      </trkpt>
      <trkpt lat="50.01584" lon="4.29554">
        <ele>302</ele>
        <time>2024-04-26T05:08:17Z</time>
      </trkpt>
      <trkpt lat="50.01582" lon="4.29544">
        <ele>302</ele>
        <time>2024-04-26T05:08:18Z</time>
      </trkpt>
      <trkpt lat="50.0158" lon="4.29533">
        <ele>301.8</ele>
        <time>2024-04-26T05:08:19Z</time>
      </trkpt>
      <trkpt lat="50.01578" lon="4.29523">
        <ele>301.8</ele>
        <time>2024-04-26T05:08:20Z</time>
      </trkpt>
      <trkpt lat="50.01576" lon="4.29513">
        <ele>301.6</ele>
        <time>2024-04-26T05:08:21Z</time>
      </trkpt>
      <trkpt lat="50.01574" lon="4.29503">
        <ele>301.6</ele>
        <time>2024-04-26T05:08:22Z</time>
      </trkpt>
      <trkpt lat="50.01571" lon="4.29493">
        <ele>301.6</ele>
        <time>2024-04-26T05:08:23Z</time>
      </trkpt>
      <trkpt lat="50.01569" lon="4.29483">
        <ele>301.4</ele>
        <time>2024-04-26T05:08:24Z</time>
      </trkpt>
      <trkpt lat="50.01567" lon="4.29473">
        <ele>301.2</ele>
        <time>2024-04-26T05:08:25Z</time>
      </trkpt>
      <trkpt lat="50.01565" lon="4.29463">
        <ele>301</ele>
        <time>2024-04-26T05:08:26Z</time>
      </trkpt>
      <trkpt lat="50.01562" lon="4.29453">
        <ele>300.8</ele>
        <time>2024-04-26T05:08:27Z</time>
      </trkpt>
      <trkpt lat="50.0156" lon="4.29443">
        <ele>300.8</ele>
        <time>2024-04-26T05:08:28Z</time>
      </trkpt>
      <trkpt lat="50.01558" lon="4.29433">
        <ele>300.8</ele>
        <time>2024-04-26T05:08:29Z</time>
      </trkpt>
      <trkpt lat="50.01556" lon="4.29423">
        <ele>300.8</ele>
        <time>2024-04-26T05:08:30Z</time>
      </trkpt>
      <trkpt lat="50.01553" lon="4.29413">
        <ele>300.6</ele>
        <time>2024-04-26T05:08:31Z</time>
      </trkpt>
      <trkpt lat="50.01551" lon="4.29403">
        <ele>300.6</ele>
        <time>2024-04-26T05:08:32Z</time>
      </trkpt>
      <trkpt lat="50.01549" lon="4.29393">
        <ele>300.6</ele>
        <time>2024-04-26T05:08:33Z</time>
      </trkpt>
      <trkpt lat="50.01547" lon="4.29383">
        <ele>300.4</ele>
        <time>2024-04-26T05:08:34Z</time>
      </trkpt>
      <trkpt lat="50.01545" lon="4.29373">
        <ele>300.6</ele>
        <time>2024-04-26T05:08:35Z</time>
      </trkpt>
      <trkpt lat="50.01543" lon="4.29363">
        <ele>300.4</ele>
        <time>2024-04-26T05:08:36Z</time>
      </trkpt>
      <trkpt lat="50.01541" lon="4.29353">
        <ele>300.4</ele>
        <time>2024-04-26T05:08:37Z</time>
      </trkpt>
      <trkpt lat="50.01539" lon="4.29343">
        <ele>300.4</ele>
        <time>2024-04-26T05:08:38Z</time>
      </trkpt>
      <trkpt lat="50.01536" lon="4.29333">
        <ele>300.4</ele>
        <time>2024-04-26T05:08:39Z</time>
      </trkpt>
      <trkpt lat="50.01534" lon="4.29323">
        <ele>300.4</ele>
        <time>2024-04-26T05:08:40Z</time>
      </trkpt>
      <trkpt lat="50.01532" lon="4.29313">
        <ele>300.4</ele>
        <time>2024-04-26T05:08:41Z</time>
      </trkpt>
      <trkpt lat="50.0153" lon="4.29302">
        <ele>300.4</ele>
        <time>2024-04-26T05:08:42Z</time>
      </trkpt>
      <trkpt lat="50.01528" lon="4.29292">
        <ele>300.4</ele>
        <time>2024-04-26T05:08:43Z</time>
      </trkpt>
      <trkpt lat="50.01526" lon="4.29282">
        <ele>300.2</ele>
        <time>2024-04-26T05:08:44Z</time>
      </trkpt>
      <trkpt lat="50.01523" lon="4.29272">
        <ele>300.2</ele>
        <time>2024-04-26T05:08:45Z</time>
      </trkpt>
      <trkpt lat="50.01521" lon="4.29262">
        <ele>300.2</ele>
        <time>2024-04-26T05:08:46Z</time>
      </trkpt>
      <trkpt lat="50.01518" lon="4.29252">
        <ele>300.2</ele>
        <time>2024-04-26T05:08:47Z</time>
      </trkpt>
      <trkpt lat="50.01516" lon="4.29242">
        <ele>300.2</ele>
        <time>2024-04-26T05:08:48Z</time>
      </trkpt>
      <trkpt lat="50.01514" lon="4.29232">
        <ele>300</ele>
        <time>2024-04-26T05:08:49Z</time>
      </trkpt>
      <trkpt lat="50.01512" lon="4.29222">
        <ele>299.8</ele>
        <time>2024-04-26T05:08:50Z</time>
      </trkpt>
      <trkpt lat="50.01509" lon="4.29212">
        <ele>299.8</ele>
        <time>2024-04-26T05:08:51Z</time>
      </trkpt>
      <trkpt lat="50.01507" lon="4.29202">
        <ele>299</ele>
        <time>2024-04-26T05:08:52Z</time>
      </trkpt>
      <trkpt lat="50.01505" lon="4.29192">
        <ele>298.8</ele>
        <time>2024-04-26T05:08:53Z</time>
      </trkpt>
      <trkpt lat="50.01503" lon="4.29181">
        <ele>298.4</ele>
        <time>2024-04-26T05:08:54Z</time>
      </trkpt>
      <trkpt lat="50.01501" lon="4.29171">
        <ele>298.4</ele>
        <time>2024-04-26T05:08:55Z</time>
      </trkpt>
      <trkpt lat="50.01498" lon="4.29161">
        <ele>298.2</ele>
        <time>2024-04-26T05:08:56Z</time>
      </trkpt>
      <trkpt lat="50.01496" lon="4.29151">
        <ele>298</ele>
        <time>2024-04-26T05:08:57Z</time>
      </trkpt>
      <trkpt lat="50.01494" lon="4.29141">
        <ele>297.8</ele>
        <time>2024-04-26T05:08:58Z</time>
      </trkpt>
      <trkpt lat="50.01492" lon="4.29131">
        <ele>297.8</ele>
        <time>2024-04-26T05:08:59Z</time>
      </trkpt>
      <trkpt lat="50.0149" lon="4.29121">
        <ele>297.8</ele>
        <time>2024-04-26T05:09:00Z</time>
      </trkpt>
      <trkpt lat="50.01487" lon="4.29111">
        <ele>297.6</ele>
        <time>2024-04-26T05:09:01Z</time>
      </trkpt>
      <trkpt lat="50.01485" lon="4.291">
        <ele>297.8</ele>
        <time>2024-04-26T05:09:02Z</time>
      </trkpt>
      <trkpt lat="50.01483" lon="4.2909">
        <ele>297.8</ele>
        <time>2024-04-26T05:09:03Z</time>
      </trkpt>
      <trkpt lat="50.0148" lon="4.2908">
        <ele>297.6</ele>
        <time>2024-04-26T05:09:04Z</time>
      </trkpt>
      <trkpt lat="50.01478" lon="4.2907">
        <ele>297.6</ele>
        <time>2024-04-26T05:09:05Z</time>
      </trkpt>
      <trkpt lat="50.01476" lon="4.2906">
        <ele>297.8</ele>
        <time>2024-04-26T05:09:06Z</time>
      </trkpt>
      <trkpt lat="50.01474" lon="4.2905">
        <ele>297.8</ele>
        <time>2024-04-26T05:09:07Z</time>
      </trkpt>
      <trkpt lat="50.01472" lon="4.2904">
        <ele>297.8</ele>
        <time>2024-04-26T05:09:08Z</time>
      </trkpt>
      <trkpt lat="50.0147" lon="4.2903">
        <ele>297.6</ele>
        <time>2024-04-26T05:09:09Z</time>
      </trkpt>
      <trkpt lat="50.01467" lon="4.2902">
        <ele>297.8</ele>
        <time>2024-04-26T05:09:10Z</time>
      </trkpt>
      <trkpt lat="50.01465" lon="4.2901">
        <ele>297.8</ele>
        <time>2024-04-26T05:09:11Z</time>
      </trkpt>
      <trkpt lat="50.01463" lon="4.29">
        <ele>297.8</ele>
        <time>2024-04-26T05:09:12Z</time>
      </trkpt>
      <trkpt lat="50.0146" lon="4.2899">
        <ele>297.8</ele>
        <time>2024-04-26T05:09:13Z</time>
      </trkpt>
      <trkpt lat="50.01458" lon="4.2898">
        <ele>298.2</ele>
        <time>2024-04-26T05:09:14Z</time>
      </trkpt>
      <trkpt lat="50.01456" lon="4.2897">
        <ele>298</ele>
        <time>2024-04-26T05:09:15Z</time>
      </trkpt>
      <trkpt lat="50.01454" lon="4.2896">
        <ele>298.2</ele>
        <time>2024-04-26T05:09:16Z</time>
      </trkpt>
      <trkpt lat="50.01452" lon="4.2895">
        <ele>298.2</ele>
        <time>2024-04-26T05:09:17Z</time>
      </trkpt>
      <trkpt lat="50.01449" lon="4.28939">
        <ele>298.2</ele>
        <time>2024-04-26T05:09:18Z</time>
      </trkpt>
      <trkpt lat="50.01447" lon="4.28929">
        <ele>298.2</ele>
        <time>2024-04-26T05:09:19Z</time>
      </trkpt>
      <trkpt lat="50.01445" lon="4.28919">
        <ele>298.2</ele>
        <time>2024-04-26T05:09:20Z</time>
      </trkpt>
      <trkpt lat="50.01443" lon="4.28909">
        <ele>298.2</ele>
        <time>2024-04-26T05:09:21Z</time>
      </trkpt>
      <trkpt lat="50.01441" lon="4.28899">
        <ele>298.2</ele>
        <time>2024-04-26T05:09:22Z</time>
      </trkpt>
      <trkpt lat="50.01439" lon="4.28889">
        <ele>298.2</ele>
        <time>2024-04-26T05:09:23Z</time>
      </trkpt>
      <trkpt lat="50.01437" lon="4.28879">
        <ele>298.2</ele>
        <time>2024-04-26T05:09:24Z</time>
      </trkpt>
      <trkpt lat="50.01435" lon="4.28869">
        <ele>298.2</ele>
        <time>2024-04-26T05:09:25Z</time>
      </trkpt>
      <trkpt lat="50.01432" lon="4.28859">
        <ele>298.2</ele>
        <time>2024-04-26T05:09:26Z</time>
      </trkpt>
      <trkpt lat="50.0143" lon="4.28849">
        <ele>298.2</ele>
        <time>2024-04-26T05:09:27Z</time>
      </trkpt>
      <trkpt lat="50.01429" lon="4.28839">
        <ele>298.2</ele>
        <time>2024-04-26T05:09:28Z</time>
      </trkpt>
      <trkpt lat="50.01427" lon="4.28829">
        <ele>298</ele>
        <time>2024-04-26T05:09:29Z</time>
      </trkpt>
      <trkpt lat="50.01424" lon="4.28819">
        <ele>297.8</ele>
        <time>2024-04-26T05:09:30Z</time>
      </trkpt>
      <trkpt lat="50.01422" lon="4.28809">
        <ele>297.8</ele>
        <time>2024-04-26T05:09:31Z</time>
      </trkpt>
      <trkpt lat="50.0142" lon="4.28799">
        <ele>297.6</ele>
        <time>2024-04-26T05:09:32Z</time>
      </trkpt>
      <trkpt lat="50.01418" lon="4.28789">
        <ele>297.6</ele>
        <time>2024-04-26T05:09:33Z</time>
      </trkpt>
      <trkpt lat="50.01416" lon="4.28779">
        <ele>297.6</ele>
        <time>2024-04-26T05:09:34Z</time>
      </trkpt>
      <trkpt lat="50.01414" lon="4.28769">
        <ele>297.6</ele>
        <time>2024-04-26T05:09:35Z</time>
      </trkpt>
      <trkpt lat="50.01412" lon="4.28759">
        <ele>297.4</ele>
        <time>2024-04-26T05:09:36Z</time>
      </trkpt>
      <trkpt lat="50.0141" lon="4.28749">
        <ele>297.2</ele>
        <time>2024-04-26T05:09:37Z</time>
      </trkpt>
      <trkpt lat="50.01407" lon="4.28739">
        <ele>297.2</ele>
        <time>2024-04-26T05:09:38Z</time>
      </trkpt>
      <trkpt lat="50.01405" lon="4.28729">
        <ele>297</ele>
        <time>2024-04-26T05:09:39Z</time>
      </trkpt>
      <trkpt lat="50.01403" lon="4.28719">
        <ele>297.2</ele>
        <time>2024-04-26T05:09:40Z</time>
      </trkpt>
      <trkpt lat="50.01401" lon="4.28709">
        <ele>297</ele>
        <time>2024-04-26T05:09:41Z</time>
      </trkpt>
      <trkpt lat="50.01398" lon="4.28699">
        <ele>297</ele>
        <time>2024-04-26T05:09:42Z</time>
      </trkpt>
      <trkpt lat="50.01396" lon="4.28689">
        <ele>296.8</ele>
        <time>2024-04-26T05:09:43Z</time>
      </trkpt>
      <trkpt lat="50.01393" lon="4.28679">
        <ele>296.8</ele>
        <time>2024-04-26T05:09:44Z</time>
      </trkpt>
      <trkpt lat="50.01391" lon="4.28669">
        <ele>296.8</ele>
        <time>2024-04-26T05:09:45Z</time>
      </trkpt>
      <trkpt lat="50.01389" lon="4.28659">
        <ele>296.8</ele>
        <time>2024-04-26T05:09:46Z</time>
      </trkpt>
      <trkpt lat="50.01386" lon="4.28648">
        <ele>296.6</ele>
        <time>2024-04-26T05:09:47Z</time>
      </trkpt>
      <trkpt lat="50.01384" lon="4.28637">
        <ele>296.6</ele>
        <time>2024-04-26T05:09:48Z</time>
      </trkpt>
      <trkpt lat="50.01382" lon="4.28626">
        <ele>296.6</ele>
        <time>2024-04-26T05:09:49Z</time>
      </trkpt>
      <trkpt lat="50.0138" lon="4.28615">
        <ele>296.4</ele>
        <time>2024-04-26T05:09:50Z</time>
      </trkpt>
      <trkpt lat="50.01377" lon="4.28604">
        <ele>296.6</ele>
        <time>2024-04-26T05:09:51Z</time>
      </trkpt>
      <trkpt lat="50.01375" lon="4.28593">
        <ele>296.4</ele>
        <time>2024-04-26T05:09:52Z</time>
      </trkpt>
      <trkpt lat="50.01373" lon="4.28581">
        <ele>296.4</ele>
        <time>2024-04-26T05:09:53Z</time>
      </trkpt>
      <trkpt lat="50.01371" lon="4.28569">
        <ele>296.2</ele>
        <time>2024-04-26T05:09:54Z</time>
      </trkpt>
      <trkpt lat="50.01368" lon="4.28557">
        <ele>296.2</ele>
        <time>2024-04-26T05:09:55Z</time>
      </trkpt>
      <trkpt lat="50.01366" lon="4.28546">
        <ele>296.2</ele>
        <time>2024-04-26T05:09:56Z</time>
      </trkpt>
      <trkpt lat="50.01364" lon="4.28534">
        <ele>296</ele>
        <time>2024-04-26T05:09:57Z</time>
      </trkpt>
      <trkpt lat="50.01361" lon="4.28522">
        <ele>295.6</ele>
        <time>2024-04-26T05:09:58Z</time>
      </trkpt>
      <trkpt lat="50.01358" lon="4.2851">
        <ele>295.2</ele>
        <time>2024-04-26T05:09:59Z</time>
      </trkpt>
      <trkpt lat="50.01355" lon="4.28497">
        <ele>294.8</ele>
        <time>2024-04-26T05:10:00Z</time>
      </trkpt>
      <trkpt lat="50.01353" lon="4.28485">
        <ele>294.2</ele>
        <time>2024-04-26T05:10:01Z</time>
      </trkpt>
      <trkpt lat="50.0135" lon="4.28473">
        <ele>293.4</ele>
        <time>2024-04-26T05:10:02Z</time>
      </trkpt>
      <trkpt lat="50.01347" lon="4.2846">
        <ele>292.4</ele>
        <time>2024-04-26T05:10:03Z</time>
      </trkpt>
      <trkpt lat="50.01344" lon="4.28448">
        <ele>292</ele>
        <time>2024-04-26T05:10:04Z</time>
      </trkpt>
      <trkpt lat="50.01342" lon="4.28435">
        <ele>291.6</ele>
        <time>2024-04-26T05:10:05Z</time>
      </trkpt>
      <trkpt lat="50.01339" lon="4.28423">
        <ele>291.4</ele>
        <time>2024-04-26T05:10:06Z</time>
      </trkpt>
      <trkpt lat="50.01336" lon="4.2841">
        <ele>291.2</ele>
        <time>2024-04-26T05:10:07Z</time>
      </trkpt>
      <trkpt lat="50.01333" lon="4.28397">
        <ele>291</ele>
        <time>2024-04-26T05:10:08Z</time>
      </trkpt>
      <trkpt lat="50.01331" lon="4.28384">
        <ele>290.6</ele>
        <time>2024-04-26T05:10:09Z</time>
      </trkpt>
      <trkpt lat="50.01328" lon="4.28371">
        <ele>290</ele>
        <time>2024-04-26T05:10:10Z</time>
      </trkpt>
      <trkpt lat="50.01325" lon="4.28358">
        <ele>289.6</ele>
        <time>2024-04-26T05:10:11Z</time>
      </trkpt>
      <trkpt lat="50.01322" lon="4.28345">
        <ele>289.2</ele>
        <time>2024-04-26T05:10:12Z</time>
      </trkpt>
      <trkpt lat="50.01319" lon="4.28332">
        <ele>288.8</ele>
        <time>2024-04-26T05:10:13Z</time>
      </trkpt>
      <trkpt lat="50.01316" lon="4.28319">
        <ele>288.4</ele>
        <time>2024-04-26T05:10:14Z</time>
      </trkpt>
      <trkpt lat="50.01313" lon="4.28306">
        <ele>288.2</ele>
        <time>2024-04-26T05:10:15Z</time>
      </trkpt>
      <trkpt lat="50.01311" lon="4.28292">
        <ele>288</ele>
        <time>2024-04-26T05:10:16Z</time>
      </trkpt>
      <trkpt lat="50.01308" lon="4.28279">
        <ele>287.8</ele>
        <time>2024-04-26T05:10:17Z</time>
      </trkpt>
      <trkpt lat="50.01305" lon="4.28266">
        <ele>287.8</ele>
        <time>2024-04-26T05:10:18Z</time>
      </trkpt>
      <trkpt lat="50.01302" lon="4.28252">
        <ele>287.8</ele>
        <time>2024-04-26T05:10:19Z</time>
      </trkpt>
      <trkpt lat="50.01299" lon="4.28239">
        <ele>287.6</ele>
        <time>2024-04-26T05:10:20Z</time>
      </trkpt>
      <trkpt lat="50.01296" lon="4.28225">
        <ele>287.2</ele>
        <time>2024-04-26T05:10:21Z</time>
      </trkpt>
      <trkpt lat="50.01294" lon="4.28211">
        <ele>286.8</ele>
        <time>2024-04-26T05:10:22Z</time>
      </trkpt>
      <trkpt lat="50.01291" lon="4.28198">
        <ele>286.4</ele>
        <time>2024-04-26T05:10:23Z</time>
      </trkpt>
      <trkpt lat="50.01288" lon="4.28184">
        <ele>286</ele>
        <time>2024-04-26T05:10:24Z</time>
      </trkpt>
      <trkpt lat="50.01285" lon="4.28171">
        <ele>285.8</ele>
        <time>2024-04-26T05:10:25Z</time>
      </trkpt>
      <trkpt lat="50.01282" lon="4.28157">
        <ele>285</ele>
        <time>2024-04-26T05:10:26Z</time>
      </trkpt>
      <trkpt lat="50.0128" lon="4.28144">
        <ele>284.2</ele>
        <time>2024-04-26T05:10:27Z</time>
      </trkpt>
      <trkpt lat="50.01277" lon="4.28131">
        <ele>283.6</ele>
        <time>2024-04-26T05:10:28Z</time>
      </trkpt>
      <trkpt lat="50.01274" lon="4.28119">
        <ele>283.2</ele>
        <time>2024-04-26T05:10:29Z</time>
      </trkpt>
      <trkpt lat="50.01272" lon="4.28106">
        <ele>282.8</ele>
        <time>2024-04-26T05:10:30Z</time>
      </trkpt>
      <trkpt lat="50.01269" lon="4.28094">
        <ele>282.6</ele>
        <time>2024-04-26T05:10:31Z</time>
      </trkpt>
      <trkpt lat="50.01266" lon="4.28083">
        <ele>282</ele>
        <time>2024-04-26T05:10:32Z</time>
      </trkpt>
      <trkpt lat="50.01263" lon="4.28071">
        <ele>282</ele>
        <time>2024-04-26T05:10:33Z</time>
      </trkpt>
      <trkpt lat="50.0126" lon="4.2806">
        <ele>282</ele>
        <time>2024-04-26T05:10:34Z</time>
      </trkpt>
      <trkpt lat="50.01258" lon="4.28048">
        <ele>281.8</ele>
        <time>2024-04-26T05:10:35Z</time>
      </trkpt>
      <trkpt lat="50.01256" lon="4.28037">
        <ele>281.8</ele>
        <time>2024-04-26T05:10:36Z</time>
      </trkpt>
      <trkpt lat="50.01254" lon="4.28026">
        <ele>281.8</ele>
        <time>2024-04-26T05:10:37Z</time>
      </trkpt>
      <trkpt lat="50.01252" lon="4.28016">
        <ele>281.6</ele>
        <time>2024-04-26T05:10:38Z</time>
      </trkpt>
      <trkpt lat="50.01249" lon="4.28005">
        <ele>281.6</ele>
        <time>2024-04-26T05:10:39Z</time>
      </trkpt>
      <trkpt lat="50.01247" lon="4.27995">
        <ele>281.8</ele>
        <time>2024-04-26T05:10:40Z</time>
      </trkpt>
      <trkpt lat="50.01244" lon="4.27984">
        <ele>281.8</ele>
        <time>2024-04-26T05:10:41Z</time>
      </trkpt>
      <trkpt lat="50.01242" lon="4.27973">
        <ele>281.8</ele>
        <time>2024-04-26T05:10:42Z</time>
      </trkpt>
      <trkpt lat="50.01239" lon="4.27963">
        <ele>282.2</ele>
        <time>2024-04-26T05:10:43Z</time>
      </trkpt>
      <trkpt lat="50.01237" lon="4.27953">
        <ele>282.2</ele>
        <time>2024-04-26T05:10:44Z</time>
      </trkpt>
      <trkpt lat="50.01234" lon="4.27942">
        <ele>282.2</ele>
        <time>2024-04-26T05:10:45Z</time>
      </trkpt>
      <trkpt lat="50.01232" lon="4.27931">
        <ele>282.2</ele>
        <time>2024-04-26T05:10:46Z</time>
      </trkpt>
      <trkpt lat="50.01229" lon="4.27921">
        <ele>282.4</ele>
        <time>2024-04-26T05:10:47Z</time>
      </trkpt>
      <trkpt lat="50.01227" lon="4.27911">
        <ele>282.4</ele>
        <time>2024-04-26T05:10:48Z</time>
      </trkpt>
      <trkpt lat="50.01225" lon="4.27901">
        <ele>282.2</ele>
        <time>2024-04-26T05:10:49Z</time>
      </trkpt>
      <trkpt lat="50.01223" lon="4.2789">
        <ele>282.4</ele>
        <time>2024-04-26T05:10:50Z</time>
      </trkpt>
      <trkpt lat="50.01221" lon="4.2788">
        <ele>282.4</ele>
        <time>2024-04-26T05:10:51Z</time>
      </trkpt>
      <trkpt lat="50.01219" lon="4.2787">
        <ele>282.4</ele>
        <time>2024-04-26T05:10:52Z</time>
      </trkpt>
      <trkpt lat="50.01216" lon="4.2786">
        <ele>282.2</ele>
        <time>2024-04-26T05:10:53Z</time>
      </trkpt>
      <trkpt lat="50.01214" lon="4.2785">
        <ele>282.4</ele>
        <time>2024-04-26T05:10:54Z</time>
      </trkpt>
      <trkpt lat="50.01212" lon="4.2784">
        <ele>282.4</ele>
        <time>2024-04-26T05:10:55Z</time>
      </trkpt>
      <trkpt lat="50.01211" lon="4.2783">
        <ele>282.4</ele>
        <time>2024-04-26T05:10:56Z</time>
      </trkpt>
      <trkpt lat="50.01208" lon="4.27821">
        <ele>282.4</ele>
        <time>2024-04-26T05:10:57Z</time>
      </trkpt>
      <trkpt lat="50.01206" lon="4.27811">
        <ele>282.2</ele>
        <time>2024-04-26T05:10:58Z</time>
      </trkpt>
      <trkpt lat="50.01204" lon="4.27801">
        <ele>282.4</ele>
        <time>2024-04-26T05:10:59Z</time>
      </trkpt>
      <trkpt lat="50.01202" lon="4.27791">
        <ele>282.4</ele>
        <time>2024-04-26T05:11:00Z</time>
      </trkpt>
      <trkpt lat="50.01199" lon="4.27781">
        <ele>282.2</ele>
        <time>2024-04-26T05:11:01Z</time>
      </trkpt>
      <trkpt lat="50.01197" lon="4.27771">
        <ele>282.4</ele>
        <time>2024-04-26T05:11:02Z</time>
      </trkpt>
      <trkpt lat="50.01194" lon="4.27761">
        <ele>282.4</ele>
        <time>2024-04-26T05:11:03Z</time>
      </trkpt>
      <trkpt lat="50.01192" lon="4.27751">
        <ele>282.6</ele>
        <time>2024-04-26T05:11:04Z</time>
      </trkpt>
      <trkpt lat="50.01189" lon="4.2774">
        <ele>282.8</ele>
        <time>2024-04-26T05:11:05Z</time>
      </trkpt>
      <trkpt lat="50.01187" lon="4.2773">
        <ele>282.6</ele>
        <time>2024-04-26T05:11:06Z</time>
      </trkpt>
      <trkpt lat="50.01185" lon="4.2772">
        <ele>282.6</ele>
        <time>2024-04-26T05:11:07Z</time>
      </trkpt>
      <trkpt lat="50.01182" lon="4.2771">
        <ele>282.6</ele>
        <time>2024-04-26T05:11:08Z</time>
      </trkpt>
      <trkpt lat="50.0118" lon="4.277">
        <ele>282.4</ele>
        <time>2024-04-26T05:11:09Z</time>
      </trkpt>
      <trkpt lat="50.01178" lon="4.2769">
        <ele>282.4</ele>
        <time>2024-04-26T05:11:10Z</time>
      </trkpt>
      <trkpt lat="50.01175" lon="4.2768">
        <ele>282.4</ele>
        <time>2024-04-26T05:11:11Z</time>
      </trkpt>
      <trkpt lat="50.01173" lon="4.2767">
        <ele>282.4</ele>
        <time>2024-04-26T05:11:12Z</time>
      </trkpt>
      <trkpt lat="50.01171" lon="4.2766">
        <ele>282.6</ele>
        <time>2024-04-26T05:11:13Z</time>
      </trkpt>
      <trkpt lat="50.01168" lon="4.27651">
        <ele>282.8</ele>
        <time>2024-04-26T05:11:14Z</time>
      </trkpt>
      <trkpt lat="50.01166" lon="4.27641">
        <ele>282.6</ele>
        <time>2024-04-26T05:11:15Z</time>
      </trkpt>
      <trkpt lat="50.01164" lon="4.27631">
        <ele>282.6</ele>
        <time>2024-04-26T05:11:16Z</time>
      </trkpt>
      <trkpt lat="50.01161" lon="4.27621">
        <ele>282.6</ele>
        <time>2024-04-26T05:11:17Z</time>
      </trkpt>
      <trkpt lat="50.01159" lon="4.27612">
        <ele>282.4</ele>
        <time>2024-04-26T05:11:18Z</time>
      </trkpt>
      <trkpt lat="50.01157" lon="4.27603">
        <ele>282.4</ele>
        <time>2024-04-26T05:11:19Z</time>
      </trkpt>
      <trkpt lat="50.01155" lon="4.27593">
        <ele>282.4</ele>
        <time>2024-04-26T05:11:20Z</time>
      </trkpt>
      <trkpt lat="50.01152" lon="4.27584">
        <ele>282.4</ele>
        <time>2024-04-26T05:11:21Z</time>
      </trkpt>
      <trkpt lat="50.0115" lon="4.27574">
        <ele>282.4</ele>
        <time>2024-04-26T05:11:22Z</time>
      </trkpt>
      <trkpt lat="50.01148" lon="4.27564">
        <ele>282.4</ele>
        <time>2024-04-26T05:11:23Z</time>
      </trkpt>
      <trkpt lat="50.01146" lon="4.27554">
        <ele>282.4</ele>
        <time>2024-04-26T05:11:24Z</time>
      </trkpt>
      <trkpt lat="50.01144" lon="4.27543">
        <ele>282.4</ele>
        <time>2024-04-26T05:11:25Z</time>
      </trkpt>
      <trkpt lat="50.01142" lon="4.27533">
        <ele>282.4</ele>
        <time>2024-04-26T05:11:26Z</time>
      </trkpt>
      <trkpt lat="50.0114" lon="4.27523">
        <ele>282.6</ele>
        <time>2024-04-26T05:11:27Z</time>
      </trkpt>
      <trkpt lat="50.01138" lon="4.27513">
        <ele>282.4</ele>
        <time>2024-04-26T05:11:28Z</time>
      </trkpt>
      <trkpt lat="50.01136" lon="4.27502">
        <ele>282.4</ele>
        <time>2024-04-26T05:11:29Z</time>
      </trkpt>
      <trkpt lat="50.01134" lon="4.27492">
        <ele>282.4</ele>
        <time>2024-04-26T05:11:30Z</time>
      </trkpt>
      <trkpt lat="50.01132" lon="4.27482">
        <ele>282.4</ele>
        <time>2024-04-26T05:11:31Z</time>
      </trkpt>
      <trkpt lat="50.0113" lon="4.27472">
        <ele>282.8</ele>
        <time>2024-04-26T05:11:32Z</time>
      </trkpt>
      <trkpt lat="50.01129" lon="4.27461">
        <ele>282.8</ele>
        <time>2024-04-26T05:11:33Z</time>
      </trkpt>
      <trkpt lat="50.01126" lon="4.27451">
        <ele>282.8</ele>
        <time>2024-04-26T05:11:34Z</time>
      </trkpt>
      <trkpt lat="50.01124" lon="4.27441">
        <ele>283</ele>
        <time>2024-04-26T05:11:35Z</time>
      </trkpt>
      <trkpt lat="50.01122" lon="4.27431">
        <ele>283.6</ele>
        <time>2024-04-26T05:11:36Z</time>
      </trkpt>
      <trkpt lat="50.01119" lon="4.2742">
        <ele>283.8</ele>
        <time>2024-04-26T05:11:37Z</time>
      </trkpt>
      <trkpt lat="50.01117" lon="4.2741">
        <ele>284</ele>
        <time>2024-04-26T05:11:38Z</time>
      </trkpt>
      <trkpt lat="50.01116" lon="4.274">
        <ele>283.8</ele>
        <time>2024-04-26T05:11:39Z</time>
      </trkpt>
      <trkpt lat="50.01114" lon="4.27389">
        <ele>284.2</ele>
        <time>2024-04-26T05:11:40Z</time>
      </trkpt>
      <trkpt lat="50.01112" lon="4.27379">
        <ele>284</ele>
        <time>2024-04-26T05:11:41Z</time>
      </trkpt>
      <trkpt lat="50.0111" lon="4.27369">
        <ele>284.2</ele>
        <time>2024-04-26T05:11:42Z</time>
      </trkpt>
      <trkpt lat="50.01108" lon="4.27359">
        <ele>284.2</ele>
        <time>2024-04-26T05:11:43Z</time>
      </trkpt>
      <trkpt lat="50.01107" lon="4.27349">
        <ele>284.2</ele>
        <time>2024-04-26T05:11:44Z</time>
      </trkpt>
      <trkpt lat="50.01105" lon="4.27338">
        <ele>284</ele>
        <time>2024-04-26T05:11:45Z</time>
      </trkpt>
      <trkpt lat="50.01103" lon="4.27328">
        <ele>284</ele>
        <time>2024-04-26T05:11:46Z</time>
      </trkpt>
      <trkpt lat="50.01101" lon="4.27319">
        <ele>284.2</ele>
        <time>2024-04-26T05:11:47Z</time>
      </trkpt>
      <trkpt lat="50.01099" lon="4.2731">
        <ele>284</ele>
        <time>2024-04-26T05:11:48Z</time>
      </trkpt>
      <trkpt lat="50.01097" lon="4.27301">
        <ele>284.2</ele>
        <time>2024-04-26T05:11:49Z</time>
      </trkpt>
      <trkpt lat="50.01095" lon="4.27293">
        <ele>284</ele>
        <time>2024-04-26T05:11:50Z</time>
      </trkpt>
      <trkpt lat="50.01093" lon="4.27284">
        <ele>284</ele>
        <time>2024-04-26T05:11:51Z</time>
      </trkpt>
      <trkpt lat="50.01091" lon="4.27275">
        <ele>284</ele>
        <time>2024-04-26T05:11:52Z</time>
      </trkpt>
      <trkpt lat="50.01089" lon="4.27267">
        <ele>284.2</ele>
        <time>2024-04-26T05:11:53Z</time>
      </trkpt>
      <trkpt lat="50.01088" lon="4.27259">
        <ele>284</ele>
        <time>2024-04-26T05:11:54Z</time>
      </trkpt>
      <trkpt lat="50.01086" lon="4.2725">
        <ele>284.2</ele>
        <time>2024-04-26T05:11:55Z</time>
      </trkpt>
      <trkpt lat="50.01084" lon="4.27242">
        <ele>284.2</ele>
        <time>2024-04-26T05:11:56Z</time>
      </trkpt>
      <trkpt lat="50.01082" lon="4.27233">
        <ele>284.2</ele>
        <time>2024-04-26T05:11:57Z</time>
      </trkpt>
      <trkpt lat="50.01081" lon="4.27225">
        <ele>284.2</ele>
        <time>2024-04-26T05:11:58Z</time>
      </trkpt>
      <trkpt lat="50.0108" lon="4.27217">
        <ele>284.4</ele>
        <time>2024-04-26T05:11:59Z</time>
      </trkpt>
      <trkpt lat="50.01079" lon="4.27209">
        <ele>284.4</ele>
        <time>2024-04-26T05:12:00Z</time>
      </trkpt>
      <trkpt lat="50.01078" lon="4.272">
        <ele>284.8</ele>
        <time>2024-04-26T05:12:01Z</time>
      </trkpt>
      <trkpt lat="50.01077" lon="4.27193">
        <ele>285</ele>
        <time>2024-04-26T05:12:02Z</time>
      </trkpt>
      <trkpt lat="50.01077" lon="4.27184">
        <ele>285</ele>
        <time>2024-04-26T05:12:03Z</time>
      </trkpt>
      <trkpt lat="50.01077" lon="4.27176">
        <ele>285</ele>
        <time>2024-04-26T05:12:04Z</time>
      </trkpt>
      <trkpt lat="50.01077" lon="4.27167">
        <ele>285</ele>
        <time>2024-04-26T05:12:05Z</time>
      </trkpt>
      <trkpt lat="50.01077" lon="4.27159">
        <ele>285.2</ele>
        <time>2024-04-26T05:12:06Z</time>
      </trkpt>
      <trkpt lat="50.01077" lon="4.2715">
        <ele>285.6</ele>
        <time>2024-04-26T05:12:07Z</time>
      </trkpt>
      <trkpt lat="50.01077" lon="4.27142">
        <ele>285.6</ele>
        <time>2024-04-26T05:12:08Z</time>
      </trkpt>
      <trkpt lat="50.01077" lon="4.27133">
        <ele>286</ele>
        <time>2024-04-26T05:12:09Z</time>
      </trkpt>
      <trkpt lat="50.01078" lon="4.27125">
        <ele>286.4</ele>
        <time>2024-04-26T05:12:10Z</time>
      </trkpt>
      <trkpt lat="50.01078" lon="4.27117">
        <ele>286.6</ele>
        <time>2024-04-26T05:12:11Z</time>
      </trkpt>
      <trkpt lat="50.01079" lon="4.27108">
        <ele>286.8</ele>
        <time>2024-04-26T05:12:12Z</time>
      </trkpt>
      <trkpt lat="50.0108" lon="4.271">
        <ele>287</ele>
        <time>2024-04-26T05:12:13Z</time>
      </trkpt>
      <trkpt lat="50.01081" lon="4.27092">
        <ele>287.2</ele>
        <time>2024-04-26T05:12:14Z</time>
      </trkpt>
      <trkpt lat="50.01082" lon="4.27084">
        <ele>287.6</ele>
        <time>2024-04-26T05:12:15Z</time>
      </trkpt>
      <trkpt lat="50.01084" lon="4.27076">
        <ele>288</ele>
        <time>2024-04-26T05:12:16Z</time>
      </trkpt>
      <trkpt lat="50.01085" lon="4.27068">
        <ele>288.4</ele>
        <time>2024-04-26T05:12:17Z</time>
      </trkpt>
      <trkpt lat="50.01087" lon="4.2706">
        <ele>288.6</ele>
        <time>2024-04-26T05:12:18Z</time>
      </trkpt>
      <trkpt lat="50.01088" lon="4.27052">
        <ele>289</ele>
        <time>2024-04-26T05:12:19Z</time>
      </trkpt>
      <trkpt lat="50.0109" lon="4.27044">
        <ele>289</ele>
        <time>2024-04-26T05:12:20Z</time>
      </trkpt>
      <trkpt lat="50.01093" lon="4.27036">
        <ele>289.2</ele>
        <time>2024-04-26T05:12:21Z</time>
      </trkpt>
      <trkpt lat="50.01095" lon="4.27028">
        <ele>289.2</ele>
        <time>2024-04-26T05:12:22Z</time>
      </trkpt>
      <trkpt lat="50.01097" lon="4.2702">
        <ele>289.4</ele>
        <time>2024-04-26T05:12:23Z</time>
      </trkpt>
      <trkpt lat="50.011" lon="4.27011">
        <ele>289.4</ele>
        <time>2024-04-26T05:12:24Z</time>
      </trkpt>
      <trkpt lat="50.01102" lon="4.27003">
        <ele>289.6</ele>
        <time>2024-04-26T05:12:25Z</time>
      </trkpt>
      <trkpt lat="50.01105" lon="4.26995">
        <ele>289.8</ele>
        <time>2024-04-26T05:12:26Z</time>
      </trkpt>
      <trkpt lat="50.01109" lon="4.26987">
        <ele>290</ele>
        <time>2024-04-26T05:12:27Z</time>
      </trkpt>
      <trkpt lat="50.01112" lon="4.26979">
        <ele>290</ele>
        <time>2024-04-26T05:12:28Z</time>
      </trkpt>
      <trkpt lat="50.01115" lon="4.26972">
        <ele>290.2</ele>
        <time>2024-04-26T05:12:29Z</time>
      </trkpt>
      <trkpt lat="50.01118" lon="4.26964">
        <ele>290</ele>
        <time>2024-04-26T05:12:30Z</time>
      </trkpt>
      <trkpt lat="50.01121" lon="4.26956">
        <ele>290.2</ele>
        <time>2024-04-26T05:12:31Z</time>
      </trkpt>
      <trkpt lat="50.01124" lon="4.26949">
        <ele>290.2</ele>
        <time>2024-04-26T05:12:32Z</time>
      </trkpt>
      <trkpt lat="50.01127" lon="4.26941">
        <ele>290.2</ele>
        <time>2024-04-26T05:12:33Z</time>
      </trkpt>
      <trkpt lat="50.0113" lon="4.26933">
        <ele>290.2</ele>
        <time>2024-04-26T05:12:34Z</time>
      </trkpt>
      <trkpt lat="50.01133" lon="4.26926">
        <ele>290.4</ele>
        <time>2024-04-26T05:12:35Z</time>
      </trkpt>
      <trkpt lat="50.01137" lon="4.26918">
        <ele>290.4</ele>
        <time>2024-04-26T05:12:36Z</time>
      </trkpt>
      <trkpt lat="50.0114" lon="4.2691">
        <ele>290.4</ele>
        <time>2024-04-26T05:12:37Z</time>
      </trkpt>
      <trkpt lat="50.01143" lon="4.26902">
        <ele>290.4</ele>
        <time>2024-04-26T05:12:38Z</time>
      </trkpt>
      <trkpt lat="50.01146" lon="4.26894">
        <ele>290.6</ele>
        <time>2024-04-26T05:12:39Z</time>
      </trkpt>
      <trkpt lat="50.0115" lon="4.26886">
        <ele>290.6</ele>
        <time>2024-04-26T05:12:40Z</time>
      </trkpt>
      <trkpt lat="50.01153" lon="4.26878">
        <ele>290.6</ele>
        <time>2024-04-26T05:12:41Z</time>
      </trkpt>
      <trkpt lat="50.01156" lon="4.2687">
        <ele>290.6</ele>
        <time>2024-04-26T05:12:42Z</time>
      </trkpt>
      <trkpt lat="50.0116" lon="4.26861">
        <ele>290.8</ele>
        <time>2024-04-26T05:12:43Z</time>
      </trkpt>
      <trkpt lat="50.01164" lon="4.26853">
        <ele>290.8</ele>
        <time>2024-04-26T05:12:44Z</time>
      </trkpt>
      <trkpt lat="50.01167" lon="4.26844">
        <ele>290.6</ele>
        <time>2024-04-26T05:12:45Z</time>
      </trkpt>
      <trkpt lat="50.01171" lon="4.26835">
        <ele>290.6</ele>
        <time>2024-04-26T05:12:46Z</time>
      </trkpt>
      <trkpt lat="50.01175" lon="4.26826">
        <ele>290.6</ele>
        <time>2024-04-26T05:12:47Z</time>
      </trkpt>
      <trkpt lat="50.01178" lon="4.26816">
        <ele>290.6</ele>
        <time>2024-04-26T05:12:48Z</time>
      </trkpt>
      <trkpt lat="50.01182" lon="4.26806">
        <ele>290.6</ele>
        <time>2024-04-26T05:12:49Z</time>
      </trkpt>
      <trkpt lat="50.01187" lon="4.26796">
        <ele>290.6</ele>
        <time>2024-04-26T05:12:50Z</time>
      </trkpt>
      <trkpt lat="50.01191" lon="4.26786">
        <ele>290.6</ele>
        <time>2024-04-26T05:12:51Z</time>
      </trkpt>
      <trkpt lat="50.01195" lon="4.26775">
        <ele>290.6</ele>
        <time>2024-04-26T05:12:52Z</time>
      </trkpt>
      <trkpt lat="50.012" lon="4.26765">
        <ele>290.4</ele>
        <time>2024-04-26T05:12:53Z</time>
      </trkpt>
      <trkpt lat="50.01204" lon="4.26753">
        <ele>290.4</ele>
        <time>2024-04-26T05:12:54Z</time>
      </trkpt>
      <trkpt lat="50.01209" lon="4.26742">
        <ele>290</ele>
        <time>2024-04-26T05:12:55Z</time>
      </trkpt>
      <trkpt lat="50.01214" lon="4.26731">
        <ele>289.8</ele>
        <time>2024-04-26T05:12:56Z</time>
      </trkpt>
      <trkpt lat="50.01219" lon="4.26719">
        <ele>289.4</ele>
        <time>2024-04-26T05:12:57Z</time>
      </trkpt>
      <trkpt lat="50.01223" lon="4.26707">
        <ele>289.2</ele>
        <time>2024-04-26T05:12:58Z</time>
      </trkpt>
      <trkpt lat="50.01228" lon="4.26695">
        <ele>288.8</ele>
        <time>2024-04-26T05:12:59Z</time>
      </trkpt>
      <trkpt lat="50.01233" lon="4.26683">
        <ele>288.6</ele>
        <time>2024-04-26T05:13:00Z</time>
      </trkpt>
      <trkpt lat="50.01238" lon="4.26671">
        <ele>288.4</ele>
        <time>2024-04-26T05:13:01Z</time>
      </trkpt>
      <trkpt lat="50.01243" lon="4.26658">
        <ele>288.2</ele>
        <time>2024-04-26T05:13:02Z</time>
      </trkpt>
      <trkpt lat="50.01249" lon="4.26646">
        <ele>288.2</ele>
        <time>2024-04-26T05:13:03Z</time>
      </trkpt>
      <trkpt lat="50.01254" lon="4.26633">
        <ele>287.8</ele>
        <time>2024-04-26T05:13:04Z</time>
      </trkpt>
      <trkpt lat="50.01259" lon="4.2662">
        <ele>287.2</ele>
        <time>2024-04-26T05:13:05Z</time>
      </trkpt>
      <trkpt lat="50.01264" lon="4.26606">
        <ele>286.8</ele>
        <time>2024-04-26T05:13:06Z</time>
      </trkpt>
      <trkpt lat="50.0127" lon="4.26593">
        <ele>286</ele>
        <time>2024-04-26T05:13:07Z</time>
      </trkpt>
      <trkpt lat="50.01275" lon="4.26579">
        <ele>285.2</ele>
        <time>2024-04-26T05:13:08Z</time>
      </trkpt>
      <trkpt lat="50.01279" lon="4.26564">
        <ele>284.8</ele>
        <time>2024-04-26T05:13:09Z</time>
      </trkpt>
      <trkpt lat="50.01284" lon="4.26549">
        <ele>284.2</ele>
        <time>2024-04-26T05:13:10Z</time>
      </trkpt>
      <trkpt lat="50.01288" lon="4.26534">
        <ele>284.2</ele>
        <time>2024-04-26T05:13:11Z</time>
      </trkpt>
      <trkpt lat="50.01291" lon="4.26518">
        <ele>284</ele>
        <time>2024-04-26T05:13:12Z</time>
      </trkpt>
      <trkpt lat="50.01294" lon="4.26502">
        <ele>283.6</ele>
        <time>2024-04-26T05:13:13Z</time>
      </trkpt>
      <trkpt lat="50.01297" lon="4.26485">
        <ele>282.8</ele>
        <time>2024-04-26T05:13:14Z</time>
      </trkpt>
      <trkpt lat="50.01299" lon="4.26469">
        <ele>282.2</ele>
        <time>2024-04-26T05:13:15Z</time>
      </trkpt>
      <trkpt lat="50.01301" lon="4.26452">
        <ele>281.6</ele>
        <time>2024-04-26T05:13:16Z</time>
      </trkpt>
      <trkpt lat="50.01303" lon="4.26435">
        <ele>281.4</ele>
        <time>2024-04-26T05:13:17Z</time>
      </trkpt>
      <trkpt lat="50.01305" lon="4.26419">
        <ele>281</ele>
        <time>2024-04-26T05:13:18Z</time>
      </trkpt>
      <trkpt lat="50.01307" lon="4.26403">
        <ele>280.6</ele>
        <time>2024-04-26T05:13:19Z</time>
      </trkpt>
      <trkpt lat="50.0131" lon="4.26387">
        <ele>280</ele>
        <time>2024-04-26T05:13:20Z</time>
      </trkpt>
      <trkpt lat="50.01312" lon="4.26372">
        <ele>279.2</ele>
        <time>2024-04-26T05:13:21Z</time>
      </trkpt>
      <trkpt lat="50.01315" lon="4.26358">
        <ele>278.4</ele>
        <time>2024-04-26T05:13:22Z</time>
      </trkpt>
      <trkpt lat="50.01317" lon="4.26344">
        <ele>277.8</ele>
        <time>2024-04-26T05:13:23Z</time>
      </trkpt>
      <trkpt lat="50.01321" lon="4.26331">
        <ele>277</ele>
        <time>2024-04-26T05:13:24Z</time>
      </trkpt>
      <trkpt lat="50.01324" lon="4.26319">
        <ele>276.6</ele>
        <time>2024-04-26T05:13:25Z</time>
      </trkpt>
      <trkpt lat="50.01327" lon="4.26307">
        <ele>276.4</ele>
        <time>2024-04-26T05:13:26Z</time>
      </trkpt>
      <trkpt lat="50.01331" lon="4.26295">
        <ele>276.4</ele>
        <time>2024-04-26T05:13:27Z</time>
      </trkpt>
      <trkpt lat="50.01335" lon="4.26284">
        <ele>276.4</ele>
        <time>2024-04-26T05:13:28Z</time>
      </trkpt>
      <trkpt lat="50.01338" lon="4.26273">
        <ele>276.4</ele>
        <time>2024-04-26T05:13:29Z</time>
      </trkpt>
      <trkpt lat="50.01342" lon="4.26263">
        <ele>276.4</ele>
        <time>2024-04-26T05:13:30Z</time>
      </trkpt>
      <trkpt lat="50.01346" lon="4.26252">
        <ele>276.4</ele>
        <time>2024-04-26T05:13:31Z</time>
      </trkpt>
      <trkpt lat="50.0135" lon="4.26242">
        <ele>276.4</ele>
        <time>2024-04-26T05:13:32Z</time>
      </trkpt>
      <trkpt lat="50.01354" lon="4.26233">
        <ele>276.4</ele>
        <time>2024-04-26T05:13:33Z</time>
      </trkpt>
      <trkpt lat="50.01357" lon="4.26223">
        <ele>276.4</ele>
        <time>2024-04-26T05:13:34Z</time>
      </trkpt>
      <trkpt lat="50.01361" lon="4.26214">
        <ele>276.6</ele>
        <time>2024-04-26T05:13:35Z</time>
      </trkpt>
      <trkpt lat="50.01364" lon="4.26205">
        <ele>276.6</ele>
        <time>2024-04-26T05:13:36Z</time>
      </trkpt>
      <trkpt lat="50.01367" lon="4.26196">
        <ele>277</ele>
        <time>2024-04-26T05:13:37Z</time>
      </trkpt>
      <trkpt lat="50.01371" lon="4.26187">
        <ele>277</ele>
        <time>2024-04-26T05:13:38Z</time>
      </trkpt>
      <trkpt lat="50.01374" lon="4.26178">
        <ele>277.2</ele>
        <time>2024-04-26T05:13:39Z</time>
      </trkpt>
      <trkpt lat="50.01377" lon="4.2617">
        <ele>277.4</ele>
        <time>2024-04-26T05:13:40Z</time>
      </trkpt>
      <trkpt lat="50.0138" lon="4.26161">
        <ele>277.6</ele>
        <time>2024-04-26T05:13:41Z</time>
      </trkpt>
      <trkpt lat="50.01384" lon="4.26152">
        <ele>277.4</ele>
        <time>2024-04-26T05:13:42Z</time>
      </trkpt>
      <trkpt lat="50.01387" lon="4.26144">
        <ele>277.4</ele>
        <time>2024-04-26T05:13:43Z</time>
      </trkpt>
      <trkpt lat="50.0139" lon="4.26135">
        <ele>277.6</ele>
        <time>2024-04-26T05:13:44Z</time>
      </trkpt>
      <trkpt lat="50.01393" lon="4.26126">
        <ele>277.6</ele>
        <time>2024-04-26T05:13:45Z</time>
      </trkpt>
      <trkpt lat="50.01397" lon="4.26118">
        <ele>277.8</ele>
        <time>2024-04-26T05:13:46Z</time>
      </trkpt>
      <trkpt lat="50.014" lon="4.26109">
        <ele>277.8</ele>
        <time>2024-04-26T05:13:47Z</time>
      </trkpt>
      <trkpt lat="50.01403" lon="4.261">
        <ele>278</ele>
        <time>2024-04-26T05:13:48Z</time>
      </trkpt>
      <trkpt lat="50.01406" lon="4.26091">
        <ele>278</ele>
        <time>2024-04-26T05:13:49Z</time>
      </trkpt>
      <trkpt lat="50.0141" lon="4.26082">
        <ele>278.2</ele>
        <time>2024-04-26T05:13:50Z</time>
      </trkpt>
      <trkpt lat="50.01413" lon="4.26073">
        <ele>278.4</ele>
        <time>2024-04-26T05:13:51Z</time>
      </trkpt>
      <trkpt lat="50.01417" lon="4.26064">
        <ele>278.6</ele>
        <time>2024-04-26T05:13:52Z</time>
      </trkpt>
      <trkpt lat="50.01421" lon="4.26054">
        <ele>278.8</ele>
        <time>2024-04-26T05:13:53Z</time>
      </trkpt>
      <trkpt lat="50.01424" lon="4.26045">
        <ele>278.8</ele>
        <time>2024-04-26T05:13:54Z</time>
      </trkpt>
      <trkpt lat="50.01428" lon="4.26035">
        <ele>279</ele>
        <time>2024-04-26T05:13:55Z</time>
      </trkpt>
      <trkpt lat="50.01432" lon="4.26025">
        <ele>279</ele>
        <time>2024-04-26T05:13:56Z</time>
      </trkpt>
      <trkpt lat="50.01435" lon="4.26015">
        <ele>279</ele>
        <time>2024-04-26T05:13:57Z</time>
      </trkpt>
      <trkpt lat="50.01439" lon="4.26004">
        <ele>279</ele>
        <time>2024-04-26T05:13:58Z</time>
      </trkpt>
      <trkpt lat="50.01442" lon="4.25994">
        <ele>279</ele>
        <time>2024-04-26T05:13:59Z</time>
      </trkpt>
      <trkpt lat="50.01445" lon="4.25983">
        <ele>279.2</ele>
        <time>2024-04-26T05:14:00Z</time>
      </trkpt>
      <trkpt lat="50.01447" lon="4.25971">
        <ele>279.2</ele>
        <time>2024-04-26T05:14:01Z</time>
      </trkpt>
      <trkpt lat="50.01449" lon="4.2596">
        <ele>279</ele>
        <time>2024-04-26T05:14:02Z</time>
      </trkpt>
      <trkpt lat="50.01451" lon="4.25948">
        <ele>279</ele>
        <time>2024-04-26T05:14:03Z</time>
      </trkpt>
      <trkpt lat="50.01453" lon="4.25936">
        <ele>279</ele>
        <time>2024-04-26T05:14:04Z</time>
      </trkpt>
      <trkpt lat="50.01454" lon="4.25924">
        <ele>278.8</ele>
        <time>2024-04-26T05:14:05Z</time>
      </trkpt>
      <trkpt lat="50.01455" lon="4.25912">
        <ele>278.6</ele>
        <time>2024-04-26T05:14:06Z</time>
      </trkpt>
      <trkpt lat="50.01455" lon="4.259">
        <ele>278.4</ele>
        <time>2024-04-26T05:14:07Z</time>
      </trkpt>
      <trkpt lat="50.01456" lon="4.25887">
        <ele>278</ele>
        <time>2024-04-26T05:14:08Z</time>
      </trkpt>
      <trkpt lat="50.01456" lon="4.25875">
        <ele>277.8</ele>
        <time>2024-04-26T05:14:09Z</time>
      </trkpt>
      <trkpt lat="50.01456" lon="4.25862">
        <ele>277.4</ele>
        <time>2024-04-26T05:14:10Z</time>
      </trkpt>
      <trkpt lat="50.01457" lon="4.2585">
        <ele>277.2</ele>
        <time>2024-04-26T05:14:11Z</time>
      </trkpt>
      <trkpt lat="50.01458" lon="4.25837">
        <ele>277</ele>
        <time>2024-04-26T05:14:12Z</time>
      </trkpt>
      <trkpt lat="50.01459" lon="4.25825">
        <ele>276.8</ele>
        <time>2024-04-26T05:14:13Z</time>
      </trkpt>
      <trkpt lat="50.0146" lon="4.25812">
        <ele>276.6</ele>
        <time>2024-04-26T05:14:14Z</time>
      </trkpt>
      <trkpt lat="50.01462" lon="4.258">
        <ele>276.2</ele>
        <time>2024-04-26T05:14:15Z</time>
      </trkpt>
      <trkpt lat="50.01464" lon="4.25787">
        <ele>276.2</ele>
        <time>2024-04-26T05:14:16Z</time>
      </trkpt>
      <trkpt lat="50.01467" lon="4.25775">
        <ele>275.8</ele>
        <time>2024-04-26T05:14:17Z</time>
      </trkpt>
      <trkpt lat="50.0147" lon="4.25763">
        <ele>275.8</ele>
        <time>2024-04-26T05:14:18Z</time>
      </trkpt>
      <trkpt lat="50.01473" lon="4.25752">
        <ele>275.6</ele>
        <time>2024-04-26T05:14:19Z</time>
      </trkpt>
      <trkpt lat="50.01477" lon="4.2574">
        <ele>275.4</ele>
        <time>2024-04-26T05:14:20Z</time>
      </trkpt>
      <trkpt lat="50.01481" lon="4.2573">
        <ele>275</ele>
        <time>2024-04-26T05:14:21Z</time>
      </trkpt>
      <trkpt lat="50.01485" lon="4.2572">
        <ele>274.4</ele>
        <time>2024-04-26T05:14:22Z</time>
      </trkpt>
      <trkpt lat="50.01489" lon="4.2571">
        <ele>274</ele>
        <time>2024-04-26T05:14:23Z</time>
      </trkpt>
      <trkpt lat="50.01493" lon="4.25702">
        <ele>273.8</ele>
        <time>2024-04-26T05:14:24Z</time>
      </trkpt>
      <trkpt lat="50.01497" lon="4.25693">
        <ele>273.8</ele>
        <time>2024-04-26T05:14:25Z</time>
      </trkpt>
      <trkpt lat="50.01501" lon="4.25685">
        <ele>273.6</ele>
        <time>2024-04-26T05:14:26Z</time>
      </trkpt>
      <trkpt lat="50.01505" lon="4.25678">
        <ele>273.6</ele>
        <time>2024-04-26T05:14:27Z</time>
      </trkpt>
      <trkpt lat="50.01508" lon="4.25671">
        <ele>273.6</ele>
        <time>2024-04-26T05:14:28Z</time>
      </trkpt>
      <trkpt lat="50.01511" lon="4.25664">
        <ele>273.6</ele>
        <time>2024-04-26T05:14:29Z</time>
      </trkpt>
      <trkpt lat="50.01515" lon="4.25658">
        <ele>273.6</ele>
        <time>2024-04-26T05:14:30Z</time>
      </trkpt>
      <trkpt lat="50.01518" lon="4.25652">
        <ele>273.6</ele>
        <time>2024-04-26T05:14:31Z</time>
      </trkpt>
      <trkpt lat="50.01521" lon="4.25647">
        <ele>273.6</ele>
        <time>2024-04-26T05:14:32Z</time>
      </trkpt>
      <trkpt lat="50.01523" lon="4.25641">
        <ele>273.8</ele>
        <time>2024-04-26T05:14:33Z</time>
      </trkpt>
      <trkpt lat="50.01526" lon="4.25636">
        <ele>274.2</ele>
        <time>2024-04-26T05:14:34Z</time>
      </trkpt>
      <trkpt lat="50.01529" lon="4.25632">
        <ele>274.8</ele>
        <time>2024-04-26T05:14:35Z</time>
      </trkpt>
      <trkpt lat="50.01533" lon="4.25628">
        <ele>275.6</ele>
        <time>2024-04-26T05:14:36Z</time>
      </trkpt>
      <trkpt lat="50.01536" lon="4.25626">
        <ele>276</ele>
        <time>2024-04-26T05:14:37Z</time>
      </trkpt>
      <trkpt lat="50.0154" lon="4.25624">
        <ele>276</ele>
        <time>2024-04-26T05:14:38Z</time>
      </trkpt>
      <trkpt lat="50.01545" lon="4.25623">
        <ele>276.4</ele>
        <time>2024-04-26T05:14:39Z</time>
      </trkpt>
      <trkpt lat="50.0155" lon="4.2562">
        <ele>276.8</ele>
        <time>2024-04-26T05:14:40Z</time>
      </trkpt>
      <trkpt lat="50.01554" lon="4.25617">
        <ele>277.2</ele>
        <time>2024-04-26T05:14:41Z</time>
      </trkpt>
      <trkpt lat="50.01558" lon="4.25612">
        <ele>277.8</ele>
        <time>2024-04-26T05:14:42Z</time>
      </trkpt>
      <trkpt lat="50.01561" lon="4.25607">
        <ele>278</ele>
        <time>2024-04-26T05:14:43Z</time>
      </trkpt>
      <trkpt lat="50.01564" lon="4.25601">
        <ele>278.4</ele>
        <time>2024-04-26T05:14:44Z</time>
      </trkpt>
      <trkpt lat="50.01567" lon="4.25596">
        <ele>278.8</ele>
        <time>2024-04-26T05:14:45Z</time>
      </trkpt>
      <trkpt lat="50.01569" lon="4.25589">
        <ele>279.2</ele>
        <time>2024-04-26T05:14:46Z</time>
      </trkpt>
      <trkpt lat="50.01571" lon="4.25583">
        <ele>279.8</ele>
        <time>2024-04-26T05:14:47Z</time>
      </trkpt>
      <trkpt lat="50.01572" lon="4.25576">
        <ele>280</ele>
        <time>2024-04-26T05:14:48Z</time>
      </trkpt>
      <trkpt lat="50.01574" lon="4.2557">
        <ele>280.2</ele>
        <time>2024-04-26T05:14:49Z</time>
      </trkpt>
      <trkpt lat="50.01575" lon="4.25563">
        <ele>280.2</ele>
        <time>2024-04-26T05:14:50Z</time>
      </trkpt>
      <trkpt lat="50.01577" lon="4.25557">
        <ele>280.4</ele>
        <time>2024-04-26T05:14:51Z</time>
      </trkpt>
      <trkpt lat="50.01579" lon="4.2555">
        <ele>280.6</ele>
        <time>2024-04-26T05:14:52Z</time>
      </trkpt>
      <trkpt lat="50.0158" lon="4.25544">
        <ele>280.6</ele>
        <time>2024-04-26T05:14:53Z</time>
      </trkpt>
      <trkpt lat="50.01582" lon="4.25537">
        <ele>281</ele>
        <time>2024-04-26T05:14:54Z</time>
      </trkpt>
      <trkpt lat="50.01583" lon="4.25531">
        <ele>281.4</ele>
        <time>2024-04-26T05:14:55Z</time>
      </trkpt>
      <trkpt lat="50.01585" lon="4.25524">
        <ele>281.6</ele>
        <time>2024-04-26T05:14:56Z</time>
      </trkpt>
      <trkpt lat="50.01587" lon="4.25517">
        <ele>282</ele>
        <time>2024-04-26T05:14:57Z</time>
      </trkpt>
      <trkpt lat="50.01588" lon="4.25511">
        <ele>282</ele>
        <time>2024-04-26T05:14:58Z</time>
      </trkpt>
      <trkpt lat="50.01589" lon="4.25504">
        <ele>282</ele>
        <time>2024-04-26T05:14:59Z</time>
      </trkpt>
      <trkpt lat="50.0159" lon="4.25497">
        <ele>282.4</ele>
        <time>2024-04-26T05:15:00Z</time>
      </trkpt>
      <trkpt lat="50.01591" lon="4.2549">
        <ele>282.4</ele>
        <time>2024-04-26T05:15:01Z</time>
      </trkpt>
      <trkpt lat="50.01591" lon="4.25483">
        <ele>282.6</ele>
        <time>2024-04-26T05:15:02Z</time>
      </trkpt>
      <trkpt lat="50.01591" lon="4.25476">
        <ele>282.6</ele>
        <time>2024-04-26T05:15:03Z</time>
      </trkpt>
      <trkpt lat="50.01589" lon="4.25469">
        <ele>283</ele>
        <time>2024-04-26T05:15:04Z</time>
      </trkpt>
      <trkpt lat="50.01586" lon="4.25462">
        <ele>283.2</ele>
        <time>2024-04-26T05:15:05Z</time>
      </trkpt>
      <trkpt lat="50.01583" lon="4.25456">
        <ele>283.6</ele>
        <time>2024-04-26T05:15:06Z</time>
      </trkpt>
      <trkpt lat="50.0158" lon="4.25451">
        <ele>283.8</ele>
        <time>2024-04-26T05:15:07Z</time>
      </trkpt>
      <trkpt lat="50.01576" lon="4.25445">
        <ele>283.8</ele>
        <time>2024-04-26T05:15:08Z</time>
      </trkpt>
      <trkpt lat="50.01572" lon="4.2544">
        <ele>284</ele>
        <time>2024-04-26T05:15:09Z</time>
      </trkpt>
      <trkpt lat="50.01568" lon="4.25435">
        <ele>284.2</ele>
        <time>2024-04-26T05:15:10Z</time>
      </trkpt>
      <trkpt lat="50.01565" lon="4.2543">
        <ele>284.4</ele>
        <time>2024-04-26T05:15:11Z</time>
      </trkpt>
      <trkpt lat="50.01562" lon="4.25424">
        <ele>284.4</ele>
        <time>2024-04-26T05:15:12Z</time>
      </trkpt>
      <trkpt lat="50.01561" lon="4.25417">
        <ele>284.4</ele>
        <time>2024-04-26T05:15:13Z</time>
      </trkpt>
      <trkpt lat="50.01561" lon="4.25409">
        <ele>284.4</ele>
        <time>2024-04-26T05:15:14Z</time>
      </trkpt>
      <trkpt lat="50.01562" lon="4.25402">
        <ele>284.4</ele>
        <time>2024-04-26T05:15:15Z</time>
      </trkpt>
      <trkpt lat="50.01564" lon="4.25395">
        <ele>284.6</ele>
        <time>2024-04-26T05:15:16Z</time>
      </trkpt>
      <trkpt lat="50.01565" lon="4.25388">
        <ele>284.8</ele>
        <time>2024-04-26T05:15:17Z</time>
      </trkpt>
      <trkpt lat="50.01567" lon="4.25381">
        <ele>284.6</ele>
        <time>2024-04-26T05:15:18Z</time>
      </trkpt>
      <trkpt lat="50.01569" lon="4.25374">
        <ele>285</ele>
        <time>2024-04-26T05:15:19Z</time>
      </trkpt>
      <trkpt lat="50.0157" lon="4.25367">
        <ele>285</ele>
        <time>2024-04-26T05:15:20Z</time>
      </trkpt>
      <trkpt lat="50.01572" lon="4.2536">
        <ele>285</ele>
        <time>2024-04-26T05:15:21Z</time>
      </trkpt>
      <trkpt lat="50.01574" lon="4.25354">
        <ele>285.2</ele>
        <time>2024-04-26T05:15:22Z</time>
      </trkpt>
      <trkpt lat="50.01576" lon="4.25347">
        <ele>285.6</ele>
        <time>2024-04-26T05:15:23Z</time>
      </trkpt>
      <trkpt lat="50.01577" lon="4.2534">
        <ele>285.6</ele>
        <time>2024-04-26T05:15:24Z</time>
      </trkpt>
      <trkpt lat="50.01579" lon="4.25333">
        <ele>285.6</ele>
        <time>2024-04-26T05:15:25Z</time>
      </trkpt>
      <trkpt lat="50.0158" lon="4.25326">
        <ele>285.8</ele>
        <time>2024-04-26T05:15:26Z</time>
      </trkpt>
      <trkpt lat="50.01582" lon="4.2532">
        <ele>285.8</ele>
        <time>2024-04-26T05:15:27Z</time>
      </trkpt>
      <trkpt lat="50.01583" lon="4.25313">
        <ele>285.8</ele>
        <time>2024-04-26T05:15:28Z</time>
      </trkpt>
      <trkpt lat="50.01585" lon="4.25306">
        <ele>286</ele>
        <time>2024-04-26T05:15:29Z</time>
      </trkpt>
      <trkpt lat="50.01586" lon="4.25299">
        <ele>286.2</ele>
        <time>2024-04-26T05:15:30Z</time>
      </trkpt>
      <trkpt lat="50.01587" lon="4.25293">
        <ele>286.2</ele>
        <time>2024-04-26T05:15:31Z</time>
      </trkpt>
      <trkpt lat="50.01589" lon="4.25286">
        <ele>286.2</ele>
        <time>2024-04-26T05:15:32Z</time>
      </trkpt>
      <trkpt lat="50.0159" lon="4.2528">
        <ele>286.4</ele>
        <time>2024-04-26T05:15:33Z</time>
      </trkpt>
      <trkpt lat="50.01592" lon="4.25273">
        <ele>286.4</ele>
        <time>2024-04-26T05:15:34Z</time>
      </trkpt>
      <trkpt lat="50.01593" lon="4.25267">
        <ele>286.6</ele>
        <time>2024-04-26T05:15:35Z</time>
      </trkpt>
      <trkpt lat="50.01594" lon="4.2526">
        <ele>286.6</ele>
        <time>2024-04-26T05:15:36Z</time>
      </trkpt>
      <trkpt lat="50.01596" lon="4.25253">
        <ele>286.6</ele>
        <time>2024-04-26T05:15:37Z</time>
      </trkpt>
      <trkpt lat="50.01597" lon="4.25247">
        <ele>286.8</ele>
        <time>2024-04-26T05:15:38Z</time>
      </trkpt>
      <trkpt lat="50.01599" lon="4.2524">
        <ele>286.8</ele>
        <time>2024-04-26T05:15:39Z</time>
      </trkpt>
      <trkpt lat="50.016" lon="4.25234">
        <ele>287</ele>
        <time>2024-04-26T05:15:40Z</time>
      </trkpt>
      <trkpt lat="50.01601" lon="4.25227">
        <ele>287</ele>
        <time>2024-04-26T05:15:41Z</time>
      </trkpt>
      <trkpt lat="50.01603" lon="4.25221">
        <ele>287</ele>
        <time>2024-04-26T05:15:42Z</time>
      </trkpt>
      <trkpt lat="50.01604" lon="4.25214">
        <ele>287.2</ele>
        <time>2024-04-26T05:15:43Z</time>
      </trkpt>
      <trkpt lat="50.01606" lon="4.25208">
        <ele>287.2</ele>
        <time>2024-04-26T05:15:44Z</time>
      </trkpt>
      <trkpt lat="50.01608" lon="4.25201">
        <ele>287.2</ele>
        <time>2024-04-26T05:15:45Z</time>
      </trkpt>
      <trkpt lat="50.01609" lon="4.25194">
        <ele>287.4</ele>
        <time>2024-04-26T05:15:46Z</time>
      </trkpt>
      <trkpt lat="50.0161" lon="4.25187">
        <ele>287.4</ele>
        <time>2024-04-26T05:15:47Z</time>
      </trkpt>
      <trkpt lat="50.01612" lon="4.2518">
        <ele>287.6</ele>
        <time>2024-04-26T05:15:48Z</time>
      </trkpt>
      <trkpt lat="50.01613" lon="4.25174">
        <ele>287.8</ele>
        <time>2024-04-26T05:15:49Z</time>
      </trkpt>
      <trkpt lat="50.01615" lon="4.25167">
        <ele>287.8</ele>
        <time>2024-04-26T05:15:50Z</time>
      </trkpt>
      <trkpt lat="50.01617" lon="4.2516">
        <ele>288.2</ele>
        <time>2024-04-26T05:15:51Z</time>
      </trkpt>
      <trkpt lat="50.01618" lon="4.25153">
        <ele>288.2</ele>
        <time>2024-04-26T05:15:52Z</time>
      </trkpt>
      <trkpt lat="50.0162" lon="4.25146">
        <ele>288.6</ele>
        <time>2024-04-26T05:15:53Z</time>
      </trkpt>
      <trkpt lat="50.01622" lon="4.25139">
        <ele>289</ele>
        <time>2024-04-26T05:15:54Z</time>
      </trkpt>
      <trkpt lat="50.01623" lon="4.25132">
        <ele>289.4</ele>
        <time>2024-04-26T05:15:55Z</time>
      </trkpt>
      <trkpt lat="50.01625" lon="4.25125">
        <ele>289.6</ele>
        <time>2024-04-26T05:15:56Z</time>
      </trkpt>
      <trkpt lat="50.01626" lon="4.25118">
        <ele>289.8</ele>
        <time>2024-04-26T05:15:57Z</time>
      </trkpt>
      <trkpt lat="50.01627" lon="4.25111">
        <ele>289.8</ele>
        <time>2024-04-26T05:15:58Z</time>
      </trkpt>
      <trkpt lat="50.01629" lon="4.25104">
        <ele>289.8</ele>
        <time>2024-04-26T05:15:59Z</time>
      </trkpt>
      <trkpt lat="50.0163" lon="4.25097">
        <ele>290</ele>
        <time>2024-04-26T05:16:00Z</time>
      </trkpt>
      <trkpt lat="50.01632" lon="4.2509">
        <ele>290.2</ele>
        <time>2024-04-26T05:16:01Z</time>
      </trkpt>
      <trkpt lat="50.01633" lon="4.25083">
        <ele>290.2</ele>
        <time>2024-04-26T05:16:02Z</time>
      </trkpt>
      <trkpt lat="50.01635" lon="4.25076">
        <ele>290.2</ele>
        <time>2024-04-26T05:16:03Z</time>
      </trkpt>
      <trkpt lat="50.01637" lon="4.25069">
        <ele>290.6</ele>
        <time>2024-04-26T05:16:04Z</time>
      </trkpt>
      <trkpt lat="50.01638" lon="4.25062">
        <ele>290.8</ele>
        <time>2024-04-26T05:16:05Z</time>
      </trkpt>
      <trkpt lat="50.0164" lon="4.25055">
        <ele>291</ele>
        <time>2024-04-26T05:16:06Z</time>
      </trkpt>
      <trkpt lat="50.01641" lon="4.25048">
        <ele>291.2</ele>
        <time>2024-04-26T05:16:07Z</time>
      </trkpt>
      <trkpt lat="50.01643" lon="4.2504">
        <ele>291.4</ele>
        <time>2024-04-26T05:16:08Z</time>
      </trkpt>
      <trkpt lat="50.01644" lon="4.25033">
        <ele>291.8</ele>
        <time>2024-04-26T05:16:09Z</time>
      </trkpt>
      <trkpt lat="50.01646" lon="4.25026">
        <ele>292</ele>
        <time>2024-04-26T05:16:10Z</time>
      </trkpt>
      <trkpt lat="50.01648" lon="4.25019">
        <ele>292.2</ele>
        <time>2024-04-26T05:16:11Z</time>
      </trkpt>
      <trkpt lat="50.01649" lon="4.25012">
        <ele>292</ele>
        <time>2024-04-26T05:16:12Z</time>
      </trkpt>
      <trkpt lat="50.01651" lon="4.25005">
        <ele>292.4</ele>
        <time>2024-04-26T05:16:13Z</time>
      </trkpt>
      <trkpt lat="50.01653" lon="4.24998">
        <ele>292.4</ele>
        <time>2024-04-26T05:16:14Z</time>
      </trkpt>
      <trkpt lat="50.01655" lon="4.24991">
        <ele>292.6</ele>
        <time>2024-04-26T05:16:15Z</time>
      </trkpt>
      <trkpt lat="50.01656" lon="4.24984">
        <ele>292.6</ele>
        <time>2024-04-26T05:16:16Z</time>
      </trkpt>
      <trkpt lat="50.01658" lon="4.24977">
        <ele>292.8</ele>
        <time>2024-04-26T05:16:17Z</time>
      </trkpt>
      <trkpt lat="50.0166" lon="4.2497">
        <ele>293</ele>
        <time>2024-04-26T05:16:18Z</time>
      </trkpt>
      <trkpt lat="50.01662" lon="4.24963">
        <ele>293</ele>
        <time>2024-04-26T05:16:19Z</time>
      </trkpt>
      <trkpt lat="50.01665" lon="4.24957">
        <ele>293</ele>
        <time>2024-04-26T05:16:20Z</time>
      </trkpt>
      <trkpt lat="50.01667" lon="4.2495">
        <ele>293</ele>
        <time>2024-04-26T05:16:21Z</time>
      </trkpt>
      <trkpt lat="50.01669" lon="4.24944">
        <ele>293</ele>
        <time>2024-04-26T05:16:22Z</time>
      </trkpt>
      <trkpt lat="50.01672" lon="4.24938">
        <ele>293.2</ele>
        <time>2024-04-26T05:16:23Z</time>
      </trkpt>
      <trkpt lat="50.01674" lon="4.24932">
        <ele>293.2</ele>
        <time>2024-04-26T05:16:24Z</time>
      </trkpt>
      <trkpt lat="50.01677" lon="4.24926">
        <ele>293.2</ele>
        <time>2024-04-26T05:16:25Z</time>
      </trkpt>
      <trkpt lat="50.0168" lon="4.2492">
        <ele>293.4</ele>
        <time>2024-04-26T05:16:26Z</time>
      </trkpt>
      <trkpt lat="50.01683" lon="4.24915">
        <ele>293.4</ele>
        <time>2024-04-26T05:16:27Z</time>
      </trkpt>
      <trkpt lat="50.01686" lon="4.24909">
        <ele>293.4</ele>
        <time>2024-04-26T05:16:28Z</time>
      </trkpt>
      <trkpt lat="50.01689" lon="4.24904">
        <ele>293.6</ele>
        <time>2024-04-26T05:16:29Z</time>
      </trkpt>
      <trkpt lat="50.01693" lon="4.24898">
        <ele>293.6</ele>
        <time>2024-04-26T05:16:30Z</time>
      </trkpt>
      <trkpt lat="50.01696" lon="4.24893">
        <ele>293.6</ele>
        <time>2024-04-26T05:16:31Z</time>
      </trkpt>
      <trkpt lat="50.017" lon="4.24888">
        <ele>293.6</ele>
        <time>2024-04-26T05:16:32Z</time>
      </trkpt>
      <trkpt lat="50.01704" lon="4.24883">
        <ele>293.4</ele>
        <time>2024-04-26T05:16:33Z</time>
      </trkpt>
      <trkpt lat="50.01707" lon="4.24878">
        <ele>293.4</ele>
        <time>2024-04-26T05:16:34Z</time>
      </trkpt>
      <trkpt lat="50.01712" lon="4.24873">
        <ele>293.4</ele>
        <time>2024-04-26T05:16:35Z</time>
      </trkpt>
      <trkpt lat="50.01716" lon="4.24868">
        <ele>293.6</ele>
        <time>2024-04-26T05:16:36Z</time>
      </trkpt>
      <trkpt lat="50.0172" lon="4.24863">
        <ele>293.8</ele>
        <time>2024-04-26T05:16:37Z</time>
      </trkpt>
      <trkpt lat="50.01724" lon="4.24859">
        <ele>293.8</ele>
        <time>2024-04-26T05:16:38Z</time>
      </trkpt>
      <trkpt lat="50.01729" lon="4.24854">
        <ele>294</ele>
        <time>2024-04-26T05:16:39Z</time>
      </trkpt>
      <trkpt lat="50.01734" lon="4.24849">
        <ele>294</ele>
        <time>2024-04-26T05:16:40Z</time>
      </trkpt>
      <trkpt lat="50.01738" lon="4.24844">
        <ele>294</ele>
        <time>2024-04-26T05:16:41Z</time>
      </trkpt>
      <trkpt lat="50.01743" lon="4.24838">
        <ele>293.8</ele>
        <time>2024-04-26T05:16:42Z</time>
      </trkpt>
      <trkpt lat="50.01748" lon="4.24833">
        <ele>294</ele>
        <time>2024-04-26T05:16:43Z</time>
      </trkpt>
      <trkpt lat="50.01753" lon="4.24828">
        <ele>294</ele>
        <time>2024-04-26T05:16:44Z</time>
      </trkpt>
      <trkpt lat="50.01758" lon="4.24822">
        <ele>294.2</ele>
        <time>2024-04-26T05:16:45Z</time>
      </trkpt>
      <trkpt lat="50.01763" lon="4.24817">
        <ele>294.2</ele>
        <time>2024-04-26T05:16:46Z</time>
      </trkpt>
      <trkpt lat="50.01769" lon="4.24811">
        <ele>294.4</ele>
        <time>2024-04-26T05:16:47Z</time>
      </trkpt>
      <trkpt lat="50.01774" lon="4.24805">
        <ele>294.4</ele>
        <time>2024-04-26T05:16:48Z</time>
      </trkpt>
      <trkpt lat="50.01779" lon="4.24799">
        <ele>294.4</ele>
        <time>2024-04-26T05:16:49Z</time>
      </trkpt>
      <trkpt lat="50.01784" lon="4.24793">
        <ele>294.6</ele>
        <time>2024-04-26T05:16:50Z</time>
      </trkpt>
      <trkpt lat="50.0179" lon="4.24786">
        <ele>294.6</ele>
        <time>2024-04-26T05:16:51Z</time>
      </trkpt>
      <trkpt lat="50.01795" lon="4.24779">
        <ele>294.4</ele>
        <time>2024-04-26T05:16:52Z</time>
      </trkpt>
      <trkpt lat="50.018" lon="4.24772">
        <ele>294.6</ele>
        <time>2024-04-26T05:16:53Z</time>
      </trkpt>
      <trkpt lat="50.01805" lon="4.24764">
        <ele>294.4</ele>
        <time>2024-04-26T05:16:54Z</time>
      </trkpt>
      <trkpt lat="50.0181" lon="4.24756">
        <ele>294.2</ele>
        <time>2024-04-26T05:16:55Z</time>
      </trkpt>
      <trkpt lat="50.01815" lon="4.24748">
        <ele>294.2</ele>
        <time>2024-04-26T05:16:56Z</time>
      </trkpt>
      <trkpt lat="50.0182" lon="4.24739">
        <ele>293.8</ele>
        <time>2024-04-26T05:16:57Z</time>
      </trkpt>
      <trkpt lat="50.01825" lon="4.24731">
        <ele>293.6</ele>
        <time>2024-04-26T05:16:58Z</time>
      </trkpt>
      <trkpt lat="50.0183" lon="4.24722">
        <ele>293.6</ele>
        <time>2024-04-26T05:16:59Z</time>
      </trkpt>
      <trkpt lat="50.01835" lon="4.24712">
        <ele>293.4</ele>
        <time>2024-04-26T05:17:00Z</time>
      </trkpt>
      <trkpt lat="50.01839" lon="4.24702">
        <ele>293.2</ele>
        <time>2024-04-26T05:17:01Z</time>
      </trkpt>
      <trkpt lat="50.01843" lon="4.24692">
        <ele>293</ele>
        <time>2024-04-26T05:17:02Z</time>
      </trkpt>
      <trkpt lat="50.01847" lon="4.24681">
        <ele>292.6</ele>
        <time>2024-04-26T05:17:03Z</time>
      </trkpt>
      <trkpt lat="50.01851" lon="4.2467">
        <ele>292.2</ele>
        <time>2024-04-26T05:17:04Z</time>
      </trkpt>
      <trkpt lat="50.01854" lon="4.24658">
        <ele>292.2</ele>
        <time>2024-04-26T05:17:05Z</time>
      </trkpt>
      <trkpt lat="50.01856" lon="4.24646">
        <ele>291.8</ele>
        <time>2024-04-26T05:17:06Z</time>
      </trkpt>
      <trkpt lat="50.01858" lon="4.24634">
        <ele>291.6</ele>
        <time>2024-04-26T05:17:07Z</time>
      </trkpt>
      <trkpt lat="50.0186" lon="4.24622">
        <ele>291.6</ele>
        <time>2024-04-26T05:17:08Z</time>
      </trkpt>
      <trkpt lat="50.01861" lon="4.2461">
        <ele>291.2</ele>
        <time>2024-04-26T05:17:09Z</time>
      </trkpt>
      <trkpt lat="50.01861" lon="4.24597">
        <ele>291</ele>
        <time>2024-04-26T05:17:10Z</time>
      </trkpt>
      <trkpt lat="50.01862" lon="4.24585">
        <ele>290.8</ele>
        <time>2024-04-26T05:17:11Z</time>
      </trkpt>
      <trkpt lat="50.01862" lon="4.24573">
        <ele>290.4</ele>
        <time>2024-04-26T05:17:12Z</time>
      </trkpt>
      <trkpt lat="50.01862" lon="4.2456">
        <ele>290.2</ele>
        <time>2024-04-26T05:17:13Z</time>
      </trkpt>
      <trkpt lat="50.01862" lon="4.24548">
        <ele>289.6</ele>
        <time>2024-04-26T05:17:14Z</time>
      </trkpt>
      <trkpt lat="50.01861" lon="4.24536">
        <ele>289.2</ele>
        <time>2024-04-26T05:17:15Z</time>
      </trkpt>
      <trkpt lat="50.01861" lon="4.24523">
        <ele>288.8</ele>
        <time>2024-04-26T05:17:16Z</time>
      </trkpt>
      <trkpt lat="50.0186" lon="4.24511">
        <ele>288.8</ele>
        <time>2024-04-26T05:17:17Z</time>
      </trkpt>
      <trkpt lat="50.01859" lon="4.24499">
        <ele>288.6</ele>
        <time>2024-04-26T05:17:18Z</time>
      </trkpt>
      <trkpt lat="50.01858" lon="4.24487">
        <ele>288.4</ele>
        <time>2024-04-26T05:17:19Z</time>
      </trkpt>
      <trkpt lat="50.01857" lon="4.24475">
        <ele>288.4</ele>
        <time>2024-04-26T05:17:20Z</time>
      </trkpt>
      <trkpt lat="50.01855" lon="4.24463">
        <ele>288.2</ele>
        <time>2024-04-26T05:17:21Z</time>
      </trkpt>
      <trkpt lat="50.01852" lon="4.24451">
        <ele>288.2</ele>
        <time>2024-04-26T05:17:22Z</time>
      </trkpt>
      <trkpt lat="50.0185" lon="4.2444">
        <ele>288.2</ele>
        <time>2024-04-26T05:17:23Z</time>
      </trkpt>
      <trkpt lat="50.01847" lon="4.24428">
        <ele>288</ele>
        <time>2024-04-26T05:17:24Z</time>
      </trkpt>
      <trkpt lat="50.01844" lon="4.24417">
        <ele>287.4</ele>
        <time>2024-04-26T05:17:25Z</time>
      </trkpt>
      <trkpt lat="50.01841" lon="4.24406">
        <ele>287</ele>
        <time>2024-04-26T05:17:26Z</time>
      </trkpt>
      <trkpt lat="50.01838" lon="4.24395">
        <ele>286.8</ele>
        <time>2024-04-26T05:17:27Z</time>
      </trkpt>
      <trkpt lat="50.01835" lon="4.24384">
        <ele>286.4</ele>
        <time>2024-04-26T05:17:28Z</time>
      </trkpt>
      <trkpt lat="50.01831" lon="4.24373">
        <ele>286</ele>
        <time>2024-04-26T05:17:29Z</time>
      </trkpt>
      <trkpt lat="50.01828" lon="4.24362">
        <ele>286</ele>
        <time>2024-04-26T05:17:30Z</time>
      </trkpt>
      <trkpt lat="50.01825" lon="4.24351">
        <ele>286</ele>
        <time>2024-04-26T05:17:31Z</time>
      </trkpt>
      <trkpt lat="50.01822" lon="4.2434">
        <ele>285.8</ele>
        <time>2024-04-26T05:17:32Z</time>
      </trkpt>
      <trkpt lat="50.01819" lon="4.24329">
        <ele>285.8</ele>
        <time>2024-04-26T05:17:33Z</time>
      </trkpt>
      <trkpt lat="50.01815" lon="4.24318">
        <ele>285.8</ele>
        <time>2024-04-26T05:17:34Z</time>
      </trkpt>
      <trkpt lat="50.01812" lon="4.24306">
        <ele>285.8</ele>
        <time>2024-04-26T05:17:35Z</time>
      </trkpt>
      <trkpt lat="50.01809" lon="4.24295">
        <ele>285.8</ele>
        <time>2024-04-26T05:17:36Z</time>
      </trkpt>
      <trkpt lat="50.01806" lon="4.24284">
        <ele>285.8</ele>
        <time>2024-04-26T05:17:37Z</time>
      </trkpt>
      <trkpt lat="50.01803" lon="4.24272">
        <ele>285.6</ele>
        <time>2024-04-26T05:17:38Z</time>
      </trkpt>
      <trkpt lat="50.018" lon="4.24261">
        <ele>285.8</ele>
        <time>2024-04-26T05:17:39Z</time>
      </trkpt>
      <trkpt lat="50.01797" lon="4.24249">
        <ele>285.6</ele>
        <time>2024-04-26T05:17:40Z</time>
      </trkpt>
      <trkpt lat="50.01794" lon="4.24237">
        <ele>285.4</ele>
        <time>2024-04-26T05:17:41Z</time>
      </trkpt>
      <trkpt lat="50.01791" lon="4.24225">
        <ele>285.4</ele>
        <time>2024-04-26T05:17:42Z</time>
      </trkpt>
      <trkpt lat="50.01787" lon="4.24213">
        <ele>285.2</ele>
        <time>2024-04-26T05:17:43Z</time>
      </trkpt>
      <trkpt lat="50.01784" lon="4.24201">
        <ele>285.2</ele>
        <time>2024-04-26T05:17:44Z</time>
      </trkpt>
      <trkpt lat="50.0178" lon="4.24188">
        <ele>285</ele>
        <time>2024-04-26T05:17:45Z</time>
      </trkpt>
      <trkpt lat="50.01776" lon="4.24175">
        <ele>284.8</ele>
        <time>2024-04-26T05:17:46Z</time>
      </trkpt>
      <trkpt lat="50.01772" lon="4.24162">
        <ele>284.8</ele>
        <time>2024-04-26T05:17:47Z</time>
      </trkpt>
      <trkpt lat="50.01769" lon="4.24149">
        <ele>284.6</ele>
        <time>2024-04-26T05:17:48Z</time>
      </trkpt>
      <trkpt lat="50.01764" lon="4.24135">
        <ele>284.4</ele>
        <time>2024-04-26T05:17:49Z</time>
      </trkpt>
      <trkpt lat="50.01759" lon="4.24123">
        <ele>284.4</ele>
        <time>2024-04-26T05:17:50Z</time>
      </trkpt>
      <trkpt lat="50.01754" lon="4.2411">
        <ele>284.2</ele>
        <time>2024-04-26T05:17:51Z</time>
      </trkpt>
      <trkpt lat="50.01749" lon="4.24097">
        <ele>284.2</ele>
        <time>2024-04-26T05:17:52Z</time>
      </trkpt>
      <trkpt lat="50.01743" lon="4.24084">
        <ele>284</ele>
        <time>2024-04-26T05:17:53Z</time>
      </trkpt>
      <trkpt lat="50.01737" lon="4.24071">
        <ele>283.8</ele>
        <time>2024-04-26T05:17:54Z</time>
      </trkpt>
      <trkpt lat="50.0173" lon="4.24058">
        <ele>283.4</ele>
        <time>2024-04-26T05:17:55Z</time>
      </trkpt>
      <trkpt lat="50.01724" lon="4.24046">
        <ele>283</ele>
        <time>2024-04-26T05:17:56Z</time>
      </trkpt>
      <trkpt lat="50.01717" lon="4.24033">
        <ele>282.2</ele>
        <time>2024-04-26T05:17:57Z</time>
      </trkpt>
      <trkpt lat="50.01711" lon="4.24019">
        <ele>281.6</ele>
        <time>2024-04-26T05:17:58Z</time>
      </trkpt>
      <trkpt lat="50.01704" lon="4.24006">
        <ele>280.8</ele>
        <time>2024-04-26T05:17:59Z</time>
      </trkpt>
      <trkpt lat="50.01698" lon="4.23993">
        <ele>280.2</ele>
        <time>2024-04-26T05:18:00Z</time>
      </trkpt>
      <trkpt lat="50.01693" lon="4.23978">
        <ele>279.2</ele>
        <time>2024-04-26T05:18:01Z</time>
      </trkpt>
      <trkpt lat="50.01688" lon="4.23961">
        <ele>278.6</ele>
        <time>2024-04-26T05:18:02Z</time>
      </trkpt>
      <trkpt lat="50.01685" lon="4.23944">
        <ele>277.6</ele>
        <time>2024-04-26T05:18:03Z</time>
      </trkpt>
      <trkpt lat="50.01683" lon="4.23927">
        <ele>277</ele>
        <time>2024-04-26T05:18:04Z</time>
      </trkpt>
      <trkpt lat="50.0168" lon="4.23911">
        <ele>276.4</ele>
        <time>2024-04-26T05:18:05Z</time>
      </trkpt>
      <trkpt lat="50.01678" lon="4.23894">
        <ele>275.4</ele>
        <time>2024-04-26T05:18:06Z</time>
      </trkpt>
      <trkpt lat="50.01677" lon="4.23879">
        <ele>274.4</ele>
        <time>2024-04-26T05:18:07Z</time>
      </trkpt>
      <trkpt lat="50.01677" lon="4.23864">
        <ele>274</ele>
        <time>2024-04-26T05:18:08Z</time>
      </trkpt>
      <trkpt lat="50.01679" lon="4.2385">
        <ele>273.6</ele>
        <time>2024-04-26T05:18:09Z</time>
      </trkpt>
      <trkpt lat="50.01682" lon="4.23838">
        <ele>273.4</ele>
        <time>2024-04-26T05:18:10Z</time>
      </trkpt>
      <trkpt lat="50.01685" lon="4.23826">
        <ele>273.2</ele>
        <time>2024-04-26T05:18:11Z</time>
      </trkpt>
      <trkpt lat="50.01689" lon="4.23816">
        <ele>273</ele>
        <time>2024-04-26T05:18:12Z</time>
      </trkpt>
      <trkpt lat="50.01692" lon="4.23805">
        <ele>273</ele>
        <time>2024-04-26T05:18:13Z</time>
      </trkpt>
      <trkpt lat="50.01695" lon="4.23795">
        <ele>273</ele>
        <time>2024-04-26T05:18:14Z</time>
      </trkpt>
      <trkpt lat="50.01698" lon="4.23785">
        <ele>273</ele>
        <time>2024-04-26T05:18:15Z</time>
      </trkpt>
      <trkpt lat="50.01701" lon="4.23776">
        <ele>273</ele>
        <time>2024-04-26T05:18:16Z</time>
      </trkpt>
      <trkpt lat="50.01704" lon="4.23767">
        <ele>273</ele>
        <time>2024-04-26T05:18:17Z</time>
      </trkpt>
      <trkpt lat="50.01707" lon="4.23758">
        <ele>273</ele>
        <time>2024-04-26T05:18:18Z</time>
      </trkpt>
      <trkpt lat="50.0171" lon="4.23749">
        <ele>273.2</ele>
        <time>2024-04-26T05:18:19Z</time>
      </trkpt>
      <trkpt lat="50.01713" lon="4.2374">
        <ele>273</ele>
        <time>2024-04-26T05:18:20Z</time>
      </trkpt>
      <trkpt lat="50.01717" lon="4.23731">
        <ele>273.8</ele>
        <time>2024-04-26T05:18:21Z</time>
      </trkpt>
      <trkpt lat="50.01721" lon="4.23723">
        <ele>274.4</ele>
        <time>2024-04-26T05:18:22Z</time>
      </trkpt>
      <trkpt lat="50.01724" lon="4.23715">
        <ele>275</ele>
        <time>2024-04-26T05:18:23Z</time>
      </trkpt>
      <trkpt lat="50.01728" lon="4.23706">
        <ele>275.4</ele>
        <time>2024-04-26T05:18:24Z</time>
      </trkpt>
      <trkpt lat="50.01732" lon="4.23698">
        <ele>275.8</ele>
        <time>2024-04-26T05:18:25Z</time>
      </trkpt>
      <trkpt lat="50.01735" lon="4.23689">
        <ele>276</ele>
        <time>2024-04-26T05:18:26Z</time>
      </trkpt>
      <trkpt lat="50.01738" lon="4.2368">
        <ele>276.4</ele>
        <time>2024-04-26T05:18:27Z</time>
      </trkpt>
      <trkpt lat="50.01742" lon="4.23671">
        <ele>276.6</ele>
        <time>2024-04-26T05:18:28Z</time>
      </trkpt>
      <trkpt lat="50.01745" lon="4.23661">
        <ele>276.6</ele>
        <time>2024-04-26T05:18:29Z</time>
      </trkpt>
      <trkpt lat="50.01748" lon="4.23652">
        <ele>276.6</ele>
        <time>2024-04-26T05:18:30Z</time>
      </trkpt>
      <trkpt lat="50.01751" lon="4.23643">
        <ele>276.8</ele>
        <time>2024-04-26T05:18:31Z</time>
      </trkpt>
      <trkpt lat="50.01754" lon="4.23633">
        <ele>276.6</ele>
        <time>2024-04-26T05:18:32Z</time>
      </trkpt>
      <trkpt lat="50.01756" lon="4.23623">
        <ele>276.6</ele>
        <time>2024-04-26T05:18:33Z</time>
      </trkpt>
      <trkpt lat="50.01759" lon="4.23613">
        <ele>276.8</ele>
        <time>2024-04-26T05:18:34Z</time>
      </trkpt>
      <trkpt lat="50.01761" lon="4.23603">
        <ele>276.8</ele>
        <time>2024-04-26T05:18:35Z</time>
      </trkpt>
      <trkpt lat="50.01764" lon="4.23593">
        <ele>276.8</ele>
        <time>2024-04-26T05:18:36Z</time>
      </trkpt>
      <trkpt lat="50.01767" lon="4.23583">
        <ele>276.8</ele>
        <time>2024-04-26T05:18:37Z</time>
      </trkpt>
      <trkpt lat="50.01769" lon="4.23573">
        <ele>277</ele>
        <time>2024-04-26T05:18:38Z</time>
      </trkpt>
      <trkpt lat="50.01771" lon="4.23564">
        <ele>277</ele>
        <time>2024-04-26T05:18:39Z</time>
      </trkpt>
      <trkpt lat="50.01773" lon="4.23554">
        <ele>277</ele>
        <time>2024-04-26T05:18:40Z</time>
      </trkpt>
      <trkpt lat="50.01775" lon="4.23545">
        <ele>277</ele>
        <time>2024-04-26T05:18:41Z</time>
      </trkpt>
      <trkpt lat="50.01777" lon="4.23537">
        <ele>277.2</ele>
        <time>2024-04-26T05:18:42Z</time>
      </trkpt>
      <trkpt lat="50.0178" lon="4.23528">
        <ele>277.2</ele>
        <time>2024-04-26T05:18:43Z</time>
      </trkpt>
      <trkpt lat="50.01782" lon="4.2352">
        <ele>277.2</ele>
        <time>2024-04-26T05:18:44Z</time>
      </trkpt>
      <trkpt lat="50.01783" lon="4.23512">
        <ele>277.2</ele>
        <time>2024-04-26T05:18:45Z</time>
      </trkpt>
      <trkpt lat="50.01785" lon="4.23504">
        <ele>277.4</ele>
        <time>2024-04-26T05:18:46Z</time>
      </trkpt>
      <trkpt lat="50.01787" lon="4.23496">
        <ele>277.4</ele>
        <time>2024-04-26T05:18:47Z</time>
      </trkpt>
      <trkpt lat="50.01789" lon="4.23487">
        <ele>277.4</ele>
        <time>2024-04-26T05:18:48Z</time>
      </trkpt>
      <trkpt lat="50.01791" lon="4.23479">
        <ele>277.6</ele>
        <time>2024-04-26T05:18:49Z</time>
      </trkpt>
      <trkpt lat="50.01793" lon="4.23472">
        <ele>277.6</ele>
        <time>2024-04-26T05:18:50Z</time>
      </trkpt>
      <trkpt lat="50.01795" lon="4.23464">
        <ele>278.2</ele>
        <time>2024-04-26T05:18:51Z</time>
      </trkpt>
      <trkpt lat="50.01797" lon="4.23456">
        <ele>278.6</ele>
        <time>2024-04-26T05:18:52Z</time>
      </trkpt>
      <trkpt lat="50.01799" lon="4.23449">
        <ele>278.8</ele>
        <time>2024-04-26T05:18:53Z</time>
      </trkpt>
      <trkpt lat="50.018" lon="4.23441">
        <ele>279</ele>
        <time>2024-04-26T05:18:54Z</time>
      </trkpt>
      <trkpt lat="50.01802" lon="4.23433">
        <ele>279.4</ele>
        <time>2024-04-26T05:18:55Z</time>
      </trkpt>
      <trkpt lat="50.01804" lon="4.23426">
        <ele>279.4</ele>
        <time>2024-04-26T05:18:56Z</time>
      </trkpt>
      <trkpt lat="50.01806" lon="4.23418">
        <ele>279.8</ele>
        <time>2024-04-26T05:18:57Z</time>
      </trkpt>
      <trkpt lat="50.01808" lon="4.23411">
        <ele>279.8</ele>
        <time>2024-04-26T05:18:58Z</time>
      </trkpt>
      <trkpt lat="50.0181" lon="4.23403">
        <ele>280</ele>
        <time>2024-04-26T05:18:59Z</time>
      </trkpt>
      <trkpt lat="50.01812" lon="4.23396">
        <ele>280.4</ele>
        <time>2024-04-26T05:19:00Z</time>
      </trkpt>
      <trkpt lat="50.01814" lon="4.23388">
        <ele>280.8</ele>
        <time>2024-04-26T05:19:01Z</time>
      </trkpt>
      <trkpt lat="50.01816" lon="4.23381">
        <ele>281.2</ele>
        <time>2024-04-26T05:19:02Z</time>
      </trkpt>
      <trkpt lat="50.01818" lon="4.23374">
        <ele>281.4</ele>
        <time>2024-04-26T05:19:03Z</time>
      </trkpt>
      <trkpt lat="50.01819" lon="4.23366">
        <ele>281.6</ele>
        <time>2024-04-26T05:19:04Z</time>
      </trkpt>
      <trkpt lat="50.01821" lon="4.23359">
        <ele>281.8</ele>
        <time>2024-04-26T05:19:05Z</time>
      </trkpt>
      <trkpt lat="50.01823" lon="4.23351">
        <ele>281.8</ele>
        <time>2024-04-26T05:19:06Z</time>
      </trkpt>
      <trkpt lat="50.01826" lon="4.23344">
        <ele>282</ele>
        <time>2024-04-26T05:19:07Z</time>
      </trkpt>
      <trkpt lat="50.01828" lon="4.23337">
        <ele>282.2</ele>
        <time>2024-04-26T05:19:08Z</time>
      </trkpt>
      <trkpt lat="50.0183" lon="4.23329">
        <ele>282</ele>
        <time>2024-04-26T05:19:09Z</time>
      </trkpt>
      <trkpt lat="50.01832" lon="4.23322">
        <ele>282.4</ele>
        <time>2024-04-26T05:19:10Z</time>
      </trkpt>
      <trkpt lat="50.01834" lon="4.23314">
        <ele>282.6</ele>
        <time>2024-04-26T05:19:11Z</time>
      </trkpt>
      <trkpt lat="50.01836" lon="4.23307">
        <ele>282.8</ele>
        <time>2024-04-26T05:19:12Z</time>
      </trkpt>
      <trkpt lat="50.01838" lon="4.23299">
        <ele>282.8</ele>
        <time>2024-04-26T05:19:13Z</time>
      </trkpt>
      <trkpt lat="50.0184" lon="4.23292">
        <ele>282.8</ele>
        <time>2024-04-26T05:19:14Z</time>
      </trkpt>
      <trkpt lat="50.01842" lon="4.23285">
        <ele>282.8</ele>
        <time>2024-04-26T05:19:15Z</time>
      </trkpt>
      <trkpt lat="50.01844" lon="4.23277">
        <ele>283.4</ele>
        <time>2024-04-26T05:19:16Z</time>
      </trkpt>
      <trkpt lat="50.01846" lon="4.23269">
        <ele>283.4</ele>
        <time>2024-04-26T05:19:17Z</time>
      </trkpt>
      <trkpt lat="50.01847" lon="4.23262">
        <ele>283.4</ele>
        <time>2024-04-26T05:19:18Z</time>
      </trkpt>
      <trkpt lat="50.01849" lon="4.23254">
        <ele>283.8</ele>
        <time>2024-04-26T05:19:19Z</time>
      </trkpt>
      <trkpt lat="50.01851" lon="4.23247">
        <ele>284</ele>
        <time>2024-04-26T05:19:20Z</time>
      </trkpt>
      <trkpt lat="50.01854" lon="4.2324">
        <ele>284.2</ele>
        <time>2024-04-26T05:19:21Z</time>
      </trkpt>
      <trkpt lat="50.01857" lon="4.23233">
        <ele>284.4</ele>
        <time>2024-04-26T05:19:22Z</time>
      </trkpt>
      <trkpt lat="50.0186" lon="4.23226">
        <ele>284.6</ele>
        <time>2024-04-26T05:19:23Z</time>
      </trkpt>
      <trkpt lat="50.01863" lon="4.2322">
        <ele>285</ele>
        <time>2024-04-26T05:19:24Z</time>
      </trkpt>
      <trkpt lat="50.01866" lon="4.23213">
        <ele>285.2</ele>
        <time>2024-04-26T05:19:25Z</time>
      </trkpt>
      <trkpt lat="50.0187" lon="4.23207">
        <ele>285.6</ele>
        <time>2024-04-26T05:19:26Z</time>
      </trkpt>
      <trkpt lat="50.01874" lon="4.23202">
        <ele>285.8</ele>
        <time>2024-04-26T05:19:27Z</time>
      </trkpt>
      <trkpt lat="50.01878" lon="4.23196">
        <ele>286</ele>
        <time>2024-04-26T05:19:28Z</time>
      </trkpt>
      <trkpt lat="50.01882" lon="4.23191">
        <ele>286.2</ele>
        <time>2024-04-26T05:19:29Z</time>
      </trkpt>
      <trkpt lat="50.01886" lon="4.23186">
        <ele>286.6</ele>
        <time>2024-04-26T05:19:30Z</time>
      </trkpt>
      <trkpt lat="50.01891" lon="4.23181">
        <ele>286.8</ele>
        <time>2024-04-26T05:19:31Z</time>
      </trkpt>
      <trkpt lat="50.01895" lon="4.23177">
        <ele>287.4</ele>
        <time>2024-04-26T05:19:32Z</time>
      </trkpt>
      <trkpt lat="50.019" lon="4.23174">
        <ele>288</ele>
        <time>2024-04-26T05:19:33Z</time>
      </trkpt>
      <trkpt lat="50.01905" lon="4.23171">
        <ele>288.4</ele>
        <time>2024-04-26T05:19:34Z</time>
      </trkpt>
      <trkpt lat="50.0191" lon="4.23167">
        <ele>288.6</ele>
        <time>2024-04-26T05:19:35Z</time>
      </trkpt>
      <trkpt lat="50.01914" lon="4.23165">
        <ele>288.8</ele>
        <time>2024-04-26T05:19:36Z</time>
      </trkpt>
      <trkpt lat="50.01919" lon="4.23162">
        <ele>289</ele>
        <time>2024-04-26T05:19:37Z</time>
      </trkpt>
      <trkpt lat="50.01925" lon="4.23159">
        <ele>289.4</ele>
        <time>2024-04-26T05:19:38Z</time>
      </trkpt>
      <trkpt lat="50.01931" lon="4.23157">
        <ele>289.4</ele>
        <time>2024-04-26T05:19:39Z</time>
      </trkpt>
      <trkpt lat="50.01937" lon="4.23155">
        <ele>289.6</ele>
        <time>2024-04-26T05:19:40Z</time>
      </trkpt>
      <trkpt lat="50.01943" lon="4.23152">
        <ele>289.6</ele>
        <time>2024-04-26T05:19:41Z</time>
      </trkpt>
      <trkpt lat="50.01949" lon="4.2315">
        <ele>290</ele>
        <time>2024-04-26T05:19:42Z</time>
      </trkpt>
      <trkpt lat="50.01955" lon="4.23148">
        <ele>290.2</ele>
        <time>2024-04-26T05:19:43Z</time>
      </trkpt>
      <trkpt lat="50.01961" lon="4.23146">
        <ele>290.6</ele>
        <time>2024-04-26T05:19:44Z</time>
      </trkpt>
      <trkpt lat="50.01967" lon="4.23143">
        <ele>290.8</ele>
        <time>2024-04-26T05:19:45Z</time>
      </trkpt>
      <trkpt lat="50.01973" lon="4.23141">
        <ele>291</ele>
        <time>2024-04-26T05:19:46Z</time>
      </trkpt>
      <trkpt lat="50.0198" lon="4.23138">
        <ele>291</ele>
        <time>2024-04-26T05:19:47Z</time>
      </trkpt>
      <trkpt lat="50.01986" lon="4.23136">
        <ele>291</ele>
        <time>2024-04-26T05:19:48Z</time>
      </trkpt>
      <trkpt lat="50.01993" lon="4.23134">
        <ele>291.2</ele>
        <time>2024-04-26T05:19:49Z</time>
      </trkpt>
      <trkpt lat="50.02" lon="4.23131">
        <ele>291</ele>
        <time>2024-04-26T05:19:50Z</time>
      </trkpt>
      <trkpt lat="50.02007" lon="4.23129">
        <ele>291.2</ele>
        <time>2024-04-26T05:19:51Z</time>
      </trkpt>
      <trkpt lat="50.02013" lon="4.23127">
        <ele>291.2</ele>
        <time>2024-04-26T05:19:52Z</time>
      </trkpt>
      <trkpt lat="50.02019" lon="4.23124">
        <ele>291.2</ele>
        <time>2024-04-26T05:19:53Z</time>
      </trkpt>
      <trkpt lat="50.02026" lon="4.23121">
        <ele>291.2</ele>
        <time>2024-04-26T05:19:54Z</time>
      </trkpt>
      <trkpt lat="50.02032" lon="4.23118">
        <ele>291.4</ele>
        <time>2024-04-26T05:19:55Z</time>
      </trkpt>
      <trkpt lat="50.02038" lon="4.23116">
        <ele>291.4</ele>
        <time>2024-04-26T05:19:56Z</time>
      </trkpt>
      <trkpt lat="50.02045" lon="4.23113">
        <ele>291.2</ele>
        <time>2024-04-26T05:19:57Z</time>
      </trkpt>
      <trkpt lat="50.02051" lon="4.23111">
        <ele>291.4</ele>
        <time>2024-04-26T05:19:58Z</time>
      </trkpt>
      <trkpt lat="50.02059" lon="4.23108">
        <ele>291.4</ele>
        <time>2024-04-26T05:19:59Z</time>
      </trkpt>
      <trkpt lat="50.02066" lon="4.23106">
        <ele>291.2</ele>
        <time>2024-04-26T05:20:00Z</time>
      </trkpt>
      <trkpt lat="50.02072" lon="4.23103">
        <ele>291.2</ele>
        <time>2024-04-26T05:20:01Z</time>
      </trkpt>
      <trkpt lat="50.02079" lon="4.231">
        <ele>291.4</ele>
        <time>2024-04-26T05:20:02Z</time>
      </trkpt>
      <trkpt lat="50.02085" lon="4.23097">
        <ele>291.4</ele>
        <time>2024-04-26T05:20:03Z</time>
      </trkpt>
      <trkpt lat="50.02091" lon="4.23095">
        <ele>291.6</ele>
        <time>2024-04-26T05:20:04Z</time>
      </trkpt>
      <trkpt lat="50.02098" lon="4.23092">
        <ele>291.6</ele>
        <time>2024-04-26T05:20:05Z</time>
      </trkpt>
      <trkpt lat="50.02105" lon="4.2309">
        <ele>291.4</ele>
        <time>2024-04-26T05:20:06Z</time>
      </trkpt>
      <trkpt lat="50.02112" lon="4.23087">
        <ele>291</ele>
        <time>2024-04-26T05:20:07Z</time>
      </trkpt>
      <trkpt lat="50.02118" lon="4.23084">
        <ele>291.2</ele>
        <time>2024-04-26T05:20:08Z</time>
      </trkpt>
      <trkpt lat="50.02125" lon="4.23082">
        <ele>291</ele>
        <time>2024-04-26T05:20:09Z</time>
      </trkpt>
      <trkpt lat="50.02131" lon="4.23079">
        <ele>290.8</ele>
        <time>2024-04-26T05:20:10Z</time>
      </trkpt>
      <trkpt lat="50.02138" lon="4.23077">
        <ele>290.6</ele>
        <time>2024-04-26T05:20:11Z</time>
      </trkpt>
      <trkpt lat="50.02144" lon="4.23074">
        <ele>290.4</ele>
        <time>2024-04-26T05:20:12Z</time>
      </trkpt>
      <trkpt lat="50.02151" lon="4.23071">
        <ele>290.6</ele>
        <time>2024-04-26T05:20:13Z</time>
      </trkpt>
      <trkpt lat="50.02157" lon="4.23068">
        <ele>290.6</ele>
        <time>2024-04-26T05:20:14Z</time>
      </trkpt>
      <trkpt lat="50.02164" lon="4.23066">
        <ele>290.4</ele>
        <time>2024-04-26T05:20:15Z</time>
      </trkpt>
      <trkpt lat="50.0217" lon="4.23063">
        <ele>290.4</ele>
        <time>2024-04-26T05:20:16Z</time>
      </trkpt>
      <trkpt lat="50.02178" lon="4.2306">
        <ele>290.6</ele>
        <time>2024-04-26T05:20:17Z</time>
      </trkpt>
      <trkpt lat="50.02184" lon="4.23057">
        <ele>290.4</ele>
        <time>2024-04-26T05:20:18Z</time>
      </trkpt>
      <trkpt lat="50.02191" lon="4.23054">
        <ele>290.4</ele>
        <time>2024-04-26T05:20:19Z</time>
      </trkpt>
      <trkpt lat="50.02197" lon="4.23051">
        <ele>290.4</ele>
        <time>2024-04-26T05:20:20Z</time>
      </trkpt>
      <trkpt lat="50.02203" lon="4.23048">
        <ele>290.4</ele>
        <time>2024-04-26T05:20:21Z</time>
      </trkpt>
      <trkpt lat="50.0221" lon="4.23044">
        <ele>290.4</ele>
        <time>2024-04-26T05:20:22Z</time>
      </trkpt>
      <trkpt lat="50.02216" lon="4.23042">
        <ele>290.4</ele>
        <time>2024-04-26T05:20:23Z</time>
      </trkpt>
      <trkpt lat="50.02223" lon="4.23039">
        <ele>290.4</ele>
        <time>2024-04-26T05:20:24Z</time>
      </trkpt>
      <trkpt lat="50.02231" lon="4.23036">
        <ele>290.2</ele>
        <time>2024-04-26T05:20:25Z</time>
      </trkpt>
      <trkpt lat="50.02238" lon="4.23034">
        <ele>290.4</ele>
        <time>2024-04-26T05:20:26Z</time>
      </trkpt>
      <trkpt lat="50.02245" lon="4.23031">
        <ele>290.4</ele>
        <time>2024-04-26T05:20:27Z</time>
      </trkpt>
      <trkpt lat="50.02251" lon="4.23029">
        <ele>290.2</ele>
        <time>2024-04-26T05:20:28Z</time>
      </trkpt>
      <trkpt lat="50.02257" lon="4.23026">
        <ele>290.4</ele>
        <time>2024-04-26T05:20:29Z</time>
      </trkpt>
      <trkpt lat="50.02263" lon="4.23024">
        <ele>290.4</ele>
        <time>2024-04-26T05:20:30Z</time>
      </trkpt>
      <trkpt lat="50.02269" lon="4.23021">
        <ele>290.4</ele>
        <time>2024-04-26T05:20:31Z</time>
      </trkpt>
      <trkpt lat="50.02276" lon="4.23019">
        <ele>290.8</ele>
        <time>2024-04-26T05:20:32Z</time>
      </trkpt>
      <trkpt lat="50.02282" lon="4.23016">
        <ele>290.8</ele>
        <time>2024-04-26T05:20:33Z</time>
      </trkpt>
      <trkpt lat="50.02288" lon="4.23014">
        <ele>291.2</ele>
        <time>2024-04-26T05:20:34Z</time>
      </trkpt>
      <trkpt lat="50.02294" lon="4.23011">
        <ele>291.2</ele>
        <time>2024-04-26T05:20:35Z</time>
      </trkpt>
      <trkpt lat="50.02301" lon="4.23009">
        <ele>291</ele>
        <time>2024-04-26T05:20:36Z</time>
      </trkpt>
      <trkpt lat="50.02307" lon="4.23006">
        <ele>291.2</ele>
        <time>2024-04-26T05:20:37Z</time>
      </trkpt>
      <trkpt lat="50.02314" lon="4.23004">
        <ele>291.2</ele>
        <time>2024-04-26T05:20:38Z</time>
      </trkpt>
      <trkpt lat="50.02321" lon="4.23001">
        <ele>291.2</ele>
        <time>2024-04-26T05:20:39Z</time>
      </trkpt>
      <trkpt lat="50.02326" lon="4.22999">
        <ele>291.4</ele>
        <time>2024-04-26T05:20:40Z</time>
      </trkpt>
      <trkpt lat="50.02332" lon="4.22996">
        <ele>291.2</ele>
        <time>2024-04-26T05:20:41Z</time>
      </trkpt>
      <trkpt lat="50.0234" lon="4.22994">
        <ele>291.2</ele>
        <time>2024-04-26T05:20:42Z</time>
      </trkpt>
      <trkpt lat="50.02347" lon="4.22991">
        <ele>291.2</ele>
        <time>2024-04-26T05:20:43Z</time>
      </trkpt>
      <trkpt lat="50.02354" lon="4.22989">
        <ele>291.2</ele>
        <time>2024-04-26T05:20:44Z</time>
      </trkpt>
      <trkpt lat="50.02362" lon="4.22987">
        <ele>291</ele>
        <time>2024-04-26T05:20:45Z</time>
      </trkpt>
      <trkpt lat="50.0237" lon="4.22984">
        <ele>291.2</ele>
        <time>2024-04-26T05:20:46Z</time>
      </trkpt>
      <trkpt lat="50.02377" lon="4.22981">
        <ele>291</ele>
        <time>2024-04-26T05:20:47Z</time>
      </trkpt>
      <trkpt lat="50.02385" lon="4.22979">
        <ele>291</ele>
        <time>2024-04-26T05:20:48Z</time>
      </trkpt>
      <trkpt lat="50.02392" lon="4.22976">
        <ele>290.8</ele>
        <time>2024-04-26T05:20:49Z</time>
      </trkpt>
      <trkpt lat="50.02399" lon="4.22973">
        <ele>290.6</ele>
        <time>2024-04-26T05:20:50Z</time>
      </trkpt>
      <trkpt lat="50.02406" lon="4.2297">
        <ele>290.4</ele>
        <time>2024-04-26T05:20:51Z</time>
      </trkpt>
      <trkpt lat="50.02412" lon="4.22967">
        <ele>290.2</ele>
        <time>2024-04-26T05:20:52Z</time>
      </trkpt>
      <trkpt lat="50.02419" lon="4.22965">
        <ele>289.4</ele>
        <time>2024-04-26T05:20:53Z</time>
      </trkpt>
      <trkpt lat="50.02425" lon="4.22962">
        <ele>289</ele>
        <time>2024-04-26T05:20:54Z</time>
      </trkpt>
      <trkpt lat="50.02432" lon="4.22959">
        <ele>288.6</ele>
        <time>2024-04-26T05:20:55Z</time>
      </trkpt>
      <trkpt lat="50.02441" lon="4.22956">
        <ele>288.6</ele>
        <time>2024-04-26T05:20:56Z</time>
      </trkpt>
      <trkpt lat="50.02447" lon="4.22953">
        <ele>288.4</ele>
        <time>2024-04-26T05:20:57Z</time>
      </trkpt>
      <trkpt lat="50.02454" lon="4.2295">
        <ele>288.4</ele>
        <time>2024-04-26T05:20:58Z</time>
      </trkpt>
      <trkpt lat="50.02462" lon="4.22947">
        <ele>288</ele>
        <time>2024-04-26T05:20:59Z</time>
      </trkpt>
      <trkpt lat="50.02469" lon="4.22944">
        <ele>287.8</ele>
        <time>2024-04-26T05:21:00Z</time>
      </trkpt>
      <trkpt lat="50.02476" lon="4.22941">
        <ele>287.6</ele>
        <time>2024-04-26T05:21:01Z</time>
      </trkpt>
      <trkpt lat="50.02483" lon="4.22937">
        <ele>287.4</ele>
        <time>2024-04-26T05:21:02Z</time>
      </trkpt>
      <trkpt lat="50.0249" lon="4.22934">
        <ele>287.2</ele>
        <time>2024-04-26T05:21:03Z</time>
      </trkpt>
      <trkpt lat="50.02499" lon="4.22931">
        <ele>287</ele>
        <time>2024-04-26T05:21:04Z</time>
      </trkpt>
      <trkpt lat="50.02506" lon="4.22927">
        <ele>287</ele>
        <time>2024-04-26T05:21:05Z</time>
      </trkpt>
      <trkpt lat="50.02515" lon="4.22925">
        <ele>286.8</ele>
        <time>2024-04-26T05:21:06Z</time>
      </trkpt>
      <trkpt lat="50.02525" lon="4.22922">
        <ele>286.8</ele>
        <time>2024-04-26T05:21:07Z</time>
      </trkpt>
      <trkpt lat="50.02533" lon="4.22919">
        <ele>286.8</ele>
        <time>2024-04-26T05:21:08Z</time>
      </trkpt>
      <trkpt lat="50.02542" lon="4.22915">
        <ele>286.6</ele>
        <time>2024-04-26T05:21:09Z</time>
      </trkpt>
      <trkpt lat="50.0255" lon="4.22912">
        <ele>286.4</ele>
        <time>2024-04-26T05:21:10Z</time>
      </trkpt>
      <trkpt lat="50.02558" lon="4.22909">
        <ele>286.4</ele>
        <time>2024-04-26T05:21:11Z</time>
      </trkpt>
      <trkpt lat="50.02566" lon="4.22906">
        <ele>286.2</ele>
        <time>2024-04-26T05:21:12Z</time>
      </trkpt>
      <trkpt lat="50.02574" lon="4.22903">
        <ele>286.2</ele>
        <time>2024-04-26T05:21:13Z</time>
      </trkpt>
      <trkpt lat="50.02582" lon="4.229">
        <ele>286.2</ele>
        <time>2024-04-26T05:21:14Z</time>
      </trkpt>
      <trkpt lat="50.0259" lon="4.22896">
        <ele>286.2</ele>
        <time>2024-04-26T05:21:15Z</time>
      </trkpt>
      <trkpt lat="50.02598" lon="4.22893">
        <ele>286</ele>
        <time>2024-04-26T05:21:16Z</time>
      </trkpt>
      <trkpt lat="50.02606" lon="4.22889">
        <ele>285.8</ele>
        <time>2024-04-26T05:21:17Z</time>
      </trkpt>
      <trkpt lat="50.02614" lon="4.22886">
        <ele>285.8</ele>
        <time>2024-04-26T05:21:18Z</time>
      </trkpt>
      <trkpt lat="50.02623" lon="4.22882">
        <ele>285.6</ele>
        <time>2024-04-26T05:21:19Z</time>
      </trkpt>
      <trkpt lat="50.02632" lon="4.22879">
        <ele>285.4</ele>
        <time>2024-04-26T05:21:20Z</time>
      </trkpt>
      <trkpt lat="50.02641" lon="4.22876">
        <ele>285.4</ele>
        <time>2024-04-26T05:21:21Z</time>
      </trkpt>
      <trkpt lat="50.0265" lon="4.22874">
        <ele>285</ele>
        <time>2024-04-26T05:21:22Z</time>
      </trkpt>
      <trkpt lat="50.02658" lon="4.2287">
        <ele>284.8</ele>
        <time>2024-04-26T05:21:23Z</time>
      </trkpt>
      <trkpt lat="50.02668" lon="4.22866">
        <ele>284.4</ele>
        <time>2024-04-26T05:21:24Z</time>
      </trkpt>
      <trkpt lat="50.02678" lon="4.22862">
        <ele>284.2</ele>
        <time>2024-04-26T05:21:25Z</time>
      </trkpt>
      <trkpt lat="50.02687" lon="4.22857">
        <ele>283.8</ele>
        <time>2024-04-26T05:21:26Z</time>
      </trkpt>
      <trkpt lat="50.02696" lon="4.22854">
        <ele>283.8</ele>
        <time>2024-04-26T05:21:27Z</time>
      </trkpt>
      <trkpt lat="50.02705" lon="4.22851">
        <ele>283.2</ele>
        <time>2024-04-26T05:21:28Z</time>
      </trkpt>
      <trkpt lat="50.02714" lon="4.22847">
        <ele>283</ele>
        <time>2024-04-26T05:21:29Z</time>
      </trkpt>
      <trkpt lat="50.02724" lon="4.22843">
        <ele>283</ele>
        <time>2024-04-26T05:21:30Z</time>
      </trkpt>
      <trkpt lat="50.02732" lon="4.22839">
        <ele>282.4</ele>
        <time>2024-04-26T05:21:31Z</time>
      </trkpt>
      <trkpt lat="50.02742" lon="4.22835">
        <ele>282</ele>
        <time>2024-04-26T05:21:32Z</time>
      </trkpt>
      <trkpt lat="50.02751" lon="4.22831">
        <ele>281.6</ele>
        <time>2024-04-26T05:21:33Z</time>
      </trkpt>
      <trkpt lat="50.0276" lon="4.22827">
        <ele>281.4</ele>
        <time>2024-04-26T05:21:34Z</time>
      </trkpt>
      <trkpt lat="50.02769" lon="4.22823">
        <ele>281.2</ele>
        <time>2024-04-26T05:21:35Z</time>
      </trkpt>
      <trkpt lat="50.02778" lon="4.22819">
        <ele>281</ele>
        <time>2024-04-26T05:21:36Z</time>
      </trkpt>
      <trkpt lat="50.02787" lon="4.22814">
        <ele>280.4</ele>
        <time>2024-04-26T05:21:37Z</time>
      </trkpt>
      <trkpt lat="50.02796" lon="4.2281">
        <ele>279.8</ele>
        <time>2024-04-26T05:21:38Z</time>
      </trkpt>
      <trkpt lat="50.02805" lon="4.22806">
        <ele>279.4</ele>
        <time>2024-04-26T05:21:39Z</time>
      </trkpt>
      <trkpt lat="50.02814" lon="4.22802">
        <ele>278.8</ele>
        <time>2024-04-26T05:21:40Z</time>
      </trkpt>
      <trkpt lat="50.02825" lon="4.22799">
        <ele>278.4</ele>
        <time>2024-04-26T05:21:41Z</time>
      </trkpt>
      <trkpt lat="50.02834" lon="4.22796">
        <ele>278</ele>
        <time>2024-04-26T05:21:42Z</time>
      </trkpt>
      <trkpt lat="50.02844" lon="4.22794">
        <ele>277.6</ele>
        <time>2024-04-26T05:21:43Z</time>
      </trkpt>
      <trkpt lat="50.02852" lon="4.2279">
        <ele>277.4</ele>
        <time>2024-04-26T05:21:44Z</time>
      </trkpt>
      <trkpt lat="50.0286" lon="4.22787">
        <ele>277.2</ele>
        <time>2024-04-26T05:21:45Z</time>
      </trkpt>
      <trkpt lat="50.02867" lon="4.22784">
        <ele>277.2</ele>
        <time>2024-04-26T05:21:46Z</time>
      </trkpt>
      <trkpt lat="50.02875" lon="4.22782">
        <ele>277.2</ele>
        <time>2024-04-26T05:21:47Z</time>
      </trkpt>
      <trkpt lat="50.02883" lon="4.22779">
        <ele>277.2</ele>
        <time>2024-04-26T05:21:48Z</time>
      </trkpt>
      <trkpt lat="50.0289" lon="4.22775">
        <ele>277.2</ele>
        <time>2024-04-26T05:21:49Z</time>
      </trkpt>
      <trkpt lat="50.02898" lon="4.22773">
        <ele>277.2</ele>
        <time>2024-04-26T05:21:50Z</time>
      </trkpt>
      <trkpt lat="50.02906" lon="4.22771">
        <ele>277.4</ele>
        <time>2024-04-26T05:21:51Z</time>
      </trkpt>
      <trkpt lat="50.02913" lon="4.22769">
        <ele>277.2</ele>
        <time>2024-04-26T05:21:52Z</time>
      </trkpt>
      <trkpt lat="50.0292" lon="4.22766">
        <ele>277</ele>
        <time>2024-04-26T05:21:53Z</time>
      </trkpt>
      <trkpt lat="50.02928" lon="4.22764">
        <ele>277.4</ele>
        <time>2024-04-26T05:21:54Z</time>
      </trkpt>
      <trkpt lat="50.02935" lon="4.22762">
        <ele>277.8</ele>
        <time>2024-04-26T05:21:55Z</time>
      </trkpt>
      <trkpt lat="50.02943" lon="4.2276">
        <ele>278.2</ele>
        <time>2024-04-26T05:21:56Z</time>
      </trkpt>
      <trkpt lat="50.0295" lon="4.22758">
        <ele>278.4</ele>
        <time>2024-04-26T05:21:57Z</time>
      </trkpt>
      <trkpt lat="50.02956" lon="4.22755">
        <ele>278.6</ele>
        <time>2024-04-26T05:21:58Z</time>
      </trkpt>
      <trkpt lat="50.02962" lon="4.22752">
        <ele>279</ele>
        <time>2024-04-26T05:21:59Z</time>
      </trkpt>
      <trkpt lat="50.02969" lon="4.2275">
        <ele>279.2</ele>
        <time>2024-04-26T05:22:00Z</time>
      </trkpt>
      <trkpt lat="50.02976" lon="4.22748">
        <ele>279.8</ele>
        <time>2024-04-26T05:22:01Z</time>
      </trkpt>
      <trkpt lat="50.02983" lon="4.22746">
        <ele>280</ele>
        <time>2024-04-26T05:22:02Z</time>
      </trkpt>
      <trkpt lat="50.0299" lon="4.22745">
        <ele>280.2</ele>
        <time>2024-04-26T05:22:03Z</time>
      </trkpt>
      <trkpt lat="50.02997" lon="4.22742">
        <ele>280.4</ele>
        <time>2024-04-26T05:22:04Z</time>
      </trkpt>
      <trkpt lat="50.03004" lon="4.22739">
        <ele>280.6</ele>
        <time>2024-04-26T05:22:05Z</time>
      </trkpt>
      <trkpt lat="50.03011" lon="4.22737">
        <ele>280.6</ele>
        <time>2024-04-26T05:22:06Z</time>
      </trkpt>
      <trkpt lat="50.03018" lon="4.22734">
        <ele>280.8</ele>
        <time>2024-04-26T05:22:07Z</time>
      </trkpt>
      <trkpt lat="50.03025" lon="4.22732">
        <ele>280.8</ele>
        <time>2024-04-26T05:22:08Z</time>
      </trkpt>
      <trkpt lat="50.03032" lon="4.2273">
        <ele>281</ele>
        <time>2024-04-26T05:22:09Z</time>
      </trkpt>
      <trkpt lat="50.03039" lon="4.22727">
        <ele>281</ele>
        <time>2024-04-26T05:22:10Z</time>
      </trkpt>
      <trkpt lat="50.03046" lon="4.22725">
        <ele>280.8</ele>
        <time>2024-04-26T05:22:11Z</time>
      </trkpt>
      <trkpt lat="50.03053" lon="4.22723">
        <ele>281</ele>
        <time>2024-04-26T05:22:12Z</time>
      </trkpt>
      <trkpt lat="50.0306" lon="4.2272">
        <ele>281.2</ele>
        <time>2024-04-26T05:22:13Z</time>
      </trkpt>
      <trkpt lat="50.03067" lon="4.22718">
        <ele>281.4</ele>
        <time>2024-04-26T05:22:14Z</time>
      </trkpt>
      <trkpt lat="50.03074" lon="4.22715">
        <ele>281.6</ele>
        <time>2024-04-26T05:22:15Z</time>
      </trkpt>
      <trkpt lat="50.0308" lon="4.22712">
        <ele>282</ele>
        <time>2024-04-26T05:22:16Z</time>
      </trkpt>
      <trkpt lat="50.03088" lon="4.22709">
        <ele>282.2</ele>
        <time>2024-04-26T05:22:17Z</time>
      </trkpt>
      <trkpt lat="50.03095" lon="4.22706">
        <ele>282.2</ele>
        <time>2024-04-26T05:22:18Z</time>
      </trkpt>
      <trkpt lat="50.03102" lon="4.22703">
        <ele>282.2</ele>
        <time>2024-04-26T05:22:19Z</time>
      </trkpt>
      <trkpt lat="50.0311" lon="4.22701">
        <ele>282.4</ele>
        <time>2024-04-26T05:22:20Z</time>
      </trkpt>
      <trkpt lat="50.03117" lon="4.22698">
        <ele>282.4</ele>
        <time>2024-04-26T05:22:21Z</time>
      </trkpt>
      <trkpt lat="50.03124" lon="4.22695">
        <ele>282.2</ele>
        <time>2024-04-26T05:22:22Z</time>
      </trkpt>
      <trkpt lat="50.03132" lon="4.22692">
        <ele>282.4</ele>
        <time>2024-04-26T05:22:23Z</time>
      </trkpt>
      <trkpt lat="50.0314" lon="4.22688">
        <ele>282.2</ele>
        <time>2024-04-26T05:22:24Z</time>
      </trkpt>
      <trkpt lat="50.03149" lon="4.22684">
        <ele>282.2</ele>
        <time>2024-04-26T05:22:25Z</time>
      </trkpt>
      <trkpt lat="50.03157" lon="4.22678">
        <ele>282.4</ele>
        <time>2024-04-26T05:22:26Z</time>
      </trkpt>
      <trkpt lat="50.03164" lon="4.22672">
        <ele>282.2</ele>
        <time>2024-04-26T05:22:27Z</time>
      </trkpt>
      <trkpt lat="50.03171" lon="4.22666">
        <ele>282.4</ele>
        <time>2024-04-26T05:22:28Z</time>
      </trkpt>
      <trkpt lat="50.03178" lon="4.22658">
        <ele>281.6</ele>
        <time>2024-04-26T05:22:29Z</time>
      </trkpt>
      <trkpt lat="50.03185" lon="4.2265">
        <ele>281.4</ele>
        <time>2024-04-26T05:22:30Z</time>
      </trkpt>
      <trkpt lat="50.03192" lon="4.22642">
        <ele>281.2</ele>
        <time>2024-04-26T05:22:31Z</time>
      </trkpt>
      <trkpt lat="50.03199" lon="4.22635">
        <ele>281</ele>
        <time>2024-04-26T05:22:32Z</time>
      </trkpt>
      <trkpt lat="50.03206" lon="4.22626">
        <ele>281</ele>
        <time>2024-04-26T05:22:33Z</time>
      </trkpt>
      <trkpt lat="50.03213" lon="4.22618">
        <ele>280.8</ele>
        <time>2024-04-26T05:22:34Z</time>
      </trkpt>
      <trkpt lat="50.0322" lon="4.22609">
        <ele>280.2</ele>
        <time>2024-04-26T05:22:35Z</time>
      </trkpt>
      <trkpt lat="50.03226" lon="4.22601">
        <ele>279.8</ele>
        <time>2024-04-26T05:22:36Z</time>
      </trkpt>
      <trkpt lat="50.03233" lon="4.22593">
        <ele>279.4</ele>
        <time>2024-04-26T05:22:37Z</time>
      </trkpt>
      <trkpt lat="50.03241" lon="4.22584">
        <ele>279.2</ele>
        <time>2024-04-26T05:22:38Z</time>
      </trkpt>
      <trkpt lat="50.03248" lon="4.22577">
        <ele>278.6</ele>
        <time>2024-04-26T05:22:39Z</time>
      </trkpt>
      <trkpt lat="50.03254" lon="4.22569">
        <ele>278.4</ele>
        <time>2024-04-26T05:22:40Z</time>
      </trkpt>
      <trkpt lat="50.03261" lon="4.2256">
        <ele>278.4</ele>
        <time>2024-04-26T05:22:41Z</time>
      </trkpt>
      <trkpt lat="50.03268" lon="4.22552">
        <ele>278</ele>
        <time>2024-04-26T05:22:42Z</time>
      </trkpt>
      <trkpt lat="50.03275" lon="4.22543">
        <ele>278</ele>
        <time>2024-04-26T05:22:43Z</time>
      </trkpt>
      <trkpt lat="50.03283" lon="4.22535">
        <ele>277.6</ele>
        <time>2024-04-26T05:22:44Z</time>
      </trkpt>
      <trkpt lat="50.0329" lon="4.22526">
        <ele>277</ele>
        <time>2024-04-26T05:22:45Z</time>
      </trkpt>
      <trkpt lat="50.03298" lon="4.22517">
        <ele>276.8</ele>
        <time>2024-04-26T05:22:46Z</time>
      </trkpt>
      <trkpt lat="50.03306" lon="4.22508">
        <ele>276.6</ele>
        <time>2024-04-26T05:22:47Z</time>
      </trkpt>
      <trkpt lat="50.03315" lon="4.225">
        <ele>276.2</ele>
        <time>2024-04-26T05:22:48Z</time>
      </trkpt>
      <trkpt lat="50.03324" lon="4.22494">
        <ele>275.8</ele>
        <time>2024-04-26T05:22:49Z</time>
      </trkpt>
      <trkpt lat="50.03334" lon="4.2249">
        <ele>275.8</ele>
        <time>2024-04-26T05:22:50Z</time>
      </trkpt>
      <trkpt lat="50.03344" lon="4.22488">
        <ele>275.8</ele>
        <time>2024-04-26T05:22:51Z</time>
      </trkpt>
      <trkpt lat="50.03355" lon="4.22488">
        <ele>275.4</ele>
        <time>2024-04-26T05:22:52Z</time>
      </trkpt>
      <trkpt lat="50.03365" lon="4.22487">
        <ele>275.2</ele>
        <time>2024-04-26T05:22:53Z</time>
      </trkpt>
      <trkpt lat="50.03376" lon="4.22487">
        <ele>274.8</ele>
        <time>2024-04-26T05:22:54Z</time>
      </trkpt>
      <trkpt lat="50.03386" lon="4.22487">
        <ele>274.2</ele>
        <time>2024-04-26T05:22:55Z</time>
      </trkpt>
      <trkpt lat="50.03397" lon="4.22487">
        <ele>274.2</ele>
        <time>2024-04-26T05:22:56Z</time>
      </trkpt>
      <trkpt lat="50.03408" lon="4.22487">
        <ele>273.2</ele>
        <time>2024-04-26T05:22:57Z</time>
      </trkpt>
      <trkpt lat="50.03418" lon="4.22487">
        <ele>272.4</ele>
        <time>2024-04-26T05:22:58Z</time>
      </trkpt>
      <trkpt lat="50.03429" lon="4.22487">
        <ele>272</ele>
        <time>2024-04-26T05:22:59Z</time>
      </trkpt>
      <trkpt lat="50.03439" lon="4.22487">
        <ele>271</ele>
        <time>2024-04-26T05:23:00Z</time>
      </trkpt>
      <trkpt lat="50.0345" lon="4.22487">
        <ele>270.4</ele>
        <time>2024-04-26T05:23:01Z</time>
      </trkpt>
      <trkpt lat="50.0346" lon="4.22486">
        <ele>269.2</ele>
        <time>2024-04-26T05:23:02Z</time>
      </trkpt>
      <trkpt lat="50.03471" lon="4.22485">
        <ele>268.4</ele>
        <time>2024-04-26T05:23:03Z</time>
      </trkpt>
      <trkpt lat="50.03482" lon="4.22481">
        <ele>268</ele>
        <time>2024-04-26T05:23:04Z</time>
      </trkpt>
      <trkpt lat="50.03493" lon="4.22476">
        <ele>268</ele>
        <time>2024-04-26T05:23:05Z</time>
      </trkpt>
      <trkpt lat="50.03503" lon="4.22469">
        <ele>267.4</ele>
        <time>2024-04-26T05:23:06Z</time>
      </trkpt>
      <trkpt lat="50.03513" lon="4.22459">
        <ele>267</ele>
        <time>2024-04-26T05:23:07Z</time>
      </trkpt>
      <trkpt lat="50.03521" lon="4.22448">
        <ele>266.8</ele>
        <time>2024-04-26T05:23:08Z</time>
      </trkpt>
      <trkpt lat="50.03528" lon="4.22436">
        <ele>266.6</ele>
        <time>2024-04-26T05:23:09Z</time>
      </trkpt>
      <trkpt lat="50.03536" lon="4.22423">
        <ele>266.4</ele>
        <time>2024-04-26T05:23:10Z</time>
      </trkpt>
      <trkpt lat="50.03544" lon="4.22411">
        <ele>266.2</ele>
        <time>2024-04-26T05:23:11Z</time>
      </trkpt>
      <trkpt lat="50.03552" lon="4.22401">
        <ele>265.6</ele>
        <time>2024-04-26T05:23:12Z</time>
      </trkpt>
      <trkpt lat="50.0356" lon="4.22393">
        <ele>264.4</ele>
        <time>2024-04-26T05:23:13Z</time>
      </trkpt>
      <trkpt lat="50.03568" lon="4.22387">
        <ele>263.6</ele>
        <time>2024-04-26T05:23:14Z</time>
      </trkpt>
      <trkpt lat="50.03576" lon="4.22387">
        <ele>262.4</ele>
        <time>2024-04-26T05:23:15Z</time>
      </trkpt>
      <trkpt lat="50.03585" lon="4.22391">
        <ele>261.6</ele>
        <time>2024-04-26T05:23:16Z</time>
      </trkpt>
      <trkpt lat="50.03593" lon="4.22397">
        <ele>260.8</ele>
        <time>2024-04-26T05:23:17Z</time>
      </trkpt>
      <trkpt lat="50.03601" lon="4.22405">
        <ele>260.8</ele>
        <time>2024-04-26T05:23:18Z</time>
      </trkpt>
      <trkpt lat="50.03609" lon="4.22412">
        <ele>259.4</ele>
        <time>2024-04-26T05:23:19Z</time>
      </trkpt>
      <trkpt lat="50.03618" lon="4.22418">
        <ele>258.8</ele>
        <time>2024-04-26T05:23:20Z</time>
      </trkpt>
      <trkpt lat="50.03627" lon="4.22422">
        <ele>258.2</ele>
        <time>2024-04-26T05:23:21Z</time>
      </trkpt>
      <trkpt lat="50.03636" lon="4.22422">
        <ele>258.2</ele>
        <time>2024-04-26T05:23:22Z</time>
      </trkpt>
      <trkpt lat="50.03644" lon="4.22418">
        <ele>258</ele>
        <time>2024-04-26T05:23:23Z</time>
      </trkpt>
      <trkpt lat="50.03653" lon="4.2241">
        <ele>257.8</ele>
        <time>2024-04-26T05:23:24Z</time>
      </trkpt>
      <trkpt lat="50.0366" lon="4.224">
        <ele>257.2</ele>
        <time>2024-04-26T05:23:25Z</time>
      </trkpt>
      <trkpt lat="50.03667" lon="4.2239">
        <ele>256.8</ele>
        <time>2024-04-26T05:23:26Z</time>
      </trkpt>
      <trkpt lat="50.03674" lon="4.22381">
        <ele>256.6</ele>
        <time>2024-04-26T05:23:27Z</time>
      </trkpt>
      <trkpt lat="50.03681" lon="4.22371">
        <ele>256.4</ele>
        <time>2024-04-26T05:23:28Z</time>
      </trkpt>
      <trkpt lat="50.03689" lon="4.22362">
        <ele>256.2</ele>
        <time>2024-04-26T05:23:29Z</time>
      </trkpt>
      <trkpt lat="50.03696" lon="4.22354">
        <ele>256.2</ele>
        <time>2024-04-26T05:23:30Z</time>
      </trkpt>
      <trkpt lat="50.03705" lon="4.22346">
        <ele>256.4</ele>
        <time>2024-04-26T05:23:31Z</time>
      </trkpt>
      <trkpt lat="50.03713" lon="4.22339">
        <ele>256.2</ele>
        <time>2024-04-26T05:23:32Z</time>
      </trkpt>
      <trkpt lat="50.03721" lon="4.22332">
        <ele>255.8</ele>
        <time>2024-04-26T05:23:33Z</time>
      </trkpt>
      <trkpt lat="50.0373" lon="4.22326">
        <ele>255.6</ele>
        <time>2024-04-26T05:23:34Z</time>
      </trkpt>
      <trkpt lat="50.03739" lon="4.22321">
        <ele>255</ele>
        <time>2024-04-26T05:23:35Z</time>
      </trkpt>
      <trkpt lat="50.03748" lon="4.22316">
        <ele>254.8</ele>
        <time>2024-04-26T05:23:36Z</time>
      </trkpt>
      <trkpt lat="50.03757" lon="4.22311">
        <ele>254.4</ele>
        <time>2024-04-26T05:23:37Z</time>
      </trkpt>
      <trkpt lat="50.03765" lon="4.22305">
        <ele>254.2</ele>
        <time>2024-04-26T05:23:38Z</time>
      </trkpt>
      <trkpt lat="50.03772" lon="4.22298">
        <ele>254</ele>
        <time>2024-04-26T05:23:39Z</time>
      </trkpt>
      <trkpt lat="50.03779" lon="4.22289">
        <ele>254</ele>
        <time>2024-04-26T05:23:40Z</time>
      </trkpt>
      <trkpt lat="50.03784" lon="4.22279">
        <ele>254</ele>
        <time>2024-04-26T05:23:41Z</time>
      </trkpt>
      <trkpt lat="50.03787" lon="4.22269">
        <ele>253.8</ele>
        <time>2024-04-26T05:23:42Z</time>
      </trkpt>
      <trkpt lat="50.0379" lon="4.22259">
        <ele>254</ele>
        <time>2024-04-26T05:23:43Z</time>
      </trkpt>
      <trkpt lat="50.03792" lon="4.22248">
        <ele>253.8</ele>
        <time>2024-04-26T05:23:44Z</time>
      </trkpt>
      <trkpt lat="50.03793" lon="4.22238">
        <ele>253.8</ele>
        <time>2024-04-26T05:23:45Z</time>
      </trkpt>
      <trkpt lat="50.03794" lon="4.22229">
        <ele>254</ele>
        <time>2024-04-26T05:23:46Z</time>
      </trkpt>
      <trkpt lat="50.03796" lon="4.22219">
        <ele>253.8</ele>
        <time>2024-04-26T05:23:47Z</time>
      </trkpt>
      <trkpt lat="50.03797" lon="4.2221">
        <ele>254</ele>
        <time>2024-04-26T05:23:48Z</time>
      </trkpt>
      <trkpt lat="50.03798" lon="4.22202">
        <ele>254.2</ele>
        <time>2024-04-26T05:23:49Z</time>
      </trkpt>
      <trkpt lat="50.03799" lon="4.22193">
        <ele>254.4</ele>
        <time>2024-04-26T05:23:50Z</time>
      </trkpt>
      <trkpt lat="50.03801" lon="4.22185">
        <ele>254.6</ele>
        <time>2024-04-26T05:23:51Z</time>
      </trkpt>
      <trkpt lat="50.03803" lon="4.22177">
        <ele>255</ele>
        <time>2024-04-26T05:23:52Z</time>
      </trkpt>
      <trkpt lat="50.03805" lon="4.22169">
        <ele>255.6</ele>
        <time>2024-04-26T05:23:53Z</time>
      </trkpt>
      <trkpt lat="50.03807" lon="4.22162">
        <ele>256.4</ele>
        <time>2024-04-26T05:23:54Z</time>
      </trkpt>
      <trkpt lat="50.0381" lon="4.22155">
        <ele>256.8</ele>
        <time>2024-04-26T05:23:55Z</time>
      </trkpt>
      <trkpt lat="50.03812" lon="4.22147">
        <ele>257</ele>
        <time>2024-04-26T05:23:56Z</time>
      </trkpt>
      <trkpt lat="50.03814" lon="4.2214">
        <ele>257.2</ele>
        <time>2024-04-26T05:23:57Z</time>
      </trkpt>
      <trkpt lat="50.03816" lon="4.22132">
        <ele>257.4</ele>
        <time>2024-04-26T05:23:58Z</time>
      </trkpt>
      <trkpt lat="50.03819" lon="4.22125">
        <ele>258</ele>
        <time>2024-04-26T05:23:59Z</time>
      </trkpt>
      <trkpt lat="50.03821" lon="4.22117">
        <ele>258.6</ele>
        <time>2024-04-26T05:24:00Z</time>
      </trkpt>
      <trkpt lat="50.03822" lon="4.22109">
        <ele>259</ele>
        <time>2024-04-26T05:24:01Z</time>
      </trkpt>
      <trkpt lat="50.03824" lon="4.22101">
        <ele>259</ele>
        <time>2024-04-26T05:24:02Z</time>
      </trkpt>
      <trkpt lat="50.03826" lon="4.22093">
        <ele>259.6</ele>
        <time>2024-04-26T05:24:03Z</time>
      </trkpt>
      <trkpt lat="50.03827" lon="4.22084">
        <ele>260</ele>
        <time>2024-04-26T05:24:04Z</time>
      </trkpt>
      <trkpt lat="50.03829" lon="4.22076">
        <ele>260.6</ele>
        <time>2024-04-26T05:24:05Z</time>
      </trkpt>
      <trkpt lat="50.0383" lon="4.22068">
        <ele>261</ele>
        <time>2024-04-26T05:24:06Z</time>
      </trkpt>
      <trkpt lat="50.03832" lon="4.2206">
        <ele>261.4</ele>
        <time>2024-04-26T05:24:07Z</time>
      </trkpt>
      <trkpt lat="50.03833" lon="4.22052">
        <ele>262.2</ele>
        <time>2024-04-26T05:24:08Z</time>
      </trkpt>
      <trkpt lat="50.03834" lon="4.22044">
        <ele>262.6</ele>
        <time>2024-04-26T05:24:09Z</time>
      </trkpt>
      <trkpt lat="50.03836" lon="4.22036">
        <ele>262.8</ele>
        <time>2024-04-26T05:24:10Z</time>
      </trkpt>
      <trkpt lat="50.03837" lon="4.22028">
        <ele>263</ele>
        <time>2024-04-26T05:24:11Z</time>
      </trkpt>
      <trkpt lat="50.03839" lon="4.2202">
        <ele>263.2</ele>
        <time>2024-04-26T05:24:12Z</time>
      </trkpt>
      <trkpt lat="50.0384" lon="4.22012">
        <ele>263.2</ele>
        <time>2024-04-26T05:24:13Z</time>
      </trkpt>
      <trkpt lat="50.03841" lon="4.22005">
        <ele>263.6</ele>
        <time>2024-04-26T05:24:14Z</time>
      </trkpt>
      <trkpt lat="50.03843" lon="4.21997">
        <ele>263.8</ele>
        <time>2024-04-26T05:24:15Z</time>
      </trkpt>
      <trkpt lat="50.03844" lon="4.21989">
        <ele>263.8</ele>
        <time>2024-04-26T05:24:16Z</time>
      </trkpt>
      <trkpt lat="50.03845" lon="4.21981">
        <ele>264.4</ele>
        <time>2024-04-26T05:24:17Z</time>
      </trkpt>
      <trkpt lat="50.03847" lon="4.21973">
        <ele>264.6</ele>
        <time>2024-04-26T05:24:18Z</time>
      </trkpt>
      <trkpt lat="50.03848" lon="4.21965">
        <ele>265</ele>
        <time>2024-04-26T05:24:19Z</time>
      </trkpt>
      <trkpt lat="50.0385" lon="4.21957">
        <ele>265.4</ele>
        <time>2024-04-26T05:24:20Z</time>
      </trkpt>
      <trkpt lat="50.03852" lon="4.21949">
        <ele>265.8</ele>
        <time>2024-04-26T05:24:21Z</time>
      </trkpt>
      <trkpt lat="50.03853" lon="4.2194">
        <ele>266.2</ele>
        <time>2024-04-26T05:24:22Z</time>
      </trkpt>
      <trkpt lat="50.03855" lon="4.21932">
        <ele>266.2</ele>
        <time>2024-04-26T05:24:23Z</time>
      </trkpt>
      <trkpt lat="50.03856" lon="4.21924">
        <ele>266.6</ele>
        <time>2024-04-26T05:24:24Z</time>
      </trkpt>
      <trkpt lat="50.03857" lon="4.21915">
        <ele>267.6</ele>
        <time>2024-04-26T05:24:25Z</time>
      </trkpt>
      <trkpt lat="50.03859" lon="4.21907">
        <ele>268.2</ele>
        <time>2024-04-26T05:24:26Z</time>
      </trkpt>
      <trkpt lat="50.0386" lon="4.21898">
        <ele>268.6</ele>
        <time>2024-04-26T05:24:27Z</time>
      </trkpt>
      <trkpt lat="50.03862" lon="4.2189">
        <ele>269</ele>
        <time>2024-04-26T05:24:28Z</time>
      </trkpt>
      <trkpt lat="50.03863" lon="4.21881">
        <ele>269.2</ele>
        <time>2024-04-26T05:24:29Z</time>
      </trkpt>
      <trkpt lat="50.03865" lon="4.21872">
        <ele>269.6</ele>
        <time>2024-04-26T05:24:30Z</time>
      </trkpt>
      <trkpt lat="50.03866" lon="4.21864">
        <ele>269.8</ele>
        <time>2024-04-26T05:24:31Z</time>
      </trkpt>
      <trkpt lat="50.03868" lon="4.21854">
        <ele>269.8</ele>
        <time>2024-04-26T05:24:32Z</time>
      </trkpt>
      <trkpt lat="50.03869" lon="4.21845">
        <ele>270</ele>
        <time>2024-04-26T05:24:33Z</time>
      </trkpt>
      <trkpt lat="50.03871" lon="4.21836">
        <ele>270.2</ele>
        <time>2024-04-26T05:24:34Z</time>
      </trkpt>
      <trkpt lat="50.03873" lon="4.21827">
        <ele>270.2</ele>
        <time>2024-04-26T05:24:35Z</time>
      </trkpt>
      <trkpt lat="50.03874" lon="4.21817">
        <ele>270.4</ele>
        <time>2024-04-26T05:24:36Z</time>
      </trkpt>
      <trkpt lat="50.03877" lon="4.21808">
        <ele>270.6</ele>
        <time>2024-04-26T05:24:37Z</time>
      </trkpt>
      <trkpt lat="50.03879" lon="4.21798">
        <ele>270.4</ele>
        <time>2024-04-26T05:24:38Z</time>
      </trkpt>
      <trkpt lat="50.03882" lon="4.21788">
        <ele>270.6</ele>
        <time>2024-04-26T05:24:39Z</time>
      </trkpt>
      <trkpt lat="50.03885" lon="4.21779">
        <ele>270.6</ele>
        <time>2024-04-26T05:24:40Z</time>
      </trkpt>
      <trkpt lat="50.03889" lon="4.21769">
        <ele>270.8</ele>
        <time>2024-04-26T05:24:41Z</time>
      </trkpt>
      <trkpt lat="50.03893" lon="4.2176">
        <ele>270.8</ele>
        <time>2024-04-26T05:24:42Z</time>
      </trkpt>
      <trkpt lat="50.03897" lon="4.21752">
        <ele>270.8</ele>
        <time>2024-04-26T05:24:43Z</time>
      </trkpt>
      <trkpt lat="50.03902" lon="4.21743">
        <ele>270.8</ele>
        <time>2024-04-26T05:24:44Z</time>
      </trkpt>
      <trkpt lat="50.03907" lon="4.21735">
        <ele>270.6</ele>
        <time>2024-04-26T05:24:45Z</time>
      </trkpt>
      <trkpt lat="50.03911" lon="4.21726">
        <ele>270.8</ele>
        <time>2024-04-26T05:24:46Z</time>
      </trkpt>
      <trkpt lat="50.03916" lon="4.21718">
        <ele>270.6</ele>
        <time>2024-04-26T05:24:47Z</time>
      </trkpt>
      <trkpt lat="50.03921" lon="4.2171">
        <ele>270.6</ele>
        <time>2024-04-26T05:24:48Z</time>
      </trkpt>
      <trkpt lat="50.03926" lon="4.21702">
        <ele>270.4</ele>
        <time>2024-04-26T05:24:49Z</time>
      </trkpt>
      <trkpt lat="50.03931" lon="4.21694">
        <ele>270.2</ele>
        <time>2024-04-26T05:24:50Z</time>
      </trkpt>
      <trkpt lat="50.03936" lon="4.21686">
        <ele>270</ele>
        <time>2024-04-26T05:24:51Z</time>
      </trkpt>
      <trkpt lat="50.03941" lon="4.21678">
        <ele>270</ele>
        <time>2024-04-26T05:24:52Z</time>
      </trkpt>
      <trkpt lat="50.03947" lon="4.21671">
        <ele>269.8</ele>
        <time>2024-04-26T05:24:53Z</time>
      </trkpt>
      <trkpt lat="50.03953" lon="4.21664">
        <ele>269.8</ele>
        <time>2024-04-26T05:24:54Z</time>
      </trkpt>
      <trkpt lat="50.03959" lon="4.21658">
        <ele>269.8</ele>
        <time>2024-04-26T05:24:55Z</time>
      </trkpt>
      <trkpt lat="50.03965" lon="4.21654">
        <ele>269.6</ele>
        <time>2024-04-26T05:24:56Z</time>
      </trkpt>
      <trkpt lat="50.03973" lon="4.21653">
        <ele>269.2</ele>
        <time>2024-04-26T05:24:57Z</time>
      </trkpt>
      <trkpt lat="50.0398" lon="4.21652">
        <ele>269.2</ele>
        <time>2024-04-26T05:24:58Z</time>
      </trkpt>
      <trkpt lat="50.03988" lon="4.21652">
        <ele>269</ele>
        <time>2024-04-26T05:24:59Z</time>
      </trkpt>
      <trkpt lat="50.03995" lon="4.21652">
        <ele>269</ele>
        <time>2024-04-26T05:25:00Z</time>
      </trkpt>
      <trkpt lat="50.04003" lon="4.21652">
        <ele>268.8</ele>
        <time>2024-04-26T05:25:01Z</time>
      </trkpt>
      <trkpt lat="50.04011" lon="4.21651">
        <ele>268.8</ele>
        <time>2024-04-26T05:25:02Z</time>
      </trkpt>
      <trkpt lat="50.04019" lon="4.21649">
        <ele>268.6</ele>
        <time>2024-04-26T05:25:03Z</time>
      </trkpt>
      <trkpt lat="50.04026" lon="4.21645">
        <ele>267.8</ele>
        <time>2024-04-26T05:25:04Z</time>
      </trkpt>
      <trkpt lat="50.04033" lon="4.21638">
        <ele>267.6</ele>
        <time>2024-04-26T05:25:05Z</time>
      </trkpt>
      <trkpt lat="50.04039" lon="4.21629">
        <ele>267.6</ele>
        <time>2024-04-26T05:25:06Z</time>
      </trkpt>
      <trkpt lat="50.04045" lon="4.2162">
        <ele>267.2</ele>
        <time>2024-04-26T05:25:07Z</time>
      </trkpt>
      <trkpt lat="50.0405" lon="4.2161">
        <ele>267.2</ele>
        <time>2024-04-26T05:25:08Z</time>
      </trkpt>
      <trkpt lat="50.04056" lon="4.216">
        <ele>267</ele>
        <time>2024-04-26T05:25:09Z</time>
      </trkpt>
      <trkpt lat="50.04062" lon="4.21591">
        <ele>267</ele>
        <time>2024-04-26T05:25:10Z</time>
      </trkpt>
      <trkpt lat="50.04068" lon="4.21582">
        <ele>267</ele>
        <time>2024-04-26T05:25:11Z</time>
      </trkpt>
      <trkpt lat="50.04075" lon="4.21574">
        <ele>266.8</ele>
        <time>2024-04-26T05:25:12Z</time>
      </trkpt>
      <trkpt lat="50.04083" lon="4.21567">
        <ele>266.6</ele>
        <time>2024-04-26T05:25:13Z</time>
      </trkpt>
      <trkpt lat="50.04091" lon="4.21562">
        <ele>266.2</ele>
        <time>2024-04-26T05:25:14Z</time>
      </trkpt>
      <trkpt lat="50.041" lon="4.21558">
        <ele>266.2</ele>
        <time>2024-04-26T05:25:15Z</time>
      </trkpt>
      <trkpt lat="50.04109" lon="4.21556">
        <ele>266</ele>
        <time>2024-04-26T05:25:16Z</time>
      </trkpt>
      <trkpt lat="50.04119" lon="4.21556">
        <ele>265.6</ele>
        <time>2024-04-26T05:25:17Z</time>
      </trkpt>
      <trkpt lat="50.04129" lon="4.21555">
        <ele>265.4</ele>
        <time>2024-04-26T05:25:18Z</time>
      </trkpt>
      <trkpt lat="50.04139" lon="4.21555">
        <ele>265</ele>
        <time>2024-04-26T05:25:19Z</time>
      </trkpt>
      <trkpt lat="50.0415" lon="4.21555">
        <ele>265</ele>
        <time>2024-04-26T05:25:20Z</time>
      </trkpt>
      <trkpt lat="50.04162" lon="4.21555">
        <ele>264.6</ele>
        <time>2024-04-26T05:25:21Z</time>
      </trkpt>
      <trkpt lat="50.04174" lon="4.21555">
        <ele>264.6</ele>
        <time>2024-04-26T05:25:22Z</time>
      </trkpt>
      <trkpt lat="50.04186" lon="4.21555">
        <ele>264.2</ele>
        <time>2024-04-26T05:25:23Z</time>
      </trkpt>
      <trkpt lat="50.04198" lon="4.21556">
        <ele>264</ele>
        <time>2024-04-26T05:25:24Z</time>
      </trkpt>
      <trkpt lat="50.04211" lon="4.21556">
        <ele>263.2</ele>
        <time>2024-04-26T05:25:25Z</time>
      </trkpt>
      <trkpt lat="50.04223" lon="4.21556">
        <ele>262.4</ele>
        <time>2024-04-26T05:25:26Z</time>
      </trkpt>
      <trkpt lat="50.04236" lon="4.21557">
        <ele>261.2</ele>
        <time>2024-04-26T05:25:27Z</time>
      </trkpt>
      <trkpt lat="50.04249" lon="4.21558">
        <ele>261.2</ele>
        <time>2024-04-26T05:25:28Z</time>
      </trkpt>
      <trkpt lat="50.04262" lon="4.21558">
        <ele>260.6</ele>
        <time>2024-04-26T05:25:29Z</time>
      </trkpt>
      <trkpt lat="50.04276" lon="4.21558">
        <ele>259.4</ele>
        <time>2024-04-26T05:25:30Z</time>
      </trkpt>
      <trkpt lat="50.04289" lon="4.21557">
        <ele>258.4</ele>
        <time>2024-04-26T05:25:31Z</time>
      </trkpt>
      <trkpt lat="50.04302" lon="4.21553">
        <ele>257.6</ele>
        <time>2024-04-26T05:25:32Z</time>
      </trkpt>
      <trkpt lat="50.04315" lon="4.21545">
        <ele>256.4</ele>
        <time>2024-04-26T05:25:33Z</time>
      </trkpt>
      <trkpt lat="50.04326" lon="4.21534">
        <ele>254.8</ele>
        <time>2024-04-26T05:25:34Z</time>
      </trkpt>
      <trkpt lat="50.04337" lon="4.2152">
        <ele>253.8</ele>
        <time>2024-04-26T05:25:35Z</time>
      </trkpt>
      <trkpt lat="50.04346" lon="4.21504">
        <ele>253</ele>
        <time>2024-04-26T05:25:36Z</time>
      </trkpt>
      <trkpt lat="50.04356" lon="4.21488">
        <ele>252</ele>
        <time>2024-04-26T05:25:37Z</time>
      </trkpt>
      <trkpt lat="50.04366" lon="4.2147">
        <ele>251</ele>
        <time>2024-04-26T05:25:38Z</time>
      </trkpt>
      <trkpt lat="50.04375" lon="4.21452">
        <ele>249.8</ele>
        <time>2024-04-26T05:25:39Z</time>
      </trkpt>
      <trkpt lat="50.04384" lon="4.21433">
        <ele>249.6</ele>
        <time>2024-04-26T05:25:40Z</time>
      </trkpt>
      <trkpt lat="50.04393" lon="4.21415">
        <ele>249.2</ele>
        <time>2024-04-26T05:25:41Z</time>
      </trkpt>
      <trkpt lat="50.04401" lon="4.21395">
        <ele>248.6</ele>
        <time>2024-04-26T05:25:42Z</time>
      </trkpt>
      <trkpt lat="50.04409" lon="4.21376">
        <ele>246.8</ele>
        <time>2024-04-26T05:25:43Z</time>
      </trkpt>
      <trkpt lat="50.04416" lon="4.21356">
        <ele>245.4</ele>
        <time>2024-04-26T05:25:44Z</time>
      </trkpt>
      <trkpt lat="50.04424" lon="4.21337">
        <ele>243.6</ele>
        <time>2024-04-26T05:25:45Z</time>
      </trkpt>
      <trkpt lat="50.04431" lon="4.21318">
        <ele>242.6</ele>
        <time>2024-04-26T05:25:46Z</time>
      </trkpt>
      <trkpt lat="50.04439" lon="4.21301">
        <ele>241</ele>
        <time>2024-04-26T05:25:47Z</time>
      </trkpt>
      <trkpt lat="50.04447" lon="4.21283">
        <ele>239.6</ele>
        <time>2024-04-26T05:25:48Z</time>
      </trkpt>
      <trkpt lat="50.04455" lon="4.21267">
        <ele>239.6</ele>
        <time>2024-04-26T05:25:49Z</time>
      </trkpt>
      <trkpt lat="50.04463" lon="4.21251">
        <ele>237.4</ele>
        <time>2024-04-26T05:25:50Z</time>
      </trkpt>
      <trkpt lat="50.04472" lon="4.21236">
        <ele>235.4</ele>
        <time>2024-04-26T05:25:51Z</time>
      </trkpt>
      <trkpt lat="50.04481" lon="4.21222">
        <ele>233.4</ele>
        <time>2024-04-26T05:25:52Z</time>
      </trkpt>
      <trkpt lat="50.0449" lon="4.21209">
        <ele>231.8</ele>
        <time>2024-04-26T05:25:53Z</time>
      </trkpt>
      <trkpt lat="50.04499" lon="4.21197">
        <ele>230.8</ele>
        <time>2024-04-26T05:25:54Z</time>
      </trkpt>
      <trkpt lat="50.04509" lon="4.21185">
        <ele>230.6</ele>
        <time>2024-04-26T05:25:55Z</time>
      </trkpt>
      <trkpt lat="50.04518" lon="4.21174">
        <ele>230</ele>
        <time>2024-04-26T05:25:56Z</time>
      </trkpt>
      <trkpt lat="50.04527" lon="4.21165">
        <ele>229.8</ele>
        <time>2024-04-26T05:25:57Z</time>
      </trkpt>
      <trkpt lat="50.04537" lon="4.21156">
        <ele>229.6</ele>
        <time>2024-04-26T05:25:58Z</time>
      </trkpt>
      <trkpt lat="50.04547" lon="4.21148">
        <ele>229.8</ele>
        <time>2024-04-26T05:25:59Z</time>
      </trkpt>
      <trkpt lat="50.04556" lon="4.21141">
        <ele>229.4</ele>
        <time>2024-04-26T05:26:00Z</time>
      </trkpt>
      <trkpt lat="50.04566" lon="4.21133">
        <ele>229.4</ele>
        <time>2024-04-26T05:26:01Z</time>
      </trkpt>
      <trkpt lat="50.04576" lon="4.21127">
        <ele>229.2</ele>
        <time>2024-04-26T05:26:02Z</time>
      </trkpt>
      <trkpt lat="50.04586" lon="4.21121">
        <ele>228.8</ele>
        <time>2024-04-26T05:26:03Z</time>
      </trkpt>
      <trkpt lat="50.04596" lon="4.21116">
        <ele>228.8</ele>
        <time>2024-04-26T05:26:04Z</time>
      </trkpt>
      <trkpt lat="50.04606" lon="4.21112">
        <ele>229</ele>
        <time>2024-04-26T05:26:05Z</time>
      </trkpt>
      <trkpt lat="50.04615" lon="4.21107">
        <ele>228.8</ele>
        <time>2024-04-26T05:26:06Z</time>
      </trkpt>
      <trkpt lat="50.04625" lon="4.21103">
        <ele>228.8</ele>
        <time>2024-04-26T05:26:07Z</time>
      </trkpt>
      <trkpt lat="50.04634" lon="4.211">
        <ele>228.8</ele>
        <time>2024-04-26T05:26:08Z</time>
      </trkpt>
      <trkpt lat="50.04643" lon="4.21096">
        <ele>228.8</ele>
        <time>2024-04-26T05:26:09Z</time>
      </trkpt>
      <trkpt lat="50.04652" lon="4.21092">
        <ele>228.8</ele>
        <time>2024-04-26T05:26:10Z</time>
      </trkpt>
      <trkpt lat="50.04661" lon="4.21088">
        <ele>228.8</ele>
        <time>2024-04-26T05:26:11Z</time>
      </trkpt>
      <trkpt lat="50.0467" lon="4.21084">
        <ele>228.8</ele>
        <time>2024-04-26T05:26:12Z</time>
      </trkpt>
      <trkpt lat="50.04679" lon="4.2108">
        <ele>228.8</ele>
        <time>2024-04-26T05:26:13Z</time>
      </trkpt>
      <trkpt lat="50.04688" lon="4.21076">
        <ele>228.8</ele>
        <time>2024-04-26T05:26:14Z</time>
      </trkpt>
      <trkpt lat="50.04697" lon="4.21072">
        <ele>228.6</ele>
        <time>2024-04-26T05:26:15Z</time>
      </trkpt>
      <trkpt lat="50.04706" lon="4.21068">
        <ele>228.8</ele>
        <time>2024-04-26T05:26:16Z</time>
      </trkpt>
      <trkpt lat="50.04715" lon="4.21064">
        <ele>228.6</ele>
        <time>2024-04-26T05:26:17Z</time>
      </trkpt>
      <trkpt lat="50.04724" lon="4.2106">
        <ele>228.6</ele>
        <time>2024-04-26T05:26:18Z</time>
      </trkpt>
      <trkpt lat="50.04734" lon="4.21056">
        <ele>228.4</ele>
        <time>2024-04-26T05:26:19Z</time>
      </trkpt>
      <trkpt lat="50.04743" lon="4.21052">
        <ele>228.4</ele>
        <time>2024-04-26T05:26:20Z</time>
      </trkpt>
      <trkpt lat="50.04752" lon="4.21047">
        <ele>228.4</ele>
        <time>2024-04-26T05:26:21Z</time>
      </trkpt>
      <trkpt lat="50.04761" lon="4.21043">
        <ele>228.4</ele>
        <time>2024-04-26T05:26:22Z</time>
      </trkpt>
      <trkpt lat="50.0477" lon="4.21037">
        <ele>228</ele>
        <time>2024-04-26T05:26:23Z</time>
      </trkpt>
      <trkpt lat="50.04779" lon="4.21032">
        <ele>228.2</ele>
        <time>2024-04-26T05:26:24Z</time>
      </trkpt>
      <trkpt lat="50.04788" lon="4.21026">
        <ele>228</ele>
        <time>2024-04-26T05:26:25Z</time>
      </trkpt>
      <trkpt lat="50.04796" lon="4.21019">
        <ele>228.2</ele>
        <time>2024-04-26T05:26:26Z</time>
      </trkpt>
      <trkpt lat="50.04804" lon="4.21012">
        <ele>227.8</ele>
        <time>2024-04-26T05:26:27Z</time>
      </trkpt>
      <trkpt lat="50.04813" lon="4.21004">
        <ele>227.6</ele>
        <time>2024-04-26T05:26:28Z</time>
      </trkpt>
      <trkpt lat="50.0482" lon="4.20996">
        <ele>227.2</ele>
        <time>2024-04-26T05:26:29Z</time>
      </trkpt>
      <trkpt lat="50.04829" lon="4.20988">
        <ele>227.2</ele>
        <time>2024-04-26T05:26:30Z</time>
      </trkpt>
      <trkpt lat="50.04837" lon="4.2098">
        <ele>227.2</ele>
        <time>2024-04-26T05:26:31Z</time>
      </trkpt>
      <trkpt lat="50.04845" lon="4.20972">
        <ele>227.2</ele>
        <time>2024-04-26T05:26:32Z</time>
      </trkpt>
      <trkpt lat="50.04854" lon="4.20964">
        <ele>227</ele>
        <time>2024-04-26T05:26:33Z</time>
      </trkpt>
      <trkpt lat="50.04862" lon="4.20956">
        <ele>226.8</ele>
        <time>2024-04-26T05:26:34Z</time>
      </trkpt>
      <trkpt lat="50.0487" lon="4.20948">
        <ele>226.8</ele>
        <time>2024-04-26T05:26:35Z</time>
      </trkpt>
      <trkpt lat="50.04878" lon="4.20939">
        <ele>226.6</ele>
        <time>2024-04-26T05:26:36Z</time>
      </trkpt>
      <trkpt lat="50.04886" lon="4.20929">
        <ele>226.6</ele>
        <time>2024-04-26T05:26:37Z</time>
      </trkpt>
      <trkpt lat="50.04893" lon="4.20918">
        <ele>226.4</ele>
        <time>2024-04-26T05:26:38Z</time>
      </trkpt>
      <trkpt lat="50.04899" lon="4.20906">
        <ele>226.2</ele>
        <time>2024-04-26T05:26:39Z</time>
      </trkpt>
      <trkpt lat="50.04907" lon="4.20894">
        <ele>226</ele>
        <time>2024-04-26T05:26:40Z</time>
      </trkpt>
      <trkpt lat="50.04914" lon="4.20882">
        <ele>226</ele>
        <time>2024-04-26T05:26:41Z</time>
      </trkpt>
      <trkpt lat="50.04922" lon="4.2087">
        <ele>225.6</ele>
        <time>2024-04-26T05:26:42Z</time>
      </trkpt>
      <trkpt lat="50.04932" lon="4.20861">
        <ele>225.2</ele>
        <time>2024-04-26T05:26:43Z</time>
      </trkpt>
      <trkpt lat="50.04943" lon="4.20854">
        <ele>225.2</ele>
        <time>2024-04-26T05:26:44Z</time>
      </trkpt>
      <trkpt lat="50.04954" lon="4.20848">
        <ele>225</ele>
        <time>2024-04-26T05:26:45Z</time>
      </trkpt>
      <trkpt lat="50.04967" lon="4.20846">
        <ele>224.6</ele>
        <time>2024-04-26T05:26:46Z</time>
      </trkpt>
      <trkpt lat="50.0498" lon="4.20848">
        <ele>223.6</ele>
        <time>2024-04-26T05:26:47Z</time>
      </trkpt>
      <trkpt lat="50.04993" lon="4.20852">
        <ele>223</ele>
        <time>2024-04-26T05:26:48Z</time>
      </trkpt>
      <trkpt lat="50.05006" lon="4.20858">
        <ele>222</ele>
        <time>2024-04-26T05:26:49Z</time>
      </trkpt>
      <trkpt lat="50.05018" lon="4.20866">
        <ele>221</ele>
        <time>2024-04-26T05:26:50Z</time>
      </trkpt>
      <trkpt lat="50.0503" lon="4.20875">
        <ele>219.8</ele>
        <time>2024-04-26T05:26:51Z</time>
      </trkpt>
      <trkpt lat="50.05042" lon="4.20885">
        <ele>218.6</ele>
        <time>2024-04-26T05:26:52Z</time>
      </trkpt>
      <trkpt lat="50.05053" lon="4.20893">
        <ele>218.6</ele>
        <time>2024-04-26T05:26:53Z</time>
      </trkpt>
      <trkpt lat="50.05065" lon="4.20903">
        <ele>217.6</ele>
        <time>2024-04-26T05:26:54Z</time>
      </trkpt>
      <trkpt lat="50.05075" lon="4.20913">
        <ele>216.6</ele>
        <time>2024-04-26T05:26:55Z</time>
      </trkpt>
      <trkpt lat="50.05086" lon="4.20924">
        <ele>215</ele>
        <time>2024-04-26T05:26:56Z</time>
      </trkpt>
      <trkpt lat="50.05096" lon="4.20934">
        <ele>213.8</ele>
        <time>2024-04-26T05:26:57Z</time>
      </trkpt>
      <trkpt lat="50.05106" lon="4.20944">
        <ele>212.6</ele>
        <time>2024-04-26T05:26:58Z</time>
      </trkpt>
      <trkpt lat="50.05116" lon="4.20954">
        <ele>211.6</ele>
        <time>2024-04-26T05:26:59Z</time>
      </trkpt>
      <trkpt lat="50.05127" lon="4.20964">
        <ele>210.2</ele>
        <time>2024-04-26T05:27:00Z</time>
      </trkpt>
      <trkpt lat="50.05138" lon="4.20973">
        <ele>209.2</ele>
        <time>2024-04-26T05:27:01Z</time>
      </trkpt>
      <trkpt lat="50.05147" lon="4.20983">
        <ele>208.6</ele>
        <time>2024-04-26T05:27:02Z</time>
      </trkpt>
      <trkpt lat="50.05157" lon="4.20993">
        <ele>208.4</ele>
        <time>2024-04-26T05:27:03Z</time>
      </trkpt>
      <trkpt lat="50.05166" lon="4.21001">
        <ele>208.2</ele>
        <time>2024-04-26T05:27:04Z</time>
      </trkpt>
      <trkpt lat="50.05175" lon="4.21007">
        <ele>208</ele>
        <time>2024-04-26T05:27:05Z</time>
      </trkpt>
      <trkpt lat="50.05185" lon="4.21011">
        <ele>208</ele>
        <time>2024-04-26T05:27:06Z</time>
      </trkpt>
      <trkpt lat="50.05194" lon="4.21012">
        <ele>208.2</ele>
        <time>2024-04-26T05:27:07Z</time>
      </trkpt>
      <trkpt lat="50.05202" lon="4.21013">
        <ele>208.2</ele>
        <time>2024-04-26T05:27:08Z</time>
      </trkpt>
      <trkpt lat="50.0521" lon="4.21013">
        <ele>208</ele>
        <time>2024-04-26T05:27:09Z</time>
      </trkpt>
      <trkpt lat="50.05217" lon="4.21012">
        <ele>208.2</ele>
        <time>2024-04-26T05:27:10Z</time>
      </trkpt>
      <trkpt lat="50.05224" lon="4.21012">
        <ele>208.2</ele>
        <time>2024-04-26T05:27:11Z</time>
      </trkpt>
      <trkpt lat="50.05231" lon="4.21011">
        <ele>208.2</ele>
        <time>2024-04-26T05:27:12Z</time>
      </trkpt>
      <trkpt lat="50.05238" lon="4.2101">
        <ele>208.6</ele>
        <time>2024-04-26T05:27:13Z</time>
      </trkpt>
      <trkpt lat="50.05245" lon="4.21008">
        <ele>209.2</ele>
        <time>2024-04-26T05:27:14Z</time>
      </trkpt>
      <trkpt lat="50.05253" lon="4.21006">
        <ele>209.2</ele>
        <time>2024-04-26T05:27:15Z</time>
      </trkpt>
      <trkpt lat="50.0526" lon="4.21005">
        <ele>210.8</ele>
        <time>2024-04-26T05:27:16Z</time>
      </trkpt>
      <trkpt lat="50.05268" lon="4.21005">
        <ele>211.8</ele>
        <time>2024-04-26T05:27:17Z</time>
      </trkpt>
      <trkpt lat="50.05276" lon="4.21005">
        <ele>213</ele>
        <time>2024-04-26T05:27:18Z</time>
      </trkpt>
      <trkpt lat="50.05284" lon="4.21004">
        <ele>213.6</ele>
        <time>2024-04-26T05:27:19Z</time>
      </trkpt>
      <trkpt lat="50.05292" lon="4.21003">
        <ele>214.2</ele>
        <time>2024-04-26T05:27:20Z</time>
      </trkpt>
      <trkpt lat="50.053" lon="4.21002">
        <ele>214.2</ele>
        <time>2024-04-26T05:27:21Z</time>
      </trkpt>
      <trkpt lat="50.05308" lon="4.21002">
        <ele>214.6</ele>
        <time>2024-04-26T05:27:22Z</time>
      </trkpt>
      <trkpt lat="50.05316" lon="4.21001">
        <ele>214.6</ele>
        <time>2024-04-26T05:27:23Z</time>
      </trkpt>
      <trkpt lat="50.05323" lon="4.21">
        <ele>214.4</ele>
        <time>2024-04-26T05:27:24Z</time>
      </trkpt>
      <trkpt lat="50.0533" lon="4.20998">
        <ele>214.6</ele>
        <time>2024-04-26T05:27:25Z</time>
      </trkpt>
      <trkpt lat="50.05337" lon="4.20997">
        <ele>214.6</ele>
        <time>2024-04-26T05:27:26Z</time>
      </trkpt>
      <trkpt lat="50.05345" lon="4.20996">
        <ele>214.8</ele>
        <time>2024-04-26T05:27:27Z</time>
      </trkpt>
      <trkpt lat="50.05352" lon="4.20996">
        <ele>214.8</ele>
        <time>2024-04-26T05:27:28Z</time>
      </trkpt>
      <trkpt lat="50.05359" lon="4.20995">
        <ele>214.8</ele>
        <time>2024-04-26T05:27:29Z</time>
      </trkpt>
      <trkpt lat="50.05366" lon="4.20995">
        <ele>215</ele>
        <time>2024-04-26T05:27:30Z</time>
      </trkpt>
      <trkpt lat="50.05372" lon="4.20994">
        <ele>214.8</ele>
        <time>2024-04-26T05:27:31Z</time>
      </trkpt>
      <trkpt lat="50.05379" lon="4.20994">
        <ele>214.8</ele>
        <time>2024-04-26T05:27:32Z</time>
      </trkpt>
      <trkpt lat="50.05385" lon="4.20994">
        <ele>214.6</ele>
        <time>2024-04-26T05:27:33Z</time>
      </trkpt>
      <trkpt lat="50.05392" lon="4.20995">
        <ele>214.6</ele>
        <time>2024-04-26T05:27:34Z</time>
      </trkpt>
      <trkpt lat="50.05398" lon="4.20995">
        <ele>214.8</ele>
        <time>2024-04-26T05:27:35Z</time>
      </trkpt>
      <trkpt lat="50.05405" lon="4.20996">
        <ele>214.8</ele>
        <time>2024-04-26T05:27:36Z</time>
      </trkpt>
      <trkpt lat="50.05412" lon="4.20996">
        <ele>214.8</ele>
        <time>2024-04-26T05:27:37Z</time>
      </trkpt>
      <trkpt lat="50.05418" lon="4.20996">
        <ele>214.8</ele>
        <time>2024-04-26T05:27:38Z</time>
      </trkpt>
      <trkpt lat="50.05425" lon="4.20997">
        <ele>214.8</ele>
        <time>2024-04-26T05:27:39Z</time>
      </trkpt>
      <trkpt lat="50.05431" lon="4.20997">
        <ele>215</ele>
        <time>2024-04-26T05:27:40Z</time>
      </trkpt>
      <trkpt lat="50.05438" lon="4.20996">
        <ele>215</ele>
        <time>2024-04-26T05:27:41Z</time>
      </trkpt>
      <trkpt lat="50.05444" lon="4.20995">
        <ele>215.4</ele>
        <time>2024-04-26T05:27:42Z</time>
      </trkpt>
      <trkpt lat="50.0545" lon="4.20993">
        <ele>215.4</ele>
        <time>2024-04-26T05:27:43Z</time>
      </trkpt>
      <trkpt lat="50.05456" lon="4.2099">
        <ele>215.6</ele>
        <time>2024-04-26T05:27:44Z</time>
      </trkpt>
      <trkpt lat="50.05462" lon="4.20986">
        <ele>216</ele>
        <time>2024-04-26T05:27:45Z</time>
      </trkpt>
      <trkpt lat="50.05468" lon="4.20982">
        <ele>216.4</ele>
        <time>2024-04-26T05:27:46Z</time>
      </trkpt>
      <trkpt lat="50.05474" lon="4.20978">
        <ele>216.6</ele>
        <time>2024-04-26T05:27:47Z</time>
      </trkpt>
      <trkpt lat="50.0548" lon="4.20974">
        <ele>216.8</ele>
        <time>2024-04-26T05:27:48Z</time>
      </trkpt>
      <trkpt lat="50.05485" lon="4.20969">
        <ele>217.2</ele>
        <time>2024-04-26T05:27:49Z</time>
      </trkpt>
      <trkpt lat="50.05491" lon="4.20965">
        <ele>217.6</ele>
        <time>2024-04-26T05:27:50Z</time>
      </trkpt>
      <trkpt lat="50.05497" lon="4.20959">
        <ele>218</ele>
        <time>2024-04-26T05:27:51Z</time>
      </trkpt>
      <trkpt lat="50.05504" lon="4.20954">
        <ele>218.6</ele>
        <time>2024-04-26T05:27:52Z</time>
      </trkpt>
      <trkpt lat="50.0551" lon="4.2095">
        <ele>219.2</ele>
        <time>2024-04-26T05:27:53Z</time>
      </trkpt>
      <trkpt lat="50.05517" lon="4.20945">
        <ele>219.6</ele>
        <time>2024-04-26T05:27:54Z</time>
      </trkpt>
      <trkpt lat="50.05524" lon="4.2094">
        <ele>220</ele>
        <time>2024-04-26T05:27:55Z</time>
      </trkpt>
      <trkpt lat="50.0553" lon="4.20934">
        <ele>220.2</ele>
        <time>2024-04-26T05:27:56Z</time>
      </trkpt>
      <trkpt lat="50.05537" lon="4.20928">
        <ele>220.2</ele>
        <time>2024-04-26T05:27:57Z</time>
      </trkpt>
      <trkpt lat="50.05545" lon="4.20923">
        <ele>220.4</ele>
        <time>2024-04-26T05:27:58Z</time>
      </trkpt>
      <trkpt lat="50.05552" lon="4.20917">
        <ele>220.2</ele>
        <time>2024-04-26T05:27:59Z</time>
      </trkpt>
      <trkpt lat="50.05559" lon="4.20911">
        <ele>220.4</ele>
        <time>2024-04-26T05:28:00Z</time>
      </trkpt>
      <trkpt lat="50.05567" lon="4.20905">
        <ele>220.4</ele>
        <time>2024-04-26T05:28:01Z</time>
      </trkpt>
      <trkpt lat="50.05575" lon="4.20899">
        <ele>220.4</ele>
        <time>2024-04-26T05:28:02Z</time>
      </trkpt>
      <trkpt lat="50.05582" lon="4.20893">
        <ele>220.4</ele>
        <time>2024-04-26T05:28:03Z</time>
      </trkpt>
      <trkpt lat="50.0559" lon="4.20886">
        <ele>220.4</ele>
        <time>2024-04-26T05:28:04Z</time>
      </trkpt>
      <trkpt lat="50.05598" lon="4.2088">
        <ele>220.4</ele>
        <time>2024-04-26T05:28:05Z</time>
      </trkpt>
      <trkpt lat="50.05606" lon="4.20873">
        <ele>220</ele>
        <time>2024-04-26T05:28:06Z</time>
      </trkpt>
      <trkpt lat="50.05614" lon="4.20867">
        <ele>220</ele>
        <time>2024-04-26T05:28:07Z</time>
      </trkpt>
      <trkpt lat="50.05622" lon="4.2086">
        <ele>219.8</ele>
        <time>2024-04-26T05:28:08Z</time>
      </trkpt>
      <trkpt lat="50.05631" lon="4.20854">
        <ele>219.4</ele>
        <time>2024-04-26T05:28:09Z</time>
      </trkpt>
      <trkpt lat="50.05639" lon="4.20847">
        <ele>218.4</ele>
        <time>2024-04-26T05:28:10Z</time>
      </trkpt>
      <trkpt lat="50.05648" lon="4.20841">
        <ele>217.8</ele>
        <time>2024-04-26T05:28:11Z</time>
      </trkpt>
      <trkpt lat="50.05656" lon="4.20834">
        <ele>217.2</ele>
        <time>2024-04-26T05:28:12Z</time>
      </trkpt>
      <trkpt lat="50.05665" lon="4.20827">
        <ele>216.8</ele>
        <time>2024-04-26T05:28:13Z</time>
      </trkpt>
      <trkpt lat="50.05674" lon="4.20819">
        <ele>216.4</ele>
        <time>2024-04-26T05:28:14Z</time>
      </trkpt>
      <trkpt lat="50.05682" lon="4.20812">
        <ele>216.2</ele>
        <time>2024-04-26T05:28:15Z</time>
      </trkpt>
      <trkpt lat="50.05691" lon="4.20805">
        <ele>216</ele>
        <time>2024-04-26T05:28:16Z</time>
      </trkpt>
      <trkpt lat="50.057" lon="4.20799">
        <ele>215.8</ele>
        <time>2024-04-26T05:28:17Z</time>
      </trkpt>
      <trkpt lat="50.05708" lon="4.20792">
        <ele>215.4</ele>
        <time>2024-04-26T05:28:18Z</time>
      </trkpt>
      <trkpt lat="50.05716" lon="4.20786">
        <ele>215.4</ele>
        <time>2024-04-26T05:28:19Z</time>
      </trkpt>
      <trkpt lat="50.05723" lon="4.2078">
        <ele>215.2</ele>
        <time>2024-04-26T05:28:20Z</time>
      </trkpt>
      <trkpt lat="50.0573" lon="4.20774">
        <ele>215</ele>
        <time>2024-04-26T05:28:21Z</time>
      </trkpt>
      <trkpt lat="50.05736" lon="4.20769">
        <ele>215</ele>
        <time>2024-04-26T05:28:22Z</time>
      </trkpt>
      <trkpt lat="50.05742" lon="4.20764">
        <ele>214.8</ele>
        <time>2024-04-26T05:28:23Z</time>
      </trkpt>
      <trkpt lat="50.05748" lon="4.2076">
        <ele>214.8</ele>
        <time>2024-04-26T05:28:24Z</time>
      </trkpt>
      <trkpt lat="50.05754" lon="4.20755">
        <ele>214.8</ele>
        <time>2024-04-26T05:28:25Z</time>
      </trkpt>
      <trkpt lat="50.05759" lon="4.20751">
        <ele>214.8</ele>
        <time>2024-04-26T05:28:26Z</time>
      </trkpt>
      <trkpt lat="50.05764" lon="4.20746">
        <ele>214.8</ele>
        <time>2024-04-26T05:28:27Z</time>
      </trkpt>
      <trkpt lat="50.05769" lon="4.20742">
        <ele>214.8</ele>
        <time>2024-04-26T05:28:28Z</time>
      </trkpt>
      <trkpt lat="50.05774" lon="4.20738">
        <ele>215</ele>
        <time>2024-04-26T05:28:29Z</time>
      </trkpt>
      <trkpt lat="50.05779" lon="4.20733">
        <ele>214.8</ele>
        <time>2024-04-26T05:28:30Z</time>
      </trkpt>
      <trkpt lat="50.05784" lon="4.20729">
        <ele>215.2</ele>
        <time>2024-04-26T05:28:31Z</time>
      </trkpt>
      <trkpt lat="50.05789" lon="4.20725">
        <ele>216</ele>
        <time>2024-04-26T05:28:32Z</time>
      </trkpt>
      <trkpt lat="50.05795" lon="4.20721">
        <ele>216.4</ele>
        <time>2024-04-26T05:28:33Z</time>
      </trkpt>
      <trkpt lat="50.058" lon="4.20717">
        <ele>216.4</ele>
        <time>2024-04-26T05:28:34Z</time>
      </trkpt>
      <trkpt lat="50.05805" lon="4.20713">
        <ele>216.6</ele>
        <time>2024-04-26T05:28:35Z</time>
      </trkpt>
      <trkpt lat="50.05811" lon="4.20709">
        <ele>217.4</ele>
        <time>2024-04-26T05:28:36Z</time>
      </trkpt>
      <trkpt lat="50.05816" lon="4.20705">
        <ele>218</ele>
        <time>2024-04-26T05:28:37Z</time>
      </trkpt>
      <trkpt lat="50.05822" lon="4.207">
        <ele>218.2</ele>
        <time>2024-04-26T05:28:38Z</time>
      </trkpt>
      <trkpt lat="50.05828" lon="4.20696">
        <ele>218.8</ele>
        <time>2024-04-26T05:28:39Z</time>
      </trkpt>
      <trkpt lat="50.05834" lon="4.20691">
        <ele>219.2</ele>
        <time>2024-04-26T05:28:40Z</time>
      </trkpt>
      <trkpt lat="50.0584" lon="4.20686">
        <ele>219.2</ele>
        <time>2024-04-26T05:28:41Z</time>
      </trkpt>
      <trkpt lat="50.05846" lon="4.20681">
        <ele>219.4</ele>
        <time>2024-04-26T05:28:42Z</time>
      </trkpt>
      <trkpt lat="50.05852" lon="4.20676">
        <ele>219.8</ele>
        <time>2024-04-26T05:28:43Z</time>
      </trkpt>
      <trkpt lat="50.05859" lon="4.20671">
        <ele>220</ele>
        <time>2024-04-26T05:28:44Z</time>
      </trkpt>
      <trkpt lat="50.05866" lon="4.20665">
        <ele>220.2</ele>
        <time>2024-04-26T05:28:45Z</time>
      </trkpt>
      <trkpt lat="50.05873" lon="4.2066">
        <ele>220.2</ele>
        <time>2024-04-26T05:28:46Z</time>
      </trkpt>
      <trkpt lat="50.05881" lon="4.20654">
        <ele>220.2</ele>
        <time>2024-04-26T05:28:47Z</time>
      </trkpt>
      <trkpt lat="50.05888" lon="4.20647">
        <ele>220.2</ele>
        <time>2024-04-26T05:28:48Z</time>
      </trkpt>
      <trkpt lat="50.05896" lon="4.20641">
        <ele>220.2</ele>
        <time>2024-04-26T05:28:49Z</time>
      </trkpt>
      <trkpt lat="50.05905" lon="4.20634">
        <ele>220.2</ele>
        <time>2024-04-26T05:28:50Z</time>
      </trkpt>
      <trkpt lat="50.05914" lon="4.20628">
        <ele>220.2</ele>
        <time>2024-04-26T05:28:51Z</time>
      </trkpt>
      <trkpt lat="50.05923" lon="4.20623">
        <ele>220.2</ele>
        <time>2024-04-26T05:28:52Z</time>
      </trkpt>
      <trkpt lat="50.05932" lon="4.20617">
        <ele>220.4</ele>
        <time>2024-04-26T05:28:53Z</time>
      </trkpt>
      <trkpt lat="50.05942" lon="4.20611">
        <ele>219.8</ele>
        <time>2024-04-26T05:28:54Z</time>
      </trkpt>
      <trkpt lat="50.05952" lon="4.20605">
        <ele>219.4</ele>
        <time>2024-04-26T05:28:55Z</time>
      </trkpt>
      <trkpt lat="50.05962" lon="4.20599">
        <ele>218.6</ele>
        <time>2024-04-26T05:28:56Z</time>
      </trkpt>
      <trkpt lat="50.05973" lon="4.20593">
        <ele>218.2</ele>
        <time>2024-04-26T05:28:57Z</time>
      </trkpt>
      <trkpt lat="50.05983" lon="4.20587">
        <ele>217.4</ele>
        <time>2024-04-26T05:28:58Z</time>
      </trkpt>
      <trkpt lat="50.05994" lon="4.20581">
        <ele>216</ele>
        <time>2024-04-26T05:28:59Z</time>
      </trkpt>
      <trkpt lat="50.06005" lon="4.20575">
        <ele>215.4</ele>
        <time>2024-04-26T05:29:00Z</time>
      </trkpt>
      <trkpt lat="50.06016" lon="4.20569">
        <ele>214.8</ele>
        <time>2024-04-26T05:29:01Z</time>
      </trkpt>
      <trkpt lat="50.06027" lon="4.20562">
        <ele>214.8</ele>
        <time>2024-04-26T05:29:02Z</time>
      </trkpt>
      <trkpt lat="50.06038" lon="4.20556">
        <ele>214</ele>
        <time>2024-04-26T05:29:03Z</time>
      </trkpt>
      <trkpt lat="50.0605" lon="4.2055">
        <ele>213.4</ele>
        <time>2024-04-26T05:29:04Z</time>
      </trkpt>
      <trkpt lat="50.06061" lon="4.20543">
        <ele>212.6</ele>
        <time>2024-04-26T05:29:05Z</time>
      </trkpt>
      <trkpt lat="50.06072" lon="4.20536">
        <ele>211.4</ele>
        <time>2024-04-26T05:29:06Z</time>
      </trkpt>
      <trkpt lat="50.06084" lon="4.20529">
        <ele>210</ele>
        <time>2024-04-26T05:29:07Z</time>
      </trkpt>
      <trkpt lat="50.06096" lon="4.20522">
        <ele>209.2</ele>
        <time>2024-04-26T05:29:08Z</time>
      </trkpt>
      <trkpt lat="50.06107" lon="4.20515">
        <ele>208.4</ele>
        <time>2024-04-26T05:29:09Z</time>
      </trkpt>
      <trkpt lat="50.06119" lon="4.20509">
        <ele>207.4</ele>
        <time>2024-04-26T05:29:10Z</time>
      </trkpt>
      <trkpt lat="50.0613" lon="4.20502">
        <ele>206.8</ele>
        <time>2024-04-26T05:29:11Z</time>
      </trkpt>
      <trkpt lat="50.06141" lon="4.20496">
        <ele>205.8</ele>
        <time>2024-04-26T05:29:12Z</time>
      </trkpt>
      <trkpt lat="50.06152" lon="4.2049">
        <ele>204.6</ele>
        <time>2024-04-26T05:29:13Z</time>
      </trkpt>
      <trkpt lat="50.06163" lon="4.20484">
        <ele>203.4</ele>
        <time>2024-04-26T05:29:14Z</time>
      </trkpt>
      <trkpt lat="50.06173" lon="4.20478">
        <ele>202.2</ele>
        <time>2024-04-26T05:29:15Z</time>
      </trkpt>
      <trkpt lat="50.06183" lon="4.20472">
        <ele>201.2</ele>
        <time>2024-04-26T05:29:16Z</time>
      </trkpt>
      <trkpt lat="50.06193" lon="4.20466">
        <ele>200.4</ele>
        <time>2024-04-26T05:29:17Z</time>
      </trkpt>
      <trkpt lat="50.06203" lon="4.20461">
        <ele>199.8</ele>
        <time>2024-04-26T05:29:18Z</time>
      </trkpt>
      <trkpt lat="50.06212" lon="4.20456">
        <ele>199.4</ele>
        <time>2024-04-26T05:29:19Z</time>
      </trkpt>
      <trkpt lat="50.06221" lon="4.20451">
        <ele>199.2</ele>
        <time>2024-04-26T05:29:20Z</time>
      </trkpt>
      <trkpt lat="50.06229" lon="4.20446">
        <ele>199.2</ele>
        <time>2024-04-26T05:29:21Z</time>
      </trkpt>
      <trkpt lat="50.06237" lon="4.20442">
        <ele>199.2</ele>
        <time>2024-04-26T05:29:22Z</time>
      </trkpt>
      <trkpt lat="50.06245" lon="4.20438">
        <ele>199.2</ele>
        <time>2024-04-26T05:29:23Z</time>
      </trkpt>
      <trkpt lat="50.06252" lon="4.20434">
        <ele>199.2</ele>
        <time>2024-04-26T05:29:24Z</time>
      </trkpt>
      <trkpt lat="50.06259" lon="4.20429">
        <ele>199.2</ele>
        <time>2024-04-26T05:29:25Z</time>
      </trkpt>
      <trkpt lat="50.06266" lon="4.20426">
        <ele>199.2</ele>
        <time>2024-04-26T05:29:26Z</time>
      </trkpt>
      <trkpt lat="50.06272" lon="4.20422">
        <ele>199.2</ele>
        <time>2024-04-26T05:29:27Z</time>
      </trkpt>
      <trkpt lat="50.06279" lon="4.20419">
        <ele>199</ele>
        <time>2024-04-26T05:29:28Z</time>
      </trkpt>
      <trkpt lat="50.06284" lon="4.20415">
        <ele>199.4</ele>
        <time>2024-04-26T05:29:29Z</time>
      </trkpt>
      <trkpt lat="50.06289" lon="4.20409">
        <ele>199.4</ele>
        <time>2024-04-26T05:29:30Z</time>
      </trkpt>
      <trkpt lat="50.06293" lon="4.20401">
        <ele>199.6</ele>
        <time>2024-04-26T05:29:31Z</time>
      </trkpt>
      <trkpt lat="50.06296" lon="4.20392">
        <ele>199.6</ele>
        <time>2024-04-26T05:29:32Z</time>
      </trkpt>
      <trkpt lat="50.06297" lon="4.20382">
        <ele>200.2</ele>
        <time>2024-04-26T05:29:33Z</time>
      </trkpt>
      <trkpt lat="50.06298" lon="4.20371">
        <ele>200.8</ele>
        <time>2024-04-26T05:29:34Z</time>
      </trkpt>
      <trkpt lat="50.06298" lon="4.20359">
        <ele>201.8</ele>
        <time>2024-04-26T05:29:35Z</time>
      </trkpt>
      <trkpt lat="50.06299" lon="4.20347">
        <ele>202.2</ele>
        <time>2024-04-26T05:29:36Z</time>
      </trkpt>
      <trkpt lat="50.06299" lon="4.20335">
        <ele>202.6</ele>
        <time>2024-04-26T05:29:37Z</time>
      </trkpt>
      <trkpt lat="50.06299" lon="4.20323">
        <ele>202.8</ele>
        <time>2024-04-26T05:29:38Z</time>
      </trkpt>
      <trkpt lat="50.06299" lon="4.20311">
        <ele>202.6</ele>
        <time>2024-04-26T05:29:39Z</time>
      </trkpt>
      <trkpt lat="50.06299" lon="4.20299">
        <ele>202.6</ele>
        <time>2024-04-26T05:29:40Z</time>
      </trkpt>
      <trkpt lat="50.063" lon="4.20287">
        <ele>202.8</ele>
        <time>2024-04-26T05:29:41Z</time>
      </trkpt>
      <trkpt lat="50.063" lon="4.20274">
        <ele>202.6</ele>
        <time>2024-04-26T05:29:42Z</time>
      </trkpt>
      <trkpt lat="50.063" lon="4.20262">
        <ele>202.6</ele>
        <time>2024-04-26T05:29:43Z</time>
      </trkpt>
      <trkpt lat="50.06301" lon="4.2025">
        <ele>202.8</ele>
        <time>2024-04-26T05:29:44Z</time>
      </trkpt>
      <trkpt lat="50.06301" lon="4.20238">
        <ele>202.6</ele>
        <time>2024-04-26T05:29:45Z</time>
      </trkpt>
      <trkpt lat="50.06302" lon="4.20226">
        <ele>202.6</ele>
        <time>2024-04-26T05:29:46Z</time>
      </trkpt>
      <trkpt lat="50.06302" lon="4.20213">
        <ele>202.4</ele>
        <time>2024-04-26T05:29:47Z</time>
      </trkpt>
      <trkpt lat="50.06303" lon="4.20201">
        <ele>202.2</ele>
        <time>2024-04-26T05:29:48Z</time>
      </trkpt>
      <trkpt lat="50.06303" lon="4.20189">
        <ele>202.2</ele>
        <time>2024-04-26T05:29:49Z</time>
      </trkpt>
      <trkpt lat="50.06304" lon="4.20176">
        <ele>202.2</ele>
        <time>2024-04-26T05:29:50Z</time>
      </trkpt>
      <trkpt lat="50.06304" lon="4.20163">
        <ele>202</ele>
        <time>2024-04-26T05:29:51Z</time>
      </trkpt>
      <trkpt lat="50.06304" lon="4.2015">
        <ele>201.6</ele>
        <time>2024-04-26T05:29:52Z</time>
      </trkpt>
      <trkpt lat="50.06305" lon="4.20137">
        <ele>201</ele>
        <time>2024-04-26T05:29:53Z</time>
      </trkpt>
      <trkpt lat="50.06305" lon="4.20124">
        <ele>201</ele>
        <time>2024-04-26T05:29:54Z</time>
      </trkpt>
      <trkpt lat="50.06306" lon="4.2011">
        <ele>201</ele>
        <time>2024-04-26T05:29:55Z</time>
      </trkpt>
      <trkpt lat="50.06307" lon="4.20097">
        <ele>200.6</ele>
        <time>2024-04-26T05:29:56Z</time>
      </trkpt>
      <trkpt lat="50.06309" lon="4.20084">
        <ele>200.4</ele>
        <time>2024-04-26T05:29:57Z</time>
      </trkpt>
      <trkpt lat="50.06312" lon="4.20072">
        <ele>200.4</ele>
        <time>2024-04-26T05:29:58Z</time>
      </trkpt>
      <trkpt lat="50.06316" lon="4.2006">
        <ele>200</ele>
        <time>2024-04-26T05:29:59Z</time>
      </trkpt>
      <trkpt lat="50.06319" lon="4.20048">
        <ele>199.6</ele>
        <time>2024-04-26T05:30:00Z</time>
      </trkpt>
      <trkpt lat="50.06322" lon="4.20036">
        <ele>199.6</ele>
        <time>2024-04-26T05:30:01Z</time>
      </trkpt>
      <trkpt lat="50.06323" lon="4.20023">
        <ele>199.2</ele>
        <time>2024-04-26T05:30:02Z</time>
      </trkpt>
      <trkpt lat="50.06324" lon="4.20011">
        <ele>199</ele>
        <time>2024-04-26T05:30:03Z</time>
      </trkpt>
      <trkpt lat="50.06323" lon="4.19998">
        <ele>199</ele>
        <time>2024-04-26T05:30:04Z</time>
      </trkpt>
      <trkpt lat="50.06322" lon="4.19985">
        <ele>199</ele>
        <time>2024-04-26T05:30:05Z</time>
      </trkpt>
      <trkpt lat="50.06322" lon="4.19972">
        <ele>198.8</ele>
        <time>2024-04-26T05:30:06Z</time>
      </trkpt>
      <trkpt lat="50.06323" lon="4.19958">
        <ele>198.8</ele>
        <time>2024-04-26T05:30:07Z</time>
      </trkpt>
      <trkpt lat="50.06328" lon="4.19946">
        <ele>198.8</ele>
        <time>2024-04-26T05:30:08Z</time>
      </trkpt>
      <trkpt lat="50.06334" lon="4.19935">
        <ele>198.6</ele>
        <time>2024-04-26T05:30:09Z</time>
      </trkpt>
      <trkpt lat="50.06341" lon="4.19926">
        <ele>198.4</ele>
        <time>2024-04-26T05:30:10Z</time>
      </trkpt>
      <trkpt lat="50.0635" lon="4.19919">
        <ele>198.2</ele>
        <time>2024-04-26T05:30:11Z</time>
      </trkpt>
      <trkpt lat="50.0636" lon="4.19914">
        <ele>198</ele>
        <time>2024-04-26T05:30:12Z</time>
      </trkpt>
      <trkpt lat="50.0637" lon="4.19909">
        <ele>197.6</ele>
        <time>2024-04-26T05:30:13Z</time>
      </trkpt>
      <trkpt lat="50.0638" lon="4.19905">
        <ele>197.6</ele>
        <time>2024-04-26T05:30:14Z</time>
      </trkpt>
      <trkpt lat="50.0639" lon="4.199">
        <ele>197</ele>
        <time>2024-04-26T05:30:15Z</time>
      </trkpt>
      <trkpt lat="50.064" lon="4.19895">
        <ele>196.8</ele>
        <time>2024-04-26T05:30:16Z</time>
      </trkpt>
      <trkpt lat="50.06409" lon="4.19887">
        <ele>196</ele>
        <time>2024-04-26T05:30:17Z</time>
      </trkpt>
      <trkpt lat="50.06416" lon="4.19878">
        <ele>195</ele>
        <time>2024-04-26T05:30:18Z</time>
      </trkpt>
      <trkpt lat="50.06421" lon="4.19866">
        <ele>194.4</ele>
        <time>2024-04-26T05:30:19Z</time>
      </trkpt>
      <trkpt lat="50.06425" lon="4.19854">
        <ele>193.4</ele>
        <time>2024-04-26T05:30:20Z</time>
      </trkpt>
      <trkpt lat="50.06428" lon="4.19841">
        <ele>192.6</ele>
        <time>2024-04-26T05:30:21Z</time>
      </trkpt>
      <trkpt lat="50.06431" lon="4.19829">
        <ele>192.2</ele>
        <time>2024-04-26T05:30:22Z</time>
      </trkpt>
      <trkpt lat="50.06433" lon="4.19816">
        <ele>191.8</ele>
        <time>2024-04-26T05:30:23Z</time>
      </trkpt>
      <trkpt lat="50.06436" lon="4.19804">
        <ele>191.8</ele>
        <time>2024-04-26T05:30:24Z</time>
      </trkpt>
      <trkpt lat="50.06438" lon="4.19791">
        <ele>191.8</ele>
        <time>2024-04-26T05:30:25Z</time>
      </trkpt>
      <trkpt lat="50.0644" lon="4.19779">
        <ele>191.8</ele>
        <time>2024-04-26T05:30:26Z</time>
      </trkpt>
      <trkpt lat="50.06443" lon="4.19767">
        <ele>191.6</ele>
        <time>2024-04-26T05:30:27Z</time>
      </trkpt>
      <trkpt lat="50.06445" lon="4.19756">
        <ele>191.6</ele>
        <time>2024-04-26T05:30:28Z</time>
      </trkpt>
      <trkpt lat="50.06447" lon="4.19744">
        <ele>191.6</ele>
        <time>2024-04-26T05:30:29Z</time>
      </trkpt>
      <trkpt lat="50.06448" lon="4.19732">
        <ele>191.6</ele>
        <time>2024-04-26T05:30:30Z</time>
      </trkpt>
      <trkpt lat="50.0645" lon="4.19721">
        <ele>191.6</ele>
        <time>2024-04-26T05:30:31Z</time>
      </trkpt>
      <trkpt lat="50.06451" lon="4.1971">
        <ele>191.6</ele>
        <time>2024-04-26T05:30:32Z</time>
      </trkpt>
      <trkpt lat="50.06452" lon="4.19699">
        <ele>191.8</ele>
        <time>2024-04-26T05:30:33Z</time>
      </trkpt>
      <trkpt lat="50.06453" lon="4.19688">
        <ele>192</ele>
        <time>2024-04-26T05:30:34Z</time>
      </trkpt>
      <trkpt lat="50.06454" lon="4.19678">
        <ele>192.2</ele>
        <time>2024-04-26T05:30:35Z</time>
      </trkpt>
      <trkpt lat="50.06455" lon="4.19667">
        <ele>192.4</ele>
        <time>2024-04-26T05:30:36Z</time>
      </trkpt>
      <trkpt lat="50.06456" lon="4.19657">
        <ele>192.6</ele>
        <time>2024-04-26T05:30:37Z</time>
      </trkpt>
      <trkpt lat="50.06457" lon="4.19648">
        <ele>192.6</ele>
        <time>2024-04-26T05:30:38Z</time>
      </trkpt>
      <trkpt lat="50.06458" lon="4.19638">
        <ele>192.8</ele>
        <time>2024-04-26T05:30:39Z</time>
      </trkpt>
      <trkpt lat="50.0646" lon="4.1963">
        <ele>193</ele>
        <time>2024-04-26T05:30:40Z</time>
      </trkpt>
      <trkpt lat="50.06463" lon="4.19621">
        <ele>193</ele>
        <time>2024-04-26T05:30:41Z</time>
      </trkpt>
      <trkpt lat="50.06466" lon="4.19613">
        <ele>193.2</ele>
        <time>2024-04-26T05:30:42Z</time>
      </trkpt>
      <trkpt lat="50.06469" lon="4.19606">
        <ele>193.4</ele>
        <time>2024-04-26T05:30:43Z</time>
      </trkpt>
      <trkpt lat="50.06473" lon="4.19599">
        <ele>193.6</ele>
        <time>2024-04-26T05:30:44Z</time>
      </trkpt>
      <trkpt lat="50.06476" lon="4.19592">
        <ele>193.8</ele>
        <time>2024-04-26T05:30:45Z</time>
      </trkpt>
      <trkpt lat="50.0648" lon="4.19586">
        <ele>193.8</ele>
        <time>2024-04-26T05:30:46Z</time>
      </trkpt>
      <trkpt lat="50.06484" lon="4.1958">
        <ele>194</ele>
        <time>2024-04-26T05:30:47Z</time>
      </trkpt>
      <trkpt lat="50.06488" lon="4.19574">
        <ele>194.2</ele>
        <time>2024-04-26T05:30:48Z</time>
      </trkpt>
      <trkpt lat="50.06492" lon="4.19568">
        <ele>194.4</ele>
        <time>2024-04-26T05:30:49Z</time>
      </trkpt>
      <trkpt lat="50.06497" lon="4.19562">
        <ele>195.2</ele>
        <time>2024-04-26T05:30:50Z</time>
      </trkpt>
      <trkpt lat="50.06502" lon="4.19557">
        <ele>195.2</ele>
        <time>2024-04-26T05:30:51Z</time>
      </trkpt>
      <trkpt lat="50.06508" lon="4.19554">
        <ele>195.6</ele>
        <time>2024-04-26T05:30:52Z</time>
      </trkpt>
      <trkpt lat="50.06514" lon="4.19552">
        <ele>196</ele>
        <time>2024-04-26T05:30:53Z</time>
      </trkpt>
      <trkpt lat="50.0652" lon="4.19551">
        <ele>196</ele>
        <time>2024-04-26T05:30:54Z</time>
      </trkpt>
      <trkpt lat="50.06527" lon="4.1955">
        <ele>196.2</ele>
        <time>2024-04-26T05:30:55Z</time>
      </trkpt>
      <trkpt lat="50.06533" lon="4.1955">
        <ele>196.2</ele>
        <time>2024-04-26T05:30:56Z</time>
      </trkpt>
      <trkpt lat="50.0654" lon="4.19551">
        <ele>196.4</ele>
        <time>2024-04-26T05:30:57Z</time>
      </trkpt>
      <trkpt lat="50.06547" lon="4.19551">
        <ele>196.2</ele>
        <time>2024-04-26T05:30:58Z</time>
      </trkpt>
      <trkpt lat="50.06554" lon="4.19551">
        <ele>196.2</ele>
        <time>2024-04-26T05:30:59Z</time>
      </trkpt>
      <trkpt lat="50.06561" lon="4.1955">
        <ele>196.2</ele>
        <time>2024-04-26T05:31:00Z</time>
      </trkpt>
      <trkpt lat="50.06568" lon="4.1955">
        <ele>196.4</ele>
        <time>2024-04-26T05:31:01Z</time>
      </trkpt>
      <trkpt lat="50.06575" lon="4.1955">
        <ele>196.4</ele>
        <time>2024-04-26T05:31:02Z</time>
      </trkpt>
      <trkpt lat="50.06581" lon="4.19549">
        <ele>196.6</ele>
        <time>2024-04-26T05:31:03Z</time>
      </trkpt>
      <trkpt lat="50.06588" lon="4.19549">
        <ele>196.4</ele>
        <time>2024-04-26T05:31:04Z</time>
      </trkpt>
      <trkpt lat="50.06595" lon="4.19549">
        <ele>196.4</ele>
        <time>2024-04-26T05:31:05Z</time>
      </trkpt>
      <trkpt lat="50.06602" lon="4.19549">
        <ele>196.4</ele>
        <time>2024-04-26T05:31:06Z</time>
      </trkpt>
      <trkpt lat="50.06609" lon="4.19548">
        <ele>196.4</ele>
        <time>2024-04-26T05:31:07Z</time>
      </trkpt>
      <trkpt lat="50.06616" lon="4.19548">
        <ele>196.4</ele>
        <time>2024-04-26T05:31:08Z</time>
      </trkpt>
      <trkpt lat="50.06623" lon="4.19548">
        <ele>196.4</ele>
        <time>2024-04-26T05:31:09Z</time>
      </trkpt>
      <trkpt lat="50.0663" lon="4.19547">
        <ele>196.4</ele>
        <time>2024-04-26T05:31:10Z</time>
      </trkpt>
      <trkpt lat="50.06637" lon="4.19547">
        <ele>196.4</ele>
        <time>2024-04-26T05:31:11Z</time>
      </trkpt>
      <trkpt lat="50.06644" lon="4.19547">
        <ele>196.4</ele>
        <time>2024-04-26T05:31:12Z</time>
      </trkpt>
      <trkpt lat="50.06651" lon="4.19547">
        <ele>196.4</ele>
        <time>2024-04-26T05:31:13Z</time>
      </trkpt>
      <trkpt lat="50.06658" lon="4.19547">
        <ele>196.4</ele>
        <time>2024-04-26T05:31:14Z</time>
      </trkpt>
      <trkpt lat="50.06665" lon="4.19546">
        <ele>196.4</ele>
        <time>2024-04-26T05:31:15Z</time>
      </trkpt>
      <trkpt lat="50.06671" lon="4.19546">
        <ele>196.4</ele>
        <time>2024-04-26T05:31:16Z</time>
      </trkpt>
      <trkpt lat="50.06678" lon="4.19546">
        <ele>196.4</ele>
        <time>2024-04-26T05:31:17Z</time>
      </trkpt>
      <trkpt lat="50.06684" lon="4.19546">
        <ele>196.6</ele>
        <time>2024-04-26T05:31:18Z</time>
      </trkpt>
      <trkpt lat="50.06691" lon="4.19546">
        <ele>196.6</ele>
        <time>2024-04-26T05:31:19Z</time>
      </trkpt>
      <trkpt lat="50.06697" lon="4.19546">
        <ele>196.6</ele>
        <time>2024-04-26T05:31:20Z</time>
      </trkpt>
      <trkpt lat="50.06704" lon="4.19546">
        <ele>196.6</ele>
        <time>2024-04-26T05:31:21Z</time>
      </trkpt>
      <trkpt lat="50.0671" lon="4.19546">
        <ele>196.6</ele>
        <time>2024-04-26T05:31:22Z</time>
      </trkpt>
      <trkpt lat="50.06717" lon="4.19547">
        <ele>196.6</ele>
        <time>2024-04-26T05:31:23Z</time>
      </trkpt>
      <trkpt lat="50.06723" lon="4.19548">
        <ele>196.6</ele>
        <time>2024-04-26T05:31:24Z</time>
      </trkpt>
      <trkpt lat="50.06729" lon="4.1955">
        <ele>196.6</ele>
        <time>2024-04-26T05:31:25Z</time>
      </trkpt>
      <trkpt lat="50.06735" lon="4.19551">
        <ele>196.8</ele>
        <time>2024-04-26T05:31:26Z</time>
      </trkpt>
      <trkpt lat="50.06741" lon="4.19553">
        <ele>197</ele>
        <time>2024-04-26T05:31:27Z</time>
      </trkpt>
      <trkpt lat="50.06747" lon="4.19554">
        <ele>197.2</ele>
        <time>2024-04-26T05:31:28Z</time>
      </trkpt>
      <trkpt lat="50.06753" lon="4.19555">
        <ele>197.2</ele>
        <time>2024-04-26T05:31:29Z</time>
      </trkpt>
      <trkpt lat="50.06759" lon="4.19557">
        <ele>197.2</ele>
        <time>2024-04-26T05:31:30Z</time>
      </trkpt>
      <trkpt lat="50.06765" lon="4.19559">
        <ele>197.2</ele>
        <time>2024-04-26T05:31:31Z</time>
      </trkpt>
      <trkpt lat="50.06771" lon="4.1956">
        <ele>197.4</ele>
        <time>2024-04-26T05:31:32Z</time>
      </trkpt>
      <trkpt lat="50.06777" lon="4.19562">
        <ele>197.6</ele>
        <time>2024-04-26T05:31:33Z</time>
      </trkpt>
      <trkpt lat="50.06783" lon="4.19564">
        <ele>197.6</ele>
        <time>2024-04-26T05:31:34Z</time>
      </trkpt>
      <trkpt lat="50.06788" lon="4.19566">
        <ele>197.6</ele>
        <time>2024-04-26T05:31:35Z</time>
      </trkpt>
      <trkpt lat="50.06794" lon="4.19568">
        <ele>197.8</ele>
        <time>2024-04-26T05:31:36Z</time>
      </trkpt>
      <trkpt lat="50.068" lon="4.19571">
        <ele>197.8</ele>
        <time>2024-04-26T05:31:37Z</time>
      </trkpt>
      <trkpt lat="50.06806" lon="4.19573">
        <ele>198</ele>
        <time>2024-04-26T05:31:38Z</time>
      </trkpt>
      <trkpt lat="50.06813" lon="4.19576">
        <ele>198</ele>
        <time>2024-04-26T05:31:39Z</time>
      </trkpt>
      <trkpt lat="50.06819" lon="4.19578">
        <ele>198</ele>
        <time>2024-04-26T05:31:40Z</time>
      </trkpt>
      <trkpt lat="50.06825" lon="4.1958">
        <ele>198.2</ele>
        <time>2024-04-26T05:31:41Z</time>
      </trkpt>
      <trkpt lat="50.06832" lon="4.19583">
        <ele>198.2</ele>
        <time>2024-04-26T05:31:42Z</time>
      </trkpt>
      <trkpt lat="50.06839" lon="4.19585">
        <ele>198.6</ele>
        <time>2024-04-26T05:31:43Z</time>
      </trkpt>
      <trkpt lat="50.06846" lon="4.19588">
        <ele>198.6</ele>
        <time>2024-04-26T05:31:44Z</time>
      </trkpt>
      <trkpt lat="50.06853" lon="4.1959">
        <ele>198.6</ele>
        <time>2024-04-26T05:31:45Z</time>
      </trkpt>
      <trkpt lat="50.0686" lon="4.19593">
        <ele>199</ele>
        <time>2024-04-26T05:31:46Z</time>
      </trkpt>
      <trkpt lat="50.06868" lon="4.19596">
        <ele>199</ele>
        <time>2024-04-26T05:31:47Z</time>
      </trkpt>
      <trkpt lat="50.06876" lon="4.19598">
        <ele>199</ele>
        <time>2024-04-26T05:31:48Z</time>
      </trkpt>
      <trkpt lat="50.06883" lon="4.19601">
        <ele>199.2</ele>
        <time>2024-04-26T05:31:49Z</time>
      </trkpt>
      <trkpt lat="50.06891" lon="4.19603">
        <ele>199</ele>
        <time>2024-04-26T05:31:50Z</time>
      </trkpt>
      <trkpt lat="50.06899" lon="4.19605">
        <ele>199</ele>
        <time>2024-04-26T05:31:51Z</time>
      </trkpt>
      <trkpt lat="50.06907" lon="4.19607">
        <ele>199</ele>
        <time>2024-04-26T05:31:52Z</time>
      </trkpt>
      <trkpt lat="50.06915" lon="4.19609">
        <ele>199</ele>
        <time>2024-04-26T05:31:53Z</time>
      </trkpt>
      <trkpt lat="50.06923" lon="4.1961">
        <ele>199.2</ele>
        <time>2024-04-26T05:31:54Z</time>
      </trkpt>
      <trkpt lat="50.06931" lon="4.1961">
        <ele>199</ele>
        <time>2024-04-26T05:31:55Z</time>
      </trkpt>
      <trkpt lat="50.06939" lon="4.1961">
        <ele>199</ele>
        <time>2024-04-26T05:31:56Z</time>
      </trkpt>
      <trkpt lat="50.06947" lon="4.1961">
        <ele>199.2</ele>
        <time>2024-04-26T05:31:57Z</time>
      </trkpt>
      <trkpt lat="50.06955" lon="4.19609">
        <ele>198.8</ele>
        <time>2024-04-26T05:31:58Z</time>
      </trkpt>
      <trkpt lat="50.06963" lon="4.19608">
        <ele>197.8</ele>
        <time>2024-04-26T05:31:59Z</time>
      </trkpt>
      <trkpt lat="50.06972" lon="4.19607">
        <ele>197.2</ele>
        <time>2024-04-26T05:32:00Z</time>
      </trkpt>
      <trkpt lat="50.0698" lon="4.19606">
        <ele>196.6</ele>
        <time>2024-04-26T05:32:01Z</time>
      </trkpt>
      <trkpt lat="50.06987" lon="4.19605">
        <ele>196.4</ele>
        <time>2024-04-26T05:32:02Z</time>
      </trkpt>
      <trkpt lat="50.06995" lon="4.19603">
        <ele>196.2</ele>
        <time>2024-04-26T05:32:03Z</time>
      </trkpt>
      <trkpt lat="50.07003" lon="4.19602">
        <ele>196.2</ele>
        <time>2024-04-26T05:32:04Z</time>
      </trkpt>
      <trkpt lat="50.07011" lon="4.19601">
        <ele>195.8</ele>
        <time>2024-04-26T05:32:05Z</time>
      </trkpt>
      <trkpt lat="50.07018" lon="4.196">
        <ele>195.8</ele>
        <time>2024-04-26T05:32:06Z</time>
      </trkpt>
      <trkpt lat="50.07026" lon="4.19599">
        <ele>195.6</ele>
        <time>2024-04-26T05:32:07Z</time>
      </trkpt>
      <trkpt lat="50.07033" lon="4.19597">
        <ele>195.6</ele>
        <time>2024-04-26T05:32:08Z</time>
      </trkpt>
      <trkpt lat="50.07041" lon="4.19596">
        <ele>195.4</ele>
        <time>2024-04-26T05:32:09Z</time>
      </trkpt>
      <trkpt lat="50.07049" lon="4.19595">
        <ele>195.2</ele>
        <time>2024-04-26T05:32:10Z</time>
      </trkpt>
      <trkpt lat="50.07056" lon="4.19593">
        <ele>195.2</ele>
        <time>2024-04-26T05:32:11Z</time>
      </trkpt>
      <trkpt lat="50.07063" lon="4.19592">
        <ele>195.4</ele>
        <time>2024-04-26T05:32:12Z</time>
      </trkpt>
      <trkpt lat="50.07071" lon="4.19591">
        <ele>195.2</ele>
        <time>2024-04-26T05:32:13Z</time>
      </trkpt>
      <trkpt lat="50.07078" lon="4.1959">
        <ele>195.4</ele>
        <time>2024-04-26T05:32:14Z</time>
      </trkpt>
      <trkpt lat="50.07086" lon="4.19589">
        <ele>195.2</ele>
        <time>2024-04-26T05:32:15Z</time>
      </trkpt>
      <trkpt lat="50.07093" lon="4.19587">
        <ele>195.2</ele>
        <time>2024-04-26T05:32:16Z</time>
      </trkpt>
      <trkpt lat="50.071" lon="4.19586">
        <ele>195.2</ele>
        <time>2024-04-26T05:32:17Z</time>
      </trkpt>
      <trkpt lat="50.07108" lon="4.19585">
        <ele>195</ele>
        <time>2024-04-26T05:32:18Z</time>
      </trkpt>
      <trkpt lat="50.07115" lon="4.19584">
        <ele>195.2</ele>
        <time>2024-04-26T05:32:19Z</time>
      </trkpt>
      <trkpt lat="50.07123" lon="4.19583">
        <ele>195</ele>
        <time>2024-04-26T05:32:20Z</time>
      </trkpt>
      <trkpt lat="50.0713" lon="4.19582">
        <ele>195</ele>
        <time>2024-04-26T05:32:21Z</time>
      </trkpt>
      <trkpt lat="50.07137" lon="4.19581">
        <ele>194.8</ele>
        <time>2024-04-26T05:32:22Z</time>
      </trkpt>
      <trkpt lat="50.07144" lon="4.1958">
        <ele>194.8</ele>
        <time>2024-04-26T05:32:23Z</time>
      </trkpt>
      <trkpt lat="50.07151" lon="4.19579">
        <ele>194.4</ele>
        <time>2024-04-26T05:32:24Z</time>
      </trkpt>
      <trkpt lat="50.07158" lon="4.19578">
        <ele>194.4</ele>
        <time>2024-04-26T05:32:25Z</time>
      </trkpt>
      <trkpt lat="50.07166" lon="4.19577">
        <ele>194.2</ele>
        <time>2024-04-26T05:32:26Z</time>
      </trkpt>
      <trkpt lat="50.07174" lon="4.19576">
        <ele>194.2</ele>
        <time>2024-04-26T05:32:27Z</time>
      </trkpt>
      <trkpt lat="50.07181" lon="4.19575">
        <ele>194</ele>
        <time>2024-04-26T05:32:28Z</time>
      </trkpt>
      <trkpt lat="50.07189" lon="4.19574">
        <ele>194</ele>
        <time>2024-04-26T05:32:29Z</time>
      </trkpt>
      <trkpt lat="50.07196" lon="4.19573">
        <ele>193.8</ele>
        <time>2024-04-26T05:32:30Z</time>
      </trkpt>
      <trkpt lat="50.07204" lon="4.19572">
        <ele>193.6</ele>
        <time>2024-04-26T05:32:31Z</time>
      </trkpt>
      <trkpt lat="50.07211" lon="4.19571">
        <ele>193.8</ele>
        <time>2024-04-26T05:32:32Z</time>
      </trkpt>
      <trkpt lat="50.07219" lon="4.1957">
        <ele>193.6</ele>
        <time>2024-04-26T05:32:33Z</time>
      </trkpt>
      <trkpt lat="50.07226" lon="4.1957">
        <ele>193.6</ele>
        <time>2024-04-26T05:32:34Z</time>
      </trkpt>
      <trkpt lat="50.07233" lon="4.19569">
        <ele>193.6</ele>
        <time>2024-04-26T05:32:35Z</time>
      </trkpt>
      <trkpt lat="50.07241" lon="4.19568">
        <ele>193.6</ele>
        <time>2024-04-26T05:32:36Z</time>
      </trkpt>
      <trkpt lat="50.07248" lon="4.19568">
        <ele>193.4</ele>
        <time>2024-04-26T05:32:37Z</time>
      </trkpt>
      <trkpt lat="50.07255" lon="4.19567">
        <ele>193.4</ele>
        <time>2024-04-26T05:32:38Z</time>
      </trkpt>
      <trkpt lat="50.07263" lon="4.19566">
        <ele>193.4</ele>
        <time>2024-04-26T05:32:39Z</time>
      </trkpt>
      <trkpt lat="50.0727" lon="4.19565">
        <ele>193.4</ele>
        <time>2024-04-26T05:32:40Z</time>
      </trkpt>
      <trkpt lat="50.07277" lon="4.19564">
        <ele>193.4</ele>
        <time>2024-04-26T05:32:41Z</time>
      </trkpt>
      <trkpt lat="50.07285" lon="4.19564">
        <ele>193.4</ele>
        <time>2024-04-26T05:32:42Z</time>
      </trkpt>
      <trkpt lat="50.07292" lon="4.19563">
        <ele>193.4</ele>
        <time>2024-04-26T05:32:43Z</time>
      </trkpt>
      <trkpt lat="50.073" lon="4.19562">
        <ele>193.2</ele>
        <time>2024-04-26T05:32:44Z</time>
      </trkpt>
      <trkpt lat="50.07308" lon="4.19561">
        <ele>193</ele>
        <time>2024-04-26T05:32:45Z</time>
      </trkpt>
      <trkpt lat="50.07315" lon="4.19561">
        <ele>193</ele>
        <time>2024-04-26T05:32:46Z</time>
      </trkpt>
      <trkpt lat="50.07323" lon="4.1956">
        <ele>192.4</ele>
        <time>2024-04-26T05:32:47Z</time>
      </trkpt>
      <trkpt lat="50.07331" lon="4.19559">
        <ele>192.4</ele>
        <time>2024-04-26T05:32:48Z</time>
      </trkpt>
      <trkpt lat="50.07339" lon="4.19559">
        <ele>192.2</ele>
        <time>2024-04-26T05:32:49Z</time>
      </trkpt>
      <trkpt lat="50.07347" lon="4.19558">
        <ele>191.8</ele>
        <time>2024-04-26T05:32:50Z</time>
      </trkpt>
      <trkpt lat="50.07354" lon="4.19558">
        <ele>191.6</ele>
        <time>2024-04-26T05:32:51Z</time>
      </trkpt>
      <trkpt lat="50.07362" lon="4.19557">
        <ele>191.6</ele>
        <time>2024-04-26T05:32:52Z</time>
      </trkpt>
      <trkpt lat="50.0737" lon="4.19557">
        <ele>191.4</ele>
        <time>2024-04-26T05:32:53Z</time>
      </trkpt>
      <trkpt lat="50.07378" lon="4.19556">
        <ele>191.2</ele>
        <time>2024-04-26T05:32:54Z</time>
      </trkpt>
      <trkpt lat="50.07386" lon="4.19556">
        <ele>190.8</ele>
        <time>2024-04-26T05:32:55Z</time>
      </trkpt>
      <trkpt lat="50.07394" lon="4.19556">
        <ele>190.8</ele>
        <time>2024-04-26T05:32:56Z</time>
      </trkpt>
      <trkpt lat="50.07402" lon="4.19556">
        <ele>190.6</ele>
        <time>2024-04-26T05:32:57Z</time>
      </trkpt>
      <trkpt lat="50.0741" lon="4.19556">
        <ele>190.6</ele>
        <time>2024-04-26T05:32:58Z</time>
      </trkpt>
      <trkpt lat="50.07418" lon="4.19557">
        <ele>190.4</ele>
        <time>2024-04-26T05:32:59Z</time>
      </trkpt>
      <trkpt lat="50.07426" lon="4.19558">
        <ele>190.2</ele>
        <time>2024-04-26T05:33:00Z</time>
      </trkpt>
      <trkpt lat="50.07434" lon="4.19559">
        <ele>190.2</ele>
        <time>2024-04-26T05:33:01Z</time>
      </trkpt>
      <trkpt lat="50.07442" lon="4.1956">
        <ele>190.2</ele>
        <time>2024-04-26T05:33:02Z</time>
      </trkpt>
      <trkpt lat="50.07451" lon="4.19561">
        <ele>190.2</ele>
        <time>2024-04-26T05:33:03Z</time>
      </trkpt>
      <trkpt lat="50.07459" lon="4.19562">
        <ele>190</ele>
        <time>2024-04-26T05:33:04Z</time>
      </trkpt>
      <trkpt lat="50.07468" lon="4.19564">
        <ele>190</ele>
        <time>2024-04-26T05:33:05Z</time>
      </trkpt>
      <trkpt lat="50.07476" lon="4.19565">
        <ele>190.2</ele>
        <time>2024-04-26T05:33:06Z</time>
      </trkpt>
      <trkpt lat="50.07484" lon="4.19566">
        <ele>189.8</ele>
        <time>2024-04-26T05:33:07Z</time>
      </trkpt>
      <trkpt lat="50.07493" lon="4.19566">
        <ele>189.8</ele>
        <time>2024-04-26T05:33:08Z</time>
      </trkpt>
      <trkpt lat="50.07501" lon="4.19566">
        <ele>189.4</ele>
        <time>2024-04-26T05:33:09Z</time>
      </trkpt>
      <trkpt lat="50.07509" lon="4.19564">
        <ele>189.4</ele>
        <time>2024-04-26T05:33:10Z</time>
      </trkpt>
      <trkpt lat="50.07517" lon="4.1956">
        <ele>189.2</ele>
        <time>2024-04-26T05:33:11Z</time>
      </trkpt>
      <trkpt lat="50.07524" lon="4.19554">
        <ele>189</ele>
        <time>2024-04-26T05:33:12Z</time>
      </trkpt>
      <trkpt lat="50.07531" lon="4.19547">
        <ele>188.8</ele>
        <time>2024-04-26T05:33:13Z</time>
      </trkpt>
      <trkpt lat="50.07536" lon="4.19539">
        <ele>188.2</ele>
        <time>2024-04-26T05:33:14Z</time>
      </trkpt>
      <trkpt lat="50.07541" lon="4.19529">
        <ele>188</ele>
        <time>2024-04-26T05:33:15Z</time>
      </trkpt>
      <trkpt lat="50.07546" lon="4.19518">
        <ele>187.8</ele>
        <time>2024-04-26T05:33:16Z</time>
      </trkpt>
      <trkpt lat="50.0755" lon="4.19508">
        <ele>187.6</ele>
        <time>2024-04-26T05:33:17Z</time>
      </trkpt>
      <trkpt lat="50.07554" lon="4.19497">
        <ele>187.6</ele>
        <time>2024-04-26T05:33:18Z</time>
      </trkpt>
      <trkpt lat="50.07557" lon="4.19486">
        <ele>187.4</ele>
        <time>2024-04-26T05:33:19Z</time>
      </trkpt>
      <trkpt lat="50.07561" lon="4.19475">
        <ele>187.4</ele>
        <time>2024-04-26T05:33:20Z</time>
      </trkpt>
      <trkpt lat="50.07564" lon="4.19465">
        <ele>187.4</ele>
        <time>2024-04-26T05:33:21Z</time>
      </trkpt>
      <trkpt lat="50.07568" lon="4.19455">
        <ele>187.4</ele>
        <time>2024-04-26T05:33:22Z</time>
      </trkpt>
      <trkpt lat="50.07572" lon="4.19445">
        <ele>187.4</ele>
        <time>2024-04-26T05:33:23Z</time>
      </trkpt>
      <trkpt lat="50.07576" lon="4.19436">
        <ele>187.4</ele>
        <time>2024-04-26T05:33:24Z</time>
      </trkpt>
      <trkpt lat="50.0758" lon="4.19426">
        <ele>187.4</ele>
        <time>2024-04-26T05:33:25Z</time>
      </trkpt>
      <trkpt lat="50.07584" lon="4.19417">
        <ele>187.4</ele>
        <time>2024-04-26T05:33:26Z</time>
      </trkpt>
      <trkpt lat="50.07589" lon="4.19408">
        <ele>187.4</ele>
        <time>2024-04-26T05:33:27Z</time>
      </trkpt>
      <trkpt lat="50.07594" lon="4.194">
        <ele>187.4</ele>
        <time>2024-04-26T05:33:28Z</time>
      </trkpt>
      <trkpt lat="50.07599" lon="4.19392">
        <ele>187.2</ele>
        <time>2024-04-26T05:33:29Z</time>
      </trkpt>
      <trkpt lat="50.07605" lon="4.19385">
        <ele>187.2</ele>
        <time>2024-04-26T05:33:30Z</time>
      </trkpt>
      <trkpt lat="50.0761" lon="4.19379">
        <ele>187.4</ele>
        <time>2024-04-26T05:33:31Z</time>
      </trkpt>
      <trkpt lat="50.07616" lon="4.19373">
        <ele>187.2</ele>
        <time>2024-04-26T05:33:32Z</time>
      </trkpt>
      <trkpt lat="50.07622" lon="4.19368">
        <ele>187.2</ele>
        <time>2024-04-26T05:33:33Z</time>
      </trkpt>
      <trkpt lat="50.07628" lon="4.19363">
        <ele>187.2</ele>
        <time>2024-04-26T05:33:34Z</time>
      </trkpt>
      <trkpt lat="50.07633" lon="4.19359">
        <ele>187.2</ele>
        <time>2024-04-26T05:33:35Z</time>
      </trkpt>
      <trkpt lat="50.07639" lon="4.19355">
        <ele>187.4</ele>
        <time>2024-04-26T05:33:36Z</time>
      </trkpt>
      <trkpt lat="50.07644" lon="4.19351">
        <ele>187.4</ele>
        <time>2024-04-26T05:33:37Z</time>
      </trkpt>
      <trkpt lat="50.07649" lon="4.19346">
        <ele>187.4</ele>
        <time>2024-04-26T05:33:38Z</time>
      </trkpt>
      <trkpt lat="50.07654" lon="4.19342">
        <ele>187.4</ele>
        <time>2024-04-26T05:33:39Z</time>
      </trkpt>
      <trkpt lat="50.07659" lon="4.19337">
        <ele>187.4</ele>
        <time>2024-04-26T05:33:40Z</time>
      </trkpt>
      <trkpt lat="50.07664" lon="4.19333">
        <ele>187.6</ele>
        <time>2024-04-26T05:33:41Z</time>
      </trkpt>
      <trkpt lat="50.07669" lon="4.19329">
        <ele>187.6</ele>
        <time>2024-04-26T05:33:42Z</time>
      </trkpt>
      <trkpt lat="50.07674" lon="4.19325">
        <ele>187.8</ele>
        <time>2024-04-26T05:33:43Z</time>
      </trkpt>
      <trkpt lat="50.07679" lon="4.1932">
        <ele>187.8</ele>
        <time>2024-04-26T05:33:44Z</time>
      </trkpt>
      <trkpt lat="50.07684" lon="4.19316">
        <ele>187.8</ele>
        <time>2024-04-26T05:33:45Z</time>
      </trkpt>
      <trkpt lat="50.0769" lon="4.19312">
        <ele>187.8</ele>
        <time>2024-04-26T05:33:46Z</time>
      </trkpt>
      <trkpt lat="50.07695" lon="4.19308">
        <ele>187.8</ele>
        <time>2024-04-26T05:33:47Z</time>
      </trkpt>
      <trkpt lat="50.077" lon="4.19305">
        <ele>188.2</ele>
        <time>2024-04-26T05:33:48Z</time>
      </trkpt>
      <trkpt lat="50.07706" lon="4.19301">
        <ele>188.6</ele>
        <time>2024-04-26T05:33:49Z</time>
      </trkpt>
      <trkpt lat="50.07711" lon="4.19298">
        <ele>188.8</ele>
        <time>2024-04-26T05:33:50Z</time>
      </trkpt>
      <trkpt lat="50.07717" lon="4.19295">
        <ele>189.2</ele>
        <time>2024-04-26T05:33:51Z</time>
      </trkpt>
      <trkpt lat="50.07722" lon="4.19292">
        <ele>189.4</ele>
        <time>2024-04-26T05:33:52Z</time>
      </trkpt>
      <trkpt lat="50.07728" lon="4.19288">
        <ele>189.6</ele>
        <time>2024-04-26T05:33:53Z</time>
      </trkpt>
      <trkpt lat="50.07733" lon="4.19285">
        <ele>190</ele>
        <time>2024-04-26T05:33:54Z</time>
      </trkpt>
      <trkpt lat="50.07739" lon="4.19282">
        <ele>190</ele>
        <time>2024-04-26T05:33:55Z</time>
      </trkpt>
      <trkpt lat="50.07744" lon="4.19279">
        <ele>190.6</ele>
        <time>2024-04-26T05:33:56Z</time>
      </trkpt>
      <trkpt lat="50.0775" lon="4.19276">
        <ele>190.8</ele>
        <time>2024-04-26T05:33:57Z</time>
      </trkpt>
      <trkpt lat="50.07756" lon="4.19272">
        <ele>191.4</ele>
        <time>2024-04-26T05:33:58Z</time>
      </trkpt>
      <trkpt lat="50.07761" lon="4.19268">
        <ele>191.6</ele>
        <time>2024-04-26T05:33:59Z</time>
      </trkpt>
      <trkpt lat="50.07767" lon="4.19264">
        <ele>191.8</ele>
        <time>2024-04-26T05:34:00Z</time>
      </trkpt>
      <trkpt lat="50.07773" lon="4.1926">
        <ele>192.2</ele>
        <time>2024-04-26T05:34:01Z</time>
      </trkpt>
      <trkpt lat="50.07779" lon="4.19256">
        <ele>192.6</ele>
        <time>2024-04-26T05:34:02Z</time>
      </trkpt>
      <trkpt lat="50.07785" lon="4.19251">
        <ele>192.8</ele>
        <time>2024-04-26T05:34:03Z</time>
      </trkpt>
      <trkpt lat="50.07792" lon="4.19246">
        <ele>193</ele>
        <time>2024-04-26T05:34:04Z</time>
      </trkpt>
      <trkpt lat="50.07798" lon="4.19241">
        <ele>193.2</ele>
        <time>2024-04-26T05:34:05Z</time>
      </trkpt>
      <trkpt lat="50.07804" lon="4.19236">
        <ele>193.2</ele>
        <time>2024-04-26T05:34:06Z</time>
      </trkpt>
      <trkpt lat="50.0781" lon="4.19231">
        <ele>193.2</ele>
        <time>2024-04-26T05:34:07Z</time>
      </trkpt>
      <trkpt lat="50.07816" lon="4.19226">
        <ele>193.2</ele>
        <time>2024-04-26T05:34:08Z</time>
      </trkpt>
      <trkpt lat="50.07823" lon="4.19221">
        <ele>193.2</ele>
        <time>2024-04-26T05:34:09Z</time>
      </trkpt>
      <trkpt lat="50.07829" lon="4.19216">
        <ele>193.2</ele>
        <time>2024-04-26T05:34:10Z</time>
      </trkpt>
      <trkpt lat="50.07835" lon="4.19211">
        <ele>193.2</ele>
        <time>2024-04-26T05:34:11Z</time>
      </trkpt>
      <trkpt lat="50.07841" lon="4.19206">
        <ele>193.2</ele>
        <time>2024-04-26T05:34:12Z</time>
      </trkpt>
      <trkpt lat="50.07847" lon="4.19201">
        <ele>193.2</ele>
        <time>2024-04-26T05:34:13Z</time>
      </trkpt>
      <trkpt lat="50.07854" lon="4.19196">
        <ele>193.2</ele>
        <time>2024-04-26T05:34:14Z</time>
      </trkpt>
      <trkpt lat="50.07861" lon="4.19191">
        <ele>193.2</ele>
        <time>2024-04-26T05:34:15Z</time>
      </trkpt>
      <trkpt lat="50.07867" lon="4.19187">
        <ele>193.2</ele>
        <time>2024-04-26T05:34:16Z</time>
      </trkpt>
      <trkpt lat="50.07874" lon="4.19182">
        <ele>192.8</ele>
        <time>2024-04-26T05:34:17Z</time>
      </trkpt>
      <trkpt lat="50.07881" lon="4.19178">
        <ele>192.6</ele>
        <time>2024-04-26T05:34:18Z</time>
      </trkpt>
      <trkpt lat="50.07888" lon="4.19173">
        <ele>192.4</ele>
        <time>2024-04-26T05:34:19Z</time>
      </trkpt>
      <trkpt lat="50.07895" lon="4.19169">
        <ele>192.2</ele>
        <time>2024-04-26T05:34:20Z</time>
      </trkpt>
      <trkpt lat="50.07902" lon="4.19164">
        <ele>192.2</ele>
        <time>2024-04-26T05:34:21Z</time>
      </trkpt>
      <trkpt lat="50.07909" lon="4.19159">
        <ele>192.2</ele>
        <time>2024-04-26T05:34:22Z</time>
      </trkpt>
      <trkpt lat="50.07917" lon="4.19155">
        <ele>192.2</ele>
        <time>2024-04-26T05:34:23Z</time>
      </trkpt>
      <trkpt lat="50.07925" lon="4.1915">
        <ele>192</ele>
        <time>2024-04-26T05:34:24Z</time>
      </trkpt>
      <trkpt lat="50.07932" lon="4.19145">
        <ele>192</ele>
        <time>2024-04-26T05:34:25Z</time>
      </trkpt>
      <trkpt lat="50.0794" lon="4.1914">
        <ele>192</ele>
        <time>2024-04-26T05:34:26Z</time>
      </trkpt>
      <trkpt lat="50.07948" lon="4.19135">
        <ele>192</ele>
        <time>2024-04-26T05:34:27Z</time>
      </trkpt>
      <trkpt lat="50.07955" lon="4.1913">
        <ele>192</ele>
        <time>2024-04-26T05:34:28Z</time>
      </trkpt>
      <trkpt lat="50.07963" lon="4.19125">
        <ele>192</ele>
        <time>2024-04-26T05:34:29Z</time>
      </trkpt>
      <trkpt lat="50.07971" lon="4.19121">
        <ele>191.8</ele>
        <time>2024-04-26T05:34:30Z</time>
      </trkpt>
      <trkpt lat="50.07979" lon="4.19117">
        <ele>191.8</ele>
        <time>2024-04-26T05:34:31Z</time>
      </trkpt>
      <trkpt lat="50.07987" lon="4.19113">
        <ele>191.4</ele>
        <time>2024-04-26T05:34:32Z</time>
      </trkpt>
      <trkpt lat="50.07995" lon="4.1911">
        <ele>191</ele>
        <time>2024-04-26T05:34:33Z</time>
      </trkpt>
      <trkpt lat="50.08003" lon="4.19107">
        <ele>190.8</ele>
        <time>2024-04-26T05:34:34Z</time>
      </trkpt>
      <trkpt lat="50.0801" lon="4.19104">
        <ele>190.6</ele>
        <time>2024-04-26T05:34:35Z</time>
      </trkpt>
      <trkpt lat="50.08018" lon="4.19102">
        <ele>190.6</ele>
        <time>2024-04-26T05:34:36Z</time>
      </trkpt>
      <trkpt lat="50.08026" lon="4.191">
        <ele>190.4</ele>
        <time>2024-04-26T05:34:37Z</time>
      </trkpt>
      <trkpt lat="50.08033" lon="4.19098">
        <ele>190.2</ele>
        <time>2024-04-26T05:34:38Z</time>
      </trkpt>
      <trkpt lat="50.08041" lon="4.19096">
        <ele>190.2</ele>
        <time>2024-04-26T05:34:39Z</time>
      </trkpt>
      <trkpt lat="50.08048" lon="4.19094">
        <ele>190.2</ele>
        <time>2024-04-26T05:34:40Z</time>
      </trkpt>
      <trkpt lat="50.08055" lon="4.19094">
        <ele>190</ele>
        <time>2024-04-26T05:34:41Z</time>
      </trkpt>
      <trkpt lat="50.08063" lon="4.19093">
        <ele>190.2</ele>
        <time>2024-04-26T05:34:42Z</time>
      </trkpt>
      <trkpt lat="50.08071" lon="4.19093">
        <ele>190</ele>
        <time>2024-04-26T05:34:43Z</time>
      </trkpt>
      <trkpt lat="50.08078" lon="4.19092">
        <ele>190</ele>
        <time>2024-04-26T05:34:44Z</time>
      </trkpt>
      <trkpt lat="50.08086" lon="4.19092">
        <ele>190</ele>
        <time>2024-04-26T05:34:45Z</time>
      </trkpt>
      <trkpt lat="50.08094" lon="4.19091">
        <ele>189.6</ele>
        <time>2024-04-26T05:34:46Z</time>
      </trkpt>
      <trkpt lat="50.08101" lon="4.1909">
        <ele>189.8</ele>
        <time>2024-04-26T05:34:47Z</time>
      </trkpt>
      <trkpt lat="50.08109" lon="4.19089">
        <ele>189.6</ele>
        <time>2024-04-26T05:34:48Z</time>
      </trkpt>
      <trkpt lat="50.08116" lon="4.19089">
        <ele>189.8</ele>
        <time>2024-04-26T05:34:49Z</time>
      </trkpt>
      <trkpt lat="50.08124" lon="4.19088">
        <ele>189.8</ele>
        <time>2024-04-26T05:34:50Z</time>
      </trkpt>
      <trkpt lat="50.08131" lon="4.19087">
        <ele>189.8</ele>
        <time>2024-04-26T05:34:51Z</time>
      </trkpt>
      <trkpt lat="50.08138" lon="4.19086">
        <ele>189.8</ele>
        <time>2024-04-26T05:34:52Z</time>
      </trkpt>
      <trkpt lat="50.08146" lon="4.19086">
        <ele>189.6</ele>
        <time>2024-04-26T05:34:53Z</time>
      </trkpt>
      <trkpt lat="50.08153" lon="4.19085">
        <ele>189.6</ele>
        <time>2024-04-26T05:34:54Z</time>
      </trkpt>
      <trkpt lat="50.0816" lon="4.19085">
        <ele>189.6</ele>
        <time>2024-04-26T05:34:55Z</time>
      </trkpt>
      <trkpt lat="50.08167" lon="4.19085">
        <ele>189.6</ele>
        <time>2024-04-26T05:34:56Z</time>
      </trkpt>
      <trkpt lat="50.08174" lon="4.19086">
        <ele>189.8</ele>
        <time>2024-04-26T05:34:57Z</time>
      </trkpt>
      <trkpt lat="50.08181" lon="4.19087">
        <ele>189.8</ele>
        <time>2024-04-26T05:34:58Z</time>
      </trkpt>
      <trkpt lat="50.08187" lon="4.19089">
        <ele>189.6</ele>
        <time>2024-04-26T05:34:59Z</time>
      </trkpt>
      <trkpt lat="50.08194" lon="4.19091">
        <ele>189.8</ele>
        <time>2024-04-26T05:35:00Z</time>
      </trkpt>
      <trkpt lat="50.082" lon="4.19094">
        <ele>190</ele>
        <time>2024-04-26T05:35:01Z</time>
      </trkpt>
      <trkpt lat="50.08206" lon="4.19097">
        <ele>189.8</ele>
        <time>2024-04-26T05:35:02Z</time>
      </trkpt>
      <trkpt lat="50.08212" lon="4.191">
        <ele>190</ele>
        <time>2024-04-26T05:35:03Z</time>
      </trkpt>
      <trkpt lat="50.08218" lon="4.19103">
        <ele>190</ele>
        <time>2024-04-26T05:35:04Z</time>
      </trkpt>
      <trkpt lat="50.08225" lon="4.19107">
        <ele>190</ele>
        <time>2024-04-26T05:35:05Z</time>
      </trkpt>
      <trkpt lat="50.08231" lon="4.1911">
        <ele>190</ele>
        <time>2024-04-26T05:35:06Z</time>
      </trkpt>
      <trkpt lat="50.08237" lon="4.19114">
        <ele>190.4</ele>
        <time>2024-04-26T05:35:07Z</time>
      </trkpt>
      <trkpt lat="50.08243" lon="4.19117">
        <ele>190.4</ele>
        <time>2024-04-26T05:35:08Z</time>
      </trkpt>
      <trkpt lat="50.08249" lon="4.19121">
        <ele>190.8</ele>
        <time>2024-04-26T05:35:09Z</time>
      </trkpt>
      <trkpt lat="50.08255" lon="4.19125">
        <ele>191.2</ele>
        <time>2024-04-26T05:35:10Z</time>
      </trkpt>
      <trkpt lat="50.08261" lon="4.19129">
        <ele>191.2</ele>
        <time>2024-04-26T05:35:11Z</time>
      </trkpt>
      <trkpt lat="50.08267" lon="4.19132">
        <ele>191.4</ele>
        <time>2024-04-26T05:35:12Z</time>
      </trkpt>
      <trkpt lat="50.08273" lon="4.19136">
        <ele>191.6</ele>
        <time>2024-04-26T05:35:13Z</time>
      </trkpt>
      <trkpt lat="50.08279" lon="4.1914">
        <ele>191.6</ele>
        <time>2024-04-26T05:35:14Z</time>
      </trkpt>
      <trkpt lat="50.08285" lon="4.19144">
        <ele>191.8</ele>
        <time>2024-04-26T05:35:15Z</time>
      </trkpt>
      <trkpt lat="50.08291" lon="4.19149">
        <ele>192</ele>
        <time>2024-04-26T05:35:16Z</time>
      </trkpt>
      <trkpt lat="50.08297" lon="4.19153">
        <ele>192</ele>
        <time>2024-04-26T05:35:17Z</time>
      </trkpt>
      <trkpt lat="50.08303" lon="4.19158">
        <ele>192</ele>
        <time>2024-04-26T05:35:18Z</time>
      </trkpt>
      <trkpt lat="50.08308" lon="4.19162">
        <ele>192.2</ele>
        <time>2024-04-26T05:35:19Z</time>
      </trkpt>
      <trkpt lat="50.08314" lon="4.19166">
        <ele>192</ele>
        <time>2024-04-26T05:35:20Z</time>
      </trkpt>
      <trkpt lat="50.0832" lon="4.1917">
        <ele>192.2</ele>
        <time>2024-04-26T05:35:21Z</time>
      </trkpt>
      <trkpt lat="50.08326" lon="4.19174">
        <ele>192.2</ele>
        <time>2024-04-26T05:35:22Z</time>
      </trkpt>
      <trkpt lat="50.08332" lon="4.19178">
        <ele>192.2</ele>
        <time>2024-04-26T05:35:23Z</time>
      </trkpt>
      <trkpt lat="50.08337" lon="4.19181">
        <ele>192.4</ele>
        <time>2024-04-26T05:35:24Z</time>
      </trkpt>
      <trkpt lat="50.08343" lon="4.19184">
        <ele>192.4</ele>
        <time>2024-04-26T05:35:25Z</time>
      </trkpt>
      <trkpt lat="50.0835" lon="4.19187">
        <ele>192.4</ele>
        <time>2024-04-26T05:35:26Z</time>
      </trkpt>
      <trkpt lat="50.08356" lon="4.1919">
        <ele>192.6</ele>
        <time>2024-04-26T05:35:27Z</time>
      </trkpt>
      <trkpt lat="50.08362" lon="4.19192">
        <ele>192.6</ele>
        <time>2024-04-26T05:35:28Z</time>
      </trkpt>
      <trkpt lat="50.08368" lon="4.19194">
        <ele>192.6</ele>
        <time>2024-04-26T05:35:29Z</time>
      </trkpt>
      <trkpt lat="50.08374" lon="4.19196">
        <ele>192.4</ele>
        <time>2024-04-26T05:35:30Z</time>
      </trkpt>
      <trkpt lat="50.0838" lon="4.19197">
        <ele>192.6</ele>
        <time>2024-04-26T05:35:31Z</time>
      </trkpt>
      <trkpt lat="50.08386" lon="4.19199">
        <ele>192.8</ele>
        <time>2024-04-26T05:35:32Z</time>
      </trkpt>
      <trkpt lat="50.08392" lon="4.19201">
        <ele>192.8</ele>
        <time>2024-04-26T05:35:33Z</time>
      </trkpt>
      <trkpt lat="50.08399" lon="4.19202">
        <ele>192.8</ele>
        <time>2024-04-26T05:35:34Z</time>
      </trkpt>
      <trkpt lat="50.08405" lon="4.19203">
        <ele>193.4</ele>
        <time>2024-04-26T05:35:35Z</time>
      </trkpt>
      <trkpt lat="50.08411" lon="4.19204">
        <ele>193.8</ele>
        <time>2024-04-26T05:35:36Z</time>
      </trkpt>
      <trkpt lat="50.08418" lon="4.19206">
        <ele>194.2</ele>
        <time>2024-04-26T05:35:37Z</time>
      </trkpt>
      <trkpt lat="50.08424" lon="4.19207">
        <ele>194.6</ele>
        <time>2024-04-26T05:35:38Z</time>
      </trkpt>
      <trkpt lat="50.08431" lon="4.19209">
        <ele>194.8</ele>
        <time>2024-04-26T05:35:39Z</time>
      </trkpt>
      <trkpt lat="50.08437" lon="4.1921">
        <ele>195</ele>
        <time>2024-04-26T05:35:40Z</time>
      </trkpt>
      <trkpt lat="50.08444" lon="4.19212">
        <ele>195.2</ele>
        <time>2024-04-26T05:35:41Z</time>
      </trkpt>
      <trkpt lat="50.0845" lon="4.19214">
        <ele>195.4</ele>
        <time>2024-04-26T05:35:42Z</time>
      </trkpt>
      <trkpt lat="50.08457" lon="4.19216">
        <ele>195.4</ele>
        <time>2024-04-26T05:35:43Z</time>
      </trkpt>
      <trkpt lat="50.08463" lon="4.19218">
        <ele>195.4</ele>
        <time>2024-04-26T05:35:44Z</time>
      </trkpt>
      <trkpt lat="50.0847" lon="4.1922">
        <ele>195.4</ele>
        <time>2024-04-26T05:35:45Z</time>
      </trkpt>
      <trkpt lat="50.08477" lon="4.19223">
        <ele>195.6</ele>
        <time>2024-04-26T05:35:46Z</time>
      </trkpt>
      <trkpt lat="50.08484" lon="4.19226">
        <ele>195.4</ele>
        <time>2024-04-26T05:35:47Z</time>
      </trkpt>
      <trkpt lat="50.08491" lon="4.19229">
        <ele>195.6</ele>
        <time>2024-04-26T05:35:48Z</time>
      </trkpt>
      <trkpt lat="50.08498" lon="4.19232">
        <ele>195.4</ele>
        <time>2024-04-26T05:35:49Z</time>
      </trkpt>
      <trkpt lat="50.08505" lon="4.19236">
        <ele>195.4</ele>
        <time>2024-04-26T05:35:50Z</time>
      </trkpt>
      <trkpt lat="50.08512" lon="4.1924">
        <ele>195.4</ele>
        <time>2024-04-26T05:35:51Z</time>
      </trkpt>
      <trkpt lat="50.0852" lon="4.19245">
        <ele>195.4</ele>
        <time>2024-04-26T05:35:52Z</time>
      </trkpt>
      <trkpt lat="50.08527" lon="4.19249">
        <ele>195.4</ele>
        <time>2024-04-26T05:35:53Z</time>
      </trkpt>
      <trkpt lat="50.08535" lon="4.19253">
        <ele>195.2</ele>
        <time>2024-04-26T05:35:54Z</time>
      </trkpt>
      <trkpt lat="50.08543" lon="4.19258">
        <ele>195.2</ele>
        <time>2024-04-26T05:35:55Z</time>
      </trkpt>
      <trkpt lat="50.08551" lon="4.19263">
        <ele>195</ele>
        <time>2024-04-26T05:35:56Z</time>
      </trkpt>
      <trkpt lat="50.08559" lon="4.19268">
        <ele>194.8</ele>
        <time>2024-04-26T05:35:57Z</time>
      </trkpt>
      <trkpt lat="50.08567" lon="4.19273">
        <ele>194.6</ele>
        <time>2024-04-26T05:35:58Z</time>
      </trkpt>
      <trkpt lat="50.08575" lon="4.19277">
        <ele>194.2</ele>
        <time>2024-04-26T05:35:59Z</time>
      </trkpt>
      <trkpt lat="50.08584" lon="4.19282">
        <ele>194</ele>
        <time>2024-04-26T05:36:00Z</time>
      </trkpt>
      <trkpt lat="50.08593" lon="4.19288">
        <ele>193.4</ele>
        <time>2024-04-26T05:36:01Z</time>
      </trkpt>
      <trkpt lat="50.08601" lon="4.19292">
        <ele>192.8</ele>
        <time>2024-04-26T05:36:02Z</time>
      </trkpt>
      <trkpt lat="50.0861" lon="4.19297">
        <ele>192.6</ele>
        <time>2024-04-26T05:36:03Z</time>
      </trkpt>
      <trkpt lat="50.08619" lon="4.19301">
        <ele>192.4</ele>
        <time>2024-04-26T05:36:04Z</time>
      </trkpt>
      <trkpt lat="50.08628" lon="4.19305">
        <ele>192.2</ele>
        <time>2024-04-26T05:36:05Z</time>
      </trkpt>
      <trkpt lat="50.08637" lon="4.19309">
        <ele>191.8</ele>
        <time>2024-04-26T05:36:06Z</time>
      </trkpt>
      <trkpt lat="50.08646" lon="4.19313">
        <ele>191.4</ele>
        <time>2024-04-26T05:36:07Z</time>
      </trkpt>
      <trkpt lat="50.08654" lon="4.19316">
        <ele>191.2</ele>
        <time>2024-04-26T05:36:08Z</time>
      </trkpt>
      <trkpt lat="50.08663" lon="4.1932">
        <ele>190.6</ele>
        <time>2024-04-26T05:36:09Z</time>
      </trkpt>
      <trkpt lat="50.08672" lon="4.19323">
        <ele>190.2</ele>
        <time>2024-04-26T05:36:10Z</time>
      </trkpt>
      <trkpt lat="50.0868" lon="4.19326">
        <ele>189.8</ele>
        <time>2024-04-26T05:36:11Z</time>
      </trkpt>
      <trkpt lat="50.08689" lon="4.19328">
        <ele>189.8</ele>
        <time>2024-04-26T05:36:12Z</time>
      </trkpt>
      <trkpt lat="50.08698" lon="4.19331">
        <ele>189.4</ele>
        <time>2024-04-26T05:36:13Z</time>
      </trkpt>
      <trkpt lat="50.08706" lon="4.19333">
        <ele>189</ele>
        <time>2024-04-26T05:36:14Z</time>
      </trkpt>
      <trkpt lat="50.08715" lon="4.19335">
        <ele>188.6</ele>
        <time>2024-04-26T05:36:15Z</time>
      </trkpt>
      <trkpt lat="50.08723" lon="4.19336">
        <ele>188.2</ele>
        <time>2024-04-26T05:36:16Z</time>
      </trkpt>
      <trkpt lat="50.0873" lon="4.19336">
        <ele>188.2</ele>
        <time>2024-04-26T05:36:17Z</time>
      </trkpt>
      <trkpt lat="50.08738" lon="4.19336">
        <ele>188</ele>
        <time>2024-04-26T05:36:18Z</time>
      </trkpt>
      <trkpt lat="50.08746" lon="4.19335">
        <ele>188</ele>
        <time>2024-04-26T05:36:19Z</time>
      </trkpt>
      <trkpt lat="50.08755" lon="4.19334">
        <ele>187.8</ele>
        <time>2024-04-26T05:36:20Z</time>
      </trkpt>
      <trkpt lat="50.08763" lon="4.19333">
        <ele>187.8</ele>
        <time>2024-04-26T05:36:21Z</time>
      </trkpt>
      <trkpt lat="50.08771" lon="4.19333">
        <ele>187.4</ele>
        <time>2024-04-26T05:36:22Z</time>
      </trkpt>
      <trkpt lat="50.08779" lon="4.19332">
        <ele>187.6</ele>
        <time>2024-04-26T05:36:23Z</time>
      </trkpt>
      <trkpt lat="50.08787" lon="4.19331">
        <ele>187.2</ele>
        <time>2024-04-26T05:36:24Z</time>
      </trkpt>
      <trkpt lat="50.08796" lon="4.1933">
        <ele>187.4</ele>
        <time>2024-04-26T05:36:25Z</time>
      </trkpt>
      <trkpt lat="50.08804" lon="4.19329">
        <ele>187.2</ele>
        <time>2024-04-26T05:36:26Z</time>
      </trkpt>
      <trkpt lat="50.08811" lon="4.19328">
        <ele>187.2</ele>
        <time>2024-04-26T05:36:27Z</time>
      </trkpt>
      <trkpt lat="50.08819" lon="4.19327">
        <ele>187.2</ele>
        <time>2024-04-26T05:36:28Z</time>
      </trkpt>
      <trkpt lat="50.08826" lon="4.19325">
        <ele>187</ele>
        <time>2024-04-26T05:36:29Z</time>
      </trkpt>
      <trkpt lat="50.08834" lon="4.19324">
        <ele>187</ele>
        <time>2024-04-26T05:36:30Z</time>
      </trkpt>
      <trkpt lat="50.08841" lon="4.19323">
        <ele>187</ele>
        <time>2024-04-26T05:36:31Z</time>
      </trkpt>
      <trkpt lat="50.08848" lon="4.19322">
        <ele>186.8</ele>
        <time>2024-04-26T05:36:32Z</time>
      </trkpt>
      <trkpt lat="50.08855" lon="4.19321">
        <ele>187</ele>
        <time>2024-04-26T05:36:33Z</time>
      </trkpt>
      <trkpt lat="50.08862" lon="4.1932">
        <ele>187</ele>
        <time>2024-04-26T05:36:34Z</time>
      </trkpt>
      <trkpt lat="50.08868" lon="4.1932">
        <ele>187</ele>
        <time>2024-04-26T05:36:35Z</time>
      </trkpt>
      <trkpt lat="50.08874" lon="4.19319">
        <ele>187</ele>
        <time>2024-04-26T05:36:36Z</time>
      </trkpt>
      <trkpt lat="50.0888" lon="4.19318">
        <ele>187.2</ele>
        <time>2024-04-26T05:36:37Z</time>
      </trkpt>
      <trkpt lat="50.08886" lon="4.19317">
        <ele>187</ele>
        <time>2024-04-26T05:36:38Z</time>
      </trkpt>
      <trkpt lat="50.08892" lon="4.19317">
        <ele>187</ele>
        <time>2024-04-26T05:36:39Z</time>
      </trkpt>
      <trkpt lat="50.08898" lon="4.19316">
        <ele>187</ele>
        <time>2024-04-26T05:36:40Z</time>
      </trkpt>
      <trkpt lat="50.08903" lon="4.19316">
        <ele>187.2</ele>
        <time>2024-04-26T05:36:41Z</time>
      </trkpt>
      <trkpt lat="50.08906" lon="4.19318">
        <ele>187.2</ele>
        <time>2024-04-26T05:36:42Z</time>
      </trkpt>
      <trkpt lat="50.08909" lon="4.19319">
        <ele>187.4</ele>
        <time>2024-04-26T05:36:43Z</time>
      </trkpt>
      <trkpt lat="50.0891" lon="4.19319">
        <ele>187.6</ele>
        <time>2024-04-26T05:36:44Z</time>
      </trkpt>
      <trkpt lat="50.0891" lon="4.19319">
        <ele>187.6</ele>
        <time>2024-04-26T05:36:45Z</time>
      </trkpt>
      <trkpt lat="50.0891" lon="4.19319">
        <ele>187.6</ele>
        <time>2024-04-26T05:36:46Z</time>
      </trkpt>
      <trkpt lat="50.0891" lon="4.19319">
        <ele>187.6</ele>
        <time>2024-04-26T05:36:47Z</time>
      </trkpt>
      <trkpt lat="50.0891" lon="4.19319">
        <ele>187.8</ele>
        <time>2024-04-26T05:36:48Z</time>
      </trkpt>
      <trkpt lat="50.08911" lon="4.1932">
        <ele>188.8</ele>
        <time>2024-04-26T05:38:09Z</time>
      </trkpt>
      <trkpt lat="50.08913" lon="4.1932">
        <ele>188.8</ele>
        <time>2024-04-26T05:38:10Z</time>
      </trkpt>
      <trkpt lat="50.08915" lon="4.19321">
        <ele>188.8</ele>
        <time>2024-04-26T05:38:11Z</time>
      </trkpt>
      <trkpt lat="50.08918" lon="4.19322">
        <ele>188.8</ele>
        <time>2024-04-26T05:38:12Z</time>
      </trkpt>
      <trkpt lat="50.0892" lon="4.19323">
        <ele>188.8</ele>
        <time>2024-04-26T05:38:13Z</time>
      </trkpt>
      <trkpt lat="50.08923" lon="4.19324">
        <ele>188.8</ele>
        <time>2024-04-26T05:38:14Z</time>
      </trkpt>
      <trkpt lat="50.08927" lon="4.19325">
        <ele>188.8</ele>
        <time>2024-04-26T05:38:15Z</time>
      </trkpt>
      <trkpt lat="50.0893" lon="4.19326">
        <ele>188.6</ele>
        <time>2024-04-26T05:38:16Z</time>
      </trkpt>
      <trkpt lat="50.08934" lon="4.19328">
        <ele>188.6</ele>
        <time>2024-04-26T05:38:17Z</time>
      </trkpt>
      <trkpt lat="50.08938" lon="4.1933">
        <ele>188.6</ele>
        <time>2024-04-26T05:38:18Z</time>
      </trkpt>
      <trkpt lat="50.08943" lon="4.19331">
        <ele>188.6</ele>
        <time>2024-04-26T05:38:19Z</time>
      </trkpt>
      <trkpt lat="50.08947" lon="4.19333">
        <ele>188.8</ele>
        <time>2024-04-26T05:38:20Z</time>
      </trkpt>
      <trkpt lat="50.08951" lon="4.19335">
        <ele>188.8</ele>
        <time>2024-04-26T05:38:21Z</time>
      </trkpt>
      <trkpt lat="50.08955" lon="4.19337">
        <ele>188.6</ele>
        <time>2024-04-26T05:38:22Z</time>
      </trkpt>
      <trkpt lat="50.08959" lon="4.19338">
        <ele>188.6</ele>
        <time>2024-04-26T05:38:23Z</time>
      </trkpt>
      <trkpt lat="50.08963" lon="4.1934">
        <ele>188.8</ele>
        <time>2024-04-26T05:38:24Z</time>
      </trkpt>
      <trkpt lat="50.08967" lon="4.19341">
        <ele>188.8</ele>
        <time>2024-04-26T05:38:25Z</time>
      </trkpt>
      <trkpt lat="50.0897" lon="4.19343">
        <ele>188.6</ele>
        <time>2024-04-26T05:38:26Z</time>
      </trkpt>
      <trkpt lat="50.08973" lon="4.19344">
        <ele>188.6</ele>
        <time>2024-04-26T05:38:27Z</time>
      </trkpt>
      <trkpt lat="50.08977" lon="4.19345">
        <ele>188.6</ele>
        <time>2024-04-26T05:38:28Z</time>
      </trkpt>
      <trkpt lat="50.0898" lon="4.19347">
        <ele>188.8</ele>
        <time>2024-04-26T05:38:29Z</time>
      </trkpt>
      <trkpt lat="50.08982" lon="4.19348">
        <ele>188.8</ele>
        <time>2024-04-26T05:38:30Z</time>
      </trkpt>
      <trkpt lat="50.08985" lon="4.19349">
        <ele>188.8</ele>
        <time>2024-04-26T05:38:31Z</time>
      </trkpt>
      <trkpt lat="50.08987" lon="4.1935">
        <ele>189</ele>
        <time>2024-04-26T05:38:32Z</time>
      </trkpt>
      <trkpt lat="50.08989" lon="4.19351">
        <ele>189</ele>
        <time>2024-04-26T05:38:33Z</time>
      </trkpt>
      <trkpt lat="50.08991" lon="4.19351">
        <ele>189.2</ele>
        <time>2024-04-26T05:38:34Z</time>
      </trkpt>
      <trkpt lat="50.08993" lon="4.19352">
        <ele>189.4</ele>
        <time>2024-04-26T05:38:35Z</time>
      </trkpt>
      <trkpt lat="50.08994" lon="4.19352">
        <ele>189.4</ele>
        <time>2024-04-26T05:38:36Z</time>
      </trkpt>
      <trkpt lat="50.08995" lon="4.19352">
        <ele>189.6</ele>
        <time>2024-04-26T05:38:37Z</time>
      </trkpt>
      <trkpt lat="50.08996" lon="4.19353">
        <ele>189.6</ele>
        <time>2024-04-26T05:38:38Z</time>
      </trkpt>
      <trkpt lat="50.08996" lon="4.19353">
        <ele>189.8</ele>
        <time>2024-04-26T05:38:39Z</time>
      </trkpt>
      <trkpt lat="50.08996" lon="4.19353">
        <ele>190</ele>
        <time>2024-04-26T05:38:40Z</time>
      </trkpt>
      <trkpt lat="50.08996" lon="4.19353">
        <ele>190</ele>
        <time>2024-04-26T05:38:41Z</time>
      </trkpt>
      <trkpt lat="50.08996" lon="4.19353">
        <ele>190.2</ele>
        <time>2024-04-26T05:38:42Z</time>
      </trkpt>
      <trkpt lat="50.08996" lon="4.19353">
        <ele>190.2</ele>
        <time>2024-04-26T05:38:43Z</time>
      </trkpt>
      <trkpt lat="50.08996" lon="4.19353">
        <ele>190.2</ele>
        <time>2024-04-26T05:38:44Z</time>
      </trkpt>
      <trkpt lat="50.09" lon="4.19355">
        <ele>190.8</ele>
        <time>2024-04-26T05:40:34Z</time>
      </trkpt>
      <trkpt lat="50.09003" lon="4.19356">
        <ele>190.6</ele>
        <time>2024-04-26T05:40:35Z</time>
      </trkpt>
      <trkpt lat="50.09006" lon="4.19357">
        <ele>190.8</ele>
        <time>2024-04-26T05:40:36Z</time>
      </trkpt>
      <trkpt lat="50.09009" lon="4.19358">
        <ele>190.6</ele>
        <time>2024-04-26T05:40:37Z</time>
      </trkpt>
      <trkpt lat="50.09013" lon="4.19359">
        <ele>190.8</ele>
        <time>2024-04-26T05:40:38Z</time>
      </trkpt>
      <trkpt lat="50.09016" lon="4.1936">
        <ele>190.8</ele>
        <time>2024-04-26T05:40:39Z</time>
      </trkpt>
      <trkpt lat="50.0902" lon="4.1936">
        <ele>190.8</ele>
        <time>2024-04-26T05:40:40Z</time>
      </trkpt>
      <trkpt lat="50.09025" lon="4.19361">
        <ele>190.8</ele>
        <time>2024-04-26T05:40:41Z</time>
      </trkpt>
      <trkpt lat="50.09029" lon="4.19361">
        <ele>190.8</ele>
        <time>2024-04-26T05:40:42Z</time>
      </trkpt>
      <trkpt lat="50.09034" lon="4.19362">
        <ele>190.8</ele>
        <time>2024-04-26T05:40:43Z</time>
      </trkpt>
      <trkpt lat="50.09038" lon="4.19362">
        <ele>190.8</ele>
        <time>2024-04-26T05:40:44Z</time>
      </trkpt>
      <trkpt lat="50.09043" lon="4.19362">
        <ele>190.8</ele>
        <time>2024-04-26T05:40:45Z</time>
      </trkpt>
      <trkpt lat="50.09048" lon="4.19362">
        <ele>190.8</ele>
        <time>2024-04-26T05:40:46Z</time>
      </trkpt>
      <trkpt lat="50.09053" lon="4.19362">
        <ele>190.8</ele>
        <time>2024-04-26T05:40:47Z</time>
      </trkpt>
      <trkpt lat="50.09057" lon="4.19362">
        <ele>191</ele>
        <time>2024-04-26T05:40:48Z</time>
      </trkpt>
      <trkpt lat="50.09062" lon="4.19363">
        <ele>191</ele>
        <time>2024-04-26T05:40:49Z</time>
      </trkpt>
      <trkpt lat="50.09067" lon="4.19362">
        <ele>191</ele>
        <time>2024-04-26T05:40:50Z</time>
      </trkpt>
      <trkpt lat="50.09071" lon="4.19362">
        <ele>191</ele>
        <time>2024-04-26T05:40:51Z</time>
      </trkpt>
      <trkpt lat="50.09076" lon="4.19362">
        <ele>191.2</ele>
        <time>2024-04-26T05:40:52Z</time>
      </trkpt>
      <trkpt lat="50.09081" lon="4.19362">
        <ele>191.2</ele>
        <time>2024-04-26T05:40:53Z</time>
      </trkpt>
      <trkpt lat="50.09086" lon="4.19362">
        <ele>191.2</ele>
        <time>2024-04-26T05:40:54Z</time>
      </trkpt>
      <trkpt lat="50.0909" lon="4.19361">
        <ele>191.2</ele>
        <time>2024-04-26T05:40:55Z</time>
      </trkpt>
      <trkpt lat="50.09095" lon="4.19361">
        <ele>191.4</ele>
        <time>2024-04-26T05:40:56Z</time>
      </trkpt>
      <trkpt lat="50.09099" lon="4.19361">
        <ele>191.4</ele>
        <time>2024-04-26T05:40:57Z</time>
      </trkpt>
      <trkpt lat="50.09103" lon="4.19361">
        <ele>191.6</ele>
        <time>2024-04-26T05:40:58Z</time>
      </trkpt>
      <trkpt lat="50.09107" lon="4.19362">
        <ele>191.6</ele>
        <time>2024-04-26T05:40:59Z</time>
      </trkpt>
      <trkpt lat="50.09111" lon="4.19362">
        <ele>191.6</ele>
        <time>2024-04-26T05:41:00Z</time>
      </trkpt>
      <trkpt lat="50.09116" lon="4.19362">
        <ele>191.8</ele>
        <time>2024-04-26T05:41:01Z</time>
      </trkpt>
      <trkpt lat="50.09121" lon="4.19362">
        <ele>192</ele>
        <time>2024-04-26T05:41:02Z</time>
      </trkpt>
      <trkpt lat="50.09125" lon="4.19362">
        <ele>192</ele>
        <time>2024-04-26T05:41:03Z</time>
      </trkpt>
      <trkpt lat="50.0913" lon="4.19363">
        <ele>192</ele>
        <time>2024-04-26T05:41:04Z</time>
      </trkpt>
      <trkpt lat="50.09135" lon="4.19363">
        <ele>192.2</ele>
        <time>2024-04-26T05:41:05Z</time>
      </trkpt>
      <trkpt lat="50.0914" lon="4.19363">
        <ele>192.2</ele>
        <time>2024-04-26T05:41:06Z</time>
      </trkpt>
      <trkpt lat="50.09146" lon="4.19363">
        <ele>192</ele>
        <time>2024-04-26T05:41:07Z</time>
      </trkpt>
      <trkpt lat="50.09151" lon="4.19363">
        <ele>192</ele>
        <time>2024-04-26T05:41:08Z</time>
      </trkpt>
      <trkpt lat="50.09157" lon="4.19363">
        <ele>192.2</ele>
        <time>2024-04-26T05:41:09Z</time>
      </trkpt>
      <trkpt lat="50.09163" lon="4.19363">
        <ele>192.2</ele>
        <time>2024-04-26T05:41:10Z</time>
      </trkpt>
      <trkpt lat="50.0917" lon="4.19363">
        <ele>192.2</ele>
        <time>2024-04-26T05:41:11Z</time>
      </trkpt>
      <trkpt lat="50.09176" lon="4.19363">
        <ele>192.4</ele>
        <time>2024-04-26T05:41:12Z</time>
      </trkpt>
      <trkpt lat="50.09182" lon="4.19362">
        <ele>192.4</ele>
        <time>2024-04-26T05:41:13Z</time>
      </trkpt>
      <trkpt lat="50.09189" lon="4.19362">
        <ele>192.2</ele>
        <time>2024-04-26T05:41:14Z</time>
      </trkpt>
      <trkpt lat="50.09196" lon="4.19361">
        <ele>192.2</ele>
        <time>2024-04-26T05:41:15Z</time>
      </trkpt>
      <trkpt lat="50.09203" lon="4.1936">
        <ele>192.4</ele>
        <time>2024-04-26T05:41:16Z</time>
      </trkpt>
      <trkpt lat="50.09211" lon="4.19359">
        <ele>192.4</ele>
        <time>2024-04-26T05:41:17Z</time>
      </trkpt>
      <trkpt lat="50.09218" lon="4.19357">
        <ele>192.4</ele>
        <time>2024-04-26T05:41:18Z</time>
      </trkpt>
      <trkpt lat="50.09226" lon="4.19354">
        <ele>192.2</ele>
        <time>2024-04-26T05:41:19Z</time>
      </trkpt>
      <trkpt lat="50.09233" lon="4.19352">
        <ele>192.2</ele>
        <time>2024-04-26T05:41:20Z</time>
      </trkpt>
      <trkpt lat="50.0924" lon="4.19349">
        <ele>192</ele>
        <time>2024-04-26T05:41:21Z</time>
      </trkpt>
      <trkpt lat="50.09248" lon="4.19346">
        <ele>192</ele>
        <time>2024-04-26T05:41:22Z</time>
      </trkpt>
      <trkpt lat="50.09256" lon="4.19343">
        <ele>191.8</ele>
        <time>2024-04-26T05:41:23Z</time>
      </trkpt>
      <trkpt lat="50.09263" lon="4.1934">
        <ele>191.4</ele>
        <time>2024-04-26T05:41:24Z</time>
      </trkpt>
      <trkpt lat="50.09271" lon="4.19338">
        <ele>191.4</ele>
        <time>2024-04-26T05:41:25Z</time>
      </trkpt>
      <trkpt lat="50.09278" lon="4.19335">
        <ele>191.2</ele>
        <time>2024-04-26T05:41:26Z</time>
      </trkpt>
      <trkpt lat="50.09286" lon="4.19333">
        <ele>191</ele>
        <time>2024-04-26T05:41:27Z</time>
      </trkpt>
      <trkpt lat="50.09294" lon="4.19331">
        <ele>190.8</ele>
        <time>2024-04-26T05:41:28Z</time>
      </trkpt>
      <trkpt lat="50.09302" lon="4.1933">
        <ele>190.4</ele>
        <time>2024-04-26T05:41:29Z</time>
      </trkpt>
      <trkpt lat="50.0931" lon="4.1933">
        <ele>190.2</ele>
        <time>2024-04-26T05:41:30Z</time>
      </trkpt>
      <trkpt lat="50.09318" lon="4.1933">
        <ele>190.2</ele>
        <time>2024-04-26T05:41:31Z</time>
      </trkpt>
      <trkpt lat="50.09326" lon="4.1933">
        <ele>189.8</ele>
        <time>2024-04-26T05:41:32Z</time>
      </trkpt>
      <trkpt lat="50.09334" lon="4.19331">
        <ele>189.8</ele>
        <time>2024-04-26T05:41:33Z</time>
      </trkpt>
      <trkpt lat="50.09342" lon="4.19331">
        <ele>189.8</ele>
        <time>2024-04-26T05:41:34Z</time>
      </trkpt>
      <trkpt lat="50.0935" lon="4.19332">
        <ele>189.8</ele>
        <time>2024-04-26T05:41:35Z</time>
      </trkpt>
      <trkpt lat="50.09357" lon="4.19334">
        <ele>189.6</ele>
        <time>2024-04-26T05:41:36Z</time>
      </trkpt>
      <trkpt lat="50.09365" lon="4.19336">
        <ele>189.6</ele>
        <time>2024-04-26T05:41:37Z</time>
      </trkpt>
      <trkpt lat="50.09372" lon="4.1934">
        <ele>189.2</ele>
        <time>2024-04-26T05:41:38Z</time>
      </trkpt>
      <trkpt lat="50.0938" lon="4.19345">
        <ele>188.8</ele>
        <time>2024-04-26T05:41:39Z</time>
      </trkpt>
      <trkpt lat="50.09388" lon="4.19351">
        <ele>188.6</ele>
        <time>2024-04-26T05:41:40Z</time>
      </trkpt>
      <trkpt lat="50.09395" lon="4.19358">
        <ele>188.4</ele>
        <time>2024-04-26T05:41:41Z</time>
      </trkpt>
      <trkpt lat="50.09401" lon="4.19366">
        <ele>188</ele>
        <time>2024-04-26T05:41:42Z</time>
      </trkpt>
      <trkpt lat="50.09407" lon="4.19375">
        <ele>187.6</ele>
        <time>2024-04-26T05:41:43Z</time>
      </trkpt>
      <trkpt lat="50.09413" lon="4.19384">
        <ele>187.4</ele>
        <time>2024-04-26T05:41:44Z</time>
      </trkpt>
      <trkpt lat="50.09419" lon="4.19393">
        <ele>187</ele>
        <time>2024-04-26T05:41:45Z</time>
      </trkpt>
      <trkpt lat="50.09424" lon="4.19402">
        <ele>186.8</ele>
        <time>2024-04-26T05:41:46Z</time>
      </trkpt>
      <trkpt lat="50.0943" lon="4.19411">
        <ele>186.8</ele>
        <time>2024-04-26T05:41:47Z</time>
      </trkpt>
      <trkpt lat="50.09436" lon="4.1942">
        <ele>186.6</ele>
        <time>2024-04-26T05:41:48Z</time>
      </trkpt>
      <trkpt lat="50.09441" lon="4.19429">
        <ele>186.2</ele>
        <time>2024-04-26T05:41:49Z</time>
      </trkpt>
      <trkpt lat="50.09447" lon="4.19439">
        <ele>186</ele>
        <time>2024-04-26T05:41:50Z</time>
      </trkpt>
      <trkpt lat="50.09453" lon="4.19448">
        <ele>186</ele>
        <time>2024-04-26T05:41:51Z</time>
      </trkpt>
      <trkpt lat="50.09458" lon="4.19457">
        <ele>186</ele>
        <time>2024-04-26T05:41:52Z</time>
      </trkpt>
      <trkpt lat="50.09464" lon="4.19466">
        <ele>185.8</ele>
        <time>2024-04-26T05:41:53Z</time>
      </trkpt>
      <trkpt lat="50.0947" lon="4.19475">
        <ele>185.6</ele>
        <time>2024-04-26T05:41:54Z</time>
      </trkpt>
      <trkpt lat="50.09475" lon="4.19484">
        <ele>185.6</ele>
        <time>2024-04-26T05:41:55Z</time>
      </trkpt>
      <trkpt lat="50.0948" lon="4.19493">
        <ele>185.8</ele>
        <time>2024-04-26T05:41:56Z</time>
      </trkpt>
      <trkpt lat="50.09485" lon="4.19502">
        <ele>185.8</ele>
        <time>2024-04-26T05:41:57Z</time>
      </trkpt>
      <trkpt lat="50.0949" lon="4.19511">
        <ele>185.6</ele>
        <time>2024-04-26T05:41:58Z</time>
      </trkpt>
      <trkpt lat="50.09495" lon="4.1952">
        <ele>185.2</ele>
        <time>2024-04-26T05:41:59Z</time>
      </trkpt>
      <trkpt lat="50.095" lon="4.19528">
        <ele>185.2</ele>
        <time>2024-04-26T05:42:00Z</time>
      </trkpt>
      <trkpt lat="50.09506" lon="4.19536">
        <ele>185.2</ele>
        <time>2024-04-26T05:42:01Z</time>
      </trkpt>
      <trkpt lat="50.09513" lon="4.19542">
        <ele>185</ele>
        <time>2024-04-26T05:42:02Z</time>
      </trkpt>
      <trkpt lat="50.0952" lon="4.19547">
        <ele>184.8</ele>
        <time>2024-04-26T05:42:03Z</time>
      </trkpt>
      <trkpt lat="50.09527" lon="4.19551">
        <ele>185</ele>
        <time>2024-04-26T05:42:04Z</time>
      </trkpt>
      <trkpt lat="50.09535" lon="4.19553">
        <ele>185</ele>
        <time>2024-04-26T05:42:05Z</time>
      </trkpt>
      <trkpt lat="50.09543" lon="4.19553">
        <ele>185</ele>
        <time>2024-04-26T05:42:06Z</time>
      </trkpt>
      <trkpt lat="50.09552" lon="4.19553">
        <ele>184.8</ele>
        <time>2024-04-26T05:42:07Z</time>
      </trkpt>
      <trkpt lat="50.0956" lon="4.19553">
        <ele>184.8</ele>
        <time>2024-04-26T05:42:08Z</time>
      </trkpt>
      <trkpt lat="50.09569" lon="4.19553">
        <ele>184.8</ele>
        <time>2024-04-26T05:42:09Z</time>
      </trkpt>
      <trkpt lat="50.09578" lon="4.19553">
        <ele>184.8</ele>
        <time>2024-04-26T05:42:10Z</time>
      </trkpt>
      <trkpt lat="50.09587" lon="4.19553">
        <ele>184.8</ele>
        <time>2024-04-26T05:42:11Z</time>
      </trkpt>
      <trkpt lat="50.09596" lon="4.19551">
        <ele>184.8</ele>
        <time>2024-04-26T05:42:12Z</time>
      </trkpt>
      <trkpt lat="50.09604" lon="4.19547">
        <ele>184.8</ele>
        <time>2024-04-26T05:42:13Z</time>
      </trkpt>
      <trkpt lat="50.09613" lon="4.19541">
        <ele>184.6</ele>
        <time>2024-04-26T05:42:14Z</time>
      </trkpt>
      <trkpt lat="50.09621" lon="4.19534">
        <ele>184.6</ele>
        <time>2024-04-26T05:42:15Z</time>
      </trkpt>
      <trkpt lat="50.09627" lon="4.19525">
        <ele>184.4</ele>
        <time>2024-04-26T05:42:16Z</time>
      </trkpt>
      <trkpt lat="50.09634" lon="4.19516">
        <ele>183.8</ele>
        <time>2024-04-26T05:42:17Z</time>
      </trkpt>
      <trkpt lat="50.0964" lon="4.19507">
        <ele>183.4</ele>
        <time>2024-04-26T05:42:18Z</time>
      </trkpt>
      <trkpt lat="50.09647" lon="4.19498">
        <ele>183.2</ele>
        <time>2024-04-26T05:42:19Z</time>
      </trkpt>
      <trkpt lat="50.09653" lon="4.19489">
        <ele>182.6</ele>
        <time>2024-04-26T05:42:20Z</time>
      </trkpt>
      <trkpt lat="50.0966" lon="4.19481">
        <ele>182.2</ele>
        <time>2024-04-26T05:42:21Z</time>
      </trkpt>
      <trkpt lat="50.09667" lon="4.19473">
        <ele>182.2</ele>
        <time>2024-04-26T05:42:22Z</time>
      </trkpt>
      <trkpt lat="50.09674" lon="4.19465">
        <ele>182</ele>
        <time>2024-04-26T05:42:23Z</time>
      </trkpt>
      <trkpt lat="50.09681" lon="4.19458">
        <ele>182</ele>
        <time>2024-04-26T05:42:24Z</time>
      </trkpt>
      <trkpt lat="50.09688" lon="4.19451">
        <ele>182</ele>
        <time>2024-04-26T05:42:25Z</time>
      </trkpt>
      <trkpt lat="50.09695" lon="4.19443">
        <ele>182.2</ele>
        <time>2024-04-26T05:42:26Z</time>
      </trkpt>
      <trkpt lat="50.09702" lon="4.19436">
        <ele>182.2</ele>
        <time>2024-04-26T05:42:27Z</time>
      </trkpt>
      <trkpt lat="50.09709" lon="4.19429">
        <ele>182</ele>
        <time>2024-04-26T05:42:28Z</time>
      </trkpt>
      <trkpt lat="50.09716" lon="4.19423">
        <ele>182</ele>
        <time>2024-04-26T05:42:29Z</time>
      </trkpt>
      <trkpt lat="50.09723" lon="4.19417">
        <ele>182</ele>
        <time>2024-04-26T05:42:30Z</time>
      </trkpt>
      <trkpt lat="50.09731" lon="4.19412">
        <ele>182</ele>
        <time>2024-04-26T05:42:31Z</time>
      </trkpt>
      <trkpt lat="50.09739" lon="4.19409">
        <ele>182</ele>
        <time>2024-04-26T05:42:32Z</time>
      </trkpt>
      <trkpt lat="50.09747" lon="4.19408">
        <ele>182</ele>
        <time>2024-04-26T05:42:33Z</time>
      </trkpt>
      <trkpt lat="50.09755" lon="4.19407">
        <ele>182.2</ele>
        <time>2024-04-26T05:42:34Z</time>
      </trkpt>
      <trkpt lat="50.09763" lon="4.19407">
        <ele>182.2</ele>
        <time>2024-04-26T05:42:35Z</time>
      </trkpt>
      <trkpt lat="50.09771" lon="4.19407">
        <ele>182.4</ele>
        <time>2024-04-26T05:42:36Z</time>
      </trkpt>
      <trkpt lat="50.09778" lon="4.19407">
        <ele>182.4</ele>
        <time>2024-04-26T05:42:37Z</time>
      </trkpt>
      <trkpt lat="50.09786" lon="4.19407">
        <ele>182.6</ele>
        <time>2024-04-26T05:42:38Z</time>
      </trkpt>
      <trkpt lat="50.09794" lon="4.19407">
        <ele>182.6</ele>
        <time>2024-04-26T05:42:39Z</time>
      </trkpt>
      <trkpt lat="50.09802" lon="4.19408">
        <ele>182.6</ele>
        <time>2024-04-26T05:42:40Z</time>
      </trkpt>
      <trkpt lat="50.0981" lon="4.19408">
        <ele>182.4</ele>
        <time>2024-04-26T05:42:41Z</time>
      </trkpt>
      <trkpt lat="50.09817" lon="4.19408">
        <ele>182.6</ele>
        <time>2024-04-26T05:42:42Z</time>
      </trkpt>
      <trkpt lat="50.09825" lon="4.19408">
        <ele>182.4</ele>
        <time>2024-04-26T05:42:43Z</time>
      </trkpt>
      <trkpt lat="50.09833" lon="4.19408">
        <ele>182.4</ele>
        <time>2024-04-26T05:42:44Z</time>
      </trkpt>
      <trkpt lat="50.0984" lon="4.19409">
        <ele>182.4</ele>
        <time>2024-04-26T05:42:45Z</time>
      </trkpt>
      <trkpt lat="50.09848" lon="4.19409">
        <ele>182.4</ele>
        <time>2024-04-26T05:42:46Z</time>
      </trkpt>
      <trkpt lat="50.09855" lon="4.19409">
        <ele>182.4</ele>
        <time>2024-04-26T05:42:47Z</time>
      </trkpt>
      <trkpt lat="50.09863" lon="4.19409">
        <ele>182.4</ele>
        <time>2024-04-26T05:42:48Z</time>
      </trkpt>
      <trkpt lat="50.09869" lon="4.19409">
        <ele>182.6</ele>
        <time>2024-04-26T05:42:49Z</time>
      </trkpt>
      <trkpt lat="50.09876" lon="4.1941">
        <ele>182.4</ele>
        <time>2024-04-26T05:42:50Z</time>
      </trkpt>
      <trkpt lat="50.09883" lon="4.1941">
        <ele>182.4</ele>
        <time>2024-04-26T05:42:51Z</time>
      </trkpt>
      <trkpt lat="50.09889" lon="4.1941">
        <ele>182.6</ele>
        <time>2024-04-26T05:42:52Z</time>
      </trkpt>
      <trkpt lat="50.09895" lon="4.1941">
        <ele>182.6</ele>
        <time>2024-04-26T05:42:53Z</time>
      </trkpt>
      <trkpt lat="50.09901" lon="4.1941">
        <ele>182.6</ele>
        <time>2024-04-26T05:42:54Z</time>
      </trkpt>
      <trkpt lat="50.09907" lon="4.1941">
        <ele>183</ele>
        <time>2024-04-26T05:42:55Z</time>
      </trkpt>
      <trkpt lat="50.09913" lon="4.1941">
        <ele>183.6</ele>
        <time>2024-04-26T05:42:56Z</time>
      </trkpt>
      <trkpt lat="50.09919" lon="4.19409">
        <ele>184</ele>
        <time>2024-04-26T05:42:57Z</time>
      </trkpt>
      <trkpt lat="50.09924" lon="4.19408">
        <ele>184.2</ele>
        <time>2024-04-26T05:42:58Z</time>
      </trkpt>
      <trkpt lat="50.0993" lon="4.19408">
        <ele>184.4</ele>
        <time>2024-04-26T05:42:59Z</time>
      </trkpt>
      <trkpt lat="50.09935" lon="4.19407">
        <ele>185</ele>
        <time>2024-04-26T05:43:00Z</time>
      </trkpt>
      <trkpt lat="50.09941" lon="4.19407">
        <ele>185.2</ele>
        <time>2024-04-26T05:43:01Z</time>
      </trkpt>
      <trkpt lat="50.09947" lon="4.19406">
        <ele>185.6</ele>
        <time>2024-04-26T05:43:02Z</time>
      </trkpt>
      <trkpt lat="50.09952" lon="4.19405">
        <ele>186.2</ele>
        <time>2024-04-26T05:43:03Z</time>
      </trkpt>
      <trkpt lat="50.09958" lon="4.19404">
        <ele>186.4</ele>
        <time>2024-04-26T05:43:04Z</time>
      </trkpt>
      <trkpt lat="50.09964" lon="4.19404">
        <ele>186.8</ele>
        <time>2024-04-26T05:43:05Z</time>
      </trkpt>
      <trkpt lat="50.0997" lon="4.19403">
        <ele>187.4</ele>
        <time>2024-04-26T05:43:06Z</time>
      </trkpt>
      <trkpt lat="50.09975" lon="4.19403">
        <ele>187.8</ele>
        <time>2024-04-26T05:43:07Z</time>
      </trkpt>
      <trkpt lat="50.09981" lon="4.19402">
        <ele>188</ele>
        <time>2024-04-26T05:43:08Z</time>
      </trkpt>
      <trkpt lat="50.09987" lon="4.19401">
        <ele>188.4</ele>
        <time>2024-04-26T05:43:09Z</time>
      </trkpt>
      <trkpt lat="50.09992" lon="4.19401">
        <ele>188.4</ele>
        <time>2024-04-26T05:43:10Z</time>
      </trkpt>
      <trkpt lat="50.09998" lon="4.194">
        <ele>188.4</ele>
        <time>2024-04-26T05:43:11Z</time>
      </trkpt>
      <trkpt lat="50.10003" lon="4.19399">
        <ele>188.6</ele>
        <time>2024-04-26T05:43:12Z</time>
      </trkpt>
      <trkpt lat="50.10008" lon="4.19399">
        <ele>188.8</ele>
        <time>2024-04-26T05:43:13Z</time>
      </trkpt>
      <trkpt lat="50.10014" lon="4.19398">
        <ele>188.8</ele>
        <time>2024-04-26T05:43:14Z</time>
      </trkpt>
      <trkpt lat="50.1002" lon="4.19397">
        <ele>188.8</ele>
        <time>2024-04-26T05:43:15Z</time>
      </trkpt>
      <trkpt lat="50.10025" lon="4.19395">
        <ele>189</ele>
        <time>2024-04-26T05:43:16Z</time>
      </trkpt>
      <trkpt lat="50.10031" lon="4.19393">
        <ele>189.2</ele>
        <time>2024-04-26T05:43:17Z</time>
      </trkpt>
      <trkpt lat="50.10037" lon="4.19391">
        <ele>189.2</ele>
        <time>2024-04-26T05:43:18Z</time>
      </trkpt>
      <trkpt lat="50.10043" lon="4.19388">
        <ele>189.8</ele>
        <time>2024-04-26T05:43:19Z</time>
      </trkpt>
      <trkpt lat="50.10049" lon="4.19385">
        <ele>190.2</ele>
        <time>2024-04-26T05:43:20Z</time>
      </trkpt>
      <trkpt lat="50.10055" lon="4.19382">
        <ele>190.4</ele>
        <time>2024-04-26T05:43:21Z</time>
      </trkpt>
      <trkpt lat="50.10061" lon="4.19379">
        <ele>190.4</ele>
        <time>2024-04-26T05:43:22Z</time>
      </trkpt>
      <trkpt lat="50.10066" lon="4.19375">
        <ele>190.6</ele>
        <time>2024-04-26T05:43:23Z</time>
      </trkpt>
      <trkpt lat="50.10072" lon="4.19371">
        <ele>190.8</ele>
        <time>2024-04-26T05:43:24Z</time>
      </trkpt>
      <trkpt lat="50.10078" lon="4.19366">
        <ele>191</ele>
        <time>2024-04-26T05:43:25Z</time>
      </trkpt>
      <trkpt lat="50.10084" lon="4.19362">
        <ele>190.8</ele>
        <time>2024-04-26T05:43:26Z</time>
      </trkpt>
      <trkpt lat="50.1009" lon="4.19357">
        <ele>191</ele>
        <time>2024-04-26T05:43:27Z</time>
      </trkpt>
      <trkpt lat="50.10096" lon="4.19352">
        <ele>191</ele>
        <time>2024-04-26T05:43:28Z</time>
      </trkpt>
      <trkpt lat="50.10102" lon="4.19347">
        <ele>191</ele>
        <time>2024-04-26T05:43:29Z</time>
      </trkpt>
      <trkpt lat="50.10108" lon="4.19342">
        <ele>190.8</ele>
        <time>2024-04-26T05:43:30Z</time>
      </trkpt>
      <trkpt lat="50.10115" lon="4.19337">
        <ele>190.8</ele>
        <time>2024-04-26T05:43:31Z</time>
      </trkpt>
      <trkpt lat="50.10122" lon="4.19333">
        <ele>190.8</ele>
        <time>2024-04-26T05:43:32Z</time>
      </trkpt>
      <trkpt lat="50.1013" lon="4.19329">
        <ele>190.8</ele>
        <time>2024-04-26T05:43:33Z</time>
      </trkpt>
      <trkpt lat="50.10138" lon="4.19327">
        <ele>190.6</ele>
        <time>2024-04-26T05:43:34Z</time>
      </trkpt>
      <trkpt lat="50.10146" lon="4.19324">
        <ele>190.4</ele>
        <time>2024-04-26T05:43:35Z</time>
      </trkpt>
      <trkpt lat="50.10154" lon="4.19323">
        <ele>190.4</ele>
        <time>2024-04-26T05:43:36Z</time>
      </trkpt>
      <trkpt lat="50.10162" lon="4.19322">
        <ele>190.6</ele>
        <time>2024-04-26T05:43:37Z</time>
      </trkpt>
      <trkpt lat="50.10171" lon="4.19321">
        <ele>190.2</ele>
        <time>2024-04-26T05:43:38Z</time>
      </trkpt>
      <trkpt lat="50.10179" lon="4.19321">
        <ele>190.2</ele>
        <time>2024-04-26T05:43:39Z</time>
      </trkpt>
      <trkpt lat="50.10188" lon="4.19321">
        <ele>190</ele>
        <time>2024-04-26T05:43:40Z</time>
      </trkpt>
      <trkpt lat="50.10196" lon="4.19321">
        <ele>189.8</ele>
        <time>2024-04-26T05:43:41Z</time>
      </trkpt>
      <trkpt lat="50.10205" lon="4.19322">
        <ele>189.8</ele>
        <time>2024-04-26T05:43:42Z</time>
      </trkpt>
      <trkpt lat="50.10213" lon="4.19322">
        <ele>189.6</ele>
        <time>2024-04-26T05:43:43Z</time>
      </trkpt>
      <trkpt lat="50.10222" lon="4.19322">
        <ele>189.4</ele>
        <time>2024-04-26T05:43:44Z</time>
      </trkpt>
      <trkpt lat="50.10231" lon="4.19322">
        <ele>189</ele>
        <time>2024-04-26T05:43:45Z</time>
      </trkpt>
      <trkpt lat="50.10239" lon="4.19322">
        <ele>188.8</ele>
        <time>2024-04-26T05:43:46Z</time>
      </trkpt>
      <trkpt lat="50.10248" lon="4.19322">
        <ele>188.6</ele>
        <time>2024-04-26T05:43:47Z</time>
      </trkpt>
      <trkpt lat="50.10256" lon="4.19322">
        <ele>188.4</ele>
        <time>2024-04-26T05:43:48Z</time>
      </trkpt>
      <trkpt lat="50.10265" lon="4.19322">
        <ele>188</ele>
        <time>2024-04-26T05:43:49Z</time>
      </trkpt>
      <trkpt lat="50.10273" lon="4.19322">
        <ele>187.8</ele>
        <time>2024-04-26T05:43:50Z</time>
      </trkpt>
      <trkpt lat="50.10282" lon="4.19322">
        <ele>187.6</ele>
        <time>2024-04-26T05:43:51Z</time>
      </trkpt>
      <trkpt lat="50.10291" lon="4.19322">
        <ele>187.6</ele>
        <time>2024-04-26T05:43:52Z</time>
      </trkpt>
      <trkpt lat="50.10299" lon="4.19322">
        <ele>187.4</ele>
        <time>2024-04-26T05:43:53Z</time>
      </trkpt>
      <trkpt lat="50.10308" lon="4.19322">
        <ele>187</ele>
        <time>2024-04-26T05:43:54Z</time>
      </trkpt>
      <trkpt lat="50.10317" lon="4.19322">
        <ele>187</ele>
        <time>2024-04-26T05:43:55Z</time>
      </trkpt>
      <trkpt lat="50.10326" lon="4.19322">
        <ele>186.6</ele>
        <time>2024-04-26T05:43:56Z</time>
      </trkpt>
      <trkpt lat="50.10335" lon="4.19321">
        <ele>186.4</ele>
        <time>2024-04-26T05:43:57Z</time>
      </trkpt>
      <trkpt lat="50.10345" lon="4.19321">
        <ele>186.4</ele>
        <time>2024-04-26T05:43:58Z</time>
      </trkpt>
      <trkpt lat="50.10354" lon="4.19321">
        <ele>186.2</ele>
        <time>2024-04-26T05:43:59Z</time>
      </trkpt>
      <trkpt lat="50.10363" lon="4.19321">
        <ele>186</ele>
        <time>2024-04-26T05:44:00Z</time>
      </trkpt>
      <trkpt lat="50.10373" lon="4.19321">
        <ele>185.8</ele>
        <time>2024-04-26T05:44:01Z</time>
      </trkpt>
      <trkpt lat="50.10382" lon="4.19321">
        <ele>185.6</ele>
        <time>2024-04-26T05:44:02Z</time>
      </trkpt>
      <trkpt lat="50.10392" lon="4.19321">
        <ele>185.4</ele>
        <time>2024-04-26T05:44:03Z</time>
      </trkpt>
      <trkpt lat="50.10401" lon="4.19321">
        <ele>185</ele>
        <time>2024-04-26T05:44:04Z</time>
      </trkpt>
      <trkpt lat="50.1041" lon="4.19321">
        <ele>185</ele>
        <time>2024-04-26T05:44:05Z</time>
      </trkpt>
      <trkpt lat="50.10419" lon="4.19322">
        <ele>184.8</ele>
        <time>2024-04-26T05:44:06Z</time>
      </trkpt>
      <trkpt lat="50.10428" lon="4.19323">
        <ele>184.2</ele>
        <time>2024-04-26T05:44:07Z</time>
      </trkpt>
      <trkpt lat="50.10437" lon="4.19325">
        <ele>183.8</ele>
        <time>2024-04-26T05:44:08Z</time>
      </trkpt>
      <trkpt lat="50.10445" lon="4.19326">
        <ele>183.6</ele>
        <time>2024-04-26T05:44:09Z</time>
      </trkpt>
      <trkpt lat="50.10454" lon="4.19328">
        <ele>183.2</ele>
        <time>2024-04-26T05:44:10Z</time>
      </trkpt>
      <trkpt lat="50.10462" lon="4.19329">
        <ele>182.8</ele>
        <time>2024-04-26T05:44:11Z</time>
      </trkpt>
      <trkpt lat="50.1047" lon="4.1933">
        <ele>182.4</ele>
        <time>2024-04-26T05:44:12Z</time>
      </trkpt>
      <trkpt lat="50.10478" lon="4.19331">
        <ele>182</ele>
        <time>2024-04-26T05:44:13Z</time>
      </trkpt>
      <trkpt lat="50.10485" lon="4.19332">
        <ele>182</ele>
        <time>2024-04-26T05:44:14Z</time>
      </trkpt>
      <trkpt lat="50.10493" lon="4.19333">
        <ele>182</ele>
        <time>2024-04-26T05:44:15Z</time>
      </trkpt>
      <trkpt lat="50.105" lon="4.19334">
        <ele>181.8</ele>
        <time>2024-04-26T05:44:16Z</time>
      </trkpt>
      <trkpt lat="50.10507" lon="4.19335">
        <ele>181.8</ele>
        <time>2024-04-26T05:44:17Z</time>
      </trkpt>
      <trkpt lat="50.10514" lon="4.19336">
        <ele>181.8</ele>
        <time>2024-04-26T05:44:18Z</time>
      </trkpt>
      <trkpt lat="50.1052" lon="4.19337">
        <ele>181.8</ele>
        <time>2024-04-26T05:44:19Z</time>
      </trkpt>
      <trkpt lat="50.10527" lon="4.19338">
        <ele>182</ele>
        <time>2024-04-26T05:44:20Z</time>
      </trkpt>
      <trkpt lat="50.10534" lon="4.19339">
        <ele>182</ele>
        <time>2024-04-26T05:44:21Z</time>
      </trkpt>
      <trkpt lat="50.10541" lon="4.19341">
        <ele>181.8</ele>
        <time>2024-04-26T05:44:22Z</time>
      </trkpt>
      <trkpt lat="50.10548" lon="4.19343">
        <ele>181.8</ele>
        <time>2024-04-26T05:44:23Z</time>
      </trkpt>
      <trkpt lat="50.10555" lon="4.19344">
        <ele>182.2</ele>
        <time>2024-04-26T05:44:24Z</time>
      </trkpt>
      <trkpt lat="50.10563" lon="4.19346">
        <ele>182.2</ele>
        <time>2024-04-26T05:44:25Z</time>
      </trkpt>
      <trkpt lat="50.10571" lon="4.19347">
        <ele>183</ele>
        <time>2024-04-26T05:44:26Z</time>
      </trkpt>
      <trkpt lat="50.1058" lon="4.19348">
        <ele>183.4</ele>
        <time>2024-04-26T05:44:27Z</time>
      </trkpt>
      <trkpt lat="50.10588" lon="4.19348">
        <ele>183.6</ele>
        <time>2024-04-26T05:44:28Z</time>
      </trkpt>
      <trkpt lat="50.10597" lon="4.19348">
        <ele>183.8</ele>
        <time>2024-04-26T05:44:29Z</time>
      </trkpt>
      <trkpt lat="50.10606" lon="4.19348">
        <ele>183.8</ele>
        <time>2024-04-26T05:44:30Z</time>
      </trkpt>
      <trkpt lat="50.10615" lon="4.19347">
        <ele>184</ele>
        <time>2024-04-26T05:44:31Z</time>
      </trkpt>
      <trkpt lat="50.10624" lon="4.19346">
        <ele>184</ele>
        <time>2024-04-26T05:44:32Z</time>
      </trkpt>
      <trkpt lat="50.10633" lon="4.19345">
        <ele>183.8</ele>
        <time>2024-04-26T05:44:33Z</time>
      </trkpt>
      <trkpt lat="50.10642" lon="4.19343">
        <ele>183.8</ele>
        <time>2024-04-26T05:44:34Z</time>
      </trkpt>
      <trkpt lat="50.1065" lon="4.1934">
        <ele>183.8</ele>
        <time>2024-04-26T05:44:35Z</time>
      </trkpt>
      <trkpt lat="50.10659" lon="4.19336">
        <ele>183.8</ele>
        <time>2024-04-26T05:44:36Z</time>
      </trkpt>
      <trkpt lat="50.10666" lon="4.1933">
        <ele>183.6</ele>
        <time>2024-04-26T05:44:37Z</time>
      </trkpt>
      <trkpt lat="50.10673" lon="4.19322">
        <ele>183.4</ele>
        <time>2024-04-26T05:44:38Z</time>
      </trkpt>
      <trkpt lat="50.1068" lon="4.19314">
        <ele>182.8</ele>
        <time>2024-04-26T05:44:39Z</time>
      </trkpt>
      <trkpt lat="50.10686" lon="4.19305">
        <ele>182.6</ele>
        <time>2024-04-26T05:44:40Z</time>
      </trkpt>
      <trkpt lat="50.10691" lon="4.19295">
        <ele>182.6</ele>
        <time>2024-04-26T05:44:41Z</time>
      </trkpt>
      <trkpt lat="50.10697" lon="4.19286">
        <ele>182.6</ele>
        <time>2024-04-26T05:44:42Z</time>
      </trkpt>
      <trkpt lat="50.10702" lon="4.19277">
        <ele>182.2</ele>
        <time>2024-04-26T05:44:43Z</time>
      </trkpt>
      <trkpt lat="50.10707" lon="4.19268">
        <ele>182.2</ele>
        <time>2024-04-26T05:44:44Z</time>
      </trkpt>
      <trkpt lat="50.10712" lon="4.1926">
        <ele>182.2</ele>
        <time>2024-04-26T05:44:45Z</time>
      </trkpt>
      <trkpt lat="50.10718" lon="4.19252">
        <ele>182.4</ele>
        <time>2024-04-26T05:44:46Z</time>
      </trkpt>
      <trkpt lat="50.10722" lon="4.19243">
        <ele>182.2</ele>
        <time>2024-04-26T05:44:47Z</time>
      </trkpt>
      <trkpt lat="50.10727" lon="4.19236">
        <ele>182.2</ele>
        <time>2024-04-26T05:44:48Z</time>
      </trkpt>
      <trkpt lat="50.10732" lon="4.1923">
        <ele>182.2</ele>
        <time>2024-04-26T05:44:49Z</time>
      </trkpt>
      <trkpt lat="50.10736" lon="4.19224">
        <ele>182.2</ele>
        <time>2024-04-26T05:44:50Z</time>
      </trkpt>
      <trkpt lat="50.10741" lon="4.19217">
        <ele>182.4</ele>
        <time>2024-04-26T05:44:51Z</time>
      </trkpt>
      <trkpt lat="50.10745" lon="4.19211">
        <ele>182.4</ele>
        <time>2024-04-26T05:44:52Z</time>
      </trkpt>
      <trkpt lat="50.1075" lon="4.19205">
        <ele>182.6</ele>
        <time>2024-04-26T05:44:53Z</time>
      </trkpt>
      <trkpt lat="50.10754" lon="4.19198">
        <ele>182.8</ele>
        <time>2024-04-26T05:44:54Z</time>
      </trkpt>
      <trkpt lat="50.10758" lon="4.19192">
        <ele>183</ele>
        <time>2024-04-26T05:44:55Z</time>
      </trkpt>
      <trkpt lat="50.10761" lon="4.19185">
        <ele>183</ele>
        <time>2024-04-26T05:44:56Z</time>
      </trkpt>
      <trkpt lat="50.10765" lon="4.19178">
        <ele>183.4</ele>
        <time>2024-04-26T05:44:57Z</time>
      </trkpt>
      <trkpt lat="50.10769" lon="4.1917">
        <ele>183.8</ele>
        <time>2024-04-26T05:44:58Z</time>
      </trkpt>
      <trkpt lat="50.10773" lon="4.19162">
        <ele>184.2</ele>
        <time>2024-04-26T05:44:59Z</time>
      </trkpt>
      <trkpt lat="50.10777" lon="4.19153">
        <ele>184.6</ele>
        <time>2024-04-26T05:45:00Z</time>
      </trkpt>
      <trkpt lat="50.1078" lon="4.19144">
        <ele>185</ele>
        <time>2024-04-26T05:45:01Z</time>
      </trkpt>
      <trkpt lat="50.10784" lon="4.19134">
        <ele>185.4</ele>
        <time>2024-04-26T05:45:02Z</time>
      </trkpt>
      <trkpt lat="50.10789" lon="4.19124">
        <ele>185.4</ele>
        <time>2024-04-26T05:45:03Z</time>
      </trkpt>
      <trkpt lat="50.10793" lon="4.19113">
        <ele>185.4</ele>
        <time>2024-04-26T05:45:04Z</time>
      </trkpt>
      <trkpt lat="50.10796" lon="4.19101">
        <ele>185.6</ele>
        <time>2024-04-26T05:45:05Z</time>
      </trkpt>
      <trkpt lat="50.10799" lon="4.19089">
        <ele>185.4</ele>
        <time>2024-04-26T05:45:06Z</time>
      </trkpt>
      <trkpt lat="50.10803" lon="4.19076">
        <ele>185.6</ele>
        <time>2024-04-26T05:45:07Z</time>
      </trkpt>
      <trkpt lat="50.10806" lon="4.19063">
        <ele>185.4</ele>
        <time>2024-04-26T05:45:08Z</time>
      </trkpt>
      <trkpt lat="50.10809" lon="4.1905">
        <ele>185.6</ele>
        <time>2024-04-26T05:45:09Z</time>
      </trkpt>
      <trkpt lat="50.10813" lon="4.19037">
        <ele>185.6</ele>
        <time>2024-04-26T05:45:10Z</time>
      </trkpt>
      <trkpt lat="50.10815" lon="4.19024">
        <ele>185.6</ele>
        <time>2024-04-26T05:45:11Z</time>
      </trkpt>
      <trkpt lat="50.10818" lon="4.1901">
        <ele>185.6</ele>
        <time>2024-04-26T05:45:12Z</time>
      </trkpt>
      <trkpt lat="50.1082" lon="4.18997">
        <ele>185.4</ele>
        <time>2024-04-26T05:45:13Z</time>
      </trkpt>
      <trkpt lat="50.10822" lon="4.18983">
        <ele>184.8</ele>
        <time>2024-04-26T05:45:14Z</time>
      </trkpt>
      <trkpt lat="50.10824" lon="4.1897">
        <ele>184.2</ele>
        <time>2024-04-26T05:45:15Z</time>
      </trkpt>
      <trkpt lat="50.10825" lon="4.18956">
        <ele>183.4</ele>
        <time>2024-04-26T05:45:16Z</time>
      </trkpt>
      <trkpt lat="50.10827" lon="4.18942">
        <ele>183.4</ele>
        <time>2024-04-26T05:45:17Z</time>
      </trkpt>
      <trkpt lat="50.10828" lon="4.18929">
        <ele>183</ele>
        <time>2024-04-26T05:45:18Z</time>
      </trkpt>
      <trkpt lat="50.1083" lon="4.18915">
        <ele>182.6</ele>
        <time>2024-04-26T05:45:19Z</time>
      </trkpt>
      <trkpt lat="50.10832" lon="4.18902">
        <ele>182.6</ele>
        <time>2024-04-26T05:45:20Z</time>
      </trkpt>
      <trkpt lat="50.10834" lon="4.18889">
        <ele>182.2</ele>
        <time>2024-04-26T05:45:21Z</time>
      </trkpt>
      <trkpt lat="50.10838" lon="4.18877">
        <ele>182.2</ele>
        <time>2024-04-26T05:45:22Z</time>
      </trkpt>
      <trkpt lat="50.10842" lon="4.18865">
        <ele>182</ele>
        <time>2024-04-26T05:45:23Z</time>
      </trkpt>
      <trkpt lat="50.10846" lon="4.18854">
        <ele>181.8</ele>
        <time>2024-04-26T05:45:24Z</time>
      </trkpt>
      <trkpt lat="50.1085" lon="4.18844">
        <ele>181.8</ele>
        <time>2024-04-26T05:45:25Z</time>
      </trkpt>
      <trkpt lat="50.10854" lon="4.18834">
        <ele>181.8</ele>
        <time>2024-04-26T05:45:26Z</time>
      </trkpt>
      <trkpt lat="50.10859" lon="4.18824">
        <ele>181.8</ele>
        <time>2024-04-26T05:45:27Z</time>
      </trkpt>
      <trkpt lat="50.10862" lon="4.18815">
        <ele>181.8</ele>
        <time>2024-04-26T05:45:28Z</time>
      </trkpt>
      <trkpt lat="50.10866" lon="4.18805">
        <ele>181.6</ele>
        <time>2024-04-26T05:45:29Z</time>
      </trkpt>
      <trkpt lat="50.10871" lon="4.18797">
        <ele>181.6</ele>
        <time>2024-04-26T05:45:30Z</time>
      </trkpt>
      <trkpt lat="50.10875" lon="4.18788">
        <ele>181.8</ele>
        <time>2024-04-26T05:45:31Z</time>
      </trkpt>
      <trkpt lat="50.10879" lon="4.1878">
        <ele>181.8</ele>
        <time>2024-04-26T05:45:32Z</time>
      </trkpt>
      <trkpt lat="50.10882" lon="4.18771">
        <ele>181.8</ele>
        <time>2024-04-26T05:45:33Z</time>
      </trkpt>
      <trkpt lat="50.10886" lon="4.18763">
        <ele>181.8</ele>
        <time>2024-04-26T05:45:34Z</time>
      </trkpt>
      <trkpt lat="50.1089" lon="4.18755">
        <ele>182</ele>
        <time>2024-04-26T05:45:35Z</time>
      </trkpt>
      <trkpt lat="50.10894" lon="4.18747">
        <ele>182</ele>
        <time>2024-04-26T05:45:36Z</time>
      </trkpt>
      <trkpt lat="50.10898" lon="4.18739">
        <ele>182.2</ele>
        <time>2024-04-26T05:45:37Z</time>
      </trkpt>
      <trkpt lat="50.10902" lon="4.18731">
        <ele>182.4</ele>
        <time>2024-04-26T05:45:38Z</time>
      </trkpt>
      <trkpt lat="50.10905" lon="4.18723">
        <ele>182.6</ele>
        <time>2024-04-26T05:45:39Z</time>
      </trkpt>
      <trkpt lat="50.10909" lon="4.18715">
        <ele>182.8</ele>
        <time>2024-04-26T05:45:40Z</time>
      </trkpt>
      <trkpt lat="50.10913" lon="4.18707">
        <ele>182.8</ele>
        <time>2024-04-26T05:45:41Z</time>
      </trkpt>
      <trkpt lat="50.10917" lon="4.18699">
        <ele>183</ele>
        <time>2024-04-26T05:45:42Z</time>
      </trkpt>
      <trkpt lat="50.1092" lon="4.18691">
        <ele>183</ele>
        <time>2024-04-26T05:45:43Z</time>
      </trkpt>
      <trkpt lat="50.10924" lon="4.18684">
        <ele>183.2</ele>
        <time>2024-04-26T05:45:44Z</time>
      </trkpt>
      <trkpt lat="50.10927" lon="4.18676">
        <ele>183.4</ele>
        <time>2024-04-26T05:45:45Z</time>
      </trkpt>
      <trkpt lat="50.10931" lon="4.18668">
        <ele>183.4</ele>
        <time>2024-04-26T05:45:46Z</time>
      </trkpt>
      <trkpt lat="50.10934" lon="4.18661">
        <ele>183.4</ele>
        <time>2024-04-26T05:45:47Z</time>
      </trkpt>
      <trkpt lat="50.10938" lon="4.18653">
        <ele>183.6</ele>
        <time>2024-04-26T05:45:48Z</time>
      </trkpt>
      <trkpt lat="50.10941" lon="4.18646">
        <ele>183.8</ele>
        <time>2024-04-26T05:45:49Z</time>
      </trkpt>
      <trkpt lat="50.10945" lon="4.18638">
        <ele>184</ele>
        <time>2024-04-26T05:45:50Z</time>
      </trkpt>
      <trkpt lat="50.10948" lon="4.18631">
        <ele>184.2</ele>
        <time>2024-04-26T05:45:51Z</time>
      </trkpt>
      <trkpt lat="50.10951" lon="4.18623">
        <ele>185</ele>
        <time>2024-04-26T05:45:52Z</time>
      </trkpt>
      <trkpt lat="50.10955" lon="4.18616">
        <ele>185.4</ele>
        <time>2024-04-26T05:45:53Z</time>
      </trkpt>
      <trkpt lat="50.10959" lon="4.18609">
        <ele>185.6</ele>
        <time>2024-04-26T05:45:54Z</time>
      </trkpt>
      <trkpt lat="50.10963" lon="4.18602">
        <ele>185.8</ele>
        <time>2024-04-26T05:45:55Z</time>
      </trkpt>
      <trkpt lat="50.10967" lon="4.18595">
        <ele>185.8</ele>
        <time>2024-04-26T05:45:56Z</time>
      </trkpt>
      <trkpt lat="50.10972" lon="4.18589">
        <ele>186.2</ele>
        <time>2024-04-26T05:45:57Z</time>
      </trkpt>
      <trkpt lat="50.10976" lon="4.18583">
        <ele>186.2</ele>
        <time>2024-04-26T05:45:58Z</time>
      </trkpt>
      <trkpt lat="50.1098" lon="4.18576">
        <ele>186.4</ele>
        <time>2024-04-26T05:45:59Z</time>
      </trkpt>
      <trkpt lat="50.10985" lon="4.1857">
        <ele>186.8</ele>
        <time>2024-04-26T05:46:00Z</time>
      </trkpt>
      <trkpt lat="50.10989" lon="4.18565">
        <ele>187</ele>
        <time>2024-04-26T05:46:01Z</time>
      </trkpt>
      <trkpt lat="50.10993" lon="4.18559">
        <ele>187.4</ele>
        <time>2024-04-26T05:46:02Z</time>
      </trkpt>
      <trkpt lat="50.10997" lon="4.18553">
        <ele>187.6</ele>
        <time>2024-04-26T05:46:03Z</time>
      </trkpt>
      <trkpt lat="50.11002" lon="4.18546">
        <ele>188</ele>
        <time>2024-04-26T05:46:04Z</time>
      </trkpt>
      <trkpt lat="50.11006" lon="4.1854">
        <ele>188</ele>
        <time>2024-04-26T05:46:05Z</time>
      </trkpt>
      <trkpt lat="50.1101" lon="4.18534">
        <ele>188.4</ele>
        <time>2024-04-26T05:46:06Z</time>
      </trkpt>
      <trkpt lat="50.11014" lon="4.18528">
        <ele>188.8</ele>
        <time>2024-04-26T05:46:07Z</time>
      </trkpt>
      <trkpt lat="50.11018" lon="4.18521">
        <ele>188.8</ele>
        <time>2024-04-26T05:46:08Z</time>
      </trkpt>
      <trkpt lat="50.11023" lon="4.18514">
        <ele>189</ele>
        <time>2024-04-26T05:46:09Z</time>
      </trkpt>
      <trkpt lat="50.11027" lon="4.18508">
        <ele>189.2</ele>
        <time>2024-04-26T05:46:10Z</time>
      </trkpt>
      <trkpt lat="50.11031" lon="4.18501">
        <ele>189.4</ele>
        <time>2024-04-26T05:46:11Z</time>
      </trkpt>
      <trkpt lat="50.11036" lon="4.18494">
        <ele>189.2</ele>
        <time>2024-04-26T05:46:12Z</time>
      </trkpt>
      <trkpt lat="50.1104" lon="4.18488">
        <ele>189.2</ele>
        <time>2024-04-26T05:46:13Z</time>
      </trkpt>
      <trkpt lat="50.11044" lon="4.18481">
        <ele>189.4</ele>
        <time>2024-04-26T05:46:14Z</time>
      </trkpt>
      <trkpt lat="50.11048" lon="4.18474">
        <ele>189.4</ele>
        <time>2024-04-26T05:46:15Z</time>
      </trkpt>
      <trkpt lat="50.11052" lon="4.18467">
        <ele>189.6</ele>
        <time>2024-04-26T05:46:16Z</time>
      </trkpt>
      <trkpt lat="50.11056" lon="4.18459">
        <ele>189.6</ele>
        <time>2024-04-26T05:46:17Z</time>
      </trkpt>
      <trkpt lat="50.1106" lon="4.18452">
        <ele>189.8</ele>
        <time>2024-04-26T05:46:18Z</time>
      </trkpt>
      <trkpt lat="50.11063" lon="4.18444">
        <ele>189.8</ele>
        <time>2024-04-26T05:46:19Z</time>
      </trkpt>
      <trkpt lat="50.11067" lon="4.18437">
        <ele>189.6</ele>
        <time>2024-04-26T05:46:20Z</time>
      </trkpt>
      <trkpt lat="50.11071" lon="4.18429">
        <ele>189.8</ele>
        <time>2024-04-26T05:46:21Z</time>
      </trkpt>
      <trkpt lat="50.11076" lon="4.18422">
        <ele>190</ele>
        <time>2024-04-26T05:46:22Z</time>
      </trkpt>
      <trkpt lat="50.11081" lon="4.18414">
        <ele>189.8</ele>
        <time>2024-04-26T05:46:23Z</time>
      </trkpt>
      <trkpt lat="50.11086" lon="4.18407">
        <ele>190.2</ele>
        <time>2024-04-26T05:46:24Z</time>
      </trkpt>
      <trkpt lat="50.11091" lon="4.18401">
        <ele>190.4</ele>
        <time>2024-04-26T05:46:25Z</time>
      </trkpt>
      <trkpt lat="50.11097" lon="4.18394">
        <ele>190.4</ele>
        <time>2024-04-26T05:46:26Z</time>
      </trkpt>
      <trkpt lat="50.11104" lon="4.18389">
        <ele>190.6</ele>
        <time>2024-04-26T05:46:27Z</time>
      </trkpt>
      <trkpt lat="50.1111" lon="4.18385">
        <ele>190.6</ele>
        <time>2024-04-26T05:46:28Z</time>
      </trkpt>
      <trkpt lat="50.11117" lon="4.1838">
        <ele>190.6</ele>
        <time>2024-04-26T05:46:29Z</time>
      </trkpt>
      <trkpt lat="50.11125" lon="4.18376">
        <ele>190.6</ele>
        <time>2024-04-26T05:46:30Z</time>
      </trkpt>
      <trkpt lat="50.11133" lon="4.18371">
        <ele>190.6</ele>
        <time>2024-04-26T05:46:31Z</time>
      </trkpt>
      <trkpt lat="50.11141" lon="4.18368">
        <ele>190.6</ele>
        <time>2024-04-26T05:46:32Z</time>
      </trkpt>
      <trkpt lat="50.11149" lon="4.18364">
        <ele>190.6</ele>
        <time>2024-04-26T05:46:33Z</time>
      </trkpt>
      <trkpt lat="50.11158" lon="4.18361">
        <ele>190.8</ele>
        <time>2024-04-26T05:46:34Z</time>
      </trkpt>
      <trkpt lat="50.11167" lon="4.18358">
        <ele>190.6</ele>
        <time>2024-04-26T05:46:35Z</time>
      </trkpt>
      <trkpt lat="50.11177" lon="4.18355">
        <ele>190</ele>
        <time>2024-04-26T05:46:36Z</time>
      </trkpt>
      <trkpt lat="50.11187" lon="4.18353">
        <ele>189.6</ele>
        <time>2024-04-26T05:46:37Z</time>
      </trkpt>
      <trkpt lat="50.11197" lon="4.1835">
        <ele>189.4</ele>
        <time>2024-04-26T05:46:38Z</time>
      </trkpt>
      <trkpt lat="50.11208" lon="4.18348">
        <ele>189</ele>
        <time>2024-04-26T05:46:39Z</time>
      </trkpt>
      <trkpt lat="50.11219" lon="4.18345">
        <ele>188.4</ele>
        <time>2024-04-26T05:46:40Z</time>
      </trkpt>
      <trkpt lat="50.11229" lon="4.1834">
        <ele>187.8</ele>
        <time>2024-04-26T05:46:41Z</time>
      </trkpt>
      <trkpt lat="50.1124" lon="4.18336">
        <ele>186.8</ele>
        <time>2024-04-26T05:46:42Z</time>
      </trkpt>
      <trkpt lat="50.1125" lon="4.18332">
        <ele>186</ele>
        <time>2024-04-26T05:46:43Z</time>
      </trkpt>
      <trkpt lat="50.1126" lon="4.18328">
        <ele>184.8</ele>
        <time>2024-04-26T05:46:44Z</time>
      </trkpt>
      <trkpt lat="50.1127" lon="4.18324">
        <ele>183.8</ele>
        <time>2024-04-26T05:46:45Z</time>
      </trkpt>
      <trkpt lat="50.11279" lon="4.1832">
        <ele>183.2</ele>
        <time>2024-04-26T05:46:46Z</time>
      </trkpt>
      <trkpt lat="50.11287" lon="4.18316">
        <ele>182.6</ele>
        <time>2024-04-26T05:46:47Z</time>
      </trkpt>
      <trkpt lat="50.11296" lon="4.18311">
        <ele>182.2</ele>
        <time>2024-04-26T05:46:48Z</time>
      </trkpt>
      <trkpt lat="50.11303" lon="4.18306">
        <ele>181.8</ele>
        <time>2024-04-26T05:46:49Z</time>
      </trkpt>
      <trkpt lat="50.11311" lon="4.18301">
        <ele>181.8</ele>
        <time>2024-04-26T05:46:50Z</time>
      </trkpt>
      <trkpt lat="50.11318" lon="4.18295">
        <ele>181.8</ele>
        <time>2024-04-26T05:46:51Z</time>
      </trkpt>
      <trkpt lat="50.11325" lon="4.18289">
        <ele>181.6</ele>
        <time>2024-04-26T05:46:52Z</time>
      </trkpt>
      <trkpt lat="50.11332" lon="4.18282">
        <ele>181.6</ele>
        <time>2024-04-26T05:46:53Z</time>
      </trkpt>
      <trkpt lat="50.11339" lon="4.18275">
        <ele>181.6</ele>
        <time>2024-04-26T05:46:54Z</time>
      </trkpt>
      <trkpt lat="50.11346" lon="4.18268">
        <ele>181.6</ele>
        <time>2024-04-26T05:46:55Z</time>
      </trkpt>
      <trkpt lat="50.11353" lon="4.18261">
        <ele>181.4</ele>
        <time>2024-04-26T05:46:56Z</time>
      </trkpt>
      <trkpt lat="50.11361" lon="4.18254">
        <ele>181.4</ele>
        <time>2024-04-26T05:46:57Z</time>
      </trkpt>
      <trkpt lat="50.11369" lon="4.18247">
        <ele>181.2</ele>
        <time>2024-04-26T05:46:58Z</time>
      </trkpt>
      <trkpt lat="50.11377" lon="4.18239">
        <ele>181</ele>
        <time>2024-04-26T05:46:59Z</time>
      </trkpt>
      <trkpt lat="50.11385" lon="4.18232">
        <ele>181</ele>
        <time>2024-04-26T05:47:00Z</time>
      </trkpt>
      <trkpt lat="50.11393" lon="4.18225">
        <ele>181.2</ele>
        <time>2024-04-26T05:47:01Z</time>
      </trkpt>
      <trkpt lat="50.11401" lon="4.18218">
        <ele>181.2</ele>
        <time>2024-04-26T05:47:02Z</time>
      </trkpt>
      <trkpt lat="50.1141" lon="4.18211">
        <ele>181</ele>
        <time>2024-04-26T05:47:03Z</time>
      </trkpt>
      <trkpt lat="50.11418" lon="4.18204">
        <ele>181</ele>
        <time>2024-04-26T05:47:04Z</time>
      </trkpt>
      <trkpt lat="50.11426" lon="4.18198">
        <ele>181</ele>
        <time>2024-04-26T05:47:05Z</time>
      </trkpt>
      <trkpt lat="50.11434" lon="4.18192">
        <ele>181</ele>
        <time>2024-04-26T05:47:06Z</time>
      </trkpt>
      <trkpt lat="50.11441" lon="4.18187">
        <ele>180.8</ele>
        <time>2024-04-26T05:47:07Z</time>
      </trkpt>
      <trkpt lat="50.11448" lon="4.18181">
        <ele>180.6</ele>
        <time>2024-04-26T05:47:08Z</time>
      </trkpt>
      <trkpt lat="50.11454" lon="4.18176">
        <ele>180.8</ele>
        <time>2024-04-26T05:47:09Z</time>
      </trkpt>
      <trkpt lat="50.1146" lon="4.18171">
        <ele>180.6</ele>
        <time>2024-04-26T05:47:10Z</time>
      </trkpt>
      <trkpt lat="50.11466" lon="4.18166">
        <ele>180.6</ele>
        <time>2024-04-26T05:47:11Z</time>
      </trkpt>
      <trkpt lat="50.11471" lon="4.18162">
        <ele>180.6</ele>
        <time>2024-04-26T05:47:12Z</time>
      </trkpt>
      <trkpt lat="50.11475" lon="4.18157">
        <ele>180.4</ele>
        <time>2024-04-26T05:47:13Z</time>
      </trkpt>
      <trkpt lat="50.1148" lon="4.18152">
        <ele>180.4</ele>
        <time>2024-04-26T05:47:14Z</time>
      </trkpt>
      <trkpt lat="50.11484" lon="4.18148">
        <ele>180.6</ele>
        <time>2024-04-26T05:47:15Z</time>
      </trkpt>
      <trkpt lat="50.11488" lon="4.18143">
        <ele>180.4</ele>
        <time>2024-04-26T05:47:16Z</time>
      </trkpt>
      <trkpt lat="50.11492" lon="4.18138">
        <ele>180.6</ele>
        <time>2024-04-26T05:47:17Z</time>
      </trkpt>
      <trkpt lat="50.11496" lon="4.18133">
        <ele>181</ele>
        <time>2024-04-26T05:47:18Z</time>
      </trkpt>
      <trkpt lat="50.115" lon="4.18128">
        <ele>181.4</ele>
        <time>2024-04-26T05:47:19Z</time>
      </trkpt>
      <trkpt lat="50.11504" lon="4.18123">
        <ele>182</ele>
        <time>2024-04-26T05:47:20Z</time>
      </trkpt>
      <trkpt lat="50.11507" lon="4.18118">
        <ele>182.8</ele>
        <time>2024-04-26T05:47:21Z</time>
      </trkpt>
      <trkpt lat="50.11511" lon="4.18112">
        <ele>183.2</ele>
        <time>2024-04-26T05:47:22Z</time>
      </trkpt>
      <trkpt lat="50.11515" lon="4.18107">
        <ele>183.8</ele>
        <time>2024-04-26T05:47:23Z</time>
      </trkpt>
      <trkpt lat="50.11519" lon="4.18103">
        <ele>184.4</ele>
        <time>2024-04-26T05:47:24Z</time>
      </trkpt>
      <trkpt lat="50.11523" lon="4.18098">
        <ele>184.8</ele>
        <time>2024-04-26T05:47:25Z</time>
      </trkpt>
      <trkpt lat="50.11527" lon="4.18094">
        <ele>185.8</ele>
        <time>2024-04-26T05:47:26Z</time>
      </trkpt>
      <trkpt lat="50.11532" lon="4.1809">
        <ele>186.8</ele>
        <time>2024-04-26T05:47:27Z</time>
      </trkpt>
      <trkpt lat="50.11536" lon="4.18086">
        <ele>187</ele>
        <time>2024-04-26T05:47:28Z</time>
      </trkpt>
      <trkpt lat="50.1154" lon="4.18082">
        <ele>187.4</ele>
        <time>2024-04-26T05:47:29Z</time>
      </trkpt>
      <trkpt lat="50.11545" lon="4.18078">
        <ele>187.6</ele>
        <time>2024-04-26T05:47:30Z</time>
      </trkpt>
      <trkpt lat="50.11549" lon="4.18074">
        <ele>188.6</ele>
        <time>2024-04-26T05:47:31Z</time>
      </trkpt>
      <trkpt lat="50.11553" lon="4.1807">
        <ele>189.6</ele>
        <time>2024-04-26T05:47:32Z</time>
      </trkpt>
      <trkpt lat="50.11557" lon="4.18065">
        <ele>190.4</ele>
        <time>2024-04-26T05:47:33Z</time>
      </trkpt>
      <trkpt lat="50.11561" lon="4.18059">
        <ele>190.4</ele>
        <time>2024-04-26T05:47:34Z</time>
      </trkpt>
      <trkpt lat="50.11565" lon="4.18054">
        <ele>190.6</ele>
        <time>2024-04-26T05:47:35Z</time>
      </trkpt>
      <trkpt lat="50.11569" lon="4.18047">
        <ele>191.2</ele>
        <time>2024-04-26T05:47:36Z</time>
      </trkpt>
      <trkpt lat="50.11574" lon="4.1804">
        <ele>191.4</ele>
        <time>2024-04-26T05:47:37Z</time>
      </trkpt>
      <trkpt lat="50.11578" lon="4.18032">
        <ele>192</ele>
        <time>2024-04-26T05:47:38Z</time>
      </trkpt>
      <trkpt lat="50.11583" lon="4.18023">
        <ele>192.4</ele>
        <time>2024-04-26T05:47:39Z</time>
      </trkpt>
      <trkpt lat="50.11589" lon="4.18014">
        <ele>192.6</ele>
        <time>2024-04-26T05:47:40Z</time>
      </trkpt>
      <trkpt lat="50.11595" lon="4.18005">
        <ele>192.6</ele>
        <time>2024-04-26T05:47:41Z</time>
      </trkpt>
      <trkpt lat="50.11602" lon="4.17996">
        <ele>192.6</ele>
        <time>2024-04-26T05:47:42Z</time>
      </trkpt>
      <trkpt lat="50.11609" lon="4.17987">
        <ele>192.8</ele>
        <time>2024-04-26T05:47:43Z</time>
      </trkpt>
      <trkpt lat="50.11616" lon="4.17978">
        <ele>192.6</ele>
        <time>2024-04-26T05:47:44Z</time>
      </trkpt>
      <trkpt lat="50.11624" lon="4.17969">
        <ele>192.6</ele>
        <time>2024-04-26T05:47:45Z</time>
      </trkpt>
      <trkpt lat="50.11633" lon="4.1796">
        <ele>192.6</ele>
        <time>2024-04-26T05:47:46Z</time>
      </trkpt>
      <trkpt lat="50.11642" lon="4.17952">
        <ele>192.8</ele>
        <time>2024-04-26T05:47:47Z</time>
      </trkpt>
      <trkpt lat="50.11651" lon="4.17943">
        <ele>192.6</ele>
        <time>2024-04-26T05:47:48Z</time>
      </trkpt>
      <trkpt lat="50.11661" lon="4.17934">
        <ele>192.4</ele>
        <time>2024-04-26T05:47:49Z</time>
      </trkpt>
      <trkpt lat="50.11671" lon="4.17924">
        <ele>191.8</ele>
        <time>2024-04-26T05:47:50Z</time>
      </trkpt>
      <trkpt lat="50.11681" lon="4.17915">
        <ele>191.2</ele>
        <time>2024-04-26T05:47:51Z</time>
      </trkpt>
      <trkpt lat="50.11692" lon="4.17907">
        <ele>190.4</ele>
        <time>2024-04-26T05:47:52Z</time>
      </trkpt>
      <trkpt lat="50.11704" lon="4.17899">
        <ele>189.4</ele>
        <time>2024-04-26T05:47:53Z</time>
      </trkpt>
      <trkpt lat="50.11715" lon="4.17893">
        <ele>188.4</ele>
        <time>2024-04-26T05:47:54Z</time>
      </trkpt>
      <trkpt lat="50.11727" lon="4.17887">
        <ele>187</ele>
        <time>2024-04-26T05:47:55Z</time>
      </trkpt>
      <trkpt lat="50.11739" lon="4.17882">
        <ele>185.2</ele>
        <time>2024-04-26T05:47:56Z</time>
      </trkpt>
      <trkpt lat="50.11751" lon="4.17878">
        <ele>185.2</ele>
        <time>2024-04-26T05:47:57Z</time>
      </trkpt>
      <trkpt lat="50.11762" lon="4.17873">
        <ele>184</ele>
        <time>2024-04-26T05:47:58Z</time>
      </trkpt>
      <trkpt lat="50.11772" lon="4.17868">
        <ele>182.8</ele>
        <time>2024-04-26T05:47:59Z</time>
      </trkpt>
      <trkpt lat="50.11782" lon="4.17861">
        <ele>181.4</ele>
        <time>2024-04-26T05:48:00Z</time>
      </trkpt>
      <trkpt lat="50.11791" lon="4.17854">
        <ele>179.8</ele>
        <time>2024-04-26T05:48:01Z</time>
      </trkpt>
      <trkpt lat="50.11799" lon="4.17845">
        <ele>178.8</ele>
        <time>2024-04-26T05:48:02Z</time>
      </trkpt>
      <trkpt lat="50.11806" lon="4.17837">
        <ele>178</ele>
        <time>2024-04-26T05:48:03Z</time>
      </trkpt>
      <trkpt lat="50.11813" lon="4.1783">
        <ele>177.8</ele>
        <time>2024-04-26T05:48:04Z</time>
      </trkpt>
      <trkpt lat="50.11821" lon="4.17822">
        <ele>177.4</ele>
        <time>2024-04-26T05:48:05Z</time>
      </trkpt>
      <trkpt lat="50.11828" lon="4.17814">
        <ele>177.2</ele>
        <time>2024-04-26T05:48:06Z</time>
      </trkpt>
      <trkpt lat="50.11835" lon="4.17807">
        <ele>177.4</ele>
        <time>2024-04-26T05:48:07Z</time>
      </trkpt>
      <trkpt lat="50.11842" lon="4.178">
        <ele>177.2</ele>
        <time>2024-04-26T05:48:08Z</time>
      </trkpt>
      <trkpt lat="50.1185" lon="4.17794">
        <ele>177.4</ele>
        <time>2024-04-26T05:48:09Z</time>
      </trkpt>
      <trkpt lat="50.11859" lon="4.17791">
        <ele>177.4</ele>
        <time>2024-04-26T05:48:10Z</time>
      </trkpt>
      <trkpt lat="50.11868" lon="4.1779">
        <ele>177.2</ele>
        <time>2024-04-26T05:48:11Z</time>
      </trkpt>
      <trkpt lat="50.11876" lon="4.17789">
        <ele>177.2</ele>
        <time>2024-04-26T05:48:12Z</time>
      </trkpt>
      <trkpt lat="50.11885" lon="4.17789">
        <ele>177.2</ele>
        <time>2024-04-26T05:48:13Z</time>
      </trkpt>
      <trkpt lat="50.11893" lon="4.17789">
        <ele>177.2</ele>
        <time>2024-04-26T05:48:14Z</time>
      </trkpt>
      <trkpt lat="50.11902" lon="4.17789">
        <ele>177.2</ele>
        <time>2024-04-26T05:48:15Z</time>
      </trkpt>
      <trkpt lat="50.11909" lon="4.1779">
        <ele>177.4</ele>
        <time>2024-04-26T05:48:16Z</time>
      </trkpt>
      <trkpt lat="50.11917" lon="4.17791">
        <ele>177.4</ele>
        <time>2024-04-26T05:48:17Z</time>
      </trkpt>
      <trkpt lat="50.11925" lon="4.17792">
        <ele>177.6</ele>
        <time>2024-04-26T05:48:18Z</time>
      </trkpt>
      <trkpt lat="50.11932" lon="4.17792">
        <ele>177.6</ele>
        <time>2024-04-26T05:48:19Z</time>
      </trkpt>
      <trkpt lat="50.11939" lon="4.17792">
        <ele>177.6</ele>
        <time>2024-04-26T05:48:20Z</time>
      </trkpt>
      <trkpt lat="50.11946" lon="4.17791">
        <ele>177.4</ele>
        <time>2024-04-26T05:48:21Z</time>
      </trkpt>
      <trkpt lat="50.11953" lon="4.17789">
        <ele>177.6</ele>
        <time>2024-04-26T05:48:22Z</time>
      </trkpt>
      <trkpt lat="50.11959" lon="4.17786">
        <ele>177.6</ele>
        <time>2024-04-26T05:48:23Z</time>
      </trkpt>
      <trkpt lat="50.11965" lon="4.17782">
        <ele>177.6</ele>
        <time>2024-04-26T05:48:24Z</time>
      </trkpt>
      <trkpt lat="50.1197" lon="4.17778">
        <ele>177.6</ele>
        <time>2024-04-26T05:48:25Z</time>
      </trkpt>
      <trkpt lat="50.11975" lon="4.17772">
        <ele>177.6</ele>
        <time>2024-04-26T05:48:26Z</time>
      </trkpt>
      <trkpt lat="50.1198" lon="4.17766">
        <ele>177.8</ele>
        <time>2024-04-26T05:48:27Z</time>
      </trkpt>
      <trkpt lat="50.11984" lon="4.17759">
        <ele>178.4</ele>
        <time>2024-04-26T05:48:28Z</time>
      </trkpt>
      <trkpt lat="50.11987" lon="4.17752">
        <ele>179</ele>
        <time>2024-04-26T05:48:29Z</time>
      </trkpt>
      <trkpt lat="50.1199" lon="4.17744">
        <ele>179.2</ele>
        <time>2024-04-26T05:48:30Z</time>
      </trkpt>
      <trkpt lat="50.11992" lon="4.17736">
        <ele>180</ele>
        <time>2024-04-26T05:48:31Z</time>
      </trkpt>
      <trkpt lat="50.11994" lon="4.17727">
        <ele>180.6</ele>
        <time>2024-04-26T05:48:32Z</time>
      </trkpt>
      <trkpt lat="50.11995" lon="4.17718">
        <ele>181.4</ele>
        <time>2024-04-26T05:48:33Z</time>
      </trkpt>
      <trkpt lat="50.11996" lon="4.17709">
        <ele>181.8</ele>
        <time>2024-04-26T05:48:34Z</time>
      </trkpt>
      <trkpt lat="50.11997" lon="4.17699">
        <ele>182.4</ele>
        <time>2024-04-26T05:48:35Z</time>
      </trkpt>
      <trkpt lat="50.11998" lon="4.1769">
        <ele>182.6</ele>
        <time>2024-04-26T05:48:36Z</time>
      </trkpt>
      <trkpt lat="50.11999" lon="4.1768">
        <ele>183.2</ele>
        <time>2024-04-26T05:48:37Z</time>
      </trkpt>
      <trkpt lat="50.12" lon="4.17671">
        <ele>183.6</ele>
        <time>2024-04-26T05:48:38Z</time>
      </trkpt>
      <trkpt lat="50.12001" lon="4.1766">
        <ele>184.2</ele>
        <time>2024-04-26T05:48:39Z</time>
      </trkpt>
      <trkpt lat="50.12002" lon="4.1765">
        <ele>184.2</ele>
        <time>2024-04-26T05:48:40Z</time>
      </trkpt>
      <trkpt lat="50.12003" lon="4.1764">
        <ele>184.2</ele>
        <time>2024-04-26T05:48:41Z</time>
      </trkpt>
      <trkpt lat="50.12004" lon="4.17629">
        <ele>184.4</ele>
        <time>2024-04-26T05:48:42Z</time>
      </trkpt>
      <trkpt lat="50.12006" lon="4.17618">
        <ele>184.6</ele>
        <time>2024-04-26T05:48:43Z</time>
      </trkpt>
      <trkpt lat="50.12007" lon="4.17608">
        <ele>184.8</ele>
        <time>2024-04-26T05:48:44Z</time>
      </trkpt>
      <trkpt lat="50.12009" lon="4.17597">
        <ele>184.8</ele>
        <time>2024-04-26T05:48:45Z</time>
      </trkpt>
      <trkpt lat="50.12011" lon="4.17586">
        <ele>184.8</ele>
        <time>2024-04-26T05:48:46Z</time>
      </trkpt>
      <trkpt lat="50.12014" lon="4.17576">
        <ele>185</ele>
        <time>2024-04-26T05:48:47Z</time>
      </trkpt>
      <trkpt lat="50.12016" lon="4.17565">
        <ele>184.8</ele>
        <time>2024-04-26T05:48:48Z</time>
      </trkpt>
      <trkpt lat="50.12018" lon="4.17554">
        <ele>184.8</ele>
        <time>2024-04-26T05:48:49Z</time>
      </trkpt>
      <trkpt lat="50.1202" lon="4.17543">
        <ele>185</ele>
        <time>2024-04-26T05:48:50Z</time>
      </trkpt>
      <trkpt lat="50.12023" lon="4.17531">
        <ele>185</ele>
        <time>2024-04-26T05:48:51Z</time>
      </trkpt>
      <trkpt lat="50.12025" lon="4.17521">
        <ele>184.8</ele>
        <time>2024-04-26T05:48:52Z</time>
      </trkpt>
      <trkpt lat="50.12027" lon="4.1751">
        <ele>184.8</ele>
        <time>2024-04-26T05:48:53Z</time>
      </trkpt>
      <trkpt lat="50.1203" lon="4.17499">
        <ele>184.8</ele>
        <time>2024-04-26T05:48:54Z</time>
      </trkpt>
      <trkpt lat="50.12033" lon="4.17488">
        <ele>184.8</ele>
        <time>2024-04-26T05:48:55Z</time>
      </trkpt>
      <trkpt lat="50.12035" lon="4.17477">
        <ele>184.8</ele>
        <time>2024-04-26T05:48:56Z</time>
      </trkpt>
      <trkpt lat="50.12038" lon="4.17466">
        <ele>184.6</ele>
        <time>2024-04-26T05:48:57Z</time>
      </trkpt>
      <trkpt lat="50.12041" lon="4.17456">
        <ele>184.6</ele>
        <time>2024-04-26T05:48:58Z</time>
      </trkpt>
      <trkpt lat="50.12044" lon="4.17445">
        <ele>184.6</ele>
        <time>2024-04-26T05:48:59Z</time>
      </trkpt>
      <trkpt lat="50.12047" lon="4.17434">
        <ele>184.6</ele>
        <time>2024-04-26T05:49:00Z</time>
      </trkpt>
      <trkpt lat="50.1205" lon="4.17423">
        <ele>184.4</ele>
        <time>2024-04-26T05:49:01Z</time>
      </trkpt>
      <trkpt lat="50.12052" lon="4.17412">
        <ele>184.4</ele>
        <time>2024-04-26T05:49:02Z</time>
      </trkpt>
      <trkpt lat="50.12054" lon="4.17401">
        <ele>184.4</ele>
        <time>2024-04-26T05:49:03Z</time>
      </trkpt>
      <trkpt lat="50.12056" lon="4.17389">
        <ele>184.2</ele>
        <time>2024-04-26T05:49:04Z</time>
      </trkpt>
      <trkpt lat="50.12058" lon="4.17378">
        <ele>184.2</ele>
        <time>2024-04-26T05:49:05Z</time>
      </trkpt>
      <trkpt lat="50.1206" lon="4.17367">
        <ele>184.2</ele>
        <time>2024-04-26T05:49:06Z</time>
      </trkpt>
      <trkpt lat="50.12062" lon="4.17356">
        <ele>184</ele>
        <time>2024-04-26T05:49:07Z</time>
      </trkpt>
      <trkpt lat="50.12064" lon="4.17345">
        <ele>184</ele>
        <time>2024-04-26T05:49:08Z</time>
      </trkpt>
      <trkpt lat="50.12066" lon="4.17335">
        <ele>184</ele>
        <time>2024-04-26T05:49:09Z</time>
      </trkpt>
      <trkpt lat="50.12068" lon="4.17324">
        <ele>184</ele>
        <time>2024-04-26T05:49:10Z</time>
      </trkpt>
      <trkpt lat="50.12069" lon="4.17314">
        <ele>184</ele>
        <time>2024-04-26T05:49:11Z</time>
      </trkpt>
      <trkpt lat="50.12071" lon="4.17303">
        <ele>184</ele>
        <time>2024-04-26T05:49:12Z</time>
      </trkpt>
      <trkpt lat="50.12072" lon="4.17293">
        <ele>184</ele>
        <time>2024-04-26T05:49:13Z</time>
      </trkpt>
      <trkpt lat="50.12074" lon="4.17282">
        <ele>184</ele>
        <time>2024-04-26T05:49:14Z</time>
      </trkpt>
      <trkpt lat="50.12076" lon="4.17271">
        <ele>183.8</ele>
        <time>2024-04-26T05:49:15Z</time>
      </trkpt>
      <trkpt lat="50.12078" lon="4.17261">
        <ele>184</ele>
        <time>2024-04-26T05:49:16Z</time>
      </trkpt>
      <trkpt lat="50.12079" lon="4.1725">
        <ele>184.4</ele>
        <time>2024-04-26T05:49:17Z</time>
      </trkpt>
      <trkpt lat="50.12081" lon="4.17238">
        <ele>184.4</ele>
        <time>2024-04-26T05:49:18Z</time>
      </trkpt>
      <trkpt lat="50.12082" lon="4.17228">
        <ele>184.4</ele>
        <time>2024-04-26T05:49:19Z</time>
      </trkpt>
      <trkpt lat="50.12084" lon="4.17217">
        <ele>184.4</ele>
        <time>2024-04-26T05:49:20Z</time>
      </trkpt>
      <trkpt lat="50.12085" lon="4.17205">
        <ele>184.6</ele>
        <time>2024-04-26T05:49:21Z</time>
      </trkpt>
      <trkpt lat="50.12086" lon="4.17194">
        <ele>184.4</ele>
        <time>2024-04-26T05:49:22Z</time>
      </trkpt>
      <trkpt lat="50.12088" lon="4.17182">
        <ele>184.6</ele>
        <time>2024-04-26T05:49:23Z</time>
      </trkpt>
      <trkpt lat="50.12089" lon="4.1717">
        <ele>184.6</ele>
        <time>2024-04-26T05:49:24Z</time>
      </trkpt>
      <trkpt lat="50.1209" lon="4.17159">
        <ele>184.6</ele>
        <time>2024-04-26T05:49:25Z</time>
      </trkpt>
      <trkpt lat="50.12091" lon="4.17147">
        <ele>184.4</ele>
        <time>2024-04-26T05:49:26Z</time>
      </trkpt>
      <trkpt lat="50.12092" lon="4.17135">
        <ele>184.6</ele>
        <time>2024-04-26T05:49:27Z</time>
      </trkpt>
      <trkpt lat="50.12093" lon="4.17123">
        <ele>184.6</ele>
        <time>2024-04-26T05:49:28Z</time>
      </trkpt>
      <trkpt lat="50.12094" lon="4.17112">
        <ele>184.2</ele>
        <time>2024-04-26T05:49:29Z</time>
      </trkpt>
      <trkpt lat="50.12095" lon="4.17101">
        <ele>184.2</ele>
        <time>2024-04-26T05:49:30Z</time>
      </trkpt>
      <trkpt lat="50.12097" lon="4.1709">
        <ele>183.8</ele>
        <time>2024-04-26T05:49:31Z</time>
      </trkpt>
      <trkpt lat="50.12099" lon="4.17079">
        <ele>183.8</ele>
        <time>2024-04-26T05:49:32Z</time>
      </trkpt>
      <trkpt lat="50.12102" lon="4.17069">
        <ele>183.6</ele>
        <time>2024-04-26T05:49:33Z</time>
      </trkpt>
      <trkpt lat="50.12104" lon="4.17059">
        <ele>183.6</ele>
        <time>2024-04-26T05:49:34Z</time>
      </trkpt>
      <trkpt lat="50.12107" lon="4.17049">
        <ele>183.4</ele>
        <time>2024-04-26T05:49:35Z</time>
      </trkpt>
      <trkpt lat="50.12109" lon="4.17038">
        <ele>183.4</ele>
        <time>2024-04-26T05:49:36Z</time>
      </trkpt>
      <trkpt lat="50.12111" lon="4.17028">
        <ele>183.2</ele>
        <time>2024-04-26T05:49:37Z</time>
      </trkpt>
      <trkpt lat="50.12113" lon="4.17017">
        <ele>183</ele>
        <time>2024-04-26T05:49:38Z</time>
      </trkpt>
      <trkpt lat="50.12115" lon="4.17006">
        <ele>183.2</ele>
        <time>2024-04-26T05:49:39Z</time>
      </trkpt>
      <trkpt lat="50.12117" lon="4.16995">
        <ele>183</ele>
        <time>2024-04-26T05:49:40Z</time>
      </trkpt>
      <trkpt lat="50.12118" lon="4.16984">
        <ele>183</ele>
        <time>2024-04-26T05:49:41Z</time>
      </trkpt>
      <trkpt lat="50.1212" lon="4.16973">
        <ele>182.8</ele>
        <time>2024-04-26T05:49:42Z</time>
      </trkpt>
      <trkpt lat="50.12121" lon="4.16961">
        <ele>182.8</ele>
        <time>2024-04-26T05:49:43Z</time>
      </trkpt>
      <trkpt lat="50.12123" lon="4.16949">
        <ele>182.8</ele>
        <time>2024-04-26T05:49:44Z</time>
      </trkpt>
      <trkpt lat="50.12124" lon="4.16937">
        <ele>182.8</ele>
        <time>2024-04-26T05:49:45Z</time>
      </trkpt>
      <trkpt lat="50.12126" lon="4.16926">
        <ele>182.6</ele>
        <time>2024-04-26T05:49:46Z</time>
      </trkpt>
      <trkpt lat="50.12127" lon="4.16914">
        <ele>182.6</ele>
        <time>2024-04-26T05:49:47Z</time>
      </trkpt>
      <trkpt lat="50.12129" lon="4.16902">
        <ele>182.6</ele>
        <time>2024-04-26T05:49:48Z</time>
      </trkpt>
      <trkpt lat="50.12131" lon="4.1689">
        <ele>182.6</ele>
        <time>2024-04-26T05:49:49Z</time>
      </trkpt>
      <trkpt lat="50.12132" lon="4.16878">
        <ele>182.6</ele>
        <time>2024-04-26T05:49:50Z</time>
      </trkpt>
      <trkpt lat="50.12134" lon="4.16865">
        <ele>182.4</ele>
        <time>2024-04-26T05:49:51Z</time>
      </trkpt>
      <trkpt lat="50.12136" lon="4.16853">
        <ele>182.2</ele>
        <time>2024-04-26T05:49:52Z</time>
      </trkpt>
      <trkpt lat="50.12139" lon="4.1684">
        <ele>182</ele>
        <time>2024-04-26T05:49:53Z</time>
      </trkpt>
      <trkpt lat="50.12142" lon="4.16827">
        <ele>181.8</ele>
        <time>2024-04-26T05:49:54Z</time>
      </trkpt>
      <trkpt lat="50.12145" lon="4.16814">
        <ele>181.8</ele>
        <time>2024-04-26T05:49:55Z</time>
      </trkpt>
      <trkpt lat="50.12149" lon="4.16801">
        <ele>181.4</ele>
        <time>2024-04-26T05:49:56Z</time>
      </trkpt>
      <trkpt lat="50.12153" lon="4.16789">
        <ele>181.6</ele>
        <time>2024-04-26T05:49:57Z</time>
      </trkpt>
      <trkpt lat="50.12158" lon="4.16776">
        <ele>181.4</ele>
        <time>2024-04-26T05:49:58Z</time>
      </trkpt>
      <trkpt lat="50.12162" lon="4.16764">
        <ele>181.4</ele>
        <time>2024-04-26T05:49:59Z</time>
      </trkpt>
      <trkpt lat="50.12167" lon="4.16752">
        <ele>181</ele>
        <time>2024-04-26T05:50:00Z</time>
      </trkpt>
      <trkpt lat="50.12172" lon="4.16739">
        <ele>180.6</ele>
        <time>2024-04-26T05:50:01Z</time>
      </trkpt>
      <trkpt lat="50.12176" lon="4.16727">
        <ele>180</ele>
        <time>2024-04-26T05:50:02Z</time>
      </trkpt>
      <trkpt lat="50.12181" lon="4.16716">
        <ele>179.6</ele>
        <time>2024-04-26T05:50:03Z</time>
      </trkpt>
      <trkpt lat="50.12186" lon="4.16705">
        <ele>178.8</ele>
        <time>2024-04-26T05:50:04Z</time>
      </trkpt>
      <trkpt lat="50.1219" lon="4.16694">
        <ele>178.6</ele>
        <time>2024-04-26T05:50:05Z</time>
      </trkpt>
      <trkpt lat="50.12195" lon="4.16684">
        <ele>178.4</ele>
        <time>2024-04-26T05:50:06Z</time>
      </trkpt>
      <trkpt lat="50.122" lon="4.16675">
        <ele>178.2</ele>
        <time>2024-04-26T05:50:07Z</time>
      </trkpt>
      <trkpt lat="50.12204" lon="4.16666">
        <ele>178.2</ele>
        <time>2024-04-26T05:50:08Z</time>
      </trkpt>
      <trkpt lat="50.12209" lon="4.16658">
        <ele>178.2</ele>
        <time>2024-04-26T05:50:09Z</time>
      </trkpt>
      <trkpt lat="50.12213" lon="4.1665">
        <ele>178.2</ele>
        <time>2024-04-26T05:50:10Z</time>
      </trkpt>
      <trkpt lat="50.12217" lon="4.16643">
        <ele>178.2</ele>
        <time>2024-04-26T05:50:11Z</time>
      </trkpt>
      <trkpt lat="50.12222" lon="4.16635">
        <ele>178</ele>
        <time>2024-04-26T05:50:12Z</time>
      </trkpt>
      <trkpt lat="50.12226" lon="4.16628">
        <ele>178</ele>
        <time>2024-04-26T05:50:13Z</time>
      </trkpt>
      <trkpt lat="50.1223" lon="4.16621">
        <ele>178</ele>
        <time>2024-04-26T05:50:14Z</time>
      </trkpt>
      <trkpt lat="50.12234" lon="4.16614">
        <ele>178</ele>
        <time>2024-04-26T05:50:15Z</time>
      </trkpt>
      <trkpt lat="50.12237" lon="4.16606">
        <ele>178.2</ele>
        <time>2024-04-26T05:50:16Z</time>
      </trkpt>
      <trkpt lat="50.12241" lon="4.16599">
        <ele>178.4</ele>
        <time>2024-04-26T05:50:17Z</time>
      </trkpt>
      <trkpt lat="50.12244" lon="4.16591">
        <ele>179</ele>
        <time>2024-04-26T05:50:18Z</time>
      </trkpt>
      <trkpt lat="50.12247" lon="4.16583">
        <ele>179.4</ele>
        <time>2024-04-26T05:50:19Z</time>
      </trkpt>
      <trkpt lat="50.1225" lon="4.16575">
        <ele>179.8</ele>
        <time>2024-04-26T05:50:20Z</time>
      </trkpt>
      <trkpt lat="50.12252" lon="4.16567">
        <ele>180.6</ele>
        <time>2024-04-26T05:50:21Z</time>
      </trkpt>
      <trkpt lat="50.12254" lon="4.16558">
        <ele>181.4</ele>
        <time>2024-04-26T05:50:22Z</time>
      </trkpt>
      <trkpt lat="50.12256" lon="4.1655">
        <ele>182</ele>
        <time>2024-04-26T05:50:23Z</time>
      </trkpt>
      <trkpt lat="50.12258" lon="4.16541">
        <ele>183</ele>
        <time>2024-04-26T05:50:24Z</time>
      </trkpt>
      <trkpt lat="50.12259" lon="4.16532">
        <ele>183.6</ele>
        <time>2024-04-26T05:50:25Z</time>
      </trkpt>
      <trkpt lat="50.1226" lon="4.16523">
        <ele>184.4</ele>
        <time>2024-04-26T05:50:26Z</time>
      </trkpt>
      <trkpt lat="50.12262" lon="4.16514">
        <ele>184.8</ele>
        <time>2024-04-26T05:50:27Z</time>
      </trkpt>
      <trkpt lat="50.12263" lon="4.16505">
        <ele>185.4</ele>
        <time>2024-04-26T05:50:28Z</time>
      </trkpt>
      <trkpt lat="50.12264" lon="4.16496">
        <ele>185.6</ele>
        <time>2024-04-26T05:50:29Z</time>
      </trkpt>
      <trkpt lat="50.12266" lon="4.16486">
        <ele>185.6</ele>
        <time>2024-04-26T05:50:30Z</time>
      </trkpt>
      <trkpt lat="50.12268" lon="4.16477">
        <ele>186.2</ele>
        <time>2024-04-26T05:50:31Z</time>
      </trkpt>
      <trkpt lat="50.1227" lon="4.16468">
        <ele>186.6</ele>
        <time>2024-04-26T05:50:32Z</time>
      </trkpt>
      <trkpt lat="50.12273" lon="4.1646">
        <ele>186.8</ele>
        <time>2024-04-26T05:50:33Z</time>
      </trkpt>
      <trkpt lat="50.12276" lon="4.16451">
        <ele>187</ele>
        <time>2024-04-26T05:50:34Z</time>
      </trkpt>
      <trkpt lat="50.12279" lon="4.16442">
        <ele>187</ele>
        <time>2024-04-26T05:50:35Z</time>
      </trkpt>
      <trkpt lat="50.12283" lon="4.16434">
        <ele>186.8</ele>
        <time>2024-04-26T05:50:36Z</time>
      </trkpt>
      <trkpt lat="50.12287" lon="4.16426">
        <ele>187</ele>
        <time>2024-04-26T05:50:37Z</time>
      </trkpt>
      <trkpt lat="50.1229" lon="4.16418">
        <ele>187.2</ele>
        <time>2024-04-26T05:50:38Z</time>
      </trkpt>
      <trkpt lat="50.12294" lon="4.1641">
        <ele>187.2</ele>
        <time>2024-04-26T05:50:39Z</time>
      </trkpt>
      <trkpt lat="50.12297" lon="4.16402">
        <ele>187.2</ele>
        <time>2024-04-26T05:50:40Z</time>
      </trkpt>
      <trkpt lat="50.12301" lon="4.16394">
        <ele>187.4</ele>
        <time>2024-04-26T05:50:41Z</time>
      </trkpt>
      <trkpt lat="50.12304" lon="4.16387">
        <ele>187.4</ele>
        <time>2024-04-26T05:50:42Z</time>
      </trkpt>
      <trkpt lat="50.12307" lon="4.16379">
        <ele>187.6</ele>
        <time>2024-04-26T05:50:43Z</time>
      </trkpt>
      <trkpt lat="50.1231" lon="4.16371">
        <ele>187.6</ele>
        <time>2024-04-26T05:50:44Z</time>
      </trkpt>
      <trkpt lat="50.12313" lon="4.16363">
        <ele>187.6</ele>
        <time>2024-04-26T05:50:45Z</time>
      </trkpt>
      <trkpt lat="50.12316" lon="4.16355">
        <ele>187.6</ele>
        <time>2024-04-26T05:50:46Z</time>
      </trkpt>
      <trkpt lat="50.12319" lon="4.16347">
        <ele>187.6</ele>
        <time>2024-04-26T05:50:47Z</time>
      </trkpt>
      <trkpt lat="50.12321" lon="4.16339">
        <ele>187.8</ele>
        <time>2024-04-26T05:50:48Z</time>
      </trkpt>
      <trkpt lat="50.12323" lon="4.16331">
        <ele>188</ele>
        <time>2024-04-26T05:50:49Z</time>
      </trkpt>
      <trkpt lat="50.12324" lon="4.16322">
        <ele>188.6</ele>
        <time>2024-04-26T05:50:50Z</time>
      </trkpt>
      <trkpt lat="50.12326" lon="4.16314">
        <ele>189.4</ele>
        <time>2024-04-26T05:50:51Z</time>
      </trkpt>
      <trkpt lat="50.12326" lon="4.16305">
        <ele>189.4</ele>
        <time>2024-04-26T05:50:52Z</time>
      </trkpt>
      <trkpt lat="50.12327" lon="4.16297">
        <ele>189.4</ele>
        <time>2024-04-26T05:50:53Z</time>
      </trkpt>
      <trkpt lat="50.12327" lon="4.16288">
        <ele>189.8</ele>
        <time>2024-04-26T05:50:54Z</time>
      </trkpt>
      <trkpt lat="50.12327" lon="4.1628">
        <ele>190</ele>
        <time>2024-04-26T05:50:55Z</time>
      </trkpt>
      <trkpt lat="50.12326" lon="4.16271">
        <ele>190.2</ele>
        <time>2024-04-26T05:50:56Z</time>
      </trkpt>
      <trkpt lat="50.12325" lon="4.16263">
        <ele>190.2</ele>
        <time>2024-04-26T05:50:57Z</time>
      </trkpt>
      <trkpt lat="50.12324" lon="4.16255">
        <ele>190.4</ele>
        <time>2024-04-26T05:50:58Z</time>
      </trkpt>
      <trkpt lat="50.12323" lon="4.16246">
        <ele>190.8</ele>
        <time>2024-04-26T05:50:59Z</time>
      </trkpt>
      <trkpt lat="50.12321" lon="4.16238">
        <ele>191.2</ele>
        <time>2024-04-26T05:51:00Z</time>
      </trkpt>
      <trkpt lat="50.12318" lon="4.16231">
        <ele>191.2</ele>
        <time>2024-04-26T05:51:01Z</time>
      </trkpt>
      <trkpt lat="50.12316" lon="4.16223">
        <ele>191.4</ele>
        <time>2024-04-26T05:51:02Z</time>
      </trkpt>
      <trkpt lat="50.12313" lon="4.16216">
        <ele>191.8</ele>
        <time>2024-04-26T05:51:03Z</time>
      </trkpt>
      <trkpt lat="50.1231" lon="4.16209">
        <ele>191.8</ele>
        <time>2024-04-26T05:51:04Z</time>
      </trkpt>
      <trkpt lat="50.12307" lon="4.16202">
        <ele>191.8</ele>
        <time>2024-04-26T05:51:05Z</time>
      </trkpt>
      <trkpt lat="50.12303" lon="4.16195">
        <ele>192</ele>
        <time>2024-04-26T05:51:06Z</time>
      </trkpt>
      <trkpt lat="50.123" lon="4.16189">
        <ele>192</ele>
        <time>2024-04-26T05:51:07Z</time>
      </trkpt>
      <trkpt lat="50.12296" lon="4.16183">
        <ele>192</ele>
        <time>2024-04-26T05:51:08Z</time>
      </trkpt>
      <trkpt lat="50.12292" lon="4.16177">
        <ele>192.2</ele>
        <time>2024-04-26T05:51:09Z</time>
      </trkpt>
      <trkpt lat="50.12288" lon="4.1617">
        <ele>192.4</ele>
        <time>2024-04-26T05:51:10Z</time>
      </trkpt>
      <trkpt lat="50.12285" lon="4.16164">
        <ele>192.6</ele>
        <time>2024-04-26T05:51:11Z</time>
      </trkpt>
      <trkpt lat="50.12281" lon="4.16158">
        <ele>192.8</ele>
        <time>2024-04-26T05:51:12Z</time>
      </trkpt>
      <trkpt lat="50.12277" lon="4.16152">
        <ele>192.8</ele>
        <time>2024-04-26T05:51:13Z</time>
      </trkpt>
      <trkpt lat="50.12273" lon="4.16146">
        <ele>193</ele>
        <time>2024-04-26T05:51:14Z</time>
      </trkpt>
      <trkpt lat="50.12269" lon="4.16141">
        <ele>193.2</ele>
        <time>2024-04-26T05:51:15Z</time>
      </trkpt>
      <trkpt lat="50.12265" lon="4.16134">
        <ele>193.4</ele>
        <time>2024-04-26T05:51:16Z</time>
      </trkpt>
      <trkpt lat="50.12261" lon="4.16128">
        <ele>193.6</ele>
        <time>2024-04-26T05:51:17Z</time>
      </trkpt>
      <trkpt lat="50.12257" lon="4.16122">
        <ele>193.8</ele>
        <time>2024-04-26T05:51:18Z</time>
      </trkpt>
      <trkpt lat="50.12253" lon="4.16116">
        <ele>194</ele>
        <time>2024-04-26T05:51:19Z</time>
      </trkpt>
      <trkpt lat="50.12249" lon="4.1611">
        <ele>194.4</ele>
        <time>2024-04-26T05:51:20Z</time>
      </trkpt>
      <trkpt lat="50.12245" lon="4.16103">
        <ele>194.6</ele>
        <time>2024-04-26T05:51:21Z</time>
      </trkpt>
      <trkpt lat="50.12241" lon="4.16097">
        <ele>194.6</ele>
        <time>2024-04-26T05:51:22Z</time>
      </trkpt>
      <trkpt lat="50.12237" lon="4.1609">
        <ele>194.8</ele>
        <time>2024-04-26T05:51:23Z</time>
      </trkpt>
      <trkpt lat="50.12233" lon="4.16084">
        <ele>195</ele>
        <time>2024-04-26T05:51:24Z</time>
      </trkpt>
      <trkpt lat="50.12229" lon="4.16077">
        <ele>195</ele>
        <time>2024-04-26T05:51:25Z</time>
      </trkpt>
      <trkpt lat="50.12225" lon="4.1607">
        <ele>195</ele>
        <time>2024-04-26T05:51:26Z</time>
      </trkpt>
      <trkpt lat="50.1222" lon="4.16064">
        <ele>195</ele>
        <time>2024-04-26T05:51:27Z</time>
      </trkpt>
      <trkpt lat="50.12216" lon="4.16057">
        <ele>195.2</ele>
        <time>2024-04-26T05:51:28Z</time>
      </trkpt>
      <trkpt lat="50.12212" lon="4.1605">
        <ele>195.2</ele>
        <time>2024-04-26T05:51:29Z</time>
      </trkpt>
      <trkpt lat="50.12207" lon="4.16043">
        <ele>195.2</ele>
        <time>2024-04-26T05:51:30Z</time>
      </trkpt>
      <trkpt lat="50.12203" lon="4.16036">
        <ele>195.6</ele>
        <time>2024-04-26T05:51:31Z</time>
      </trkpt>
      <trkpt lat="50.12198" lon="4.16029">
        <ele>195.4</ele>
        <time>2024-04-26T05:51:32Z</time>
      </trkpt>
      <trkpt lat="50.12194" lon="4.16022">
        <ele>195.6</ele>
        <time>2024-04-26T05:51:33Z</time>
      </trkpt>
      <trkpt lat="50.1219" lon="4.16015">
        <ele>195.8</ele>
        <time>2024-04-26T05:51:34Z</time>
      </trkpt>
      <trkpt lat="50.12185" lon="4.16008">
        <ele>195.8</ele>
        <time>2024-04-26T05:51:35Z</time>
      </trkpt>
      <trkpt lat="50.12182" lon="4.16">
        <ele>195.8</ele>
        <time>2024-04-26T05:51:36Z</time>
      </trkpt>
      <trkpt lat="50.12178" lon="4.15993">
        <ele>195.8</ele>
        <time>2024-04-26T05:51:37Z</time>
      </trkpt>
      <trkpt lat="50.12174" lon="4.15985">
        <ele>196</ele>
        <time>2024-04-26T05:51:38Z</time>
      </trkpt>
      <trkpt lat="50.12172" lon="4.15977">
        <ele>196</ele>
        <time>2024-04-26T05:51:39Z</time>
      </trkpt>
      <trkpt lat="50.12169" lon="4.15968">
        <ele>196</ele>
        <time>2024-04-26T05:51:40Z</time>
      </trkpt>
      <trkpt lat="50.12168" lon="4.1596">
        <ele>196.4</ele>
        <time>2024-04-26T05:51:41Z</time>
      </trkpt>
      <trkpt lat="50.12166" lon="4.15952">
        <ele>196.4</ele>
        <time>2024-04-26T05:51:42Z</time>
      </trkpt>
      <trkpt lat="50.12165" lon="4.15943">
        <ele>196.2</ele>
        <time>2024-04-26T05:51:43Z</time>
      </trkpt>
      <trkpt lat="50.12165" lon="4.15935">
        <ele>196.4</ele>
        <time>2024-04-26T05:51:44Z</time>
      </trkpt>
      <trkpt lat="50.12165" lon="4.15926">
        <ele>196.6</ele>
        <time>2024-04-26T05:51:45Z</time>
      </trkpt>
      <trkpt lat="50.12166" lon="4.15918">
        <ele>196.6</ele>
        <time>2024-04-26T05:51:46Z</time>
      </trkpt>
      <trkpt lat="50.12167" lon="4.15909">
        <ele>196.8</ele>
        <time>2024-04-26T05:51:47Z</time>
      </trkpt>
      <trkpt lat="50.12169" lon="4.159">
        <ele>196.8</ele>
        <time>2024-04-26T05:51:48Z</time>
      </trkpt>
      <trkpt lat="50.1217" lon="4.15892">
        <ele>197</ele>
        <time>2024-04-26T05:51:49Z</time>
      </trkpt>
      <trkpt lat="50.12172" lon="4.15884">
        <ele>197.4</ele>
        <time>2024-04-26T05:51:50Z</time>
      </trkpt>
      <trkpt lat="50.12174" lon="4.15876">
        <ele>197.6</ele>
        <time>2024-04-26T05:51:51Z</time>
      </trkpt>
      <trkpt lat="50.12177" lon="4.15868">
        <ele>198.2</ele>
        <time>2024-04-26T05:51:52Z</time>
      </trkpt>
      <trkpt lat="50.12179" lon="4.15859">
        <ele>199</ele>
        <time>2024-04-26T05:51:53Z</time>
      </trkpt>
      <trkpt lat="50.12181" lon="4.15851">
        <ele>199.2</ele>
        <time>2024-04-26T05:51:54Z</time>
      </trkpt>
      <trkpt lat="50.12184" lon="4.15842">
        <ele>200</ele>
        <time>2024-04-26T05:51:55Z</time>
      </trkpt>
      <trkpt lat="50.12186" lon="4.15833">
        <ele>200.8</ele>
        <time>2024-04-26T05:51:56Z</time>
      </trkpt>
      <trkpt lat="50.12189" lon="4.15823">
        <ele>200.8</ele>
        <time>2024-04-26T05:51:57Z</time>
      </trkpt>
      <trkpt lat="50.12191" lon="4.15814">
        <ele>201</ele>
        <time>2024-04-26T05:51:58Z</time>
      </trkpt>
      <trkpt lat="50.12194" lon="4.15803">
        <ele>201.4</ele>
        <time>2024-04-26T05:51:59Z</time>
      </trkpt>
      <trkpt lat="50.12197" lon="4.15793">
        <ele>201.4</ele>
        <time>2024-04-26T05:52:00Z</time>
      </trkpt>
      <trkpt lat="50.122" lon="4.15781">
        <ele>201.4</ele>
        <time>2024-04-26T05:52:01Z</time>
      </trkpt>
      <trkpt lat="50.12203" lon="4.1577">
        <ele>201.6</ele>
        <time>2024-04-26T05:52:02Z</time>
      </trkpt>
      <trkpt lat="50.12206" lon="4.15758">
        <ele>201.6</ele>
        <time>2024-04-26T05:52:03Z</time>
      </trkpt>
      <trkpt lat="50.1221" lon="4.15745">
        <ele>201.4</ele>
        <time>2024-04-26T05:52:04Z</time>
      </trkpt>
      <trkpt lat="50.12214" lon="4.15732">
        <ele>201.4</ele>
        <time>2024-04-26T05:52:05Z</time>
      </trkpt>
      <trkpt lat="50.12217" lon="4.15719">
        <ele>201.4</ele>
        <time>2024-04-26T05:52:06Z</time>
      </trkpt>
      <trkpt lat="50.12221" lon="4.15705">
        <ele>201.4</ele>
        <time>2024-04-26T05:52:07Z</time>
      </trkpt>
      <trkpt lat="50.12224" lon="4.1569">
        <ele>201.2</ele>
        <time>2024-04-26T05:52:08Z</time>
      </trkpt>
      <trkpt lat="50.12227" lon="4.15674">
        <ele>201</ele>
        <time>2024-04-26T05:52:09Z</time>
      </trkpt>
      <trkpt lat="50.1223" lon="4.15658">
        <ele>200.2</ele>
        <time>2024-04-26T05:52:10Z</time>
      </trkpt>
      <trkpt lat="50.12233" lon="4.15642">
        <ele>199.4</ele>
        <time>2024-04-26T05:52:11Z</time>
      </trkpt>
      <trkpt lat="50.12236" lon="4.15624">
        <ele>199</ele>
        <time>2024-04-26T05:52:12Z</time>
      </trkpt>
      <trkpt lat="50.12239" lon="4.15607">
        <ele>198.6</ele>
        <time>2024-04-26T05:52:13Z</time>
      </trkpt>
      <trkpt lat="50.12241" lon="4.15589">
        <ele>198</ele>
        <time>2024-04-26T05:52:14Z</time>
      </trkpt>
      <trkpt lat="50.12244" lon="4.1557">
        <ele>197.2</ele>
        <time>2024-04-26T05:52:15Z</time>
      </trkpt>
      <trkpt lat="50.12248" lon="4.15552">
        <ele>196.4</ele>
        <time>2024-04-26T05:52:16Z</time>
      </trkpt>
      <trkpt lat="50.12253" lon="4.15534">
        <ele>195.6</ele>
        <time>2024-04-26T05:52:17Z</time>
      </trkpt>
      <trkpt lat="50.12259" lon="4.15516">
        <ele>195.6</ele>
        <time>2024-04-26T05:52:18Z</time>
      </trkpt>
      <trkpt lat="50.12266" lon="4.15499">
        <ele>194.6</ele>
        <time>2024-04-26T05:52:19Z</time>
      </trkpt>
      <trkpt lat="50.12273" lon="4.15482">
        <ele>194</ele>
        <time>2024-04-26T05:52:20Z</time>
      </trkpt>
      <trkpt lat="50.12281" lon="4.15466">
        <ele>193</ele>
        <time>2024-04-26T05:52:21Z</time>
      </trkpt>
      <trkpt lat="50.12289" lon="4.1545">
        <ele>192</ele>
        <time>2024-04-26T05:52:22Z</time>
      </trkpt>
      <trkpt lat="50.12297" lon="4.15433">
        <ele>190.8</ele>
        <time>2024-04-26T05:52:23Z</time>
      </trkpt>
      <trkpt lat="50.12306" lon="4.15417">
        <ele>189.8</ele>
        <time>2024-04-26T05:52:24Z</time>
      </trkpt>
      <trkpt lat="50.12314" lon="4.15402">
        <ele>188.6</ele>
        <time>2024-04-26T05:52:25Z</time>
      </trkpt>
      <trkpt lat="50.12323" lon="4.15387">
        <ele>187.2</ele>
        <time>2024-04-26T05:52:26Z</time>
      </trkpt>
      <trkpt lat="50.12332" lon="4.15373">
        <ele>186.2</ele>
        <time>2024-04-26T05:52:27Z</time>
      </trkpt>
      <trkpt lat="50.12341" lon="4.1536">
        <ele>185</ele>
        <time>2024-04-26T05:52:28Z</time>
      </trkpt>
      <trkpt lat="50.1235" lon="4.15348">
        <ele>183.6</ele>
        <time>2024-04-26T05:52:29Z</time>
      </trkpt>
      <trkpt lat="50.12359" lon="4.15336">
        <ele>182.4</ele>
        <time>2024-04-26T05:52:30Z</time>
      </trkpt>
      <trkpt lat="50.12368" lon="4.15326">
        <ele>181.2</ele>
        <time>2024-04-26T05:52:31Z</time>
      </trkpt>
      <trkpt lat="50.12376" lon="4.15315">
        <ele>180.6</ele>
        <time>2024-04-26T05:52:32Z</time>
      </trkpt>
      <trkpt lat="50.12385" lon="4.15306">
        <ele>180</ele>
        <time>2024-04-26T05:52:33Z</time>
      </trkpt>
      <trkpt lat="50.12392" lon="4.15297">
        <ele>179.6</ele>
        <time>2024-04-26T05:52:34Z</time>
      </trkpt>
      <trkpt lat="50.124" lon="4.15288">
        <ele>179.6</ele>
        <time>2024-04-26T05:52:35Z</time>
      </trkpt>
      <trkpt lat="50.12406" lon="4.1528">
        <ele>179.6</ele>
        <time>2024-04-26T05:52:36Z</time>
      </trkpt>
      <trkpt lat="50.12413" lon="4.15273">
        <ele>179.6</ele>
        <time>2024-04-26T05:52:37Z</time>
      </trkpt>
      <trkpt lat="50.12418" lon="4.15266">
        <ele>179.6</ele>
        <time>2024-04-26T05:52:38Z</time>
      </trkpt>
      <trkpt lat="50.12423" lon="4.15259">
        <ele>179.6</ele>
        <time>2024-04-26T05:52:39Z</time>
      </trkpt>
      <trkpt lat="50.12429" lon="4.15253">
        <ele>179.6</ele>
        <time>2024-04-26T05:52:40Z</time>
      </trkpt>
      <trkpt lat="50.12434" lon="4.15248">
        <ele>179.6</ele>
        <time>2024-04-26T05:52:41Z</time>
      </trkpt>
      <trkpt lat="50.12438" lon="4.15242">
        <ele>179.6</ele>
        <time>2024-04-26T05:52:42Z</time>
      </trkpt>
      <trkpt lat="50.12443" lon="4.15237">
        <ele>179.6</ele>
        <time>2024-04-26T05:52:43Z</time>
      </trkpt>
      <trkpt lat="50.12448" lon="4.15231">
        <ele>180.6</ele>
        <time>2024-04-26T05:52:44Z</time>
      </trkpt>
      <trkpt lat="50.12452" lon="4.15226">
        <ele>181.4</ele>
        <time>2024-04-26T05:52:45Z</time>
      </trkpt>
      <trkpt lat="50.12457" lon="4.1522">
        <ele>182.2</ele>
        <time>2024-04-26T05:52:46Z</time>
      </trkpt>
      <trkpt lat="50.12462" lon="4.15215">
        <ele>182.6</ele>
        <time>2024-04-26T05:52:47Z</time>
      </trkpt>
      <trkpt lat="50.12466" lon="4.1521">
        <ele>183</ele>
        <time>2024-04-26T05:52:48Z</time>
      </trkpt>
      <trkpt lat="50.1247" lon="4.15205">
        <ele>183.6</ele>
        <time>2024-04-26T05:52:49Z</time>
      </trkpt>
      <trkpt lat="50.12474" lon="4.152">
        <ele>184.2</ele>
        <time>2024-04-26T05:52:50Z</time>
      </trkpt>
      <trkpt lat="50.12478" lon="4.15195">
        <ele>185.4</ele>
        <time>2024-04-26T05:52:51Z</time>
      </trkpt>
      <trkpt lat="50.12482" lon="4.15189">
        <ele>186.4</ele>
        <time>2024-04-26T05:52:52Z</time>
      </trkpt>
      <trkpt lat="50.12486" lon="4.15184">
        <ele>187.2</ele>
        <time>2024-04-26T05:52:53Z</time>
      </trkpt>
      <trkpt lat="50.1249" lon="4.15178">
        <ele>188</ele>
        <time>2024-04-26T05:52:54Z</time>
      </trkpt>
      <trkpt lat="50.12494" lon="4.15172">
        <ele>188.6</ele>
        <time>2024-04-26T05:52:55Z</time>
      </trkpt>
      <trkpt lat="50.12497" lon="4.15166">
        <ele>189</ele>
        <time>2024-04-26T05:52:56Z</time>
      </trkpt>
      <trkpt lat="50.12501" lon="4.1516">
        <ele>189.8</ele>
        <time>2024-04-26T05:52:57Z</time>
      </trkpt>
      <trkpt lat="50.12504" lon="4.15153">
        <ele>190.4</ele>
        <time>2024-04-26T05:52:58Z</time>
      </trkpt>
      <trkpt lat="50.12507" lon="4.15147">
        <ele>190.8</ele>
        <time>2024-04-26T05:52:59Z</time>
      </trkpt>
      <trkpt lat="50.12511" lon="4.15141">
        <ele>191.6</ele>
        <time>2024-04-26T05:53:00Z</time>
      </trkpt>
      <trkpt lat="50.12514" lon="4.15135">
        <ele>192.2</ele>
        <time>2024-04-26T05:53:01Z</time>
      </trkpt>
      <trkpt lat="50.12517" lon="4.15128">
        <ele>192.2</ele>
        <time>2024-04-26T05:53:02Z</time>
      </trkpt>
      <trkpt lat="50.12519" lon="4.15122">
        <ele>192.8</ele>
        <time>2024-04-26T05:53:03Z</time>
      </trkpt>
      <trkpt lat="50.12522" lon="4.15115">
        <ele>193</ele>
        <time>2024-04-26T05:53:04Z</time>
      </trkpt>
      <trkpt lat="50.12525" lon="4.15109">
        <ele>193.2</ele>
        <time>2024-04-26T05:53:05Z</time>
      </trkpt>
      <trkpt lat="50.12528" lon="4.15103">
        <ele>193.6</ele>
        <time>2024-04-26T05:53:06Z</time>
      </trkpt>
      <trkpt lat="50.1253" lon="4.15096">
        <ele>193.6</ele>
        <time>2024-04-26T05:53:07Z</time>
      </trkpt>
      <trkpt lat="50.12533" lon="4.1509">
        <ele>193.8</ele>
        <time>2024-04-26T05:53:08Z</time>
      </trkpt>
      <trkpt lat="50.12536" lon="4.15084">
        <ele>194.2</ele>
        <time>2024-04-26T05:53:09Z</time>
      </trkpt>
      <trkpt lat="50.12539" lon="4.15077">
        <ele>195</ele>
        <time>2024-04-26T05:53:10Z</time>
      </trkpt>
      <trkpt lat="50.12541" lon="4.1507">
        <ele>195.8</ele>
        <time>2024-04-26T05:53:11Z</time>
      </trkpt>
      <trkpt lat="50.12544" lon="4.15064">
        <ele>196.2</ele>
        <time>2024-04-26T05:53:12Z</time>
      </trkpt>
      <trkpt lat="50.12546" lon="4.15057">
        <ele>196.6</ele>
        <time>2024-04-26T05:53:13Z</time>
      </trkpt>
      <trkpt lat="50.12548" lon="4.1505">
        <ele>197.2</ele>
        <time>2024-04-26T05:53:14Z</time>
      </trkpt>
      <trkpt lat="50.12549" lon="4.15043">
        <ele>197.6</ele>
        <time>2024-04-26T05:53:15Z</time>
      </trkpt>
      <trkpt lat="50.1255" lon="4.15036">
        <ele>198</ele>
        <time>2024-04-26T05:53:16Z</time>
      </trkpt>
      <trkpt lat="50.12552" lon="4.15029">
        <ele>198.4</ele>
        <time>2024-04-26T05:53:17Z</time>
      </trkpt>
      <trkpt lat="50.12552" lon="4.15021">
        <ele>199</ele>
        <time>2024-04-26T05:53:18Z</time>
      </trkpt>
      <trkpt lat="50.12553" lon="4.15014">
        <ele>199.2</ele>
        <time>2024-04-26T05:53:19Z</time>
      </trkpt>
      <trkpt lat="50.12553" lon="4.15006">
        <ele>199.8</ele>
        <time>2024-04-26T05:53:20Z</time>
      </trkpt>
      <trkpt lat="50.12554" lon="4.14998">
        <ele>200.2</ele>
        <time>2024-04-26T05:53:21Z</time>
      </trkpt>
      <trkpt lat="50.12554" lon="4.14989">
        <ele>200.6</ele>
        <time>2024-04-26T05:53:22Z</time>
      </trkpt>
      <trkpt lat="50.12554" lon="4.14981">
        <ele>200.6</ele>
        <time>2024-04-26T05:53:23Z</time>
      </trkpt>
      <trkpt lat="50.12553" lon="4.14973">
        <ele>201</ele>
        <time>2024-04-26T05:53:24Z</time>
      </trkpt>
      <trkpt lat="50.12552" lon="4.14965">
        <ele>201.4</ele>
        <time>2024-04-26T05:53:25Z</time>
      </trkpt>
      <trkpt lat="50.12552" lon="4.14958">
        <ele>202</ele>
        <time>2024-04-26T05:53:26Z</time>
      </trkpt>
      <trkpt lat="50.12551" lon="4.1495">
        <ele>202.4</ele>
        <time>2024-04-26T05:53:27Z</time>
      </trkpt>
      <trkpt lat="50.1255" lon="4.14943">
        <ele>202.6</ele>
        <time>2024-04-26T05:53:28Z</time>
      </trkpt>
      <trkpt lat="50.12549" lon="4.14935">
        <ele>202.8</ele>
        <time>2024-04-26T05:53:29Z</time>
      </trkpt>
      <trkpt lat="50.12547" lon="4.14928">
        <ele>203.4</ele>
        <time>2024-04-26T05:53:30Z</time>
      </trkpt>
      <trkpt lat="50.12546" lon="4.1492">
        <ele>203.6</ele>
        <time>2024-04-26T05:53:31Z</time>
      </trkpt>
      <trkpt lat="50.12545" lon="4.14913">
        <ele>204</ele>
        <time>2024-04-26T05:53:32Z</time>
      </trkpt>
      <trkpt lat="50.12545" lon="4.14906">
        <ele>204.6</ele>
        <time>2024-04-26T05:53:33Z</time>
      </trkpt>
      <trkpt lat="50.12543" lon="4.14899">
        <ele>204.8</ele>
        <time>2024-04-26T05:53:34Z</time>
      </trkpt>
      <trkpt lat="50.12542" lon="4.14892">
        <ele>205.4</ele>
        <time>2024-04-26T05:53:35Z</time>
      </trkpt>
      <trkpt lat="50.12541" lon="4.14884">
        <ele>205.8</ele>
        <time>2024-04-26T05:53:36Z</time>
      </trkpt>
      <trkpt lat="50.12539" lon="4.14876">
        <ele>206.2</ele>
        <time>2024-04-26T05:53:37Z</time>
      </trkpt>
      <trkpt lat="50.12538" lon="4.14869">
        <ele>206.4</ele>
        <time>2024-04-26T05:53:38Z</time>
      </trkpt>
      <trkpt lat="50.12536" lon="4.14861">
        <ele>206.8</ele>
        <time>2024-04-26T05:53:39Z</time>
      </trkpt>
      <trkpt lat="50.12534" lon="4.14854">
        <ele>207.2</ele>
        <time>2024-04-26T05:53:40Z</time>
      </trkpt>
      <trkpt lat="50.12532" lon="4.14845">
        <ele>207.8</ele>
        <time>2024-04-26T05:53:41Z</time>
      </trkpt>
      <trkpt lat="50.1253" lon="4.14837">
        <ele>208.2</ele>
        <time>2024-04-26T05:53:42Z</time>
      </trkpt>
      <trkpt lat="50.12529" lon="4.14829">
        <ele>208.4</ele>
        <time>2024-04-26T05:53:43Z</time>
      </trkpt>
      <trkpt lat="50.12527" lon="4.1482">
        <ele>208.4</ele>
        <time>2024-04-26T05:53:44Z</time>
      </trkpt>
      <trkpt lat="50.12526" lon="4.14811">
        <ele>208.8</ele>
        <time>2024-04-26T05:53:45Z</time>
      </trkpt>
      <trkpt lat="50.12525" lon="4.14803">
        <ele>209</ele>
        <time>2024-04-26T05:53:46Z</time>
      </trkpt>
      <trkpt lat="50.12525" lon="4.14794">
        <ele>209.4</ele>
        <time>2024-04-26T05:53:47Z</time>
      </trkpt>
      <trkpt lat="50.12524" lon="4.14786">
        <ele>209.4</ele>
        <time>2024-04-26T05:53:48Z</time>
      </trkpt>
      <trkpt lat="50.12524" lon="4.14777">
        <ele>209.8</ele>
        <time>2024-04-26T05:53:49Z</time>
      </trkpt>
      <trkpt lat="50.12523" lon="4.1477">
        <ele>210</ele>
        <time>2024-04-26T05:53:50Z</time>
      </trkpt>
      <trkpt lat="50.12521" lon="4.14763">
        <ele>210.4</ele>
        <time>2024-04-26T05:53:51Z</time>
      </trkpt>
      <trkpt lat="50.12518" lon="4.14757">
        <ele>211</ele>
        <time>2024-04-26T05:53:52Z</time>
      </trkpt>
      <trkpt lat="50.12514" lon="4.14753">
        <ele>211</ele>
        <time>2024-04-26T05:53:53Z</time>
      </trkpt>
      <trkpt lat="50.12509" lon="4.1475">
        <ele>211.4</ele>
        <time>2024-04-26T05:53:54Z</time>
      </trkpt>
      <trkpt lat="50.12504" lon="4.14748">
        <ele>211.4</ele>
        <time>2024-04-26T05:53:55Z</time>
      </trkpt>
      <trkpt lat="50.12498" lon="4.14747">
        <ele>211.6</ele>
        <time>2024-04-26T05:53:56Z</time>
      </trkpt>
      <trkpt lat="50.12491" lon="4.14747">
        <ele>211.8</ele>
        <time>2024-04-26T05:53:57Z</time>
      </trkpt>
      <trkpt lat="50.12485" lon="4.14745">
        <ele>212</ele>
        <time>2024-04-26T05:53:58Z</time>
      </trkpt>
      <trkpt lat="50.12479" lon="4.14742">
        <ele>212.2</ele>
        <time>2024-04-26T05:53:59Z</time>
      </trkpt>
      <trkpt lat="50.12472" lon="4.14739">
        <ele>212.6</ele>
        <time>2024-04-26T05:54:00Z</time>
      </trkpt>
      <trkpt lat="50.12466" lon="4.14734">
        <ele>213</ele>
        <time>2024-04-26T05:54:01Z</time>
      </trkpt>
      <trkpt lat="50.12461" lon="4.14729">
        <ele>213.4</ele>
        <time>2024-04-26T05:54:02Z</time>
      </trkpt>
      <trkpt lat="50.12455" lon="4.14724">
        <ele>214</ele>
        <time>2024-04-26T05:54:03Z</time>
      </trkpt>
      <trkpt lat="50.12449" lon="4.14718">
        <ele>214</ele>
        <time>2024-04-26T05:54:04Z</time>
      </trkpt>
      <trkpt lat="50.12444" lon="4.14713">
        <ele>214.2</ele>
        <time>2024-04-26T05:54:05Z</time>
      </trkpt>
      <trkpt lat="50.12439" lon="4.14706">
        <ele>214.2</ele>
        <time>2024-04-26T05:54:06Z</time>
      </trkpt>
      <trkpt lat="50.12434" lon="4.147">
        <ele>214.4</ele>
        <time>2024-04-26T05:54:07Z</time>
      </trkpt>
      <trkpt lat="50.12429" lon="4.14693">
        <ele>214.6</ele>
        <time>2024-04-26T05:54:08Z</time>
      </trkpt>
      <trkpt lat="50.12424" lon="4.14686">
        <ele>215</ele>
        <time>2024-04-26T05:54:09Z</time>
      </trkpt>
      <trkpt lat="50.1242" lon="4.14678">
        <ele>215.4</ele>
        <time>2024-04-26T05:54:10Z</time>
      </trkpt>
      <trkpt lat="50.12415" lon="4.14671">
        <ele>215.6</ele>
        <time>2024-04-26T05:54:11Z</time>
      </trkpt>
      <trkpt lat="50.12411" lon="4.14663">
        <ele>215.8</ele>
        <time>2024-04-26T05:54:12Z</time>
      </trkpt>
      <trkpt lat="50.12407" lon="4.14655">
        <ele>216</ele>
        <time>2024-04-26T05:54:13Z</time>
      </trkpt>
      <trkpt lat="50.12403" lon="4.14646">
        <ele>216</ele>
        <time>2024-04-26T05:54:14Z</time>
      </trkpt>
      <trkpt lat="50.12399" lon="4.14637">
        <ele>216.2</ele>
        <time>2024-04-26T05:54:15Z</time>
      </trkpt>
      <trkpt lat="50.12395" lon="4.14628">
        <ele>216</ele>
        <time>2024-04-26T05:54:16Z</time>
      </trkpt>
      <trkpt lat="50.12391" lon="4.14619">
        <ele>216</ele>
        <time>2024-04-26T05:54:17Z</time>
      </trkpt>
      <trkpt lat="50.12387" lon="4.1461">
        <ele>216.2</ele>
        <time>2024-04-26T05:54:18Z</time>
      </trkpt>
      <trkpt lat="50.12382" lon="4.146">
        <ele>216.2</ele>
        <time>2024-04-26T05:54:19Z</time>
      </trkpt>
      <trkpt lat="50.12378" lon="4.14591">
        <ele>216</ele>
        <time>2024-04-26T05:54:20Z</time>
      </trkpt>
      <trkpt lat="50.12373" lon="4.14581">
        <ele>216</ele>
        <time>2024-04-26T05:54:21Z</time>
      </trkpt>
      <trkpt lat="50.12368" lon="4.14571">
        <ele>216.2</ele>
        <time>2024-04-26T05:54:22Z</time>
      </trkpt>
      <trkpt lat="50.12363" lon="4.14561">
        <ele>216.2</ele>
        <time>2024-04-26T05:54:23Z</time>
      </trkpt>
      <trkpt lat="50.12358" lon="4.1455">
        <ele>216</ele>
        <time>2024-04-26T05:54:24Z</time>
      </trkpt>
      <trkpt lat="50.12353" lon="4.14539">
        <ele>216.2</ele>
        <time>2024-04-26T05:54:25Z</time>
      </trkpt>
      <trkpt lat="50.12348" lon="4.14528">
        <ele>215.8</ele>
        <time>2024-04-26T05:54:26Z</time>
      </trkpt>
      <trkpt lat="50.12343" lon="4.14517">
        <ele>215.6</ele>
        <time>2024-04-26T05:54:27Z</time>
      </trkpt>
      <trkpt lat="50.12338" lon="4.14506">
        <ele>215.6</ele>
        <time>2024-04-26T05:54:28Z</time>
      </trkpt>
      <trkpt lat="50.12332" lon="4.14494">
        <ele>215.8</ele>
        <time>2024-04-26T05:54:29Z</time>
      </trkpt>
      <trkpt lat="50.12326" lon="4.14481">
        <ele>215.6</ele>
        <time>2024-04-26T05:54:30Z</time>
      </trkpt>
      <trkpt lat="50.1232" lon="4.14469">
        <ele>215.4</ele>
        <time>2024-04-26T05:54:31Z</time>
      </trkpt>
      <trkpt lat="50.12314" lon="4.14456">
        <ele>215.2</ele>
        <time>2024-04-26T05:54:32Z</time>
      </trkpt>
      <trkpt lat="50.12309" lon="4.14443">
        <ele>214.6</ele>
        <time>2024-04-26T05:54:33Z</time>
      </trkpt>
      <trkpt lat="50.12303" lon="4.1443">
        <ele>214.4</ele>
        <time>2024-04-26T05:54:34Z</time>
      </trkpt>
      <trkpt lat="50.12297" lon="4.14418">
        <ele>213.8</ele>
        <time>2024-04-26T05:54:35Z</time>
      </trkpt>
      <trkpt lat="50.12292" lon="4.14405">
        <ele>213.4</ele>
        <time>2024-04-26T05:54:36Z</time>
      </trkpt>
      <trkpt lat="50.12286" lon="4.14393">
        <ele>212.6</ele>
        <time>2024-04-26T05:54:37Z</time>
      </trkpt>
      <trkpt lat="50.12281" lon="4.14381">
        <ele>211.8</ele>
        <time>2024-04-26T05:54:38Z</time>
      </trkpt>
      <trkpt lat="50.12276" lon="4.1437">
        <ele>211</ele>
        <time>2024-04-26T05:54:39Z</time>
      </trkpt>
      <trkpt lat="50.12271" lon="4.14359">
        <ele>210.4</ele>
        <time>2024-04-26T05:54:40Z</time>
      </trkpt>
      <trkpt lat="50.12265" lon="4.14348">
        <ele>209.8</ele>
        <time>2024-04-26T05:54:41Z</time>
      </trkpt>
      <trkpt lat="50.1226" lon="4.14337">
        <ele>209.2</ele>
        <time>2024-04-26T05:54:42Z</time>
      </trkpt>
      <trkpt lat="50.12256" lon="4.14327">
        <ele>209</ele>
        <time>2024-04-26T05:54:43Z</time>
      </trkpt>
      <trkpt lat="50.12251" lon="4.14317">
        <ele>209</ele>
        <time>2024-04-26T05:54:44Z</time>
      </trkpt>
      <trkpt lat="50.12247" lon="4.14308">
        <ele>208.8</ele>
        <time>2024-04-26T05:54:45Z</time>
      </trkpt>
      <trkpt lat="50.12243" lon="4.14299">
        <ele>209</ele>
        <time>2024-04-26T05:54:46Z</time>
      </trkpt>
      <trkpt lat="50.12239" lon="4.14291">
        <ele>208.8</ele>
        <time>2024-04-26T05:54:47Z</time>
      </trkpt>
      <trkpt lat="50.12236" lon="4.14283">
        <ele>208.8</ele>
        <time>2024-04-26T05:54:48Z</time>
      </trkpt>
      <trkpt lat="50.12232" lon="4.14275">
        <ele>208.8</ele>
        <time>2024-04-26T05:54:49Z</time>
      </trkpt>
      <trkpt lat="50.12228" lon="4.14268">
        <ele>209</ele>
        <time>2024-04-26T05:54:50Z</time>
      </trkpt>
      <trkpt lat="50.12225" lon="4.1426">
        <ele>209</ele>
        <time>2024-04-26T05:54:51Z</time>
      </trkpt>
      <trkpt lat="50.12222" lon="4.14254">
        <ele>208.8</ele>
        <time>2024-04-26T05:54:52Z</time>
      </trkpt>
      <trkpt lat="50.12219" lon="4.14247">
        <ele>209.2</ele>
        <time>2024-04-26T05:54:53Z</time>
      </trkpt>
      <trkpt lat="50.12216" lon="4.14241">
        <ele>209.6</ele>
        <time>2024-04-26T05:54:54Z</time>
      </trkpt>
      <trkpt lat="50.12214" lon="4.14234">
        <ele>210</ele>
        <time>2024-04-26T05:54:55Z</time>
      </trkpt>
      <trkpt lat="50.1221" lon="4.14228">
        <ele>210.4</ele>
        <time>2024-04-26T05:54:56Z</time>
      </trkpt>
      <trkpt lat="50.12208" lon="4.14222">
        <ele>211</ele>
        <time>2024-04-26T05:54:57Z</time>
      </trkpt>
      <trkpt lat="50.12205" lon="4.14215">
        <ele>211.8</ele>
        <time>2024-04-26T05:54:58Z</time>
      </trkpt>
      <trkpt lat="50.12202" lon="4.14209">
        <ele>212.2</ele>
        <time>2024-04-26T05:54:59Z</time>
      </trkpt>
      <trkpt lat="50.12199" lon="4.14203">
        <ele>212.8</ele>
        <time>2024-04-26T05:55:00Z</time>
      </trkpt>
      <trkpt lat="50.12196" lon="4.14196">
        <ele>213.4</ele>
        <time>2024-04-26T05:55:01Z</time>
      </trkpt>
      <trkpt lat="50.12193" lon="4.14189">
        <ele>214</ele>
        <time>2024-04-26T05:55:02Z</time>
      </trkpt>
      <trkpt lat="50.12189" lon="4.14182">
        <ele>214.6</ele>
        <time>2024-04-26T05:55:03Z</time>
      </trkpt>
      <trkpt lat="50.12187" lon="4.14175">
        <ele>215</ele>
        <time>2024-04-26T05:55:04Z</time>
      </trkpt>
      <trkpt lat="50.12184" lon="4.14168">
        <ele>215.6</ele>
        <time>2024-04-26T05:55:05Z</time>
      </trkpt>
      <trkpt lat="50.12181" lon="4.1416">
        <ele>215.8</ele>
        <time>2024-04-26T05:55:06Z</time>
      </trkpt>
      <trkpt lat="50.12178" lon="4.14153">
        <ele>216.6</ele>
        <time>2024-04-26T05:55:07Z</time>
      </trkpt>
      <trkpt lat="50.12175" lon="4.14145">
        <ele>216.8</ele>
        <time>2024-04-26T05:55:08Z</time>
      </trkpt>
      <trkpt lat="50.12173" lon="4.14136">
        <ele>217.2</ele>
        <time>2024-04-26T05:55:09Z</time>
      </trkpt>
      <trkpt lat="50.1217" lon="4.14128">
        <ele>217.8</ele>
        <time>2024-04-26T05:55:10Z</time>
      </trkpt>
      <trkpt lat="50.12168" lon="4.14119">
        <ele>218.2</ele>
        <time>2024-04-26T05:55:11Z</time>
      </trkpt>
      <trkpt lat="50.12166" lon="4.14111">
        <ele>218.4</ele>
        <time>2024-04-26T05:55:12Z</time>
      </trkpt>
      <trkpt lat="50.12164" lon="4.14102">
        <ele>218.4</ele>
        <time>2024-04-26T05:55:13Z</time>
      </trkpt>
      <trkpt lat="50.12162" lon="4.14093">
        <ele>218.6</ele>
        <time>2024-04-26T05:55:14Z</time>
      </trkpt>
      <trkpt lat="50.1216" lon="4.14084">
        <ele>218.8</ele>
        <time>2024-04-26T05:55:15Z</time>
      </trkpt>
      <trkpt lat="50.12158" lon="4.14074">
        <ele>219</ele>
        <time>2024-04-26T05:55:16Z</time>
      </trkpt>
      <trkpt lat="50.12157" lon="4.14063">
        <ele>219</ele>
        <time>2024-04-26T05:55:17Z</time>
      </trkpt>
      <trkpt lat="50.12155" lon="4.14052">
        <ele>219</ele>
        <time>2024-04-26T05:55:18Z</time>
      </trkpt>
      <trkpt lat="50.12154" lon="4.1404">
        <ele>219.2</ele>
        <time>2024-04-26T05:55:19Z</time>
      </trkpt>
      <trkpt lat="50.12152" lon="4.14028">
        <ele>219.4</ele>
        <time>2024-04-26T05:55:20Z</time>
      </trkpt>
      <trkpt lat="50.12151" lon="4.14017">
        <ele>219.2</ele>
        <time>2024-04-26T05:55:21Z</time>
      </trkpt>
      <trkpt lat="50.1215" lon="4.14005">
        <ele>219.2</ele>
        <time>2024-04-26T05:55:22Z</time>
      </trkpt>
      <trkpt lat="50.1215" lon="4.13992">
        <ele>219.4</ele>
        <time>2024-04-26T05:55:23Z</time>
      </trkpt>
      <trkpt lat="50.1215" lon="4.1398">
        <ele>219.4</ele>
        <time>2024-04-26T05:55:24Z</time>
      </trkpt>
      <trkpt lat="50.1215" lon="4.13967">
        <ele>219.2</ele>
        <time>2024-04-26T05:55:25Z</time>
      </trkpt>
      <trkpt lat="50.12151" lon="4.13953">
        <ele>219.2</ele>
        <time>2024-04-26T05:55:26Z</time>
      </trkpt>
      <trkpt lat="50.12153" lon="4.13939">
        <ele>219.2</ele>
        <time>2024-04-26T05:55:27Z</time>
      </trkpt>
      <trkpt lat="50.12155" lon="4.13924">
        <ele>219</ele>
        <time>2024-04-26T05:55:28Z</time>
      </trkpt>
      <trkpt lat="50.12157" lon="4.1391">
        <ele>219</ele>
        <time>2024-04-26T05:55:29Z</time>
      </trkpt>
      <trkpt lat="50.1216" lon="4.13894">
        <ele>219</ele>
        <time>2024-04-26T05:55:30Z</time>
      </trkpt>
      <trkpt lat="50.12163" lon="4.13879">
        <ele>218.8</ele>
        <time>2024-04-26T05:55:31Z</time>
      </trkpt>
      <trkpt lat="50.12167" lon="4.13862">
        <ele>218.6</ele>
        <time>2024-04-26T05:55:32Z</time>
      </trkpt>
      <trkpt lat="50.12172" lon="4.13846">
        <ele>218</ele>
        <time>2024-04-26T05:55:33Z</time>
      </trkpt>
      <trkpt lat="50.12177" lon="4.13829">
        <ele>217.4</ele>
        <time>2024-04-26T05:55:34Z</time>
      </trkpt>
      <trkpt lat="50.12183" lon="4.13812">
        <ele>217.4</ele>
        <time>2024-04-26T05:55:35Z</time>
      </trkpt>
      <trkpt lat="50.1219" lon="4.13796">
        <ele>217</ele>
        <time>2024-04-26T05:55:36Z</time>
      </trkpt>
      <trkpt lat="50.12198" lon="4.1378">
        <ele>216.2</ele>
        <time>2024-04-26T05:55:37Z</time>
      </trkpt>
      <trkpt lat="50.12207" lon="4.13763">
        <ele>215</ele>
        <time>2024-04-26T05:55:38Z</time>
      </trkpt>
      <trkpt lat="50.12215" lon="4.13746">
        <ele>214.2</ele>
        <time>2024-04-26T05:55:39Z</time>
      </trkpt>
      <trkpt lat="50.12224" lon="4.13729">
        <ele>212.6</ele>
        <time>2024-04-26T05:55:40Z</time>
      </trkpt>
      <trkpt lat="50.12232" lon="4.13712">
        <ele>211.2</ele>
        <time>2024-04-26T05:55:41Z</time>
      </trkpt>
      <trkpt lat="50.1224" lon="4.13695">
        <ele>209.6</ele>
        <time>2024-04-26T05:55:42Z</time>
      </trkpt>
      <trkpt lat="50.12247" lon="4.13678">
        <ele>207.8</ele>
        <time>2024-04-26T05:55:43Z</time>
      </trkpt>
      <trkpt lat="50.12255" lon="4.13662">
        <ele>205.8</ele>
        <time>2024-04-26T05:55:44Z</time>
      </trkpt>
      <trkpt lat="50.12262" lon="4.13646">
        <ele>204</ele>
        <time>2024-04-26T05:55:45Z</time>
      </trkpt>
      <trkpt lat="50.12269" lon="4.13631">
        <ele>202.6</ele>
        <time>2024-04-26T05:55:46Z</time>
      </trkpt>
      <trkpt lat="50.12276" lon="4.13616">
        <ele>201.4</ele>
        <time>2024-04-26T05:55:47Z</time>
      </trkpt>
      <trkpt lat="50.12283" lon="4.13601">
        <ele>200</ele>
        <time>2024-04-26T05:55:48Z</time>
      </trkpt>
      <trkpt lat="50.12289" lon="4.13587">
        <ele>198.2</ele>
        <time>2024-04-26T05:55:49Z</time>
      </trkpt>
      <trkpt lat="50.12295" lon="4.13574">
        <ele>197.2</ele>
        <time>2024-04-26T05:55:50Z</time>
      </trkpt>
      <trkpt lat="50.12301" lon="4.13562">
        <ele>196.8</ele>
        <time>2024-04-26T05:55:51Z</time>
      </trkpt>
      <trkpt lat="50.12307" lon="4.1355">
        <ele>196.6</ele>
        <time>2024-04-26T05:55:52Z</time>
      </trkpt>
      <trkpt lat="50.12312" lon="4.13539">
        <ele>196.4</ele>
        <time>2024-04-26T05:55:53Z</time>
      </trkpt>
      <trkpt lat="50.12317" lon="4.13528">
        <ele>196.4</ele>
        <time>2024-04-26T05:55:54Z</time>
      </trkpt>
      <trkpt lat="50.12321" lon="4.13518">
        <ele>196.2</ele>
        <time>2024-04-26T05:55:55Z</time>
      </trkpt>
      <trkpt lat="50.12325" lon="4.13509">
        <ele>196.2</ele>
        <time>2024-04-26T05:55:56Z</time>
      </trkpt>
      <trkpt lat="50.12329" lon="4.135">
        <ele>196.4</ele>
        <time>2024-04-26T05:55:57Z</time>
      </trkpt>
      <trkpt lat="50.12333" lon="4.13492">
        <ele>196.4</ele>
        <time>2024-04-26T05:55:58Z</time>
      </trkpt>
      <trkpt lat="50.12336" lon="4.13484">
        <ele>196.4</ele>
        <time>2024-04-26T05:55:59Z</time>
      </trkpt>
      <trkpt lat="50.12339" lon="4.13476">
        <ele>196.8</ele>
        <time>2024-04-26T05:56:00Z</time>
      </trkpt>
      <trkpt lat="50.12341" lon="4.13469">
        <ele>197.6</ele>
        <time>2024-04-26T05:56:01Z</time>
      </trkpt>
      <trkpt lat="50.12344" lon="4.13462">
        <ele>198.4</ele>
        <time>2024-04-26T05:56:02Z</time>
      </trkpt>
      <trkpt lat="50.12347" lon="4.13455">
        <ele>199</ele>
        <time>2024-04-26T05:56:03Z</time>
      </trkpt>
      <trkpt lat="50.12349" lon="4.13449">
        <ele>199.4</ele>
        <time>2024-04-26T05:56:04Z</time>
      </trkpt>
      <trkpt lat="50.12351" lon="4.13443">
        <ele>199.6</ele>
        <time>2024-04-26T05:56:05Z</time>
      </trkpt>
      <trkpt lat="50.12354" lon="4.13436">
        <ele>200.6</ele>
        <time>2024-04-26T05:56:06Z</time>
      </trkpt>
      <trkpt lat="50.12356" lon="4.1343">
        <ele>201.4</ele>
        <time>2024-04-26T05:56:07Z</time>
      </trkpt>
      <trkpt lat="50.12359" lon="4.13424">
        <ele>202</ele>
        <time>2024-04-26T05:56:08Z</time>
      </trkpt>
      <trkpt lat="50.12361" lon="4.13418">
        <ele>202.4</ele>
        <time>2024-04-26T05:56:09Z</time>
      </trkpt>
      <trkpt lat="50.12363" lon="4.13412">
        <ele>202.8</ele>
        <time>2024-04-26T05:56:10Z</time>
      </trkpt>
      <trkpt lat="50.12365" lon="4.13405">
        <ele>203.6</ele>
        <time>2024-04-26T05:56:11Z</time>
      </trkpt>
      <trkpt lat="50.12367" lon="4.13398">
        <ele>204.2</ele>
        <time>2024-04-26T05:56:12Z</time>
      </trkpt>
      <trkpt lat="50.12369" lon="4.13392">
        <ele>204.8</ele>
        <time>2024-04-26T05:56:13Z</time>
      </trkpt>
      <trkpt lat="50.12371" lon="4.13384">
        <ele>205.2</ele>
        <time>2024-04-26T05:56:14Z</time>
      </trkpt>
      <trkpt lat="50.12373" lon="4.13377">
        <ele>205.8</ele>
        <time>2024-04-26T05:56:15Z</time>
      </trkpt>
      <trkpt lat="50.12375" lon="4.13371">
        <ele>206.6</ele>
        <time>2024-04-26T05:56:16Z</time>
      </trkpt>
      <trkpt lat="50.12377" lon="4.13364">
        <ele>207</ele>
        <time>2024-04-26T05:56:17Z</time>
      </trkpt>
      <trkpt lat="50.12379" lon="4.13356">
        <ele>207</ele>
        <time>2024-04-26T05:56:18Z</time>
      </trkpt>
      <trkpt lat="50.12381" lon="4.13349">
        <ele>207.4</ele>
        <time>2024-04-26T05:56:19Z</time>
      </trkpt>
      <trkpt lat="50.12383" lon="4.13342">
        <ele>208</ele>
        <time>2024-04-26T05:56:20Z</time>
      </trkpt>
      <trkpt lat="50.12385" lon="4.13334">
        <ele>208.4</ele>
        <time>2024-04-26T05:56:21Z</time>
      </trkpt>
      <trkpt lat="50.12388" lon="4.13327">
        <ele>208.6</ele>
        <time>2024-04-26T05:56:22Z</time>
      </trkpt>
      <trkpt lat="50.1239" lon="4.13319">
        <ele>209</ele>
        <time>2024-04-26T05:56:23Z</time>
      </trkpt>
      <trkpt lat="50.12393" lon="4.13312">
        <ele>209.4</ele>
        <time>2024-04-26T05:56:24Z</time>
      </trkpt>
      <trkpt lat="50.12395" lon="4.13304">
        <ele>209.8</ele>
        <time>2024-04-26T05:56:25Z</time>
      </trkpt>
      <trkpt lat="50.12398" lon="4.13296">
        <ele>210.2</ele>
        <time>2024-04-26T05:56:26Z</time>
      </trkpt>
      <trkpt lat="50.124" lon="4.13287">
        <ele>210.4</ele>
        <time>2024-04-26T05:56:27Z</time>
      </trkpt>
      <trkpt lat="50.12403" lon="4.13279">
        <ele>210.6</ele>
        <time>2024-04-26T05:56:28Z</time>
      </trkpt>
      <trkpt lat="50.12406" lon="4.13271">
        <ele>210.8</ele>
        <time>2024-04-26T05:56:29Z</time>
      </trkpt>
      <trkpt lat="50.12409" lon="4.13263">
        <ele>211.2</ele>
        <time>2024-04-26T05:56:30Z</time>
      </trkpt>
      <trkpt lat="50.12412" lon="4.13254">
        <ele>211.6</ele>
        <time>2024-04-26T05:56:31Z</time>
      </trkpt>
      <trkpt lat="50.12414" lon="4.13246">
        <ele>211.8</ele>
        <time>2024-04-26T05:56:32Z</time>
      </trkpt>
      <trkpt lat="50.12417" lon="4.13238">
        <ele>212</ele>
        <time>2024-04-26T05:56:33Z</time>
      </trkpt>
      <trkpt lat="50.12419" lon="4.13228">
        <ele>212.4</ele>
        <time>2024-04-26T05:56:34Z</time>
      </trkpt>
      <trkpt lat="50.12422" lon="4.13219">
        <ele>213.2</ele>
        <time>2024-04-26T05:56:35Z</time>
      </trkpt>
      <trkpt lat="50.12424" lon="4.13209">
        <ele>213.6</ele>
        <time>2024-04-26T05:56:36Z</time>
      </trkpt>
      <trkpt lat="50.12427" lon="4.13199">
        <ele>214</ele>
        <time>2024-04-26T05:56:37Z</time>
      </trkpt>
      <trkpt lat="50.12429" lon="4.13189">
        <ele>214.2</ele>
        <time>2024-04-26T05:56:38Z</time>
      </trkpt>
      <trkpt lat="50.12432" lon="4.13178">
        <ele>214.2</ele>
        <time>2024-04-26T05:56:39Z</time>
      </trkpt>
      <trkpt lat="50.12435" lon="4.13168">
        <ele>214.2</ele>
        <time>2024-04-26T05:56:40Z</time>
      </trkpt>
      <trkpt lat="50.12438" lon="4.13158">
        <ele>214.2</ele>
        <time>2024-04-26T05:56:41Z</time>
      </trkpt>
      <trkpt lat="50.12441" lon="4.13147">
        <ele>214.4</ele>
        <time>2024-04-26T05:56:42Z</time>
      </trkpt>
      <trkpt lat="50.12443" lon="4.13136">
        <ele>214.2</ele>
        <time>2024-04-26T05:56:43Z</time>
      </trkpt>
      <trkpt lat="50.12446" lon="4.13126">
        <ele>214.4</ele>
        <time>2024-04-26T05:56:44Z</time>
      </trkpt>
      <trkpt lat="50.12449" lon="4.13114">
        <ele>214.2</ele>
        <time>2024-04-26T05:56:45Z</time>
      </trkpt>
      <trkpt lat="50.12451" lon="4.13103">
        <ele>214.4</ele>
        <time>2024-04-26T05:56:46Z</time>
      </trkpt>
      <trkpt lat="50.12454" lon="4.1309">
        <ele>214.4</ele>
        <time>2024-04-26T05:56:47Z</time>
      </trkpt>
      <trkpt lat="50.12456" lon="4.13077">
        <ele>214.2</ele>
        <time>2024-04-26T05:56:48Z</time>
      </trkpt>
      <trkpt lat="50.12459" lon="4.13064">
        <ele>214</ele>
        <time>2024-04-26T05:56:49Z</time>
      </trkpt>
      <trkpt lat="50.12461" lon="4.13049">
        <ele>214.2</ele>
        <time>2024-04-26T05:56:50Z</time>
      </trkpt>
      <trkpt lat="50.12463" lon="4.13035">
        <ele>213.8</ele>
        <time>2024-04-26T05:56:51Z</time>
      </trkpt>
      <trkpt lat="50.12466" lon="4.13019">
        <ele>213.6</ele>
        <time>2024-04-26T05:56:52Z</time>
      </trkpt>
      <trkpt lat="50.12469" lon="4.13002">
        <ele>213.2</ele>
        <time>2024-04-26T05:56:53Z</time>
      </trkpt>
      <trkpt lat="50.12471" lon="4.12985">
        <ele>212.6</ele>
        <time>2024-04-26T05:56:54Z</time>
      </trkpt>
      <trkpt lat="50.12474" lon="4.12968">
        <ele>212.2</ele>
        <time>2024-04-26T05:56:55Z</time>
      </trkpt>
      <trkpt lat="50.12477" lon="4.1295">
        <ele>211.8</ele>
        <time>2024-04-26T05:56:56Z</time>
      </trkpt>
      <trkpt lat="50.1248" lon="4.12931">
        <ele>211.4</ele>
        <time>2024-04-26T05:56:57Z</time>
      </trkpt>
      <trkpt lat="50.12482" lon="4.12912">
        <ele>210.4</ele>
        <time>2024-04-26T05:56:58Z</time>
      </trkpt>
      <trkpt lat="50.12485" lon="4.12893">
        <ele>209.6</ele>
        <time>2024-04-26T05:56:59Z</time>
      </trkpt>
      <trkpt lat="50.12487" lon="4.12873">
        <ele>209.6</ele>
        <time>2024-04-26T05:57:00Z</time>
      </trkpt>
      <trkpt lat="50.12488" lon="4.12853">
        <ele>208.8</ele>
        <time>2024-04-26T05:57:01Z</time>
      </trkpt>
      <trkpt lat="50.12489" lon="4.12832">
        <ele>208.2</ele>
        <time>2024-04-26T05:57:02Z</time>
      </trkpt>
      <trkpt lat="50.12489" lon="4.12811">
        <ele>207</ele>
        <time>2024-04-26T05:57:03Z</time>
      </trkpt>
      <trkpt lat="50.12487" lon="4.1279">
        <ele>205.4</ele>
        <time>2024-04-26T05:57:04Z</time>
      </trkpt>
      <trkpt lat="50.12484" lon="4.1277">
        <ele>204.4</ele>
        <time>2024-04-26T05:57:05Z</time>
      </trkpt>
      <trkpt lat="50.12481" lon="4.1275">
        <ele>202.6</ele>
        <time>2024-04-26T05:57:06Z</time>
      </trkpt>
      <trkpt lat="50.12477" lon="4.12731">
        <ele>201</ele>
        <time>2024-04-26T05:57:07Z</time>
      </trkpt>
      <trkpt lat="50.12472" lon="4.12713">
        <ele>198.8</ele>
        <time>2024-04-26T05:57:08Z</time>
      </trkpt>
      <trkpt lat="50.12467" lon="4.12696">
        <ele>197.2</ele>
        <time>2024-04-26T05:57:09Z</time>
      </trkpt>
      <trkpt lat="50.12461" lon="4.1268">
        <ele>195.8</ele>
        <time>2024-04-26T05:57:10Z</time>
      </trkpt>
      <trkpt lat="50.12455" lon="4.12665">
        <ele>194.2</ele>
        <time>2024-04-26T05:57:11Z</time>
      </trkpt>
      <trkpt lat="50.12448" lon="4.12652">
        <ele>192.8</ele>
        <time>2024-04-26T05:57:12Z</time>
      </trkpt>
      <trkpt lat="50.12441" lon="4.1264">
        <ele>192.4</ele>
        <time>2024-04-26T05:57:13Z</time>
      </trkpt>
      <trkpt lat="50.12435" lon="4.12629">
        <ele>192</ele>
        <time>2024-04-26T05:57:14Z</time>
      </trkpt>
      <trkpt lat="50.12429" lon="4.12619">
        <ele>192</ele>
        <time>2024-04-26T05:57:15Z</time>
      </trkpt>
      <trkpt lat="50.12423" lon="4.12609">
        <ele>191.8</ele>
        <time>2024-04-26T05:57:16Z</time>
      </trkpt>
      <trkpt lat="50.12418" lon="4.12599">
        <ele>191.6</ele>
        <time>2024-04-26T05:57:17Z</time>
      </trkpt>
      <trkpt lat="50.12414" lon="4.12589">
        <ele>191.6</ele>
        <time>2024-04-26T05:57:18Z</time>
      </trkpt>
      <trkpt lat="50.12411" lon="4.12578">
        <ele>191.6</ele>
        <time>2024-04-26T05:57:19Z</time>
      </trkpt>
      <trkpt lat="50.12409" lon="4.12567">
        <ele>191.6</ele>
        <time>2024-04-26T05:57:20Z</time>
      </trkpt>
      <trkpt lat="50.12406" lon="4.12557">
        <ele>191.6</ele>
        <time>2024-04-26T05:57:21Z</time>
      </trkpt>
      <trkpt lat="50.12403" lon="4.12548">
        <ele>191.6</ele>
        <time>2024-04-26T05:57:22Z</time>
      </trkpt>
      <trkpt lat="50.12399" lon="4.12539">
        <ele>192.2</ele>
        <time>2024-04-26T05:57:23Z</time>
      </trkpt>
      <trkpt lat="50.12393" lon="4.12531">
        <ele>192.6</ele>
        <time>2024-04-26T05:57:24Z</time>
      </trkpt>
      <trkpt lat="50.12387" lon="4.12525">
        <ele>192.8</ele>
        <time>2024-04-26T05:57:25Z</time>
      </trkpt>
      <trkpt lat="50.1238" lon="4.1252">
        <ele>193.2</ele>
        <time>2024-04-26T05:57:26Z</time>
      </trkpt>
      <trkpt lat="50.12372" lon="4.12516">
        <ele>193.2</ele>
        <time>2024-04-26T05:57:27Z</time>
      </trkpt>
      <trkpt lat="50.12363" lon="4.12512">
        <ele>193.2</ele>
        <time>2024-04-26T05:57:28Z</time>
      </trkpt>
      <trkpt lat="50.12355" lon="4.12506">
        <ele>193.2</ele>
        <time>2024-04-26T05:57:29Z</time>
      </trkpt>
      <trkpt lat="50.12347" lon="4.125">
        <ele>193.2</ele>
        <time>2024-04-26T05:57:30Z</time>
      </trkpt>
      <trkpt lat="50.12339" lon="4.12491">
        <ele>193.2</ele>
        <time>2024-04-26T05:57:31Z</time>
      </trkpt>
      <trkpt lat="50.12332" lon="4.12482">
        <ele>193.2</ele>
        <time>2024-04-26T05:57:32Z</time>
      </trkpt>
      <trkpt lat="50.12326" lon="4.12471">
        <ele>193.2</ele>
        <time>2024-04-26T05:57:33Z</time>
      </trkpt>
      <trkpt lat="50.1232" lon="4.12458">
        <ele>193.2</ele>
        <time>2024-04-26T05:57:34Z</time>
      </trkpt>
      <trkpt lat="50.12315" lon="4.12445">
        <ele>193.2</ele>
        <time>2024-04-26T05:57:35Z</time>
      </trkpt>
      <trkpt lat="50.1231" lon="4.12432">
        <ele>193.2</ele>
        <time>2024-04-26T05:57:36Z</time>
      </trkpt>
      <trkpt lat="50.12305" lon="4.12418">
        <ele>193</ele>
        <time>2024-04-26T05:57:37Z</time>
      </trkpt>
      <trkpt lat="50.12301" lon="4.12404">
        <ele>192.4</ele>
        <time>2024-04-26T05:57:38Z</time>
      </trkpt>
      <trkpt lat="50.12297" lon="4.12389">
        <ele>191.8</ele>
        <time>2024-04-26T05:57:39Z</time>
      </trkpt>
      <trkpt lat="50.12293" lon="4.12376">
        <ele>191</ele>
        <time>2024-04-26T05:57:40Z</time>
      </trkpt>
      <trkpt lat="50.12288" lon="4.12362">
        <ele>190.2</ele>
        <time>2024-04-26T05:57:41Z</time>
      </trkpt>
      <trkpt lat="50.12284" lon="4.12348">
        <ele>189.4</ele>
        <time>2024-04-26T05:57:42Z</time>
      </trkpt>
      <trkpt lat="50.1228" lon="4.12335">
        <ele>189.4</ele>
        <time>2024-04-26T05:57:43Z</time>
      </trkpt>
      <trkpt lat="50.12276" lon="4.12322">
        <ele>188.6</ele>
        <time>2024-04-26T05:57:44Z</time>
      </trkpt>
      <trkpt lat="50.12272" lon="4.12309">
        <ele>188.4</ele>
        <time>2024-04-26T05:57:45Z</time>
      </trkpt>
      <trkpt lat="50.12269" lon="4.12296">
        <ele>188</ele>
        <time>2024-04-26T05:57:46Z</time>
      </trkpt>
      <trkpt lat="50.12266" lon="4.12284">
        <ele>187.6</ele>
        <time>2024-04-26T05:57:47Z</time>
      </trkpt>
      <trkpt lat="50.12263" lon="4.12271">
        <ele>187.2</ele>
        <time>2024-04-26T05:57:48Z</time>
      </trkpt>
      <trkpt lat="50.1226" lon="4.12259">
        <ele>186.8</ele>
        <time>2024-04-26T05:57:49Z</time>
      </trkpt>
      <trkpt lat="50.12258" lon="4.12246">
        <ele>186.4</ele>
        <time>2024-04-26T05:57:50Z</time>
      </trkpt>
      <trkpt lat="50.12255" lon="4.12233">
        <ele>186.2</ele>
        <time>2024-04-26T05:57:51Z</time>
      </trkpt>
      <trkpt lat="50.12253" lon="4.12221">
        <ele>186.2</ele>
        <time>2024-04-26T05:57:52Z</time>
      </trkpt>
      <trkpt lat="50.12251" lon="4.12209">
        <ele>186</ele>
        <time>2024-04-26T05:57:53Z</time>
      </trkpt>
      <trkpt lat="50.1225" lon="4.12196">
        <ele>185.8</ele>
        <time>2024-04-26T05:57:54Z</time>
      </trkpt>
      <trkpt lat="50.12248" lon="4.12184">
        <ele>185.8</ele>
        <time>2024-04-26T05:57:55Z</time>
      </trkpt>
      <trkpt lat="50.12247" lon="4.12171">
        <ele>185.8</ele>
        <time>2024-04-26T05:57:56Z</time>
      </trkpt>
      <trkpt lat="50.12245" lon="4.12159">
        <ele>185.6</ele>
        <time>2024-04-26T05:57:57Z</time>
      </trkpt>
      <trkpt lat="50.12244" lon="4.12147">
        <ele>185.6</ele>
        <time>2024-04-26T05:57:58Z</time>
      </trkpt>
      <trkpt lat="50.12243" lon="4.12135">
        <ele>185.6</ele>
        <time>2024-04-26T05:57:59Z</time>
      </trkpt>
      <trkpt lat="50.12242" lon="4.12122">
        <ele>185.6</ele>
        <time>2024-04-26T05:58:00Z</time>
      </trkpt>
      <trkpt lat="50.12241" lon="4.1211">
        <ele>185.6</ele>
        <time>2024-04-26T05:58:01Z</time>
      </trkpt>
      <trkpt lat="50.1224" lon="4.12098">
        <ele>185.6</ele>
        <time>2024-04-26T05:58:02Z</time>
      </trkpt>
      <trkpt lat="50.12238" lon="4.12085">
        <ele>185.6</ele>
        <time>2024-04-26T05:58:03Z</time>
      </trkpt>
      <trkpt lat="50.12237" lon="4.12073">
        <ele>185.6</ele>
        <time>2024-04-26T05:58:04Z</time>
      </trkpt>
      <trkpt lat="50.12236" lon="4.1206">
        <ele>185.6</ele>
        <time>2024-04-26T05:58:05Z</time>
      </trkpt>
      <trkpt lat="50.12234" lon="4.12047">
        <ele>185.4</ele>
        <time>2024-04-26T05:58:06Z</time>
      </trkpt>
      <trkpt lat="50.12232" lon="4.12033">
        <ele>185.2</ele>
        <time>2024-04-26T05:58:07Z</time>
      </trkpt>
      <trkpt lat="50.1223" lon="4.12019">
        <ele>185.4</ele>
        <time>2024-04-26T05:58:08Z</time>
      </trkpt>
      <trkpt lat="50.12228" lon="4.12005">
        <ele>185.4</ele>
        <time>2024-04-26T05:58:09Z</time>
      </trkpt>
      <trkpt lat="50.12226" lon="4.11991">
        <ele>185.4</ele>
        <time>2024-04-26T05:58:10Z</time>
      </trkpt>
      <trkpt lat="50.12223" lon="4.11977">
        <ele>185.2</ele>
        <time>2024-04-26T05:58:11Z</time>
      </trkpt>
      <trkpt lat="50.1222" lon="4.11962">
        <ele>185.4</ele>
        <time>2024-04-26T05:58:12Z</time>
      </trkpt>
      <trkpt lat="50.12217" lon="4.11947">
        <ele>185</ele>
        <time>2024-04-26T05:58:13Z</time>
      </trkpt>
      <trkpt lat="50.12214" lon="4.11933">
        <ele>185</ele>
        <time>2024-04-26T05:58:14Z</time>
      </trkpt>
      <trkpt lat="50.12211" lon="4.11918">
        <ele>184.8</ele>
        <time>2024-04-26T05:58:15Z</time>
      </trkpt>
      <trkpt lat="50.12208" lon="4.11903">
        <ele>184.6</ele>
        <time>2024-04-26T05:58:16Z</time>
      </trkpt>
      <trkpt lat="50.12205" lon="4.11888">
        <ele>183.8</ele>
        <time>2024-04-26T05:58:17Z</time>
      </trkpt>
      <trkpt lat="50.12202" lon="4.11874">
        <ele>183.4</ele>
        <time>2024-04-26T05:58:18Z</time>
      </trkpt>
      <trkpt lat="50.122" lon="4.1186">
        <ele>182.6</ele>
        <time>2024-04-26T05:58:19Z</time>
      </trkpt>
      <trkpt lat="50.12197" lon="4.11846">
        <ele>181.6</ele>
        <time>2024-04-26T05:58:20Z</time>
      </trkpt>
      <trkpt lat="50.12194" lon="4.11832">
        <ele>181</ele>
        <time>2024-04-26T05:58:21Z</time>
      </trkpt>
      <trkpt lat="50.12191" lon="4.11819">
        <ele>180.8</ele>
        <time>2024-04-26T05:58:22Z</time>
      </trkpt>
      <trkpt lat="50.12189" lon="4.11806">
        <ele>180.4</ele>
        <time>2024-04-26T05:58:23Z</time>
      </trkpt>
      <trkpt lat="50.12186" lon="4.11793">
        <ele>180.2</ele>
        <time>2024-04-26T05:58:24Z</time>
      </trkpt>
      <trkpt lat="50.12184" lon="4.1178">
        <ele>180</ele>
        <time>2024-04-26T05:58:25Z</time>
      </trkpt>
      <trkpt lat="50.12181" lon="4.11767">
        <ele>180</ele>
        <time>2024-04-26T05:58:26Z</time>
      </trkpt>
      <trkpt lat="50.12178" lon="4.11754">
        <ele>180</ele>
        <time>2024-04-26T05:58:27Z</time>
      </trkpt>
      <trkpt lat="50.12176" lon="4.11742">
        <ele>179.8</ele>
        <time>2024-04-26T05:58:28Z</time>
      </trkpt>
      <trkpt lat="50.12174" lon="4.1173">
        <ele>179.8</ele>
        <time>2024-04-26T05:58:29Z</time>
      </trkpt>
      <trkpt lat="50.12171" lon="4.11717">
        <ele>179.8</ele>
        <time>2024-04-26T05:58:30Z</time>
      </trkpt>
      <trkpt lat="50.12169" lon="4.11705">
        <ele>179.6</ele>
        <time>2024-04-26T05:58:31Z</time>
      </trkpt>
      <trkpt lat="50.12166" lon="4.11693">
        <ele>179.6</ele>
        <time>2024-04-26T05:58:32Z</time>
      </trkpt>
      <trkpt lat="50.12164" lon="4.11681">
        <ele>179.6</ele>
        <time>2024-04-26T05:58:33Z</time>
      </trkpt>
      <trkpt lat="50.12161" lon="4.11669">
        <ele>179.6</ele>
        <time>2024-04-26T05:58:34Z</time>
      </trkpt>
      <trkpt lat="50.12158" lon="4.11658">
        <ele>179.4</ele>
        <time>2024-04-26T05:58:35Z</time>
      </trkpt>
      <trkpt lat="50.12155" lon="4.11647">
        <ele>179.2</ele>
        <time>2024-04-26T05:58:36Z</time>
      </trkpt>
      <trkpt lat="50.12153" lon="4.11637">
        <ele>179.2</ele>
        <time>2024-04-26T05:58:37Z</time>
      </trkpt>
      <trkpt lat="50.1215" lon="4.11627">
        <ele>179.2</ele>
        <time>2024-04-26T05:58:38Z</time>
      </trkpt>
      <trkpt lat="50.12148" lon="4.11617">
        <ele>179.2</ele>
        <time>2024-04-26T05:58:39Z</time>
      </trkpt>
      <trkpt lat="50.12146" lon="4.11607">
        <ele>179</ele>
        <time>2024-04-26T05:58:40Z</time>
      </trkpt>
      <trkpt lat="50.12144" lon="4.11596">
        <ele>179.2</ele>
        <time>2024-04-26T05:58:41Z</time>
      </trkpt>
      <trkpt lat="50.12142" lon="4.11586">
        <ele>179.2</ele>
        <time>2024-04-26T05:58:42Z</time>
      </trkpt>
      <trkpt lat="50.1214" lon="4.11576">
        <ele>179</ele>
        <time>2024-04-26T05:58:43Z</time>
      </trkpt>
      <trkpt lat="50.12137" lon="4.11566">
        <ele>179.4</ele>
        <time>2024-04-26T05:58:44Z</time>
      </trkpt>
      <trkpt lat="50.12135" lon="4.11556">
        <ele>179.4</ele>
        <time>2024-04-26T05:58:45Z</time>
      </trkpt>
      <trkpt lat="50.12132" lon="4.11546">
        <ele>179.8</ele>
        <time>2024-04-26T05:58:46Z</time>
      </trkpt>
      <trkpt lat="50.12129" lon="4.11536">
        <ele>180</ele>
        <time>2024-04-26T05:58:47Z</time>
      </trkpt>
      <trkpt lat="50.12126" lon="4.11527">
        <ele>180</ele>
        <time>2024-04-26T05:58:48Z</time>
      </trkpt>
      <trkpt lat="50.12123" lon="4.11517">
        <ele>180.4</ele>
        <time>2024-04-26T05:58:49Z</time>
      </trkpt>
      <trkpt lat="50.1212" lon="4.11508">
        <ele>180.6</ele>
        <time>2024-04-26T05:58:50Z</time>
      </trkpt>
      <trkpt lat="50.12116" lon="4.11498">
        <ele>180.6</ele>
        <time>2024-04-26T05:58:51Z</time>
      </trkpt>
      <trkpt lat="50.12113" lon="4.11489">
        <ele>181</ele>
        <time>2024-04-26T05:58:52Z</time>
      </trkpt>
      <trkpt lat="50.1211" lon="4.1148">
        <ele>181.6</ele>
        <time>2024-04-26T05:58:53Z</time>
      </trkpt>
      <trkpt lat="50.12106" lon="4.1147">
        <ele>182.2</ele>
        <time>2024-04-26T05:58:54Z</time>
      </trkpt>
      <trkpt lat="50.12103" lon="4.11461">
        <ele>183</ele>
        <time>2024-04-26T05:58:55Z</time>
      </trkpt>
      <trkpt lat="50.12099" lon="4.11452">
        <ele>183.6</ele>
        <time>2024-04-26T05:58:56Z</time>
      </trkpt>
      <trkpt lat="50.12096" lon="4.11443">
        <ele>184</ele>
        <time>2024-04-26T05:58:57Z</time>
      </trkpt>
      <trkpt lat="50.12093" lon="4.11434">
        <ele>184.4</ele>
        <time>2024-04-26T05:58:58Z</time>
      </trkpt>
      <trkpt lat="50.12089" lon="4.11424">
        <ele>184.6</ele>
        <time>2024-04-26T05:58:59Z</time>
      </trkpt>
      <trkpt lat="50.12086" lon="4.11415">
        <ele>185</ele>
        <time>2024-04-26T05:59:00Z</time>
      </trkpt>
      <trkpt lat="50.12083" lon="4.11406">
        <ele>185.2</ele>
        <time>2024-04-26T05:59:01Z</time>
      </trkpt>
      <trkpt lat="50.1208" lon="4.11397">
        <ele>185.4</ele>
        <time>2024-04-26T05:59:02Z</time>
      </trkpt>
      <trkpt lat="50.12077" lon="4.11387">
        <ele>185.6</ele>
        <time>2024-04-26T05:59:03Z</time>
      </trkpt>
      <trkpt lat="50.12073" lon="4.11378">
        <ele>186</ele>
        <time>2024-04-26T05:59:04Z</time>
      </trkpt>
      <trkpt lat="50.1207" lon="4.11368">
        <ele>186.2</ele>
        <time>2024-04-26T05:59:05Z</time>
      </trkpt>
      <trkpt lat="50.12067" lon="4.11358">
        <ele>186.2</ele>
        <time>2024-04-26T05:59:06Z</time>
      </trkpt>
      <trkpt lat="50.12065" lon="4.11348">
        <ele>186.4</ele>
        <time>2024-04-26T05:59:07Z</time>
      </trkpt>
      <trkpt lat="50.12062" lon="4.11338">
        <ele>186.6</ele>
        <time>2024-04-26T05:59:08Z</time>
      </trkpt>
      <trkpt lat="50.12059" lon="4.11328">
        <ele>186.6</ele>
        <time>2024-04-26T05:59:09Z</time>
      </trkpt>
      <trkpt lat="50.12056" lon="4.11317">
        <ele>186.6</ele>
        <time>2024-04-26T05:59:10Z</time>
      </trkpt>
      <trkpt lat="50.12054" lon="4.11307">
        <ele>186.8</ele>
        <time>2024-04-26T05:59:11Z</time>
      </trkpt>
      <trkpt lat="50.12052" lon="4.11296">
        <ele>186.8</ele>
        <time>2024-04-26T05:59:12Z</time>
      </trkpt>
      <trkpt lat="50.12049" lon="4.11285">
        <ele>186.8</ele>
        <time>2024-04-26T05:59:13Z</time>
      </trkpt>
      <trkpt lat="50.12048" lon="4.11274">
        <ele>187</ele>
        <time>2024-04-26T05:59:14Z</time>
      </trkpt>
      <trkpt lat="50.12046" lon="4.11262">
        <ele>186.8</ele>
        <time>2024-04-26T05:59:15Z</time>
      </trkpt>
      <trkpt lat="50.12044" lon="4.1125">
        <ele>187</ele>
        <time>2024-04-26T05:59:16Z</time>
      </trkpt>
      <trkpt lat="50.12042" lon="4.11238">
        <ele>187</ele>
        <time>2024-04-26T05:59:17Z</time>
      </trkpt>
      <trkpt lat="50.12041" lon="4.11225">
        <ele>186.8</ele>
        <time>2024-04-26T05:59:18Z</time>
      </trkpt>
      <trkpt lat="50.1204" lon="4.11212">
        <ele>187</ele>
        <time>2024-04-26T05:59:19Z</time>
      </trkpt>
      <trkpt lat="50.12038" lon="4.11198">
        <ele>186.8</ele>
        <time>2024-04-26T05:59:20Z</time>
      </trkpt>
      <trkpt lat="50.12038" lon="4.11184">
        <ele>186.8</ele>
        <time>2024-04-26T05:59:21Z</time>
      </trkpt>
      <trkpt lat="50.12037" lon="4.11169">
        <ele>186.8</ele>
        <time>2024-04-26T05:59:22Z</time>
      </trkpt>
      <trkpt lat="50.12036" lon="4.11154">
        <ele>186.6</ele>
        <time>2024-04-26T05:59:23Z</time>
      </trkpt>
      <trkpt lat="50.12036" lon="4.11138">
        <ele>186.4</ele>
        <time>2024-04-26T05:59:24Z</time>
      </trkpt>
      <trkpt lat="50.12035" lon="4.11122">
        <ele>186</ele>
        <time>2024-04-26T05:59:25Z</time>
      </trkpt>
      <trkpt lat="50.12034" lon="4.11106">
        <ele>185.6</ele>
        <time>2024-04-26T05:59:26Z</time>
      </trkpt>
      <trkpt lat="50.12034" lon="4.1109">
        <ele>185.4</ele>
        <time>2024-04-26T05:59:27Z</time>
      </trkpt>
      <trkpt lat="50.12033" lon="4.11073">
        <ele>184.2</ele>
        <time>2024-04-26T05:59:28Z</time>
      </trkpt>
      <trkpt lat="50.12033" lon="4.11057">
        <ele>182.8</ele>
        <time>2024-04-26T05:59:29Z</time>
      </trkpt>
      <trkpt lat="50.12032" lon="4.11041">
        <ele>182</ele>
        <time>2024-04-26T05:59:30Z</time>
      </trkpt>
      <trkpt lat="50.12031" lon="4.11025">
        <ele>181.2</ele>
        <time>2024-04-26T05:59:31Z</time>
      </trkpt>
      <trkpt lat="50.12031" lon="4.1101">
        <ele>180.4</ele>
        <time>2024-04-26T05:59:32Z</time>
      </trkpt>
      <trkpt lat="50.1203" lon="4.10995">
        <ele>180.4</ele>
        <time>2024-04-26T05:59:33Z</time>
      </trkpt>
      <trkpt lat="50.1203" lon="4.1098">
        <ele>179.8</ele>
        <time>2024-04-26T05:59:34Z</time>
      </trkpt>
      <trkpt lat="50.12029" lon="4.10966">
        <ele>178.6</ele>
        <time>2024-04-26T05:59:35Z</time>
      </trkpt>
      <trkpt lat="50.12029" lon="4.10953">
        <ele>178</ele>
        <time>2024-04-26T05:59:36Z</time>
      </trkpt>
      <trkpt lat="50.12028" lon="4.1094">
        <ele>177.6</ele>
        <time>2024-04-26T05:59:37Z</time>
      </trkpt>
      <trkpt lat="50.12027" lon="4.10927">
        <ele>177.2</ele>
        <time>2024-04-26T05:59:38Z</time>
      </trkpt>
      <trkpt lat="50.12026" lon="4.10915">
        <ele>177.2</ele>
        <time>2024-04-26T05:59:39Z</time>
      </trkpt>
      <trkpt lat="50.12026" lon="4.10903">
        <ele>177.4</ele>
        <time>2024-04-26T05:59:40Z</time>
      </trkpt>
      <trkpt lat="50.12025" lon="4.10892">
        <ele>177.2</ele>
        <time>2024-04-26T05:59:41Z</time>
      </trkpt>
      <trkpt lat="50.12024" lon="4.1088">
        <ele>177.2</ele>
        <time>2024-04-26T05:59:42Z</time>
      </trkpt>
      <trkpt lat="50.12022" lon="4.10869">
        <ele>177.2</ele>
        <time>2024-04-26T05:59:43Z</time>
      </trkpt>
      <trkpt lat="50.12021" lon="4.10858">
        <ele>177.2</ele>
        <time>2024-04-26T05:59:44Z</time>
      </trkpt>
      <trkpt lat="50.1202" lon="4.10847">
        <ele>177.2</ele>
        <time>2024-04-26T05:59:45Z</time>
      </trkpt>
      <trkpt lat="50.12018" lon="4.10836">
        <ele>177.2</ele>
        <time>2024-04-26T05:59:46Z</time>
      </trkpt>
      <trkpt lat="50.12017" lon="4.10826">
        <ele>177.2</ele>
        <time>2024-04-26T05:59:47Z</time>
      </trkpt>
      <trkpt lat="50.12015" lon="4.10815">
        <ele>177.4</ele>
        <time>2024-04-26T05:59:48Z</time>
      </trkpt>
      <trkpt lat="50.12013" lon="4.10805">
        <ele>177.6</ele>
        <time>2024-04-26T05:59:49Z</time>
      </trkpt>
      <trkpt lat="50.12012" lon="4.10795">
        <ele>177.8</ele>
        <time>2024-04-26T05:59:50Z</time>
      </trkpt>
      <trkpt lat="50.1201" lon="4.10784">
        <ele>178.2</ele>
        <time>2024-04-26T05:59:51Z</time>
      </trkpt>
      <trkpt lat="50.12008" lon="4.10774">
        <ele>178.4</ele>
        <time>2024-04-26T05:59:52Z</time>
      </trkpt>
      <trkpt lat="50.12007" lon="4.10764">
        <ele>178.4</ele>
        <time>2024-04-26T05:59:53Z</time>
      </trkpt>
      <trkpt lat="50.12005" lon="4.10754">
        <ele>178.8</ele>
        <time>2024-04-26T05:59:54Z</time>
      </trkpt>
      <trkpt lat="50.12004" lon="4.10744">
        <ele>179</ele>
        <time>2024-04-26T05:59:55Z</time>
      </trkpt>
      <trkpt lat="50.12002" lon="4.10734">
        <ele>179</ele>
        <time>2024-04-26T05:59:56Z</time>
      </trkpt>
      <trkpt lat="50.12001" lon="4.10724">
        <ele>179.2</ele>
        <time>2024-04-26T05:59:57Z</time>
      </trkpt>
      <trkpt lat="50.12" lon="4.10714">
        <ele>179.4</ele>
        <time>2024-04-26T05:59:58Z</time>
      </trkpt>
      <trkpt lat="50.11999" lon="4.10703">
        <ele>179.4</ele>
        <time>2024-04-26T05:59:59Z</time>
      </trkpt>
      <trkpt lat="50.11999" lon="4.10693">
        <ele>179.4</ele>
        <time>2024-04-26T06:00:00Z</time>
      </trkpt>
      <trkpt lat="50.11999" lon="4.10682">
        <ele>179.6</ele>
        <time>2024-04-26T06:00:01Z</time>
      </trkpt>
      <trkpt lat="50.11999" lon="4.10672">
        <ele>179.6</ele>
        <time>2024-04-26T06:00:02Z</time>
      </trkpt>
      <trkpt lat="50.12001" lon="4.10661">
        <ele>179.4</ele>
        <time>2024-04-26T06:00:03Z</time>
      </trkpt>
      <trkpt lat="50.12002" lon="4.1065">
        <ele>179.6</ele>
        <time>2024-04-26T06:00:04Z</time>
      </trkpt>
      <trkpt lat="50.12005" lon="4.10639">
        <ele>179.6</ele>
        <time>2024-04-26T06:00:05Z</time>
      </trkpt>
      <trkpt lat="50.12007" lon="4.10629">
        <ele>179.6</ele>
        <time>2024-04-26T06:00:06Z</time>
      </trkpt>
      <trkpt lat="50.12011" lon="4.10618">
        <ele>179.6</ele>
        <time>2024-04-26T06:00:07Z</time>
      </trkpt>
      <trkpt lat="50.12014" lon="4.10607">
        <ele>179.6</ele>
        <time>2024-04-26T06:00:08Z</time>
      </trkpt>
      <trkpt lat="50.12017" lon="4.10596">
        <ele>179.6</ele>
        <time>2024-04-26T06:00:09Z</time>
      </trkpt>
      <trkpt lat="50.12021" lon="4.10584">
        <ele>179.6</ele>
        <time>2024-04-26T06:00:10Z</time>
      </trkpt>
      <trkpt lat="50.12025" lon="4.10572">
        <ele>179.4</ele>
        <time>2024-04-26T06:00:11Z</time>
      </trkpt>
      <trkpt lat="50.12028" lon="4.1056">
        <ele>179.4</ele>
        <time>2024-04-26T06:00:12Z</time>
      </trkpt>
      <trkpt lat="50.12032" lon="4.10547">
        <ele>179.4</ele>
        <time>2024-04-26T06:00:13Z</time>
      </trkpt>
      <trkpt lat="50.12037" lon="4.10533">
        <ele>179.4</ele>
        <time>2024-04-26T06:00:14Z</time>
      </trkpt>
      <trkpt lat="50.12041" lon="4.1052">
        <ele>179.4</ele>
        <time>2024-04-26T06:00:15Z</time>
      </trkpt>
      <trkpt lat="50.12045" lon="4.10506">
        <ele>179.4</ele>
        <time>2024-04-26T06:00:16Z</time>
      </trkpt>
      <trkpt lat="50.1205" lon="4.10491">
        <ele>179.4</ele>
        <time>2024-04-26T06:00:17Z</time>
      </trkpt>
      <trkpt lat="50.12054" lon="4.10476">
        <ele>179</ele>
        <time>2024-04-26T06:00:18Z</time>
      </trkpt>
      <trkpt lat="50.12059" lon="4.10461">
        <ele>178.6</ele>
        <time>2024-04-26T06:00:19Z</time>
      </trkpt>
      <trkpt lat="50.12063" lon="4.10446">
        <ele>178.4</ele>
        <time>2024-04-26T06:00:20Z</time>
      </trkpt>
      <trkpt lat="50.12067" lon="4.10431">
        <ele>177.6</ele>
        <time>2024-04-26T06:00:21Z</time>
      </trkpt>
      <trkpt lat="50.1207" lon="4.10416">
        <ele>177</ele>
        <time>2024-04-26T06:00:22Z</time>
      </trkpt>
      <trkpt lat="50.12073" lon="4.10401">
        <ele>176.2</ele>
        <time>2024-04-26T06:00:23Z</time>
      </trkpt>
      <trkpt lat="50.12075" lon="4.10386">
        <ele>175.8</ele>
        <time>2024-04-26T06:00:24Z</time>
      </trkpt>
      <trkpt lat="50.12077" lon="4.10371">
        <ele>175.6</ele>
        <time>2024-04-26T06:00:25Z</time>
      </trkpt>
      <trkpt lat="50.12078" lon="4.10356">
        <ele>174.4</ele>
        <time>2024-04-26T06:00:26Z</time>
      </trkpt>
      <trkpt lat="50.12078" lon="4.10342">
        <ele>173.8</ele>
        <time>2024-04-26T06:00:27Z</time>
      </trkpt>
      <trkpt lat="50.12078" lon="4.10328">
        <ele>173.2</ele>
        <time>2024-04-26T06:00:28Z</time>
      </trkpt>
      <trkpt lat="50.12079" lon="4.10315">
        <ele>172.6</ele>
        <time>2024-04-26T06:00:29Z</time>
      </trkpt>
      <trkpt lat="50.12079" lon="4.10302">
        <ele>172.6</ele>
        <time>2024-04-26T06:00:30Z</time>
      </trkpt>
      <trkpt lat="50.12079" lon="4.10289">
        <ele>172.6</ele>
        <time>2024-04-26T06:00:31Z</time>
      </trkpt>
      <trkpt lat="50.1208" lon="4.10277">
        <ele>172.4</ele>
        <time>2024-04-26T06:00:32Z</time>
      </trkpt>
      <trkpt lat="50.1208" lon="4.10265">
        <ele>172.4</ele>
        <time>2024-04-26T06:00:33Z</time>
      </trkpt>
      <trkpt lat="50.1208" lon="4.10254">
        <ele>172.4</ele>
        <time>2024-04-26T06:00:34Z</time>
      </trkpt>
      <trkpt lat="50.12081" lon="4.10243">
        <ele>172.2</ele>
        <time>2024-04-26T06:00:35Z</time>
      </trkpt>
      <trkpt lat="50.12081" lon="4.10232">
        <ele>172.2</ele>
        <time>2024-04-26T06:00:36Z</time>
      </trkpt>
      <trkpt lat="50.12082" lon="4.10222">
        <ele>172.4</ele>
        <time>2024-04-26T06:00:37Z</time>
      </trkpt>
      <trkpt lat="50.12083" lon="4.10211">
        <ele>172.4</ele>
        <time>2024-04-26T06:00:38Z</time>
      </trkpt>
      <trkpt lat="50.12083" lon="4.10201">
        <ele>172.4</ele>
        <time>2024-04-26T06:00:39Z</time>
      </trkpt>
      <trkpt lat="50.12083" lon="4.10191">
        <ele>172.4</ele>
        <time>2024-04-26T06:00:40Z</time>
      </trkpt>
      <trkpt lat="50.12084" lon="4.1018">
        <ele>172.4</ele>
        <time>2024-04-26T06:00:41Z</time>
      </trkpt>
      <trkpt lat="50.12085" lon="4.1017">
        <ele>172.6</ele>
        <time>2024-04-26T06:00:42Z</time>
      </trkpt>
      <trkpt lat="50.12087" lon="4.1016">
        <ele>172.8</ele>
        <time>2024-04-26T06:00:43Z</time>
      </trkpt>
      <trkpt lat="50.12089" lon="4.10149">
        <ele>173.4</ele>
        <time>2024-04-26T06:00:44Z</time>
      </trkpt>
      <trkpt lat="50.12091" lon="4.10139">
        <ele>173.8</ele>
        <time>2024-04-26T06:00:45Z</time>
      </trkpt>
      <trkpt lat="50.12093" lon="4.10129">
        <ele>174</ele>
        <time>2024-04-26T06:00:46Z</time>
      </trkpt>
      <trkpt lat="50.12095" lon="4.10119">
        <ele>174.4</ele>
        <time>2024-04-26T06:00:47Z</time>
      </trkpt>
      <trkpt lat="50.12097" lon="4.10108">
        <ele>174.8</ele>
        <time>2024-04-26T06:00:48Z</time>
      </trkpt>
      <trkpt lat="50.12099" lon="4.10098">
        <ele>175</ele>
        <time>2024-04-26T06:00:49Z</time>
      </trkpt>
      <trkpt lat="50.12102" lon="4.10087">
        <ele>175.2</ele>
        <time>2024-04-26T06:00:50Z</time>
      </trkpt>
      <trkpt lat="50.12104" lon="4.10076">
        <ele>175.6</ele>
        <time>2024-04-26T06:00:51Z</time>
      </trkpt>
      <trkpt lat="50.12106" lon="4.10066">
        <ele>175.6</ele>
        <time>2024-04-26T06:00:52Z</time>
      </trkpt>
      <trkpt lat="50.12109" lon="4.10055">
        <ele>175.6</ele>
        <time>2024-04-26T06:00:53Z</time>
      </trkpt>
      <trkpt lat="50.12111" lon="4.10044">
        <ele>175.6</ele>
        <time>2024-04-26T06:00:54Z</time>
      </trkpt>
      <trkpt lat="50.12113" lon="4.10034">
        <ele>175.8</ele>
        <time>2024-04-26T06:00:55Z</time>
      </trkpt>
      <trkpt lat="50.12116" lon="4.10024">
        <ele>175.8</ele>
        <time>2024-04-26T06:00:56Z</time>
      </trkpt>
      <trkpt lat="50.12118" lon="4.10014">
        <ele>175.8</ele>
        <time>2024-04-26T06:00:57Z</time>
      </trkpt>
      <trkpt lat="50.12121" lon="4.10003">
        <ele>175.8</ele>
        <time>2024-04-26T06:00:58Z</time>
      </trkpt>
      <trkpt lat="50.12123" lon="4.09993">
        <ele>176</ele>
        <time>2024-04-26T06:00:59Z</time>
      </trkpt>
      <trkpt lat="50.12125" lon="4.09983">
        <ele>176</ele>
        <time>2024-04-26T06:01:00Z</time>
      </trkpt>
      <trkpt lat="50.12126" lon="4.09973">
        <ele>175.8</ele>
        <time>2024-04-26T06:01:01Z</time>
      </trkpt>
      <trkpt lat="50.12126" lon="4.09963">
        <ele>176</ele>
        <time>2024-04-26T06:01:02Z</time>
      </trkpt>
      <trkpt lat="50.12126" lon="4.09952">
        <ele>176</ele>
        <time>2024-04-26T06:01:03Z</time>
      </trkpt>
      <trkpt lat="50.12127" lon="4.09943">
        <ele>176.4</ele>
        <time>2024-04-26T06:01:04Z</time>
      </trkpt>
      <trkpt lat="50.12127" lon="4.09933">
        <ele>176.6</ele>
        <time>2024-04-26T06:01:05Z</time>
      </trkpt>
      <trkpt lat="50.12126" lon="4.09924">
        <ele>176.8</ele>
        <time>2024-04-26T06:01:06Z</time>
      </trkpt>
      <trkpt lat="50.12125" lon="4.09915">
        <ele>176.8</ele>
        <time>2024-04-26T06:01:07Z</time>
      </trkpt>
      <trkpt lat="50.12123" lon="4.09906">
        <ele>177</ele>
        <time>2024-04-26T06:01:08Z</time>
      </trkpt>
      <trkpt lat="50.12122" lon="4.09897">
        <ele>177.2</ele>
        <time>2024-04-26T06:01:09Z</time>
      </trkpt>
      <trkpt lat="50.12121" lon="4.09888">
        <ele>177.2</ele>
        <time>2024-04-26T06:01:10Z</time>
      </trkpt>
      <trkpt lat="50.1212" lon="4.0988">
        <ele>177.2</ele>
        <time>2024-04-26T06:01:11Z</time>
      </trkpt>
      <trkpt lat="50.12118" lon="4.09871">
        <ele>177.6</ele>
        <time>2024-04-26T06:01:12Z</time>
      </trkpt>
      <trkpt lat="50.12118" lon="4.09862">
        <ele>177.8</ele>
        <time>2024-04-26T06:01:13Z</time>
      </trkpt>
      <trkpt lat="50.12117" lon="4.09853">
        <ele>178.2</ele>
        <time>2024-04-26T06:01:14Z</time>
      </trkpt>
      <trkpt lat="50.12116" lon="4.09845">
        <ele>178.2</ele>
        <time>2024-04-26T06:01:15Z</time>
      </trkpt>
      <trkpt lat="50.12115" lon="4.09836">
        <ele>178.6</ele>
        <time>2024-04-26T06:01:16Z</time>
      </trkpt>
      <trkpt lat="50.12115" lon="4.09827">
        <ele>178.8</ele>
        <time>2024-04-26T06:01:17Z</time>
      </trkpt>
      <trkpt lat="50.12114" lon="4.09819">
        <ele>179</ele>
        <time>2024-04-26T06:01:18Z</time>
      </trkpt>
      <trkpt lat="50.12114" lon="4.0981">
        <ele>179</ele>
        <time>2024-04-26T06:01:19Z</time>
      </trkpt>
      <trkpt lat="50.12113" lon="4.09801">
        <ele>179</ele>
        <time>2024-04-26T06:01:20Z</time>
      </trkpt>
      <trkpt lat="50.12113" lon="4.09792">
        <ele>179.4</ele>
        <time>2024-04-26T06:01:21Z</time>
      </trkpt>
      <trkpt lat="50.12112" lon="4.09784">
        <ele>179.4</ele>
        <time>2024-04-26T06:01:22Z</time>
      </trkpt>
      <trkpt lat="50.12111" lon="4.09775">
        <ele>179.6</ele>
        <time>2024-04-26T06:01:23Z</time>
      </trkpt>
      <trkpt lat="50.1211" lon="4.09766">
        <ele>179.8</ele>
        <time>2024-04-26T06:01:24Z</time>
      </trkpt>
      <trkpt lat="50.12108" lon="4.09757">
        <ele>180</ele>
        <time>2024-04-26T06:01:25Z</time>
      </trkpt>
      <trkpt lat="50.12106" lon="4.09748">
        <ele>180</ele>
        <time>2024-04-26T06:01:26Z</time>
      </trkpt>
      <trkpt lat="50.12103" lon="4.09738">
        <ele>180.2</ele>
        <time>2024-04-26T06:01:27Z</time>
      </trkpt>
      <trkpt lat="50.12101" lon="4.09729">
        <ele>180.2</ele>
        <time>2024-04-26T06:01:28Z</time>
      </trkpt>
      <trkpt lat="50.12099" lon="4.09719">
        <ele>180.4</ele>
        <time>2024-04-26T06:01:29Z</time>
      </trkpt>
      <trkpt lat="50.12097" lon="4.0971">
        <ele>180.4</ele>
        <time>2024-04-26T06:01:30Z</time>
      </trkpt>
      <trkpt lat="50.12094" lon="4.097">
        <ele>180.4</ele>
        <time>2024-04-26T06:01:31Z</time>
      </trkpt>
      <trkpt lat="50.12091" lon="4.0969">
        <ele>180.6</ele>
        <time>2024-04-26T06:01:32Z</time>
      </trkpt>
      <trkpt lat="50.12089" lon="4.09681">
        <ele>180.6</ele>
        <time>2024-04-26T06:01:33Z</time>
      </trkpt>
      <trkpt lat="50.12086" lon="4.09671">
        <ele>180.6</ele>
        <time>2024-04-26T06:01:34Z</time>
      </trkpt>
      <trkpt lat="50.12083" lon="4.09661">
        <ele>180.6</ele>
        <time>2024-04-26T06:01:35Z</time>
      </trkpt>
      <trkpt lat="50.12081" lon="4.09651">
        <ele>180.6</ele>
        <time>2024-04-26T06:01:36Z</time>
      </trkpt>
      <trkpt lat="50.12079" lon="4.09642">
        <ele>180.4</ele>
        <time>2024-04-26T06:01:37Z</time>
      </trkpt>
      <trkpt lat="50.12077" lon="4.09632">
        <ele>180.4</ele>
        <time>2024-04-26T06:01:38Z</time>
      </trkpt>
      <trkpt lat="50.12076" lon="4.09622">
        <ele>180.2</ele>
        <time>2024-04-26T06:01:39Z</time>
      </trkpt>
      <trkpt lat="50.12074" lon="4.09613">
        <ele>180.2</ele>
        <time>2024-04-26T06:01:40Z</time>
      </trkpt>
      <trkpt lat="50.12074" lon="4.09603">
        <ele>180.2</ele>
        <time>2024-04-26T06:01:41Z</time>
      </trkpt>
      <trkpt lat="50.12074" lon="4.09593">
        <ele>180.2</ele>
        <time>2024-04-26T06:01:42Z</time>
      </trkpt>
      <trkpt lat="50.12074" lon="4.09584">
        <ele>180</ele>
        <time>2024-04-26T06:01:43Z</time>
      </trkpt>
      <trkpt lat="50.12075" lon="4.09574">
        <ele>180</ele>
        <time>2024-04-26T06:01:44Z</time>
      </trkpt>
      <trkpt lat="50.12075" lon="4.09564">
        <ele>180</ele>
        <time>2024-04-26T06:01:45Z</time>
      </trkpt>
      <trkpt lat="50.12076" lon="4.09554">
        <ele>180.2</ele>
        <time>2024-04-26T06:01:46Z</time>
      </trkpt>
      <trkpt lat="50.12077" lon="4.09545">
        <ele>180.2</ele>
        <time>2024-04-26T06:01:47Z</time>
      </trkpt>
      <trkpt lat="50.12077" lon="4.09535">
        <ele>180</ele>
        <time>2024-04-26T06:01:48Z</time>
      </trkpt>
      <trkpt lat="50.12079" lon="4.09525">
        <ele>180</ele>
        <time>2024-04-26T06:01:49Z</time>
      </trkpt>
      <trkpt lat="50.1208" lon="4.09515">
        <ele>180</ele>
        <time>2024-04-26T06:01:50Z</time>
      </trkpt>
      <trkpt lat="50.12082" lon="4.09504">
        <ele>180</ele>
        <time>2024-04-26T06:01:51Z</time>
      </trkpt>
      <trkpt lat="50.12085" lon="4.09494">
        <ele>180.2</ele>
        <time>2024-04-26T06:01:52Z</time>
      </trkpt>
      <trkpt lat="50.12087" lon="4.09484">
        <ele>180</ele>
        <time>2024-04-26T06:01:53Z</time>
      </trkpt>
      <trkpt lat="50.12089" lon="4.09474">
        <ele>180.6</ele>
        <time>2024-04-26T06:01:54Z</time>
      </trkpt>
      <trkpt lat="50.12092" lon="4.09463">
        <ele>180.8</ele>
        <time>2024-04-26T06:01:55Z</time>
      </trkpt>
      <trkpt lat="50.12095" lon="4.09452">
        <ele>180.8</ele>
        <time>2024-04-26T06:01:56Z</time>
      </trkpt>
      <trkpt lat="50.12098" lon="4.09441">
        <ele>181</ele>
        <time>2024-04-26T06:01:57Z</time>
      </trkpt>
      <trkpt lat="50.121" lon="4.09429">
        <ele>181</ele>
        <time>2024-04-26T06:01:58Z</time>
      </trkpt>
      <trkpt lat="50.12103" lon="4.09416">
        <ele>180.8</ele>
        <time>2024-04-26T06:01:59Z</time>
      </trkpt>
      <trkpt lat="50.12105" lon="4.09403">
        <ele>180.8</ele>
        <time>2024-04-26T06:02:00Z</time>
      </trkpt>
      <trkpt lat="50.12108" lon="4.0939">
        <ele>180.8</ele>
        <time>2024-04-26T06:02:01Z</time>
      </trkpt>
      <trkpt lat="50.12112" lon="4.09377">
        <ele>180.8</ele>
        <time>2024-04-26T06:02:02Z</time>
      </trkpt>
      <trkpt lat="50.12115" lon="4.09364">
        <ele>180.8</ele>
        <time>2024-04-26T06:02:03Z</time>
      </trkpt>
      <trkpt lat="50.12118" lon="4.09351">
        <ele>180.8</ele>
        <time>2024-04-26T06:02:04Z</time>
      </trkpt>
      <trkpt lat="50.1212" lon="4.09337">
        <ele>180.8</ele>
        <time>2024-04-26T06:02:05Z</time>
      </trkpt>
      <trkpt lat="50.12123" lon="4.09324">
        <ele>180.6</ele>
        <time>2024-04-26T06:02:06Z</time>
      </trkpt>
      <trkpt lat="50.12125" lon="4.09309">
        <ele>180.2</ele>
        <time>2024-04-26T06:02:07Z</time>
      </trkpt>
      <trkpt lat="50.12128" lon="4.09295">
        <ele>179.8</ele>
        <time>2024-04-26T06:02:08Z</time>
      </trkpt>
      <trkpt lat="50.1213" lon="4.09281">
        <ele>179.4</ele>
        <time>2024-04-26T06:02:09Z</time>
      </trkpt>
      <trkpt lat="50.12133" lon="4.09266">
        <ele>179.2</ele>
        <time>2024-04-26T06:02:10Z</time>
      </trkpt>
      <trkpt lat="50.12135" lon="4.09252">
        <ele>178.6</ele>
        <time>2024-04-26T06:02:11Z</time>
      </trkpt>
      <trkpt lat="50.12139" lon="4.09238">
        <ele>178</ele>
        <time>2024-04-26T06:02:12Z</time>
      </trkpt>
      <trkpt lat="50.12143" lon="4.09224">
        <ele>177.4</ele>
        <time>2024-04-26T06:02:13Z</time>
      </trkpt>
      <trkpt lat="50.12147" lon="4.09212">
        <ele>177</ele>
        <time>2024-04-26T06:02:14Z</time>
      </trkpt>
      <trkpt lat="50.12153" lon="4.092">
        <ele>176.2</ele>
        <time>2024-04-26T06:02:15Z</time>
      </trkpt>
      <trkpt lat="50.12158" lon="4.09188">
        <ele>175.4</ele>
        <time>2024-04-26T06:02:16Z</time>
      </trkpt>
      <trkpt lat="50.12163" lon="4.09177">
        <ele>174.6</ele>
        <time>2024-04-26T06:02:17Z</time>
      </trkpt>
      <trkpt lat="50.12169" lon="4.09166">
        <ele>174.2</ele>
        <time>2024-04-26T06:02:18Z</time>
      </trkpt>
      <trkpt lat="50.12174" lon="4.09155">
        <ele>174</ele>
        <time>2024-04-26T06:02:19Z</time>
      </trkpt>
      <trkpt lat="50.12179" lon="4.09143">
        <ele>173.6</ele>
        <time>2024-04-26T06:02:20Z</time>
      </trkpt>
      <trkpt lat="50.12183" lon="4.0913">
        <ele>173.2</ele>
        <time>2024-04-26T06:02:21Z</time>
      </trkpt>
      <trkpt lat="50.12186" lon="4.09117">
        <ele>173</ele>
        <time>2024-04-26T06:02:22Z</time>
      </trkpt>
      <trkpt lat="50.12188" lon="4.09104">
        <ele>173</ele>
        <time>2024-04-26T06:02:23Z</time>
      </trkpt>
      <trkpt lat="50.1219" lon="4.0909">
        <ele>173</ele>
        <time>2024-04-26T06:02:24Z</time>
      </trkpt>
      <trkpt lat="50.12191" lon="4.09076">
        <ele>172.8</ele>
        <time>2024-04-26T06:02:25Z</time>
      </trkpt>
      <trkpt lat="50.12192" lon="4.09062">
        <ele>172.6</ele>
        <time>2024-04-26T06:02:26Z</time>
      </trkpt>
      <trkpt lat="50.12192" lon="4.09048">
        <ele>172.6</ele>
        <time>2024-04-26T06:02:27Z</time>
      </trkpt>
      <trkpt lat="50.12192" lon="4.09034">
        <ele>172.2</ele>
        <time>2024-04-26T06:02:28Z</time>
      </trkpt>
      <trkpt lat="50.12192" lon="4.0902">
        <ele>172.4</ele>
        <time>2024-04-26T06:02:29Z</time>
      </trkpt>
      <trkpt lat="50.12192" lon="4.09006">
        <ele>172</ele>
        <time>2024-04-26T06:02:30Z</time>
      </trkpt>
      <trkpt lat="50.12193" lon="4.08992">
        <ele>172</ele>
        <time>2024-04-26T06:02:31Z</time>
      </trkpt>
      <trkpt lat="50.12193" lon="4.08978">
        <ele>171.8</ele>
        <time>2024-04-26T06:02:32Z</time>
      </trkpt>
      <trkpt lat="50.12193" lon="4.08965">
        <ele>171.4</ele>
        <time>2024-04-26T06:02:33Z</time>
      </trkpt>
      <trkpt lat="50.12193" lon="4.08951">
        <ele>170.8</ele>
        <time>2024-04-26T06:02:34Z</time>
      </trkpt>
      <trkpt lat="50.12193" lon="4.08938">
        <ele>170.6</ele>
        <time>2024-04-26T06:02:35Z</time>
      </trkpt>
      <trkpt lat="50.12193" lon="4.08925">
        <ele>170.4</ele>
        <time>2024-04-26T06:02:36Z</time>
      </trkpt>
      <trkpt lat="50.12193" lon="4.08911">
        <ele>170</ele>
        <time>2024-04-26T06:02:37Z</time>
      </trkpt>
      <trkpt lat="50.12193" lon="4.08898">
        <ele>170</ele>
        <time>2024-04-26T06:02:38Z</time>
      </trkpt>
      <trkpt lat="50.12194" lon="4.08885">
        <ele>169.6</ele>
        <time>2024-04-26T06:02:39Z</time>
      </trkpt>
      <trkpt lat="50.12194" lon="4.08872">
        <ele>169.6</ele>
        <time>2024-04-26T06:02:40Z</time>
      </trkpt>
      <trkpt lat="50.12194" lon="4.0886">
        <ele>169.2</ele>
        <time>2024-04-26T06:02:41Z</time>
      </trkpt>
      <trkpt lat="50.12195" lon="4.08847">
        <ele>169.4</ele>
        <time>2024-04-26T06:02:42Z</time>
      </trkpt>
      <trkpt lat="50.12196" lon="4.08834">
        <ele>169.2</ele>
        <time>2024-04-26T06:02:43Z</time>
      </trkpt>
      <trkpt lat="50.12197" lon="4.08822">
        <ele>169</ele>
        <time>2024-04-26T06:02:44Z</time>
      </trkpt>
      <trkpt lat="50.12199" lon="4.0881">
        <ele>169</ele>
        <time>2024-04-26T06:02:45Z</time>
      </trkpt>
      <trkpt lat="50.122" lon="4.08798">
        <ele>169.2</ele>
        <time>2024-04-26T06:02:46Z</time>
      </trkpt>
      <trkpt lat="50.12202" lon="4.08786">
        <ele>169.2</ele>
        <time>2024-04-26T06:02:47Z</time>
      </trkpt>
      <trkpt lat="50.12203" lon="4.08774">
        <ele>169</ele>
        <time>2024-04-26T06:02:48Z</time>
      </trkpt>
      <trkpt lat="50.12205" lon="4.08762">
        <ele>168.8</ele>
        <time>2024-04-26T06:02:49Z</time>
      </trkpt>
      <trkpt lat="50.12206" lon="4.08751">
        <ele>168.8</ele>
        <time>2024-04-26T06:02:50Z</time>
      </trkpt>
      <trkpt lat="50.12207" lon="4.08739">
        <ele>168.6</ele>
        <time>2024-04-26T06:02:51Z</time>
      </trkpt>
      <trkpt lat="50.12208" lon="4.08728">
        <ele>168.6</ele>
        <time>2024-04-26T06:02:52Z</time>
      </trkpt>
      <trkpt lat="50.12208" lon="4.08716">
        <ele>168.6</ele>
        <time>2024-04-26T06:02:53Z</time>
      </trkpt>
      <trkpt lat="50.12209" lon="4.08705">
        <ele>168.6</ele>
        <time>2024-04-26T06:02:54Z</time>
      </trkpt>
      <trkpt lat="50.12209" lon="4.08694">
        <ele>168.4</ele>
        <time>2024-04-26T06:02:55Z</time>
      </trkpt>
      <trkpt lat="50.1221" lon="4.08682">
        <ele>168.6</ele>
        <time>2024-04-26T06:02:56Z</time>
      </trkpt>
      <trkpt lat="50.1221" lon="4.08671">
        <ele>168.6</ele>
        <time>2024-04-26T06:02:57Z</time>
      </trkpt>
      <trkpt lat="50.1221" lon="4.0866">
        <ele>168.6</ele>
        <time>2024-04-26T06:02:58Z</time>
      </trkpt>
      <trkpt lat="50.1221" lon="4.08649">
        <ele>168.6</ele>
        <time>2024-04-26T06:02:59Z</time>
      </trkpt>
      <trkpt lat="50.1221" lon="4.08638">
        <ele>168.4</ele>
        <time>2024-04-26T06:03:00Z</time>
      </trkpt>
      <trkpt lat="50.1221" lon="4.08627">
        <ele>168.4</ele>
        <time>2024-04-26T06:03:01Z</time>
      </trkpt>
      <trkpt lat="50.1221" lon="4.08616">
        <ele>168.4</ele>
        <time>2024-04-26T06:03:02Z</time>
      </trkpt>
      <trkpt lat="50.12209" lon="4.08605">
        <ele>168.6</ele>
        <time>2024-04-26T06:03:03Z</time>
      </trkpt>
      <trkpt lat="50.12209" lon="4.08594">
        <ele>168.4</ele>
        <time>2024-04-26T06:03:04Z</time>
      </trkpt>
      <trkpt lat="50.12209" lon="4.08583">
        <ele>168.4</ele>
        <time>2024-04-26T06:03:05Z</time>
      </trkpt>
      <trkpt lat="50.12208" lon="4.08572">
        <ele>168.4</ele>
        <time>2024-04-26T06:03:06Z</time>
      </trkpt>
      <trkpt lat="50.12208" lon="4.08561">
        <ele>168.4</ele>
        <time>2024-04-26T06:03:07Z</time>
      </trkpt>
      <trkpt lat="50.12208" lon="4.0855">
        <ele>168.4</ele>
        <time>2024-04-26T06:03:08Z</time>
      </trkpt>
      <trkpt lat="50.12208" lon="4.08539">
        <ele>168.4</ele>
        <time>2024-04-26T06:03:09Z</time>
      </trkpt>
      <trkpt lat="50.12209" lon="4.08528">
        <ele>168.4</ele>
        <time>2024-04-26T06:03:10Z</time>
      </trkpt>
      <trkpt lat="50.12209" lon="4.08517">
        <ele>168.4</ele>
        <time>2024-04-26T06:03:11Z</time>
      </trkpt>
      <trkpt lat="50.1221" lon="4.08507">
        <ele>168.4</ele>
        <time>2024-04-26T06:03:12Z</time>
      </trkpt>
      <trkpt lat="50.12212" lon="4.08496">
        <ele>168.4</ele>
        <time>2024-04-26T06:03:13Z</time>
      </trkpt>
      <trkpt lat="50.12213" lon="4.08486">
        <ele>168.2</ele>
        <time>2024-04-26T06:03:14Z</time>
      </trkpt>
      <trkpt lat="50.12215" lon="4.08477">
        <ele>168.4</ele>
        <time>2024-04-26T06:03:15Z</time>
      </trkpt>
      <trkpt lat="50.12217" lon="4.08467">
        <ele>168.4</ele>
        <time>2024-04-26T06:03:16Z</time>
      </trkpt>
      <trkpt lat="50.12219" lon="4.08457">
        <ele>168.4</ele>
        <time>2024-04-26T06:03:17Z</time>
      </trkpt>
      <trkpt lat="50.1222" lon="4.08448">
        <ele>168.4</ele>
        <time>2024-04-26T06:03:18Z</time>
      </trkpt>
      <trkpt lat="50.12222" lon="4.08438">
        <ele>168.4</ele>
        <time>2024-04-26T06:03:19Z</time>
      </trkpt>
      <trkpt lat="50.12224" lon="4.08429">
        <ele>168.4</ele>
        <time>2024-04-26T06:03:20Z</time>
      </trkpt>
      <trkpt lat="50.12226" lon="4.0842">
        <ele>168.6</ele>
        <time>2024-04-26T06:03:21Z</time>
      </trkpt>
      <trkpt lat="50.12228" lon="4.08411">
        <ele>168.6</ele>
        <time>2024-04-26T06:03:22Z</time>
      </trkpt>
      <trkpt lat="50.1223" lon="4.08403">
        <ele>168.6</ele>
        <time>2024-04-26T06:03:23Z</time>
      </trkpt>
      <trkpt lat="50.12233" lon="4.08394">
        <ele>169</ele>
        <time>2024-04-26T06:03:24Z</time>
      </trkpt>
      <trkpt lat="50.12236" lon="4.08386">
        <ele>169.2</ele>
        <time>2024-04-26T06:03:25Z</time>
      </trkpt>
      <trkpt lat="50.12239" lon="4.08377">
        <ele>169.4</ele>
        <time>2024-04-26T06:03:26Z</time>
      </trkpt>
      <trkpt lat="50.12242" lon="4.08369">
        <ele>169.8</ele>
        <time>2024-04-26T06:03:27Z</time>
      </trkpt>
      <trkpt lat="50.12245" lon="4.08362">
        <ele>170</ele>
        <time>2024-04-26T06:03:28Z</time>
      </trkpt>
      <trkpt lat="50.12248" lon="4.08354">
        <ele>170</ele>
        <time>2024-04-26T06:03:29Z</time>
      </trkpt>
      <trkpt lat="50.12251" lon="4.08346">
        <ele>170.2</ele>
        <time>2024-04-26T06:03:30Z</time>
      </trkpt>
      <trkpt lat="50.12255" lon="4.08339">
        <ele>170.4</ele>
        <time>2024-04-26T06:03:31Z</time>
      </trkpt>
      <trkpt lat="50.12258" lon="4.08332">
        <ele>170.6</ele>
        <time>2024-04-26T06:03:32Z</time>
      </trkpt>
      <trkpt lat="50.12261" lon="4.08325">
        <ele>171</ele>
        <time>2024-04-26T06:03:33Z</time>
      </trkpt>
      <trkpt lat="50.12265" lon="4.08317">
        <ele>171.2</ele>
        <time>2024-04-26T06:03:34Z</time>
      </trkpt>
      <trkpt lat="50.12268" lon="4.0831">
        <ele>171.4</ele>
        <time>2024-04-26T06:03:35Z</time>
      </trkpt>
      <trkpt lat="50.12271" lon="4.08303">
        <ele>171.6</ele>
        <time>2024-04-26T06:03:36Z</time>
      </trkpt>
      <trkpt lat="50.12275" lon="4.08296">
        <ele>172.2</ele>
        <time>2024-04-26T06:03:37Z</time>
      </trkpt>
      <trkpt lat="50.12278" lon="4.08288">
        <ele>172.6</ele>
        <time>2024-04-26T06:03:38Z</time>
      </trkpt>
      <trkpt lat="50.12282" lon="4.08281">
        <ele>173</ele>
        <time>2024-04-26T06:03:39Z</time>
      </trkpt>
      <trkpt lat="50.12285" lon="4.08274">
        <ele>173.4</ele>
        <time>2024-04-26T06:03:40Z</time>
      </trkpt>
      <trkpt lat="50.12289" lon="4.08266">
        <ele>173.8</ele>
        <time>2024-04-26T06:03:41Z</time>
      </trkpt>
      <trkpt lat="50.12292" lon="4.08259">
        <ele>173.8</ele>
        <time>2024-04-26T06:03:42Z</time>
      </trkpt>
      <trkpt lat="50.12296" lon="4.08251">
        <ele>174.2</ele>
        <time>2024-04-26T06:03:43Z</time>
      </trkpt>
      <trkpt lat="50.12299" lon="4.08244">
        <ele>174.2</ele>
        <time>2024-04-26T06:03:44Z</time>
      </trkpt>
      <trkpt lat="50.12303" lon="4.08236">
        <ele>174.6</ele>
        <time>2024-04-26T06:03:45Z</time>
      </trkpt>
      <trkpt lat="50.12306" lon="4.08229">
        <ele>174.8</ele>
        <time>2024-04-26T06:03:46Z</time>
      </trkpt>
      <trkpt lat="50.1231" lon="4.08221">
        <ele>175</ele>
        <time>2024-04-26T06:03:47Z</time>
      </trkpt>
      <trkpt lat="50.12313" lon="4.08214">
        <ele>175.2</ele>
        <time>2024-04-26T06:03:48Z</time>
      </trkpt>
      <trkpt lat="50.12317" lon="4.08206">
        <ele>175.6</ele>
        <time>2024-04-26T06:03:49Z</time>
      </trkpt>
      <trkpt lat="50.1232" lon="4.08199">
        <ele>175.8</ele>
        <time>2024-04-26T06:03:50Z</time>
      </trkpt>
      <trkpt lat="50.12324" lon="4.08191">
        <ele>175.8</ele>
        <time>2024-04-26T06:03:51Z</time>
      </trkpt>
      <trkpt lat="50.12327" lon="4.08184">
        <ele>176.2</ele>
        <time>2024-04-26T06:03:52Z</time>
      </trkpt>
      <trkpt lat="50.12331" lon="4.08176">
        <ele>176.2</ele>
        <time>2024-04-26T06:03:53Z</time>
      </trkpt>
      <trkpt lat="50.12334" lon="4.08169">
        <ele>176.4</ele>
        <time>2024-04-26T06:03:54Z</time>
      </trkpt>
      <trkpt lat="50.12338" lon="4.08161">
        <ele>176.6</ele>
        <time>2024-04-26T06:03:55Z</time>
      </trkpt>
      <trkpt lat="50.12341" lon="4.08153">
        <ele>176.8</ele>
        <time>2024-04-26T06:03:56Z</time>
      </trkpt>
      <trkpt lat="50.12345" lon="4.08145">
        <ele>177</ele>
        <time>2024-04-26T06:03:57Z</time>
      </trkpt>
      <trkpt lat="50.12349" lon="4.08138">
        <ele>177</ele>
        <time>2024-04-26T06:03:58Z</time>
      </trkpt>
      <trkpt lat="50.12352" lon="4.0813">
        <ele>177.2</ele>
        <time>2024-04-26T06:03:59Z</time>
      </trkpt>
      <trkpt lat="50.12356" lon="4.08122">
        <ele>177.2</ele>
        <time>2024-04-26T06:04:00Z</time>
      </trkpt>
      <trkpt lat="50.1236" lon="4.08114">
        <ele>177.4</ele>
        <time>2024-04-26T06:04:01Z</time>
      </trkpt>
      <trkpt lat="50.12363" lon="4.08106">
        <ele>177.2</ele>
        <time>2024-04-26T06:04:02Z</time>
      </trkpt>
      <trkpt lat="50.12367" lon="4.08098">
        <ele>177.4</ele>
        <time>2024-04-26T06:04:03Z</time>
      </trkpt>
      <trkpt lat="50.12371" lon="4.0809">
        <ele>177.6</ele>
        <time>2024-04-26T06:04:04Z</time>
      </trkpt>
      <trkpt lat="50.12375" lon="4.08082">
        <ele>177.4</ele>
        <time>2024-04-26T06:04:05Z</time>
      </trkpt>
      <trkpt lat="50.12379" lon="4.08074">
        <ele>177.6</ele>
        <time>2024-04-26T06:04:06Z</time>
      </trkpt>
      <trkpt lat="50.12383" lon="4.08066">
        <ele>177.8</ele>
        <time>2024-04-26T06:04:07Z</time>
      </trkpt>
      <trkpt lat="50.12387" lon="4.08059">
        <ele>177.8</ele>
        <time>2024-04-26T06:04:08Z</time>
      </trkpt>
      <trkpt lat="50.12392" lon="4.08054">
        <ele>178</ele>
        <time>2024-04-26T06:04:09Z</time>
      </trkpt>
      <trkpt lat="50.12399" lon="4.08052">
        <ele>177.8</ele>
        <time>2024-04-26T06:04:10Z</time>
      </trkpt>
      <trkpt lat="50.12405" lon="4.08053">
        <ele>178</ele>
        <time>2024-04-26T06:04:11Z</time>
      </trkpt>
      <trkpt lat="50.12411" lon="4.08056">
        <ele>178</ele>
        <time>2024-04-26T06:04:12Z</time>
      </trkpt>
      <trkpt lat="50.12416" lon="4.08063">
        <ele>178</ele>
        <time>2024-04-26T06:04:13Z</time>
      </trkpt>
      <trkpt lat="50.12421" lon="4.08071">
        <ele>177.8</ele>
        <time>2024-04-26T06:04:14Z</time>
      </trkpt>
      <trkpt lat="50.12426" lon="4.0808">
        <ele>178</ele>
        <time>2024-04-26T06:04:15Z</time>
      </trkpt>
      <trkpt lat="50.12431" lon="4.08089">
        <ele>178</ele>
        <time>2024-04-26T06:04:16Z</time>
      </trkpt>
      <trkpt lat="50.12436" lon="4.08098">
        <ele>178</ele>
        <time>2024-04-26T06:04:17Z</time>
      </trkpt>
      <trkpt lat="50.12441" lon="4.08107">
        <ele>178</ele>
        <time>2024-04-26T06:04:18Z</time>
      </trkpt>
      <trkpt lat="50.12446" lon="4.08116">
        <ele>178</ele>
        <time>2024-04-26T06:04:19Z</time>
      </trkpt>
      <trkpt lat="50.12451" lon="4.08126">
        <ele>178</ele>
        <time>2024-04-26T06:04:20Z</time>
      </trkpt>
      <trkpt lat="50.12456" lon="4.08135">
        <ele>178.2</ele>
        <time>2024-04-26T06:04:21Z</time>
      </trkpt>
      <trkpt lat="50.12461" lon="4.08144">
        <ele>178.2</ele>
        <time>2024-04-26T06:04:22Z</time>
      </trkpt>
      <trkpt lat="50.12466" lon="4.08154">
        <ele>178.2</ele>
        <time>2024-04-26T06:04:23Z</time>
      </trkpt>
      <trkpt lat="50.12471" lon="4.08163">
        <ele>178</ele>
        <time>2024-04-26T06:04:24Z</time>
      </trkpt>
      <trkpt lat="50.12476" lon="4.08172">
        <ele>178.2</ele>
        <time>2024-04-26T06:04:25Z</time>
      </trkpt>
      <trkpt lat="50.12481" lon="4.08182">
        <ele>178.2</ele>
        <time>2024-04-26T06:04:26Z</time>
      </trkpt>
      <trkpt lat="50.12486" lon="4.08191">
        <ele>178.2</ele>
        <time>2024-04-26T06:04:27Z</time>
      </trkpt>
      <trkpt lat="50.12491" lon="4.08201">
        <ele>178.2</ele>
        <time>2024-04-26T06:04:28Z</time>
      </trkpt>
      <trkpt lat="50.12496" lon="4.08211">
        <ele>178</ele>
        <time>2024-04-26T06:04:29Z</time>
      </trkpt>
      <trkpt lat="50.12501" lon="4.0822">
        <ele>178</ele>
        <time>2024-04-26T06:04:30Z</time>
      </trkpt>
      <trkpt lat="50.12506" lon="4.08229">
        <ele>177.6</ele>
        <time>2024-04-26T06:04:31Z</time>
      </trkpt>
      <trkpt lat="50.12512" lon="4.08238">
        <ele>177.6</ele>
        <time>2024-04-26T06:04:32Z</time>
      </trkpt>
      <trkpt lat="50.12518" lon="4.08247">
        <ele>177.2</ele>
        <time>2024-04-26T06:04:33Z</time>
      </trkpt>
      <trkpt lat="50.12524" lon="4.08254">
        <ele>177</ele>
        <time>2024-04-26T06:04:34Z</time>
      </trkpt>
      <trkpt lat="50.12531" lon="4.08261">
        <ele>177</ele>
        <time>2024-04-26T06:04:35Z</time>
      </trkpt>
      <trkpt lat="50.12538" lon="4.08268">
        <ele>177</ele>
        <time>2024-04-26T06:04:36Z</time>
      </trkpt>
      <trkpt lat="50.12545" lon="4.08273">
        <ele>176.8</ele>
        <time>2024-04-26T06:04:37Z</time>
      </trkpt>
      <trkpt lat="50.12553" lon="4.08278">
        <ele>176.6</ele>
        <time>2024-04-26T06:04:38Z</time>
      </trkpt>
      <trkpt lat="50.1256" lon="4.08283">
        <ele>176.4</ele>
        <time>2024-04-26T06:04:39Z</time>
      </trkpt>
      <trkpt lat="50.12568" lon="4.08286">
        <ele>176.2</ele>
        <time>2024-04-26T06:04:40Z</time>
      </trkpt>
      <trkpt lat="50.12575" lon="4.08288">
        <ele>175.8</ele>
        <time>2024-04-26T06:04:41Z</time>
      </trkpt>
      <trkpt lat="50.12583" lon="4.08291">
        <ele>175.6</ele>
        <time>2024-04-26T06:04:42Z</time>
      </trkpt>
      <trkpt lat="50.12591" lon="4.08292">
        <ele>175.6</ele>
        <time>2024-04-26T06:04:43Z</time>
      </trkpt>
      <trkpt lat="50.12598" lon="4.08293">
        <ele>175.4</ele>
        <time>2024-04-26T06:04:44Z</time>
      </trkpt>
      <trkpt lat="50.12605" lon="4.08293">
        <ele>175.2</ele>
        <time>2024-04-26T06:04:45Z</time>
      </trkpt>
      <trkpt lat="50.12612" lon="4.08293">
        <ele>175.2</ele>
        <time>2024-04-26T06:04:46Z</time>
      </trkpt>
      <trkpt lat="50.12619" lon="4.08293">
        <ele>175.2</ele>
        <time>2024-04-26T06:04:47Z</time>
      </trkpt>
      <trkpt lat="50.12625" lon="4.08293">
        <ele>175.2</ele>
        <time>2024-04-26T06:04:48Z</time>
      </trkpt>
      <trkpt lat="50.12632" lon="4.08293">
        <ele>175.2</ele>
        <time>2024-04-26T06:04:49Z</time>
      </trkpt>
      <trkpt lat="50.12638" lon="4.08293">
        <ele>175.2</ele>
        <time>2024-04-26T06:04:50Z</time>
      </trkpt>
      <trkpt lat="50.12644" lon="4.08292">
        <ele>175</ele>
        <time>2024-04-26T06:04:51Z</time>
      </trkpt>
      <trkpt lat="50.12651" lon="4.08292">
        <ele>175.2</ele>
        <time>2024-04-26T06:04:52Z</time>
      </trkpt>
      <trkpt lat="50.12657" lon="4.08292">
        <ele>175.2</ele>
        <time>2024-04-26T06:04:53Z</time>
      </trkpt>
      <trkpt lat="50.12663" lon="4.08292">
        <ele>175.2</ele>
        <time>2024-04-26T06:04:54Z</time>
      </trkpt>
      <trkpt lat="50.12668" lon="4.08292">
        <ele>175.2</ele>
        <time>2024-04-26T06:04:55Z</time>
      </trkpt>
      <trkpt lat="50.12674" lon="4.08292">
        <ele>175.2</ele>
        <time>2024-04-26T06:04:56Z</time>
      </trkpt>
      <trkpt lat="50.12679" lon="4.08291">
        <ele>175.6</ele>
        <time>2024-04-26T06:04:57Z</time>
      </trkpt>
      <trkpt lat="50.12685" lon="4.08291">
        <ele>175.8</ele>
        <time>2024-04-26T06:04:58Z</time>
      </trkpt>
      <trkpt lat="50.1269" lon="4.08291">
        <ele>176.4</ele>
        <time>2024-04-26T06:04:59Z</time>
      </trkpt>
      <trkpt lat="50.12695" lon="4.08291">
        <ele>176.6</ele>
        <time>2024-04-26T06:05:00Z</time>
      </trkpt>
      <trkpt lat="50.127" lon="4.08291">
        <ele>177</ele>
        <time>2024-04-26T06:05:01Z</time>
      </trkpt>
      <trkpt lat="50.12705" lon="4.0829">
        <ele>177.2</ele>
        <time>2024-04-26T06:05:02Z</time>
      </trkpt>
      <trkpt lat="50.12711" lon="4.0829">
        <ele>177.6</ele>
        <time>2024-04-26T06:05:03Z</time>
      </trkpt>
      <trkpt lat="50.12716" lon="4.0829">
        <ele>178</ele>
        <time>2024-04-26T06:05:04Z</time>
      </trkpt>
      <trkpt lat="50.12721" lon="4.0829">
        <ele>178.4</ele>
        <time>2024-04-26T06:05:05Z</time>
      </trkpt>
      <trkpt lat="50.12726" lon="4.0829">
        <ele>179</ele>
        <time>2024-04-26T06:05:06Z</time>
      </trkpt>
      <trkpt lat="50.12731" lon="4.0829">
        <ele>179.4</ele>
        <time>2024-04-26T06:05:07Z</time>
      </trkpt>
      <trkpt lat="50.12736" lon="4.0829">
        <ele>179.4</ele>
        <time>2024-04-26T06:05:08Z</time>
      </trkpt>
      <trkpt lat="50.12741" lon="4.08289">
        <ele>180</ele>
        <time>2024-04-26T06:05:09Z</time>
      </trkpt>
      <trkpt lat="50.12746" lon="4.08289">
        <ele>180.2</ele>
        <time>2024-04-26T06:05:10Z</time>
      </trkpt>
      <trkpt lat="50.12751" lon="4.08289">
        <ele>180.4</ele>
        <time>2024-04-26T06:05:11Z</time>
      </trkpt>
      <trkpt lat="50.12756" lon="4.08289">
        <ele>181</ele>
        <time>2024-04-26T06:05:12Z</time>
      </trkpt>
      <trkpt lat="50.12761" lon="4.08289">
        <ele>181.2</ele>
        <time>2024-04-26T06:05:13Z</time>
      </trkpt>
      <trkpt lat="50.12766" lon="4.08289">
        <ele>181.4</ele>
        <time>2024-04-26T06:05:14Z</time>
      </trkpt>
      <trkpt lat="50.12771" lon="4.08289">
        <ele>182</ele>
        <time>2024-04-26T06:05:15Z</time>
      </trkpt>
      <trkpt lat="50.12776" lon="4.08289">
        <ele>182.2</ele>
        <time>2024-04-26T06:05:16Z</time>
      </trkpt>
      <trkpt lat="50.1278" lon="4.08289">
        <ele>182.4</ele>
        <time>2024-04-26T06:05:17Z</time>
      </trkpt>
      <trkpt lat="50.12785" lon="4.0829">
        <ele>182.4</ele>
        <time>2024-04-26T06:05:18Z</time>
      </trkpt>
      <trkpt lat="50.1279" lon="4.0829">
        <ele>182.6</ele>
        <time>2024-04-26T06:05:19Z</time>
      </trkpt>
      <trkpt lat="50.12795" lon="4.08291">
        <ele>183.2</ele>
        <time>2024-04-26T06:05:20Z</time>
      </trkpt>
      <trkpt lat="50.128" lon="4.08292">
        <ele>183.4</ele>
        <time>2024-04-26T06:05:21Z</time>
      </trkpt>
      <trkpt lat="50.12804" lon="4.08293">
        <ele>184</ele>
        <time>2024-04-26T06:05:22Z</time>
      </trkpt>
      <trkpt lat="50.12809" lon="4.08294">
        <ele>184.2</ele>
        <time>2024-04-26T06:05:23Z</time>
      </trkpt>
      <trkpt lat="50.12813" lon="4.08295">
        <ele>184.4</ele>
        <time>2024-04-26T06:05:24Z</time>
      </trkpt>
      <trkpt lat="50.12817" lon="4.08296">
        <ele>184.6</ele>
        <time>2024-04-26T06:05:25Z</time>
      </trkpt>
      <trkpt lat="50.12822" lon="4.08298">
        <ele>184.6</ele>
        <time>2024-04-26T06:05:26Z</time>
      </trkpt>
      <trkpt lat="50.12826" lon="4.083">
        <ele>184.8</ele>
        <time>2024-04-26T06:05:27Z</time>
      </trkpt>
      <trkpt lat="50.1283" lon="4.08302">
        <ele>185</ele>
        <time>2024-04-26T06:05:28Z</time>
      </trkpt>
      <trkpt lat="50.12835" lon="4.08304">
        <ele>185.2</ele>
        <time>2024-04-26T06:05:29Z</time>
      </trkpt>
      <trkpt lat="50.12839" lon="4.08306">
        <ele>185.4</ele>
        <time>2024-04-26T06:05:30Z</time>
      </trkpt>
      <trkpt lat="50.12843" lon="4.08309">
        <ele>185.8</ele>
        <time>2024-04-26T06:05:31Z</time>
      </trkpt>
      <trkpt lat="50.12847" lon="4.08312">
        <ele>186.4</ele>
        <time>2024-04-26T06:05:32Z</time>
      </trkpt>
      <trkpt lat="50.12852" lon="4.08315">
        <ele>186.6</ele>
        <time>2024-04-26T06:05:33Z</time>
      </trkpt>
      <trkpt lat="50.12856" lon="4.08318">
        <ele>187</ele>
        <time>2024-04-26T06:05:34Z</time>
      </trkpt>
      <trkpt lat="50.1286" lon="4.08321">
        <ele>187.2</ele>
        <time>2024-04-26T06:05:35Z</time>
      </trkpt>
      <trkpt lat="50.12863" lon="4.08325">
        <ele>187.6</ele>
        <time>2024-04-26T06:05:36Z</time>
      </trkpt>
      <trkpt lat="50.12867" lon="4.08328">
        <ele>188</ele>
        <time>2024-04-26T06:05:37Z</time>
      </trkpt>
      <trkpt lat="50.12871" lon="4.08332">
        <ele>188.4</ele>
        <time>2024-04-26T06:05:38Z</time>
      </trkpt>
      <trkpt lat="50.12875" lon="4.08336">
        <ele>188.4</ele>
        <time>2024-04-26T06:05:39Z</time>
      </trkpt>
      <trkpt lat="50.12878" lon="4.08339">
        <ele>188.6</ele>
        <time>2024-04-26T06:05:40Z</time>
      </trkpt>
      <trkpt lat="50.12882" lon="4.08343">
        <ele>189</ele>
        <time>2024-04-26T06:05:41Z</time>
      </trkpt>
      <trkpt lat="50.12886" lon="4.08347">
        <ele>189.2</ele>
        <time>2024-04-26T06:05:42Z</time>
      </trkpt>
      <trkpt lat="50.1289" lon="4.08351">
        <ele>189.4</ele>
        <time>2024-04-26T06:05:43Z</time>
      </trkpt>
      <trkpt lat="50.12894" lon="4.08355">
        <ele>190</ele>
        <time>2024-04-26T06:05:44Z</time>
      </trkpt>
      <trkpt lat="50.12897" lon="4.08359">
        <ele>190.4</ele>
        <time>2024-04-26T06:05:45Z</time>
      </trkpt>
      <trkpt lat="50.12901" lon="4.08363">
        <ele>190.6</ele>
        <time>2024-04-26T06:05:46Z</time>
      </trkpt>
      <trkpt lat="50.12905" lon="4.08367">
        <ele>191</ele>
        <time>2024-04-26T06:05:47Z</time>
      </trkpt>
      <trkpt lat="50.12909" lon="4.08372">
        <ele>191.4</ele>
        <time>2024-04-26T06:05:48Z</time>
      </trkpt>
      <trkpt lat="50.12912" lon="4.08376">
        <ele>192</ele>
        <time>2024-04-26T06:05:49Z</time>
      </trkpt>
      <trkpt lat="50.12916" lon="4.0838">
        <ele>192.8</ele>
        <time>2024-04-26T06:05:50Z</time>
      </trkpt>
      <trkpt lat="50.1292" lon="4.08384">
        <ele>193.2</ele>
        <time>2024-04-26T06:05:51Z</time>
      </trkpt>
      <trkpt lat="50.12923" lon="4.08388">
        <ele>193.6</ele>
        <time>2024-04-26T06:05:52Z</time>
      </trkpt>
      <trkpt lat="50.12927" lon="4.08392">
        <ele>193.8</ele>
        <time>2024-04-26T06:05:53Z</time>
      </trkpt>
      <trkpt lat="50.1293" lon="4.08396">
        <ele>194.2</ele>
        <time>2024-04-26T06:05:54Z</time>
      </trkpt>
      <trkpt lat="50.12934" lon="4.084">
        <ele>194.6</ele>
        <time>2024-04-26T06:05:55Z</time>
      </trkpt>
      <trkpt lat="50.12938" lon="4.08404">
        <ele>195</ele>
        <time>2024-04-26T06:05:56Z</time>
      </trkpt>
      <trkpt lat="50.12941" lon="4.08407">
        <ele>195.2</ele>
        <time>2024-04-26T06:05:57Z</time>
      </trkpt>
      <trkpt lat="50.12945" lon="4.08411">
        <ele>195.6</ele>
        <time>2024-04-26T06:05:58Z</time>
      </trkpt>
      <trkpt lat="50.12948" lon="4.08415">
        <ele>195.8</ele>
        <time>2024-04-26T06:05:59Z</time>
      </trkpt>
      <trkpt lat="50.12952" lon="4.08418">
        <ele>196.2</ele>
        <time>2024-04-26T06:06:00Z</time>
      </trkpt>
      <trkpt lat="50.12956" lon="4.08421">
        <ele>196.2</ele>
        <time>2024-04-26T06:06:01Z</time>
      </trkpt>
      <trkpt lat="50.1296" lon="4.08424">
        <ele>196.4</ele>
        <time>2024-04-26T06:06:02Z</time>
      </trkpt>
      <trkpt lat="50.12964" lon="4.08426">
        <ele>196.6</ele>
        <time>2024-04-26T06:06:03Z</time>
      </trkpt>
      <trkpt lat="50.12968" lon="4.08429">
        <ele>196.8</ele>
        <time>2024-04-26T06:06:04Z</time>
      </trkpt>
      <trkpt lat="50.12972" lon="4.0843">
        <ele>197.2</ele>
        <time>2024-04-26T06:06:05Z</time>
      </trkpt>
      <trkpt lat="50.12976" lon="4.08432">
        <ele>197.6</ele>
        <time>2024-04-26T06:06:06Z</time>
      </trkpt>
      <trkpt lat="50.1298" lon="4.08433">
        <ele>198</ele>
        <time>2024-04-26T06:06:07Z</time>
      </trkpt>
      <trkpt lat="50.12984" lon="4.08434">
        <ele>198.4</ele>
        <time>2024-04-26T06:06:08Z</time>
      </trkpt>
      <trkpt lat="50.12989" lon="4.08434">
        <ele>198.4</ele>
        <time>2024-04-26T06:06:09Z</time>
      </trkpt>
      <trkpt lat="50.12993" lon="4.08434">
        <ele>198.6</ele>
        <time>2024-04-26T06:06:10Z</time>
      </trkpt>
      <trkpt lat="50.12998" lon="4.08433">
        <ele>198.8</ele>
        <time>2024-04-26T06:06:11Z</time>
      </trkpt>
      <trkpt lat="50.13002" lon="4.08432">
        <ele>199</ele>
        <time>2024-04-26T06:06:12Z</time>
      </trkpt>
      <trkpt lat="50.13006" lon="4.0843">
        <ele>199.2</ele>
        <time>2024-04-26T06:06:13Z</time>
      </trkpt>
      <trkpt lat="50.1301" lon="4.08428">
        <ele>199.2</ele>
        <time>2024-04-26T06:06:14Z</time>
      </trkpt>
      <trkpt lat="50.13014" lon="4.08426">
        <ele>199.4</ele>
        <time>2024-04-26T06:06:15Z</time>
      </trkpt>
      <trkpt lat="50.13018" lon="4.08424">
        <ele>199.8</ele>
        <time>2024-04-26T06:06:16Z</time>
      </trkpt>
      <trkpt lat="50.13023" lon="4.08421">
        <ele>200.4</ele>
        <time>2024-04-26T06:06:17Z</time>
      </trkpt>
      <trkpt lat="50.13027" lon="4.08418">
        <ele>201</ele>
        <time>2024-04-26T06:06:18Z</time>
      </trkpt>
      <trkpt lat="50.13031" lon="4.08415">
        <ele>201.4</ele>
        <time>2024-04-26T06:06:19Z</time>
      </trkpt>
      <trkpt lat="50.13035" lon="4.08412">
        <ele>201.6</ele>
        <time>2024-04-26T06:06:20Z</time>
      </trkpt>
      <trkpt lat="50.13038" lon="4.08409">
        <ele>202</ele>
        <time>2024-04-26T06:06:21Z</time>
      </trkpt>
      <trkpt lat="50.13042" lon="4.08406">
        <ele>202.4</ele>
        <time>2024-04-26T06:06:22Z</time>
      </trkpt>
      <trkpt lat="50.13046" lon="4.08403">
        <ele>202.4</ele>
        <time>2024-04-26T06:06:23Z</time>
      </trkpt>
      <trkpt lat="50.1305" lon="4.08401">
        <ele>202.8</ele>
        <time>2024-04-26T06:06:24Z</time>
      </trkpt>
      <trkpt lat="50.13054" lon="4.08397">
        <ele>203.4</ele>
        <time>2024-04-26T06:06:25Z</time>
      </trkpt>
      <trkpt lat="50.13058" lon="4.08394">
        <ele>203.6</ele>
        <time>2024-04-26T06:06:26Z</time>
      </trkpt>
      <trkpt lat="50.13062" lon="4.0839">
        <ele>203.8</ele>
        <time>2024-04-26T06:06:27Z</time>
      </trkpt>
      <trkpt lat="50.13066" lon="4.08387">
        <ele>204</ele>
        <time>2024-04-26T06:06:28Z</time>
      </trkpt>
      <trkpt lat="50.1307" lon="4.08384">
        <ele>204.2</ele>
        <time>2024-04-26T06:06:29Z</time>
      </trkpt>
      <trkpt lat="50.13074" lon="4.0838">
        <ele>204.6</ele>
        <time>2024-04-26T06:06:30Z</time>
      </trkpt>
      <trkpt lat="50.13078" lon="4.08376">
        <ele>204.8</ele>
        <time>2024-04-26T06:06:31Z</time>
      </trkpt>
      <trkpt lat="50.13082" lon="4.08372">
        <ele>205.2</ele>
        <time>2024-04-26T06:06:32Z</time>
      </trkpt>
      <trkpt lat="50.13086" lon="4.08368">
        <ele>205.4</ele>
        <time>2024-04-26T06:06:33Z</time>
      </trkpt>
      <trkpt lat="50.1309" lon="4.08365">
        <ele>205.6</ele>
        <time>2024-04-26T06:06:34Z</time>
      </trkpt>
      <trkpt lat="50.13094" lon="4.08361">
        <ele>205.8</ele>
        <time>2024-04-26T06:06:35Z</time>
      </trkpt>
      <trkpt lat="50.13098" lon="4.08358">
        <ele>206.2</ele>
        <time>2024-04-26T06:06:36Z</time>
      </trkpt>
      <trkpt lat="50.13102" lon="4.08355">
        <ele>206.2</ele>
        <time>2024-04-26T06:06:37Z</time>
      </trkpt>
      <trkpt lat="50.13106" lon="4.08352">
        <ele>206.6</ele>
        <time>2024-04-26T06:06:38Z</time>
      </trkpt>
      <trkpt lat="50.1311" lon="4.08349">
        <ele>206.6</ele>
        <time>2024-04-26T06:06:39Z</time>
      </trkpt>
      <trkpt lat="50.13114" lon="4.08346">
        <ele>206.8</ele>
        <time>2024-04-26T06:06:40Z</time>
      </trkpt>
      <trkpt lat="50.13118" lon="4.08344">
        <ele>207.2</ele>
        <time>2024-04-26T06:06:41Z</time>
      </trkpt>
      <trkpt lat="50.13122" lon="4.08341">
        <ele>207.2</ele>
        <time>2024-04-26T06:06:42Z</time>
      </trkpt>
      <trkpt lat="50.13126" lon="4.08339">
        <ele>207.4</ele>
        <time>2024-04-26T06:06:43Z</time>
      </trkpt>
      <trkpt lat="50.13131" lon="4.08337">
        <ele>207.6</ele>
        <time>2024-04-26T06:06:44Z</time>
      </trkpt>
      <trkpt lat="50.13135" lon="4.08335">
        <ele>207.6</ele>
        <time>2024-04-26T06:06:45Z</time>
      </trkpt>
      <trkpt lat="50.1314" lon="4.08334">
        <ele>207.8</ele>
        <time>2024-04-26T06:06:46Z</time>
      </trkpt>
      <trkpt lat="50.13144" lon="4.08333">
        <ele>208</ele>
        <time>2024-04-26T06:06:47Z</time>
      </trkpt>
      <trkpt lat="50.13148" lon="4.08331">
        <ele>208.2</ele>
        <time>2024-04-26T06:06:48Z</time>
      </trkpt>
      <trkpt lat="50.13153" lon="4.08331">
        <ele>208.6</ele>
        <time>2024-04-26T06:06:49Z</time>
      </trkpt>
      <trkpt lat="50.13157" lon="4.0833">
        <ele>208.8</ele>
        <time>2024-04-26T06:06:50Z</time>
      </trkpt>
      <trkpt lat="50.13162" lon="4.08331">
        <ele>209.2</ele>
        <time>2024-04-26T06:06:51Z</time>
      </trkpt>
      <trkpt lat="50.13167" lon="4.08331">
        <ele>209.8</ele>
        <time>2024-04-26T06:06:52Z</time>
      </trkpt>
      <trkpt lat="50.13171" lon="4.08332">
        <ele>210.2</ele>
        <time>2024-04-26T06:06:53Z</time>
      </trkpt>
      <trkpt lat="50.13175" lon="4.08332">
        <ele>210.6</ele>
        <time>2024-04-26T06:06:54Z</time>
      </trkpt>
      <trkpt lat="50.13179" lon="4.08332">
        <ele>210.8</ele>
        <time>2024-04-26T06:06:55Z</time>
      </trkpt>
      <trkpt lat="50.13183" lon="4.08333">
        <ele>211.2</ele>
        <time>2024-04-26T06:06:56Z</time>
      </trkpt>
      <trkpt lat="50.13188" lon="4.08334">
        <ele>211.4</ele>
        <time>2024-04-26T06:06:57Z</time>
      </trkpt>
      <trkpt lat="50.13193" lon="4.08335">
        <ele>212</ele>
        <time>2024-04-26T06:06:58Z</time>
      </trkpt>
      <trkpt lat="50.13198" lon="4.08336">
        <ele>212.2</ele>
        <time>2024-04-26T06:06:59Z</time>
      </trkpt>
      <trkpt lat="50.13202" lon="4.08337">
        <ele>212.6</ele>
        <time>2024-04-26T06:07:00Z</time>
      </trkpt>
      <trkpt lat="50.13207" lon="4.08338">
        <ele>212.8</ele>
        <time>2024-04-26T06:07:01Z</time>
      </trkpt>
      <trkpt lat="50.13212" lon="4.08339">
        <ele>213.2</ele>
        <time>2024-04-26T06:07:02Z</time>
      </trkpt>
      <trkpt lat="50.13216" lon="4.0834">
        <ele>213.6</ele>
        <time>2024-04-26T06:07:03Z</time>
      </trkpt>
      <trkpt lat="50.13221" lon="4.08341">
        <ele>213.8</ele>
        <time>2024-04-26T06:07:04Z</time>
      </trkpt>
      <trkpt lat="50.13226" lon="4.08343">
        <ele>214.2</ele>
        <time>2024-04-26T06:07:05Z</time>
      </trkpt>
      <trkpt lat="50.13231" lon="4.08344">
        <ele>214.6</ele>
        <time>2024-04-26T06:07:06Z</time>
      </trkpt>
      <trkpt lat="50.13236" lon="4.08345">
        <ele>214.6</ele>
        <time>2024-04-26T06:07:07Z</time>
      </trkpt>
      <trkpt lat="50.13241" lon="4.08346">
        <ele>214.6</ele>
        <time>2024-04-26T06:07:08Z</time>
      </trkpt>
      <trkpt lat="50.13246" lon="4.08348">
        <ele>215</ele>
        <time>2024-04-26T06:07:09Z</time>
      </trkpt>
      <trkpt lat="50.13251" lon="4.08349">
        <ele>215.8</ele>
        <time>2024-04-26T06:07:10Z</time>
      </trkpt>
      <trkpt lat="50.13256" lon="4.08351">
        <ele>216.2</ele>
        <time>2024-04-26T06:07:11Z</time>
      </trkpt>
      <trkpt lat="50.13261" lon="4.08352">
        <ele>216.6</ele>
        <time>2024-04-26T06:07:12Z</time>
      </trkpt>
      <trkpt lat="50.13266" lon="4.08353">
        <ele>216.6</ele>
        <time>2024-04-26T06:07:13Z</time>
      </trkpt>
      <trkpt lat="50.13271" lon="4.08354">
        <ele>217</ele>
        <time>2024-04-26T06:07:14Z</time>
      </trkpt>
      <trkpt lat="50.13276" lon="4.08356">
        <ele>217</ele>
        <time>2024-04-26T06:07:15Z</time>
      </trkpt>
      <trkpt lat="50.13282" lon="4.08357">
        <ele>217</ele>
        <time>2024-04-26T06:07:16Z</time>
      </trkpt>
      <trkpt lat="50.13287" lon="4.08358">
        <ele>217.2</ele>
        <time>2024-04-26T06:07:17Z</time>
      </trkpt>
      <trkpt lat="50.13292" lon="4.0836">
        <ele>217.8</ele>
        <time>2024-04-26T06:07:18Z</time>
      </trkpt>
      <trkpt lat="50.13297" lon="4.08361">
        <ele>218.2</ele>
        <time>2024-04-26T06:07:19Z</time>
      </trkpt>
      <trkpt lat="50.13303" lon="4.08363">
        <ele>218.6</ele>
        <time>2024-04-26T06:07:20Z</time>
      </trkpt>
      <trkpt lat="50.13308" lon="4.08364">
        <ele>218.6</ele>
        <time>2024-04-26T06:07:21Z</time>
      </trkpt>
      <trkpt lat="50.13313" lon="4.08366">
        <ele>218.8</ele>
        <time>2024-04-26T06:07:22Z</time>
      </trkpt>
      <trkpt lat="50.13319" lon="4.08367">
        <ele>219.2</ele>
        <time>2024-04-26T06:07:23Z</time>
      </trkpt>
      <trkpt lat="50.13324" lon="4.08368">
        <ele>219.4</ele>
        <time>2024-04-26T06:07:24Z</time>
      </trkpt>
      <trkpt lat="50.13329" lon="4.08369">
        <ele>219.6</ele>
        <time>2024-04-26T06:07:25Z</time>
      </trkpt>
      <trkpt lat="50.13335" lon="4.08369">
        <ele>219.6</ele>
        <time>2024-04-26T06:07:26Z</time>
      </trkpt>
      <trkpt lat="50.1334" lon="4.0837">
        <ele>220</ele>
        <time>2024-04-26T06:07:27Z</time>
      </trkpt>
      <trkpt lat="50.13346" lon="4.0837">
        <ele>220</ele>
        <time>2024-04-26T06:07:28Z</time>
      </trkpt>
      <trkpt lat="50.13351" lon="4.0837">
        <ele>220</ele>
        <time>2024-04-26T06:07:29Z</time>
      </trkpt>
      <trkpt lat="50.13357" lon="4.0837">
        <ele>220.4</ele>
        <time>2024-04-26T06:07:30Z</time>
      </trkpt>
      <trkpt lat="50.13363" lon="4.08369">
        <ele>220.4</ele>
        <time>2024-04-26T06:07:31Z</time>
      </trkpt>
      <trkpt lat="50.13369" lon="4.08368">
        <ele>220.6</ele>
        <time>2024-04-26T06:07:32Z</time>
      </trkpt>
      <trkpt lat="50.13375" lon="4.08367">
        <ele>220.6</ele>
        <time>2024-04-26T06:07:33Z</time>
      </trkpt>
      <trkpt lat="50.13381" lon="4.08366">
        <ele>220.6</ele>
        <time>2024-04-26T06:07:34Z</time>
      </trkpt>
      <trkpt lat="50.13388" lon="4.08364">
        <ele>220.6</ele>
        <time>2024-04-26T06:07:35Z</time>
      </trkpt>
      <trkpt lat="50.13394" lon="4.08362">
        <ele>220.6</ele>
        <time>2024-04-26T06:07:36Z</time>
      </trkpt>
      <trkpt lat="50.13401" lon="4.0836">
        <ele>220.8</ele>
        <time>2024-04-26T06:07:37Z</time>
      </trkpt>
      <trkpt lat="50.13407" lon="4.08357">
        <ele>220.8</ele>
        <time>2024-04-26T06:07:38Z</time>
      </trkpt>
      <trkpt lat="50.13414" lon="4.08355">
        <ele>220.6</ele>
        <time>2024-04-26T06:07:39Z</time>
      </trkpt>
      <trkpt lat="50.13421" lon="4.08353">
        <ele>220.6</ele>
        <time>2024-04-26T06:07:40Z</time>
      </trkpt>
      <trkpt lat="50.13427" lon="4.0835">
        <ele>220.8</ele>
        <time>2024-04-26T06:07:41Z</time>
      </trkpt>
      <trkpt lat="50.13434" lon="4.08348">
        <ele>220.6</ele>
        <time>2024-04-26T06:07:42Z</time>
      </trkpt>
      <trkpt lat="50.13441" lon="4.08345">
        <ele>220.6</ele>
        <time>2024-04-26T06:07:43Z</time>
      </trkpt>
      <trkpt lat="50.13447" lon="4.08343">
        <ele>220.2</ele>
        <time>2024-04-26T06:07:44Z</time>
      </trkpt>
      <trkpt lat="50.13454" lon="4.08341">
        <ele>220.2</ele>
        <time>2024-04-26T06:07:45Z</time>
      </trkpt>
      <trkpt lat="50.1346" lon="4.08339">
        <ele>220</ele>
        <time>2024-04-26T06:07:46Z</time>
      </trkpt>
      <trkpt lat="50.13467" lon="4.08337">
        <ele>220</ele>
        <time>2024-04-26T06:07:47Z</time>
      </trkpt>
      <trkpt lat="50.13473" lon="4.08335">
        <ele>220</ele>
        <time>2024-04-26T06:07:48Z</time>
      </trkpt>
      <trkpt lat="50.13479" lon="4.08333">
        <ele>220</ele>
        <time>2024-04-26T06:07:49Z</time>
      </trkpt>
      <trkpt lat="50.13485" lon="4.0833">
        <ele>220</ele>
        <time>2024-04-26T06:07:50Z</time>
      </trkpt>
      <trkpt lat="50.13491" lon="4.08328">
        <ele>220.2</ele>
        <time>2024-04-26T06:07:51Z</time>
      </trkpt>
      <trkpt lat="50.13497" lon="4.08326">
        <ele>220</ele>
        <time>2024-04-26T06:07:52Z</time>
      </trkpt>
      <trkpt lat="50.13503" lon="4.08325">
        <ele>220</ele>
        <time>2024-04-26T06:07:53Z</time>
      </trkpt>
      <trkpt lat="50.13509" lon="4.08323">
        <ele>220</ele>
        <time>2024-04-26T06:07:54Z</time>
      </trkpt>
      <trkpt lat="50.13515" lon="4.08321">
        <ele>220</ele>
        <time>2024-04-26T06:07:55Z</time>
      </trkpt>
      <trkpt lat="50.1352" lon="4.08319">
        <ele>220</ele>
        <time>2024-04-26T06:07:56Z</time>
      </trkpt>
      <trkpt lat="50.13526" lon="4.08318">
        <ele>220</ele>
        <time>2024-04-26T06:07:57Z</time>
      </trkpt>
      <trkpt lat="50.13532" lon="4.08317">
        <ele>220.2</ele>
        <time>2024-04-26T06:07:58Z</time>
      </trkpt>
      <trkpt lat="50.13537" lon="4.08316">
        <ele>220.4</ele>
        <time>2024-04-26T06:07:59Z</time>
      </trkpt>
      <trkpt lat="50.13543" lon="4.08314">
        <ele>220.4</ele>
        <time>2024-04-26T06:08:00Z</time>
      </trkpt>
      <trkpt lat="50.13548" lon="4.08313">
        <ele>220.8</ele>
        <time>2024-04-26T06:08:01Z</time>
      </trkpt>
      <trkpt lat="50.13554" lon="4.08312">
        <ele>221</ele>
        <time>2024-04-26T06:08:02Z</time>
      </trkpt>
      <trkpt lat="50.13559" lon="4.08311">
        <ele>221.2</ele>
        <time>2024-04-26T06:08:03Z</time>
      </trkpt>
      <trkpt lat="50.13565" lon="4.0831">
        <ele>221.4</ele>
        <time>2024-04-26T06:08:04Z</time>
      </trkpt>
      <trkpt lat="50.1357" lon="4.08309">
        <ele>221.6</ele>
        <time>2024-04-26T06:08:05Z</time>
      </trkpt>
      <trkpt lat="50.13576" lon="4.08308">
        <ele>221.8</ele>
        <time>2024-04-26T06:08:06Z</time>
      </trkpt>
      <trkpt lat="50.13581" lon="4.08308">
        <ele>222.2</ele>
        <time>2024-04-26T06:08:07Z</time>
      </trkpt>
      <trkpt lat="50.13587" lon="4.08307">
        <ele>222.6</ele>
        <time>2024-04-26T06:08:08Z</time>
      </trkpt>
      <trkpt lat="50.13592" lon="4.08306">
        <ele>223</ele>
        <time>2024-04-26T06:08:09Z</time>
      </trkpt>
      <trkpt lat="50.13598" lon="4.08305">
        <ele>223.2</ele>
        <time>2024-04-26T06:08:10Z</time>
      </trkpt>
      <trkpt lat="50.13604" lon="4.08304">
        <ele>223.2</ele>
        <time>2024-04-26T06:08:11Z</time>
      </trkpt>
      <trkpt lat="50.13609" lon="4.08303">
        <ele>223.2</ele>
        <time>2024-04-26T06:08:12Z</time>
      </trkpt>
      <trkpt lat="50.13615" lon="4.08302">
        <ele>223.2</ele>
        <time>2024-04-26T06:08:13Z</time>
      </trkpt>
      <trkpt lat="50.13619" lon="4.08302">
        <ele>223.4</ele>
        <time>2024-04-26T06:08:14Z</time>
      </trkpt>
      <trkpt lat="50.13623" lon="4.08304">
        <ele>223.4</ele>
        <time>2024-04-26T06:08:15Z</time>
      </trkpt>
      <trkpt lat="50.13627" lon="4.08309">
        <ele>223.6</ele>
        <time>2024-04-26T06:08:16Z</time>
      </trkpt>
      <trkpt lat="50.1363" lon="4.08315">
        <ele>223.6</ele>
        <time>2024-04-26T06:08:17Z</time>
      </trkpt>
      <trkpt lat="50.13632" lon="4.08323">
        <ele>223.6</ele>
        <time>2024-04-26T06:08:18Z</time>
      </trkpt>
      <trkpt lat="50.13634" lon="4.0833">
        <ele>223.8</ele>
        <time>2024-04-26T06:08:19Z</time>
      </trkpt>
      <trkpt lat="50.13636" lon="4.08339">
        <ele>223.6</ele>
        <time>2024-04-26T06:08:20Z</time>
      </trkpt>
      <trkpt lat="50.13637" lon="4.08347">
        <ele>223.6</ele>
        <time>2024-04-26T06:08:21Z</time>
      </trkpt>
      <trkpt lat="50.13637" lon="4.08356">
        <ele>223.8</ele>
        <time>2024-04-26T06:08:22Z</time>
      </trkpt>
      <trkpt lat="50.13635" lon="4.08364">
        <ele>223.6</ele>
        <time>2024-04-26T06:08:23Z</time>
      </trkpt>
      <trkpt lat="50.13633" lon="4.08372">
        <ele>223.4</ele>
        <time>2024-04-26T06:08:24Z</time>
      </trkpt>
      <trkpt lat="50.1363" lon="4.0838">
        <ele>223.6</ele>
        <time>2024-04-26T06:08:25Z</time>
      </trkpt>
      <trkpt lat="50.13628" lon="4.08389">
        <ele>223.4</ele>
        <time>2024-04-26T06:08:26Z</time>
      </trkpt>
      <trkpt lat="50.13628" lon="4.08398">
        <ele>223.4</ele>
        <time>2024-04-26T06:08:27Z</time>
      </trkpt>
      <trkpt lat="50.13629" lon="4.08408">
        <ele>223.6</ele>
        <time>2024-04-26T06:08:28Z</time>
      </trkpt>
      <trkpt lat="50.1363" lon="4.08418">
        <ele>223.4</ele>
        <time>2024-04-26T06:08:29Z</time>
      </trkpt>
      <trkpt lat="50.1363" lon="4.08428">
        <ele>223.2</ele>
        <time>2024-04-26T06:08:30Z</time>
      </trkpt>
      <trkpt lat="50.13628" lon="4.08438">
        <ele>223.2</ele>
        <time>2024-04-26T06:08:31Z</time>
      </trkpt>
      <trkpt lat="50.13624" lon="4.08448">
        <ele>223</ele>
        <time>2024-04-26T06:08:32Z</time>
      </trkpt>
      <trkpt lat="50.1362" lon="4.08457">
        <ele>222.6</ele>
        <time>2024-04-26T06:08:33Z</time>
      </trkpt>
      <trkpt lat="50.13615" lon="4.08466">
        <ele>222.6</ele>
        <time>2024-04-26T06:08:34Z</time>
      </trkpt>
      <trkpt lat="50.1361" lon="4.08476">
        <ele>222.4</ele>
        <time>2024-04-26T06:08:35Z</time>
      </trkpt>
      <trkpt lat="50.13605" lon="4.08487">
        <ele>222.4</ele>
        <time>2024-04-26T06:08:36Z</time>
      </trkpt>
      <trkpt lat="50.13599" lon="4.08498">
        <ele>222.2</ele>
        <time>2024-04-26T06:08:37Z</time>
      </trkpt>
      <trkpt lat="50.13593" lon="4.08509">
        <ele>222</ele>
        <time>2024-04-26T06:08:38Z</time>
      </trkpt>
      <trkpt lat="50.13588" lon="4.08521">
        <ele>222</ele>
        <time>2024-04-26T06:08:39Z</time>
      </trkpt>
      <trkpt lat="50.13582" lon="4.08532">
        <ele>221.8</ele>
        <time>2024-04-26T06:08:40Z</time>
      </trkpt>
      <trkpt lat="50.13577" lon="4.08543">
        <ele>221.8</ele>
        <time>2024-04-26T06:08:41Z</time>
      </trkpt>
      <trkpt lat="50.13572" lon="4.08553">
        <ele>221.2</ele>
        <time>2024-04-26T06:08:42Z</time>
      </trkpt>
      <trkpt lat="50.13567" lon="4.08561">
        <ele>220.6</ele>
        <time>2024-04-26T06:08:43Z</time>
      </trkpt>
      <trkpt lat="50.13563" lon="4.08564">
        <ele>219.6</ele>
        <time>2024-04-26T06:08:44Z</time>
      </trkpt>
      <trkpt lat="50.13559" lon="4.08563">
        <ele>219.2</ele>
        <time>2024-04-26T06:08:45Z</time>
      </trkpt>
      <trkpt lat="50.13556" lon="4.08557">
        <ele>218.2</ele>
        <time>2024-04-26T06:08:46Z</time>
      </trkpt>
      <trkpt lat="50.13555" lon="4.0855">
        <ele>217.2</ele>
        <time>2024-04-26T06:08:47Z</time>
      </trkpt>
      <trkpt lat="50.13554" lon="4.08542">
        <ele>216.6</ele>
        <time>2024-04-26T06:08:48Z</time>
      </trkpt>
      <trkpt lat="50.13554" lon="4.08534">
        <ele>216</ele>
        <time>2024-04-26T06:08:49Z</time>
      </trkpt>
      <trkpt lat="50.13553" lon="4.08525">
        <ele>215.2</ele>
        <time>2024-04-26T06:08:50Z</time>
      </trkpt>
      <trkpt lat="50.13552" lon="4.08517">
        <ele>214.2</ele>
        <time>2024-04-26T06:08:51Z</time>
      </trkpt>
      <trkpt lat="50.13551" lon="4.08508">
        <ele>214</ele>
        <time>2024-04-26T06:08:52Z</time>
      </trkpt>
      <trkpt lat="50.1355" lon="4.085">
        <ele>213.8</ele>
        <time>2024-04-26T06:08:53Z</time>
      </trkpt>
      <trkpt lat="50.13548" lon="4.08492">
        <ele>213.8</ele>
        <time>2024-04-26T06:08:54Z</time>
      </trkpt>
      <trkpt lat="50.13546" lon="4.08485">
        <ele>213.8</ele>
        <time>2024-04-26T06:08:55Z</time>
      </trkpt>
      <trkpt lat="50.13543" lon="4.08479">
        <ele>213.8</ele>
        <time>2024-04-26T06:08:56Z</time>
      </trkpt>
      <trkpt lat="50.1354" lon="4.08475">
        <ele>213.8</ele>
        <time>2024-04-26T06:08:57Z</time>
      </trkpt>
      <trkpt lat="50.13537" lon="4.0847">
        <ele>213.6</ele>
        <time>2024-04-26T06:08:58Z</time>
      </trkpt>
      <trkpt lat="50.13533" lon="4.08466">
        <ele>213.8</ele>
        <time>2024-04-26T06:08:59Z</time>
      </trkpt>
      <trkpt lat="50.1353" lon="4.08463">
        <ele>213.6</ele>
        <time>2024-04-26T06:09:00Z</time>
      </trkpt>
      <trkpt lat="50.13527" lon="4.0846">
        <ele>213.6</ele>
        <time>2024-04-26T06:09:01Z</time>
      </trkpt>
      <trkpt lat="50.13526" lon="4.08457">
        <ele>214</ele>
        <time>2024-04-26T06:09:02Z</time>
      </trkpt>
      <trkpt lat="50.13525" lon="4.08454">
        <ele>214.2</ele>
        <time>2024-04-26T06:09:03Z</time>
      </trkpt>
      <trkpt lat="50.13525" lon="4.08453">
        <ele>214.6</ele>
        <time>2024-04-26T06:09:04Z</time>
      </trkpt>
      <trkpt lat="50.13524" lon="4.08452">
        <ele>214.8</ele>
        <time>2024-04-26T06:09:05Z</time>
      </trkpt>
      <trkpt lat="50.13524" lon="4.08451">
        <ele>215.4</ele>
        <time>2024-04-26T06:09:06Z</time>
      </trkpt>
      <trkpt lat="50.13524" lon="4.08451">
        <ele>216</ele>
        <time>2024-04-26T06:09:07Z</time>
      </trkpt>
      <trkpt lat="50.13524" lon="4.08451">
        <ele>216.6</ele>
        <time>2024-04-26T06:09:08Z</time>
      </trkpt>
      <trkpt lat="50.13525" lon="4.08449">
        <ele>216.8</ele>
        <time>2024-04-26T06:09:09Z</time>
      </trkpt>
      <trkpt lat="50.13526" lon="4.08448">
        <ele>217</ele>
        <time>2024-04-26T06:09:10Z</time>
      </trkpt>
      <trkpt lat="50.13527" lon="4.08448">
        <ele>217</ele>
        <time>2024-04-26T06:09:11Z</time>
      </trkpt>
      <trkpt lat="50.13527" lon="4.08447">
        <ele>217.2</ele>
        <time>2024-04-26T06:09:12Z</time>
      </trkpt>
      <trkpt lat="50.13527" lon="4.08446">
        <ele>217.2</ele>
        <time>2024-04-26T06:09:13Z</time>
      </trkpt>
      <trkpt lat="50.13527" lon="4.08445">
        <ele>217.2</ele>
        <time>2024-04-26T06:09:14Z</time>
      </trkpt>
      <trkpt lat="50.13526" lon="4.08444">
        <ele>217.2</ele>
        <time>2024-04-26T06:09:15Z</time>
      </trkpt>
      <trkpt lat="50.13524" lon="4.08444">
        <ele>217.2</ele>
        <time>2024-04-26T06:09:16Z</time>
      </trkpt>
      <trkpt lat="50.13524" lon="4.08444">
        <ele>217.2</ele>
        <time>2024-04-26T06:09:17Z</time>
      </trkpt>
      <trkpt lat="50.13523" lon="4.08444">
        <ele>217.2</ele>
        <time>2024-04-26T06:09:18Z</time>
      </trkpt>
      <trkpt lat="50.13523" lon="4.08444">
        <ele>217.2</ele>
        <time>2024-04-26T06:09:19Z</time>
      </trkpt>
      <trkpt lat="50.13522" lon="4.08444">
        <ele>217.2</ele>
        <time>2024-04-26T06:09:20Z</time>
      </trkpt>
      <trkpt lat="50.13522" lon="4.08443">
        <ele>217.2</ele>
        <time>2024-04-26T06:09:21Z</time>
      </trkpt>
      <trkpt lat="50.13522" lon="4.08443">
        <ele>217.2</ele>
        <time>2024-04-26T06:09:22Z</time>
      </trkpt>
      <trkpt lat="50.13507" lon="4.08459">
        <ele>217.2</ele>
        <time>2024-04-26T06:10:45Z</time>
      </trkpt>
      <trkpt lat="50.13506" lon="4.08459">
        <ele>217.2</ele>
        <time>2024-04-26T06:10:46Z</time>
      </trkpt>
      <trkpt lat="50.13504" lon="4.08459">
        <ele>217</ele>
        <time>2024-04-26T06:10:47Z</time>
      </trkpt>
      <trkpt lat="50.13502" lon="4.08459">
        <ele>217</ele>
        <time>2024-04-26T06:10:48Z</time>
      </trkpt>
      <trkpt lat="50.13501" lon="4.0846">
        <ele>217</ele>
        <time>2024-04-26T06:10:49Z</time>
      </trkpt>
      <trkpt lat="50.13497" lon="4.0846">
        <ele>217</ele>
        <time>2024-04-26T06:10:50Z</time>
      </trkpt>
      <trkpt lat="50.13535" lon="4.08469">
        <ele>220.8</ele>
        <time>2024-04-26T14:20:49Z</time>
      </trkpt>
      <trkpt lat="50.13537" lon="4.08472">
        <ele>222.4</ele>
        <time>2024-04-26T14:20:50Z</time>
      </trkpt>
      <trkpt lat="50.13545" lon="4.08476">
        <ele>222.2</ele>
        <time>2024-04-26T14:20:51Z</time>
      </trkpt>
      <trkpt lat="50.13549" lon="4.08478">
        <ele>222.2</ele>
        <time>2024-04-26T14:20:52Z</time>
      </trkpt>
      <trkpt lat="50.13552" lon="4.08482">
        <ele>222</ele>
        <time>2024-04-26T14:20:53Z</time>
      </trkpt>
      <trkpt lat="50.13553" lon="4.08487">
        <ele>221.6</ele>
        <time>2024-04-26T14:20:54Z</time>
      </trkpt>
      <trkpt lat="50.13554" lon="4.08495">
        <ele>221.6</ele>
        <time>2024-04-26T14:20:55Z</time>
      </trkpt>
      <trkpt lat="50.13554" lon="4.08503">
        <ele>221</ele>
        <time>2024-04-26T14:20:56Z</time>
      </trkpt>
      <trkpt lat="50.13554" lon="4.08512">
        <ele>220.4</ele>
        <time>2024-04-26T14:20:57Z</time>
      </trkpt>
      <trkpt lat="50.13555" lon="4.08521">
        <ele>219.8</ele>
        <time>2024-04-26T14:20:58Z</time>
      </trkpt>
      <trkpt lat="50.13556" lon="4.0853">
        <ele>219.2</ele>
        <time>2024-04-26T14:20:59Z</time>
      </trkpt>
      <trkpt lat="50.13556" lon="4.08539">
        <ele>218.8</ele>
        <time>2024-04-26T14:21:00Z</time>
      </trkpt>
      <trkpt lat="50.13557" lon="4.08549">
        <ele>218.2</ele>
        <time>2024-04-26T14:21:01Z</time>
      </trkpt>
      <trkpt lat="50.13559" lon="4.08559">
        <ele>218.2</ele>
        <time>2024-04-26T14:21:02Z</time>
      </trkpt>
      <trkpt lat="50.1356" lon="4.08568">
        <ele>218</ele>
        <time>2024-04-26T14:21:03Z</time>
      </trkpt>
      <trkpt lat="50.13561" lon="4.08576">
        <ele>218</ele>
        <time>2024-04-26T14:21:04Z</time>
      </trkpt>
      <trkpt lat="50.13563" lon="4.08583">
        <ele>218</ele>
        <time>2024-04-26T14:21:05Z</time>
      </trkpt>
      <trkpt lat="50.13565" lon="4.08586">
        <ele>218</ele>
        <time>2024-04-26T14:21:06Z</time>
      </trkpt>
      <trkpt lat="50.13567" lon="4.08586">
        <ele>218</ele>
        <time>2024-04-26T14:21:07Z</time>
      </trkpt>
      <trkpt lat="50.1357" lon="4.08584">
        <ele>218.4</ele>
        <time>2024-04-26T14:21:08Z</time>
      </trkpt>
      <trkpt lat="50.13572" lon="4.0858">
        <ele>218.4</ele>
        <time>2024-04-26T14:21:09Z</time>
      </trkpt>
      <trkpt lat="50.13574" lon="4.08575">
        <ele>218.4</ele>
        <time>2024-04-26T14:21:10Z</time>
      </trkpt>
      <trkpt lat="50.13576" lon="4.08571">
        <ele>218.4</ele>
        <time>2024-04-26T14:21:11Z</time>
      </trkpt>
      <trkpt lat="50.13578" lon="4.08567">
        <ele>218.2</ele>
        <time>2024-04-26T14:21:12Z</time>
      </trkpt>
      <trkpt lat="50.1358" lon="4.08562">
        <ele>218.4</ele>
        <time>2024-04-26T14:21:13Z</time>
      </trkpt>
      <trkpt lat="50.13582" lon="4.08558">
        <ele>218.4</ele>
        <time>2024-04-26T14:21:14Z</time>
      </trkpt>
      <trkpt lat="50.13585" lon="4.08555">
        <ele>218.4</ele>
        <time>2024-04-26T14:21:15Z</time>
      </trkpt>
      <trkpt lat="50.13587" lon="4.08551">
        <ele>218.4</ele>
        <time>2024-04-26T14:21:16Z</time>
      </trkpt>
      <trkpt lat="50.13589" lon="4.08547">
        <ele>218.4</ele>
        <time>2024-04-26T14:21:17Z</time>
      </trkpt>
      <trkpt lat="50.13591" lon="4.08543">
        <ele>218.4</ele>
        <time>2024-04-26T14:21:18Z</time>
      </trkpt>
      <trkpt lat="50.13593" lon="4.08538">
        <ele>218.2</ele>
        <time>2024-04-26T14:21:19Z</time>
      </trkpt>
      <trkpt lat="50.13596" lon="4.08534">
        <ele>218.4</ele>
        <time>2024-04-26T14:21:20Z</time>
      </trkpt>
      <trkpt lat="50.13598" lon="4.0853">
        <ele>218.8</ele>
        <time>2024-04-26T14:21:21Z</time>
      </trkpt>
      <trkpt lat="50.13601" lon="4.08526">
        <ele>219</ele>
        <time>2024-04-26T14:21:22Z</time>
      </trkpt>
      <trkpt lat="50.13603" lon="4.08521">
        <ele>219.4</ele>
        <time>2024-04-26T14:21:23Z</time>
      </trkpt>
      <trkpt lat="50.13605" lon="4.08517">
        <ele>219.6</ele>
        <time>2024-04-26T14:21:24Z</time>
      </trkpt>
      <trkpt lat="50.13608" lon="4.08513">
        <ele>219.8</ele>
        <time>2024-04-26T14:21:25Z</time>
      </trkpt>
      <trkpt lat="50.1361" lon="4.08509">
        <ele>220.2</ele>
        <time>2024-04-26T14:21:26Z</time>
      </trkpt>
      <trkpt lat="50.13612" lon="4.08505">
        <ele>220.4</ele>
        <time>2024-04-26T14:21:27Z</time>
      </trkpt>
      <trkpt lat="50.13615" lon="4.08501">
        <ele>220.6</ele>
        <time>2024-04-26T14:21:28Z</time>
      </trkpt>
      <trkpt lat="50.13617" lon="4.08497">
        <ele>220.8</ele>
        <time>2024-04-26T14:21:29Z</time>
      </trkpt>
      <trkpt lat="50.13619" lon="4.08493">
        <ele>221.2</ele>
        <time>2024-04-26T14:21:30Z</time>
      </trkpt>
      <trkpt lat="50.13621" lon="4.08488">
        <ele>221.6</ele>
        <time>2024-04-26T14:21:31Z</time>
      </trkpt>
      <trkpt lat="50.13623" lon="4.08484">
        <ele>221.8</ele>
        <time>2024-04-26T14:21:32Z</time>
      </trkpt>
      <trkpt lat="50.13624" lon="4.08479">
        <ele>222.2</ele>
        <time>2024-04-26T14:21:33Z</time>
      </trkpt>
      <trkpt lat="50.13626" lon="4.08475">
        <ele>222.4</ele>
        <time>2024-04-26T14:21:34Z</time>
      </trkpt>
      <trkpt lat="50.13627" lon="4.0847">
        <ele>223</ele>
        <time>2024-04-26T14:21:35Z</time>
      </trkpt>
      <trkpt lat="50.13628" lon="4.08465">
        <ele>223.2</ele>
        <time>2024-04-26T14:21:36Z</time>
      </trkpt>
      <trkpt lat="50.13629" lon="4.0846">
        <ele>223.4</ele>
        <time>2024-04-26T14:21:37Z</time>
      </trkpt>
      <trkpt lat="50.13631" lon="4.08455">
        <ele>223.4</ele>
        <time>2024-04-26T14:21:38Z</time>
      </trkpt>
      <trkpt lat="50.13633" lon="4.08449">
        <ele>223.6</ele>
        <time>2024-04-26T14:21:39Z</time>
      </trkpt>
      <trkpt lat="50.13634" lon="4.08443">
        <ele>224</ele>
        <time>2024-04-26T14:21:40Z</time>
      </trkpt>
      <trkpt lat="50.13636" lon="4.08438">
        <ele>224</ele>
        <time>2024-04-26T14:21:41Z</time>
      </trkpt>
      <trkpt lat="50.13637" lon="4.08433">
        <ele>224.6</ele>
        <time>2024-04-26T14:21:42Z</time>
      </trkpt>
      <trkpt lat="50.1364" lon="4.08429">
        <ele>225.2</ele>
        <time>2024-04-26T14:21:43Z</time>
      </trkpt>
      <trkpt lat="50.13642" lon="4.08427">
        <ele>225.6</ele>
        <time>2024-04-26T14:21:44Z</time>
      </trkpt>
      <trkpt lat="50.13645" lon="4.08426">
        <ele>226</ele>
        <time>2024-04-26T14:21:45Z</time>
      </trkpt>
      <trkpt lat="50.13647" lon="4.08425">
        <ele>226.2</ele>
        <time>2024-04-26T14:21:46Z</time>
      </trkpt>
      <trkpt lat="50.13648" lon="4.08424">
        <ele>226.6</ele>
        <time>2024-04-26T14:21:47Z</time>
      </trkpt>
      <trkpt lat="50.1365" lon="4.08423">
        <ele>226.6</ele>
        <time>2024-04-26T14:21:48Z</time>
      </trkpt>
      <trkpt lat="50.13651" lon="4.08423">
        <ele>226.8</ele>
        <time>2024-04-26T14:21:49Z</time>
      </trkpt>
      <trkpt lat="50.13652" lon="4.08423">
        <ele>226.8</ele>
        <time>2024-04-26T14:21:50Z</time>
      </trkpt>
      <trkpt lat="50.13653" lon="4.08423">
        <ele>227.4</ele>
        <time>2024-04-26T14:21:51Z</time>
      </trkpt>
      <trkpt lat="50.13653" lon="4.08424">
        <ele>227.6</ele>
        <time>2024-04-26T14:21:52Z</time>
      </trkpt>
      <trkpt lat="50.13653" lon="4.08424">
        <ele>228.2</ele>
        <time>2024-04-26T14:21:53Z</time>
      </trkpt>
      <trkpt lat="50.13654" lon="4.08424">
        <ele>228.2</ele>
        <time>2024-04-26T14:21:54Z</time>
      </trkpt>
      <trkpt lat="50.13654" lon="4.08424">
        <ele>228.6</ele>
        <time>2024-04-26T14:21:55Z</time>
      </trkpt>
      <trkpt lat="50.13649" lon="4.08404">
        <ele>230</ele>
        <time>2024-04-26T14:41:24Z</time>
      </trkpt>
      <trkpt lat="50.1365" lon="4.08403">
        <ele>230.2</ele>
        <time>2024-04-26T14:41:25Z</time>
      </trkpt>
      <trkpt lat="50.13652" lon="4.08402">
        <ele>230.2</ele>
        <time>2024-04-26T14:41:26Z</time>
      </trkpt>
      <trkpt lat="50.13654" lon="4.084">
        <ele>230.2</ele>
        <time>2024-04-26T14:41:27Z</time>
      </trkpt>
      <trkpt lat="50.13655" lon="4.08397">
        <ele>230</ele>
        <time>2024-04-26T14:41:28Z</time>
      </trkpt>
      <trkpt lat="50.13656" lon="4.08394">
        <ele>230.2</ele>
        <time>2024-04-26T14:41:29Z</time>
      </trkpt>
      <trkpt lat="50.13657" lon="4.0839">
        <ele>230.2</ele>
        <time>2024-04-26T14:41:30Z</time>
      </trkpt>
      <trkpt lat="50.13657" lon="4.08386">
        <ele>230.2</ele>
        <time>2024-04-26T14:41:31Z</time>
      </trkpt>
      <trkpt lat="50.13656" lon="4.08382">
        <ele>230.2</ele>
        <time>2024-04-26T14:41:32Z</time>
      </trkpt>
      <trkpt lat="50.13655" lon="4.08378">
        <ele>230.2</ele>
        <time>2024-04-26T14:41:33Z</time>
      </trkpt>
      <trkpt lat="50.13654" lon="4.08373">
        <ele>230</ele>
        <time>2024-04-26T14:41:34Z</time>
      </trkpt>
      <trkpt lat="50.13653" lon="4.08369">
        <ele>230.2</ele>
        <time>2024-04-26T14:41:35Z</time>
      </trkpt>
      <trkpt lat="50.13651" lon="4.08366">
        <ele>230</ele>
        <time>2024-04-26T14:41:36Z</time>
      </trkpt>
      <trkpt lat="50.13649" lon="4.08363">
        <ele>230</ele>
        <time>2024-04-26T14:41:37Z</time>
      </trkpt>
      <trkpt lat="50.13647" lon="4.0836">
        <ele>230</ele>
        <time>2024-04-26T14:41:38Z</time>
      </trkpt>
      <trkpt lat="50.13644" lon="4.08358">
        <ele>230</ele>
        <time>2024-04-26T14:41:39Z</time>
      </trkpt>
      <trkpt lat="50.13642" lon="4.08355">
        <ele>230</ele>
        <time>2024-04-26T14:41:40Z</time>
      </trkpt>
      <trkpt lat="50.13639" lon="4.08353">
        <ele>230.2</ele>
        <time>2024-04-26T14:41:41Z</time>
      </trkpt>
      <trkpt lat="50.13638" lon="4.08349">
        <ele>230.2</ele>
        <time>2024-04-26T14:41:42Z</time>
      </trkpt>
      <trkpt lat="50.13636" lon="4.08344">
        <ele>230.2</ele>
        <time>2024-04-26T14:41:43Z</time>
      </trkpt>
      <trkpt lat="50.13635" lon="4.08339">
        <ele>230.2</ele>
        <time>2024-04-26T14:41:44Z</time>
      </trkpt>
      <trkpt lat="50.13635" lon="4.08333">
        <ele>230</ele>
        <time>2024-04-26T14:41:45Z</time>
      </trkpt>
      <trkpt lat="50.13634" lon="4.08328">
        <ele>230.2</ele>
        <time>2024-04-26T14:41:46Z</time>
      </trkpt>
      <trkpt lat="50.13633" lon="4.08322">
        <ele>230.2</ele>
        <time>2024-04-26T14:41:47Z</time>
      </trkpt>
      <trkpt lat="50.13633" lon="4.08316">
        <ele>230.4</ele>
        <time>2024-04-26T14:41:48Z</time>
      </trkpt>
      <trkpt lat="50.13632" lon="4.08311">
        <ele>230.6</ele>
        <time>2024-04-26T14:41:49Z</time>
      </trkpt>
      <trkpt lat="50.13631" lon="4.08305">
        <ele>230.8</ele>
        <time>2024-04-26T14:41:50Z</time>
      </trkpt>
      <trkpt lat="50.13631" lon="4.083">
        <ele>230.8</ele>
        <time>2024-04-26T14:41:51Z</time>
      </trkpt>
      <trkpt lat="50.13629" lon="4.08295">
        <ele>231</ele>
        <time>2024-04-26T14:41:52Z</time>
      </trkpt>
      <trkpt lat="50.13627" lon="4.0829">
        <ele>231</ele>
        <time>2024-04-26T14:41:53Z</time>
      </trkpt>
      <trkpt lat="50.13624" lon="4.08286">
        <ele>231</ele>
        <time>2024-04-26T14:41:54Z</time>
      </trkpt>
      <trkpt lat="50.1362" lon="4.08285">
        <ele>231.2</ele>
        <time>2024-04-26T14:41:55Z</time>
      </trkpt>
      <trkpt lat="50.13616" lon="4.08285">
        <ele>231.2</ele>
        <time>2024-04-26T14:41:56Z</time>
      </trkpt>
      <trkpt lat="50.13611" lon="4.08286">
        <ele>231.2</ele>
        <time>2024-04-26T14:41:57Z</time>
      </trkpt>
      <trkpt lat="50.13606" lon="4.08287">
        <ele>231.2</ele>
        <time>2024-04-26T14:41:58Z</time>
      </trkpt>
      <trkpt lat="50.136" lon="4.08287">
        <ele>231.2</ele>
        <time>2024-04-26T14:41:59Z</time>
      </trkpt>
      <trkpt lat="50.13595" lon="4.08288">
        <ele>231.2</ele>
        <time>2024-04-26T14:42:00Z</time>
      </trkpt>
      <trkpt lat="50.1359" lon="4.0829">
        <ele>231.4</ele>
        <time>2024-04-26T14:42:01Z</time>
      </trkpt>
      <trkpt lat="50.13584" lon="4.08291">
        <ele>231.2</ele>
        <time>2024-04-26T14:42:02Z</time>
      </trkpt>
      <trkpt lat="50.13579" lon="4.08293">
        <ele>231.2</ele>
        <time>2024-04-26T14:42:03Z</time>
      </trkpt>
      <trkpt lat="50.13573" lon="4.08294">
        <ele>231.2</ele>
        <time>2024-04-26T14:42:04Z</time>
      </trkpt>
      <trkpt lat="50.13567" lon="4.08295">
        <ele>231.4</ele>
        <time>2024-04-26T14:42:05Z</time>
      </trkpt>
      <trkpt lat="50.13561" lon="4.08297">
        <ele>231</ele>
        <time>2024-04-26T14:42:06Z</time>
      </trkpt>
      <trkpt lat="50.13554" lon="4.08299">
        <ele>231</ele>
        <time>2024-04-26T14:42:07Z</time>
      </trkpt>
      <trkpt lat="50.13548" lon="4.08301">
        <ele>231</ele>
        <time>2024-04-26T14:42:08Z</time>
      </trkpt>
      <trkpt lat="50.13541" lon="4.08303">
        <ele>230.6</ele>
        <time>2024-04-26T14:42:09Z</time>
      </trkpt>
      <trkpt lat="50.13535" lon="4.08304">
        <ele>230.6</ele>
        <time>2024-04-26T14:42:10Z</time>
      </trkpt>
      <trkpt lat="50.13528" lon="4.08306">
        <ele>230.2</ele>
        <time>2024-04-26T14:42:11Z</time>
      </trkpt>
      <trkpt lat="50.13521" lon="4.08308">
        <ele>230</ele>
        <time>2024-04-26T14:42:12Z</time>
      </trkpt>
      <trkpt lat="50.13514" lon="4.08311">
        <ele>229.8</ele>
        <time>2024-04-26T14:42:13Z</time>
      </trkpt>
      <trkpt lat="50.13507" lon="4.08313">
        <ele>229.6</ele>
        <time>2024-04-26T14:42:14Z</time>
      </trkpt>
      <trkpt lat="50.135" lon="4.08315">
        <ele>229.6</ele>
        <time>2024-04-26T14:42:15Z</time>
      </trkpt>
      <trkpt lat="50.13492" lon="4.08317">
        <ele>229.4</ele>
        <time>2024-04-26T14:42:16Z</time>
      </trkpt>
      <trkpt lat="50.13484" lon="4.0832">
        <ele>229</ele>
        <time>2024-04-26T14:42:17Z</time>
      </trkpt>
      <trkpt lat="50.13476" lon="4.08323">
        <ele>228.8</ele>
        <time>2024-04-26T14:42:18Z</time>
      </trkpt>
      <trkpt lat="50.13469" lon="4.08325">
        <ele>228.4</ele>
        <time>2024-04-26T14:42:19Z</time>
      </trkpt>
      <trkpt lat="50.13461" lon="4.08327">
        <ele>227.8</ele>
        <time>2024-04-26T14:42:20Z</time>
      </trkpt>
      <trkpt lat="50.13453" lon="4.0833">
        <ele>227.2</ele>
        <time>2024-04-26T14:42:21Z</time>
      </trkpt>
      <trkpt lat="50.13446" lon="4.08333">
        <ele>227.2</ele>
        <time>2024-04-26T14:42:22Z</time>
      </trkpt>
      <trkpt lat="50.13439" lon="4.08335">
        <ele>226.8</ele>
        <time>2024-04-26T14:42:23Z</time>
      </trkpt>
      <trkpt lat="50.13431" lon="4.08338">
        <ele>226.6</ele>
        <time>2024-04-26T14:42:24Z</time>
      </trkpt>
      <trkpt lat="50.13424" lon="4.0834">
        <ele>226.4</ele>
        <time>2024-04-26T14:42:25Z</time>
      </trkpt>
      <trkpt lat="50.13417" lon="4.08343">
        <ele>226.4</ele>
        <time>2024-04-26T14:42:26Z</time>
      </trkpt>
      <trkpt lat="50.1341" lon="4.08345">
        <ele>225.8</ele>
        <time>2024-04-26T14:42:27Z</time>
      </trkpt>
      <trkpt lat="50.13403" lon="4.08348">
        <ele>225.6</ele>
        <time>2024-04-26T14:42:28Z</time>
      </trkpt>
      <trkpt lat="50.13396" lon="4.0835">
        <ele>225.4</ele>
        <time>2024-04-26T14:42:29Z</time>
      </trkpt>
      <trkpt lat="50.1339" lon="4.08352">
        <ele>225.4</ele>
        <time>2024-04-26T14:42:30Z</time>
      </trkpt>
      <trkpt lat="50.13383" lon="4.08354">
        <ele>225.2</ele>
        <time>2024-04-26T14:42:31Z</time>
      </trkpt>
      <trkpt lat="50.13377" lon="4.08356">
        <ele>225.2</ele>
        <time>2024-04-26T14:42:32Z</time>
      </trkpt>
      <trkpt lat="50.13371" lon="4.08358">
        <ele>225.4</ele>
        <time>2024-04-26T14:42:33Z</time>
      </trkpt>
      <trkpt lat="50.13364" lon="4.08359">
        <ele>225.4</ele>
        <time>2024-04-26T14:42:34Z</time>
      </trkpt>
      <trkpt lat="50.13358" lon="4.0836">
        <ele>225.4</ele>
        <time>2024-04-26T14:42:35Z</time>
      </trkpt>
      <trkpt lat="50.13352" lon="4.08361">
        <ele>225.4</ele>
        <time>2024-04-26T14:42:36Z</time>
      </trkpt>
      <trkpt lat="50.13346" lon="4.08361">
        <ele>225.2</ele>
        <time>2024-04-26T14:42:37Z</time>
      </trkpt>
      <trkpt lat="50.1334" lon="4.08361">
        <ele>225.4</ele>
        <time>2024-04-26T14:42:38Z</time>
      </trkpt>
      <trkpt lat="50.13334" lon="4.0836">
        <ele>225.2</ele>
        <time>2024-04-26T14:42:39Z</time>
      </trkpt>
      <trkpt lat="50.13327" lon="4.08359">
        <ele>225.6</ele>
        <time>2024-04-26T14:42:40Z</time>
      </trkpt>
      <trkpt lat="50.13321" lon="4.08358">
        <ele>225.8</ele>
        <time>2024-04-26T14:42:41Z</time>
      </trkpt>
      <trkpt lat="50.13314" lon="4.08357">
        <ele>225.6</ele>
        <time>2024-04-26T14:42:42Z</time>
      </trkpt>
      <trkpt lat="50.13308" lon="4.08355">
        <ele>225.8</ele>
        <time>2024-04-26T14:42:43Z</time>
      </trkpt>
      <trkpt lat="50.13301" lon="4.08354">
        <ele>225.8</ele>
        <time>2024-04-26T14:42:44Z</time>
      </trkpt>
      <trkpt lat="50.13294" lon="4.08352">
        <ele>225.8</ele>
        <time>2024-04-26T14:42:45Z</time>
      </trkpt>
      <trkpt lat="50.13288" lon="4.0835">
        <ele>225.8</ele>
        <time>2024-04-26T14:42:46Z</time>
      </trkpt>
      <trkpt lat="50.13281" lon="4.08348">
        <ele>225.8</ele>
        <time>2024-04-26T14:42:47Z</time>
      </trkpt>
      <trkpt lat="50.13275" lon="4.08346">
        <ele>225.8</ele>
        <time>2024-04-26T14:42:48Z</time>
      </trkpt>
      <trkpt lat="50.13268" lon="4.08345">
        <ele>225.8</ele>
        <time>2024-04-26T14:42:49Z</time>
      </trkpt>
      <trkpt lat="50.13261" lon="4.08343">
        <ele>225.6</ele>
        <time>2024-04-26T14:42:50Z</time>
      </trkpt>
      <trkpt lat="50.13255" lon="4.08341">
        <ele>225.6</ele>
        <time>2024-04-26T14:42:51Z</time>
      </trkpt>
      <trkpt lat="50.13248" lon="4.0834">
        <ele>225.6</ele>
        <time>2024-04-26T14:42:52Z</time>
      </trkpt>
      <trkpt lat="50.13241" lon="4.08338">
        <ele>225.2</ele>
        <time>2024-04-26T14:42:53Z</time>
      </trkpt>
      <trkpt lat="50.13235" lon="4.08336">
        <ele>225.2</ele>
        <time>2024-04-26T14:42:54Z</time>
      </trkpt>
      <trkpt lat="50.1323" lon="4.08335">
        <ele>225</ele>
        <time>2024-04-26T14:42:55Z</time>
      </trkpt>
      <trkpt lat="50.13225" lon="4.08333">
        <ele>224.6</ele>
        <time>2024-04-26T14:42:56Z</time>
      </trkpt>
      <trkpt lat="50.13221" lon="4.08331">
        <ele>224.4</ele>
        <time>2024-04-26T14:42:57Z</time>
      </trkpt>
      <trkpt lat="50.13218" lon="4.0833">
        <ele>224.4</ele>
        <time>2024-04-26T14:42:58Z</time>
      </trkpt>
      <trkpt lat="50.13215" lon="4.08328">
        <ele>224.2</ele>
        <time>2024-04-26T14:42:59Z</time>
      </trkpt>
      <trkpt lat="50.13215" lon="4.08328">
        <ele>224</ele>
        <time>2024-04-26T14:43:00Z</time>
      </trkpt>
      <trkpt lat="50.13214" lon="4.08328">
        <ele>224</ele>
        <time>2024-04-26T14:43:01Z</time>
      </trkpt>
      <trkpt lat="50.13215" lon="4.08328">
        <ele>224.2</ele>
        <time>2024-04-26T14:43:02Z</time>
      </trkpt>
      <trkpt lat="50.13215" lon="4.08328">
        <ele>224.2</ele>
        <time>2024-04-26T14:43:03Z</time>
      </trkpt>
      <trkpt lat="50.13215" lon="4.08327">
        <ele>224.2</ele>
        <time>2024-04-26T14:43:04Z</time>
      </trkpt>
      <trkpt lat="50.13213" lon="4.08328">
        <ele>224.2</ele>
        <time>2024-04-26T14:43:57Z</time>
      </trkpt>
      <trkpt lat="50.13211" lon="4.08329">
        <ele>224</ele>
        <time>2024-04-26T14:43:58Z</time>
      </trkpt>
      <trkpt lat="50.13209" lon="4.08328">
        <ele>224.2</ele>
        <time>2024-04-26T14:43:59Z</time>
      </trkpt>
      <trkpt lat="50.13206" lon="4.08328">
        <ele>224.2</ele>
        <time>2024-04-26T14:44:00Z</time>
      </trkpt>
      <trkpt lat="50.13202" lon="4.08326">
        <ele>224.2</ele>
        <time>2024-04-26T14:44:01Z</time>
      </trkpt>
      <trkpt lat="50.13198" lon="4.08325">
        <ele>224</ele>
        <time>2024-04-26T14:44:02Z</time>
      </trkpt>
      <trkpt lat="50.13193" lon="4.08323">
        <ele>224.2</ele>
        <time>2024-04-26T14:44:03Z</time>
      </trkpt>
      <trkpt lat="50.13188" lon="4.08322">
        <ele>224.2</ele>
        <time>2024-04-26T14:44:04Z</time>
      </trkpt>
      <trkpt lat="50.13182" lon="4.08321">
        <ele>224.2</ele>
        <time>2024-04-26T14:44:05Z</time>
      </trkpt>
      <trkpt lat="50.13176" lon="4.08319">
        <ele>224</ele>
        <time>2024-04-26T14:44:06Z</time>
      </trkpt>
      <trkpt lat="50.1317" lon="4.08317">
        <ele>223.8</ele>
        <time>2024-04-26T14:44:07Z</time>
      </trkpt>
      <trkpt lat="50.13163" lon="4.08316">
        <ele>223.8</ele>
        <time>2024-04-26T14:44:08Z</time>
      </trkpt>
      <trkpt lat="50.13156" lon="4.08315">
        <ele>223.6</ele>
        <time>2024-04-26T14:44:09Z</time>
      </trkpt>
      <trkpt lat="50.13148" lon="4.08316">
        <ele>223.4</ele>
        <time>2024-04-26T14:44:10Z</time>
      </trkpt>
      <trkpt lat="50.1314" lon="4.08317">
        <ele>222.8</ele>
        <time>2024-04-26T14:44:11Z</time>
      </trkpt>
      <trkpt lat="50.13132" lon="4.08318">
        <ele>222.6</ele>
        <time>2024-04-26T14:44:12Z</time>
      </trkpt>
      <trkpt lat="50.13124" lon="4.08321">
        <ele>221.6</ele>
        <time>2024-04-26T14:44:13Z</time>
      </trkpt>
      <trkpt lat="50.13115" lon="4.08325">
        <ele>221</ele>
        <time>2024-04-26T14:44:14Z</time>
      </trkpt>
      <trkpt lat="50.13107" lon="4.0833">
        <ele>220.6</ele>
        <time>2024-04-26T14:44:15Z</time>
      </trkpt>
      <trkpt lat="50.13099" lon="4.08336">
        <ele>219.8</ele>
        <time>2024-04-26T14:44:16Z</time>
      </trkpt>
      <trkpt lat="50.1309" lon="4.08342">
        <ele>219.4</ele>
        <time>2024-04-26T14:44:17Z</time>
      </trkpt>
      <trkpt lat="50.13082" lon="4.08349">
        <ele>219.2</ele>
        <time>2024-04-26T14:44:18Z</time>
      </trkpt>
      <trkpt lat="50.13073" lon="4.08356">
        <ele>218.6</ele>
        <time>2024-04-26T14:44:19Z</time>
      </trkpt>
      <trkpt lat="50.13064" lon="4.08363">
        <ele>218.6</ele>
        <time>2024-04-26T14:44:20Z</time>
      </trkpt>
      <trkpt lat="50.13055" lon="4.08371">
        <ele>218.2</ele>
        <time>2024-04-26T14:44:21Z</time>
      </trkpt>
      <trkpt lat="50.13046" lon="4.08378">
        <ele>217.6</ele>
        <time>2024-04-26T14:44:22Z</time>
      </trkpt>
      <trkpt lat="50.13037" lon="4.08385">
        <ele>217</ele>
        <time>2024-04-26T14:44:23Z</time>
      </trkpt>
      <trkpt lat="50.13027" lon="4.08393">
        <ele>216</ele>
        <time>2024-04-26T14:44:24Z</time>
      </trkpt>
      <trkpt lat="50.13018" lon="4.08401">
        <ele>215.2</ele>
        <time>2024-04-26T14:44:25Z</time>
      </trkpt>
      <trkpt lat="50.13008" lon="4.08408">
        <ele>214.8</ele>
        <time>2024-04-26T14:44:26Z</time>
      </trkpt>
      <trkpt lat="50.12997" lon="4.08414">
        <ele>214.4</ele>
        <time>2024-04-26T14:44:27Z</time>
      </trkpt>
      <trkpt lat="50.12986" lon="4.08417">
        <ele>213.4</ele>
        <time>2024-04-26T14:44:28Z</time>
      </trkpt>
      <trkpt lat="50.12974" lon="4.08416">
        <ele>213</ele>
        <time>2024-04-26T14:44:29Z</time>
      </trkpt>
      <trkpt lat="50.12963" lon="4.08413">
        <ele>212.2</ele>
        <time>2024-04-26T14:44:30Z</time>
      </trkpt>
      <trkpt lat="50.12952" lon="4.08406">
        <ele>211.4</ele>
        <time>2024-04-26T14:44:31Z</time>
      </trkpt>
      <trkpt lat="50.12941" lon="4.08397">
        <ele>210.6</ele>
        <time>2024-04-26T14:44:32Z</time>
      </trkpt>
      <trkpt lat="50.12931" lon="4.08386">
        <ele>209.6</ele>
        <time>2024-04-26T14:44:33Z</time>
      </trkpt>
      <trkpt lat="50.12921" lon="4.08375">
        <ele>208.6</ele>
        <time>2024-04-26T14:44:34Z</time>
      </trkpt>
      <trkpt lat="50.12911" lon="4.08364">
        <ele>207.4</ele>
        <time>2024-04-26T14:44:35Z</time>
      </trkpt>
      <trkpt lat="50.12901" lon="4.08353">
        <ele>206.6</ele>
        <time>2024-04-26T14:44:36Z</time>
      </trkpt>
      <trkpt lat="50.1289" lon="4.08343">
        <ele>206.2</ele>
        <time>2024-04-26T14:44:37Z</time>
      </trkpt>
      <trkpt lat="50.1288" lon="4.08332">
        <ele>204.6</ele>
        <time>2024-04-26T14:44:38Z</time>
      </trkpt>
      <trkpt lat="50.12869" lon="4.08321">
        <ele>203.2</ele>
        <time>2024-04-26T14:44:39Z</time>
      </trkpt>
      <trkpt lat="50.12858" lon="4.08311">
        <ele>202.6</ele>
        <time>2024-04-26T14:44:40Z</time>
      </trkpt>
      <trkpt lat="50.12847" lon="4.08302">
        <ele>202.6</ele>
        <time>2024-04-26T14:44:41Z</time>
      </trkpt>
      <trkpt lat="50.12835" lon="4.08295">
        <ele>201.6</ele>
        <time>2024-04-26T14:44:42Z</time>
      </trkpt>
      <trkpt lat="50.12823" lon="4.08289">
        <ele>200.8</ele>
        <time>2024-04-26T14:44:43Z</time>
      </trkpt>
      <trkpt lat="50.1281" lon="4.08284">
        <ele>199.8</ele>
        <time>2024-04-26T14:44:44Z</time>
      </trkpt>
      <trkpt lat="50.12797" lon="4.08281">
        <ele>199.2</ele>
        <time>2024-04-26T14:44:45Z</time>
      </trkpt>
      <trkpt lat="50.12784" lon="4.08278">
        <ele>198</ele>
        <time>2024-04-26T14:44:46Z</time>
      </trkpt>
      <trkpt lat="50.12771" lon="4.08277">
        <ele>196.8</ele>
        <time>2024-04-26T14:44:47Z</time>
      </trkpt>
      <trkpt lat="50.12757" lon="4.08277">
        <ele>196</ele>
        <time>2024-04-26T14:44:48Z</time>
      </trkpt>
      <trkpt lat="50.12744" lon="4.08277">
        <ele>195.2</ele>
        <time>2024-04-26T14:44:49Z</time>
      </trkpt>
      <trkpt lat="50.1273" lon="4.08277">
        <ele>194.2</ele>
        <time>2024-04-26T14:44:50Z</time>
      </trkpt>
      <trkpt lat="50.12717" lon="4.08278">
        <ele>193.2</ele>
        <time>2024-04-26T14:44:51Z</time>
      </trkpt>
      <trkpt lat="50.12703" lon="4.08278">
        <ele>191.6</ele>
        <time>2024-04-26T14:44:52Z</time>
      </trkpt>
      <trkpt lat="50.1269" lon="4.08278">
        <ele>190.8</ele>
        <time>2024-04-26T14:44:53Z</time>
      </trkpt>
      <trkpt lat="50.12676" lon="4.08279">
        <ele>190.2</ele>
        <time>2024-04-26T14:44:54Z</time>
      </trkpt>
      <trkpt lat="50.12663" lon="4.08279">
        <ele>189.8</ele>
        <time>2024-04-26T14:44:55Z</time>
      </trkpt>
      <trkpt lat="50.12649" lon="4.0828">
        <ele>189.4</ele>
        <time>2024-04-26T14:44:56Z</time>
      </trkpt>
      <trkpt lat="50.12636" lon="4.0828">
        <ele>188</ele>
        <time>2024-04-26T14:44:57Z</time>
      </trkpt>
      <trkpt lat="50.12622" lon="4.0828">
        <ele>186.8</ele>
        <time>2024-04-26T14:44:58Z</time>
      </trkpt>
      <trkpt lat="50.12609" lon="4.08281">
        <ele>185.8</ele>
        <time>2024-04-26T14:44:59Z</time>
      </trkpt>
      <trkpt lat="50.12596" lon="4.0828">
        <ele>184.4</ele>
        <time>2024-04-26T14:45:00Z</time>
      </trkpt>
      <trkpt lat="50.12583" lon="4.08279">
        <ele>183.6</ele>
        <time>2024-04-26T14:45:01Z</time>
      </trkpt>
      <trkpt lat="50.1257" lon="4.08277">
        <ele>182.8</ele>
        <time>2024-04-26T14:45:02Z</time>
      </trkpt>
      <trkpt lat="50.12559" lon="4.08272">
        <ele>182</ele>
        <time>2024-04-26T14:45:03Z</time>
      </trkpt>
      <trkpt lat="50.12547" lon="4.08266">
        <ele>182</ele>
        <time>2024-04-26T14:45:04Z</time>
      </trkpt>
      <trkpt lat="50.12537" lon="4.08259">
        <ele>181.2</ele>
        <time>2024-04-26T14:45:05Z</time>
      </trkpt>
      <trkpt lat="50.12528" lon="4.0825">
        <ele>180.2</ele>
        <time>2024-04-26T14:45:06Z</time>
      </trkpt>
      <trkpt lat="50.12519" lon="4.08241">
        <ele>179.8</ele>
        <time>2024-04-26T14:45:07Z</time>
      </trkpt>
      <trkpt lat="50.12511" lon="4.08231">
        <ele>179.6</ele>
        <time>2024-04-26T14:45:08Z</time>
      </trkpt>
      <trkpt lat="50.12505" lon="4.08221">
        <ele>179.6</ele>
        <time>2024-04-26T14:45:09Z</time>
      </trkpt>
      <trkpt lat="50.12498" lon="4.0821">
        <ele>179.4</ele>
        <time>2024-04-26T14:45:10Z</time>
      </trkpt>
      <trkpt lat="50.12492" lon="4.082">
        <ele>179.4</ele>
        <time>2024-04-26T14:45:11Z</time>
      </trkpt>
      <trkpt lat="50.12487" lon="4.0819">
        <ele>179.6</ele>
        <time>2024-04-26T14:45:12Z</time>
      </trkpt>
      <trkpt lat="50.12482" lon="4.08179">
        <ele>179.6</ele>
        <time>2024-04-26T14:45:13Z</time>
      </trkpt>
      <trkpt lat="50.12477" lon="4.0817">
        <ele>179.4</ele>
        <time>2024-04-26T14:45:14Z</time>
      </trkpt>
      <trkpt lat="50.12472" lon="4.0816">
        <ele>179.4</ele>
        <time>2024-04-26T14:45:15Z</time>
      </trkpt>
      <trkpt lat="50.12468" lon="4.08151">
        <ele>179.4</ele>
        <time>2024-04-26T14:45:16Z</time>
      </trkpt>
      <trkpt lat="50.12463" lon="4.08142">
        <ele>179.6</ele>
        <time>2024-04-26T14:45:17Z</time>
      </trkpt>
      <trkpt lat="50.12458" lon="4.08133">
        <ele>180</ele>
        <time>2024-04-26T14:45:18Z</time>
      </trkpt>
      <trkpt lat="50.12454" lon="4.08125">
        <ele>180.4</ele>
        <time>2024-04-26T14:45:19Z</time>
      </trkpt>
      <trkpt lat="50.1245" lon="4.08116">
        <ele>180.8</ele>
        <time>2024-04-26T14:45:20Z</time>
      </trkpt>
      <trkpt lat="50.12446" lon="4.08108">
        <ele>181</ele>
        <time>2024-04-26T14:45:21Z</time>
      </trkpt>
      <trkpt lat="50.12442" lon="4.081">
        <ele>182</ele>
        <time>2024-04-26T14:45:22Z</time>
      </trkpt>
      <trkpt lat="50.12438" lon="4.08092">
        <ele>182.8</ele>
        <time>2024-04-26T14:45:23Z</time>
      </trkpt>
      <trkpt lat="50.12434" lon="4.08084">
        <ele>183.2</ele>
        <time>2024-04-26T14:45:24Z</time>
      </trkpt>
      <trkpt lat="50.1243" lon="4.08076">
        <ele>183.4</ele>
        <time>2024-04-26T14:45:25Z</time>
      </trkpt>
      <trkpt lat="50.12427" lon="4.08069">
        <ele>183.8</ele>
        <time>2024-04-26T14:45:26Z</time>
      </trkpt>
      <trkpt lat="50.12423" lon="4.08061">
        <ele>183.8</ele>
        <time>2024-04-26T14:45:27Z</time>
      </trkpt>
      <trkpt lat="50.1242" lon="4.08054">
        <ele>183.8</ele>
        <time>2024-04-26T14:45:28Z</time>
      </trkpt>
      <trkpt lat="50.12417" lon="4.08046">
        <ele>184</ele>
        <time>2024-04-26T14:45:29Z</time>
      </trkpt>
      <trkpt lat="50.12414" lon="4.08038">
        <ele>184.2</ele>
        <time>2024-04-26T14:45:30Z</time>
      </trkpt>
      <trkpt lat="50.12413" lon="4.0803">
        <ele>184.6</ele>
        <time>2024-04-26T14:45:31Z</time>
      </trkpt>
      <trkpt lat="50.12412" lon="4.08021">
        <ele>185</ele>
        <time>2024-04-26T14:45:32Z</time>
      </trkpt>
      <trkpt lat="50.1241" lon="4.08012">
        <ele>185</ele>
        <time>2024-04-26T14:45:33Z</time>
      </trkpt>
      <trkpt lat="50.12407" lon="4.08004">
        <ele>185.2</ele>
        <time>2024-04-26T14:45:34Z</time>
      </trkpt>
      <trkpt lat="50.12402" lon="4.07999">
        <ele>185.4</ele>
        <time>2024-04-26T14:45:35Z</time>
      </trkpt>
      <trkpt lat="50.12397" lon="4.07997">
        <ele>185.4</ele>
        <time>2024-04-26T14:45:36Z</time>
      </trkpt>
      <trkpt lat="50.12392" lon="4.07998">
        <ele>185.4</ele>
        <time>2024-04-26T14:45:37Z</time>
      </trkpt>
      <trkpt lat="50.12387" lon="4.08003">
        <ele>185.6</ele>
        <time>2024-04-26T14:45:38Z</time>
      </trkpt>
      <trkpt lat="50.12383" lon="4.08009">
        <ele>185.6</ele>
        <time>2024-04-26T14:45:39Z</time>
      </trkpt>
      <trkpt lat="50.12381" lon="4.08017">
        <ele>185.8</ele>
        <time>2024-04-26T14:45:40Z</time>
      </trkpt>
      <trkpt lat="50.1238" lon="4.08027">
        <ele>186</ele>
        <time>2024-04-26T14:45:41Z</time>
      </trkpt>
      <trkpt lat="50.1238" lon="4.08036">
        <ele>185.8</ele>
        <time>2024-04-26T14:45:42Z</time>
      </trkpt>
      <trkpt lat="50.12379" lon="4.08046">
        <ele>185.8</ele>
        <time>2024-04-26T14:45:43Z</time>
      </trkpt>
      <trkpt lat="50.12377" lon="4.08056">
        <ele>186</ele>
        <time>2024-04-26T14:45:44Z</time>
      </trkpt>
      <trkpt lat="50.12374" lon="4.08065">
        <ele>186</ele>
        <time>2024-04-26T14:45:45Z</time>
      </trkpt>
      <trkpt lat="50.1237" lon="4.08074">
        <ele>186</ele>
        <time>2024-04-26T14:45:46Z</time>
      </trkpt>
      <trkpt lat="50.12366" lon="4.08083">
        <ele>186</ele>
        <time>2024-04-26T14:45:47Z</time>
      </trkpt>
      <trkpt lat="50.12362" lon="4.08091">
        <ele>186</ele>
        <time>2024-04-26T14:45:48Z</time>
      </trkpt>
      <trkpt lat="50.12358" lon="4.081">
        <ele>186</ele>
        <time>2024-04-26T14:45:49Z</time>
      </trkpt>
      <trkpt lat="50.12354" lon="4.08109">
        <ele>186</ele>
        <time>2024-04-26T14:45:50Z</time>
      </trkpt>
      <trkpt lat="50.1235" lon="4.08118">
        <ele>186</ele>
        <time>2024-04-26T14:45:51Z</time>
      </trkpt>
      <trkpt lat="50.12346" lon="4.08127">
        <ele>186</ele>
        <time>2024-04-26T14:45:52Z</time>
      </trkpt>
      <trkpt lat="50.12342" lon="4.08136">
        <ele>186</ele>
        <time>2024-04-26T14:45:53Z</time>
      </trkpt>
      <trkpt lat="50.12337" lon="4.08145">
        <ele>186</ele>
        <time>2024-04-26T14:45:54Z</time>
      </trkpt>
      <trkpt lat="50.12333" lon="4.08153">
        <ele>186</ele>
        <time>2024-04-26T14:45:55Z</time>
      </trkpt>
      <trkpt lat="50.12329" lon="4.08162">
        <ele>186</ele>
        <time>2024-04-26T14:45:56Z</time>
      </trkpt>
      <trkpt lat="50.12325" lon="4.08171">
        <ele>185.8</ele>
        <time>2024-04-26T14:45:57Z</time>
      </trkpt>
      <trkpt lat="50.12321" lon="4.0818">
        <ele>185.6</ele>
        <time>2024-04-26T14:45:58Z</time>
      </trkpt>
      <trkpt lat="50.12317" lon="4.08189">
        <ele>185.6</ele>
        <time>2024-04-26T14:45:59Z</time>
      </trkpt>
      <trkpt lat="50.12313" lon="4.08198">
        <ele>185.4</ele>
        <time>2024-04-26T14:46:00Z</time>
      </trkpt>
      <trkpt lat="50.12309" lon="4.08208">
        <ele>185</ele>
        <time>2024-04-26T14:46:01Z</time>
      </trkpt>
      <trkpt lat="50.12304" lon="4.08217">
        <ele>184.8</ele>
        <time>2024-04-26T14:46:02Z</time>
      </trkpt>
      <trkpt lat="50.123" lon="4.08227">
        <ele>184.6</ele>
        <time>2024-04-26T14:46:03Z</time>
      </trkpt>
      <trkpt lat="50.12295" lon="4.08237">
        <ele>184.6</ele>
        <time>2024-04-26T14:46:04Z</time>
      </trkpt>
      <trkpt lat="50.1229" lon="4.08247">
        <ele>184.6</ele>
        <time>2024-04-26T14:46:05Z</time>
      </trkpt>
      <trkpt lat="50.12286" lon="4.08257">
        <ele>184.6</ele>
        <time>2024-04-26T14:46:06Z</time>
      </trkpt>
      <trkpt lat="50.12281" lon="4.08267">
        <ele>184.6</ele>
        <time>2024-04-26T14:46:07Z</time>
      </trkpt>
      <trkpt lat="50.12276" lon="4.08278">
        <ele>184.6</ele>
        <time>2024-04-26T14:46:08Z</time>
      </trkpt>
      <trkpt lat="50.12271" lon="4.08289">
        <ele>184.4</ele>
        <time>2024-04-26T14:46:09Z</time>
      </trkpt>
      <trkpt lat="50.12266" lon="4.083">
        <ele>184</ele>
        <time>2024-04-26T14:46:10Z</time>
      </trkpt>
      <trkpt lat="50.12261" lon="4.08311">
        <ele>184</ele>
        <time>2024-04-26T14:46:11Z</time>
      </trkpt>
      <trkpt lat="50.12256" lon="4.08322">
        <ele>183.6</ele>
        <time>2024-04-26T14:46:12Z</time>
      </trkpt>
      <trkpt lat="50.12251" lon="4.08333">
        <ele>183.4</ele>
        <time>2024-04-26T14:46:13Z</time>
      </trkpt>
      <trkpt lat="50.12245" lon="4.08344">
        <ele>183</ele>
        <time>2024-04-26T14:46:14Z</time>
      </trkpt>
      <trkpt lat="50.12241" lon="4.08356">
        <ele>182.6</ele>
        <time>2024-04-26T14:46:15Z</time>
      </trkpt>
      <trkpt lat="50.12236" lon="4.08368">
        <ele>182.4</ele>
        <time>2024-04-26T14:46:16Z</time>
      </trkpt>
      <trkpt lat="50.12231" lon="4.0838">
        <ele>182.2</ele>
        <time>2024-04-26T14:46:17Z</time>
      </trkpt>
      <trkpt lat="50.12227" lon="4.08393">
        <ele>181.8</ele>
        <time>2024-04-26T14:46:18Z</time>
      </trkpt>
      <trkpt lat="50.12223" lon="4.08407">
        <ele>181.6</ele>
        <time>2024-04-26T14:46:19Z</time>
      </trkpt>
      <trkpt lat="50.12219" lon="4.08421">
        <ele>181</ele>
        <time>2024-04-26T14:46:20Z</time>
      </trkpt>
      <trkpt lat="50.12216" lon="4.08435">
        <ele>180.8</ele>
        <time>2024-04-26T14:46:21Z</time>
      </trkpt>
      <trkpt lat="50.12213" lon="4.08449">
        <ele>180.4</ele>
        <time>2024-04-26T14:46:22Z</time>
      </trkpt>
      <trkpt lat="50.1221" lon="4.08464">
        <ele>180.2</ele>
        <time>2024-04-26T14:46:23Z</time>
      </trkpt>
      <trkpt lat="50.12208" lon="4.08479">
        <ele>180</ele>
        <time>2024-04-26T14:46:24Z</time>
      </trkpt>
      <trkpt lat="50.12205" lon="4.08494">
        <ele>179.8</ele>
        <time>2024-04-26T14:46:25Z</time>
      </trkpt>
      <trkpt lat="50.12203" lon="4.08508">
        <ele>179.2</ele>
        <time>2024-04-26T14:46:26Z</time>
      </trkpt>
      <trkpt lat="50.12201" lon="4.08524">
        <ele>178.8</ele>
        <time>2024-04-26T14:46:27Z</time>
      </trkpt>
      <trkpt lat="50.122" lon="4.08539">
        <ele>178.4</ele>
        <time>2024-04-26T14:46:28Z</time>
      </trkpt>
      <trkpt lat="50.122" lon="4.08554">
        <ele>177.8</ele>
        <time>2024-04-26T14:46:29Z</time>
      </trkpt>
      <trkpt lat="50.122" lon="4.08569">
        <ele>177</ele>
        <time>2024-04-26T14:46:30Z</time>
      </trkpt>
      <trkpt lat="50.122" lon="4.08584">
        <ele>176.2</ele>
        <time>2024-04-26T14:46:31Z</time>
      </trkpt>
      <trkpt lat="50.12201" lon="4.08598">
        <ele>175.8</ele>
        <time>2024-04-26T14:46:32Z</time>
      </trkpt>
      <trkpt lat="50.12201" lon="4.08613">
        <ele>175.8</ele>
        <time>2024-04-26T14:46:33Z</time>
      </trkpt>
      <trkpt lat="50.12202" lon="4.08627">
        <ele>175.6</ele>
        <time>2024-04-26T14:46:34Z</time>
      </trkpt>
      <trkpt lat="50.12202" lon="4.08641">
        <ele>174.8</ele>
        <time>2024-04-26T14:46:35Z</time>
      </trkpt>
      <trkpt lat="50.12202" lon="4.08655">
        <ele>174.4</ele>
        <time>2024-04-26T14:46:36Z</time>
      </trkpt>
      <trkpt lat="50.12202" lon="4.08669">
        <ele>174</ele>
        <time>2024-04-26T14:46:37Z</time>
      </trkpt>
      <trkpt lat="50.12202" lon="4.08682">
        <ele>173.8</ele>
        <time>2024-04-26T14:46:38Z</time>
      </trkpt>
      <trkpt lat="50.12202" lon="4.08695">
        <ele>173.8</ele>
        <time>2024-04-26T14:46:39Z</time>
      </trkpt>
      <trkpt lat="50.12201" lon="4.08709">
        <ele>173.6</ele>
        <time>2024-04-26T14:46:40Z</time>
      </trkpt>
      <trkpt lat="50.12201" lon="4.08722">
        <ele>173.6</ele>
        <time>2024-04-26T14:46:41Z</time>
      </trkpt>
      <trkpt lat="50.122" lon="4.08734">
        <ele>173.6</ele>
        <time>2024-04-26T14:46:42Z</time>
      </trkpt>
      <trkpt lat="50.122" lon="4.08747">
        <ele>173.4</ele>
        <time>2024-04-26T14:46:43Z</time>
      </trkpt>
      <trkpt lat="50.12198" lon="4.08759">
        <ele>173.4</ele>
        <time>2024-04-26T14:46:44Z</time>
      </trkpt>
      <trkpt lat="50.12197" lon="4.08771">
        <ele>173.4</ele>
        <time>2024-04-26T14:46:45Z</time>
      </trkpt>
      <trkpt lat="50.12196" lon="4.08783">
        <ele>173.4</ele>
        <time>2024-04-26T14:46:46Z</time>
      </trkpt>
      <trkpt lat="50.12194" lon="4.08795">
        <ele>173.4</ele>
        <time>2024-04-26T14:46:47Z</time>
      </trkpt>
      <trkpt lat="50.12193" lon="4.08806">
        <ele>173.4</ele>
        <time>2024-04-26T14:46:48Z</time>
      </trkpt>
      <trkpt lat="50.12191" lon="4.08818">
        <ele>173.6</ele>
        <time>2024-04-26T14:46:49Z</time>
      </trkpt>
      <trkpt lat="50.1219" lon="4.08829">
        <ele>173.6</ele>
        <time>2024-04-26T14:46:50Z</time>
      </trkpt>
      <trkpt lat="50.12189" lon="4.0884">
        <ele>173.6</ele>
        <time>2024-04-26T14:46:51Z</time>
      </trkpt>
      <trkpt lat="50.12188" lon="4.08852">
        <ele>173.6</ele>
        <time>2024-04-26T14:46:52Z</time>
      </trkpt>
      <trkpt lat="50.12187" lon="4.08863">
        <ele>173.6</ele>
        <time>2024-04-26T14:46:53Z</time>
      </trkpt>
      <trkpt lat="50.12187" lon="4.08874">
        <ele>173.8</ele>
        <time>2024-04-26T14:46:54Z</time>
      </trkpt>
      <trkpt lat="50.12186" lon="4.08884">
        <ele>173.8</ele>
        <time>2024-04-26T14:46:55Z</time>
      </trkpt>
      <trkpt lat="50.12186" lon="4.08895">
        <ele>173.8</ele>
        <time>2024-04-26T14:46:56Z</time>
      </trkpt>
      <trkpt lat="50.12186" lon="4.08906">
        <ele>173.8</ele>
        <time>2024-04-26T14:46:57Z</time>
      </trkpt>
      <trkpt lat="50.12186" lon="4.08916">
        <ele>174.2</ele>
        <time>2024-04-26T14:46:58Z</time>
      </trkpt>
      <trkpt lat="50.12186" lon="4.08927">
        <ele>174.4</ele>
        <time>2024-04-26T14:46:59Z</time>
      </trkpt>
      <trkpt lat="50.12186" lon="4.08937">
        <ele>175</ele>
        <time>2024-04-26T14:47:00Z</time>
      </trkpt>
      <trkpt lat="50.12186" lon="4.08947">
        <ele>175.4</ele>
        <time>2024-04-26T14:47:01Z</time>
      </trkpt>
      <trkpt lat="50.12185" lon="4.08957">
        <ele>175.6</ele>
        <time>2024-04-26T14:47:02Z</time>
      </trkpt>
      <trkpt lat="50.12185" lon="4.08968">
        <ele>175.6</ele>
        <time>2024-04-26T14:47:03Z</time>
      </trkpt>
      <trkpt lat="50.12185" lon="4.08978">
        <ele>175.8</ele>
        <time>2024-04-26T14:47:04Z</time>
      </trkpt>
      <trkpt lat="50.12185" lon="4.08988">
        <ele>176</ele>
        <time>2024-04-26T14:47:05Z</time>
      </trkpt>
      <trkpt lat="50.12185" lon="4.08998">
        <ele>175.8</ele>
        <time>2024-04-26T14:47:06Z</time>
      </trkpt>
      <trkpt lat="50.12185" lon="4.09008">
        <ele>176</ele>
        <time>2024-04-26T14:47:07Z</time>
      </trkpt>
      <trkpt lat="50.12185" lon="4.09019">
        <ele>176.4</ele>
        <time>2024-04-26T14:47:08Z</time>
      </trkpt>
      <trkpt lat="50.12185" lon="4.09029">
        <ele>176.4</ele>
        <time>2024-04-26T14:47:09Z</time>
      </trkpt>
      <trkpt lat="50.12185" lon="4.09039">
        <ele>176.6</ele>
        <time>2024-04-26T14:47:10Z</time>
      </trkpt>
      <trkpt lat="50.12185" lon="4.09049">
        <ele>176.8</ele>
        <time>2024-04-26T14:47:11Z</time>
      </trkpt>
      <trkpt lat="50.12185" lon="4.09059">
        <ele>176.6</ele>
        <time>2024-04-26T14:47:12Z</time>
      </trkpt>
      <trkpt lat="50.12185" lon="4.09069">
        <ele>176.6</ele>
        <time>2024-04-26T14:47:13Z</time>
      </trkpt>
      <trkpt lat="50.12184" lon="4.09079">
        <ele>176.8</ele>
        <time>2024-04-26T14:47:14Z</time>
      </trkpt>
      <trkpt lat="50.12184" lon="4.09089">
        <ele>177</ele>
        <time>2024-04-26T14:47:15Z</time>
      </trkpt>
      <trkpt lat="50.12183" lon="4.09099">
        <ele>176.8</ele>
        <time>2024-04-26T14:47:16Z</time>
      </trkpt>
      <trkpt lat="50.12182" lon="4.09109">
        <ele>176.8</ele>
        <time>2024-04-26T14:47:17Z</time>
      </trkpt>
      <trkpt lat="50.1218" lon="4.09118">
        <ele>177.2</ele>
        <time>2024-04-26T14:47:18Z</time>
      </trkpt>
      <trkpt lat="50.12178" lon="4.09127">
        <ele>177.4</ele>
        <time>2024-04-26T14:47:19Z</time>
      </trkpt>
      <trkpt lat="50.12176" lon="4.09137">
        <ele>177.4</ele>
        <time>2024-04-26T14:47:20Z</time>
      </trkpt>
      <trkpt lat="50.12173" lon="4.09145">
        <ele>177.6</ele>
        <time>2024-04-26T14:47:21Z</time>
      </trkpt>
      <trkpt lat="50.1217" lon="4.09154">
        <ele>177.8</ele>
        <time>2024-04-26T14:47:22Z</time>
      </trkpt>
      <trkpt lat="50.12167" lon="4.09162">
        <ele>177.8</ele>
        <time>2024-04-26T14:47:23Z</time>
      </trkpt>
      <trkpt lat="50.12163" lon="4.09169">
        <ele>178</ele>
        <time>2024-04-26T14:47:24Z</time>
      </trkpt>
      <trkpt lat="50.12159" lon="4.09177">
        <ele>178</ele>
        <time>2024-04-26T14:47:25Z</time>
      </trkpt>
      <trkpt lat="50.12155" lon="4.09184">
        <ele>178.2</ele>
        <time>2024-04-26T14:47:26Z</time>
      </trkpt>
      <trkpt lat="50.12151" lon="4.09192">
        <ele>178.4</ele>
        <time>2024-04-26T14:47:27Z</time>
      </trkpt>
      <trkpt lat="50.12147" lon="4.092">
        <ele>178.8</ele>
        <time>2024-04-26T14:47:28Z</time>
      </trkpt>
      <trkpt lat="50.12144" lon="4.09208">
        <ele>179</ele>
        <time>2024-04-26T14:47:29Z</time>
      </trkpt>
      <trkpt lat="50.1214" lon="4.09216">
        <ele>179.4</ele>
        <time>2024-04-26T14:47:30Z</time>
      </trkpt>
      <trkpt lat="50.12137" lon="4.09225">
        <ele>179.6</ele>
        <time>2024-04-26T14:47:31Z</time>
      </trkpt>
      <trkpt lat="50.12134" lon="4.09233">
        <ele>179.6</ele>
        <time>2024-04-26T14:47:32Z</time>
      </trkpt>
      <trkpt lat="50.12132" lon="4.09242">
        <ele>179.8</ele>
        <time>2024-04-26T14:47:33Z</time>
      </trkpt>
      <trkpt lat="50.1213" lon="4.09252">
        <ele>180</ele>
        <time>2024-04-26T14:47:34Z</time>
      </trkpt>
      <trkpt lat="50.12129" lon="4.09261">
        <ele>180</ele>
        <time>2024-04-26T14:47:35Z</time>
      </trkpt>
      <trkpt lat="50.12127" lon="4.0927">
        <ele>180</ele>
        <time>2024-04-26T14:47:36Z</time>
      </trkpt>
      <trkpt lat="50.12125" lon="4.09279">
        <ele>180.2</ele>
        <time>2024-04-26T14:47:37Z</time>
      </trkpt>
      <trkpt lat="50.12124" lon="4.09287">
        <ele>180.4</ele>
        <time>2024-04-26T14:47:38Z</time>
      </trkpt>
      <trkpt lat="50.12122" lon="4.09296">
        <ele>180.4</ele>
        <time>2024-04-26T14:47:39Z</time>
      </trkpt>
      <trkpt lat="50.12121" lon="4.09305">
        <ele>180.4</ele>
        <time>2024-04-26T14:47:40Z</time>
      </trkpt>
      <trkpt lat="50.1212" lon="4.09314">
        <ele>180.4</ele>
        <time>2024-04-26T14:47:41Z</time>
      </trkpt>
      <trkpt lat="50.12118" lon="4.09322">
        <ele>180.4</ele>
        <time>2024-04-26T14:47:42Z</time>
      </trkpt>
      <trkpt lat="50.12116" lon="4.09331">
        <ele>180.4</ele>
        <time>2024-04-26T14:47:43Z</time>
      </trkpt>
      <trkpt lat="50.12115" lon="4.09339">
        <ele>180.6</ele>
        <time>2024-04-26T14:47:44Z</time>
      </trkpt>
      <trkpt lat="50.12113" lon="4.09347">
        <ele>180.8</ele>
        <time>2024-04-26T14:47:45Z</time>
      </trkpt>
      <trkpt lat="50.12111" lon="4.09355">
        <ele>180.8</ele>
        <time>2024-04-26T14:47:46Z</time>
      </trkpt>
      <trkpt lat="50.12109" lon="4.09363">
        <ele>181.2</ele>
        <time>2024-04-26T14:47:47Z</time>
      </trkpt>
      <trkpt lat="50.12107" lon="4.0937">
        <ele>181.2</ele>
        <time>2024-04-26T14:47:48Z</time>
      </trkpt>
      <trkpt lat="50.12105" lon="4.09378">
        <ele>181.6</ele>
        <time>2024-04-26T14:47:49Z</time>
      </trkpt>
      <trkpt lat="50.12103" lon="4.09386">
        <ele>181.6</ele>
        <time>2024-04-26T14:47:50Z</time>
      </trkpt>
      <trkpt lat="50.12101" lon="4.09393">
        <ele>182.2</ele>
        <time>2024-04-26T14:47:51Z</time>
      </trkpt>
      <trkpt lat="50.121" lon="4.09401">
        <ele>182.6</ele>
        <time>2024-04-26T14:47:52Z</time>
      </trkpt>
      <trkpt lat="50.12098" lon="4.09408">
        <ele>183.2</ele>
        <time>2024-04-26T14:47:53Z</time>
      </trkpt>
      <trkpt lat="50.12096" lon="4.09416">
        <ele>183.6</ele>
        <time>2024-04-26T14:47:54Z</time>
      </trkpt>
      <trkpt lat="50.12094" lon="4.09423">
        <ele>184</ele>
        <time>2024-04-26T14:47:55Z</time>
      </trkpt>
      <trkpt lat="50.12091" lon="4.0943">
        <ele>184.2</ele>
        <time>2024-04-26T14:47:56Z</time>
      </trkpt>
      <trkpt lat="50.12089" lon="4.09438">
        <ele>184.6</ele>
        <time>2024-04-26T14:47:57Z</time>
      </trkpt>
      <trkpt lat="50.12087" lon="4.09445">
        <ele>184.6</ele>
        <time>2024-04-26T14:47:58Z</time>
      </trkpt>
      <trkpt lat="50.12085" lon="4.09453">
        <ele>185</ele>
        <time>2024-04-26T14:47:59Z</time>
      </trkpt>
      <trkpt lat="50.12083" lon="4.0946">
        <ele>185.2</ele>
        <time>2024-04-26T14:48:00Z</time>
      </trkpt>
      <trkpt lat="50.12082" lon="4.09468">
        <ele>185.2</ele>
        <time>2024-04-26T14:48:01Z</time>
      </trkpt>
      <trkpt lat="50.1208" lon="4.09476">
        <ele>185.2</ele>
        <time>2024-04-26T14:48:02Z</time>
      </trkpt>
      <trkpt lat="50.12079" lon="4.09483">
        <ele>185.8</ele>
        <time>2024-04-26T14:48:03Z</time>
      </trkpt>
      <trkpt lat="50.12077" lon="4.09491">
        <ele>185.8</ele>
        <time>2024-04-26T14:48:04Z</time>
      </trkpt>
      <trkpt lat="50.12076" lon="4.09499">
        <ele>186</ele>
        <time>2024-04-26T14:48:05Z</time>
      </trkpt>
      <trkpt lat="50.12074" lon="4.09506">
        <ele>186.2</ele>
        <time>2024-04-26T14:48:06Z</time>
      </trkpt>
      <trkpt lat="50.12073" lon="4.09514">
        <ele>186.4</ele>
        <time>2024-04-26T14:48:07Z</time>
      </trkpt>
      <trkpt lat="50.12072" lon="4.09522">
        <ele>186.8</ele>
        <time>2024-04-26T14:48:08Z</time>
      </trkpt>
      <trkpt lat="50.1207" lon="4.0953">
        <ele>186.8</ele>
        <time>2024-04-26T14:48:09Z</time>
      </trkpt>
      <trkpt lat="50.12069" lon="4.09538">
        <ele>187</ele>
        <time>2024-04-26T14:48:10Z</time>
      </trkpt>
      <trkpt lat="50.12068" lon="4.09547">
        <ele>187</ele>
        <time>2024-04-26T14:48:11Z</time>
      </trkpt>
      <trkpt lat="50.12067" lon="4.09556">
        <ele>187.2</ele>
        <time>2024-04-26T14:48:12Z</time>
      </trkpt>
      <trkpt lat="50.12067" lon="4.09564">
        <ele>187.4</ele>
        <time>2024-04-26T14:48:13Z</time>
      </trkpt>
      <trkpt lat="50.12066" lon="4.09574">
        <ele>187.4</ele>
        <time>2024-04-26T14:48:14Z</time>
      </trkpt>
      <trkpt lat="50.12066" lon="4.09583">
        <ele>187.4</ele>
        <time>2024-04-26T14:48:15Z</time>
      </trkpt>
      <trkpt lat="50.12065" lon="4.09593">
        <ele>187.4</ele>
        <time>2024-04-26T14:48:16Z</time>
      </trkpt>
      <trkpt lat="50.12065" lon="4.09603">
        <ele>187.6</ele>
        <time>2024-04-26T14:48:17Z</time>
      </trkpt>
      <trkpt lat="50.12066" lon="4.09613">
        <ele>187.6</ele>
        <time>2024-04-26T14:48:18Z</time>
      </trkpt>
      <trkpt lat="50.12067" lon="4.09623">
        <ele>187.6</ele>
        <time>2024-04-26T14:48:19Z</time>
      </trkpt>
      <trkpt lat="50.12068" lon="4.09634">
        <ele>187.6</ele>
        <time>2024-04-26T14:48:20Z</time>
      </trkpt>
      <trkpt lat="50.1207" lon="4.09644">
        <ele>187.8</ele>
        <time>2024-04-26T14:48:21Z</time>
      </trkpt>
      <trkpt lat="50.12072" lon="4.09655">
        <ele>187.8</ele>
        <time>2024-04-26T14:48:22Z</time>
      </trkpt>
      <trkpt lat="50.12075" lon="4.09665">
        <ele>187.8</ele>
        <time>2024-04-26T14:48:23Z</time>
      </trkpt>
      <trkpt lat="50.12077" lon="4.09675">
        <ele>187.8</ele>
        <time>2024-04-26T14:48:24Z</time>
      </trkpt>
      <trkpt lat="50.1208" lon="4.09685">
        <ele>188</ele>
        <time>2024-04-26T14:48:25Z</time>
      </trkpt>
      <trkpt lat="50.12082" lon="4.09695">
        <ele>187.8</ele>
        <time>2024-04-26T14:48:26Z</time>
      </trkpt>
      <trkpt lat="50.12085" lon="4.09705">
        <ele>187.8</ele>
        <time>2024-04-26T14:48:27Z</time>
      </trkpt>
      <trkpt lat="50.12087" lon="4.09714">
        <ele>187.8</ele>
        <time>2024-04-26T14:48:28Z</time>
      </trkpt>
      <trkpt lat="50.12089" lon="4.09723">
        <ele>187.6</ele>
        <time>2024-04-26T14:48:29Z</time>
      </trkpt>
      <trkpt lat="50.12092" lon="4.09732">
        <ele>187.6</ele>
        <time>2024-04-26T14:48:30Z</time>
      </trkpt>
      <trkpt lat="50.12094" lon="4.09741">
        <ele>187.6</ele>
        <time>2024-04-26T14:48:31Z</time>
      </trkpt>
      <trkpt lat="50.12096" lon="4.0975">
        <ele>187.4</ele>
        <time>2024-04-26T14:48:32Z</time>
      </trkpt>
      <trkpt lat="50.12098" lon="4.09759">
        <ele>187.4</ele>
        <time>2024-04-26T14:48:33Z</time>
      </trkpt>
      <trkpt lat="50.121" lon="4.09769">
        <ele>187.2</ele>
        <time>2024-04-26T14:48:34Z</time>
      </trkpt>
      <trkpt lat="50.12102" lon="4.09778">
        <ele>187.2</ele>
        <time>2024-04-26T14:48:35Z</time>
      </trkpt>
      <trkpt lat="50.12103" lon="4.09788">
        <ele>187.2</ele>
        <time>2024-04-26T14:48:36Z</time>
      </trkpt>
      <trkpt lat="50.12104" lon="4.09799">
        <ele>187.2</ele>
        <time>2024-04-26T14:48:37Z</time>
      </trkpt>
      <trkpt lat="50.12105" lon="4.09809">
        <ele>187.4</ele>
        <time>2024-04-26T14:48:38Z</time>
      </trkpt>
      <trkpt lat="50.12105" lon="4.0982">
        <ele>187.4</ele>
        <time>2024-04-26T14:48:39Z</time>
      </trkpt>
      <trkpt lat="50.12106" lon="4.09831">
        <ele>187.6</ele>
        <time>2024-04-26T14:48:40Z</time>
      </trkpt>
      <trkpt lat="50.12107" lon="4.09842">
        <ele>187.2</ele>
        <time>2024-04-26T14:48:41Z</time>
      </trkpt>
      <trkpt lat="50.12107" lon="4.09854">
        <ele>187.2</ele>
        <time>2024-04-26T14:48:42Z</time>
      </trkpt>
      <trkpt lat="50.12108" lon="4.09865">
        <ele>187.4</ele>
        <time>2024-04-26T14:48:43Z</time>
      </trkpt>
      <trkpt lat="50.1211" lon="4.09877">
        <ele>187.4</ele>
        <time>2024-04-26T14:48:44Z</time>
      </trkpt>
      <trkpt lat="50.12111" lon="4.09889">
        <ele>187.4</ele>
        <time>2024-04-26T14:48:45Z</time>
      </trkpt>
      <trkpt lat="50.12113" lon="4.09902">
        <ele>187.2</ele>
        <time>2024-04-26T14:48:46Z</time>
      </trkpt>
      <trkpt lat="50.12114" lon="4.09915">
        <ele>187.2</ele>
        <time>2024-04-26T14:48:47Z</time>
      </trkpt>
      <trkpt lat="50.12114" lon="4.09928">
        <ele>187</ele>
        <time>2024-04-26T14:48:48Z</time>
      </trkpt>
      <trkpt lat="50.12115" lon="4.09941">
        <ele>187.2</ele>
        <time>2024-04-26T14:48:49Z</time>
      </trkpt>
      <trkpt lat="50.12115" lon="4.09954">
        <ele>187</ele>
        <time>2024-04-26T14:48:50Z</time>
      </trkpt>
      <trkpt lat="50.12114" lon="4.09968">
        <ele>187</ele>
        <time>2024-04-26T14:48:51Z</time>
      </trkpt>
      <trkpt lat="50.12113" lon="4.09982">
        <ele>186.6</ele>
        <time>2024-04-26T14:48:52Z</time>
      </trkpt>
      <trkpt lat="50.12112" lon="4.09995">
        <ele>186.2</ele>
        <time>2024-04-26T14:48:53Z</time>
      </trkpt>
      <trkpt lat="50.1211" lon="4.10009">
        <ele>186</ele>
        <time>2024-04-26T14:48:54Z</time>
      </trkpt>
      <trkpt lat="50.12108" lon="4.10022">
        <ele>185.8</ele>
        <time>2024-04-26T14:48:55Z</time>
      </trkpt>
      <trkpt lat="50.12106" lon="4.10035">
        <ele>185.4</ele>
        <time>2024-04-26T14:48:56Z</time>
      </trkpt>
      <trkpt lat="50.12103" lon="4.10048">
        <ele>184.8</ele>
        <time>2024-04-26T14:48:57Z</time>
      </trkpt>
      <trkpt lat="50.12101" lon="4.1006">
        <ele>184.2</ele>
        <time>2024-04-26T14:48:58Z</time>
      </trkpt>
      <trkpt lat="50.12098" lon="4.10072">
        <ele>183.2</ele>
        <time>2024-04-26T14:48:59Z</time>
      </trkpt>
      <trkpt lat="50.12096" lon="4.10084">
        <ele>182.6</ele>
        <time>2024-04-26T14:49:00Z</time>
      </trkpt>
      <trkpt lat="50.12093" lon="4.10095">
        <ele>182.4</ele>
        <time>2024-04-26T14:49:01Z</time>
      </trkpt>
      <trkpt lat="50.1209" lon="4.10106">
        <ele>182</ele>
        <time>2024-04-26T14:49:02Z</time>
      </trkpt>
      <trkpt lat="50.12088" lon="4.10117">
        <ele>182</ele>
        <time>2024-04-26T14:49:03Z</time>
      </trkpt>
      <trkpt lat="50.12086" lon="4.10127">
        <ele>182</ele>
        <time>2024-04-26T14:49:04Z</time>
      </trkpt>
      <trkpt lat="50.12084" lon="4.10138">
        <ele>181.8</ele>
        <time>2024-04-26T14:49:05Z</time>
      </trkpt>
      <trkpt lat="50.12081" lon="4.10148">
        <ele>181.8</ele>
        <time>2024-04-26T14:49:06Z</time>
      </trkpt>
      <trkpt lat="50.12079" lon="4.10159">
        <ele>182</ele>
        <time>2024-04-26T14:49:07Z</time>
      </trkpt>
      <trkpt lat="50.12077" lon="4.1017">
        <ele>181.8</ele>
        <time>2024-04-26T14:49:08Z</time>
      </trkpt>
      <trkpt lat="50.12076" lon="4.10181">
        <ele>182</ele>
        <time>2024-04-26T14:49:09Z</time>
      </trkpt>
      <trkpt lat="50.12074" lon="4.10192">
        <ele>181.8</ele>
        <time>2024-04-26T14:49:10Z</time>
      </trkpt>
      <trkpt lat="50.12072" lon="4.10204">
        <ele>182</ele>
        <time>2024-04-26T14:49:11Z</time>
      </trkpt>
      <trkpt lat="50.12071" lon="4.10216">
        <ele>182.2</ele>
        <time>2024-04-26T14:49:12Z</time>
      </trkpt>
      <trkpt lat="50.12071" lon="4.10228">
        <ele>182</ele>
        <time>2024-04-26T14:49:13Z</time>
      </trkpt>
      <trkpt lat="50.12071" lon="4.10241">
        <ele>182.2</ele>
        <time>2024-04-26T14:49:14Z</time>
      </trkpt>
      <trkpt lat="50.12071" lon="4.10254">
        <ele>182.2</ele>
        <time>2024-04-26T14:49:15Z</time>
      </trkpt>
      <trkpt lat="50.12071" lon="4.10267">
        <ele>182</ele>
        <time>2024-04-26T14:49:16Z</time>
      </trkpt>
      <trkpt lat="50.1207" lon="4.1028">
        <ele>182.2</ele>
        <time>2024-04-26T14:49:17Z</time>
      </trkpt>
      <trkpt lat="50.1207" lon="4.10294">
        <ele>182</ele>
        <time>2024-04-26T14:49:18Z</time>
      </trkpt>
      <trkpt lat="50.1207" lon="4.10308">
        <ele>182.2</ele>
        <time>2024-04-26T14:49:19Z</time>
      </trkpt>
      <trkpt lat="50.1207" lon="4.10321">
        <ele>181.8</ele>
        <time>2024-04-26T14:49:20Z</time>
      </trkpt>
      <trkpt lat="50.1207" lon="4.10335">
        <ele>181.6</ele>
        <time>2024-04-26T14:49:21Z</time>
      </trkpt>
      <trkpt lat="50.12069" lon="4.10349">
        <ele>181.2</ele>
        <time>2024-04-26T14:49:22Z</time>
      </trkpt>
      <trkpt lat="50.12069" lon="4.10363">
        <ele>180.8</ele>
        <time>2024-04-26T14:49:23Z</time>
      </trkpt>
      <trkpt lat="50.12068" lon="4.10377">
        <ele>180.6</ele>
        <time>2024-04-26T14:49:24Z</time>
      </trkpt>
      <trkpt lat="50.12066" lon="4.10391">
        <ele>180.6</ele>
        <time>2024-04-26T14:49:25Z</time>
      </trkpt>
      <trkpt lat="50.12065" lon="4.10405">
        <ele>180.2</ele>
        <time>2024-04-26T14:49:26Z</time>
      </trkpt>
      <trkpt lat="50.12062" lon="4.10418">
        <ele>180.2</ele>
        <time>2024-04-26T14:49:27Z</time>
      </trkpt>
      <trkpt lat="50.12059" lon="4.10431">
        <ele>180.2</ele>
        <time>2024-04-26T14:49:28Z</time>
      </trkpt>
      <trkpt lat="50.12056" lon="4.10443">
        <ele>179.8</ele>
        <time>2024-04-26T14:49:29Z</time>
      </trkpt>
      <trkpt lat="50.12053" lon="4.10455">
        <ele>179.8</ele>
        <time>2024-04-26T14:49:30Z</time>
      </trkpt>
      <trkpt lat="50.1205" lon="4.10466">
        <ele>179.6</ele>
        <time>2024-04-26T14:49:31Z</time>
      </trkpt>
      <trkpt lat="50.12047" lon="4.10476">
        <ele>179.4</ele>
        <time>2024-04-26T14:49:32Z</time>
      </trkpt>
      <trkpt lat="50.12044" lon="4.10486">
        <ele>179.4</ele>
        <time>2024-04-26T14:49:33Z</time>
      </trkpt>
      <trkpt lat="50.12041" lon="4.10495">
        <ele>179.2</ele>
        <time>2024-04-26T14:49:34Z</time>
      </trkpt>
      <trkpt lat="50.12039" lon="4.10504">
        <ele>179.4</ele>
        <time>2024-04-26T14:49:35Z</time>
      </trkpt>
      <trkpt lat="50.12036" lon="4.10513">
        <ele>179.2</ele>
        <time>2024-04-26T14:49:36Z</time>
      </trkpt>
      <trkpt lat="50.12034" lon="4.10521">
        <ele>179.2</ele>
        <time>2024-04-26T14:49:37Z</time>
      </trkpt>
      <trkpt lat="50.12031" lon="4.10529">
        <ele>179.2</ele>
        <time>2024-04-26T14:49:38Z</time>
      </trkpt>
      <trkpt lat="50.12029" lon="4.10537">
        <ele>179.2</ele>
        <time>2024-04-26T14:49:39Z</time>
      </trkpt>
      <trkpt lat="50.12026" lon="4.10545">
        <ele>179.2</ele>
        <time>2024-04-26T14:49:40Z</time>
      </trkpt>
      <trkpt lat="50.12024" lon="4.10553">
        <ele>179.2</ele>
        <time>2024-04-26T14:49:41Z</time>
      </trkpt>
      <trkpt lat="50.12022" lon="4.10561">
        <ele>179.2</ele>
        <time>2024-04-26T14:49:42Z</time>
      </trkpt>
      <trkpt lat="50.12019" lon="4.10569">
        <ele>179.4</ele>
        <time>2024-04-26T14:49:43Z</time>
      </trkpt>
      <trkpt lat="50.12017" lon="4.10576">
        <ele>180</ele>
        <time>2024-04-26T14:49:44Z</time>
      </trkpt>
      <trkpt lat="50.12015" lon="4.10584">
        <ele>180.6</ele>
        <time>2024-04-26T14:49:45Z</time>
      </trkpt>
      <trkpt lat="50.12012" lon="4.10591">
        <ele>181.4</ele>
        <time>2024-04-26T14:49:46Z</time>
      </trkpt>
      <trkpt lat="50.1201" lon="4.10598">
        <ele>181.8</ele>
        <time>2024-04-26T14:49:47Z</time>
      </trkpt>
      <trkpt lat="50.12008" lon="4.10606">
        <ele>182.2</ele>
        <time>2024-04-26T14:49:48Z</time>
      </trkpt>
      <trkpt lat="50.12006" lon="4.10613">
        <ele>183.2</ele>
        <time>2024-04-26T14:49:49Z</time>
      </trkpt>
      <trkpt lat="50.12003" lon="4.10621">
        <ele>184</ele>
        <time>2024-04-26T14:49:50Z</time>
      </trkpt>
      <trkpt lat="50.12001" lon="4.10629">
        <ele>184</ele>
        <time>2024-04-26T14:49:51Z</time>
      </trkpt>
      <trkpt lat="50.11999" lon="4.10637">
        <ele>184.8</ele>
        <time>2024-04-26T14:49:52Z</time>
      </trkpt>
      <trkpt lat="50.11996" lon="4.10645">
        <ele>185.6</ele>
        <time>2024-04-26T14:49:53Z</time>
      </trkpt>
      <trkpt lat="50.11995" lon="4.10654">
        <ele>186</ele>
        <time>2024-04-26T14:49:54Z</time>
      </trkpt>
      <trkpt lat="50.11993" lon="4.10663">
        <ele>186.4</ele>
        <time>2024-04-26T14:49:55Z</time>
      </trkpt>
      <trkpt lat="50.11992" lon="4.10673">
        <ele>187</ele>
        <time>2024-04-26T14:49:56Z</time>
      </trkpt>
      <trkpt lat="50.11991" lon="4.10683">
        <ele>187.4</ele>
        <time>2024-04-26T14:49:57Z</time>
      </trkpt>
      <trkpt lat="50.11991" lon="4.10694">
        <ele>187.8</ele>
        <time>2024-04-26T14:49:58Z</time>
      </trkpt>
      <trkpt lat="50.11991" lon="4.10705">
        <ele>188</ele>
        <time>2024-04-26T14:49:59Z</time>
      </trkpt>
      <trkpt lat="50.11991" lon="4.10715">
        <ele>188.4</ele>
        <time>2024-04-26T14:50:00Z</time>
      </trkpt>
      <trkpt lat="50.11992" lon="4.10727">
        <ele>188.6</ele>
        <time>2024-04-26T14:50:01Z</time>
      </trkpt>
      <trkpt lat="50.11993" lon="4.10738">
        <ele>188.6</ele>
        <time>2024-04-26T14:50:02Z</time>
      </trkpt>
      <trkpt lat="50.11995" lon="4.10749">
        <ele>188.6</ele>
        <time>2024-04-26T14:50:03Z</time>
      </trkpt>
      <trkpt lat="50.11997" lon="4.1076">
        <ele>188.6</ele>
        <time>2024-04-26T14:50:04Z</time>
      </trkpt>
      <trkpt lat="50.11999" lon="4.10772">
        <ele>188.8</ele>
        <time>2024-04-26T14:50:05Z</time>
      </trkpt>
      <trkpt lat="50.12001" lon="4.10784">
        <ele>188.6</ele>
        <time>2024-04-26T14:50:06Z</time>
      </trkpt>
      <trkpt lat="50.12003" lon="4.10795">
        <ele>188.6</ele>
        <time>2024-04-26T14:50:07Z</time>
      </trkpt>
      <trkpt lat="50.12005" lon="4.10807">
        <ele>188.6</ele>
        <time>2024-04-26T14:50:08Z</time>
      </trkpt>
      <trkpt lat="50.12007" lon="4.10819">
        <ele>188.8</ele>
        <time>2024-04-26T14:50:09Z</time>
      </trkpt>
      <trkpt lat="50.12009" lon="4.10831">
        <ele>188.6</ele>
        <time>2024-04-26T14:50:10Z</time>
      </trkpt>
      <trkpt lat="50.12011" lon="4.10843">
        <ele>188.6</ele>
        <time>2024-04-26T14:50:11Z</time>
      </trkpt>
      <trkpt lat="50.12013" lon="4.10855">
        <ele>188.6</ele>
        <time>2024-04-26T14:50:12Z</time>
      </trkpt>
      <trkpt lat="50.12014" lon="4.10867">
        <ele>188.2</ele>
        <time>2024-04-26T14:50:13Z</time>
      </trkpt>
      <trkpt lat="50.12016" lon="4.10879">
        <ele>188.2</ele>
        <time>2024-04-26T14:50:14Z</time>
      </trkpt>
      <trkpt lat="50.12017" lon="4.10891">
        <ele>188</ele>
        <time>2024-04-26T14:50:15Z</time>
      </trkpt>
      <trkpt lat="50.12019" lon="4.10903">
        <ele>187.8</ele>
        <time>2024-04-26T14:50:16Z</time>
      </trkpt>
      <trkpt lat="50.1202" lon="4.10915">
        <ele>187.4</ele>
        <time>2024-04-26T14:50:17Z</time>
      </trkpt>
      <trkpt lat="50.1202" lon="4.10927">
        <ele>187</ele>
        <time>2024-04-26T14:50:18Z</time>
      </trkpt>
      <trkpt lat="50.12021" lon="4.10939">
        <ele>186.8</ele>
        <time>2024-04-26T14:50:19Z</time>
      </trkpt>
      <trkpt lat="50.12021" lon="4.10951">
        <ele>186.6</ele>
        <time>2024-04-26T14:50:20Z</time>
      </trkpt>
      <trkpt lat="50.12022" lon="4.10964">
        <ele>186.4</ele>
        <time>2024-04-26T14:50:21Z</time>
      </trkpt>
      <trkpt lat="50.12023" lon="4.10976">
        <ele>186.2</ele>
        <time>2024-04-26T14:50:22Z</time>
      </trkpt>
      <trkpt lat="50.12023" lon="4.10988">
        <ele>186</ele>
        <time>2024-04-26T14:50:23Z</time>
      </trkpt>
      <trkpt lat="50.12024" lon="4.11">
        <ele>186.2</ele>
        <time>2024-04-26T14:50:24Z</time>
      </trkpt>
      <trkpt lat="50.12024" lon="4.11013">
        <ele>186.2</ele>
        <time>2024-04-26T14:50:25Z</time>
      </trkpt>
      <trkpt lat="50.12025" lon="4.11025">
        <ele>186.2</ele>
        <time>2024-04-26T14:50:26Z</time>
      </trkpt>
      <trkpt lat="50.12025" lon="4.11038">
        <ele>185.8</ele>
        <time>2024-04-26T14:50:27Z</time>
      </trkpt>
      <trkpt lat="50.12026" lon="4.1105">
        <ele>186</ele>
        <time>2024-04-26T14:50:28Z</time>
      </trkpt>
      <trkpt lat="50.12026" lon="4.11063">
        <ele>185.8</ele>
        <time>2024-04-26T14:50:29Z</time>
      </trkpt>
      <trkpt lat="50.12027" lon="4.11075">
        <ele>185.8</ele>
        <time>2024-04-26T14:50:30Z</time>
      </trkpt>
      <trkpt lat="50.12027" lon="4.11087">
        <ele>185.6</ele>
        <time>2024-04-26T14:50:31Z</time>
      </trkpt>
      <trkpt lat="50.12027" lon="4.11098">
        <ele>185.4</ele>
        <time>2024-04-26T14:50:32Z</time>
      </trkpt>
      <trkpt lat="50.12028" lon="4.11109">
        <ele>185.4</ele>
        <time>2024-04-26T14:50:33Z</time>
      </trkpt>
      <trkpt lat="50.12028" lon="4.1112">
        <ele>185.4</ele>
        <time>2024-04-26T14:50:34Z</time>
      </trkpt>
      <trkpt lat="50.12029" lon="4.1113">
        <ele>185.4</ele>
        <time>2024-04-26T14:50:35Z</time>
      </trkpt>
      <trkpt lat="50.12029" lon="4.1114">
        <ele>185.2</ele>
        <time>2024-04-26T14:50:36Z</time>
      </trkpt>
      <trkpt lat="50.12029" lon="4.1115">
        <ele>185.4</ele>
        <time>2024-04-26T14:50:37Z</time>
      </trkpt>
      <trkpt lat="50.1203" lon="4.11159">
        <ele>185.4</ele>
        <time>2024-04-26T14:50:38Z</time>
      </trkpt>
      <trkpt lat="50.1203" lon="4.11168">
        <ele>185.4</ele>
        <time>2024-04-26T14:50:39Z</time>
      </trkpt>
      <trkpt lat="50.12031" lon="4.11177">
        <ele>185.4</ele>
        <time>2024-04-26T14:50:40Z</time>
      </trkpt>
      <trkpt lat="50.12031" lon="4.11185">
        <ele>185.6</ele>
        <time>2024-04-26T14:50:41Z</time>
      </trkpt>
      <trkpt lat="50.12032" lon="4.11194">
        <ele>185.6</ele>
        <time>2024-04-26T14:50:42Z</time>
      </trkpt>
      <trkpt lat="50.12032" lon="4.11202">
        <ele>186</ele>
        <time>2024-04-26T14:50:43Z</time>
      </trkpt>
      <trkpt lat="50.12033" lon="4.1121">
        <ele>186.2</ele>
        <time>2024-04-26T14:50:44Z</time>
      </trkpt>
      <trkpt lat="50.12034" lon="4.11219">
        <ele>186.8</ele>
        <time>2024-04-26T14:50:45Z</time>
      </trkpt>
      <trkpt lat="50.12035" lon="4.11227">
        <ele>187.4</ele>
        <time>2024-04-26T14:50:46Z</time>
      </trkpt>
      <trkpt lat="50.12036" lon="4.11235">
        <ele>187.6</ele>
        <time>2024-04-26T14:50:47Z</time>
      </trkpt>
      <trkpt lat="50.12037" lon="4.11244">
        <ele>188.2</ele>
        <time>2024-04-26T14:50:48Z</time>
      </trkpt>
      <trkpt lat="50.12038" lon="4.11252">
        <ele>188.6</ele>
        <time>2024-04-26T14:50:49Z</time>
      </trkpt>
      <trkpt lat="50.12039" lon="4.1126">
        <ele>189.2</ele>
        <time>2024-04-26T14:50:50Z</time>
      </trkpt>
      <trkpt lat="50.12041" lon="4.11268">
        <ele>189.6</ele>
        <time>2024-04-26T14:50:51Z</time>
      </trkpt>
      <trkpt lat="50.12042" lon="4.11276">
        <ele>190</ele>
        <time>2024-04-26T14:50:52Z</time>
      </trkpt>
      <trkpt lat="50.12044" lon="4.11284">
        <ele>190</ele>
        <time>2024-04-26T14:50:53Z</time>
      </trkpt>
      <trkpt lat="50.12045" lon="4.11292">
        <ele>190.2</ele>
        <time>2024-04-26T14:50:54Z</time>
      </trkpt>
      <trkpt lat="50.12047" lon="4.11301">
        <ele>190.4</ele>
        <time>2024-04-26T14:50:55Z</time>
      </trkpt>
      <trkpt lat="50.12048" lon="4.11309">
        <ele>190.4</ele>
        <time>2024-04-26T14:50:56Z</time>
      </trkpt>
      <trkpt lat="50.1205" lon="4.11318">
        <ele>190.4</ele>
        <time>2024-04-26T14:50:57Z</time>
      </trkpt>
      <trkpt lat="50.12052" lon="4.11327">
        <ele>190.4</ele>
        <time>2024-04-26T14:50:58Z</time>
      </trkpt>
      <trkpt lat="50.12054" lon="4.11337">
        <ele>191</ele>
        <time>2024-04-26T14:50:59Z</time>
      </trkpt>
      <trkpt lat="50.12057" lon="4.11346">
        <ele>191.4</ele>
        <time>2024-04-26T14:51:00Z</time>
      </trkpt>
      <trkpt lat="50.12059" lon="4.11356">
        <ele>191.6</ele>
        <time>2024-04-26T14:51:01Z</time>
      </trkpt>
      <trkpt lat="50.12062" lon="4.11365">
        <ele>192</ele>
        <time>2024-04-26T14:51:02Z</time>
      </trkpt>
      <trkpt lat="50.12064" lon="4.11375">
        <ele>192.6</ele>
        <time>2024-04-26T14:51:03Z</time>
      </trkpt>
      <trkpt lat="50.12068" lon="4.11385">
        <ele>192.8</ele>
        <time>2024-04-26T14:51:04Z</time>
      </trkpt>
      <trkpt lat="50.12071" lon="4.11394">
        <ele>193</ele>
        <time>2024-04-26T14:51:05Z</time>
      </trkpt>
      <trkpt lat="50.12074" lon="4.11404">
        <ele>193</ele>
        <time>2024-04-26T14:51:06Z</time>
      </trkpt>
      <trkpt lat="50.12077" lon="4.11414">
        <ele>193.2</ele>
        <time>2024-04-26T14:51:07Z</time>
      </trkpt>
      <trkpt lat="50.12081" lon="4.11424">
        <ele>193.4</ele>
        <time>2024-04-26T14:51:08Z</time>
      </trkpt>
      <trkpt lat="50.12084" lon="4.11434">
        <ele>193.4</ele>
        <time>2024-04-26T14:51:09Z</time>
      </trkpt>
      <trkpt lat="50.12088" lon="4.11445">
        <ele>193.4</ele>
        <time>2024-04-26T14:51:10Z</time>
      </trkpt>
      <trkpt lat="50.12092" lon="4.11455">
        <ele>193.4</ele>
        <time>2024-04-26T14:51:11Z</time>
      </trkpt>
      <trkpt lat="50.12095" lon="4.11466">
        <ele>193.4</ele>
        <time>2024-04-26T14:51:12Z</time>
      </trkpt>
      <trkpt lat="50.12099" lon="4.11477">
        <ele>193.4</ele>
        <time>2024-04-26T14:51:13Z</time>
      </trkpt>
      <trkpt lat="50.12103" lon="4.11488">
        <ele>193.4</ele>
        <time>2024-04-26T14:51:14Z</time>
      </trkpt>
      <trkpt lat="50.12107" lon="4.11499">
        <ele>193.2</ele>
        <time>2024-04-26T14:51:15Z</time>
      </trkpt>
      <trkpt lat="50.12111" lon="4.1151">
        <ele>193.2</ele>
        <time>2024-04-26T14:51:16Z</time>
      </trkpt>
      <trkpt lat="50.12115" lon="4.11522">
        <ele>192.8</ele>
        <time>2024-04-26T14:51:17Z</time>
      </trkpt>
      <trkpt lat="50.1212" lon="4.11534">
        <ele>192.8</ele>
        <time>2024-04-26T14:51:18Z</time>
      </trkpt>
      <trkpt lat="50.12123" lon="4.11546">
        <ele>193</ele>
        <time>2024-04-26T14:51:19Z</time>
      </trkpt>
      <trkpt lat="50.12127" lon="4.11558">
        <ele>192.6</ele>
        <time>2024-04-26T14:51:20Z</time>
      </trkpt>
      <trkpt lat="50.12131" lon="4.1157">
        <ele>192.2</ele>
        <time>2024-04-26T14:51:21Z</time>
      </trkpt>
      <trkpt lat="50.12135" lon="4.11583">
        <ele>192</ele>
        <time>2024-04-26T14:51:22Z</time>
      </trkpt>
      <trkpt lat="50.12138" lon="4.11596">
        <ele>191.8</ele>
        <time>2024-04-26T14:51:23Z</time>
      </trkpt>
      <trkpt lat="50.12141" lon="4.11609">
        <ele>191.2</ele>
        <time>2024-04-26T14:51:24Z</time>
      </trkpt>
      <trkpt lat="50.12144" lon="4.11623">
        <ele>190.8</ele>
        <time>2024-04-26T14:51:25Z</time>
      </trkpt>
      <trkpt lat="50.12147" lon="4.11636">
        <ele>190.2</ele>
        <time>2024-04-26T14:51:26Z</time>
      </trkpt>
      <trkpt lat="50.1215" lon="4.1165">
        <ele>189.8</ele>
        <time>2024-04-26T14:51:27Z</time>
      </trkpt>
      <trkpt lat="50.12153" lon="4.11664">
        <ele>189.2</ele>
        <time>2024-04-26T14:51:28Z</time>
      </trkpt>
      <trkpt lat="50.12156" lon="4.11678">
        <ele>189</ele>
        <time>2024-04-26T14:51:29Z</time>
      </trkpt>
      <trkpt lat="50.12159" lon="4.11691">
        <ele>188.4</ele>
        <time>2024-04-26T14:51:30Z</time>
      </trkpt>
      <trkpt lat="50.12162" lon="4.11705">
        <ele>188</ele>
        <time>2024-04-26T14:51:31Z</time>
      </trkpt>
      <trkpt lat="50.12165" lon="4.11719">
        <ele>187.4</ele>
        <time>2024-04-26T14:51:32Z</time>
      </trkpt>
      <trkpt lat="50.12168" lon="4.11732">
        <ele>186.8</ele>
        <time>2024-04-26T14:51:33Z</time>
      </trkpt>
      <trkpt lat="50.1217" lon="4.11745">
        <ele>186.4</ele>
        <time>2024-04-26T14:51:34Z</time>
      </trkpt>
      <trkpt lat="50.12173" lon="4.11757">
        <ele>186.2</ele>
        <time>2024-04-26T14:51:35Z</time>
      </trkpt>
      <trkpt lat="50.12175" lon="4.1177">
        <ele>186</ele>
        <time>2024-04-26T14:51:36Z</time>
      </trkpt>
      <trkpt lat="50.12178" lon="4.11782">
        <ele>185.6</ele>
        <time>2024-04-26T14:51:37Z</time>
      </trkpt>
      <trkpt lat="50.1218" lon="4.11794">
        <ele>185.6</ele>
        <time>2024-04-26T14:51:38Z</time>
      </trkpt>
      <trkpt lat="50.12182" lon="4.11806">
        <ele>185.6</ele>
        <time>2024-04-26T14:51:39Z</time>
      </trkpt>
      <trkpt lat="50.12185" lon="4.11818">
        <ele>185.6</ele>
        <time>2024-04-26T14:51:40Z</time>
      </trkpt>
      <trkpt lat="50.12187" lon="4.11829">
        <ele>185.4</ele>
        <time>2024-04-26T14:51:41Z</time>
      </trkpt>
      <trkpt lat="50.12189" lon="4.1184">
        <ele>185.2</ele>
        <time>2024-04-26T14:51:42Z</time>
      </trkpt>
      <trkpt lat="50.12191" lon="4.11851">
        <ele>185.4</ele>
        <time>2024-04-26T14:51:43Z</time>
      </trkpt>
      <trkpt lat="50.12193" lon="4.11862">
        <ele>185.2</ele>
        <time>2024-04-26T14:51:44Z</time>
      </trkpt>
      <trkpt lat="50.12196" lon="4.11873">
        <ele>185.2</ele>
        <time>2024-04-26T14:51:45Z</time>
      </trkpt>
      <trkpt lat="50.12198" lon="4.11884">
        <ele>185</ele>
        <time>2024-04-26T14:51:46Z</time>
      </trkpt>
      <trkpt lat="50.122" lon="4.11895">
        <ele>185</ele>
        <time>2024-04-26T14:51:47Z</time>
      </trkpt>
      <trkpt lat="50.12202" lon="4.11905">
        <ele>185.2</ele>
        <time>2024-04-26T14:51:48Z</time>
      </trkpt>
      <trkpt lat="50.12204" lon="4.11916">
        <ele>185</ele>
        <time>2024-04-26T14:51:49Z</time>
      </trkpt>
      <trkpt lat="50.12206" lon="4.11926">
        <ele>185</ele>
        <time>2024-04-26T14:51:50Z</time>
      </trkpt>
      <trkpt lat="50.12208" lon="4.11937">
        <ele>185.2</ele>
        <time>2024-04-26T14:51:51Z</time>
      </trkpt>
      <trkpt lat="50.1221" lon="4.11947">
        <ele>185.2</ele>
        <time>2024-04-26T14:51:52Z</time>
      </trkpt>
      <trkpt lat="50.12212" lon="4.11957">
        <ele>185.2</ele>
        <time>2024-04-26T14:51:53Z</time>
      </trkpt>
      <trkpt lat="50.12214" lon="4.11967">
        <ele>185.4</ele>
        <time>2024-04-26T14:51:54Z</time>
      </trkpt>
      <trkpt lat="50.12216" lon="4.11977">
        <ele>185.4</ele>
        <time>2024-04-26T14:51:55Z</time>
      </trkpt>
      <trkpt lat="50.12218" lon="4.11987">
        <ele>185.6</ele>
        <time>2024-04-26T14:51:56Z</time>
      </trkpt>
      <trkpt lat="50.1222" lon="4.11996">
        <ele>185.6</ele>
        <time>2024-04-26T14:51:57Z</time>
      </trkpt>
      <trkpt lat="50.12221" lon="4.12005">
        <ele>185.6</ele>
        <time>2024-04-26T14:51:58Z</time>
      </trkpt>
      <trkpt lat="50.12223" lon="4.12015">
        <ele>186</ele>
        <time>2024-04-26T14:51:59Z</time>
      </trkpt>
      <trkpt lat="50.12225" lon="4.12024">
        <ele>186.4</ele>
        <time>2024-04-26T14:52:00Z</time>
      </trkpt>
      <trkpt lat="50.12226" lon="4.12033">
        <ele>186.4</ele>
        <time>2024-04-26T14:52:01Z</time>
      </trkpt>
      <trkpt lat="50.12227" lon="4.12042">
        <ele>186.6</ele>
        <time>2024-04-26T14:52:02Z</time>
      </trkpt>
      <trkpt lat="50.12228" lon="4.12051">
        <ele>186.8</ele>
        <time>2024-04-26T14:52:03Z</time>
      </trkpt>
      <trkpt lat="50.12229" lon="4.1206">
        <ele>187.2</ele>
        <time>2024-04-26T14:52:04Z</time>
      </trkpt>
      <trkpt lat="50.1223" lon="4.12069">
        <ele>187.6</ele>
        <time>2024-04-26T14:52:05Z</time>
      </trkpt>
      <trkpt lat="50.12231" lon="4.12078">
        <ele>187.8</ele>
        <time>2024-04-26T14:52:06Z</time>
      </trkpt>
      <trkpt lat="50.12232" lon="4.12087">
        <ele>188.2</ele>
        <time>2024-04-26T14:52:07Z</time>
      </trkpt>
      <trkpt lat="50.12233" lon="4.12096">
        <ele>188.4</ele>
        <time>2024-04-26T14:52:08Z</time>
      </trkpt>
      <trkpt lat="50.12234" lon="4.12106">
        <ele>188.8</ele>
        <time>2024-04-26T14:52:09Z</time>
      </trkpt>
      <trkpt lat="50.12235" lon="4.12115">
        <ele>189.2</ele>
        <time>2024-04-26T14:52:10Z</time>
      </trkpt>
      <trkpt lat="50.12236" lon="4.12125">
        <ele>189.6</ele>
        <time>2024-04-26T14:52:11Z</time>
      </trkpt>
      <trkpt lat="50.12236" lon="4.12134">
        <ele>190</ele>
        <time>2024-04-26T14:52:12Z</time>
      </trkpt>
      <trkpt lat="50.12237" lon="4.12144">
        <ele>190.4</ele>
        <time>2024-04-26T14:52:13Z</time>
      </trkpt>
      <trkpt lat="50.12238" lon="4.12154">
        <ele>190.6</ele>
        <time>2024-04-26T14:52:14Z</time>
      </trkpt>
      <trkpt lat="50.12239" lon="4.12164">
        <ele>191</ele>
        <time>2024-04-26T14:52:15Z</time>
      </trkpt>
      <trkpt lat="50.1224" lon="4.12175">
        <ele>191.4</ele>
        <time>2024-04-26T14:52:16Z</time>
      </trkpt>
      <trkpt lat="50.12241" lon="4.12185">
        <ele>191.6</ele>
        <time>2024-04-26T14:52:17Z</time>
      </trkpt>
      <trkpt lat="50.12242" lon="4.12196">
        <ele>191.8</ele>
        <time>2024-04-26T14:52:18Z</time>
      </trkpt>
      <trkpt lat="50.12243" lon="4.12206">
        <ele>191.8</ele>
        <time>2024-04-26T14:52:19Z</time>
      </trkpt>
      <trkpt lat="50.12245" lon="4.12217">
        <ele>192.2</ele>
        <time>2024-04-26T14:52:20Z</time>
      </trkpt>
      <trkpt lat="50.12246" lon="4.12227">
        <ele>192.4</ele>
        <time>2024-04-26T14:52:21Z</time>
      </trkpt>
      <trkpt lat="50.12248" lon="4.12238">
        <ele>192.4</ele>
        <time>2024-04-26T14:52:22Z</time>
      </trkpt>
      <trkpt lat="50.1225" lon="4.12248">
        <ele>192.4</ele>
        <time>2024-04-26T14:52:23Z</time>
      </trkpt>
      <trkpt lat="50.12252" lon="4.12259">
        <ele>192.4</ele>
        <time>2024-04-26T14:52:24Z</time>
      </trkpt>
      <trkpt lat="50.12254" lon="4.12269">
        <ele>192.6</ele>
        <time>2024-04-26T14:52:25Z</time>
      </trkpt>
      <trkpt lat="50.12256" lon="4.12279">
        <ele>192.6</ele>
        <time>2024-04-26T14:52:26Z</time>
      </trkpt>
      <trkpt lat="50.12258" lon="4.12289">
        <ele>192.6</ele>
        <time>2024-04-26T14:52:27Z</time>
      </trkpt>
      <trkpt lat="50.12261" lon="4.123">
        <ele>192.6</ele>
        <time>2024-04-26T14:52:28Z</time>
      </trkpt>
      <trkpt lat="50.12264" lon="4.1231">
        <ele>192.8</ele>
        <time>2024-04-26T14:52:29Z</time>
      </trkpt>
      <trkpt lat="50.12266" lon="4.1232">
        <ele>193</ele>
        <time>2024-04-26T14:52:30Z</time>
      </trkpt>
      <trkpt lat="50.12269" lon="4.12329">
        <ele>193</ele>
        <time>2024-04-26T14:52:31Z</time>
      </trkpt>
      <trkpt lat="50.12272" lon="4.12339">
        <ele>193</ele>
        <time>2024-04-26T14:52:32Z</time>
      </trkpt>
      <trkpt lat="50.12276" lon="4.12349">
        <ele>193.4</ele>
        <time>2024-04-26T14:52:33Z</time>
      </trkpt>
      <trkpt lat="50.12279" lon="4.12359">
        <ele>193.4</ele>
        <time>2024-04-26T14:52:34Z</time>
      </trkpt>
      <trkpt lat="50.12282" lon="4.12369">
        <ele>193.6</ele>
        <time>2024-04-26T14:52:35Z</time>
      </trkpt>
      <trkpt lat="50.12285" lon="4.12379">
        <ele>193.4</ele>
        <time>2024-04-26T14:52:36Z</time>
      </trkpt>
      <trkpt lat="50.12288" lon="4.12389">
        <ele>193.6</ele>
        <time>2024-04-26T14:52:37Z</time>
      </trkpt>
      <trkpt lat="50.12291" lon="4.12398">
        <ele>193.6</ele>
        <time>2024-04-26T14:52:38Z</time>
      </trkpt>
      <trkpt lat="50.12294" lon="4.12408">
        <ele>193.8</ele>
        <time>2024-04-26T14:52:39Z</time>
      </trkpt>
      <trkpt lat="50.12297" lon="4.12417">
        <ele>193.6</ele>
        <time>2024-04-26T14:52:40Z</time>
      </trkpt>
      <trkpt lat="50.123" lon="4.12426">
        <ele>193.8</ele>
        <time>2024-04-26T14:52:41Z</time>
      </trkpt>
      <trkpt lat="50.12303" lon="4.12436">
        <ele>193.8</ele>
        <time>2024-04-26T14:52:42Z</time>
      </trkpt>
      <trkpt lat="50.12306" lon="4.12444">
        <ele>193.8</ele>
        <time>2024-04-26T14:52:43Z</time>
      </trkpt>
      <trkpt lat="50.12309" lon="4.12453">
        <ele>193.8</ele>
        <time>2024-04-26T14:52:44Z</time>
      </trkpt>
      <trkpt lat="50.12312" lon="4.12462">
        <ele>193.8</ele>
        <time>2024-04-26T14:52:45Z</time>
      </trkpt>
      <trkpt lat="50.12316" lon="4.1247">
        <ele>194</ele>
        <time>2024-04-26T14:52:46Z</time>
      </trkpt>
      <trkpt lat="50.12319" lon="4.12478">
        <ele>194</ele>
        <time>2024-04-26T14:52:47Z</time>
      </trkpt>
      <trkpt lat="50.12323" lon="4.12485">
        <ele>194.2</ele>
        <time>2024-04-26T14:52:48Z</time>
      </trkpt>
      <trkpt lat="50.12328" lon="4.12492">
        <ele>194.2</ele>
        <time>2024-04-26T14:52:49Z</time>
      </trkpt>
      <trkpt lat="50.12332" lon="4.12499">
        <ele>194.4</ele>
        <time>2024-04-26T14:52:50Z</time>
      </trkpt>
      <trkpt lat="50.12336" lon="4.12505">
        <ele>194.6</ele>
        <time>2024-04-26T14:52:51Z</time>
      </trkpt>
      <trkpt lat="50.12341" lon="4.12511">
        <ele>194.6</ele>
        <time>2024-04-26T14:52:52Z</time>
      </trkpt>
      <trkpt lat="50.12345" lon="4.12518">
        <ele>195</ele>
        <time>2024-04-26T14:52:53Z</time>
      </trkpt>
      <trkpt lat="50.12349" lon="4.12524">
        <ele>195.2</ele>
        <time>2024-04-26T14:52:54Z</time>
      </trkpt>
      <trkpt lat="50.12354" lon="4.1253">
        <ele>195.8</ele>
        <time>2024-04-26T14:52:55Z</time>
      </trkpt>
      <trkpt lat="50.12358" lon="4.12536">
        <ele>196.2</ele>
        <time>2024-04-26T14:52:56Z</time>
      </trkpt>
      <trkpt lat="50.12363" lon="4.12543">
        <ele>196.6</ele>
        <time>2024-04-26T14:52:57Z</time>
      </trkpt>
      <trkpt lat="50.12368" lon="4.12549">
        <ele>197</ele>
        <time>2024-04-26T14:52:58Z</time>
      </trkpt>
      <trkpt lat="50.12372" lon="4.12555">
        <ele>197.4</ele>
        <time>2024-04-26T14:52:59Z</time>
      </trkpt>
      <trkpt lat="50.12377" lon="4.12562">
        <ele>198.2</ele>
        <time>2024-04-26T14:53:00Z</time>
      </trkpt>
      <trkpt lat="50.12381" lon="4.12568">
        <ele>198.6</ele>
        <time>2024-04-26T14:53:01Z</time>
      </trkpt>
      <trkpt lat="50.12386" lon="4.12575">
        <ele>198.8</ele>
        <time>2024-04-26T14:53:02Z</time>
      </trkpt>
      <trkpt lat="50.12391" lon="4.12581">
        <ele>199.2</ele>
        <time>2024-04-26T14:53:03Z</time>
      </trkpt>
      <trkpt lat="50.12396" lon="4.12588">
        <ele>199.6</ele>
        <time>2024-04-26T14:53:04Z</time>
      </trkpt>
      <trkpt lat="50.12401" lon="4.12595">
        <ele>199.6</ele>
        <time>2024-04-26T14:53:05Z</time>
      </trkpt>
      <trkpt lat="50.12406" lon="4.12602">
        <ele>199.8</ele>
        <time>2024-04-26T14:53:06Z</time>
      </trkpt>
      <trkpt lat="50.12412" lon="4.1261">
        <ele>199.8</ele>
        <time>2024-04-26T14:53:07Z</time>
      </trkpt>
      <trkpt lat="50.12417" lon="4.12618">
        <ele>200</ele>
        <time>2024-04-26T14:53:08Z</time>
      </trkpt>
      <trkpt lat="50.12423" lon="4.12625">
        <ele>200</ele>
        <time>2024-04-26T14:53:09Z</time>
      </trkpt>
      <trkpt lat="50.12428" lon="4.12634">
        <ele>200.2</ele>
        <time>2024-04-26T14:53:10Z</time>
      </trkpt>
      <trkpt lat="50.12433" lon="4.12642">
        <ele>200.2</ele>
        <time>2024-04-26T14:53:11Z</time>
      </trkpt>
      <trkpt lat="50.12439" lon="4.12651">
        <ele>200.2</ele>
        <time>2024-04-26T14:53:12Z</time>
      </trkpt>
      <trkpt lat="50.12444" lon="4.12661">
        <ele>200.2</ele>
        <time>2024-04-26T14:53:13Z</time>
      </trkpt>
      <trkpt lat="50.12448" lon="4.12671">
        <ele>200.2</ele>
        <time>2024-04-26T14:53:14Z</time>
      </trkpt>
      <trkpt lat="50.12453" lon="4.12681">
        <ele>200.2</ele>
        <time>2024-04-26T14:53:15Z</time>
      </trkpt>
      <trkpt lat="50.12457" lon="4.12692">
        <ele>200.2</ele>
        <time>2024-04-26T14:53:16Z</time>
      </trkpt>
      <trkpt lat="50.12461" lon="4.12703">
        <ele>200.2</ele>
        <time>2024-04-26T14:53:17Z</time>
      </trkpt>
      <trkpt lat="50.12465" lon="4.12714">
        <ele>200.2</ele>
        <time>2024-04-26T14:53:18Z</time>
      </trkpt>
      <trkpt lat="50.12467" lon="4.12725">
        <ele>200.2</ele>
        <time>2024-04-26T14:53:19Z</time>
      </trkpt>
      <trkpt lat="50.1247" lon="4.12736">
        <ele>200</ele>
        <time>2024-04-26T14:53:20Z</time>
      </trkpt>
      <trkpt lat="50.12472" lon="4.12747">
        <ele>199.8</ele>
        <time>2024-04-26T14:53:21Z</time>
      </trkpt>
      <trkpt lat="50.12474" lon="4.12758">
        <ele>199.8</ele>
        <time>2024-04-26T14:53:22Z</time>
      </trkpt>
      <trkpt lat="50.12476" lon="4.12768">
        <ele>199.8</ele>
        <time>2024-04-26T14:53:23Z</time>
      </trkpt>
      <trkpt lat="50.12477" lon="4.12778">
        <ele>199.8</ele>
        <time>2024-04-26T14:53:24Z</time>
      </trkpt>
      <trkpt lat="50.12479" lon="4.12789">
        <ele>199.8</ele>
        <time>2024-04-26T14:53:25Z</time>
      </trkpt>
      <trkpt lat="50.12479" lon="4.12798">
        <ele>199.8</ele>
        <time>2024-04-26T14:53:26Z</time>
      </trkpt>
      <trkpt lat="50.1248" lon="4.12808">
        <ele>200</ele>
        <time>2024-04-26T14:53:27Z</time>
      </trkpt>
      <trkpt lat="50.1248" lon="4.12818">
        <ele>199.8</ele>
        <time>2024-04-26T14:53:28Z</time>
      </trkpt>
      <trkpt lat="50.1248" lon="4.12827">
        <ele>199.8</ele>
        <time>2024-04-26T14:53:29Z</time>
      </trkpt>
      <trkpt lat="50.12481" lon="4.12836">
        <ele>199.8</ele>
        <time>2024-04-26T14:53:30Z</time>
      </trkpt>
      <trkpt lat="50.1248" lon="4.12845">
        <ele>199.8</ele>
        <time>2024-04-26T14:53:31Z</time>
      </trkpt>
      <trkpt lat="50.1248" lon="4.12853">
        <ele>199.8</ele>
        <time>2024-04-26T14:53:32Z</time>
      </trkpt>
      <trkpt lat="50.1248" lon="4.12861">
        <ele>200</ele>
        <time>2024-04-26T14:53:33Z</time>
      </trkpt>
      <trkpt lat="50.12479" lon="4.12869">
        <ele>200</ele>
        <time>2024-04-26T14:53:34Z</time>
      </trkpt>
      <trkpt lat="50.12478" lon="4.12877">
        <ele>200.6</ele>
        <time>2024-04-26T14:53:35Z</time>
      </trkpt>
      <trkpt lat="50.12477" lon="4.12884">
        <ele>201</ele>
        <time>2024-04-26T14:53:36Z</time>
      </trkpt>
      <trkpt lat="50.12476" lon="4.12891">
        <ele>201.4</ele>
        <time>2024-04-26T14:53:37Z</time>
      </trkpt>
      <trkpt lat="50.12475" lon="4.12898">
        <ele>201.8</ele>
        <time>2024-04-26T14:53:38Z</time>
      </trkpt>
      <trkpt lat="50.12474" lon="4.12904">
        <ele>202</ele>
        <time>2024-04-26T14:53:39Z</time>
      </trkpt>
      <trkpt lat="50.12473" lon="4.1291">
        <ele>202.4</ele>
        <time>2024-04-26T14:53:40Z</time>
      </trkpt>
      <trkpt lat="50.12473" lon="4.12917">
        <ele>203.2</ele>
        <time>2024-04-26T14:53:41Z</time>
      </trkpt>
      <trkpt lat="50.12472" lon="4.12923">
        <ele>203.6</ele>
        <time>2024-04-26T14:53:42Z</time>
      </trkpt>
      <trkpt lat="50.12471" lon="4.12928">
        <ele>203.8</ele>
        <time>2024-04-26T14:53:43Z</time>
      </trkpt>
      <trkpt lat="50.1247" lon="4.12934">
        <ele>204.6</ele>
        <time>2024-04-26T14:53:44Z</time>
      </trkpt>
      <trkpt lat="50.12469" lon="4.1294">
        <ele>204.6</ele>
        <time>2024-04-26T14:53:45Z</time>
      </trkpt>
      <trkpt lat="50.12469" lon="4.12945">
        <ele>205.4</ele>
        <time>2024-04-26T14:53:46Z</time>
      </trkpt>
      <trkpt lat="50.12468" lon="4.12951">
        <ele>205.8</ele>
        <time>2024-04-26T14:53:47Z</time>
      </trkpt>
      <trkpt lat="50.12467" lon="4.12956">
        <ele>206.4</ele>
        <time>2024-04-26T14:53:48Z</time>
      </trkpt>
      <trkpt lat="50.12466" lon="4.12962">
        <ele>207</ele>
        <time>2024-04-26T14:53:49Z</time>
      </trkpt>
      <trkpt lat="50.12465" lon="4.12969">
        <ele>207.4</ele>
        <time>2024-04-26T14:53:50Z</time>
      </trkpt>
      <trkpt lat="50.12464" lon="4.12975">
        <ele>207.4</ele>
        <time>2024-04-26T14:53:51Z</time>
      </trkpt>
      <trkpt lat="50.12463" lon="4.12982">
        <ele>207.8</ele>
        <time>2024-04-26T14:53:52Z</time>
      </trkpt>
      <trkpt lat="50.12462" lon="4.12988">
        <ele>208.4</ele>
        <time>2024-04-26T14:53:53Z</time>
      </trkpt>
      <trkpt lat="50.12461" lon="4.12994">
        <ele>208.8</ele>
        <time>2024-04-26T14:53:54Z</time>
      </trkpt>
      <trkpt lat="50.1246" lon="4.13">
        <ele>209.8</ele>
        <time>2024-04-26T14:53:55Z</time>
      </trkpt>
      <trkpt lat="50.12459" lon="4.13006">
        <ele>210.2</ele>
        <time>2024-04-26T14:53:56Z</time>
      </trkpt>
      <trkpt lat="50.12458" lon="4.13012">
        <ele>210.6</ele>
        <time>2024-04-26T14:53:57Z</time>
      </trkpt>
      <trkpt lat="50.12458" lon="4.13018">
        <ele>210.8</ele>
        <time>2024-04-26T14:53:58Z</time>
      </trkpt>
      <trkpt lat="50.12457" lon="4.13024">
        <ele>211.2</ele>
        <time>2024-04-26T14:53:59Z</time>
      </trkpt>
      <trkpt lat="50.12456" lon="4.1303">
        <ele>211.6</ele>
        <time>2024-04-26T14:54:00Z</time>
      </trkpt>
      <trkpt lat="50.12455" lon="4.13036">
        <ele>212</ele>
        <time>2024-04-26T14:54:01Z</time>
      </trkpt>
      <trkpt lat="50.12454" lon="4.13042">
        <ele>212.2</ele>
        <time>2024-04-26T14:54:02Z</time>
      </trkpt>
      <trkpt lat="50.12453" lon="4.13048">
        <ele>212.6</ele>
        <time>2024-04-26T14:54:03Z</time>
      </trkpt>
      <trkpt lat="50.12452" lon="4.13054">
        <ele>213.2</ele>
        <time>2024-04-26T14:54:04Z</time>
      </trkpt>
      <trkpt lat="50.12451" lon="4.1306">
        <ele>213.6</ele>
        <time>2024-04-26T14:54:05Z</time>
      </trkpt>
      <trkpt lat="50.1245" lon="4.13066">
        <ele>214</ele>
        <time>2024-04-26T14:54:06Z</time>
      </trkpt>
      <trkpt lat="50.12449" lon="4.13072">
        <ele>214.2</ele>
        <time>2024-04-26T14:54:07Z</time>
      </trkpt>
      <trkpt lat="50.12447" lon="4.13078">
        <ele>214.6</ele>
        <time>2024-04-26T14:54:08Z</time>
      </trkpt>
      <trkpt lat="50.12446" lon="4.13084">
        <ele>215.2</ele>
        <time>2024-04-26T14:54:09Z</time>
      </trkpt>
      <trkpt lat="50.12445" lon="4.1309">
        <ele>215.6</ele>
        <time>2024-04-26T14:54:10Z</time>
      </trkpt>
      <trkpt lat="50.12443" lon="4.13096">
        <ele>215.8</ele>
        <time>2024-04-26T14:54:11Z</time>
      </trkpt>
      <trkpt lat="50.12442" lon="4.13102">
        <ele>216.2</ele>
        <time>2024-04-26T14:54:12Z</time>
      </trkpt>
      <trkpt lat="50.1244" lon="4.13109">
        <ele>216.2</ele>
        <time>2024-04-26T14:54:13Z</time>
      </trkpt>
      <trkpt lat="50.12439" lon="4.13115">
        <ele>216.4</ele>
        <time>2024-04-26T14:54:14Z</time>
      </trkpt>
      <trkpt lat="50.12437" lon="4.13121">
        <ele>216.4</ele>
        <time>2024-04-26T14:54:15Z</time>
      </trkpt>
      <trkpt lat="50.12435" lon="4.13128">
        <ele>216.8</ele>
        <time>2024-04-26T14:54:16Z</time>
      </trkpt>
      <trkpt lat="50.12433" lon="4.13134">
        <ele>217</ele>
        <time>2024-04-26T14:54:17Z</time>
      </trkpt>
      <trkpt lat="50.12431" lon="4.13141">
        <ele>217.2</ele>
        <time>2024-04-26T14:54:18Z</time>
      </trkpt>
      <trkpt lat="50.1243" lon="4.13148">
        <ele>217.4</ele>
        <time>2024-04-26T14:54:19Z</time>
      </trkpt>
      <trkpt lat="50.12427" lon="4.13155">
        <ele>217.8</ele>
        <time>2024-04-26T14:54:20Z</time>
      </trkpt>
      <trkpt lat="50.12426" lon="4.13163">
        <ele>218.2</ele>
        <time>2024-04-26T14:54:21Z</time>
      </trkpt>
      <trkpt lat="50.12423" lon="4.1317">
        <ele>218.4</ele>
        <time>2024-04-26T14:54:22Z</time>
      </trkpt>
      <trkpt lat="50.12421" lon="4.13177">
        <ele>218.6</ele>
        <time>2024-04-26T14:54:23Z</time>
      </trkpt>
      <trkpt lat="50.12419" lon="4.13185">
        <ele>218.6</ele>
        <time>2024-04-26T14:54:24Z</time>
      </trkpt>
      <trkpt lat="50.12416" lon="4.13193">
        <ele>218.8</ele>
        <time>2024-04-26T14:54:25Z</time>
      </trkpt>
      <trkpt lat="50.12414" lon="4.13201">
        <ele>218.8</ele>
        <time>2024-04-26T14:54:26Z</time>
      </trkpt>
      <trkpt lat="50.12411" lon="4.13209">
        <ele>219</ele>
        <time>2024-04-26T14:54:27Z</time>
      </trkpt>
      <trkpt lat="50.12408" lon="4.13218">
        <ele>219.2</ele>
        <time>2024-04-26T14:54:28Z</time>
      </trkpt>
      <trkpt lat="50.12406" lon="4.13227">
        <ele>219.6</ele>
        <time>2024-04-26T14:54:29Z</time>
      </trkpt>
      <trkpt lat="50.12403" lon="4.13235">
        <ele>219.6</ele>
        <time>2024-04-26T14:54:30Z</time>
      </trkpt>
      <trkpt lat="50.124" lon="4.13245">
        <ele>219.8</ele>
        <time>2024-04-26T14:54:31Z</time>
      </trkpt>
      <trkpt lat="50.12397" lon="4.13254">
        <ele>219.8</ele>
        <time>2024-04-26T14:54:32Z</time>
      </trkpt>
      <trkpt lat="50.12394" lon="4.13263">
        <ele>219.8</ele>
        <time>2024-04-26T14:54:33Z</time>
      </trkpt>
      <trkpt lat="50.12391" lon="4.13273">
        <ele>219.8</ele>
        <time>2024-04-26T14:54:34Z</time>
      </trkpt>
      <trkpt lat="50.12388" lon="4.13283">
        <ele>219.8</ele>
        <time>2024-04-26T14:54:35Z</time>
      </trkpt>
      <trkpt lat="50.12385" lon="4.13292">
        <ele>219.8</ele>
        <time>2024-04-26T14:54:36Z</time>
      </trkpt>
      <trkpt lat="50.12382" lon="4.13302">
        <ele>219.8</ele>
        <time>2024-04-26T14:54:37Z</time>
      </trkpt>
      <trkpt lat="50.12378" lon="4.13313">
        <ele>219.8</ele>
        <time>2024-04-26T14:54:38Z</time>
      </trkpt>
      <trkpt lat="50.12375" lon="4.13323">
        <ele>219.8</ele>
        <time>2024-04-26T14:54:39Z</time>
      </trkpt>
      <trkpt lat="50.12372" lon="4.13334">
        <ele>219.6</ele>
        <time>2024-04-26T14:54:40Z</time>
      </trkpt>
      <trkpt lat="50.12369" lon="4.13345">
        <ele>219.6</ele>
        <time>2024-04-26T14:54:41Z</time>
      </trkpt>
      <trkpt lat="50.12365" lon="4.13356">
        <ele>219.4</ele>
        <time>2024-04-26T14:54:42Z</time>
      </trkpt>
      <trkpt lat="50.12361" lon="4.13368">
        <ele>219.2</ele>
        <time>2024-04-26T14:54:43Z</time>
      </trkpt>
      <trkpt lat="50.12357" lon="4.13379">
        <ele>219</ele>
        <time>2024-04-26T14:54:44Z</time>
      </trkpt>
      <trkpt lat="50.12353" lon="4.13392">
        <ele>218.8</ele>
        <time>2024-04-26T14:54:45Z</time>
      </trkpt>
      <trkpt lat="50.12349" lon="4.13405">
        <ele>218.8</ele>
        <time>2024-04-26T14:54:46Z</time>
      </trkpt>
      <trkpt lat="50.12344" lon="4.13418">
        <ele>218.6</ele>
        <time>2024-04-26T14:54:47Z</time>
      </trkpt>
      <trkpt lat="50.12339" lon="4.13432">
        <ele>218.2</ele>
        <time>2024-04-26T14:54:48Z</time>
      </trkpt>
      <trkpt lat="50.12334" lon="4.13446">
        <ele>218</ele>
        <time>2024-04-26T14:54:49Z</time>
      </trkpt>
      <trkpt lat="50.12328" lon="4.13461">
        <ele>218</ele>
        <time>2024-04-26T14:54:50Z</time>
      </trkpt>
      <trkpt lat="50.12322" lon="4.13476">
        <ele>217.4</ele>
        <time>2024-04-26T14:54:51Z</time>
      </trkpt>
      <trkpt lat="50.12316" lon="4.13492">
        <ele>216.8</ele>
        <time>2024-04-26T14:54:52Z</time>
      </trkpt>
      <trkpt lat="50.12309" lon="4.13507">
        <ele>216.2</ele>
        <time>2024-04-26T14:54:53Z</time>
      </trkpt>
      <trkpt lat="50.12301" lon="4.13523">
        <ele>215.4</ele>
        <time>2024-04-26T14:54:54Z</time>
      </trkpt>
      <trkpt lat="50.12294" lon="4.13539">
        <ele>214.6</ele>
        <time>2024-04-26T14:54:55Z</time>
      </trkpt>
      <trkpt lat="50.12286" lon="4.13554">
        <ele>213.8</ele>
        <time>2024-04-26T14:54:56Z</time>
      </trkpt>
      <trkpt lat="50.12279" lon="4.13569">
        <ele>213.8</ele>
        <time>2024-04-26T14:54:57Z</time>
      </trkpt>
      <trkpt lat="50.12271" lon="4.13585">
        <ele>212.2</ele>
        <time>2024-04-26T14:54:58Z</time>
      </trkpt>
      <trkpt lat="50.12264" lon="4.136">
        <ele>210.6</ele>
        <time>2024-04-26T14:54:59Z</time>
      </trkpt>
      <trkpt lat="50.12257" lon="4.13614">
        <ele>209.2</ele>
        <time>2024-04-26T14:55:00Z</time>
      </trkpt>
      <trkpt lat="50.1225" lon="4.13629">
        <ele>208</ele>
        <time>2024-04-26T14:55:01Z</time>
      </trkpt>
      <trkpt lat="50.12243" lon="4.13643">
        <ele>206.8</ele>
        <time>2024-04-26T14:55:02Z</time>
      </trkpt>
      <trkpt lat="50.12237" lon="4.13656">
        <ele>205.4</ele>
        <time>2024-04-26T14:55:03Z</time>
      </trkpt>
      <trkpt lat="50.12231" lon="4.13669">
        <ele>204.4</ele>
        <time>2024-04-26T14:55:04Z</time>
      </trkpt>
      <trkpt lat="50.12225" lon="4.13681">
        <ele>203.6</ele>
        <time>2024-04-26T14:55:05Z</time>
      </trkpt>
      <trkpt lat="50.12219" lon="4.13692">
        <ele>203.2</ele>
        <time>2024-04-26T14:55:06Z</time>
      </trkpt>
      <trkpt lat="50.12214" lon="4.13702">
        <ele>202.8</ele>
        <time>2024-04-26T14:55:07Z</time>
      </trkpt>
      <trkpt lat="50.12209" lon="4.13712">
        <ele>202.8</ele>
        <time>2024-04-26T14:55:08Z</time>
      </trkpt>
      <trkpt lat="50.12205" lon="4.13721">
        <ele>202.8</ele>
        <time>2024-04-26T14:55:09Z</time>
      </trkpt>
      <trkpt lat="50.12201" lon="4.1373">
        <ele>202.8</ele>
        <time>2024-04-26T14:55:10Z</time>
      </trkpt>
      <trkpt lat="50.12197" lon="4.13738">
        <ele>202.8</ele>
        <time>2024-04-26T14:55:11Z</time>
      </trkpt>
      <trkpt lat="50.12194" lon="4.13746">
        <ele>202.8</ele>
        <time>2024-04-26T14:55:12Z</time>
      </trkpt>
      <trkpt lat="50.1219" lon="4.13753">
        <ele>202.8</ele>
        <time>2024-04-26T14:55:13Z</time>
      </trkpt>
      <trkpt lat="50.12187" lon="4.1376">
        <ele>202.8</ele>
        <time>2024-04-26T14:55:14Z</time>
      </trkpt>
      <trkpt lat="50.12184" lon="4.13766">
        <ele>203</ele>
        <time>2024-04-26T14:55:15Z</time>
      </trkpt>
      <trkpt lat="50.12181" lon="4.13772">
        <ele>204.2</ele>
        <time>2024-04-26T14:55:16Z</time>
      </trkpt>
      <trkpt lat="50.12178" lon="4.13778">
        <ele>204.8</ele>
        <time>2024-04-26T14:55:17Z</time>
      </trkpt>
      <trkpt lat="50.12176" lon="4.13784">
        <ele>205.8</ele>
        <time>2024-04-26T14:55:18Z</time>
      </trkpt>
      <trkpt lat="50.12173" lon="4.13789">
        <ele>205.8</ele>
        <time>2024-04-26T14:55:19Z</time>
      </trkpt>
      <trkpt lat="50.12171" lon="4.13794">
        <ele>206.2</ele>
        <time>2024-04-26T14:55:20Z</time>
      </trkpt>
      <trkpt lat="50.12169" lon="4.138">
        <ele>206.8</ele>
        <time>2024-04-26T14:55:21Z</time>
      </trkpt>
      <trkpt lat="50.12167" lon="4.13805">
        <ele>207.4</ele>
        <time>2024-04-26T14:55:22Z</time>
      </trkpt>
      <trkpt lat="50.12165" lon="4.1381">
        <ele>208.2</ele>
        <time>2024-04-26T14:55:23Z</time>
      </trkpt>
      <trkpt lat="50.12162" lon="4.13816">
        <ele>208.8</ele>
        <time>2024-04-26T14:55:24Z</time>
      </trkpt>
      <trkpt lat="50.12161" lon="4.13821">
        <ele>209.4</ele>
        <time>2024-04-26T14:55:25Z</time>
      </trkpt>
      <trkpt lat="50.12159" lon="4.13827">
        <ele>210</ele>
        <time>2024-04-26T14:55:26Z</time>
      </trkpt>
      <trkpt lat="50.12157" lon="4.13833">
        <ele>210.6</ele>
        <time>2024-04-26T14:55:27Z</time>
      </trkpt>
      <trkpt lat="50.12156" lon="4.13839">
        <ele>211.2</ele>
        <time>2024-04-26T14:55:28Z</time>
      </trkpt>
      <trkpt lat="50.12154" lon="4.13844">
        <ele>212</ele>
        <time>2024-04-26T14:55:29Z</time>
      </trkpt>
      <trkpt lat="50.12153" lon="4.1385">
        <ele>212.4</ele>
        <time>2024-04-26T14:55:30Z</time>
      </trkpt>
      <trkpt lat="50.12152" lon="4.13855">
        <ele>212.6</ele>
        <time>2024-04-26T14:55:31Z</time>
      </trkpt>
      <trkpt lat="50.1215" lon="4.13861">
        <ele>213.2</ele>
        <time>2024-04-26T14:55:32Z</time>
      </trkpt>
      <trkpt lat="50.12149" lon="4.13867">
        <ele>213.8</ele>
        <time>2024-04-26T14:55:33Z</time>
      </trkpt>
      <trkpt lat="50.12148" lon="4.13872">
        <ele>214.4</ele>
        <time>2024-04-26T14:55:34Z</time>
      </trkpt>
      <trkpt lat="50.12147" lon="4.13878">
        <ele>214.6</ele>
        <time>2024-04-26T14:55:35Z</time>
      </trkpt>
      <trkpt lat="50.12146" lon="4.13884">
        <ele>215.2</ele>
        <time>2024-04-26T14:55:36Z</time>
      </trkpt>
      <trkpt lat="50.12145" lon="4.1389">
        <ele>215.6</ele>
        <time>2024-04-26T14:55:37Z</time>
      </trkpt>
      <trkpt lat="50.12143" lon="4.13895">
        <ele>216</ele>
        <time>2024-04-26T14:55:38Z</time>
      </trkpt>
      <trkpt lat="50.12143" lon="4.13901">
        <ele>216.2</ele>
        <time>2024-04-26T14:55:39Z</time>
      </trkpt>
      <trkpt lat="50.12142" lon="4.13907">
        <ele>216.6</ele>
        <time>2024-04-26T14:55:40Z</time>
      </trkpt>
      <trkpt lat="50.12141" lon="4.13913">
        <ele>216.6</ele>
        <time>2024-04-26T14:55:41Z</time>
      </trkpt>
      <trkpt lat="50.1214" lon="4.13919">
        <ele>217.2</ele>
        <time>2024-04-26T14:55:42Z</time>
      </trkpt>
      <trkpt lat="50.1214" lon="4.13925">
        <ele>217.4</ele>
        <time>2024-04-26T14:55:43Z</time>
      </trkpt>
      <trkpt lat="50.12139" lon="4.13931">
        <ele>217.8</ele>
        <time>2024-04-26T14:55:44Z</time>
      </trkpt>
      <trkpt lat="50.12139" lon="4.13938">
        <ele>218.2</ele>
        <time>2024-04-26T14:55:45Z</time>
      </trkpt>
      <trkpt lat="50.12138" lon="4.13944">
        <ele>218.4</ele>
        <time>2024-04-26T14:55:46Z</time>
      </trkpt>
      <trkpt lat="50.12138" lon="4.1395">
        <ele>218.8</ele>
        <time>2024-04-26T14:55:47Z</time>
      </trkpt>
      <trkpt lat="50.12137" lon="4.13957">
        <ele>219</ele>
        <time>2024-04-26T14:55:48Z</time>
      </trkpt>
      <trkpt lat="50.12137" lon="4.13963">
        <ele>219.2</ele>
        <time>2024-04-26T14:55:49Z</time>
      </trkpt>
      <trkpt lat="50.12137" lon="4.1397">
        <ele>219.4</ele>
        <time>2024-04-26T14:55:50Z</time>
      </trkpt>
      <trkpt lat="50.12136" lon="4.13977">
        <ele>219.8</ele>
        <time>2024-04-26T14:55:51Z</time>
      </trkpt>
      <trkpt lat="50.12136" lon="4.13983">
        <ele>220</ele>
        <time>2024-04-26T14:55:52Z</time>
      </trkpt>
      <trkpt lat="50.12136" lon="4.1399">
        <ele>220.4</ele>
        <time>2024-04-26T14:55:53Z</time>
      </trkpt>
      <trkpt lat="50.12136" lon="4.13997">
        <ele>220.8</ele>
        <time>2024-04-26T14:55:54Z</time>
      </trkpt>
      <trkpt lat="50.12137" lon="4.14004">
        <ele>221</ele>
        <time>2024-04-26T14:55:55Z</time>
      </trkpt>
      <trkpt lat="50.12137" lon="4.14012">
        <ele>221.6</ele>
        <time>2024-04-26T14:55:56Z</time>
      </trkpt>
      <trkpt lat="50.12138" lon="4.14019">
        <ele>222.4</ele>
        <time>2024-04-26T14:55:57Z</time>
      </trkpt>
      <trkpt lat="50.12139" lon="4.14027">
        <ele>223</ele>
        <time>2024-04-26T14:55:58Z</time>
      </trkpt>
      <trkpt lat="50.1214" lon="4.14034">
        <ele>223.4</ele>
        <time>2024-04-26T14:55:59Z</time>
      </trkpt>
      <trkpt lat="50.1214" lon="4.14042">
        <ele>223.6</ele>
        <time>2024-04-26T14:56:00Z</time>
      </trkpt>
      <trkpt lat="50.12142" lon="4.1405">
        <ele>223.8</ele>
        <time>2024-04-26T14:56:01Z</time>
      </trkpt>
      <trkpt lat="50.12143" lon="4.14058">
        <ele>224.2</ele>
        <time>2024-04-26T14:56:02Z</time>
      </trkpt>
      <trkpt lat="50.12144" lon="4.14066">
        <ele>224.2</ele>
        <time>2024-04-26T14:56:03Z</time>
      </trkpt>
      <trkpt lat="50.12146" lon="4.14075">
        <ele>224.4</ele>
        <time>2024-04-26T14:56:04Z</time>
      </trkpt>
      <trkpt lat="50.12147" lon="4.14083">
        <ele>224.6</ele>
        <time>2024-04-26T14:56:05Z</time>
      </trkpt>
      <trkpt lat="50.12149" lon="4.14092">
        <ele>224.6</ele>
        <time>2024-04-26T14:56:06Z</time>
      </trkpt>
      <trkpt lat="50.12151" lon="4.14101">
        <ele>224.6</ele>
        <time>2024-04-26T14:56:07Z</time>
      </trkpt>
      <trkpt lat="50.12154" lon="4.14111">
        <ele>225</ele>
        <time>2024-04-26T14:56:08Z</time>
      </trkpt>
      <trkpt lat="50.12156" lon="4.1412">
        <ele>225.2</ele>
        <time>2024-04-26T14:56:09Z</time>
      </trkpt>
      <trkpt lat="50.12159" lon="4.14129">
        <ele>225.2</ele>
        <time>2024-04-26T14:56:10Z</time>
      </trkpt>
      <trkpt lat="50.12162" lon="4.14138">
        <ele>225.4</ele>
        <time>2024-04-26T14:56:11Z</time>
      </trkpt>
      <trkpt lat="50.12165" lon="4.14147">
        <ele>225.4</ele>
        <time>2024-04-26T14:56:12Z</time>
      </trkpt>
      <trkpt lat="50.12168" lon="4.14156">
        <ele>225.4</ele>
        <time>2024-04-26T14:56:13Z</time>
      </trkpt>
      <trkpt lat="50.12172" lon="4.14166">
        <ele>225.4</ele>
        <time>2024-04-26T14:56:14Z</time>
      </trkpt>
      <trkpt lat="50.12176" lon="4.14175">
        <ele>225.4</ele>
        <time>2024-04-26T14:56:15Z</time>
      </trkpt>
      <trkpt lat="50.1218" lon="4.14184">
        <ele>225.4</ele>
        <time>2024-04-26T14:56:16Z</time>
      </trkpt>
      <trkpt lat="50.12184" lon="4.14194">
        <ele>225.6</ele>
        <time>2024-04-26T14:56:17Z</time>
      </trkpt>
      <trkpt lat="50.12189" lon="4.14203">
        <ele>225.4</ele>
        <time>2024-04-26T14:56:18Z</time>
      </trkpt>
      <trkpt lat="50.12194" lon="4.14213">
        <ele>225.4</ele>
        <time>2024-04-26T14:56:19Z</time>
      </trkpt>
      <trkpt lat="50.12199" lon="4.14224">
        <ele>225.2</ele>
        <time>2024-04-26T14:56:20Z</time>
      </trkpt>
      <trkpt lat="50.12204" lon="4.14235">
        <ele>225</ele>
        <time>2024-04-26T14:56:21Z</time>
      </trkpt>
      <trkpt lat="50.1221" lon="4.14247">
        <ele>224.8</ele>
        <time>2024-04-26T14:56:22Z</time>
      </trkpt>
      <trkpt lat="50.12216" lon="4.14259">
        <ele>224.6</ele>
        <time>2024-04-26T14:56:23Z</time>
      </trkpt>
      <trkpt lat="50.12222" lon="4.14272">
        <ele>224.8</ele>
        <time>2024-04-26T14:56:24Z</time>
      </trkpt>
      <trkpt lat="50.12228" lon="4.14286">
        <ele>224.8</ele>
        <time>2024-04-26T14:56:25Z</time>
      </trkpt>
      <trkpt lat="50.12234" lon="4.143">
        <ele>224.4</ele>
        <time>2024-04-26T14:56:26Z</time>
      </trkpt>
      <trkpt lat="50.12241" lon="4.14313">
        <ele>223.8</ele>
        <time>2024-04-26T14:56:27Z</time>
      </trkpt>
      <trkpt lat="50.12247" lon="4.14328">
        <ele>223.2</ele>
        <time>2024-04-26T14:56:28Z</time>
      </trkpt>
      <trkpt lat="50.12254" lon="4.14342">
        <ele>222.6</ele>
        <time>2024-04-26T14:56:29Z</time>
      </trkpt>
      <trkpt lat="50.1226" lon="4.14356">
        <ele>221.8</ele>
        <time>2024-04-26T14:56:30Z</time>
      </trkpt>
      <trkpt lat="50.12266" lon="4.14369">
        <ele>220.8</ele>
        <time>2024-04-26T14:56:31Z</time>
      </trkpt>
      <trkpt lat="50.12273" lon="4.14383">
        <ele>219.8</ele>
        <time>2024-04-26T14:56:32Z</time>
      </trkpt>
      <trkpt lat="50.12279" lon="4.14396">
        <ele>219</ele>
        <time>2024-04-26T14:56:33Z</time>
      </trkpt>
      <trkpt lat="50.12285" lon="4.14409">
        <ele>217.6</ele>
        <time>2024-04-26T14:56:34Z</time>
      </trkpt>
      <trkpt lat="50.12291" lon="4.14421">
        <ele>216.6</ele>
        <time>2024-04-26T14:56:35Z</time>
      </trkpt>
      <trkpt lat="50.12296" lon="4.14433">
        <ele>215.8</ele>
        <time>2024-04-26T14:56:36Z</time>
      </trkpt>
      <trkpt lat="50.12301" lon="4.14445">
        <ele>215</ele>
        <time>2024-04-26T14:56:37Z</time>
      </trkpt>
      <trkpt lat="50.12306" lon="4.14456">
        <ele>214.8</ele>
        <time>2024-04-26T14:56:38Z</time>
      </trkpt>
      <trkpt lat="50.12311" lon="4.14466">
        <ele>214.4</ele>
        <time>2024-04-26T14:56:39Z</time>
      </trkpt>
      <trkpt lat="50.12316" lon="4.14476">
        <ele>214.4</ele>
        <time>2024-04-26T14:56:40Z</time>
      </trkpt>
      <trkpt lat="50.1232" lon="4.14485">
        <ele>214.4</ele>
        <time>2024-04-26T14:56:41Z</time>
      </trkpt>
      <trkpt lat="50.12324" lon="4.14494">
        <ele>214.2</ele>
        <time>2024-04-26T14:56:42Z</time>
      </trkpt>
      <trkpt lat="50.12328" lon="4.14502">
        <ele>214.2</ele>
        <time>2024-04-26T14:56:43Z</time>
      </trkpt>
      <trkpt lat="50.12332" lon="4.1451">
        <ele>214.2</ele>
        <time>2024-04-26T14:56:44Z</time>
      </trkpt>
      <trkpt lat="50.12335" lon="4.14518">
        <ele>214.2</ele>
        <time>2024-04-26T14:56:45Z</time>
      </trkpt>
      <trkpt lat="50.12339" lon="4.14525">
        <ele>214.2</ele>
        <time>2024-04-26T14:56:46Z</time>
      </trkpt>
      <trkpt lat="50.12342" lon="4.14533">
        <ele>214.2</ele>
        <time>2024-04-26T14:56:47Z</time>
      </trkpt>
      <trkpt lat="50.12346" lon="4.1454">
        <ele>214.4</ele>
        <time>2024-04-26T14:56:48Z</time>
      </trkpt>
      <trkpt lat="50.12349" lon="4.14547">
        <ele>214.6</ele>
        <time>2024-04-26T14:56:49Z</time>
      </trkpt>
      <trkpt lat="50.12353" lon="4.14554">
        <ele>215.2</ele>
        <time>2024-04-26T14:56:50Z</time>
      </trkpt>
      <trkpt lat="50.12356" lon="4.14561">
        <ele>216</ele>
        <time>2024-04-26T14:56:51Z</time>
      </trkpt>
      <trkpt lat="50.12359" lon="4.14569">
        <ele>216.2</ele>
        <time>2024-04-26T14:56:52Z</time>
      </trkpt>
      <trkpt lat="50.12363" lon="4.14576">
        <ele>216.4</ele>
        <time>2024-04-26T14:56:53Z</time>
      </trkpt>
      <trkpt lat="50.12366" lon="4.14583">
        <ele>216.6</ele>
        <time>2024-04-26T14:56:54Z</time>
      </trkpt>
      <trkpt lat="50.12369" lon="4.1459">
        <ele>217</ele>
        <time>2024-04-26T14:56:55Z</time>
      </trkpt>
      <trkpt lat="50.12373" lon="4.14598">
        <ele>217.6</ele>
        <time>2024-04-26T14:56:56Z</time>
      </trkpt>
      <trkpt lat="50.12376" lon="4.14605">
        <ele>218.4</ele>
        <time>2024-04-26T14:56:57Z</time>
      </trkpt>
      <trkpt lat="50.1238" lon="4.14613">
        <ele>219</ele>
        <time>2024-04-26T14:56:58Z</time>
      </trkpt>
      <trkpt lat="50.12383" lon="4.1462">
        <ele>219.4</ele>
        <time>2024-04-26T14:56:59Z</time>
      </trkpt>
      <trkpt lat="50.12387" lon="4.14628">
        <ele>219.6</ele>
        <time>2024-04-26T14:57:00Z</time>
      </trkpt>
      <trkpt lat="50.12391" lon="4.14636">
        <ele>219.8</ele>
        <time>2024-04-26T14:57:01Z</time>
      </trkpt>
      <trkpt lat="50.12394" lon="4.14644">
        <ele>220</ele>
        <time>2024-04-26T14:57:02Z</time>
      </trkpt>
      <trkpt lat="50.12398" lon="4.14652">
        <ele>220.2</ele>
        <time>2024-04-26T14:57:03Z</time>
      </trkpt>
      <trkpt lat="50.12402" lon="4.1466">
        <ele>220.2</ele>
        <time>2024-04-26T14:57:04Z</time>
      </trkpt>
      <trkpt lat="50.12406" lon="4.14668">
        <ele>220.2</ele>
        <time>2024-04-26T14:57:05Z</time>
      </trkpt>
      <trkpt lat="50.1241" lon="4.14676">
        <ele>220.2</ele>
        <time>2024-04-26T14:57:06Z</time>
      </trkpt>
      <trkpt lat="50.12414" lon="4.14684">
        <ele>220.4</ele>
        <time>2024-04-26T14:57:07Z</time>
      </trkpt>
      <trkpt lat="50.12419" lon="4.14692">
        <ele>220.4</ele>
        <time>2024-04-26T14:57:08Z</time>
      </trkpt>
      <trkpt lat="50.12424" lon="4.147">
        <ele>220.4</ele>
        <time>2024-04-26T14:57:09Z</time>
      </trkpt>
      <trkpt lat="50.12429" lon="4.14707">
        <ele>220.8</ele>
        <time>2024-04-26T14:57:10Z</time>
      </trkpt>
      <trkpt lat="50.12435" lon="4.14714">
        <ele>221</ele>
        <time>2024-04-26T14:57:11Z</time>
      </trkpt>
      <trkpt lat="50.1244" lon="4.1472">
        <ele>221</ele>
        <time>2024-04-26T14:57:12Z</time>
      </trkpt>
      <trkpt lat="50.12446" lon="4.14726">
        <ele>221</ele>
        <time>2024-04-26T14:57:13Z</time>
      </trkpt>
      <trkpt lat="50.12452" lon="4.14732">
        <ele>221</ele>
        <time>2024-04-26T14:57:14Z</time>
      </trkpt>
      <trkpt lat="50.12459" lon="4.14737">
        <ele>221.2</ele>
        <time>2024-04-26T14:57:15Z</time>
      </trkpt>
      <trkpt lat="50.12465" lon="4.14743">
        <ele>221.2</ele>
        <time>2024-04-26T14:57:16Z</time>
      </trkpt>
      <trkpt lat="50.12471" lon="4.14748">
        <ele>221.2</ele>
        <time>2024-04-26T14:57:17Z</time>
      </trkpt>
      <trkpt lat="50.12478" lon="4.14754">
        <ele>221.2</ele>
        <time>2024-04-26T14:57:18Z</time>
      </trkpt>
      <trkpt lat="50.12484" lon="4.14761">
        <ele>221.2</ele>
        <time>2024-04-26T14:57:19Z</time>
      </trkpt>
      <trkpt lat="50.12491" lon="4.14767">
        <ele>221.2</ele>
        <time>2024-04-26T14:57:20Z</time>
      </trkpt>
      <trkpt lat="50.12497" lon="4.14774">
        <ele>221.2</ele>
        <time>2024-04-26T14:57:21Z</time>
      </trkpt>
      <trkpt lat="50.12503" lon="4.14781">
        <ele>221</ele>
        <time>2024-04-26T14:57:22Z</time>
      </trkpt>
      <trkpt lat="50.12509" lon="4.14791">
        <ele>221</ele>
        <time>2024-04-26T14:57:23Z</time>
      </trkpt>
      <trkpt lat="50.12513" lon="4.14803">
        <ele>221</ele>
        <time>2024-04-26T14:57:24Z</time>
      </trkpt>
      <trkpt lat="50.12516" lon="4.14816">
        <ele>220.6</ele>
        <time>2024-04-26T14:57:25Z</time>
      </trkpt>
      <trkpt lat="50.12519" lon="4.14829">
        <ele>220.4</ele>
        <time>2024-04-26T14:57:26Z</time>
      </trkpt>
      <trkpt lat="50.12521" lon="4.14843">
        <ele>220.4</ele>
        <time>2024-04-26T14:57:27Z</time>
      </trkpt>
      <trkpt lat="50.12524" lon="4.14857">
        <ele>220</ele>
        <time>2024-04-26T14:57:28Z</time>
      </trkpt>
      <trkpt lat="50.12527" lon="4.14872">
        <ele>220</ele>
        <time>2024-04-26T14:57:29Z</time>
      </trkpt>
      <trkpt lat="50.1253" lon="4.14886">
        <ele>219.4</ele>
        <time>2024-04-26T14:57:30Z</time>
      </trkpt>
      <trkpt lat="50.12533" lon="4.14902">
        <ele>219.4</ele>
        <time>2024-04-26T14:57:31Z</time>
      </trkpt>
      <trkpt lat="50.12536" lon="4.14917">
        <ele>219.2</ele>
        <time>2024-04-26T14:57:32Z</time>
      </trkpt>
      <trkpt lat="50.12539" lon="4.14933">
        <ele>218.4</ele>
        <time>2024-04-26T14:57:33Z</time>
      </trkpt>
      <trkpt lat="50.12542" lon="4.1495">
        <ele>217.8</ele>
        <time>2024-04-26T14:57:34Z</time>
      </trkpt>
      <trkpt lat="50.12544" lon="4.14968">
        <ele>217</ele>
        <time>2024-04-26T14:57:35Z</time>
      </trkpt>
      <trkpt lat="50.12546" lon="4.14986">
        <ele>216.6</ele>
        <time>2024-04-26T14:57:36Z</time>
      </trkpt>
      <trkpt lat="50.12545" lon="4.15005">
        <ele>215.8</ele>
        <time>2024-04-26T14:57:37Z</time>
      </trkpt>
      <trkpt lat="50.12544" lon="4.15024">
        <ele>215.2</ele>
        <time>2024-04-26T14:57:38Z</time>
      </trkpt>
      <trkpt lat="50.1254" lon="4.15043">
        <ele>214.8</ele>
        <time>2024-04-26T14:57:39Z</time>
      </trkpt>
      <trkpt lat="50.12535" lon="4.15061">
        <ele>214</ele>
        <time>2024-04-26T14:57:40Z</time>
      </trkpt>
      <trkpt lat="50.12529" lon="4.15079">
        <ele>213.2</ele>
        <time>2024-04-26T14:57:41Z</time>
      </trkpt>
      <trkpt lat="50.12522" lon="4.15096">
        <ele>212.2</ele>
        <time>2024-04-26T14:57:42Z</time>
      </trkpt>
      <trkpt lat="50.12515" lon="4.15113">
        <ele>211.6</ele>
        <time>2024-04-26T14:57:43Z</time>
      </trkpt>
      <trkpt lat="50.12507" lon="4.1513">
        <ele>210.2</ele>
        <time>2024-04-26T14:57:44Z</time>
      </trkpt>
      <trkpt lat="50.125" lon="4.15146">
        <ele>208.8</ele>
        <time>2024-04-26T14:57:45Z</time>
      </trkpt>
      <trkpt lat="50.12491" lon="4.15163">
        <ele>206.8</ele>
        <time>2024-04-26T14:57:46Z</time>
      </trkpt>
      <trkpt lat="50.12482" lon="4.15178">
        <ele>205.2</ele>
        <time>2024-04-26T14:57:47Z</time>
      </trkpt>
      <trkpt lat="50.12472" lon="4.15193">
        <ele>203.6</ele>
        <time>2024-04-26T14:57:48Z</time>
      </trkpt>
      <trkpt lat="50.12461" lon="4.15206">
        <ele>202.2</ele>
        <time>2024-04-26T14:57:49Z</time>
      </trkpt>
      <trkpt lat="50.1245" lon="4.1522">
        <ele>201.2</ele>
        <time>2024-04-26T14:57:50Z</time>
      </trkpt>
      <trkpt lat="50.12439" lon="4.15233">
        <ele>200.4</ele>
        <time>2024-04-26T14:57:51Z</time>
      </trkpt>
      <trkpt lat="50.12428" lon="4.15246">
        <ele>199.8</ele>
        <time>2024-04-26T14:57:52Z</time>
      </trkpt>
      <trkpt lat="50.12416" lon="4.15259">
        <ele>199.8</ele>
        <time>2024-04-26T14:57:53Z</time>
      </trkpt>
      <trkpt lat="50.12404" lon="4.15272">
        <ele>198.8</ele>
        <time>2024-04-26T14:57:54Z</time>
      </trkpt>
      <trkpt lat="50.12393" lon="4.15286">
        <ele>197.6</ele>
        <time>2024-04-26T14:57:55Z</time>
      </trkpt>
      <trkpt lat="50.12381" lon="4.15299">
        <ele>196.4</ele>
        <time>2024-04-26T14:57:56Z</time>
      </trkpt>
      <trkpt lat="50.1237" lon="4.15312">
        <ele>195.4</ele>
        <time>2024-04-26T14:57:57Z</time>
      </trkpt>
      <trkpt lat="50.12358" lon="4.15325">
        <ele>194.2</ele>
        <time>2024-04-26T14:57:58Z</time>
      </trkpt>
      <trkpt lat="50.12347" lon="4.15339">
        <ele>193.4</ele>
        <time>2024-04-26T14:57:59Z</time>
      </trkpt>
      <trkpt lat="50.12337" lon="4.15352">
        <ele>192</ele>
        <time>2024-04-26T14:58:00Z</time>
      </trkpt>
      <trkpt lat="50.12327" lon="4.15365">
        <ele>190.8</ele>
        <time>2024-04-26T14:58:01Z</time>
      </trkpt>
      <trkpt lat="50.12318" lon="4.15378">
        <ele>189</ele>
        <time>2024-04-26T14:58:02Z</time>
      </trkpt>
      <trkpt lat="50.12309" lon="4.15392">
        <ele>186.8</ele>
        <time>2024-04-26T14:58:03Z</time>
      </trkpt>
      <trkpt lat="50.12302" lon="4.15405">
        <ele>185.6</ele>
        <time>2024-04-26T14:58:04Z</time>
      </trkpt>
      <trkpt lat="50.12294" lon="4.15418">
        <ele>184.8</ele>
        <time>2024-04-26T14:58:05Z</time>
      </trkpt>
      <trkpt lat="50.12288" lon="4.1543">
        <ele>184.2</ele>
        <time>2024-04-26T14:58:06Z</time>
      </trkpt>
      <trkpt lat="50.12282" lon="4.15442">
        <ele>184</ele>
        <time>2024-04-26T14:58:07Z</time>
      </trkpt>
      <trkpt lat="50.12276" lon="4.15453">
        <ele>183.6</ele>
        <time>2024-04-26T14:58:08Z</time>
      </trkpt>
      <trkpt lat="50.12271" lon="4.15463">
        <ele>183.8</ele>
        <time>2024-04-26T14:58:09Z</time>
      </trkpt>
      <trkpt lat="50.12267" lon="4.15474">
        <ele>183.6</ele>
        <time>2024-04-26T14:58:10Z</time>
      </trkpt>
      <trkpt lat="50.12262" lon="4.15483">
        <ele>183.6</ele>
        <time>2024-04-26T14:58:11Z</time>
      </trkpt>
      <trkpt lat="50.12258" lon="4.15492">
        <ele>183.6</ele>
        <time>2024-04-26T14:58:12Z</time>
      </trkpt>
      <trkpt lat="50.12254" lon="4.155">
        <ele>183.6</ele>
        <time>2024-04-26T14:58:13Z</time>
      </trkpt>
      <trkpt lat="50.12251" lon="4.15508">
        <ele>183.8</ele>
        <time>2024-04-26T14:58:14Z</time>
      </trkpt>
      <trkpt lat="50.12248" lon="4.15516">
        <ele>183.8</ele>
        <time>2024-04-26T14:58:15Z</time>
      </trkpt>
      <trkpt lat="50.12245" lon="4.15524">
        <ele>184</ele>
        <time>2024-04-26T14:58:16Z</time>
      </trkpt>
      <trkpt lat="50.12242" lon="4.15532">
        <ele>185.2</ele>
        <time>2024-04-26T14:58:17Z</time>
      </trkpt>
      <trkpt lat="50.1224" lon="4.1554">
        <ele>186.6</ele>
        <time>2024-04-26T14:58:18Z</time>
      </trkpt>
      <trkpt lat="50.12238" lon="4.15549">
        <ele>188</ele>
        <time>2024-04-26T14:58:19Z</time>
      </trkpt>
      <trkpt lat="50.12236" lon="4.15557">
        <ele>189</ele>
        <time>2024-04-26T14:58:20Z</time>
      </trkpt>
      <trkpt lat="50.12234" lon="4.15565">
        <ele>190.2</ele>
        <time>2024-04-26T14:58:21Z</time>
      </trkpt>
      <trkpt lat="50.12232" lon="4.15573">
        <ele>190.8</ele>
        <time>2024-04-26T14:58:22Z</time>
      </trkpt>
      <trkpt lat="50.12231" lon="4.15581">
        <ele>191.6</ele>
        <time>2024-04-26T14:58:23Z</time>
      </trkpt>
      <trkpt lat="50.1223" lon="4.15589">
        <ele>192.2</ele>
        <time>2024-04-26T14:58:24Z</time>
      </trkpt>
      <trkpt lat="50.12229" lon="4.15597">
        <ele>192.4</ele>
        <time>2024-04-26T14:58:25Z</time>
      </trkpt>
      <trkpt lat="50.12228" lon="4.15605">
        <ele>192.6</ele>
        <time>2024-04-26T14:58:26Z</time>
      </trkpt>
      <trkpt lat="50.12226" lon="4.15612">
        <ele>193</ele>
        <time>2024-04-26T14:58:27Z</time>
      </trkpt>
      <trkpt lat="50.12225" lon="4.1562">
        <ele>193.6</ele>
        <time>2024-04-26T14:58:28Z</time>
      </trkpt>
      <trkpt lat="50.12224" lon="4.15628">
        <ele>194.4</ele>
        <time>2024-04-26T14:58:29Z</time>
      </trkpt>
      <trkpt lat="50.12223" lon="4.15635">
        <ele>194.8</ele>
        <time>2024-04-26T14:58:30Z</time>
      </trkpt>
      <trkpt lat="50.12222" lon="4.15643">
        <ele>195.4</ele>
        <time>2024-04-26T14:58:31Z</time>
      </trkpt>
      <trkpt lat="50.12221" lon="4.1565">
        <ele>195.8</ele>
        <time>2024-04-26T14:58:32Z</time>
      </trkpt>
      <trkpt lat="50.1222" lon="4.15658">
        <ele>196.4</ele>
        <time>2024-04-26T14:58:33Z</time>
      </trkpt>
      <trkpt lat="50.12219" lon="4.15665">
        <ele>196.8</ele>
        <time>2024-04-26T14:58:34Z</time>
      </trkpt>
      <trkpt lat="50.12217" lon="4.15672">
        <ele>196.8</ele>
        <time>2024-04-26T14:58:35Z</time>
      </trkpt>
      <trkpt lat="50.12216" lon="4.1568">
        <ele>197.2</ele>
        <time>2024-04-26T14:58:36Z</time>
      </trkpt>
      <trkpt lat="50.12214" lon="4.15687">
        <ele>197.2</ele>
        <time>2024-04-26T14:58:37Z</time>
      </trkpt>
      <trkpt lat="50.12213" lon="4.15694">
        <ele>197.4</ele>
        <time>2024-04-26T14:58:38Z</time>
      </trkpt>
      <trkpt lat="50.12211" lon="4.15701">
        <ele>197.6</ele>
        <time>2024-04-26T14:58:39Z</time>
      </trkpt>
      <trkpt lat="50.12209" lon="4.15708">
        <ele>197.6</ele>
        <time>2024-04-26T14:58:40Z</time>
      </trkpt>
      <trkpt lat="50.12207" lon="4.15715">
        <ele>197.8</ele>
        <time>2024-04-26T14:58:41Z</time>
      </trkpt>
      <trkpt lat="50.12206" lon="4.15722">
        <ele>198.6</ele>
        <time>2024-04-26T14:58:42Z</time>
      </trkpt>
      <trkpt lat="50.12204" lon="4.15729">
        <ele>199.6</ele>
        <time>2024-04-26T14:58:43Z</time>
      </trkpt>
      <trkpt lat="50.12202" lon="4.15736">
        <ele>200.2</ele>
        <time>2024-04-26T14:58:44Z</time>
      </trkpt>
      <trkpt lat="50.122" lon="4.15743">
        <ele>200.8</ele>
        <time>2024-04-26T14:58:45Z</time>
      </trkpt>
      <trkpt lat="50.12198" lon="4.15749">
        <ele>201.4</ele>
        <time>2024-04-26T14:58:46Z</time>
      </trkpt>
      <trkpt lat="50.12196" lon="4.15756">
        <ele>201.8</ele>
        <time>2024-04-26T14:58:47Z</time>
      </trkpt>
      <trkpt lat="50.12194" lon="4.15763">
        <ele>202.2</ele>
        <time>2024-04-26T14:58:48Z</time>
      </trkpt>
      <trkpt lat="50.12192" lon="4.1577">
        <ele>202.6</ele>
        <time>2024-04-26T14:58:49Z</time>
      </trkpt>
      <trkpt lat="50.1219" lon="4.15777">
        <ele>203.2</ele>
        <time>2024-04-26T14:58:50Z</time>
      </trkpt>
      <trkpt lat="50.12188" lon="4.15784">
        <ele>203.6</ele>
        <time>2024-04-26T14:58:51Z</time>
      </trkpt>
      <trkpt lat="50.12186" lon="4.1579">
        <ele>203.8</ele>
        <time>2024-04-26T14:58:52Z</time>
      </trkpt>
      <trkpt lat="50.12185" lon="4.15797">
        <ele>204.2</ele>
        <time>2024-04-26T14:58:53Z</time>
      </trkpt>
      <trkpt lat="50.12183" lon="4.15804">
        <ele>204.6</ele>
        <time>2024-04-26T14:58:54Z</time>
      </trkpt>
      <trkpt lat="50.12181" lon="4.15811">
        <ele>205.2</ele>
        <time>2024-04-26T14:58:55Z</time>
      </trkpt>
      <trkpt lat="50.12179" lon="4.15818">
        <ele>205.6</ele>
        <time>2024-04-26T14:58:56Z</time>
      </trkpt>
      <trkpt lat="50.12177" lon="4.15825">
        <ele>206</ele>
        <time>2024-04-26T14:58:57Z</time>
      </trkpt>
      <trkpt lat="50.12175" lon="4.15833">
        <ele>206.2</ele>
        <time>2024-04-26T14:58:58Z</time>
      </trkpt>
      <trkpt lat="50.12173" lon="4.1584">
        <ele>206.2</ele>
        <time>2024-04-26T14:58:59Z</time>
      </trkpt>
      <trkpt lat="50.1217" lon="4.15848">
        <ele>206.4</ele>
        <time>2024-04-26T14:59:00Z</time>
      </trkpt>
      <trkpt lat="50.12168" lon="4.15856">
        <ele>206.6</ele>
        <time>2024-04-26T14:59:01Z</time>
      </trkpt>
      <trkpt lat="50.12166" lon="4.15864">
        <ele>206.8</ele>
        <time>2024-04-26T14:59:02Z</time>
      </trkpt>
      <trkpt lat="50.12163" lon="4.15873">
        <ele>207.2</ele>
        <time>2024-04-26T14:59:03Z</time>
      </trkpt>
      <trkpt lat="50.12161" lon="4.15882">
        <ele>207.4</ele>
        <time>2024-04-26T14:59:04Z</time>
      </trkpt>
      <trkpt lat="50.12159" lon="4.15892">
        <ele>207.6</ele>
        <time>2024-04-26T14:59:05Z</time>
      </trkpt>
      <trkpt lat="50.12157" lon="4.15903">
        <ele>207.8</ele>
        <time>2024-04-26T14:59:06Z</time>
      </trkpt>
      <trkpt lat="50.12155" lon="4.15914">
        <ele>207.8</ele>
        <time>2024-04-26T14:59:07Z</time>
      </trkpt>
      <trkpt lat="50.12155" lon="4.15925">
        <ele>207.8</ele>
        <time>2024-04-26T14:59:08Z</time>
      </trkpt>
      <trkpt lat="50.12155" lon="4.15937">
        <ele>207.8</ele>
        <time>2024-04-26T14:59:09Z</time>
      </trkpt>
      <trkpt lat="50.12155" lon="4.1595">
        <ele>207.8</ele>
        <time>2024-04-26T14:59:10Z</time>
      </trkpt>
      <trkpt lat="50.12157" lon="4.15963">
        <ele>208</ele>
        <time>2024-04-26T14:59:11Z</time>
      </trkpt>
      <trkpt lat="50.1216" lon="4.15976">
        <ele>207.8</ele>
        <time>2024-04-26T14:59:12Z</time>
      </trkpt>
      <trkpt lat="50.12164" lon="4.15989">
        <ele>207.8</ele>
        <time>2024-04-26T14:59:13Z</time>
      </trkpt>
      <trkpt lat="50.12169" lon="4.16001">
        <ele>207.6</ele>
        <time>2024-04-26T14:59:14Z</time>
      </trkpt>
      <trkpt lat="50.12175" lon="4.16013">
        <ele>207.6</ele>
        <time>2024-04-26T14:59:15Z</time>
      </trkpt>
      <trkpt lat="50.12182" lon="4.16024">
        <ele>207.2</ele>
        <time>2024-04-26T14:59:16Z</time>
      </trkpt>
      <trkpt lat="50.12188" lon="4.16035">
        <ele>206.6</ele>
        <time>2024-04-26T14:59:17Z</time>
      </trkpt>
      <trkpt lat="50.12195" lon="4.16045">
        <ele>206.4</ele>
        <time>2024-04-26T14:59:18Z</time>
      </trkpt>
      <trkpt lat="50.12202" lon="4.16056">
        <ele>205.6</ele>
        <time>2024-04-26T14:59:19Z</time>
      </trkpt>
      <trkpt lat="50.12208" lon="4.16066">
        <ele>205.2</ele>
        <time>2024-04-26T14:59:20Z</time>
      </trkpt>
      <trkpt lat="50.12215" lon="4.16076">
        <ele>204.4</ele>
        <time>2024-04-26T14:59:21Z</time>
      </trkpt>
      <trkpt lat="50.12221" lon="4.16086">
        <ele>204.4</ele>
        <time>2024-04-26T14:59:22Z</time>
      </trkpt>
      <trkpt lat="50.12228" lon="4.16096">
        <ele>203.8</ele>
        <time>2024-04-26T14:59:23Z</time>
      </trkpt>
      <trkpt lat="50.12234" lon="4.16106">
        <ele>203.4</ele>
        <time>2024-04-26T14:59:24Z</time>
      </trkpt>
      <trkpt lat="50.1224" lon="4.16116">
        <ele>203</ele>
        <time>2024-04-26T14:59:25Z</time>
      </trkpt>
      <trkpt lat="50.12247" lon="4.16125">
        <ele>202.8</ele>
        <time>2024-04-26T14:59:26Z</time>
      </trkpt>
      <trkpt lat="50.12253" lon="4.16135">
        <ele>202.8</ele>
        <time>2024-04-26T14:59:27Z</time>
      </trkpt>
      <trkpt lat="50.12259" lon="4.16145">
        <ele>202.8</ele>
        <time>2024-04-26T14:59:28Z</time>
      </trkpt>
      <trkpt lat="50.12265" lon="4.16154">
        <ele>202.6</ele>
        <time>2024-04-26T14:59:29Z</time>
      </trkpt>
      <trkpt lat="50.12271" lon="4.16164">
        <ele>202.4</ele>
        <time>2024-04-26T14:59:30Z</time>
      </trkpt>
      <trkpt lat="50.12277" lon="4.16174">
        <ele>202.2</ele>
        <time>2024-04-26T14:59:31Z</time>
      </trkpt>
      <trkpt lat="50.12284" lon="4.16184">
        <ele>202</ele>
        <time>2024-04-26T14:59:32Z</time>
      </trkpt>
      <trkpt lat="50.1229" lon="4.16194">
        <ele>202</ele>
        <time>2024-04-26T14:59:33Z</time>
      </trkpt>
      <trkpt lat="50.12297" lon="4.16205">
        <ele>201.8</ele>
        <time>2024-04-26T14:59:34Z</time>
      </trkpt>
      <trkpt lat="50.12303" lon="4.16217">
        <ele>201.8</ele>
        <time>2024-04-26T14:59:35Z</time>
      </trkpt>
      <trkpt lat="50.12308" lon="4.1623">
        <ele>201.4</ele>
        <time>2024-04-26T14:59:36Z</time>
      </trkpt>
      <trkpt lat="50.12312" lon="4.16245">
        <ele>201.4</ele>
        <time>2024-04-26T14:59:37Z</time>
      </trkpt>
      <trkpt lat="50.12315" lon="4.1626">
        <ele>201.4</ele>
        <time>2024-04-26T14:59:38Z</time>
      </trkpt>
      <trkpt lat="50.12317" lon="4.16276">
        <ele>201.2</ele>
        <time>2024-04-26T14:59:39Z</time>
      </trkpt>
      <trkpt lat="50.12317" lon="4.16292">
        <ele>200.8</ele>
        <time>2024-04-26T14:59:40Z</time>
      </trkpt>
      <trkpt lat="50.12317" lon="4.16309">
        <ele>200.8</ele>
        <time>2024-04-26T14:59:41Z</time>
      </trkpt>
      <trkpt lat="50.12315" lon="4.16325">
        <ele>200.2</ele>
        <time>2024-04-26T14:59:42Z</time>
      </trkpt>
      <trkpt lat="50.12312" lon="4.16341">
        <ele>199.2</ele>
        <time>2024-04-26T14:59:43Z</time>
      </trkpt>
      <trkpt lat="50.12308" lon="4.16356">
        <ele>199.2</ele>
        <time>2024-04-26T14:59:44Z</time>
      </trkpt>
      <trkpt lat="50.12302" lon="4.16371">
        <ele>198.6</ele>
        <time>2024-04-26T14:59:45Z</time>
      </trkpt>
      <trkpt lat="50.12296" lon="4.16385">
        <ele>198</ele>
        <time>2024-04-26T14:59:46Z</time>
      </trkpt>
      <trkpt lat="50.1229" lon="4.16399">
        <ele>197.6</ele>
        <time>2024-04-26T14:59:47Z</time>
      </trkpt>
      <trkpt lat="50.12284" lon="4.16413">
        <ele>197</ele>
        <time>2024-04-26T14:59:48Z</time>
      </trkpt>
      <trkpt lat="50.12278" lon="4.16426">
        <ele>196.2</ele>
        <time>2024-04-26T14:59:49Z</time>
      </trkpt>
      <trkpt lat="50.12273" lon="4.1644">
        <ele>196</ele>
        <time>2024-04-26T14:59:50Z</time>
      </trkpt>
      <trkpt lat="50.12267" lon="4.16454">
        <ele>195.6</ele>
        <time>2024-04-26T14:59:51Z</time>
      </trkpt>
      <trkpt lat="50.12262" lon="4.16468">
        <ele>195.4</ele>
        <time>2024-04-26T14:59:52Z</time>
      </trkpt>
      <trkpt lat="50.12258" lon="4.16482">
        <ele>194.8</ele>
        <time>2024-04-26T14:59:53Z</time>
      </trkpt>
      <trkpt lat="50.12255" lon="4.16497">
        <ele>194.4</ele>
        <time>2024-04-26T14:59:54Z</time>
      </trkpt>
      <trkpt lat="50.12253" lon="4.16512">
        <ele>194.2</ele>
        <time>2024-04-26T14:59:55Z</time>
      </trkpt>
      <trkpt lat="50.12251" lon="4.16527">
        <ele>193.8</ele>
        <time>2024-04-26T14:59:56Z</time>
      </trkpt>
      <trkpt lat="50.12249" lon="4.16543">
        <ele>193.6</ele>
        <time>2024-04-26T14:59:57Z</time>
      </trkpt>
      <trkpt lat="50.12246" lon="4.16558">
        <ele>193.6</ele>
        <time>2024-04-26T14:59:58Z</time>
      </trkpt>
      <trkpt lat="50.12242" lon="4.16573">
        <ele>193.4</ele>
        <time>2024-04-26T14:59:59Z</time>
      </trkpt>
      <trkpt lat="50.12237" lon="4.16588">
        <ele>193.4</ele>
        <time>2024-04-26T15:00:00Z</time>
      </trkpt>
      <trkpt lat="50.12231" lon="4.16602">
        <ele>193.2</ele>
        <time>2024-04-26T15:00:01Z</time>
      </trkpt>
      <trkpt lat="50.12224" lon="4.16616">
        <ele>193</ele>
        <time>2024-04-26T15:00:02Z</time>
      </trkpt>
      <trkpt lat="50.12217" lon="4.16629">
        <ele>192.8</ele>
        <time>2024-04-26T15:00:03Z</time>
      </trkpt>
      <trkpt lat="50.12209" lon="4.16643">
        <ele>192.6</ele>
        <time>2024-04-26T15:00:04Z</time>
      </trkpt>
      <trkpt lat="50.12202" lon="4.16656">
        <ele>192.6</ele>
        <time>2024-04-26T15:00:05Z</time>
      </trkpt>
      <trkpt lat="50.12194" lon="4.1667">
        <ele>192.4</ele>
        <time>2024-04-26T15:00:06Z</time>
      </trkpt>
      <trkpt lat="50.12187" lon="4.16685">
        <ele>191.8</ele>
        <time>2024-04-26T15:00:07Z</time>
      </trkpt>
      <trkpt lat="50.12181" lon="4.16699">
        <ele>191.2</ele>
        <time>2024-04-26T15:00:08Z</time>
      </trkpt>
      <trkpt lat="50.12174" lon="4.16714">
        <ele>190.6</ele>
        <time>2024-04-26T15:00:09Z</time>
      </trkpt>
      <trkpt lat="50.12168" lon="4.16729">
        <ele>190</ele>
        <time>2024-04-26T15:00:10Z</time>
      </trkpt>
      <trkpt lat="50.12162" lon="4.16743">
        <ele>188.8</ele>
        <time>2024-04-26T15:00:11Z</time>
      </trkpt>
      <trkpt lat="50.12156" lon="4.16757">
        <ele>187.8</ele>
        <time>2024-04-26T15:00:12Z</time>
      </trkpt>
      <trkpt lat="50.12151" lon="4.16771">
        <ele>186.8</ele>
        <time>2024-04-26T15:00:13Z</time>
      </trkpt>
      <trkpt lat="50.12146" lon="4.16785">
        <ele>186</ele>
        <time>2024-04-26T15:00:14Z</time>
      </trkpt>
      <trkpt lat="50.12141" lon="4.16798">
        <ele>185.6</ele>
        <time>2024-04-26T15:00:15Z</time>
      </trkpt>
      <trkpt lat="50.12137" lon="4.1681">
        <ele>185.4</ele>
        <time>2024-04-26T15:00:16Z</time>
      </trkpt>
      <trkpt lat="50.12134" lon="4.16823">
        <ele>185.2</ele>
        <time>2024-04-26T15:00:17Z</time>
      </trkpt>
      <trkpt lat="50.1213" lon="4.16835">
        <ele>185.2</ele>
        <time>2024-04-26T15:00:18Z</time>
      </trkpt>
      <trkpt lat="50.12128" lon="4.16846">
        <ele>185.2</ele>
        <time>2024-04-26T15:00:19Z</time>
      </trkpt>
      <trkpt lat="50.12126" lon="4.16858">
        <ele>185.2</ele>
        <time>2024-04-26T15:00:20Z</time>
      </trkpt>
      <trkpt lat="50.12124" lon="4.16869">
        <ele>185.2</ele>
        <time>2024-04-26T15:00:21Z</time>
      </trkpt>
      <trkpt lat="50.12122" lon="4.16879">
        <ele>185.2</ele>
        <time>2024-04-26T15:00:22Z</time>
      </trkpt>
      <trkpt lat="50.1212" lon="4.1689">
        <ele>185.2</ele>
        <time>2024-04-26T15:00:23Z</time>
      </trkpt>
      <trkpt lat="50.12119" lon="4.169">
        <ele>185.2</ele>
        <time>2024-04-26T15:00:24Z</time>
      </trkpt>
      <trkpt lat="50.12118" lon="4.16911">
        <ele>185.4</ele>
        <time>2024-04-26T15:00:25Z</time>
      </trkpt>
      <trkpt lat="50.12116" lon="4.16921">
        <ele>186</ele>
        <time>2024-04-26T15:00:26Z</time>
      </trkpt>
      <trkpt lat="50.12115" lon="4.16932">
        <ele>186</ele>
        <time>2024-04-26T15:00:27Z</time>
      </trkpt>
      <trkpt lat="50.12113" lon="4.16942">
        <ele>186.8</ele>
        <time>2024-04-26T15:00:28Z</time>
      </trkpt>
      <trkpt lat="50.12112" lon="4.16952">
        <ele>187.2</ele>
        <time>2024-04-26T15:00:29Z</time>
      </trkpt>
      <trkpt lat="50.12111" lon="4.16963">
        <ele>187.6</ele>
        <time>2024-04-26T15:00:30Z</time>
      </trkpt>
      <trkpt lat="50.12109" lon="4.16973">
        <ele>188</ele>
        <time>2024-04-26T15:00:31Z</time>
      </trkpt>
      <trkpt lat="50.12108" lon="4.16983">
        <ele>188</ele>
        <time>2024-04-26T15:00:32Z</time>
      </trkpt>
      <trkpt lat="50.12106" lon="4.16994">
        <ele>188.4</ele>
        <time>2024-04-26T15:00:33Z</time>
      </trkpt>
      <trkpt lat="50.12104" lon="4.17004">
        <ele>188.6</ele>
        <time>2024-04-26T15:00:34Z</time>
      </trkpt>
      <trkpt lat="50.12103" lon="4.17014">
        <ele>189.2</ele>
        <time>2024-04-26T15:00:35Z</time>
      </trkpt>
      <trkpt lat="50.12101" lon="4.17025">
        <ele>189.6</ele>
        <time>2024-04-26T15:00:36Z</time>
      </trkpt>
      <trkpt lat="50.12099" lon="4.17035">
        <ele>189.6</ele>
        <time>2024-04-26T15:00:37Z</time>
      </trkpt>
      <trkpt lat="50.12097" lon="4.17046">
        <ele>189.8</ele>
        <time>2024-04-26T15:00:38Z</time>
      </trkpt>
      <trkpt lat="50.12094" lon="4.17056">
        <ele>189.8</ele>
        <time>2024-04-26T15:00:39Z</time>
      </trkpt>
      <trkpt lat="50.12092" lon="4.17066">
        <ele>189.8</ele>
        <time>2024-04-26T15:00:40Z</time>
      </trkpt>
      <trkpt lat="50.1209" lon="4.17077">
        <ele>189.8</ele>
        <time>2024-04-26T15:00:41Z</time>
      </trkpt>
      <trkpt lat="50.12087" lon="4.17087">
        <ele>189.8</ele>
        <time>2024-04-26T15:00:42Z</time>
      </trkpt>
      <trkpt lat="50.12085" lon="4.17098">
        <ele>190</ele>
        <time>2024-04-26T15:00:43Z</time>
      </trkpt>
      <trkpt lat="50.12084" lon="4.17109">
        <ele>189.8</ele>
        <time>2024-04-26T15:00:44Z</time>
      </trkpt>
      <trkpt lat="50.12082" lon="4.1712">
        <ele>189.6</ele>
        <time>2024-04-26T15:00:45Z</time>
      </trkpt>
      <trkpt lat="50.12081" lon="4.17131">
        <ele>189.6</ele>
        <time>2024-04-26T15:00:46Z</time>
      </trkpt>
      <trkpt lat="50.1208" lon="4.17143">
        <ele>189.6</ele>
        <time>2024-04-26T15:00:47Z</time>
      </trkpt>
      <trkpt lat="50.12079" lon="4.17154">
        <ele>189.6</ele>
        <time>2024-04-26T15:00:48Z</time>
      </trkpt>
      <trkpt lat="50.12078" lon="4.17165">
        <ele>189.6</ele>
        <time>2024-04-26T15:00:49Z</time>
      </trkpt>
      <trkpt lat="50.12078" lon="4.17176">
        <ele>189.4</ele>
        <time>2024-04-26T15:00:50Z</time>
      </trkpt>
      <trkpt lat="50.12077" lon="4.17187">
        <ele>189.4</ele>
        <time>2024-04-26T15:00:51Z</time>
      </trkpt>
      <trkpt lat="50.12075" lon="4.17197">
        <ele>189.2</ele>
        <time>2024-04-26T15:00:52Z</time>
      </trkpt>
      <trkpt lat="50.12074" lon="4.17208">
        <ele>189.2</ele>
        <time>2024-04-26T15:00:53Z</time>
      </trkpt>
      <trkpt lat="50.12073" lon="4.17218">
        <ele>189.2</ele>
        <time>2024-04-26T15:00:54Z</time>
      </trkpt>
      <trkpt lat="50.12072" lon="4.17229">
        <ele>189.4</ele>
        <time>2024-04-26T15:00:55Z</time>
      </trkpt>
      <trkpt lat="50.1207" lon="4.17239">
        <ele>189.2</ele>
        <time>2024-04-26T15:00:56Z</time>
      </trkpt>
      <trkpt lat="50.12069" lon="4.17249">
        <ele>189.2</ele>
        <time>2024-04-26T15:00:57Z</time>
      </trkpt>
      <trkpt lat="50.12067" lon="4.17259">
        <ele>189.4</ele>
        <time>2024-04-26T15:00:58Z</time>
      </trkpt>
      <trkpt lat="50.12065" lon="4.1727">
        <ele>189.4</ele>
        <time>2024-04-26T15:00:59Z</time>
      </trkpt>
      <trkpt lat="50.12064" lon="4.1728">
        <ele>189.6</ele>
        <time>2024-04-26T15:01:00Z</time>
      </trkpt>
      <trkpt lat="50.12062" lon="4.1729">
        <ele>189.6</ele>
        <time>2024-04-26T15:01:01Z</time>
      </trkpt>
      <trkpt lat="50.12061" lon="4.173">
        <ele>190.2</ele>
        <time>2024-04-26T15:01:02Z</time>
      </trkpt>
      <trkpt lat="50.12059" lon="4.17311">
        <ele>190.6</ele>
        <time>2024-04-26T15:01:03Z</time>
      </trkpt>
      <trkpt lat="50.12057" lon="4.17321">
        <ele>190.8</ele>
        <time>2024-04-26T15:01:04Z</time>
      </trkpt>
      <trkpt lat="50.12056" lon="4.17332">
        <ele>191</ele>
        <time>2024-04-26T15:01:05Z</time>
      </trkpt>
      <trkpt lat="50.12054" lon="4.17343">
        <ele>191</ele>
        <time>2024-04-26T15:01:06Z</time>
      </trkpt>
      <trkpt lat="50.12052" lon="4.17354">
        <ele>191.2</ele>
        <time>2024-04-26T15:01:07Z</time>
      </trkpt>
      <trkpt lat="50.1205" lon="4.17365">
        <ele>191.2</ele>
        <time>2024-04-26T15:01:08Z</time>
      </trkpt>
      <trkpt lat="50.12048" lon="4.17376">
        <ele>191.2</ele>
        <time>2024-04-26T15:01:09Z</time>
      </trkpt>
      <trkpt lat="50.12045" lon="4.17387">
        <ele>191.2</ele>
        <time>2024-04-26T15:01:10Z</time>
      </trkpt>
      <trkpt lat="50.12043" lon="4.17398">
        <ele>191.2</ele>
        <time>2024-04-26T15:01:11Z</time>
      </trkpt>
      <trkpt lat="50.1204" lon="4.17409">
        <ele>191.2</ele>
        <time>2024-04-26T15:01:12Z</time>
      </trkpt>
      <trkpt lat="50.12037" lon="4.17419">
        <ele>191.2</ele>
        <time>2024-04-26T15:01:13Z</time>
      </trkpt>
      <trkpt lat="50.12035" lon="4.17429">
        <ele>191.4</ele>
        <time>2024-04-26T15:01:14Z</time>
      </trkpt>
      <trkpt lat="50.12032" lon="4.17439">
        <ele>191.4</ele>
        <time>2024-04-26T15:01:15Z</time>
      </trkpt>
      <trkpt lat="50.1203" lon="4.17449">
        <ele>191.4</ele>
        <time>2024-04-26T15:01:16Z</time>
      </trkpt>
      <trkpt lat="50.12027" lon="4.17459">
        <ele>191.4</ele>
        <time>2024-04-26T15:01:17Z</time>
      </trkpt>
      <trkpt lat="50.12025" lon="4.17469">
        <ele>191.6</ele>
        <time>2024-04-26T15:01:18Z</time>
      </trkpt>
      <trkpt lat="50.12023" lon="4.17479">
        <ele>191.6</ele>
        <time>2024-04-26T15:01:19Z</time>
      </trkpt>
      <trkpt lat="50.1202" lon="4.17489">
        <ele>191.4</ele>
        <time>2024-04-26T15:01:20Z</time>
      </trkpt>
      <trkpt lat="50.12018" lon="4.17499">
        <ele>191.6</ele>
        <time>2024-04-26T15:01:21Z</time>
      </trkpt>
      <trkpt lat="50.12016" lon="4.17509">
        <ele>191.6</ele>
        <time>2024-04-26T15:01:22Z</time>
      </trkpt>
      <trkpt lat="50.12014" lon="4.17519">
        <ele>191.6</ele>
        <time>2024-04-26T15:01:23Z</time>
      </trkpt>
      <trkpt lat="50.12011" lon="4.17529">
        <ele>191.4</ele>
        <time>2024-04-26T15:01:24Z</time>
      </trkpt>
      <trkpt lat="50.12009" lon="4.17539">
        <ele>191.6</ele>
        <time>2024-04-26T15:01:25Z</time>
      </trkpt>
      <trkpt lat="50.12007" lon="4.1755">
        <ele>191.8</ele>
        <time>2024-04-26T15:01:26Z</time>
      </trkpt>
      <trkpt lat="50.12005" lon="4.1756">
        <ele>192</ele>
        <time>2024-04-26T15:01:27Z</time>
      </trkpt>
      <trkpt lat="50.12003" lon="4.1757">
        <ele>192</ele>
        <time>2024-04-26T15:01:28Z</time>
      </trkpt>
      <trkpt lat="50.12001" lon="4.1758">
        <ele>192.2</ele>
        <time>2024-04-26T15:01:29Z</time>
      </trkpt>
      <trkpt lat="50.11999" lon="4.17591">
        <ele>192.2</ele>
        <time>2024-04-26T15:01:30Z</time>
      </trkpt>
      <trkpt lat="50.11998" lon="4.17601">
        <ele>192.4</ele>
        <time>2024-04-26T15:01:31Z</time>
      </trkpt>
      <trkpt lat="50.11996" lon="4.17612">
        <ele>192.6</ele>
        <time>2024-04-26T15:01:32Z</time>
      </trkpt>
      <trkpt lat="50.11994" lon="4.17622">
        <ele>192.6</ele>
        <time>2024-04-26T15:01:33Z</time>
      </trkpt>
      <trkpt lat="50.11993" lon="4.17633">
        <ele>192.6</ele>
        <time>2024-04-26T15:01:34Z</time>
      </trkpt>
      <trkpt lat="50.11991" lon="4.17644">
        <ele>192.4</ele>
        <time>2024-04-26T15:01:35Z</time>
      </trkpt>
      <trkpt lat="50.1199" lon="4.17655">
        <ele>192.4</ele>
        <time>2024-04-26T15:01:36Z</time>
      </trkpt>
      <trkpt lat="50.11988" lon="4.17666">
        <ele>192.6</ele>
        <time>2024-04-26T15:01:37Z</time>
      </trkpt>
      <trkpt lat="50.11987" lon="4.17677">
        <ele>192.6</ele>
        <time>2024-04-26T15:01:38Z</time>
      </trkpt>
      <trkpt lat="50.11985" lon="4.17689">
        <ele>192.6</ele>
        <time>2024-04-26T15:01:39Z</time>
      </trkpt>
      <trkpt lat="50.11984" lon="4.177">
        <ele>192.6</ele>
        <time>2024-04-26T15:01:40Z</time>
      </trkpt>
      <trkpt lat="50.11983" lon="4.17712">
        <ele>192.6</ele>
        <time>2024-04-26T15:01:41Z</time>
      </trkpt>
      <trkpt lat="50.11981" lon="4.17724">
        <ele>192.6</ele>
        <time>2024-04-26T15:01:42Z</time>
      </trkpt>
      <trkpt lat="50.11979" lon="4.17736">
        <ele>192.6</ele>
        <time>2024-04-26T15:01:43Z</time>
      </trkpt>
      <trkpt lat="50.11976" lon="4.17749">
        <ele>192.6</ele>
        <time>2024-04-26T15:01:44Z</time>
      </trkpt>
      <trkpt lat="50.11972" lon="4.1776">
        <ele>192.6</ele>
        <time>2024-04-26T15:01:45Z</time>
      </trkpt>
      <trkpt lat="50.11966" lon="4.1777">
        <ele>192.4</ele>
        <time>2024-04-26T15:01:46Z</time>
      </trkpt>
      <trkpt lat="50.11958" lon="4.17779">
        <ele>192.2</ele>
        <time>2024-04-26T15:01:47Z</time>
      </trkpt>
      <trkpt lat="50.11949" lon="4.17785">
        <ele>192</ele>
        <time>2024-04-26T15:01:48Z</time>
      </trkpt>
      <trkpt lat="50.1194" lon="4.17789">
        <ele>192</ele>
        <time>2024-04-26T15:01:49Z</time>
      </trkpt>
      <trkpt lat="50.1193" lon="4.17792">
        <ele>191.8</ele>
        <time>2024-04-26T15:01:50Z</time>
      </trkpt>
      <trkpt lat="50.1192" lon="4.17791">
        <ele>191.6</ele>
        <time>2024-04-26T15:01:51Z</time>
      </trkpt>
      <trkpt lat="50.11909" lon="4.1779">
        <ele>191.4</ele>
        <time>2024-04-26T15:01:52Z</time>
      </trkpt>
      <trkpt lat="50.11899" lon="4.17788">
        <ele>190.8</ele>
        <time>2024-04-26T15:01:53Z</time>
      </trkpt>
      <trkpt lat="50.11889" lon="4.17787">
        <ele>190.8</ele>
        <time>2024-04-26T15:01:54Z</time>
      </trkpt>
      <trkpt lat="50.11879" lon="4.17786">
        <ele>190.4</ele>
        <time>2024-04-26T15:01:55Z</time>
      </trkpt>
      <trkpt lat="50.11869" lon="4.17787">
        <ele>189.4</ele>
        <time>2024-04-26T15:01:56Z</time>
      </trkpt>
      <trkpt lat="50.1186" lon="4.17788">
        <ele>188.2</ele>
        <time>2024-04-26T15:01:57Z</time>
      </trkpt>
      <trkpt lat="50.11851" lon="4.1779">
        <ele>187.4</ele>
        <time>2024-04-26T15:01:58Z</time>
      </trkpt>
      <trkpt lat="50.11842" lon="4.17793">
        <ele>186.4</ele>
        <time>2024-04-26T15:01:59Z</time>
      </trkpt>
      <trkpt lat="50.11834" lon="4.17798">
        <ele>185.2</ele>
        <time>2024-04-26T15:02:00Z</time>
      </trkpt>
      <trkpt lat="50.11826" lon="4.17803">
        <ele>184.8</ele>
        <time>2024-04-26T15:02:01Z</time>
      </trkpt>
      <trkpt lat="50.11819" lon="4.1781">
        <ele>184.4</ele>
        <time>2024-04-26T15:02:02Z</time>
      </trkpt>
      <trkpt lat="50.11813" lon="4.17816">
        <ele>184.2</ele>
        <time>2024-04-26T15:02:03Z</time>
      </trkpt>
      <trkpt lat="50.11806" lon="4.17822">
        <ele>184.2</ele>
        <time>2024-04-26T15:02:04Z</time>
      </trkpt>
      <trkpt lat="50.118" lon="4.17828">
        <ele>184.2</ele>
        <time>2024-04-26T15:02:05Z</time>
      </trkpt>
      <trkpt lat="50.11794" lon="4.17835">
        <ele>184</ele>
        <time>2024-04-26T15:02:06Z</time>
      </trkpt>
      <trkpt lat="50.11788" lon="4.17841">
        <ele>184</ele>
        <time>2024-04-26T15:02:07Z</time>
      </trkpt>
      <trkpt lat="50.11782" lon="4.17847">
        <ele>184.2</ele>
        <time>2024-04-26T15:02:08Z</time>
      </trkpt>
      <trkpt lat="50.11775" lon="4.17853">
        <ele>184</ele>
        <time>2024-04-26T15:02:09Z</time>
      </trkpt>
      <trkpt lat="50.11768" lon="4.17859">
        <ele>184.2</ele>
        <time>2024-04-26T15:02:10Z</time>
      </trkpt>
      <trkpt lat="50.11761" lon="4.17864">
        <ele>184.4</ele>
        <time>2024-04-26T15:02:11Z</time>
      </trkpt>
      <trkpt lat="50.11754" lon="4.17868">
        <ele>184.6</ele>
        <time>2024-04-26T15:02:12Z</time>
      </trkpt>
      <trkpt lat="50.11746" lon="4.17872">
        <ele>184.8</ele>
        <time>2024-04-26T15:02:13Z</time>
      </trkpt>
      <trkpt lat="50.11739" lon="4.17875">
        <ele>184.8</ele>
        <time>2024-04-26T15:02:14Z</time>
      </trkpt>
      <trkpt lat="50.11732" lon="4.17877">
        <ele>184.8</ele>
        <time>2024-04-26T15:02:15Z</time>
      </trkpt>
      <trkpt lat="50.11724" lon="4.1788">
        <ele>184.8</ele>
        <time>2024-04-26T15:02:16Z</time>
      </trkpt>
      <trkpt lat="50.11717" lon="4.17882">
        <ele>185</ele>
        <time>2024-04-26T15:02:17Z</time>
      </trkpt>
      <trkpt lat="50.11711" lon="4.17885">
        <ele>185</ele>
        <time>2024-04-26T15:02:18Z</time>
      </trkpt>
      <trkpt lat="50.11704" lon="4.17888">
        <ele>185</ele>
        <time>2024-04-26T15:02:19Z</time>
      </trkpt>
      <trkpt lat="50.11698" lon="4.17891">
        <ele>185</ele>
        <time>2024-04-26T15:02:20Z</time>
      </trkpt>
      <trkpt lat="50.11692" lon="4.17895">
        <ele>185.2</ele>
        <time>2024-04-26T15:02:21Z</time>
      </trkpt>
      <trkpt lat="50.11686" lon="4.17899">
        <ele>185</ele>
        <time>2024-04-26T15:02:22Z</time>
      </trkpt>
      <trkpt lat="50.1168" lon="4.17903">
        <ele>185.2</ele>
        <time>2024-04-26T15:02:23Z</time>
      </trkpt>
      <trkpt lat="50.11675" lon="4.17906">
        <ele>185.2</ele>
        <time>2024-04-26T15:02:24Z</time>
      </trkpt>
      <trkpt lat="50.1167" lon="4.1791">
        <ele>185.2</ele>
        <time>2024-04-26T15:02:25Z</time>
      </trkpt>
      <trkpt lat="50.11665" lon="4.17914">
        <ele>185</ele>
        <time>2024-04-26T15:02:26Z</time>
      </trkpt>
      <trkpt lat="50.11661" lon="4.17918">
        <ele>185.4</ele>
        <time>2024-04-26T15:02:27Z</time>
      </trkpt>
      <trkpt lat="50.11656" lon="4.17922">
        <ele>185.6</ele>
        <time>2024-04-26T15:02:28Z</time>
      </trkpt>
      <trkpt lat="50.11652" lon="4.17926">
        <ele>186</ele>
        <time>2024-04-26T15:02:29Z</time>
      </trkpt>
      <trkpt lat="50.11648" lon="4.1793">
        <ele>186.2</ele>
        <time>2024-04-26T15:02:30Z</time>
      </trkpt>
      <trkpt lat="50.11644" lon="4.17934">
        <ele>186.6</ele>
        <time>2024-04-26T15:02:31Z</time>
      </trkpt>
      <trkpt lat="50.1164" lon="4.17938">
        <ele>186.8</ele>
        <time>2024-04-26T15:02:32Z</time>
      </trkpt>
      <trkpt lat="50.11636" lon="4.17942">
        <ele>187</ele>
        <time>2024-04-26T15:02:33Z</time>
      </trkpt>
      <trkpt lat="50.11632" lon="4.17945">
        <ele>187.2</ele>
        <time>2024-04-26T15:02:34Z</time>
      </trkpt>
      <trkpt lat="50.11629" lon="4.17949">
        <ele>187.6</ele>
        <time>2024-04-26T15:02:35Z</time>
      </trkpt>
      <trkpt lat="50.11625" lon="4.17952">
        <ele>188</ele>
        <time>2024-04-26T15:02:36Z</time>
      </trkpt>
      <trkpt lat="50.11621" lon="4.17956">
        <ele>188.8</ele>
        <time>2024-04-26T15:02:37Z</time>
      </trkpt>
      <trkpt lat="50.11617" lon="4.1796">
        <ele>188.8</ele>
        <time>2024-04-26T15:02:38Z</time>
      </trkpt>
      <trkpt lat="50.11614" lon="4.17963">
        <ele>189.8</ele>
        <time>2024-04-26T15:02:39Z</time>
      </trkpt>
      <trkpt lat="50.1161" lon="4.17967">
        <ele>190.2</ele>
        <time>2024-04-26T15:02:40Z</time>
      </trkpt>
      <trkpt lat="50.11607" lon="4.17971">
        <ele>191.2</ele>
        <time>2024-04-26T15:02:41Z</time>
      </trkpt>
      <trkpt lat="50.11603" lon="4.17975">
        <ele>191.6</ele>
        <time>2024-04-26T15:02:42Z</time>
      </trkpt>
      <trkpt lat="50.116" lon="4.17979">
        <ele>192.2</ele>
        <time>2024-04-26T15:02:43Z</time>
      </trkpt>
      <trkpt lat="50.11596" lon="4.17983">
        <ele>192.4</ele>
        <time>2024-04-26T15:02:44Z</time>
      </trkpt>
      <trkpt lat="50.11593" lon="4.17988">
        <ele>193</ele>
        <time>2024-04-26T15:02:45Z</time>
      </trkpt>
      <trkpt lat="50.11589" lon="4.17992">
        <ele>193.4</ele>
        <time>2024-04-26T15:02:46Z</time>
      </trkpt>
      <trkpt lat="50.11586" lon="4.17997">
        <ele>193.6</ele>
        <time>2024-04-26T15:02:47Z</time>
      </trkpt>
      <trkpt lat="50.11583" lon="4.18001">
        <ele>194.2</ele>
        <time>2024-04-26T15:02:48Z</time>
      </trkpt>
      <trkpt lat="50.1158" lon="4.18006">
        <ele>194.6</ele>
        <time>2024-04-26T15:02:49Z</time>
      </trkpt>
      <trkpt lat="50.11577" lon="4.18011">
        <ele>195.2</ele>
        <time>2024-04-26T15:02:50Z</time>
      </trkpt>
      <trkpt lat="50.11574" lon="4.18016">
        <ele>195.2</ele>
        <time>2024-04-26T15:02:51Z</time>
      </trkpt>
      <trkpt lat="50.11571" lon="4.1802">
        <ele>195.6</ele>
        <time>2024-04-26T15:02:52Z</time>
      </trkpt>
      <trkpt lat="50.11568" lon="4.18025">
        <ele>196</ele>
        <time>2024-04-26T15:02:53Z</time>
      </trkpt>
      <trkpt lat="50.11565" lon="4.1803">
        <ele>196</ele>
        <time>2024-04-26T15:02:54Z</time>
      </trkpt>
      <trkpt lat="50.11562" lon="4.18035">
        <ele>196.2</ele>
        <time>2024-04-26T15:02:55Z</time>
      </trkpt>
      <trkpt lat="50.11559" lon="4.1804">
        <ele>196.6</ele>
        <time>2024-04-26T15:02:56Z</time>
      </trkpt>
      <trkpt lat="50.11556" lon="4.18045">
        <ele>197.2</ele>
        <time>2024-04-26T15:02:57Z</time>
      </trkpt>
      <trkpt lat="50.11552" lon="4.18051">
        <ele>197.6</ele>
        <time>2024-04-26T15:02:58Z</time>
      </trkpt>
      <trkpt lat="50.11548" lon="4.18056">
        <ele>197.6</ele>
        <time>2024-04-26T15:02:59Z</time>
      </trkpt>
      <trkpt lat="50.11543" lon="4.18063">
        <ele>197.6</ele>
        <time>2024-04-26T15:03:00Z</time>
      </trkpt>
      <trkpt lat="50.11538" lon="4.18068">
        <ele>197.8</ele>
        <time>2024-04-26T15:03:01Z</time>
      </trkpt>
      <trkpt lat="50.11532" lon="4.18074">
        <ele>197.8</ele>
        <time>2024-04-26T15:03:02Z</time>
      </trkpt>
      <trkpt lat="50.11525" lon="4.18079">
        <ele>197.8</ele>
        <time>2024-04-26T15:03:03Z</time>
      </trkpt>
      <trkpt lat="50.11519" lon="4.18085">
        <ele>198</ele>
        <time>2024-04-26T15:03:04Z</time>
      </trkpt>
      <trkpt lat="50.11512" lon="4.18091">
        <ele>198</ele>
        <time>2024-04-26T15:03:05Z</time>
      </trkpt>
      <trkpt lat="50.11505" lon="4.18099">
        <ele>198</ele>
        <time>2024-04-26T15:03:06Z</time>
      </trkpt>
      <trkpt lat="50.11498" lon="4.18107">
        <ele>198</ele>
        <time>2024-04-26T15:03:07Z</time>
      </trkpt>
      <trkpt lat="50.11492" lon="4.18116">
        <ele>198</ele>
        <time>2024-04-26T15:03:08Z</time>
      </trkpt>
      <trkpt lat="50.11485" lon="4.18125">
        <ele>197.8</ele>
        <time>2024-04-26T15:03:09Z</time>
      </trkpt>
      <trkpt lat="50.11478" lon="4.18135">
        <ele>197.4</ele>
        <time>2024-04-26T15:03:10Z</time>
      </trkpt>
      <trkpt lat="50.11469" lon="4.18145">
        <ele>197</ele>
        <time>2024-04-26T15:03:11Z</time>
      </trkpt>
      <trkpt lat="50.11461" lon="4.18154">
        <ele>196.6</ele>
        <time>2024-04-26T15:03:12Z</time>
      </trkpt>
      <trkpt lat="50.11451" lon="4.18162">
        <ele>196.4</ele>
        <time>2024-04-26T15:03:13Z</time>
      </trkpt>
      <trkpt lat="50.11441" lon="4.1817">
        <ele>195.6</ele>
        <time>2024-04-26T15:03:14Z</time>
      </trkpt>
      <trkpt lat="50.11431" lon="4.18178">
        <ele>195</ele>
        <time>2024-04-26T15:03:15Z</time>
      </trkpt>
      <trkpt lat="50.1142" lon="4.18186">
        <ele>194.2</ele>
        <time>2024-04-26T15:03:16Z</time>
      </trkpt>
      <trkpt lat="50.1141" lon="4.18194">
        <ele>193.6</ele>
        <time>2024-04-26T15:03:17Z</time>
      </trkpt>
      <trkpt lat="50.11399" lon="4.18203">
        <ele>192.8</ele>
        <time>2024-04-26T15:03:18Z</time>
      </trkpt>
      <trkpt lat="50.11389" lon="4.18211">
        <ele>192.2</ele>
        <time>2024-04-26T15:03:19Z</time>
      </trkpt>
      <trkpt lat="50.1138" lon="4.18219">
        <ele>191.4</ele>
        <time>2024-04-26T15:03:20Z</time>
      </trkpt>
      <trkpt lat="50.1137" lon="4.18226">
        <ele>190.8</ele>
        <time>2024-04-26T15:03:21Z</time>
      </trkpt>
      <trkpt lat="50.11362" lon="4.18234">
        <ele>190.8</ele>
        <time>2024-04-26T15:03:22Z</time>
      </trkpt>
      <trkpt lat="50.11353" lon="4.18242">
        <ele>189.4</ele>
        <time>2024-04-26T15:03:23Z</time>
      </trkpt>
      <trkpt lat="50.11346" lon="4.18249">
        <ele>188.4</ele>
        <time>2024-04-26T15:03:24Z</time>
      </trkpt>
      <trkpt lat="50.11338" lon="4.18256">
        <ele>188</ele>
        <time>2024-04-26T15:03:25Z</time>
      </trkpt>
      <trkpt lat="50.11331" lon="4.18263">
        <ele>187.8</ele>
        <time>2024-04-26T15:03:26Z</time>
      </trkpt>
      <trkpt lat="50.11325" lon="4.18269">
        <ele>187.6</ele>
        <time>2024-04-26T15:03:27Z</time>
      </trkpt>
      <trkpt lat="50.11318" lon="4.18276">
        <ele>187.6</ele>
        <time>2024-04-26T15:03:28Z</time>
      </trkpt>
      <trkpt lat="50.11312" lon="4.18282">
        <ele>187.6</ele>
        <time>2024-04-26T15:03:29Z</time>
      </trkpt>
      <trkpt lat="50.11305" lon="4.18287">
        <ele>187.6</ele>
        <time>2024-04-26T15:03:30Z</time>
      </trkpt>
      <trkpt lat="50.11299" lon="4.18293">
        <ele>187.6</ele>
        <time>2024-04-26T15:03:31Z</time>
      </trkpt>
      <trkpt lat="50.11292" lon="4.18298">
        <ele>187.6</ele>
        <time>2024-04-26T15:03:32Z</time>
      </trkpt>
      <trkpt lat="50.11285" lon="4.18302">
        <ele>187.4</ele>
        <time>2024-04-26T15:03:33Z</time>
      </trkpt>
      <trkpt lat="50.11277" lon="4.18306">
        <ele>188.2</ele>
        <time>2024-04-26T15:03:34Z</time>
      </trkpt>
      <trkpt lat="50.1127" lon="4.1831">
        <ele>188.4</ele>
        <time>2024-04-26T15:03:35Z</time>
      </trkpt>
      <trkpt lat="50.11262" lon="4.18314">
        <ele>188.8</ele>
        <time>2024-04-26T15:03:36Z</time>
      </trkpt>
      <trkpt lat="50.11254" lon="4.18317">
        <ele>188.8</ele>
        <time>2024-04-26T15:03:37Z</time>
      </trkpt>
      <trkpt lat="50.11246" lon="4.1832">
        <ele>188.8</ele>
        <time>2024-04-26T15:03:38Z</time>
      </trkpt>
      <trkpt lat="50.11238" lon="4.18323">
        <ele>188.8</ele>
        <time>2024-04-26T15:03:39Z</time>
      </trkpt>
      <trkpt lat="50.1123" lon="4.18326">
        <ele>188.8</ele>
        <time>2024-04-26T15:03:40Z</time>
      </trkpt>
      <trkpt lat="50.11223" lon="4.18329">
        <ele>188.8</ele>
        <time>2024-04-26T15:03:41Z</time>
      </trkpt>
      <trkpt lat="50.11216" lon="4.18331">
        <ele>188.8</ele>
        <time>2024-04-26T15:03:42Z</time>
      </trkpt>
      <trkpt lat="50.11209" lon="4.18333">
        <ele>188.8</ele>
        <time>2024-04-26T15:03:43Z</time>
      </trkpt>
      <trkpt lat="50.11202" lon="4.18335">
        <ele>188.8</ele>
        <time>2024-04-26T15:03:44Z</time>
      </trkpt>
      <trkpt lat="50.11195" lon="4.18336">
        <ele>189</ele>
        <time>2024-04-26T15:03:45Z</time>
      </trkpt>
      <trkpt lat="50.11189" lon="4.18337">
        <ele>188.8</ele>
        <time>2024-04-26T15:03:46Z</time>
      </trkpt>
      <trkpt lat="50.11183" lon="4.18338">
        <ele>188.8</ele>
        <time>2024-04-26T15:03:47Z</time>
      </trkpt>
      <trkpt lat="50.11177" lon="4.18339">
        <ele>188.8</ele>
        <time>2024-04-26T15:03:48Z</time>
      </trkpt>
      <trkpt lat="50.11171" lon="4.18341">
        <ele>188.8</ele>
        <time>2024-04-26T15:03:49Z</time>
      </trkpt>
      <trkpt lat="50.11165" lon="4.18342">
        <ele>188.8</ele>
        <time>2024-04-26T15:03:50Z</time>
      </trkpt>
      <trkpt lat="50.1116" lon="4.18343">
        <ele>188.8</ele>
        <time>2024-04-26T15:03:51Z</time>
      </trkpt>
      <trkpt lat="50.11154" lon="4.18345">
        <ele>189</ele>
        <time>2024-04-26T15:03:52Z</time>
      </trkpt>
      <trkpt lat="50.11149" lon="4.18347">
        <ele>189</ele>
        <time>2024-04-26T15:03:53Z</time>
      </trkpt>
      <trkpt lat="50.11143" lon="4.1835">
        <ele>189.2</ele>
        <time>2024-04-26T15:03:54Z</time>
      </trkpt>
      <trkpt lat="50.11138" lon="4.18352">
        <ele>189.4</ele>
        <time>2024-04-26T15:03:55Z</time>
      </trkpt>
      <trkpt lat="50.11133" lon="4.18355">
        <ele>190</ele>
        <time>2024-04-26T15:03:56Z</time>
      </trkpt>
      <trkpt lat="50.11128" lon="4.18358">
        <ele>190.6</ele>
        <time>2024-04-26T15:03:57Z</time>
      </trkpt>
      <trkpt lat="50.11122" lon="4.1836">
        <ele>191</ele>
        <time>2024-04-26T15:03:58Z</time>
      </trkpt>
      <trkpt lat="50.11117" lon="4.18363">
        <ele>192</ele>
        <time>2024-04-26T15:03:59Z</time>
      </trkpt>
      <trkpt lat="50.11111" lon="4.18366">
        <ele>192.8</ele>
        <time>2024-04-26T15:04:00Z</time>
      </trkpt>
      <trkpt lat="50.11106" lon="4.18369">
        <ele>193.4</ele>
        <time>2024-04-26T15:04:01Z</time>
      </trkpt>
      <trkpt lat="50.111" lon="4.18373">
        <ele>193.8</ele>
        <time>2024-04-26T15:04:02Z</time>
      </trkpt>
      <trkpt lat="50.11095" lon="4.18377">
        <ele>194.2</ele>
        <time>2024-04-26T15:04:03Z</time>
      </trkpt>
      <trkpt lat="50.1109" lon="4.18381">
        <ele>194.6</ele>
        <time>2024-04-26T15:04:04Z</time>
      </trkpt>
      <trkpt lat="50.11084" lon="4.18386">
        <ele>194.8</ele>
        <time>2024-04-26T15:04:05Z</time>
      </trkpt>
      <trkpt lat="50.11079" lon="4.18391">
        <ele>194.8</ele>
        <time>2024-04-26T15:04:06Z</time>
      </trkpt>
      <trkpt lat="50.11075" lon="4.18397">
        <ele>195</ele>
        <time>2024-04-26T15:04:07Z</time>
      </trkpt>
      <trkpt lat="50.1107" lon="4.18403">
        <ele>195</ele>
        <time>2024-04-26T15:04:08Z</time>
      </trkpt>
      <trkpt lat="50.11066" lon="4.18409">
        <ele>195.6</ele>
        <time>2024-04-26T15:04:09Z</time>
      </trkpt>
      <trkpt lat="50.11062" lon="4.18416">
        <ele>195.8</ele>
        <time>2024-04-26T15:04:10Z</time>
      </trkpt>
      <trkpt lat="50.11058" lon="4.18424">
        <ele>196</ele>
        <time>2024-04-26T15:04:11Z</time>
      </trkpt>
      <trkpt lat="50.11054" lon="4.18432">
        <ele>196.2</ele>
        <time>2024-04-26T15:04:12Z</time>
      </trkpt>
      <trkpt lat="50.1105" lon="4.1844">
        <ele>196.4</ele>
        <time>2024-04-26T15:04:13Z</time>
      </trkpt>
      <trkpt lat="50.11046" lon="4.18448">
        <ele>196.4</ele>
        <time>2024-04-26T15:04:14Z</time>
      </trkpt>
      <trkpt lat="50.11041" lon="4.18457">
        <ele>196.4</ele>
        <time>2024-04-26T15:04:15Z</time>
      </trkpt>
      <trkpt lat="50.11037" lon="4.18466">
        <ele>196.6</ele>
        <time>2024-04-26T15:04:16Z</time>
      </trkpt>
      <trkpt lat="50.11032" lon="4.18475">
        <ele>196.6</ele>
        <time>2024-04-26T15:04:17Z</time>
      </trkpt>
      <trkpt lat="50.11027" lon="4.18483">
        <ele>196.4</ele>
        <time>2024-04-26T15:04:18Z</time>
      </trkpt>
      <trkpt lat="50.11022" lon="4.18491">
        <ele>196.4</ele>
        <time>2024-04-26T15:04:19Z</time>
      </trkpt>
      <trkpt lat="50.11017" lon="4.185">
        <ele>196.4</ele>
        <time>2024-04-26T15:04:20Z</time>
      </trkpt>
      <trkpt lat="50.11012" lon="4.18508">
        <ele>196.6</ele>
        <time>2024-04-26T15:04:21Z</time>
      </trkpt>
      <trkpt lat="50.11006" lon="4.18516">
        <ele>196.4</ele>
        <time>2024-04-26T15:04:22Z</time>
      </trkpt>
      <trkpt lat="50.11001" lon="4.18524">
        <ele>196.4</ele>
        <time>2024-04-26T15:04:23Z</time>
      </trkpt>
      <trkpt lat="50.10996" lon="4.18532">
        <ele>196.4</ele>
        <time>2024-04-26T15:04:24Z</time>
      </trkpt>
      <trkpt lat="50.1099" lon="4.18541">
        <ele>196.4</ele>
        <time>2024-04-26T15:04:25Z</time>
      </trkpt>
      <trkpt lat="50.10984" lon="4.18549">
        <ele>196.4</ele>
        <time>2024-04-26T15:04:26Z</time>
      </trkpt>
      <trkpt lat="50.10979" lon="4.18557">
        <ele>196.4</ele>
        <time>2024-04-26T15:04:27Z</time>
      </trkpt>
      <trkpt lat="50.10973" lon="4.18565">
        <ele>196.4</ele>
        <time>2024-04-26T15:04:28Z</time>
      </trkpt>
      <trkpt lat="50.10967" lon="4.18574">
        <ele>196.4</ele>
        <time>2024-04-26T15:04:29Z</time>
      </trkpt>
      <trkpt lat="50.10961" lon="4.18582">
        <ele>196.2</ele>
        <time>2024-04-26T15:04:30Z</time>
      </trkpt>
      <trkpt lat="50.10956" lon="4.18592">
        <ele>196.2</ele>
        <time>2024-04-26T15:04:31Z</time>
      </trkpt>
      <trkpt lat="50.1095" lon="4.18601">
        <ele>196</ele>
        <time>2024-04-26T15:04:32Z</time>
      </trkpt>
      <trkpt lat="50.10945" lon="4.18611">
        <ele>195.8</ele>
        <time>2024-04-26T15:04:33Z</time>
      </trkpt>
      <trkpt lat="50.10939" lon="4.18622">
        <ele>195.8</ele>
        <time>2024-04-26T15:04:34Z</time>
      </trkpt>
      <trkpt lat="50.10934" lon="4.18632">
        <ele>195.6</ele>
        <time>2024-04-26T15:04:35Z</time>
      </trkpt>
      <trkpt lat="50.10928" lon="4.18643">
        <ele>195.4</ele>
        <time>2024-04-26T15:04:36Z</time>
      </trkpt>
      <trkpt lat="50.10923" lon="4.18655">
        <ele>195.2</ele>
        <time>2024-04-26T15:04:37Z</time>
      </trkpt>
      <trkpt lat="50.10918" lon="4.18666">
        <ele>195</ele>
        <time>2024-04-26T15:04:38Z</time>
      </trkpt>
      <trkpt lat="50.10913" lon="4.18678">
        <ele>194.6</ele>
        <time>2024-04-26T15:04:39Z</time>
      </trkpt>
      <trkpt lat="50.10907" lon="4.1869">
        <ele>194.2</ele>
        <time>2024-04-26T15:04:40Z</time>
      </trkpt>
      <trkpt lat="50.10902" lon="4.18701">
        <ele>193.8</ele>
        <time>2024-04-26T15:04:41Z</time>
      </trkpt>
      <trkpt lat="50.10897" lon="4.18713">
        <ele>193.6</ele>
        <time>2024-04-26T15:04:42Z</time>
      </trkpt>
      <trkpt lat="50.10892" lon="4.18725">
        <ele>193.4</ele>
        <time>2024-04-26T15:04:43Z</time>
      </trkpt>
      <trkpt lat="50.10886" lon="4.18737">
        <ele>192.8</ele>
        <time>2024-04-26T15:04:44Z</time>
      </trkpt>
      <trkpt lat="50.10881" lon="4.18748">
        <ele>192</ele>
        <time>2024-04-26T15:04:45Z</time>
      </trkpt>
      <trkpt lat="50.10876" lon="4.18759">
        <ele>191.4</ele>
        <time>2024-04-26T15:04:46Z</time>
      </trkpt>
      <trkpt lat="50.10871" lon="4.18771">
        <ele>191</ele>
        <time>2024-04-26T15:04:47Z</time>
      </trkpt>
      <trkpt lat="50.10865" lon="4.18782">
        <ele>190.8</ele>
        <time>2024-04-26T15:04:48Z</time>
      </trkpt>
      <trkpt lat="50.1086" lon="4.18793">
        <ele>190.8</ele>
        <time>2024-04-26T15:04:49Z</time>
      </trkpt>
      <trkpt lat="50.10855" lon="4.18804">
        <ele>190.6</ele>
        <time>2024-04-26T15:04:50Z</time>
      </trkpt>
      <trkpt lat="50.1085" lon="4.18815">
        <ele>190</ele>
        <time>2024-04-26T15:04:51Z</time>
      </trkpt>
      <trkpt lat="50.10845" lon="4.18826">
        <ele>190</ele>
        <time>2024-04-26T15:04:52Z</time>
      </trkpt>
      <trkpt lat="50.10841" lon="4.18837">
        <ele>189.6</ele>
        <time>2024-04-26T15:04:53Z</time>
      </trkpt>
      <trkpt lat="50.10836" lon="4.18848">
        <ele>189.4</ele>
        <time>2024-04-26T15:04:54Z</time>
      </trkpt>
      <trkpt lat="50.10832" lon="4.1886">
        <ele>189.2</ele>
        <time>2024-04-26T15:04:55Z</time>
      </trkpt>
      <trkpt lat="50.10828" lon="4.18872">
        <ele>188.8</ele>
        <time>2024-04-26T15:04:56Z</time>
      </trkpt>
      <trkpt lat="50.10825" lon="4.18884">
        <ele>188.4</ele>
        <time>2024-04-26T15:04:57Z</time>
      </trkpt>
      <trkpt lat="50.10822" lon="4.18896">
        <ele>188</ele>
        <time>2024-04-26T15:04:58Z</time>
      </trkpt>
      <trkpt lat="50.1082" lon="4.18908">
        <ele>187.8</ele>
        <time>2024-04-26T15:04:59Z</time>
      </trkpt>
      <trkpt lat="50.10818" lon="4.1892">
        <ele>187.6</ele>
        <time>2024-04-26T15:05:00Z</time>
      </trkpt>
      <trkpt lat="50.10817" lon="4.18932">
        <ele>187.6</ele>
        <time>2024-04-26T15:05:01Z</time>
      </trkpt>
      <trkpt lat="50.10816" lon="4.18944">
        <ele>187.4</ele>
        <time>2024-04-26T15:05:02Z</time>
      </trkpt>
      <trkpt lat="50.10814" lon="4.18956">
        <ele>187.4</ele>
        <time>2024-04-26T15:05:03Z</time>
      </trkpt>
      <trkpt lat="50.10813" lon="4.18967">
        <ele>187.2</ele>
        <time>2024-04-26T15:05:04Z</time>
      </trkpt>
      <trkpt lat="50.10812" lon="4.18977">
        <ele>187.2</ele>
        <time>2024-04-26T15:05:05Z</time>
      </trkpt>
      <trkpt lat="50.10811" lon="4.18988">
        <ele>187.2</ele>
        <time>2024-04-26T15:05:06Z</time>
      </trkpt>
      <trkpt lat="50.10809" lon="4.18998">
        <ele>187.2</ele>
        <time>2024-04-26T15:05:07Z</time>
      </trkpt>
      <trkpt lat="50.10807" lon="4.19008">
        <ele>187.4</ele>
        <time>2024-04-26T15:05:08Z</time>
      </trkpt>
      <trkpt lat="50.10805" lon="4.19018">
        <ele>187.2</ele>
        <time>2024-04-26T15:05:09Z</time>
      </trkpt>
      <trkpt lat="50.10803" lon="4.19028">
        <ele>187.4</ele>
        <time>2024-04-26T15:05:10Z</time>
      </trkpt>
      <trkpt lat="50.10801" lon="4.19038">
        <ele>187.4</ele>
        <time>2024-04-26T15:05:11Z</time>
      </trkpt>
      <trkpt lat="50.10798" lon="4.19047">
        <ele>187.4</ele>
        <time>2024-04-26T15:05:12Z</time>
      </trkpt>
      <trkpt lat="50.10796" lon="4.19057">
        <ele>187.8</ele>
        <time>2024-04-26T15:05:13Z</time>
      </trkpt>
      <trkpt lat="50.10793" lon="4.19066">
        <ele>188</ele>
        <time>2024-04-26T15:05:14Z</time>
      </trkpt>
      <trkpt lat="50.1079" lon="4.19075">
        <ele>188</ele>
        <time>2024-04-26T15:05:15Z</time>
      </trkpt>
      <trkpt lat="50.10787" lon="4.19083">
        <ele>188.4</ele>
        <time>2024-04-26T15:05:16Z</time>
      </trkpt>
      <trkpt lat="50.10785" lon="4.19092">
        <ele>188.2</ele>
        <time>2024-04-26T15:05:17Z</time>
      </trkpt>
      <trkpt lat="50.10782" lon="4.191">
        <ele>188.4</ele>
        <time>2024-04-26T15:05:18Z</time>
      </trkpt>
      <trkpt lat="50.10779" lon="4.19108">
        <ele>188.6</ele>
        <time>2024-04-26T15:05:19Z</time>
      </trkpt>
      <trkpt lat="50.10776" lon="4.19116">
        <ele>188.8</ele>
        <time>2024-04-26T15:05:20Z</time>
      </trkpt>
      <trkpt lat="50.10773" lon="4.19124">
        <ele>188.8</ele>
        <time>2024-04-26T15:05:21Z</time>
      </trkpt>
      <trkpt lat="50.10769" lon="4.19132">
        <ele>189</ele>
        <time>2024-04-26T15:05:22Z</time>
      </trkpt>
      <trkpt lat="50.10766" lon="4.1914">
        <ele>189.2</ele>
        <time>2024-04-26T15:05:23Z</time>
      </trkpt>
      <trkpt lat="50.10763" lon="4.19148">
        <ele>189.6</ele>
        <time>2024-04-26T15:05:24Z</time>
      </trkpt>
      <trkpt lat="50.10759" lon="4.19156">
        <ele>190</ele>
        <time>2024-04-26T15:05:25Z</time>
      </trkpt>
      <trkpt lat="50.10756" lon="4.19163">
        <ele>190.2</ele>
        <time>2024-04-26T15:05:26Z</time>
      </trkpt>
      <trkpt lat="50.10751" lon="4.19171">
        <ele>190.4</ele>
        <time>2024-04-26T15:05:27Z</time>
      </trkpt>
      <trkpt lat="50.10747" lon="4.19179">
        <ele>190.4</ele>
        <time>2024-04-26T15:05:28Z</time>
      </trkpt>
      <trkpt lat="50.10742" lon="4.19187">
        <ele>190.6</ele>
        <time>2024-04-26T15:05:29Z</time>
      </trkpt>
      <trkpt lat="50.10737" lon="4.19194">
        <ele>190.6</ele>
        <time>2024-04-26T15:05:30Z</time>
      </trkpt>
      <trkpt lat="50.10732" lon="4.19201">
        <ele>190.8</ele>
        <time>2024-04-26T15:05:31Z</time>
      </trkpt>
      <trkpt lat="50.10726" lon="4.19208">
        <ele>190.8</ele>
        <time>2024-04-26T15:05:32Z</time>
      </trkpt>
      <trkpt lat="50.1072" lon="4.19215">
        <ele>190.8</ele>
        <time>2024-04-26T15:05:33Z</time>
      </trkpt>
      <trkpt lat="50.10715" lon="4.19223">
        <ele>190.6</ele>
        <time>2024-04-26T15:05:34Z</time>
      </trkpt>
      <trkpt lat="50.10709" lon="4.19232">
        <ele>190.6</ele>
        <time>2024-04-26T15:05:35Z</time>
      </trkpt>
      <trkpt lat="50.10703" lon="4.1924">
        <ele>190.6</ele>
        <time>2024-04-26T15:05:36Z</time>
      </trkpt>
      <trkpt lat="50.10697" lon="4.19249">
        <ele>190.4</ele>
        <time>2024-04-26T15:05:37Z</time>
      </trkpt>
      <trkpt lat="50.10692" lon="4.19259">
        <ele>190.2</ele>
        <time>2024-04-26T15:05:38Z</time>
      </trkpt>
      <trkpt lat="50.10687" lon="4.19268">
        <ele>190.2</ele>
        <time>2024-04-26T15:05:39Z</time>
      </trkpt>
      <trkpt lat="50.10682" lon="4.19278">
        <ele>189.8</ele>
        <time>2024-04-26T15:05:40Z</time>
      </trkpt>
      <trkpt lat="50.10677" lon="4.19287">
        <ele>189.6</ele>
        <time>2024-04-26T15:05:41Z</time>
      </trkpt>
      <trkpt lat="50.10671" lon="4.19297">
        <ele>189.4</ele>
        <time>2024-04-26T15:05:42Z</time>
      </trkpt>
      <trkpt lat="50.10666" lon="4.19306">
        <ele>189.2</ele>
        <time>2024-04-26T15:05:43Z</time>
      </trkpt>
      <trkpt lat="50.1066" lon="4.19315">
        <ele>189.2</ele>
        <time>2024-04-26T15:05:44Z</time>
      </trkpt>
      <trkpt lat="50.10653" lon="4.19322">
        <ele>189</ele>
        <time>2024-04-26T15:05:45Z</time>
      </trkpt>
      <trkpt lat="50.10647" lon="4.19328">
        <ele>189.2</ele>
        <time>2024-04-26T15:05:46Z</time>
      </trkpt>
      <trkpt lat="50.10639" lon="4.19332">
        <ele>189</ele>
        <time>2024-04-26T15:05:47Z</time>
      </trkpt>
      <trkpt lat="50.10632" lon="4.19334">
        <ele>189</ele>
        <time>2024-04-26T15:05:48Z</time>
      </trkpt>
      <trkpt lat="50.10624" lon="4.19335">
        <ele>189</ele>
        <time>2024-04-26T15:05:49Z</time>
      </trkpt>
      <trkpt lat="50.10617" lon="4.19336">
        <ele>189</ele>
        <time>2024-04-26T15:05:50Z</time>
      </trkpt>
      <trkpt lat="50.1061" lon="4.19337">
        <ele>188.8</ele>
        <time>2024-04-26T15:05:51Z</time>
      </trkpt>
      <trkpt lat="50.10603" lon="4.19338">
        <ele>189</ele>
        <time>2024-04-26T15:05:52Z</time>
      </trkpt>
      <trkpt lat="50.10596" lon="4.19339">
        <ele>189</ele>
        <time>2024-04-26T15:05:53Z</time>
      </trkpt>
      <trkpt lat="50.10589" lon="4.19339">
        <ele>189</ele>
        <time>2024-04-26T15:05:54Z</time>
      </trkpt>
      <trkpt lat="50.10582" lon="4.1934">
        <ele>188.8</ele>
        <time>2024-04-26T15:05:55Z</time>
      </trkpt>
      <trkpt lat="50.10575" lon="4.1934">
        <ele>189</ele>
        <time>2024-04-26T15:05:56Z</time>
      </trkpt>
      <trkpt lat="50.10568" lon="4.19339">
        <ele>188.8</ele>
        <time>2024-04-26T15:05:57Z</time>
      </trkpt>
      <trkpt lat="50.10562" lon="4.19339">
        <ele>189</ele>
        <time>2024-04-26T15:05:58Z</time>
      </trkpt>
      <trkpt lat="50.10555" lon="4.19338">
        <ele>189</ele>
        <time>2024-04-26T15:05:59Z</time>
      </trkpt>
      <trkpt lat="50.10549" lon="4.19337">
        <ele>189</ele>
        <time>2024-04-26T15:06:00Z</time>
      </trkpt>
      <trkpt lat="50.10543" lon="4.19336">
        <ele>189.2</ele>
        <time>2024-04-26T15:06:01Z</time>
      </trkpt>
      <trkpt lat="50.10537" lon="4.19335">
        <ele>189.2</ele>
        <time>2024-04-26T15:06:02Z</time>
      </trkpt>
      <trkpt lat="50.1053" lon="4.19333">
        <ele>189.2</ele>
        <time>2024-04-26T15:06:03Z</time>
      </trkpt>
      <trkpt lat="50.10524" lon="4.19332">
        <ele>189.2</ele>
        <time>2024-04-26T15:06:04Z</time>
      </trkpt>
      <trkpt lat="50.10517" lon="4.19331">
        <ele>189.2</ele>
        <time>2024-04-26T15:06:05Z</time>
      </trkpt>
      <trkpt lat="50.1051" lon="4.1933">
        <ele>189.4</ele>
        <time>2024-04-26T15:06:06Z</time>
      </trkpt>
      <trkpt lat="50.10503" lon="4.19329">
        <ele>189.6</ele>
        <time>2024-04-26T15:06:07Z</time>
      </trkpt>
      <trkpt lat="50.10495" lon="4.19328">
        <ele>189.6</ele>
        <time>2024-04-26T15:06:08Z</time>
      </trkpt>
      <trkpt lat="50.10488" lon="4.19327">
        <ele>189.8</ele>
        <time>2024-04-26T15:06:09Z</time>
      </trkpt>
      <trkpt lat="50.1048" lon="4.19326">
        <ele>189.8</ele>
        <time>2024-04-26T15:06:10Z</time>
      </trkpt>
      <trkpt lat="50.10471" lon="4.19325">
        <ele>189.8</ele>
        <time>2024-04-26T15:06:11Z</time>
      </trkpt>
      <trkpt lat="50.10463" lon="4.19324">
        <ele>190</ele>
        <time>2024-04-26T15:06:12Z</time>
      </trkpt>
      <trkpt lat="50.10455" lon="4.19323">
        <ele>189.8</ele>
        <time>2024-04-26T15:06:13Z</time>
      </trkpt>
      <trkpt lat="50.10446" lon="4.19321">
        <ele>189.8</ele>
        <time>2024-04-26T15:06:14Z</time>
      </trkpt>
      <trkpt lat="50.10438" lon="4.1932">
        <ele>189.8</ele>
        <time>2024-04-26T15:06:15Z</time>
      </trkpt>
      <trkpt lat="50.1043" lon="4.19318">
        <ele>189.8</ele>
        <time>2024-04-26T15:06:16Z</time>
      </trkpt>
      <trkpt lat="50.10422" lon="4.19317">
        <ele>189.8</ele>
        <time>2024-04-26T15:06:17Z</time>
      </trkpt>
      <trkpt lat="50.10414" lon="4.19316">
        <ele>189.8</ele>
        <time>2024-04-26T15:06:18Z</time>
      </trkpt>
      <trkpt lat="50.10407" lon="4.19315">
        <ele>189.8</ele>
        <time>2024-04-26T15:06:19Z</time>
      </trkpt>
      <trkpt lat="50.10399" lon="4.19315">
        <ele>189.6</ele>
        <time>2024-04-26T15:06:20Z</time>
      </trkpt>
      <trkpt lat="50.10391" lon="4.19314">
        <ele>189.2</ele>
        <time>2024-04-26T15:06:21Z</time>
      </trkpt>
      <trkpt lat="50.10384" lon="4.19314">
        <ele>189</ele>
        <time>2024-04-26T15:06:22Z</time>
      </trkpt>
      <trkpt lat="50.10377" lon="4.19314">
        <ele>188.8</ele>
        <time>2024-04-26T15:06:23Z</time>
      </trkpt>
      <trkpt lat="50.10369" lon="4.19315">
        <ele>188.8</ele>
        <time>2024-04-26T15:06:24Z</time>
      </trkpt>
      <trkpt lat="50.10362" lon="4.19315">
        <ele>188.8</ele>
        <time>2024-04-26T15:06:25Z</time>
      </trkpt>
      <trkpt lat="50.10356" lon="4.19315">
        <ele>188.6</ele>
        <time>2024-04-26T15:06:26Z</time>
      </trkpt>
      <trkpt lat="50.10349" lon="4.19315">
        <ele>188.6</ele>
        <time>2024-04-26T15:06:27Z</time>
      </trkpt>
      <trkpt lat="50.10342" lon="4.19315">
        <ele>188.4</ele>
        <time>2024-04-26T15:06:28Z</time>
      </trkpt>
      <trkpt lat="50.10336" lon="4.19315">
        <ele>188.4</ele>
        <time>2024-04-26T15:06:29Z</time>
      </trkpt>
      <trkpt lat="50.10329" lon="4.19315">
        <ele>188.4</ele>
        <time>2024-04-26T15:06:30Z</time>
      </trkpt>
      <trkpt lat="50.10323" lon="4.19315">
        <ele>188.4</ele>
        <time>2024-04-26T15:06:31Z</time>
      </trkpt>
      <trkpt lat="50.10316" lon="4.19315">
        <ele>188.4</ele>
        <time>2024-04-26T15:06:32Z</time>
      </trkpt>
      <trkpt lat="50.1031" lon="4.19315">
        <ele>188.6</ele>
        <time>2024-04-26T15:06:33Z</time>
      </trkpt>
      <trkpt lat="50.10304" lon="4.19315">
        <ele>188.6</ele>
        <time>2024-04-26T15:06:34Z</time>
      </trkpt>
      <trkpt lat="50.10298" lon="4.19315">
        <ele>188.6</ele>
        <time>2024-04-26T15:06:35Z</time>
      </trkpt>
      <trkpt lat="50.10291" lon="4.19315">
        <ele>188.8</ele>
        <time>2024-04-26T15:06:36Z</time>
      </trkpt>
      <trkpt lat="50.10285" lon="4.19316">
        <ele>189</ele>
        <time>2024-04-26T15:06:37Z</time>
      </trkpt>
      <trkpt lat="50.10279" lon="4.19316">
        <ele>189</ele>
        <time>2024-04-26T15:06:38Z</time>
      </trkpt>
      <trkpt lat="50.10272" lon="4.19316">
        <ele>189</ele>
        <time>2024-04-26T15:06:39Z</time>
      </trkpt>
      <trkpt lat="50.10266" lon="4.19316">
        <ele>189.6</ele>
        <time>2024-04-26T15:06:40Z</time>
      </trkpt>
      <trkpt lat="50.1026" lon="4.19316">
        <ele>190</ele>
        <time>2024-04-26T15:06:41Z</time>
      </trkpt>
      <trkpt lat="50.10253" lon="4.19316">
        <ele>190.2</ele>
        <time>2024-04-26T15:06:42Z</time>
      </trkpt>
      <trkpt lat="50.10247" lon="4.19316">
        <ele>190.2</ele>
        <time>2024-04-26T15:06:43Z</time>
      </trkpt>
      <trkpt lat="50.1024" lon="4.19316">
        <ele>190.6</ele>
        <time>2024-04-26T15:06:44Z</time>
      </trkpt>
      <trkpt lat="50.10234" lon="4.19316">
        <ele>190.8</ele>
        <time>2024-04-26T15:06:45Z</time>
      </trkpt>
      <trkpt lat="50.10227" lon="4.19316">
        <ele>191</ele>
        <time>2024-04-26T15:06:46Z</time>
      </trkpt>
      <trkpt lat="50.10221" lon="4.19316">
        <ele>191.2</ele>
        <time>2024-04-26T15:06:47Z</time>
      </trkpt>
      <trkpt lat="50.10214" lon="4.19316">
        <ele>191.6</ele>
        <time>2024-04-26T15:06:48Z</time>
      </trkpt>
      <trkpt lat="50.10208" lon="4.19316">
        <ele>191.8</ele>
        <time>2024-04-26T15:06:49Z</time>
      </trkpt>
      <trkpt lat="50.10201" lon="4.19316">
        <ele>192</ele>
        <time>2024-04-26T15:06:50Z</time>
      </trkpt>
      <trkpt lat="50.10195" lon="4.19316">
        <ele>192.2</ele>
        <time>2024-04-26T15:06:51Z</time>
      </trkpt>
      <trkpt lat="50.10188" lon="4.19316">
        <ele>192.4</ele>
        <time>2024-04-26T15:06:52Z</time>
      </trkpt>
      <trkpt lat="50.10182" lon="4.19316">
        <ele>192.4</ele>
        <time>2024-04-26T15:06:53Z</time>
      </trkpt>
      <trkpt lat="50.10175" lon="4.19316">
        <ele>192.6</ele>
        <time>2024-04-26T15:06:54Z</time>
      </trkpt>
      <trkpt lat="50.10169" lon="4.19316">
        <ele>192.8</ele>
        <time>2024-04-26T15:06:55Z</time>
      </trkpt>
      <trkpt lat="50.10162" lon="4.19316">
        <ele>193</ele>
        <time>2024-04-26T15:06:56Z</time>
      </trkpt>
      <trkpt lat="50.10156" lon="4.19317">
        <ele>193</ele>
        <time>2024-04-26T15:06:57Z</time>
      </trkpt>
      <trkpt lat="50.10149" lon="4.19317">
        <ele>193</ele>
        <time>2024-04-26T15:06:58Z</time>
      </trkpt>
      <trkpt lat="50.10143" lon="4.19318">
        <ele>193.2</ele>
        <time>2024-04-26T15:06:59Z</time>
      </trkpt>
      <trkpt lat="50.10137" lon="4.1932">
        <ele>193.2</ele>
        <time>2024-04-26T15:07:00Z</time>
      </trkpt>
      <trkpt lat="50.10131" lon="4.19322">
        <ele>193.4</ele>
        <time>2024-04-26T15:07:01Z</time>
      </trkpt>
      <trkpt lat="50.10125" lon="4.19324">
        <ele>193.4</ele>
        <time>2024-04-26T15:07:02Z</time>
      </trkpt>
      <trkpt lat="50.10119" lon="4.19326">
        <ele>193.2</ele>
        <time>2024-04-26T15:07:03Z</time>
      </trkpt>
      <trkpt lat="50.10113" lon="4.19329">
        <ele>193.4</ele>
        <time>2024-04-26T15:07:04Z</time>
      </trkpt>
      <trkpt lat="50.10107" lon="4.19333">
        <ele>193.4</ele>
        <time>2024-04-26T15:07:05Z</time>
      </trkpt>
      <trkpt lat="50.10102" lon="4.19336">
        <ele>193.4</ele>
        <time>2024-04-26T15:07:06Z</time>
      </trkpt>
      <trkpt lat="50.10096" lon="4.1934">
        <ele>193.8</ele>
        <time>2024-04-26T15:07:07Z</time>
      </trkpt>
      <trkpt lat="50.10091" lon="4.19345">
        <ele>194</ele>
        <time>2024-04-26T15:07:08Z</time>
      </trkpt>
      <trkpt lat="50.10085" lon="4.19349">
        <ele>194</ele>
        <time>2024-04-26T15:07:09Z</time>
      </trkpt>
      <trkpt lat="50.1008" lon="4.19354">
        <ele>194.2</ele>
        <time>2024-04-26T15:07:10Z</time>
      </trkpt>
      <trkpt lat="50.10074" lon="4.19358">
        <ele>194.2</ele>
        <time>2024-04-26T15:07:11Z</time>
      </trkpt>
      <trkpt lat="50.10068" lon="4.19363">
        <ele>194.4</ele>
        <time>2024-04-26T15:07:12Z</time>
      </trkpt>
      <trkpt lat="50.10062" lon="4.19367">
        <ele>195</ele>
        <time>2024-04-26T15:07:13Z</time>
      </trkpt>
      <trkpt lat="50.10056" lon="4.19372">
        <ele>195</ele>
        <time>2024-04-26T15:07:14Z</time>
      </trkpt>
      <trkpt lat="50.1005" lon="4.19376">
        <ele>195.4</ele>
        <time>2024-04-26T15:07:15Z</time>
      </trkpt>
      <trkpt lat="50.10043" lon="4.1938">
        <ele>195.4</ele>
        <time>2024-04-26T15:07:16Z</time>
      </trkpt>
      <trkpt lat="50.10036" lon="4.19383">
        <ele>195.4</ele>
        <time>2024-04-26T15:07:17Z</time>
      </trkpt>
      <trkpt lat="50.1003" lon="4.19386">
        <ele>195.4</ele>
        <time>2024-04-26T15:07:18Z</time>
      </trkpt>
      <trkpt lat="50.10023" lon="4.19388">
        <ele>195.4</ele>
        <time>2024-04-26T15:07:19Z</time>
      </trkpt>
      <trkpt lat="50.10015" lon="4.1939">
        <ele>195.6</ele>
        <time>2024-04-26T15:07:20Z</time>
      </trkpt>
      <trkpt lat="50.10008" lon="4.19392">
        <ele>195.6</ele>
        <time>2024-04-26T15:07:21Z</time>
      </trkpt>
      <trkpt lat="50.10001" lon="4.19394">
        <ele>195.6</ele>
        <time>2024-04-26T15:07:22Z</time>
      </trkpt>
      <trkpt lat="50.09994" lon="4.19395">
        <ele>195.6</ele>
        <time>2024-04-26T15:07:23Z</time>
      </trkpt>
      <trkpt lat="50.09987" lon="4.19395">
        <ele>195.8</ele>
        <time>2024-04-26T15:07:24Z</time>
      </trkpt>
      <trkpt lat="50.09979" lon="4.19396">
        <ele>195.6</ele>
        <time>2024-04-26T15:07:25Z</time>
      </trkpt>
      <trkpt lat="50.09971" lon="4.19397">
        <ele>195.6</ele>
        <time>2024-04-26T15:07:26Z</time>
      </trkpt>
      <trkpt lat="50.09964" lon="4.19398">
        <ele>195.6</ele>
        <time>2024-04-26T15:07:27Z</time>
      </trkpt>
      <trkpt lat="50.09956" lon="4.19399">
        <ele>195.6</ele>
        <time>2024-04-26T15:07:28Z</time>
      </trkpt>
      <trkpt lat="50.09947" lon="4.194">
        <ele>195.6</ele>
        <time>2024-04-26T15:07:29Z</time>
      </trkpt>
      <trkpt lat="50.09939" lon="4.19401">
        <ele>195.6</ele>
        <time>2024-04-26T15:07:30Z</time>
      </trkpt>
      <trkpt lat="50.09931" lon="4.19401">
        <ele>195.4</ele>
        <time>2024-04-26T15:07:31Z</time>
      </trkpt>
      <trkpt lat="50.09922" lon="4.19402">
        <ele>195.4</ele>
        <time>2024-04-26T15:07:32Z</time>
      </trkpt>
      <trkpt lat="50.09914" lon="4.19403">
        <ele>195.4</ele>
        <time>2024-04-26T15:07:33Z</time>
      </trkpt>
      <trkpt lat="50.09905" lon="4.19403">
        <ele>195.4</ele>
        <time>2024-04-26T15:07:34Z</time>
      </trkpt>
      <trkpt lat="50.09896" lon="4.19403">
        <ele>195.4</ele>
        <time>2024-04-26T15:07:35Z</time>
      </trkpt>
      <trkpt lat="50.09887" lon="4.19403">
        <ele>195</ele>
        <time>2024-04-26T15:07:36Z</time>
      </trkpt>
      <trkpt lat="50.09878" lon="4.19403">
        <ele>194.8</ele>
        <time>2024-04-26T15:07:37Z</time>
      </trkpt>
      <trkpt lat="50.09868" lon="4.19403">
        <ele>194.2</ele>
        <time>2024-04-26T15:07:38Z</time>
      </trkpt>
      <trkpt lat="50.09859" lon="4.19403">
        <ele>193.8</ele>
        <time>2024-04-26T15:07:39Z</time>
      </trkpt>
      <trkpt lat="50.09849" lon="4.19403">
        <ele>193.2</ele>
        <time>2024-04-26T15:07:40Z</time>
      </trkpt>
      <trkpt lat="50.0984" lon="4.19403">
        <ele>192.4</ele>
        <time>2024-04-26T15:07:41Z</time>
      </trkpt>
      <trkpt lat="50.09831" lon="4.19403">
        <ele>191.8</ele>
        <time>2024-04-26T15:07:42Z</time>
      </trkpt>
      <trkpt lat="50.09821" lon="4.19403">
        <ele>191</ele>
        <time>2024-04-26T15:07:43Z</time>
      </trkpt>
      <trkpt lat="50.09812" lon="4.19402">
        <ele>191</ele>
        <time>2024-04-26T15:07:44Z</time>
      </trkpt>
      <trkpt lat="50.09803" lon="4.19402">
        <ele>190.4</ele>
        <time>2024-04-26T15:07:45Z</time>
      </trkpt>
      <trkpt lat="50.09795" lon="4.19402">
        <ele>190</ele>
        <time>2024-04-26T15:07:46Z</time>
      </trkpt>
      <trkpt lat="50.09786" lon="4.19401">
        <ele>189.4</ele>
        <time>2024-04-26T15:07:47Z</time>
      </trkpt>
      <trkpt lat="50.09778" lon="4.19401">
        <ele>188.8</ele>
        <time>2024-04-26T15:07:48Z</time>
      </trkpt>
      <trkpt lat="50.0977" lon="4.19401">
        <ele>188.6</ele>
        <time>2024-04-26T15:07:49Z</time>
      </trkpt>
      <trkpt lat="50.09762" lon="4.19401">
        <ele>188.4</ele>
        <time>2024-04-26T15:07:50Z</time>
      </trkpt>
      <trkpt lat="50.09754" lon="4.19401">
        <ele>188.2</ele>
        <time>2024-04-26T15:07:51Z</time>
      </trkpt>
      <trkpt lat="50.09747" lon="4.19401">
        <ele>188.2</ele>
        <time>2024-04-26T15:07:52Z</time>
      </trkpt>
      <trkpt lat="50.09739" lon="4.19402">
        <ele>188.2</ele>
        <time>2024-04-26T15:07:53Z</time>
      </trkpt>
      <trkpt lat="50.09731" lon="4.19404">
        <ele>188.2</ele>
        <time>2024-04-26T15:07:54Z</time>
      </trkpt>
      <trkpt lat="50.09724" lon="4.19407">
        <ele>188.2</ele>
        <time>2024-04-26T15:07:55Z</time>
      </trkpt>
      <trkpt lat="50.09716" lon="4.19411">
        <ele>188</ele>
        <time>2024-04-26T15:07:56Z</time>
      </trkpt>
      <trkpt lat="50.0971" lon="4.19415">
        <ele>188</ele>
        <time>2024-04-26T15:07:57Z</time>
      </trkpt>
      <trkpt lat="50.09703" lon="4.19421">
        <ele>188</ele>
        <time>2024-04-26T15:07:58Z</time>
      </trkpt>
      <trkpt lat="50.09696" lon="4.19427">
        <ele>188</ele>
        <time>2024-04-26T15:07:59Z</time>
      </trkpt>
      <trkpt lat="50.0969" lon="4.19434">
        <ele>188</ele>
        <time>2024-04-26T15:08:00Z</time>
      </trkpt>
      <trkpt lat="50.09684" lon="4.1944">
        <ele>188</ele>
        <time>2024-04-26T15:08:01Z</time>
      </trkpt>
      <trkpt lat="50.09677" lon="4.19446">
        <ele>188</ele>
        <time>2024-04-26T15:08:02Z</time>
      </trkpt>
      <trkpt lat="50.09671" lon="4.19453">
        <ele>188</ele>
        <time>2024-04-26T15:08:03Z</time>
      </trkpt>
      <trkpt lat="50.09665" lon="4.19459">
        <ele>187.6</ele>
        <time>2024-04-26T15:08:04Z</time>
      </trkpt>
      <trkpt lat="50.09659" lon="4.19465">
        <ele>187.6</ele>
        <time>2024-04-26T15:08:05Z</time>
      </trkpt>
      <trkpt lat="50.09653" lon="4.19472">
        <ele>187.6</ele>
        <time>2024-04-26T15:08:06Z</time>
      </trkpt>
      <trkpt lat="50.09647" lon="4.19478">
        <ele>187.6</ele>
        <time>2024-04-26T15:08:07Z</time>
      </trkpt>
      <trkpt lat="50.09641" lon="4.19484">
        <ele>187.6</ele>
        <time>2024-04-26T15:08:08Z</time>
      </trkpt>
      <trkpt lat="50.09636" lon="4.19491">
        <ele>187.6</ele>
        <time>2024-04-26T15:08:09Z</time>
      </trkpt>
      <trkpt lat="50.0963" lon="4.19499">
        <ele>187.6</ele>
        <time>2024-04-26T15:08:10Z</time>
      </trkpt>
      <trkpt lat="50.09625" lon="4.19506">
        <ele>187.4</ele>
        <time>2024-04-26T15:08:11Z</time>
      </trkpt>
      <trkpt lat="50.0962" lon="4.19514">
        <ele>187.4</ele>
        <time>2024-04-26T15:08:12Z</time>
      </trkpt>
      <trkpt lat="50.09615" lon="4.19522">
        <ele>187.4</ele>
        <time>2024-04-26T15:08:13Z</time>
      </trkpt>
      <trkpt lat="50.0961" lon="4.19529">
        <ele>187.6</ele>
        <time>2024-04-26T15:08:14Z</time>
      </trkpt>
      <trkpt lat="50.09604" lon="4.19534">
        <ele>187.4</ele>
        <time>2024-04-26T15:08:15Z</time>
      </trkpt>
      <trkpt lat="50.09597" lon="4.19539">
        <ele>187.6</ele>
        <time>2024-04-26T15:08:16Z</time>
      </trkpt>
      <trkpt lat="50.09591" lon="4.19542">
        <ele>187.8</ele>
        <time>2024-04-26T15:08:17Z</time>
      </trkpt>
      <trkpt lat="50.09584" lon="4.19544">
        <ele>187.8</ele>
        <time>2024-04-26T15:08:18Z</time>
      </trkpt>
      <trkpt lat="50.09577" lon="4.19545">
        <ele>188</ele>
        <time>2024-04-26T15:08:19Z</time>
      </trkpt>
      <trkpt lat="50.0957" lon="4.19546">
        <ele>187.8</ele>
        <time>2024-04-26T15:08:20Z</time>
      </trkpt>
      <trkpt lat="50.09563" lon="4.19546">
        <ele>188</ele>
        <time>2024-04-26T15:08:21Z</time>
      </trkpt>
      <trkpt lat="50.09557" lon="4.19547">
        <ele>188</ele>
        <time>2024-04-26T15:08:22Z</time>
      </trkpt>
      <trkpt lat="50.0955" lon="4.19547">
        <ele>188.4</ele>
        <time>2024-04-26T15:08:23Z</time>
      </trkpt>
      <trkpt lat="50.09543" lon="4.19547">
        <ele>188.4</ele>
        <time>2024-04-26T15:08:24Z</time>
      </trkpt>
      <trkpt lat="50.09537" lon="4.19546">
        <ele>188.4</ele>
        <time>2024-04-26T15:08:25Z</time>
      </trkpt>
      <trkpt lat="50.0953" lon="4.19545">
        <ele>188.4</ele>
        <time>2024-04-26T15:08:26Z</time>
      </trkpt>
      <trkpt lat="50.09524" lon="4.19544">
        <ele>188.6</ele>
        <time>2024-04-26T15:08:27Z</time>
      </trkpt>
      <trkpt lat="50.09517" lon="4.19542">
        <ele>188.6</ele>
        <time>2024-04-26T15:08:28Z</time>
      </trkpt>
      <trkpt lat="50.09511" lon="4.19539">
        <ele>188.6</ele>
        <time>2024-04-26T15:08:29Z</time>
      </trkpt>
      <trkpt lat="50.09506" lon="4.19534">
        <ele>188.8</ele>
        <time>2024-04-26T15:08:30Z</time>
      </trkpt>
      <trkpt lat="50.095" lon="4.19528">
        <ele>189</ele>
        <time>2024-04-26T15:08:31Z</time>
      </trkpt>
      <trkpt lat="50.09495" lon="4.19522">
        <ele>189.2</ele>
        <time>2024-04-26T15:08:32Z</time>
      </trkpt>
      <trkpt lat="50.0949" lon="4.19514">
        <ele>189.4</ele>
        <time>2024-04-26T15:08:33Z</time>
      </trkpt>
      <trkpt lat="50.09485" lon="4.19506">
        <ele>189.6</ele>
        <time>2024-04-26T15:08:34Z</time>
      </trkpt>
      <trkpt lat="50.0948" lon="4.19498">
        <ele>190</ele>
        <time>2024-04-26T15:08:35Z</time>
      </trkpt>
      <trkpt lat="50.09476" lon="4.1949">
        <ele>190.4</ele>
        <time>2024-04-26T15:08:36Z</time>
      </trkpt>
      <trkpt lat="50.09471" lon="4.19481">
        <ele>190.8</ele>
        <time>2024-04-26T15:08:37Z</time>
      </trkpt>
      <trkpt lat="50.09467" lon="4.19473">
        <ele>191</ele>
        <time>2024-04-26T15:08:38Z</time>
      </trkpt>
      <trkpt lat="50.09462" lon="4.19465">
        <ele>191</ele>
        <time>2024-04-26T15:08:39Z</time>
      </trkpt>
      <trkpt lat="50.09457" lon="4.19457">
        <ele>191.2</ele>
        <time>2024-04-26T15:08:40Z</time>
      </trkpt>
      <trkpt lat="50.09453" lon="4.19449">
        <ele>191.2</ele>
        <time>2024-04-26T15:08:41Z</time>
      </trkpt>
      <trkpt lat="50.09448" lon="4.19441">
        <ele>191</ele>
        <time>2024-04-26T15:08:42Z</time>
      </trkpt>
      <trkpt lat="50.09443" lon="4.19433">
        <ele>191.2</ele>
        <time>2024-04-26T15:08:43Z</time>
      </trkpt>
      <trkpt lat="50.09438" lon="4.19426">
        <ele>191.2</ele>
        <time>2024-04-26T15:08:44Z</time>
      </trkpt>
      <trkpt lat="50.09433" lon="4.19418">
        <ele>191</ele>
        <time>2024-04-26T15:08:45Z</time>
      </trkpt>
      <trkpt lat="50.09429" lon="4.1941">
        <ele>191.2</ele>
        <time>2024-04-26T15:08:46Z</time>
      </trkpt>
      <trkpt lat="50.09424" lon="4.19402">
        <ele>191</ele>
        <time>2024-04-26T15:08:47Z</time>
      </trkpt>
      <trkpt lat="50.09419" lon="4.19395">
        <ele>191.2</ele>
        <time>2024-04-26T15:08:48Z</time>
      </trkpt>
      <trkpt lat="50.09415" lon="4.19387">
        <ele>191.2</ele>
        <time>2024-04-26T15:08:49Z</time>
      </trkpt>
      <trkpt lat="50.0941" lon="4.1938">
        <ele>191.2</ele>
        <time>2024-04-26T15:08:50Z</time>
      </trkpt>
      <trkpt lat="50.09405" lon="4.19372">
        <ele>191.2</ele>
        <time>2024-04-26T15:08:51Z</time>
      </trkpt>
      <trkpt lat="50.094" lon="4.19365">
        <ele>191.2</ele>
        <time>2024-04-26T15:08:52Z</time>
      </trkpt>
      <trkpt lat="50.09395" lon="4.19358">
        <ele>191.2</ele>
        <time>2024-04-26T15:08:53Z</time>
      </trkpt>
      <trkpt lat="50.09389" lon="4.19352">
        <ele>191.2</ele>
        <time>2024-04-26T15:08:54Z</time>
      </trkpt>
      <trkpt lat="50.09384" lon="4.19346">
        <ele>191.2</ele>
        <time>2024-04-26T15:08:55Z</time>
      </trkpt>
      <trkpt lat="50.09378" lon="4.19341">
        <ele>191.2</ele>
        <time>2024-04-26T15:08:56Z</time>
      </trkpt>
      <trkpt lat="50.09372" lon="4.19336">
        <ele>191.2</ele>
        <time>2024-04-26T15:08:57Z</time>
      </trkpt>
      <trkpt lat="50.09366" lon="4.19333">
        <ele>191.2</ele>
        <time>2024-04-26T15:08:58Z</time>
      </trkpt>
      <trkpt lat="50.09359" lon="4.1933">
        <ele>191.2</ele>
        <time>2024-04-26T15:08:59Z</time>
      </trkpt>
      <trkpt lat="50.09353" lon="4.19328">
        <ele>191.2</ele>
        <time>2024-04-26T15:09:00Z</time>
      </trkpt>
      <trkpt lat="50.09347" lon="4.19326">
        <ele>191.2</ele>
        <time>2024-04-26T15:09:01Z</time>
      </trkpt>
      <trkpt lat="50.0934" lon="4.19325">
        <ele>191.2</ele>
        <time>2024-04-26T15:09:02Z</time>
      </trkpt>
      <trkpt lat="50.09334" lon="4.19324">
        <ele>191.2</ele>
        <time>2024-04-26T15:09:03Z</time>
      </trkpt>
      <trkpt lat="50.09327" lon="4.19324">
        <ele>191.2</ele>
        <time>2024-04-26T15:09:04Z</time>
      </trkpt>
      <trkpt lat="50.0932" lon="4.19323">
        <ele>191.4</ele>
        <time>2024-04-26T15:09:05Z</time>
      </trkpt>
      <trkpt lat="50.09314" lon="4.19323">
        <ele>191.4</ele>
        <time>2024-04-26T15:09:06Z</time>
      </trkpt>
      <trkpt lat="50.09307" lon="4.19323">
        <ele>191.4</ele>
        <time>2024-04-26T15:09:07Z</time>
      </trkpt>
      <trkpt lat="50.093" lon="4.19324">
        <ele>191.4</ele>
        <time>2024-04-26T15:09:08Z</time>
      </trkpt>
      <trkpt lat="50.09293" lon="4.19324">
        <ele>191.6</ele>
        <time>2024-04-26T15:09:09Z</time>
      </trkpt>
      <trkpt lat="50.09286" lon="4.19325">
        <ele>191.6</ele>
        <time>2024-04-26T15:09:10Z</time>
      </trkpt>
      <trkpt lat="50.0928" lon="4.19326">
        <ele>191.6</ele>
        <time>2024-04-26T15:09:11Z</time>
      </trkpt>
      <trkpt lat="50.09273" lon="4.19328">
        <ele>191.8</ele>
        <time>2024-04-26T15:09:12Z</time>
      </trkpt>
      <trkpt lat="50.09267" lon="4.1933">
        <ele>191.8</ele>
        <time>2024-04-26T15:09:13Z</time>
      </trkpt>
      <trkpt lat="50.0926" lon="4.19332">
        <ele>191.8</ele>
        <time>2024-04-26T15:09:14Z</time>
      </trkpt>
      <trkpt lat="50.09254" lon="4.19335">
        <ele>192</ele>
        <time>2024-04-26T15:09:15Z</time>
      </trkpt>
      <trkpt lat="50.09247" lon="4.19337">
        <ele>192.2</ele>
        <time>2024-04-26T15:09:16Z</time>
      </trkpt>
      <trkpt lat="50.0924" lon="4.1934">
        <ele>192.4</ele>
        <time>2024-04-26T15:09:17Z</time>
      </trkpt>
      <trkpt lat="50.09234" lon="4.19342">
        <ele>192.4</ele>
        <time>2024-04-26T15:09:18Z</time>
      </trkpt>
      <trkpt lat="50.09227" lon="4.19345">
        <ele>193.2</ele>
        <time>2024-04-26T15:09:19Z</time>
      </trkpt>
      <trkpt lat="50.09221" lon="4.19347">
        <ele>193.8</ele>
        <time>2024-04-26T15:09:20Z</time>
      </trkpt>
      <trkpt lat="50.09214" lon="4.19349">
        <ele>194.4</ele>
        <time>2024-04-26T15:09:21Z</time>
      </trkpt>
      <trkpt lat="50.09208" lon="4.19351">
        <ele>194.4</ele>
        <time>2024-04-26T15:09:22Z</time>
      </trkpt>
      <trkpt lat="50.09201" lon="4.19352">
        <ele>194.8</ele>
        <time>2024-04-26T15:09:23Z</time>
      </trkpt>
      <trkpt lat="50.09194" lon="4.19353">
        <ele>194.8</ele>
        <time>2024-04-26T15:09:24Z</time>
      </trkpt>
      <trkpt lat="50.09188" lon="4.19354">
        <ele>195</ele>
        <time>2024-04-26T15:09:25Z</time>
      </trkpt>
      <trkpt lat="50.09181" lon="4.19355">
        <ele>195</ele>
        <time>2024-04-26T15:09:26Z</time>
      </trkpt>
      <trkpt lat="50.09174" lon="4.19356">
        <ele>195.2</ele>
        <time>2024-04-26T15:09:27Z</time>
      </trkpt>
      <trkpt lat="50.09168" lon="4.19356">
        <ele>195.2</ele>
        <time>2024-04-26T15:09:28Z</time>
      </trkpt>
      <trkpt lat="50.09161" lon="4.19357">
        <ele>195.4</ele>
        <time>2024-04-26T15:09:29Z</time>
      </trkpt>
      <trkpt lat="50.09155" lon="4.19357">
        <ele>195.4</ele>
        <time>2024-04-26T15:09:30Z</time>
      </trkpt>
      <trkpt lat="50.09148" lon="4.19357">
        <ele>195.6</ele>
        <time>2024-04-26T15:09:31Z</time>
      </trkpt>
      <trkpt lat="50.09142" lon="4.19357">
        <ele>195.6</ele>
        <time>2024-04-26T15:09:32Z</time>
      </trkpt>
      <trkpt lat="50.09135" lon="4.19357">
        <ele>195.6</ele>
        <time>2024-04-26T15:09:33Z</time>
      </trkpt>
      <trkpt lat="50.09128" lon="4.19357">
        <ele>195.6</ele>
        <time>2024-04-26T15:09:34Z</time>
      </trkpt>
      <trkpt lat="50.09121" lon="4.19356">
        <ele>195.6</ele>
        <time>2024-04-26T15:09:35Z</time>
      </trkpt>
      <trkpt lat="50.09114" lon="4.19356">
        <ele>195.8</ele>
        <time>2024-04-26T15:09:36Z</time>
      </trkpt>
      <trkpt lat="50.09107" lon="4.19356">
        <ele>195.8</ele>
        <time>2024-04-26T15:09:37Z</time>
      </trkpt>
      <trkpt lat="50.091" lon="4.19356">
        <ele>196</ele>
        <time>2024-04-26T15:09:38Z</time>
      </trkpt>
      <trkpt lat="50.09093" lon="4.19356">
        <ele>195.8</ele>
        <time>2024-04-26T15:09:39Z</time>
      </trkpt>
      <trkpt lat="50.09086" lon="4.19356">
        <ele>195.8</ele>
        <time>2024-04-26T15:09:40Z</time>
      </trkpt>
      <trkpt lat="50.09079" lon="4.19356">
        <ele>195.8</ele>
        <time>2024-04-26T15:09:41Z</time>
      </trkpt>
      <trkpt lat="50.09072" lon="4.19356">
        <ele>196</ele>
        <time>2024-04-26T15:09:42Z</time>
      </trkpt>
      <trkpt lat="50.09065" lon="4.19357">
        <ele>195.6</ele>
        <time>2024-04-26T15:09:43Z</time>
      </trkpt>
      <trkpt lat="50.09057" lon="4.19357">
        <ele>195.6</ele>
        <time>2024-04-26T15:09:44Z</time>
      </trkpt>
      <trkpt lat="50.0905" lon="4.19357">
        <ele>195.6</ele>
        <time>2024-04-26T15:09:45Z</time>
      </trkpt>
      <trkpt lat="50.09043" lon="4.19357">
        <ele>195.6</ele>
        <time>2024-04-26T15:09:46Z</time>
      </trkpt>
      <trkpt lat="50.09036" lon="4.19356">
        <ele>195.4</ele>
        <time>2024-04-26T15:09:47Z</time>
      </trkpt>
      <trkpt lat="50.09029" lon="4.19356">
        <ele>195.4</ele>
        <time>2024-04-26T15:09:48Z</time>
      </trkpt>
      <trkpt lat="50.09022" lon="4.19355">
        <ele>195</ele>
        <time>2024-04-26T15:09:49Z</time>
      </trkpt>
      <trkpt lat="50.09014" lon="4.19355">
        <ele>194.8</ele>
        <time>2024-04-26T15:09:50Z</time>
      </trkpt>
      <trkpt lat="50.09007" lon="4.19354">
        <ele>194.2</ele>
        <time>2024-04-26T15:09:51Z</time>
      </trkpt>
      <trkpt lat="50.09" lon="4.19352">
        <ele>194</ele>
        <time>2024-04-26T15:09:52Z</time>
      </trkpt>
      <trkpt lat="50.08993" lon="4.1935">
        <ele>194</ele>
        <time>2024-04-26T15:09:53Z</time>
      </trkpt>
      <trkpt lat="50.08986" lon="4.19347">
        <ele>193.8</ele>
        <time>2024-04-26T15:09:54Z</time>
      </trkpt>
      <trkpt lat="50.08979" lon="4.19344">
        <ele>193.8</ele>
        <time>2024-04-26T15:09:55Z</time>
      </trkpt>
      <trkpt lat="50.08971" lon="4.19341">
        <ele>193.8</ele>
        <time>2024-04-26T15:09:56Z</time>
      </trkpt>
      <trkpt lat="50.08964" lon="4.19338">
        <ele>193.8</ele>
        <time>2024-04-26T15:09:57Z</time>
      </trkpt>
      <trkpt lat="50.08957" lon="4.19335">
        <ele>193.8</ele>
        <time>2024-04-26T15:09:58Z</time>
      </trkpt>
      <trkpt lat="50.08949" lon="4.19332">
        <ele>193.6</ele>
        <time>2024-04-26T15:09:59Z</time>
      </trkpt>
      <trkpt lat="50.08942" lon="4.19329">
        <ele>193.8</ele>
        <time>2024-04-26T15:10:00Z</time>
      </trkpt>
      <trkpt lat="50.08935" lon="4.19326">
        <ele>193.6</ele>
        <time>2024-04-26T15:10:01Z</time>
      </trkpt>
      <trkpt lat="50.08928" lon="4.19323">
        <ele>193.6</ele>
        <time>2024-04-26T15:10:02Z</time>
      </trkpt>
      <trkpt lat="50.08921" lon="4.1932">
        <ele>193.6</ele>
        <time>2024-04-26T15:10:03Z</time>
      </trkpt>
      <trkpt lat="50.08914" lon="4.19317">
        <ele>193.6</ele>
        <time>2024-04-26T15:10:04Z</time>
      </trkpt>
      <trkpt lat="50.08907" lon="4.19315">
        <ele>193.6</ele>
        <time>2024-04-26T15:10:05Z</time>
      </trkpt>
      <trkpt lat="50.089" lon="4.19314">
        <ele>193.2</ele>
        <time>2024-04-26T15:10:06Z</time>
      </trkpt>
      <trkpt lat="50.08893" lon="4.19313">
        <ele>192.8</ele>
        <time>2024-04-26T15:10:07Z</time>
      </trkpt>
      <trkpt lat="50.08886" lon="4.19313">
        <ele>192.6</ele>
        <time>2024-04-26T15:10:08Z</time>
      </trkpt>
      <trkpt lat="50.08879" lon="4.19313">
        <ele>192.4</ele>
        <time>2024-04-26T15:10:09Z</time>
      </trkpt>
      <trkpt lat="50.08872" lon="4.19314">
        <ele>192.2</ele>
        <time>2024-04-26T15:10:10Z</time>
      </trkpt>
      <trkpt lat="50.08865" lon="4.19315">
        <ele>192.4</ele>
        <time>2024-04-26T15:10:11Z</time>
      </trkpt>
      <trkpt lat="50.08858" lon="4.19316">
        <ele>192.4</ele>
        <time>2024-04-26T15:10:12Z</time>
      </trkpt>
      <trkpt lat="50.08851" lon="4.19317">
        <ele>192.2</ele>
        <time>2024-04-26T15:10:13Z</time>
      </trkpt>
      <trkpt lat="50.08844" lon="4.19318">
        <ele>192.2</ele>
        <time>2024-04-26T15:10:14Z</time>
      </trkpt>
      <trkpt lat="50.08837" lon="4.19319">
        <ele>192.2</ele>
        <time>2024-04-26T15:10:15Z</time>
      </trkpt>
      <trkpt lat="50.0883" lon="4.1932">
        <ele>192</ele>
        <time>2024-04-26T15:10:16Z</time>
      </trkpt>
      <trkpt lat="50.08823" lon="4.19321">
        <ele>192.2</ele>
        <time>2024-04-26T15:10:17Z</time>
      </trkpt>
      <trkpt lat="50.08816" lon="4.19322">
        <ele>192.2</ele>
        <time>2024-04-26T15:10:18Z</time>
      </trkpt>
      <trkpt lat="50.08809" lon="4.19323">
        <ele>192.2</ele>
        <time>2024-04-26T15:10:19Z</time>
      </trkpt>
      <trkpt lat="50.08802" lon="4.19324">
        <ele>192</ele>
        <time>2024-04-26T15:10:20Z</time>
      </trkpt>
      <trkpt lat="50.08795" lon="4.19324">
        <ele>192.4</ele>
        <time>2024-04-26T15:10:21Z</time>
      </trkpt>
      <trkpt lat="50.08788" lon="4.19325">
        <ele>192.2</ele>
        <time>2024-04-26T15:10:22Z</time>
      </trkpt>
      <trkpt lat="50.08781" lon="4.19326">
        <ele>192.4</ele>
        <time>2024-04-26T15:10:23Z</time>
      </trkpt>
      <trkpt lat="50.08774" lon="4.19327">
        <ele>192.4</ele>
        <time>2024-04-26T15:10:24Z</time>
      </trkpt>
      <trkpt lat="50.08767" lon="4.19327">
        <ele>192.4</ele>
        <time>2024-04-26T15:10:25Z</time>
      </trkpt>
      <trkpt lat="50.0876" lon="4.19328">
        <ele>192.4</ele>
        <time>2024-04-26T15:10:26Z</time>
      </trkpt>
      <trkpt lat="50.08753" lon="4.19329">
        <ele>192.4</ele>
        <time>2024-04-26T15:10:27Z</time>
      </trkpt>
      <trkpt lat="50.08747" lon="4.19329">
        <ele>192.4</ele>
        <time>2024-04-26T15:10:28Z</time>
      </trkpt>
      <trkpt lat="50.0874" lon="4.1933">
        <ele>192.6</ele>
        <time>2024-04-26T15:10:29Z</time>
      </trkpt>
      <trkpt lat="50.08733" lon="4.1933">
        <ele>192.4</ele>
        <time>2024-04-26T15:10:30Z</time>
      </trkpt>
      <trkpt lat="50.08726" lon="4.1933">
        <ele>192.6</ele>
        <time>2024-04-26T15:10:31Z</time>
      </trkpt>
      <trkpt lat="50.08719" lon="4.1933">
        <ele>192.6</ele>
        <time>2024-04-26T15:10:32Z</time>
      </trkpt>
      <trkpt lat="50.08712" lon="4.1933">
        <ele>192.6</ele>
        <time>2024-04-26T15:10:33Z</time>
      </trkpt>
      <trkpt lat="50.08705" lon="4.19329">
        <ele>192.6</ele>
        <time>2024-04-26T15:10:34Z</time>
      </trkpt>
      <trkpt lat="50.08698" lon="4.19327">
        <ele>193</ele>
        <time>2024-04-26T15:10:35Z</time>
      </trkpt>
      <trkpt lat="50.08691" lon="4.19326">
        <ele>193</ele>
        <time>2024-04-26T15:10:36Z</time>
      </trkpt>
      <trkpt lat="50.08685" lon="4.19324">
        <ele>193.2</ele>
        <time>2024-04-26T15:10:37Z</time>
      </trkpt>
      <trkpt lat="50.08678" lon="4.19321">
        <ele>193.2</ele>
        <time>2024-04-26T15:10:38Z</time>
      </trkpt>
      <trkpt lat="50.08671" lon="4.19319">
        <ele>193.4</ele>
        <time>2024-04-26T15:10:39Z</time>
      </trkpt>
      <trkpt lat="50.08665" lon="4.19317">
        <ele>193.4</ele>
        <time>2024-04-26T15:10:40Z</time>
      </trkpt>
      <trkpt lat="50.08658" lon="4.19315">
        <ele>193.4</ele>
        <time>2024-04-26T15:10:41Z</time>
      </trkpt>
      <trkpt lat="50.08651" lon="4.19313">
        <ele>193.4</ele>
        <time>2024-04-26T15:10:42Z</time>
      </trkpt>
      <trkpt lat="50.08645" lon="4.1931">
        <ele>193.6</ele>
        <time>2024-04-26T15:10:43Z</time>
      </trkpt>
      <trkpt lat="50.08638" lon="4.19307">
        <ele>193.6</ele>
        <time>2024-04-26T15:10:44Z</time>
      </trkpt>
      <trkpt lat="50.08632" lon="4.19304">
        <ele>193.4</ele>
        <time>2024-04-26T15:10:45Z</time>
      </trkpt>
      <trkpt lat="50.08625" lon="4.19301">
        <ele>193.6</ele>
        <time>2024-04-26T15:10:46Z</time>
      </trkpt>
      <trkpt lat="50.08618" lon="4.19299">
        <ele>193.8</ele>
        <time>2024-04-26T15:10:47Z</time>
      </trkpt>
      <trkpt lat="50.08612" lon="4.19296">
        <ele>193.8</ele>
        <time>2024-04-26T15:10:48Z</time>
      </trkpt>
      <trkpt lat="50.08606" lon="4.19293">
        <ele>194.2</ele>
        <time>2024-04-26T15:10:49Z</time>
      </trkpt>
      <trkpt lat="50.08599" lon="4.1929">
        <ele>194.2</ele>
        <time>2024-04-26T15:10:50Z</time>
      </trkpt>
      <trkpt lat="50.08593" lon="4.19286">
        <ele>194.2</ele>
        <time>2024-04-26T15:10:51Z</time>
      </trkpt>
      <trkpt lat="50.08587" lon="4.19283">
        <ele>194.4</ele>
        <time>2024-04-26T15:10:52Z</time>
      </trkpt>
      <trkpt lat="50.08581" lon="4.19279">
        <ele>194.2</ele>
        <time>2024-04-26T15:10:53Z</time>
      </trkpt>
      <trkpt lat="50.08575" lon="4.19276">
        <ele>194.4</ele>
        <time>2024-04-26T15:10:54Z</time>
      </trkpt>
      <trkpt lat="50.08569" lon="4.19272">
        <ele>194.4</ele>
        <time>2024-04-26T15:10:55Z</time>
      </trkpt>
      <trkpt lat="50.08563" lon="4.19268">
        <ele>194.6</ele>
        <time>2024-04-26T15:10:56Z</time>
      </trkpt>
      <trkpt lat="50.08557" lon="4.19265">
        <ele>194.6</ele>
        <time>2024-04-26T15:10:57Z</time>
      </trkpt>
      <trkpt lat="50.08551" lon="4.19261">
        <ele>194.6</ele>
        <time>2024-04-26T15:10:58Z</time>
      </trkpt>
      <trkpt lat="50.08545" lon="4.19258">
        <ele>194.8</ele>
        <time>2024-04-26T15:10:59Z</time>
      </trkpt>
      <trkpt lat="50.08539" lon="4.19254">
        <ele>195</ele>
        <time>2024-04-26T15:11:00Z</time>
      </trkpt>
      <trkpt lat="50.08533" lon="4.1925">
        <ele>195.2</ele>
        <time>2024-04-26T15:11:01Z</time>
      </trkpt>
      <trkpt lat="50.08527" lon="4.19247">
        <ele>195.2</ele>
        <time>2024-04-26T15:11:02Z</time>
      </trkpt>
      <trkpt lat="50.08521" lon="4.19243">
        <ele>196</ele>
        <time>2024-04-26T15:11:03Z</time>
      </trkpt>
      <trkpt lat="50.08516" lon="4.1924">
        <ele>196.6</ele>
        <time>2024-04-26T15:11:04Z</time>
      </trkpt>
      <trkpt lat="50.0851" lon="4.19237">
        <ele>197</ele>
        <time>2024-04-26T15:11:05Z</time>
      </trkpt>
      <trkpt lat="50.08504" lon="4.19233">
        <ele>197.6</ele>
        <time>2024-04-26T15:11:06Z</time>
      </trkpt>
      <trkpt lat="50.08498" lon="4.1923">
        <ele>198</ele>
        <time>2024-04-26T15:11:07Z</time>
      </trkpt>
      <trkpt lat="50.08493" lon="4.19227">
        <ele>198.4</ele>
        <time>2024-04-26T15:11:08Z</time>
      </trkpt>
      <trkpt lat="50.08487" lon="4.19224">
        <ele>198.6</ele>
        <time>2024-04-26T15:11:09Z</time>
      </trkpt>
      <trkpt lat="50.08481" lon="4.19221">
        <ele>198.6</ele>
        <time>2024-04-26T15:11:10Z</time>
      </trkpt>
      <trkpt lat="50.08475" lon="4.19219">
        <ele>199</ele>
        <time>2024-04-26T15:11:11Z</time>
      </trkpt>
      <trkpt lat="50.0847" lon="4.19216">
        <ele>199.2</ele>
        <time>2024-04-26T15:11:12Z</time>
      </trkpt>
      <trkpt lat="50.08464" lon="4.19213">
        <ele>199.4</ele>
        <time>2024-04-26T15:11:13Z</time>
      </trkpt>
      <trkpt lat="50.08458" lon="4.19211">
        <ele>199.6</ele>
        <time>2024-04-26T15:11:14Z</time>
      </trkpt>
      <trkpt lat="50.08452" lon="4.19209">
        <ele>200.2</ele>
        <time>2024-04-26T15:11:15Z</time>
      </trkpt>
      <trkpt lat="50.08446" lon="4.19207">
        <ele>200.2</ele>
        <time>2024-04-26T15:11:16Z</time>
      </trkpt>
      <trkpt lat="50.08439" lon="4.19205">
        <ele>200.6</ele>
        <time>2024-04-26T15:11:17Z</time>
      </trkpt>
      <trkpt lat="50.08433" lon="4.19204">
        <ele>200.4</ele>
        <time>2024-04-26T15:11:18Z</time>
      </trkpt>
      <trkpt lat="50.08426" lon="4.19202">
        <ele>201</ele>
        <time>2024-04-26T15:11:19Z</time>
      </trkpt>
      <trkpt lat="50.08419" lon="4.19201">
        <ele>201</ele>
        <time>2024-04-26T15:11:20Z</time>
      </trkpt>
      <trkpt lat="50.08413" lon="4.192">
        <ele>201.2</ele>
        <time>2024-04-26T15:11:21Z</time>
      </trkpt>
      <trkpt lat="50.08406" lon="4.19198">
        <ele>201</ele>
        <time>2024-04-26T15:11:22Z</time>
      </trkpt>
      <trkpt lat="50.08399" lon="4.19197">
        <ele>201</ele>
        <time>2024-04-26T15:11:23Z</time>
      </trkpt>
      <trkpt lat="50.08392" lon="4.19195">
        <ele>201</ele>
        <time>2024-04-26T15:11:24Z</time>
      </trkpt>
      <trkpt lat="50.08385" lon="4.19193">
        <ele>201</ele>
        <time>2024-04-26T15:11:25Z</time>
      </trkpt>
      <trkpt lat="50.08378" lon="4.19192">
        <ele>201</ele>
        <time>2024-04-26T15:11:26Z</time>
      </trkpt>
      <trkpt lat="50.08371" lon="4.1919">
        <ele>201</ele>
        <time>2024-04-26T15:11:27Z</time>
      </trkpt>
      <trkpt lat="50.08364" lon="4.19188">
        <ele>201</ele>
        <time>2024-04-26T15:11:28Z</time>
      </trkpt>
      <trkpt lat="50.08357" lon="4.19186">
        <ele>201</ele>
        <time>2024-04-26T15:11:29Z</time>
      </trkpt>
      <trkpt lat="50.0835" lon="4.19184">
        <ele>201.2</ele>
        <time>2024-04-26T15:11:30Z</time>
      </trkpt>
      <trkpt lat="50.08343" lon="4.19181">
        <ele>201</ele>
        <time>2024-04-26T15:11:31Z</time>
      </trkpt>
      <trkpt lat="50.08335" lon="4.19177">
        <ele>200.8</ele>
        <time>2024-04-26T15:11:32Z</time>
      </trkpt>
      <trkpt lat="50.08328" lon="4.19173">
        <ele>200.8</ele>
        <time>2024-04-26T15:11:33Z</time>
      </trkpt>
      <trkpt lat="50.0832" lon="4.19169">
        <ele>200.4</ele>
        <time>2024-04-26T15:11:34Z</time>
      </trkpt>
      <trkpt lat="50.08313" lon="4.19164">
        <ele>200.2</ele>
        <time>2024-04-26T15:11:35Z</time>
      </trkpt>
      <trkpt lat="50.08306" lon="4.19159">
        <ele>200</ele>
        <time>2024-04-26T15:11:36Z</time>
      </trkpt>
      <trkpt lat="50.08299" lon="4.19154">
        <ele>199.8</ele>
        <time>2024-04-26T15:11:37Z</time>
      </trkpt>
      <trkpt lat="50.08292" lon="4.19149">
        <ele>199.6</ele>
        <time>2024-04-26T15:11:38Z</time>
      </trkpt>
      <trkpt lat="50.08285" lon="4.19144">
        <ele>199.4</ele>
        <time>2024-04-26T15:11:39Z</time>
      </trkpt>
      <trkpt lat="50.08278" lon="4.19138">
        <ele>199.2</ele>
        <time>2024-04-26T15:11:40Z</time>
      </trkpt>
      <trkpt lat="50.08271" lon="4.19133">
        <ele>199</ele>
        <time>2024-04-26T15:11:41Z</time>
      </trkpt>
      <trkpt lat="50.08263" lon="4.19128">
        <ele>199</ele>
        <time>2024-04-26T15:11:42Z</time>
      </trkpt>
      <trkpt lat="50.08256" lon="4.19124">
        <ele>199</ele>
        <time>2024-04-26T15:11:43Z</time>
      </trkpt>
      <trkpt lat="50.08249" lon="4.1912">
        <ele>199</ele>
        <time>2024-04-26T15:11:44Z</time>
      </trkpt>
      <trkpt lat="50.08241" lon="4.19115">
        <ele>198.6</ele>
        <time>2024-04-26T15:11:45Z</time>
      </trkpt>
      <trkpt lat="50.08234" lon="4.19111">
        <ele>198.6</ele>
        <time>2024-04-26T15:11:46Z</time>
      </trkpt>
      <trkpt lat="50.08227" lon="4.19106">
        <ele>198.6</ele>
        <time>2024-04-26T15:11:47Z</time>
      </trkpt>
      <trkpt lat="50.08219" lon="4.19102">
        <ele>198</ele>
        <time>2024-04-26T15:11:48Z</time>
      </trkpt>
      <trkpt lat="50.08212" lon="4.19098">
        <ele>198</ele>
        <time>2024-04-26T15:11:49Z</time>
      </trkpt>
      <trkpt lat="50.08205" lon="4.19093">
        <ele>197.8</ele>
        <time>2024-04-26T15:11:50Z</time>
      </trkpt>
      <trkpt lat="50.08197" lon="4.19089">
        <ele>197.6</ele>
        <time>2024-04-26T15:11:51Z</time>
      </trkpt>
      <trkpt lat="50.08189" lon="4.19085">
        <ele>197.2</ele>
        <time>2024-04-26T15:11:52Z</time>
      </trkpt>
      <trkpt lat="50.08181" lon="4.19082">
        <ele>197</ele>
        <time>2024-04-26T15:11:53Z</time>
      </trkpt>
      <trkpt lat="50.08173" lon="4.19079">
        <ele>196.8</ele>
        <time>2024-04-26T15:11:54Z</time>
      </trkpt>
      <trkpt lat="50.08165" lon="4.19077">
        <ele>196.8</ele>
        <time>2024-04-26T15:11:55Z</time>
      </trkpt>
      <trkpt lat="50.08156" lon="4.19076">
        <ele>196.6</ele>
        <time>2024-04-26T15:11:56Z</time>
      </trkpt>
      <trkpt lat="50.08148" lon="4.19076">
        <ele>196.4</ele>
        <time>2024-04-26T15:11:57Z</time>
      </trkpt>
      <trkpt lat="50.0814" lon="4.19076">
        <ele>196.4</ele>
        <time>2024-04-26T15:11:58Z</time>
      </trkpt>
      <trkpt lat="50.08132" lon="4.19078">
        <ele>196</ele>
        <time>2024-04-26T15:11:59Z</time>
      </trkpt>
      <trkpt lat="50.08125" lon="4.19079">
        <ele>196</ele>
        <time>2024-04-26T15:12:00Z</time>
      </trkpt>
      <trkpt lat="50.08117" lon="4.19081">
        <ele>195.6</ele>
        <time>2024-04-26T15:12:01Z</time>
      </trkpt>
      <trkpt lat="50.0811" lon="4.19082">
        <ele>195.4</ele>
        <time>2024-04-26T15:12:02Z</time>
      </trkpt>
      <trkpt lat="50.08102" lon="4.19083">
        <ele>195.2</ele>
        <time>2024-04-26T15:12:03Z</time>
      </trkpt>
      <trkpt lat="50.08095" lon="4.19084">
        <ele>195</ele>
        <time>2024-04-26T15:12:04Z</time>
      </trkpt>
      <trkpt lat="50.08088" lon="4.19084">
        <ele>195</ele>
        <time>2024-04-26T15:12:05Z</time>
      </trkpt>
      <trkpt lat="50.08081" lon="4.19085">
        <ele>194.8</ele>
        <time>2024-04-26T15:12:06Z</time>
      </trkpt>
      <trkpt lat="50.08074" lon="4.19086">
        <ele>194.8</ele>
        <time>2024-04-26T15:12:07Z</time>
      </trkpt>
      <trkpt lat="50.08067" lon="4.19087">
        <ele>194.8</ele>
        <time>2024-04-26T15:12:08Z</time>
      </trkpt>
      <trkpt lat="50.0806" lon="4.19088">
        <ele>194.8</ele>
        <time>2024-04-26T15:12:09Z</time>
      </trkpt>
      <trkpt lat="50.08053" lon="4.19089">
        <ele>194.8</ele>
        <time>2024-04-26T15:12:10Z</time>
      </trkpt>
      <trkpt lat="50.08047" lon="4.19089">
        <ele>194.8</ele>
        <time>2024-04-26T15:12:11Z</time>
      </trkpt>
      <trkpt lat="50.0804" lon="4.1909">
        <ele>194.8</ele>
        <time>2024-04-26T15:12:12Z</time>
      </trkpt>
      <trkpt lat="50.08033" lon="4.19092">
        <ele>194.8</ele>
        <time>2024-04-26T15:12:13Z</time>
      </trkpt>
      <trkpt lat="50.08026" lon="4.19094">
        <ele>194.8</ele>
        <time>2024-04-26T15:12:14Z</time>
      </trkpt>
      <trkpt lat="50.0802" lon="4.19097">
        <ele>195</ele>
        <time>2024-04-26T15:12:15Z</time>
      </trkpt>
      <trkpt lat="50.08013" lon="4.19099">
        <ele>195</ele>
        <time>2024-04-26T15:12:16Z</time>
      </trkpt>
      <trkpt lat="50.08006" lon="4.19101">
        <ele>195</ele>
        <time>2024-04-26T15:12:17Z</time>
      </trkpt>
      <trkpt lat="50.07999" lon="4.19103">
        <ele>195</ele>
        <time>2024-04-26T15:12:18Z</time>
      </trkpt>
      <trkpt lat="50.07992" lon="4.19105">
        <ele>195.2</ele>
        <time>2024-04-26T15:12:19Z</time>
      </trkpt>
      <trkpt lat="50.07985" lon="4.19108">
        <ele>195.2</ele>
        <time>2024-04-26T15:12:20Z</time>
      </trkpt>
      <trkpt lat="50.07978" lon="4.19111">
        <ele>195.2</ele>
        <time>2024-04-26T15:12:21Z</time>
      </trkpt>
      <trkpt lat="50.07971" lon="4.19114">
        <ele>195.2</ele>
        <time>2024-04-26T15:12:22Z</time>
      </trkpt>
      <trkpt lat="50.07965" lon="4.19117">
        <ele>195.4</ele>
        <time>2024-04-26T15:12:23Z</time>
      </trkpt>
      <trkpt lat="50.07958" lon="4.19121">
        <ele>195.4</ele>
        <time>2024-04-26T15:12:24Z</time>
      </trkpt>
      <trkpt lat="50.07951" lon="4.19124">
        <ele>195.4</ele>
        <time>2024-04-26T15:12:25Z</time>
      </trkpt>
      <trkpt lat="50.07945" lon="4.19128">
        <ele>195.4</ele>
        <time>2024-04-26T15:12:26Z</time>
      </trkpt>
      <trkpt lat="50.07938" lon="4.19132">
        <ele>195.6</ele>
        <time>2024-04-26T15:12:27Z</time>
      </trkpt>
      <trkpt lat="50.07932" lon="4.19137">
        <ele>195.6</ele>
        <time>2024-04-26T15:12:28Z</time>
      </trkpt>
      <trkpt lat="50.07926" lon="4.19141">
        <ele>195.8</ele>
        <time>2024-04-26T15:12:29Z</time>
      </trkpt>
      <trkpt lat="50.0792" lon="4.19145">
        <ele>195.6</ele>
        <time>2024-04-26T15:12:30Z</time>
      </trkpt>
      <trkpt lat="50.07914" lon="4.19149">
        <ele>195.6</ele>
        <time>2024-04-26T15:12:31Z</time>
      </trkpt>
      <trkpt lat="50.07907" lon="4.19153">
        <ele>195.8</ele>
        <time>2024-04-26T15:12:32Z</time>
      </trkpt>
      <trkpt lat="50.07901" lon="4.19157">
        <ele>195.8</ele>
        <time>2024-04-26T15:12:33Z</time>
      </trkpt>
      <trkpt lat="50.07895" lon="4.19161">
        <ele>195.8</ele>
        <time>2024-04-26T15:12:34Z</time>
      </trkpt>
      <trkpt lat="50.07889" lon="4.19165">
        <ele>195.6</ele>
        <time>2024-04-26T15:12:35Z</time>
      </trkpt>
      <trkpt lat="50.07883" lon="4.19169">
        <ele>195.8</ele>
        <time>2024-04-26T15:12:36Z</time>
      </trkpt>
      <trkpt lat="50.07877" lon="4.19172">
        <ele>196</ele>
        <time>2024-04-26T15:12:37Z</time>
      </trkpt>
      <trkpt lat="50.07872" lon="4.19176">
        <ele>196.2</ele>
        <time>2024-04-26T15:12:38Z</time>
      </trkpt>
      <trkpt lat="50.07866" lon="4.1918">
        <ele>196.2</ele>
        <time>2024-04-26T15:12:39Z</time>
      </trkpt>
      <trkpt lat="50.0786" lon="4.19184">
        <ele>196.4</ele>
        <time>2024-04-26T15:12:40Z</time>
      </trkpt>
      <trkpt lat="50.07854" lon="4.19188">
        <ele>196.2</ele>
        <time>2024-04-26T15:12:41Z</time>
      </trkpt>
      <trkpt lat="50.07848" lon="4.19192">
        <ele>196.6</ele>
        <time>2024-04-26T15:12:42Z</time>
      </trkpt>
      <trkpt lat="50.07842" lon="4.19197">
        <ele>197</ele>
        <time>2024-04-26T15:12:43Z</time>
      </trkpt>
      <trkpt lat="50.07836" lon="4.19201">
        <ele>197.2</ele>
        <time>2024-04-26T15:12:44Z</time>
      </trkpt>
      <trkpt lat="50.0783" lon="4.19205">
        <ele>197.6</ele>
        <time>2024-04-26T15:12:45Z</time>
      </trkpt>
      <trkpt lat="50.07824" lon="4.1921">
        <ele>198</ele>
        <time>2024-04-26T15:12:46Z</time>
      </trkpt>
      <trkpt lat="50.07818" lon="4.19215">
        <ele>198.2</ele>
        <time>2024-04-26T15:12:47Z</time>
      </trkpt>
      <trkpt lat="50.07812" lon="4.1922">
        <ele>198.2</ele>
        <time>2024-04-26T15:12:48Z</time>
      </trkpt>
      <trkpt lat="50.07806" lon="4.19225">
        <ele>198.4</ele>
        <time>2024-04-26T15:12:49Z</time>
      </trkpt>
      <trkpt lat="50.078" lon="4.1923">
        <ele>198.6</ele>
        <time>2024-04-26T15:12:50Z</time>
      </trkpt>
      <trkpt lat="50.07794" lon="4.19235">
        <ele>198.4</ele>
        <time>2024-04-26T15:12:51Z</time>
      </trkpt>
      <trkpt lat="50.07788" lon="4.1924">
        <ele>198.6</ele>
        <time>2024-04-26T15:12:52Z</time>
      </trkpt>
      <trkpt lat="50.07782" lon="4.19245">
        <ele>198.6</ele>
        <time>2024-04-26T15:12:53Z</time>
      </trkpt>
      <trkpt lat="50.07776" lon="4.1925">
        <ele>198.8</ele>
        <time>2024-04-26T15:12:54Z</time>
      </trkpt>
      <trkpt lat="50.0777" lon="4.19254">
        <ele>198.8</ele>
        <time>2024-04-26T15:12:55Z</time>
      </trkpt>
      <trkpt lat="50.07764" lon="4.19259">
        <ele>198.8</ele>
        <time>2024-04-26T15:12:56Z</time>
      </trkpt>
      <trkpt lat="50.07758" lon="4.19264">
        <ele>198.8</ele>
        <time>2024-04-26T15:12:57Z</time>
      </trkpt>
      <trkpt lat="50.07751" lon="4.19269">
        <ele>199</ele>
        <time>2024-04-26T15:12:58Z</time>
      </trkpt>
      <trkpt lat="50.07745" lon="4.19273">
        <ele>199</ele>
        <time>2024-04-26T15:12:59Z</time>
      </trkpt>
      <trkpt lat="50.07739" lon="4.19277">
        <ele>198.8</ele>
        <time>2024-04-26T15:13:00Z</time>
      </trkpt>
      <trkpt lat="50.07732" lon="4.1928">
        <ele>199</ele>
        <time>2024-04-26T15:13:01Z</time>
      </trkpt>
      <trkpt lat="50.07725" lon="4.19284">
        <ele>199</ele>
        <time>2024-04-26T15:13:02Z</time>
      </trkpt>
      <trkpt lat="50.07718" lon="4.19287">
        <ele>199.2</ele>
        <time>2024-04-26T15:13:03Z</time>
      </trkpt>
      <trkpt lat="50.07711" lon="4.19291">
        <ele>199.2</ele>
        <time>2024-04-26T15:13:04Z</time>
      </trkpt>
      <trkpt lat="50.07704" lon="4.19295">
        <ele>199.2</ele>
        <time>2024-04-26T15:13:05Z</time>
      </trkpt>
      <trkpt lat="50.07697" lon="4.193">
        <ele>199</ele>
        <time>2024-04-26T15:13:06Z</time>
      </trkpt>
      <trkpt lat="50.0769" lon="4.19304">
        <ele>199</ele>
        <time>2024-04-26T15:13:07Z</time>
      </trkpt>
      <trkpt lat="50.07682" lon="4.1931">
        <ele>199</ele>
        <time>2024-04-26T15:13:08Z</time>
      </trkpt>
      <trkpt lat="50.07675" lon="4.19315">
        <ele>199</ele>
        <time>2024-04-26T15:13:09Z</time>
      </trkpt>
      <trkpt lat="50.07668" lon="4.19321">
        <ele>198.8</ele>
        <time>2024-04-26T15:13:10Z</time>
      </trkpt>
      <trkpt lat="50.0766" lon="4.19328">
        <ele>198.8</ele>
        <time>2024-04-26T15:13:11Z</time>
      </trkpt>
      <trkpt lat="50.07653" lon="4.19334">
        <ele>198.8</ele>
        <time>2024-04-26T15:13:12Z</time>
      </trkpt>
      <trkpt lat="50.07646" lon="4.19341">
        <ele>198.6</ele>
        <time>2024-04-26T15:13:13Z</time>
      </trkpt>
      <trkpt lat="50.07638" lon="4.19347">
        <ele>198.6</ele>
        <time>2024-04-26T15:13:14Z</time>
      </trkpt>
      <trkpt lat="50.0763" lon="4.19354">
        <ele>198.2</ele>
        <time>2024-04-26T15:13:15Z</time>
      </trkpt>
      <trkpt lat="50.07622" lon="4.1936">
        <ele>198</ele>
        <time>2024-04-26T15:13:16Z</time>
      </trkpt>
      <trkpt lat="50.07614" lon="4.19366">
        <ele>197.6</ele>
        <time>2024-04-26T15:13:17Z</time>
      </trkpt>
      <trkpt lat="50.07606" lon="4.19373">
        <ele>197</ele>
        <time>2024-04-26T15:13:18Z</time>
      </trkpt>
      <trkpt lat="50.07598" lon="4.19381">
        <ele>196.6</ele>
        <time>2024-04-26T15:13:19Z</time>
      </trkpt>
      <trkpt lat="50.07591" lon="4.19389">
        <ele>196</ele>
        <time>2024-04-26T15:13:20Z</time>
      </trkpt>
      <trkpt lat="50.07585" lon="4.19398">
        <ele>195.8</ele>
        <time>2024-04-26T15:13:21Z</time>
      </trkpt>
      <trkpt lat="50.07579" lon="4.19408">
        <ele>195.2</ele>
        <time>2024-04-26T15:13:22Z</time>
      </trkpt>
      <trkpt lat="50.07574" lon="4.19418">
        <ele>194.6</ele>
        <time>2024-04-26T15:13:23Z</time>
      </trkpt>
      <trkpt lat="50.07569" lon="4.19429">
        <ele>194.4</ele>
        <time>2024-04-26T15:13:24Z</time>
      </trkpt>
      <trkpt lat="50.07565" lon="4.19439">
        <ele>194.4</ele>
        <time>2024-04-26T15:13:25Z</time>
      </trkpt>
      <trkpt lat="50.07561" lon="4.19449">
        <ele>193.8</ele>
        <time>2024-04-26T15:13:26Z</time>
      </trkpt>
      <trkpt lat="50.07557" lon="4.19459">
        <ele>193.6</ele>
        <time>2024-04-26T15:13:27Z</time>
      </trkpt>
      <trkpt lat="50.07553" lon="4.19469">
        <ele>193.4</ele>
        <time>2024-04-26T15:13:28Z</time>
      </trkpt>
      <trkpt lat="50.0755" lon="4.19479">
        <ele>193</ele>
        <time>2024-04-26T15:13:29Z</time>
      </trkpt>
      <trkpt lat="50.07546" lon="4.19489">
        <ele>193</ele>
        <time>2024-04-26T15:13:30Z</time>
      </trkpt>
      <trkpt lat="50.07543" lon="4.19499">
        <ele>193</ele>
        <time>2024-04-26T15:13:31Z</time>
      </trkpt>
      <trkpt lat="50.07539" lon="4.19509">
        <ele>193</ele>
        <time>2024-04-26T15:13:32Z</time>
      </trkpt>
      <trkpt lat="50.07535" lon="4.19518">
        <ele>193</ele>
        <time>2024-04-26T15:13:33Z</time>
      </trkpt>
      <trkpt lat="50.07531" lon="4.19527">
        <ele>192.8</ele>
        <time>2024-04-26T15:13:34Z</time>
      </trkpt>
      <trkpt lat="50.07527" lon="4.19536">
        <ele>193</ele>
        <time>2024-04-26T15:13:35Z</time>
      </trkpt>
      <trkpt lat="50.07522" lon="4.19544">
        <ele>193</ele>
        <time>2024-04-26T15:13:36Z</time>
      </trkpt>
      <trkpt lat="50.07516" lon="4.19551">
        <ele>193</ele>
        <time>2024-04-26T15:13:37Z</time>
      </trkpt>
      <trkpt lat="50.0751" lon="4.19556">
        <ele>193</ele>
        <time>2024-04-26T15:13:38Z</time>
      </trkpt>
      <trkpt lat="50.07503" lon="4.19559">
        <ele>192.8</ele>
        <time>2024-04-26T15:13:39Z</time>
      </trkpt>
      <trkpt lat="50.07497" lon="4.19562">
        <ele>192.8</ele>
        <time>2024-04-26T15:13:40Z</time>
      </trkpt>
      <trkpt lat="50.0749" lon="4.19563">
        <ele>192.8</ele>
        <time>2024-04-26T15:13:41Z</time>
      </trkpt>
      <trkpt lat="50.07483" lon="4.19563">
        <ele>192.8</ele>
        <time>2024-04-26T15:13:42Z</time>
      </trkpt>
      <trkpt lat="50.07477" lon="4.19563">
        <ele>193</ele>
        <time>2024-04-26T15:13:43Z</time>
      </trkpt>
      <trkpt lat="50.0747" lon="4.19562">
        <ele>193</ele>
        <time>2024-04-26T15:13:44Z</time>
      </trkpt>
      <trkpt lat="50.07463" lon="4.19562">
        <ele>193</ele>
        <time>2024-04-26T15:13:45Z</time>
      </trkpt>
      <trkpt lat="50.07457" lon="4.19561">
        <ele>193.2</ele>
        <time>2024-04-26T15:13:46Z</time>
      </trkpt>
      <trkpt lat="50.0745" lon="4.1956">
        <ele>193</ele>
        <time>2024-04-26T15:13:47Z</time>
      </trkpt>
      <trkpt lat="50.07444" lon="4.19559">
        <ele>193.2</ele>
        <time>2024-04-26T15:13:48Z</time>
      </trkpt>
      <trkpt lat="50.07437" lon="4.19558">
        <ele>193.2</ele>
        <time>2024-04-26T15:13:49Z</time>
      </trkpt>
      <trkpt lat="50.07431" lon="4.19557">
        <ele>193.4</ele>
        <time>2024-04-26T15:13:50Z</time>
      </trkpt>
      <trkpt lat="50.07424" lon="4.19556">
        <ele>193.6</ele>
        <time>2024-04-26T15:13:51Z</time>
      </trkpt>
      <trkpt lat="50.07418" lon="4.19555">
        <ele>193.6</ele>
        <time>2024-04-26T15:13:52Z</time>
      </trkpt>
      <trkpt lat="50.07411" lon="4.19555">
        <ele>193.8</ele>
        <time>2024-04-26T15:13:53Z</time>
      </trkpt>
      <trkpt lat="50.07405" lon="4.19554">
        <ele>194</ele>
        <time>2024-04-26T15:13:54Z</time>
      </trkpt>
      <trkpt lat="50.07398" lon="4.19554">
        <ele>194.2</ele>
        <time>2024-04-26T15:13:55Z</time>
      </trkpt>
      <trkpt lat="50.07392" lon="4.19554">
        <ele>194.2</ele>
        <time>2024-04-26T15:13:56Z</time>
      </trkpt>
      <trkpt lat="50.07385" lon="4.19554">
        <ele>194.2</ele>
        <time>2024-04-26T15:13:57Z</time>
      </trkpt>
      <trkpt lat="50.07379" lon="4.19554">
        <ele>194.2</ele>
        <time>2024-04-26T15:13:58Z</time>
      </trkpt>
      <trkpt lat="50.07372" lon="4.19554">
        <ele>194.4</ele>
        <time>2024-04-26T15:13:59Z</time>
      </trkpt>
      <trkpt lat="50.07365" lon="4.19554">
        <ele>194.4</ele>
        <time>2024-04-26T15:14:00Z</time>
      </trkpt>
      <trkpt lat="50.07359" lon="4.19555">
        <ele>194.6</ele>
        <time>2024-04-26T15:14:01Z</time>
      </trkpt>
      <trkpt lat="50.07352" lon="4.19555">
        <ele>194.6</ele>
        <time>2024-04-26T15:14:02Z</time>
      </trkpt>
      <trkpt lat="50.07345" lon="4.19555">
        <ele>194.6</ele>
        <time>2024-04-26T15:14:03Z</time>
      </trkpt>
      <trkpt lat="50.07339" lon="4.19556">
        <ele>194.8</ele>
        <time>2024-04-26T15:14:04Z</time>
      </trkpt>
      <trkpt lat="50.07332" lon="4.19556">
        <ele>195</ele>
        <time>2024-04-26T15:14:05Z</time>
      </trkpt>
      <trkpt lat="50.07325" lon="4.19557">
        <ele>195.2</ele>
        <time>2024-04-26T15:14:06Z</time>
      </trkpt>
      <trkpt lat="50.07319" lon="4.19557">
        <ele>195.4</ele>
        <time>2024-04-26T15:14:07Z</time>
      </trkpt>
      <trkpt lat="50.07312" lon="4.19558">
        <ele>195.6</ele>
        <time>2024-04-26T15:14:08Z</time>
      </trkpt>
      <trkpt lat="50.07305" lon="4.19559">
        <ele>196</ele>
        <time>2024-04-26T15:14:09Z</time>
      </trkpt>
      <trkpt lat="50.07299" lon="4.19559">
        <ele>196.2</ele>
        <time>2024-04-26T15:14:10Z</time>
      </trkpt>
      <trkpt lat="50.07292" lon="4.1956">
        <ele>196</ele>
        <time>2024-04-26T15:14:11Z</time>
      </trkpt>
      <trkpt lat="50.07286" lon="4.19561">
        <ele>196.2</ele>
        <time>2024-04-26T15:14:12Z</time>
      </trkpt>
      <trkpt lat="50.07279" lon="4.19562">
        <ele>196.4</ele>
        <time>2024-04-26T15:14:13Z</time>
      </trkpt>
      <trkpt lat="50.07273" lon="4.19562">
        <ele>196.8</ele>
        <time>2024-04-26T15:14:14Z</time>
      </trkpt>
      <trkpt lat="50.07266" lon="4.19563">
        <ele>197</ele>
        <time>2024-04-26T15:14:15Z</time>
      </trkpt>
      <trkpt lat="50.07259" lon="4.19564">
        <ele>197.2</ele>
        <time>2024-04-26T15:14:16Z</time>
      </trkpt>
      <trkpt lat="50.07253" lon="4.19564">
        <ele>197.2</ele>
        <time>2024-04-26T15:14:17Z</time>
      </trkpt>
      <trkpt lat="50.07246" lon="4.19565">
        <ele>197.2</ele>
        <time>2024-04-26T15:14:18Z</time>
      </trkpt>
      <trkpt lat="50.07239" lon="4.19566">
        <ele>197.6</ele>
        <time>2024-04-26T15:14:19Z</time>
      </trkpt>
      <trkpt lat="50.07233" lon="4.19566">
        <ele>197.6</ele>
        <time>2024-04-26T15:14:20Z</time>
      </trkpt>
      <trkpt lat="50.07226" lon="4.19567">
        <ele>197.8</ele>
        <time>2024-04-26T15:14:21Z</time>
      </trkpt>
      <trkpt lat="50.07219" lon="4.19568">
        <ele>198</ele>
        <time>2024-04-26T15:14:22Z</time>
      </trkpt>
      <trkpt lat="50.07212" lon="4.19569">
        <ele>198</ele>
        <time>2024-04-26T15:14:23Z</time>
      </trkpt>
      <trkpt lat="50.07206" lon="4.19569">
        <ele>198</ele>
        <time>2024-04-26T15:14:24Z</time>
      </trkpt>
      <trkpt lat="50.07199" lon="4.1957">
        <ele>198.2</ele>
        <time>2024-04-26T15:14:25Z</time>
      </trkpt>
      <trkpt lat="50.07192" lon="4.19571">
        <ele>198.2</ele>
        <time>2024-04-26T15:14:26Z</time>
      </trkpt>
      <trkpt lat="50.07185" lon="4.19571">
        <ele>198.2</ele>
        <time>2024-04-26T15:14:27Z</time>
      </trkpt>
      <trkpt lat="50.07179" lon="4.19572">
        <ele>198.4</ele>
        <time>2024-04-26T15:14:28Z</time>
      </trkpt>
      <trkpt lat="50.07172" lon="4.19573">
        <ele>198.4</ele>
        <time>2024-04-26T15:14:29Z</time>
      </trkpt>
      <trkpt lat="50.07165" lon="4.19574">
        <ele>198.4</ele>
        <time>2024-04-26T15:14:30Z</time>
      </trkpt>
      <trkpt lat="50.07159" lon="4.19575">
        <ele>198.4</ele>
        <time>2024-04-26T15:14:31Z</time>
      </trkpt>
      <trkpt lat="50.07152" lon="4.19575">
        <ele>198.8</ele>
        <time>2024-04-26T15:14:32Z</time>
      </trkpt>
      <trkpt lat="50.07145" lon="4.19576">
        <ele>198.8</ele>
        <time>2024-04-26T15:14:33Z</time>
      </trkpt>
      <trkpt lat="50.07139" lon="4.19577">
        <ele>199</ele>
        <time>2024-04-26T15:14:34Z</time>
      </trkpt>
      <trkpt lat="50.07132" lon="4.19579">
        <ele>199.2</ele>
        <time>2024-04-26T15:14:35Z</time>
      </trkpt>
      <trkpt lat="50.07126" lon="4.1958">
        <ele>199.2</ele>
        <time>2024-04-26T15:14:36Z</time>
      </trkpt>
      <trkpt lat="50.0712" lon="4.19581">
        <ele>199.4</ele>
        <time>2024-04-26T15:14:37Z</time>
      </trkpt>
      <trkpt lat="50.07113" lon="4.19582">
        <ele>199.4</ele>
        <time>2024-04-26T15:14:38Z</time>
      </trkpt>
      <trkpt lat="50.07106" lon="4.19583">
        <ele>199.4</ele>
        <time>2024-04-26T15:14:39Z</time>
      </trkpt>
      <trkpt lat="50.071" lon="4.19584">
        <ele>199.4</ele>
        <time>2024-04-26T15:14:40Z</time>
      </trkpt>
      <trkpt lat="50.07093" lon="4.19585">
        <ele>199.6</ele>
        <time>2024-04-26T15:14:41Z</time>
      </trkpt>
      <trkpt lat="50.07087" lon="4.19586">
        <ele>199.6</ele>
        <time>2024-04-26T15:14:42Z</time>
      </trkpt>
      <trkpt lat="50.0708" lon="4.19588">
        <ele>199.6</ele>
        <time>2024-04-26T15:14:43Z</time>
      </trkpt>
      <trkpt lat="50.07074" lon="4.19589">
        <ele>199.6</ele>
        <time>2024-04-26T15:14:44Z</time>
      </trkpt>
      <trkpt lat="50.07067" lon="4.1959">
        <ele>199.6</ele>
        <time>2024-04-26T15:14:45Z</time>
      </trkpt>
      <trkpt lat="50.07061" lon="4.19591">
        <ele>199.6</ele>
        <time>2024-04-26T15:14:46Z</time>
      </trkpt>
      <trkpt lat="50.07054" lon="4.19593">
        <ele>199.6</ele>
        <time>2024-04-26T15:14:47Z</time>
      </trkpt>
      <trkpt lat="50.07047" lon="4.19594">
        <ele>199.8</ele>
        <time>2024-04-26T15:14:48Z</time>
      </trkpt>
      <trkpt lat="50.0704" lon="4.19595">
        <ele>200</ele>
        <time>2024-04-26T15:14:49Z</time>
      </trkpt>
      <trkpt lat="50.07034" lon="4.19596">
        <ele>200</ele>
        <time>2024-04-26T15:14:50Z</time>
      </trkpt>
      <trkpt lat="50.07027" lon="4.19597">
        <ele>200</ele>
        <time>2024-04-26T15:14:51Z</time>
      </trkpt>
      <trkpt lat="50.0702" lon="4.19598">
        <ele>200.2</ele>
        <time>2024-04-26T15:14:52Z</time>
      </trkpt>
      <trkpt lat="50.07013" lon="4.19599">
        <ele>200.2</ele>
        <time>2024-04-26T15:14:53Z</time>
      </trkpt>
      <trkpt lat="50.07006" lon="4.196">
        <ele>200.2</ele>
        <time>2024-04-26T15:14:54Z</time>
      </trkpt>
      <trkpt lat="50.06999" lon="4.19601">
        <ele>200.4</ele>
        <time>2024-04-26T15:14:55Z</time>
      </trkpt>
      <trkpt lat="50.06992" lon="4.19602">
        <ele>200.2</ele>
        <time>2024-04-26T15:14:56Z</time>
      </trkpt>
      <trkpt lat="50.06986" lon="4.19603">
        <ele>200.4</ele>
        <time>2024-04-26T15:14:57Z</time>
      </trkpt>
      <trkpt lat="50.06979" lon="4.19604">
        <ele>200.2</ele>
        <time>2024-04-26T15:14:58Z</time>
      </trkpt>
      <trkpt lat="50.06972" lon="4.19605">
        <ele>200.4</ele>
        <time>2024-04-26T15:14:59Z</time>
      </trkpt>
      <trkpt lat="50.06965" lon="4.19606">
        <ele>200.4</ele>
        <time>2024-04-26T15:15:00Z</time>
      </trkpt>
      <trkpt lat="50.06958" lon="4.19606">
        <ele>200.6</ele>
        <time>2024-04-26T15:15:01Z</time>
      </trkpt>
      <trkpt lat="50.06951" lon="4.19607">
        <ele>200.6</ele>
        <time>2024-04-26T15:15:02Z</time>
      </trkpt>
      <trkpt lat="50.06944" lon="4.19607">
        <ele>200.8</ele>
        <time>2024-04-26T15:15:03Z</time>
      </trkpt>
      <trkpt lat="50.06937" lon="4.19607">
        <ele>200.8</ele>
        <time>2024-04-26T15:15:04Z</time>
      </trkpt>
      <trkpt lat="50.0693" lon="4.19608">
        <ele>201</ele>
        <time>2024-04-26T15:15:05Z</time>
      </trkpt>
      <trkpt lat="50.06923" lon="4.19607">
        <ele>201.4</ele>
        <time>2024-04-26T15:15:06Z</time>
      </trkpt>
      <trkpt lat="50.06916" lon="4.19607">
        <ele>201.6</ele>
        <time>2024-04-26T15:15:07Z</time>
      </trkpt>
      <trkpt lat="50.06909" lon="4.19606">
        <ele>201.6</ele>
        <time>2024-04-26T15:15:08Z</time>
      </trkpt>
      <trkpt lat="50.06903" lon="4.19604">
        <ele>201.6</ele>
        <time>2024-04-26T15:15:09Z</time>
      </trkpt>
      <trkpt lat="50.06896" lon="4.19603">
        <ele>201.6</ele>
        <time>2024-04-26T15:15:10Z</time>
      </trkpt>
      <trkpt lat="50.06889" lon="4.19601">
        <ele>201.8</ele>
        <time>2024-04-26T15:15:11Z</time>
      </trkpt>
      <trkpt lat="50.06883" lon="4.19599">
        <ele>201.8</ele>
        <time>2024-04-26T15:15:12Z</time>
      </trkpt>
      <trkpt lat="50.06876" lon="4.19598">
        <ele>201.8</ele>
        <time>2024-04-26T15:15:13Z</time>
      </trkpt>
      <trkpt lat="50.0687" lon="4.19596">
        <ele>201.8</ele>
        <time>2024-04-26T15:15:14Z</time>
      </trkpt>
      <trkpt lat="50.06863" lon="4.19593">
        <ele>201.8</ele>
        <time>2024-04-26T15:15:15Z</time>
      </trkpt>
      <trkpt lat="50.06857" lon="4.19591">
        <ele>202</ele>
        <time>2024-04-26T15:15:16Z</time>
      </trkpt>
      <trkpt lat="50.0685" lon="4.19588">
        <ele>201.8</ele>
        <time>2024-04-26T15:15:17Z</time>
      </trkpt>
      <trkpt lat="50.06844" lon="4.19586">
        <ele>201.8</ele>
        <time>2024-04-26T15:15:18Z</time>
      </trkpt>
      <trkpt lat="50.06838" lon="4.19583">
        <ele>201.8</ele>
        <time>2024-04-26T15:15:19Z</time>
      </trkpt>
      <trkpt lat="50.06831" lon="4.19581">
        <ele>202</ele>
        <time>2024-04-26T15:15:20Z</time>
      </trkpt>
      <trkpt lat="50.06825" lon="4.19579">
        <ele>202</ele>
        <time>2024-04-26T15:15:21Z</time>
      </trkpt>
      <trkpt lat="50.06819" lon="4.19576">
        <ele>202.4</ele>
        <time>2024-04-26T15:15:22Z</time>
      </trkpt>
      <trkpt lat="50.06813" lon="4.19574">
        <ele>202.6</ele>
        <time>2024-04-26T15:15:23Z</time>
      </trkpt>
      <trkpt lat="50.06806" lon="4.19571">
        <ele>202.6</ele>
        <time>2024-04-26T15:15:24Z</time>
      </trkpt>
      <trkpt lat="50.068" lon="4.19569">
        <ele>202.8</ele>
        <time>2024-04-26T15:15:25Z</time>
      </trkpt>
      <trkpt lat="50.06793" lon="4.19566">
        <ele>202.8</ele>
        <time>2024-04-26T15:15:26Z</time>
      </trkpt>
      <trkpt lat="50.06786" lon="4.19564">
        <ele>202.8</ele>
        <time>2024-04-26T15:15:27Z</time>
      </trkpt>
      <trkpt lat="50.06779" lon="4.19561">
        <ele>203</ele>
        <time>2024-04-26T15:15:28Z</time>
      </trkpt>
      <trkpt lat="50.06772" lon="4.19559">
        <ele>203.2</ele>
        <time>2024-04-26T15:15:29Z</time>
      </trkpt>
      <trkpt lat="50.06765" lon="4.19557">
        <ele>203.2</ele>
        <time>2024-04-26T15:15:30Z</time>
      </trkpt>
      <trkpt lat="50.06758" lon="4.19554">
        <ele>203.2</ele>
        <time>2024-04-26T15:15:31Z</time>
      </trkpt>
      <trkpt lat="50.0675" lon="4.19552">
        <ele>203.2</ele>
        <time>2024-04-26T15:15:32Z</time>
      </trkpt>
      <trkpt lat="50.06743" lon="4.1955">
        <ele>203.4</ele>
        <time>2024-04-26T15:15:33Z</time>
      </trkpt>
      <trkpt lat="50.06735" lon="4.19548">
        <ele>203.2</ele>
        <time>2024-04-26T15:15:34Z</time>
      </trkpt>
      <trkpt lat="50.06728" lon="4.19546">
        <ele>203.2</ele>
        <time>2024-04-26T15:15:35Z</time>
      </trkpt>
      <trkpt lat="50.0672" lon="4.19545">
        <ele>203.2</ele>
        <time>2024-04-26T15:15:36Z</time>
      </trkpt>
      <trkpt lat="50.06712" lon="4.19543">
        <ele>203.2</ele>
        <time>2024-04-26T15:15:37Z</time>
      </trkpt>
      <trkpt lat="50.06705" lon="4.19543">
        <ele>203.4</ele>
        <time>2024-04-26T15:15:38Z</time>
      </trkpt>
      <trkpt lat="50.06697" lon="4.19542">
        <ele>203.2</ele>
        <time>2024-04-26T15:15:39Z</time>
      </trkpt>
      <trkpt lat="50.0669" lon="4.19542">
        <ele>203</ele>
        <time>2024-04-26T15:15:40Z</time>
      </trkpt>
      <trkpt lat="50.06682" lon="4.19542">
        <ele>203</ele>
        <time>2024-04-26T15:15:41Z</time>
      </trkpt>
      <trkpt lat="50.06675" lon="4.19542">
        <ele>202.8</ele>
        <time>2024-04-26T15:15:42Z</time>
      </trkpt>
      <trkpt lat="50.06668" lon="4.19542">
        <ele>202.4</ele>
        <time>2024-04-26T15:15:43Z</time>
      </trkpt>
      <trkpt lat="50.0666" lon="4.19543">
        <ele>202.2</ele>
        <time>2024-04-26T15:15:44Z</time>
      </trkpt>
      <trkpt lat="50.06653" lon="4.19543">
        <ele>201.8</ele>
        <time>2024-04-26T15:15:45Z</time>
      </trkpt>
      <trkpt lat="50.06646" lon="4.19544">
        <ele>201.6</ele>
        <time>2024-04-26T15:15:46Z</time>
      </trkpt>
      <trkpt lat="50.06639" lon="4.19544">
        <ele>201.4</ele>
        <time>2024-04-26T15:15:47Z</time>
      </trkpt>
      <trkpt lat="50.06631" lon="4.19544">
        <ele>201.4</ele>
        <time>2024-04-26T15:15:48Z</time>
      </trkpt>
      <trkpt lat="50.06624" lon="4.19545">
        <ele>201.4</ele>
        <time>2024-04-26T15:15:49Z</time>
      </trkpt>
      <trkpt lat="50.06617" lon="4.19545">
        <ele>201.2</ele>
        <time>2024-04-26T15:15:50Z</time>
      </trkpt>
      <trkpt lat="50.0661" lon="4.19545">
        <ele>201.2</ele>
        <time>2024-04-26T15:15:51Z</time>
      </trkpt>
      <trkpt lat="50.06603" lon="4.19545">
        <ele>201</ele>
        <time>2024-04-26T15:15:52Z</time>
      </trkpt>
      <trkpt lat="50.06596" lon="4.19546">
        <ele>201.2</ele>
        <time>2024-04-26T15:15:53Z</time>
      </trkpt>
      <trkpt lat="50.06589" lon="4.19546">
        <ele>201.2</ele>
        <time>2024-04-26T15:15:54Z</time>
      </trkpt>
      <trkpt lat="50.06582" lon="4.19547">
        <ele>201.2</ele>
        <time>2024-04-26T15:15:55Z</time>
      </trkpt>
      <trkpt lat="50.06575" lon="4.19547">
        <ele>201</ele>
        <time>2024-04-26T15:15:56Z</time>
      </trkpt>
      <trkpt lat="50.06568" lon="4.19547">
        <ele>201.2</ele>
        <time>2024-04-26T15:15:57Z</time>
      </trkpt>
      <trkpt lat="50.06562" lon="4.19547">
        <ele>201.2</ele>
        <time>2024-04-26T15:15:58Z</time>
      </trkpt>
      <trkpt lat="50.06555" lon="4.19547">
        <ele>201.4</ele>
        <time>2024-04-26T15:15:59Z</time>
      </trkpt>
      <trkpt lat="50.06548" lon="4.19548">
        <ele>201.2</ele>
        <time>2024-04-26T15:16:00Z</time>
      </trkpt>
      <trkpt lat="50.06541" lon="4.19548">
        <ele>201.4</ele>
        <time>2024-04-26T15:16:01Z</time>
      </trkpt>
      <trkpt lat="50.06534" lon="4.19548">
        <ele>201.4</ele>
        <time>2024-04-26T15:16:02Z</time>
      </trkpt>
      <trkpt lat="50.06528" lon="4.19548">
        <ele>201.4</ele>
        <time>2024-04-26T15:16:03Z</time>
      </trkpt>
      <trkpt lat="50.06521" lon="4.19548">
        <ele>201.4</ele>
        <time>2024-04-26T15:16:04Z</time>
      </trkpt>
      <trkpt lat="50.06515" lon="4.19548">
        <ele>201.4</ele>
        <time>2024-04-26T15:16:05Z</time>
      </trkpt>
      <trkpt lat="50.06509" lon="4.19548">
        <ele>201.4</ele>
        <time>2024-04-26T15:16:06Z</time>
      </trkpt>
      <trkpt lat="50.06504" lon="4.19549">
        <ele>201.4</ele>
        <time>2024-04-26T15:16:07Z</time>
      </trkpt>
      <trkpt lat="50.06498" lon="4.19552">
        <ele>201.6</ele>
        <time>2024-04-26T15:16:08Z</time>
      </trkpt>
      <trkpt lat="50.06492" lon="4.19557">
        <ele>201.8</ele>
        <time>2024-04-26T15:16:09Z</time>
      </trkpt>
      <trkpt lat="50.06487" lon="4.19563">
        <ele>201.8</ele>
        <time>2024-04-26T15:16:10Z</time>
      </trkpt>
      <trkpt lat="50.06481" lon="4.1957">
        <ele>201.8</ele>
        <time>2024-04-26T15:16:11Z</time>
      </trkpt>
      <trkpt lat="50.06476" lon="4.19578">
        <ele>201.8</ele>
        <time>2024-04-26T15:16:12Z</time>
      </trkpt>
      <trkpt lat="50.06471" lon="4.19586">
        <ele>201.8</ele>
        <time>2024-04-26T15:16:13Z</time>
      </trkpt>
      <trkpt lat="50.06466" lon="4.19594">
        <ele>202</ele>
        <time>2024-04-26T15:16:14Z</time>
      </trkpt>
      <trkpt lat="50.06462" lon="4.19603">
        <ele>202</ele>
        <time>2024-04-26T15:16:15Z</time>
      </trkpt>
      <trkpt lat="50.06457" lon="4.19613">
        <ele>202</ele>
        <time>2024-04-26T15:16:16Z</time>
      </trkpt>
      <trkpt lat="50.06454" lon="4.19624">
        <ele>202</ele>
        <time>2024-04-26T15:16:17Z</time>
      </trkpt>
      <trkpt lat="50.0645" lon="4.19636">
        <ele>202</ele>
        <time>2024-04-26T15:16:18Z</time>
      </trkpt>
      <trkpt lat="50.06448" lon="4.19648">
        <ele>202</ele>
        <time>2024-04-26T15:16:19Z</time>
      </trkpt>
      <trkpt lat="50.06446" lon="4.19661">
        <ele>202</ele>
        <time>2024-04-26T15:16:20Z</time>
      </trkpt>
      <trkpt lat="50.06445" lon="4.19674">
        <ele>202</ele>
        <time>2024-04-26T15:16:21Z</time>
      </trkpt>
      <trkpt lat="50.06444" lon="4.19687">
        <ele>202</ele>
        <time>2024-04-26T15:16:22Z</time>
      </trkpt>
      <trkpt lat="50.06443" lon="4.197">
        <ele>201.8</ele>
        <time>2024-04-26T15:16:23Z</time>
      </trkpt>
      <trkpt lat="50.06441" lon="4.19713">
        <ele>201.6</ele>
        <time>2024-04-26T15:16:24Z</time>
      </trkpt>
      <trkpt lat="50.0644" lon="4.19726">
        <ele>201.2</ele>
        <time>2024-04-26T15:16:25Z</time>
      </trkpt>
      <trkpt lat="50.06438" lon="4.19739">
        <ele>200.8</ele>
        <time>2024-04-26T15:16:26Z</time>
      </trkpt>
      <trkpt lat="50.06436" lon="4.19752">
        <ele>200.6</ele>
        <time>2024-04-26T15:16:27Z</time>
      </trkpt>
      <trkpt lat="50.06434" lon="4.19764">
        <ele>200.2</ele>
        <time>2024-04-26T15:16:28Z</time>
      </trkpt>
      <trkpt lat="50.06431" lon="4.19776">
        <ele>200.2</ele>
        <time>2024-04-26T15:16:29Z</time>
      </trkpt>
      <trkpt lat="50.06429" lon="4.19788">
        <ele>200</ele>
        <time>2024-04-26T15:16:30Z</time>
      </trkpt>
      <trkpt lat="50.06427" lon="4.198">
        <ele>199.4</ele>
        <time>2024-04-26T15:16:31Z</time>
      </trkpt>
      <trkpt lat="50.06425" lon="4.19812">
        <ele>199.2</ele>
        <time>2024-04-26T15:16:32Z</time>
      </trkpt>
      <trkpt lat="50.06422" lon="4.19823">
        <ele>199.2</ele>
        <time>2024-04-26T15:16:33Z</time>
      </trkpt>
      <trkpt lat="50.0642" lon="4.19835">
        <ele>199</ele>
        <time>2024-04-26T15:16:34Z</time>
      </trkpt>
      <trkpt lat="50.06418" lon="4.19845">
        <ele>198.8</ele>
        <time>2024-04-26T15:16:35Z</time>
      </trkpt>
      <trkpt lat="50.06416" lon="4.19856">
        <ele>198.8</ele>
        <time>2024-04-26T15:16:36Z</time>
      </trkpt>
      <trkpt lat="50.06413" lon="4.19867">
        <ele>198.6</ele>
        <time>2024-04-26T15:16:37Z</time>
      </trkpt>
      <trkpt lat="50.0641" lon="4.19878">
        <ele>198.6</ele>
        <time>2024-04-26T15:16:38Z</time>
      </trkpt>
      <trkpt lat="50.06405" lon="4.19886">
        <ele>198.4</ele>
        <time>2024-04-26T15:16:39Z</time>
      </trkpt>
      <trkpt lat="50.06399" lon="4.19893">
        <ele>198.4</ele>
        <time>2024-04-26T15:16:40Z</time>
      </trkpt>
      <trkpt lat="50.06392" lon="4.19897">
        <ele>198.4</ele>
        <time>2024-04-26T15:16:41Z</time>
      </trkpt>
      <trkpt lat="50.06385" lon="4.19901">
        <ele>198.4</ele>
        <time>2024-04-26T15:16:42Z</time>
      </trkpt>
      <trkpt lat="50.06378" lon="4.19904">
        <ele>198.4</ele>
        <time>2024-04-26T15:16:43Z</time>
      </trkpt>
      <trkpt lat="50.06371" lon="4.19908">
        <ele>198.2</ele>
        <time>2024-04-26T15:16:44Z</time>
      </trkpt>
      <trkpt lat="50.06365" lon="4.19911">
        <ele>198.4</ele>
        <time>2024-04-26T15:16:45Z</time>
      </trkpt>
      <trkpt lat="50.06358" lon="4.19915">
        <ele>198.4</ele>
        <time>2024-04-26T15:16:46Z</time>
      </trkpt>
      <trkpt lat="50.06352" lon="4.19918">
        <ele>198.4</ele>
        <time>2024-04-26T15:16:47Z</time>
      </trkpt>
      <trkpt lat="50.06346" lon="4.19922">
        <ele>198.4</ele>
        <time>2024-04-26T15:16:48Z</time>
      </trkpt>
      <trkpt lat="50.0634" lon="4.19926">
        <ele>198.4</ele>
        <time>2024-04-26T15:16:49Z</time>
      </trkpt>
      <trkpt lat="50.06335" lon="4.19931">
        <ele>198.4</ele>
        <time>2024-04-26T15:16:50Z</time>
      </trkpt>
      <trkpt lat="50.0633" lon="4.19935">
        <ele>198.4</ele>
        <time>2024-04-26T15:16:51Z</time>
      </trkpt>
      <trkpt lat="50.06325" lon="4.1994">
        <ele>198.4</ele>
        <time>2024-04-26T15:16:52Z</time>
      </trkpt>
      <trkpt lat="50.06321" lon="4.19946">
        <ele>198.4</ele>
        <time>2024-04-26T15:16:53Z</time>
      </trkpt>
      <trkpt lat="50.06318" lon="4.19953">
        <ele>198.6</ele>
        <time>2024-04-26T15:16:54Z</time>
      </trkpt>
      <trkpt lat="50.06315" lon="4.1996">
        <ele>198.6</ele>
        <time>2024-04-26T15:16:55Z</time>
      </trkpt>
      <trkpt lat="50.06314" lon="4.19968">
        <ele>198.4</ele>
        <time>2024-04-26T15:16:56Z</time>
      </trkpt>
      <trkpt lat="50.06313" lon="4.19976">
        <ele>198.6</ele>
        <time>2024-04-26T15:16:57Z</time>
      </trkpt>
      <trkpt lat="50.06312" lon="4.19983">
        <ele>198.8</ele>
        <time>2024-04-26T15:16:58Z</time>
      </trkpt>
      <trkpt lat="50.06312" lon="4.19991">
        <ele>199</ele>
        <time>2024-04-26T15:16:59Z</time>
      </trkpt>
      <trkpt lat="50.06313" lon="4.19999">
        <ele>199.4</ele>
        <time>2024-04-26T15:17:00Z</time>
      </trkpt>
      <trkpt lat="50.06313" lon="4.20006">
        <ele>199.6</ele>
        <time>2024-04-26T15:17:01Z</time>
      </trkpt>
      <trkpt lat="50.06313" lon="4.20015">
        <ele>200.2</ele>
        <time>2024-04-26T15:17:02Z</time>
      </trkpt>
      <trkpt lat="50.06313" lon="4.20023">
        <ele>201.2</ele>
        <time>2024-04-26T15:17:03Z</time>
      </trkpt>
      <trkpt lat="50.06313" lon="4.20032">
        <ele>202</ele>
        <time>2024-04-26T15:17:04Z</time>
      </trkpt>
      <trkpt lat="50.06312" lon="4.20042">
        <ele>202.6</ele>
        <time>2024-04-26T15:17:05Z</time>
      </trkpt>
      <trkpt lat="50.0631" lon="4.2005">
        <ele>203</ele>
        <time>2024-04-26T15:17:06Z</time>
      </trkpt>
      <trkpt lat="50.06308" lon="4.20059">
        <ele>203.8</ele>
        <time>2024-04-26T15:17:07Z</time>
      </trkpt>
      <trkpt lat="50.06305" lon="4.20068">
        <ele>204</ele>
        <time>2024-04-26T15:17:08Z</time>
      </trkpt>
      <trkpt lat="50.06303" lon="4.20076">
        <ele>204.2</ele>
        <time>2024-04-26T15:17:09Z</time>
      </trkpt>
      <trkpt lat="50.06301" lon="4.20085">
        <ele>204.2</ele>
        <time>2024-04-26T15:17:10Z</time>
      </trkpt>
      <trkpt lat="50.06299" lon="4.20095">
        <ele>204.6</ele>
        <time>2024-04-26T15:17:11Z</time>
      </trkpt>
      <trkpt lat="50.06298" lon="4.20104">
        <ele>204.6</ele>
        <time>2024-04-26T15:17:12Z</time>
      </trkpt>
      <trkpt lat="50.06297" lon="4.20115">
        <ele>204.8</ele>
        <time>2024-04-26T15:17:13Z</time>
      </trkpt>
      <trkpt lat="50.06296" lon="4.20125">
        <ele>204.8</ele>
        <time>2024-04-26T15:17:14Z</time>
      </trkpt>
      <trkpt lat="50.06296" lon="4.20135">
        <ele>205</ele>
        <time>2024-04-26T15:17:15Z</time>
      </trkpt>
      <trkpt lat="50.06296" lon="4.20145">
        <ele>205</ele>
        <time>2024-04-26T15:17:16Z</time>
      </trkpt>
      <trkpt lat="50.06295" lon="4.20155">
        <ele>205</ele>
        <time>2024-04-26T15:17:17Z</time>
      </trkpt>
      <trkpt lat="50.06295" lon="4.20165">
        <ele>205</ele>
        <time>2024-04-26T15:17:18Z</time>
      </trkpt>
      <trkpt lat="50.06295" lon="4.20175">
        <ele>205</ele>
        <time>2024-04-26T15:17:19Z</time>
      </trkpt>
      <trkpt lat="50.06295" lon="4.20185">
        <ele>205</ele>
        <time>2024-04-26T15:17:20Z</time>
      </trkpt>
      <trkpt lat="50.06294" lon="4.20194">
        <ele>205.2</ele>
        <time>2024-04-26T15:17:21Z</time>
      </trkpt>
      <trkpt lat="50.06294" lon="4.20204">
        <ele>205.4</ele>
        <time>2024-04-26T15:17:22Z</time>
      </trkpt>
      <trkpt lat="50.06294" lon="4.20214">
        <ele>205.6</ele>
        <time>2024-04-26T15:17:23Z</time>
      </trkpt>
      <trkpt lat="50.06293" lon="4.20224">
        <ele>206</ele>
        <time>2024-04-26T15:17:24Z</time>
      </trkpt>
      <trkpt lat="50.06293" lon="4.20234">
        <ele>206.2</ele>
        <time>2024-04-26T15:17:25Z</time>
      </trkpt>
      <trkpt lat="50.06293" lon="4.20244">
        <ele>206.4</ele>
        <time>2024-04-26T15:17:26Z</time>
      </trkpt>
      <trkpt lat="50.06292" lon="4.20254">
        <ele>206.6</ele>
        <time>2024-04-26T15:17:27Z</time>
      </trkpt>
      <trkpt lat="50.06292" lon="4.20265">
        <ele>206.8</ele>
        <time>2024-04-26T15:17:28Z</time>
      </trkpt>
      <trkpt lat="50.06291" lon="4.20275">
        <ele>206.8</ele>
        <time>2024-04-26T15:17:29Z</time>
      </trkpt>
      <trkpt lat="50.06291" lon="4.20286">
        <ele>207</ele>
        <time>2024-04-26T15:17:30Z</time>
      </trkpt>
      <trkpt lat="50.0629" lon="4.20296">
        <ele>207.2</ele>
        <time>2024-04-26T15:17:31Z</time>
      </trkpt>
      <trkpt lat="50.0629" lon="4.20307">
        <ele>207.2</ele>
        <time>2024-04-26T15:17:32Z</time>
      </trkpt>
      <trkpt lat="50.06289" lon="4.20317">
        <ele>207.6</ele>
        <time>2024-04-26T15:17:33Z</time>
      </trkpt>
      <trkpt lat="50.06289" lon="4.20328">
        <ele>207.6</ele>
        <time>2024-04-26T15:17:34Z</time>
      </trkpt>
      <trkpt lat="50.06289" lon="4.20339">
        <ele>207.8</ele>
        <time>2024-04-26T15:17:35Z</time>
      </trkpt>
      <trkpt lat="50.06289" lon="4.20349">
        <ele>208</ele>
        <time>2024-04-26T15:17:36Z</time>
      </trkpt>
      <trkpt lat="50.06289" lon="4.2036">
        <ele>208</ele>
        <time>2024-04-26T15:17:37Z</time>
      </trkpt>
      <trkpt lat="50.06289" lon="4.2037">
        <ele>208.2</ele>
        <time>2024-04-26T15:17:38Z</time>
      </trkpt>
      <trkpt lat="50.06288" lon="4.20381">
        <ele>208.2</ele>
        <time>2024-04-26T15:17:39Z</time>
      </trkpt>
      <trkpt lat="50.06287" lon="4.20391">
        <ele>208.2</ele>
        <time>2024-04-26T15:17:40Z</time>
      </trkpt>
      <trkpt lat="50.06285" lon="4.204">
        <ele>208.2</ele>
        <time>2024-04-26T15:17:41Z</time>
      </trkpt>
      <trkpt lat="50.06281" lon="4.20408">
        <ele>208.2</ele>
        <time>2024-04-26T15:17:42Z</time>
      </trkpt>
      <trkpt lat="50.06275" lon="4.20414">
        <ele>208.2</ele>
        <time>2024-04-26T15:17:43Z</time>
      </trkpt>
      <trkpt lat="50.06268" lon="4.20419">
        <ele>208.2</ele>
        <time>2024-04-26T15:17:44Z</time>
      </trkpt>
      <trkpt lat="50.06262" lon="4.20423">
        <ele>208.2</ele>
        <time>2024-04-26T15:17:45Z</time>
      </trkpt>
      <trkpt lat="50.06254" lon="4.20427">
        <ele>208.4</ele>
        <time>2024-04-26T15:17:46Z</time>
      </trkpt>
      <trkpt lat="50.06247" lon="4.20431">
        <ele>208.4</ele>
        <time>2024-04-26T15:17:47Z</time>
      </trkpt>
      <trkpt lat="50.0624" lon="4.20435">
        <ele>208.2</ele>
        <time>2024-04-26T15:17:48Z</time>
      </trkpt>
      <trkpt lat="50.06232" lon="4.20439">
        <ele>208.4</ele>
        <time>2024-04-26T15:17:49Z</time>
      </trkpt>
      <trkpt lat="50.06225" lon="4.20443">
        <ele>208.4</ele>
        <time>2024-04-26T15:17:50Z</time>
      </trkpt>
      <trkpt lat="50.06217" lon="4.20447">
        <ele>208.2</ele>
        <time>2024-04-26T15:17:51Z</time>
      </trkpt>
      <trkpt lat="50.06209" lon="4.20451">
        <ele>208.2</ele>
        <time>2024-04-26T15:17:52Z</time>
      </trkpt>
      <trkpt lat="50.06201" lon="4.20455">
        <ele>208</ele>
        <time>2024-04-26T15:17:53Z</time>
      </trkpt>
      <trkpt lat="50.06194" lon="4.2046">
        <ele>207.8</ele>
        <time>2024-04-26T15:17:54Z</time>
      </trkpt>
      <trkpt lat="50.06186" lon="4.20464">
        <ele>207.4</ele>
        <time>2024-04-26T15:17:55Z</time>
      </trkpt>
      <trkpt lat="50.06179" lon="4.20468">
        <ele>206.6</ele>
        <time>2024-04-26T15:17:56Z</time>
      </trkpt>
      <trkpt lat="50.06171" lon="4.20472">
        <ele>206.2</ele>
        <time>2024-04-26T15:17:57Z</time>
      </trkpt>
      <trkpt lat="50.06164" lon="4.20476">
        <ele>206</ele>
        <time>2024-04-26T15:17:58Z</time>
      </trkpt>
      <trkpt lat="50.06157" lon="4.2048">
        <ele>205.8</ele>
        <time>2024-04-26T15:17:59Z</time>
      </trkpt>
      <trkpt lat="50.0615" lon="4.20484">
        <ele>205.8</ele>
        <time>2024-04-26T15:18:00Z</time>
      </trkpt>
      <trkpt lat="50.06143" lon="4.20488">
        <ele>205.8</ele>
        <time>2024-04-26T15:18:01Z</time>
      </trkpt>
      <trkpt lat="50.06137" lon="4.20491">
        <ele>205.8</ele>
        <time>2024-04-26T15:18:02Z</time>
      </trkpt>
      <trkpt lat="50.0613" lon="4.20495">
        <ele>205.8</ele>
        <time>2024-04-26T15:18:03Z</time>
      </trkpt>
      <trkpt lat="50.06124" lon="4.20499">
        <ele>205.8</ele>
        <time>2024-04-26T15:18:04Z</time>
      </trkpt>
      <trkpt lat="50.06117" lon="4.20503">
        <ele>205.6</ele>
        <time>2024-04-26T15:18:05Z</time>
      </trkpt>
      <trkpt lat="50.06111" lon="4.20506">
        <ele>205.6</ele>
        <time>2024-04-26T15:18:06Z</time>
      </trkpt>
      <trkpt lat="50.06105" lon="4.2051">
        <ele>205.8</ele>
        <time>2024-04-26T15:18:07Z</time>
      </trkpt>
      <trkpt lat="50.06099" lon="4.20514">
        <ele>205.8</ele>
        <time>2024-04-26T15:18:08Z</time>
      </trkpt>
      <trkpt lat="50.06092" lon="4.20517">
        <ele>205.8</ele>
        <time>2024-04-26T15:18:09Z</time>
      </trkpt>
      <trkpt lat="50.06086" lon="4.20521">
        <ele>206</ele>
        <time>2024-04-26T15:18:10Z</time>
      </trkpt>
      <trkpt lat="50.0608" lon="4.20524">
        <ele>206.2</ele>
        <time>2024-04-26T15:18:11Z</time>
      </trkpt>
      <trkpt lat="50.06074" lon="4.20528">
        <ele>206.2</ele>
        <time>2024-04-26T15:18:12Z</time>
      </trkpt>
      <trkpt lat="50.06069" lon="4.20531">
        <ele>206</ele>
        <time>2024-04-26T15:18:13Z</time>
      </trkpt>
      <trkpt lat="50.06063" lon="4.20534">
        <ele>206.2</ele>
        <time>2024-04-26T15:18:14Z</time>
      </trkpt>
      <trkpt lat="50.06058" lon="4.20537">
        <ele>206.2</ele>
        <time>2024-04-26T15:18:15Z</time>
      </trkpt>
      <trkpt lat="50.06053" lon="4.2054">
        <ele>206.4</ele>
        <time>2024-04-26T15:18:16Z</time>
      </trkpt>
      <trkpt lat="50.06048" lon="4.20543">
        <ele>206.8</ele>
        <time>2024-04-26T15:18:17Z</time>
      </trkpt>
      <trkpt lat="50.06043" lon="4.20546">
        <ele>206.8</ele>
        <time>2024-04-26T15:18:18Z</time>
      </trkpt>
      <trkpt lat="50.06038" lon="4.20549">
        <ele>207.2</ele>
        <time>2024-04-26T15:18:19Z</time>
      </trkpt>
      <trkpt lat="50.06033" lon="4.20552">
        <ele>207.4</ele>
        <time>2024-04-26T15:18:20Z</time>
      </trkpt>
      <trkpt lat="50.06028" lon="4.20554">
        <ele>207.6</ele>
        <time>2024-04-26T15:18:21Z</time>
      </trkpt>
      <trkpt lat="50.06024" lon="4.20557">
        <ele>208</ele>
        <time>2024-04-26T15:18:22Z</time>
      </trkpt>
      <trkpt lat="50.06019" lon="4.2056">
        <ele>208.4</ele>
        <time>2024-04-26T15:18:23Z</time>
      </trkpt>
      <trkpt lat="50.06014" lon="4.20562">
        <ele>208.4</ele>
        <time>2024-04-26T15:18:24Z</time>
      </trkpt>
      <trkpt lat="50.0601" lon="4.20565">
        <ele>208.8</ele>
        <time>2024-04-26T15:18:25Z</time>
      </trkpt>
      <trkpt lat="50.06005" lon="4.20568">
        <ele>209.4</ele>
        <time>2024-04-26T15:18:26Z</time>
      </trkpt>
      <trkpt lat="50.06" lon="4.2057">
        <ele>209.8</ele>
        <time>2024-04-26T15:18:27Z</time>
      </trkpt>
      <trkpt lat="50.05996" lon="4.20573">
        <ele>210.2</ele>
        <time>2024-04-26T15:18:28Z</time>
      </trkpt>
      <trkpt lat="50.05991" lon="4.20575">
        <ele>210.8</ele>
        <time>2024-04-26T15:18:29Z</time>
      </trkpt>
      <trkpt lat="50.05987" lon="4.20578">
        <ele>211.2</ele>
        <time>2024-04-26T15:18:30Z</time>
      </trkpt>
      <trkpt lat="50.05983" lon="4.2058">
        <ele>211.6</ele>
        <time>2024-04-26T15:18:31Z</time>
      </trkpt>
      <trkpt lat="50.05978" lon="4.20582">
        <ele>211.8</ele>
        <time>2024-04-26T15:18:32Z</time>
      </trkpt>
      <trkpt lat="50.05974" lon="4.20585">
        <ele>212.2</ele>
        <time>2024-04-26T15:18:33Z</time>
      </trkpt>
      <trkpt lat="50.05969" lon="4.20587">
        <ele>212.6</ele>
        <time>2024-04-26T15:18:34Z</time>
      </trkpt>
      <trkpt lat="50.05965" lon="4.2059">
        <ele>213.2</ele>
        <time>2024-04-26T15:18:35Z</time>
      </trkpt>
      <trkpt lat="50.0596" lon="4.20592">
        <ele>213.6</ele>
        <time>2024-04-26T15:18:36Z</time>
      </trkpt>
      <trkpt lat="50.05956" lon="4.20595">
        <ele>213.8</ele>
        <time>2024-04-26T15:18:37Z</time>
      </trkpt>
      <trkpt lat="50.05951" lon="4.20598">
        <ele>214</ele>
        <time>2024-04-26T15:18:38Z</time>
      </trkpt>
      <trkpt lat="50.05947" lon="4.206">
        <ele>214.4</ele>
        <time>2024-04-26T15:18:39Z</time>
      </trkpt>
      <trkpt lat="50.05943" lon="4.20603">
        <ele>214.6</ele>
        <time>2024-04-26T15:18:40Z</time>
      </trkpt>
      <trkpt lat="50.05938" lon="4.20605">
        <ele>215</ele>
        <time>2024-04-26T15:18:41Z</time>
      </trkpt>
      <trkpt lat="50.05934" lon="4.20608">
        <ele>215</ele>
        <time>2024-04-26T15:18:42Z</time>
      </trkpt>
      <trkpt lat="50.05929" lon="4.20611">
        <ele>215.4</ele>
        <time>2024-04-26T15:18:43Z</time>
      </trkpt>
      <trkpt lat="50.05925" lon="4.20613">
        <ele>215.6</ele>
        <time>2024-04-26T15:18:44Z</time>
      </trkpt>
      <trkpt lat="50.0592" lon="4.20616">
        <ele>216.2</ele>
        <time>2024-04-26T15:18:45Z</time>
      </trkpt>
      <trkpt lat="50.05916" lon="4.20618">
        <ele>216.2</ele>
        <time>2024-04-26T15:18:46Z</time>
      </trkpt>
      <trkpt lat="50.05912" lon="4.20621">
        <ele>217.2</ele>
        <time>2024-04-26T15:18:47Z</time>
      </trkpt>
      <trkpt lat="50.05907" lon="4.20624">
        <ele>217.8</ele>
        <time>2024-04-26T15:18:48Z</time>
      </trkpt>
      <trkpt lat="50.05903" lon="4.20627">
        <ele>218.4</ele>
        <time>2024-04-26T15:18:49Z</time>
      </trkpt>
      <trkpt lat="50.05899" lon="4.2063">
        <ele>218.8</ele>
        <time>2024-04-26T15:18:50Z</time>
      </trkpt>
      <trkpt lat="50.05895" lon="4.20633">
        <ele>219.2</ele>
        <time>2024-04-26T15:18:51Z</time>
      </trkpt>
      <trkpt lat="50.0589" lon="4.20636">
        <ele>219.6</ele>
        <time>2024-04-26T15:18:52Z</time>
      </trkpt>
      <trkpt lat="50.05885" lon="4.20639">
        <ele>220</ele>
        <time>2024-04-26T15:18:53Z</time>
      </trkpt>
      <trkpt lat="50.05881" lon="4.20642">
        <ele>220.4</ele>
        <time>2024-04-26T15:18:54Z</time>
      </trkpt>
      <trkpt lat="50.05876" lon="4.20646">
        <ele>220.6</ele>
        <time>2024-04-26T15:18:55Z</time>
      </trkpt>
      <trkpt lat="50.05872" lon="4.20649">
        <ele>220.6</ele>
        <time>2024-04-26T15:18:56Z</time>
      </trkpt>
      <trkpt lat="50.05868" lon="4.20653">
        <ele>221</ele>
        <time>2024-04-26T15:18:57Z</time>
      </trkpt>
      <trkpt lat="50.05863" lon="4.20656">
        <ele>221</ele>
        <time>2024-04-26T15:18:58Z</time>
      </trkpt>
      <trkpt lat="50.05859" lon="4.2066">
        <ele>221.2</ele>
        <time>2024-04-26T15:18:59Z</time>
      </trkpt>
      <trkpt lat="50.05855" lon="4.20663">
        <ele>221.4</ele>
        <time>2024-04-26T15:19:00Z</time>
      </trkpt>
      <trkpt lat="50.05851" lon="4.20666">
        <ele>221.4</ele>
        <time>2024-04-26T15:19:01Z</time>
      </trkpt>
      <trkpt lat="50.05847" lon="4.2067">
        <ele>222.2</ele>
        <time>2024-04-26T15:19:02Z</time>
      </trkpt>
      <trkpt lat="50.05843" lon="4.20674">
        <ele>222.4</ele>
        <time>2024-04-26T15:19:03Z</time>
      </trkpt>
      <trkpt lat="50.05838" lon="4.20677">
        <ele>222.8</ele>
        <time>2024-04-26T15:19:04Z</time>
      </trkpt>
      <trkpt lat="50.05834" lon="4.20681">
        <ele>223</ele>
        <time>2024-04-26T15:19:05Z</time>
      </trkpt>
      <trkpt lat="50.05829" lon="4.20685">
        <ele>223.2</ele>
        <time>2024-04-26T15:19:06Z</time>
      </trkpt>
      <trkpt lat="50.05823" lon="4.20689">
        <ele>223.2</ele>
        <time>2024-04-26T15:19:07Z</time>
      </trkpt>
      <trkpt lat="50.05818" lon="4.20693">
        <ele>223.2</ele>
        <time>2024-04-26T15:19:08Z</time>
      </trkpt>
      <trkpt lat="50.05813" lon="4.20697">
        <ele>223.6</ele>
        <time>2024-04-26T15:19:09Z</time>
      </trkpt>
      <trkpt lat="50.05808" lon="4.20701">
        <ele>224</ele>
        <time>2024-04-26T15:19:10Z</time>
      </trkpt>
      <trkpt lat="50.05803" lon="4.20705">
        <ele>224.6</ele>
        <time>2024-04-26T15:19:11Z</time>
      </trkpt>
      <trkpt lat="50.05798" lon="4.20709">
        <ele>225.2</ele>
        <time>2024-04-26T15:19:12Z</time>
      </trkpt>
      <trkpt lat="50.05793" lon="4.20713">
        <ele>225.4</ele>
        <time>2024-04-26T15:19:13Z</time>
      </trkpt>
      <trkpt lat="50.05787" lon="4.20718">
        <ele>225.8</ele>
        <time>2024-04-26T15:19:14Z</time>
      </trkpt>
      <trkpt lat="50.05781" lon="4.20722">
        <ele>225.6</ele>
        <time>2024-04-26T15:19:15Z</time>
      </trkpt>
      <trkpt lat="50.05775" lon="4.20727">
        <ele>225.8</ele>
        <time>2024-04-26T15:19:16Z</time>
      </trkpt>
      <trkpt lat="50.05769" lon="4.20732">
        <ele>225.6</ele>
        <time>2024-04-26T15:19:17Z</time>
      </trkpt>
      <trkpt lat="50.05763" lon="4.20737">
        <ele>225.6</ele>
        <time>2024-04-26T15:19:18Z</time>
      </trkpt>
      <trkpt lat="50.05756" lon="4.20742">
        <ele>225.8</ele>
        <time>2024-04-26T15:19:19Z</time>
      </trkpt>
      <trkpt lat="50.0575" lon="4.20747">
        <ele>225.8</ele>
        <time>2024-04-26T15:19:20Z</time>
      </trkpt>
      <trkpt lat="50.05743" lon="4.20753">
        <ele>225.6</ele>
        <time>2024-04-26T15:19:21Z</time>
      </trkpt>
      <trkpt lat="50.05736" lon="4.20759">
        <ele>225.4</ele>
        <time>2024-04-26T15:19:22Z</time>
      </trkpt>
      <trkpt lat="50.05728" lon="4.20765">
        <ele>225.2</ele>
        <time>2024-04-26T15:19:23Z</time>
      </trkpt>
      <trkpt lat="50.0572" lon="4.20771">
        <ele>224.8</ele>
        <time>2024-04-26T15:19:24Z</time>
      </trkpt>
      <trkpt lat="50.05712" lon="4.20777">
        <ele>224.4</ele>
        <time>2024-04-26T15:19:25Z</time>
      </trkpt>
      <trkpt lat="50.05705" lon="4.20784">
        <ele>224.2</ele>
        <time>2024-04-26T15:19:26Z</time>
      </trkpt>
      <trkpt lat="50.05696" lon="4.2079">
        <ele>223.8</ele>
        <time>2024-04-26T15:19:27Z</time>
      </trkpt>
      <trkpt lat="50.05688" lon="4.20797">
        <ele>222.8</ele>
        <time>2024-04-26T15:19:28Z</time>
      </trkpt>
      <trkpt lat="50.0568" lon="4.20803">
        <ele>222.8</ele>
        <time>2024-04-26T15:19:29Z</time>
      </trkpt>
      <trkpt lat="50.05673" lon="4.20809">
        <ele>222.6</ele>
        <time>2024-04-26T15:19:30Z</time>
      </trkpt>
      <trkpt lat="50.05665" lon="4.20815">
        <ele>221.6</ele>
        <time>2024-04-26T15:19:31Z</time>
      </trkpt>
      <trkpt lat="50.05658" lon="4.2082">
        <ele>220.8</ele>
        <time>2024-04-26T15:19:32Z</time>
      </trkpt>
      <trkpt lat="50.05652" lon="4.20826">
        <ele>220</ele>
        <time>2024-04-26T15:19:33Z</time>
      </trkpt>
      <trkpt lat="50.05646" lon="4.20831">
        <ele>219.8</ele>
        <time>2024-04-26T15:19:34Z</time>
      </trkpt>
      <trkpt lat="50.0564" lon="4.20835">
        <ele>219.4</ele>
        <time>2024-04-26T15:19:35Z</time>
      </trkpt>
      <trkpt lat="50.05634" lon="4.2084">
        <ele>219.4</ele>
        <time>2024-04-26T15:19:36Z</time>
      </trkpt>
      <trkpt lat="50.05628" lon="4.20845">
        <ele>219.2</ele>
        <time>2024-04-26T15:19:37Z</time>
      </trkpt>
      <trkpt lat="50.05622" lon="4.2085">
        <ele>219.2</ele>
        <time>2024-04-26T15:19:38Z</time>
      </trkpt>
      <trkpt lat="50.05617" lon="4.20854">
        <ele>219</ele>
        <time>2024-04-26T15:19:39Z</time>
      </trkpt>
      <trkpt lat="50.05611" lon="4.20859">
        <ele>219.2</ele>
        <time>2024-04-26T15:19:40Z</time>
      </trkpt>
      <trkpt lat="50.05606" lon="4.20863">
        <ele>219</ele>
        <time>2024-04-26T15:19:41Z</time>
      </trkpt>
      <trkpt lat="50.05601" lon="4.20867">
        <ele>219.2</ele>
        <time>2024-04-26T15:19:42Z</time>
      </trkpt>
      <trkpt lat="50.05595" lon="4.20872">
        <ele>219.2</ele>
        <time>2024-04-26T15:19:43Z</time>
      </trkpt>
      <trkpt lat="50.0559" lon="4.20876">
        <ele>219.2</ele>
        <time>2024-04-26T15:19:44Z</time>
      </trkpt>
      <trkpt lat="50.05585" lon="4.2088">
        <ele>219.4</ele>
        <time>2024-04-26T15:19:45Z</time>
      </trkpt>
      <trkpt lat="50.0558" lon="4.20884">
        <ele>219.8</ele>
        <time>2024-04-26T15:19:46Z</time>
      </trkpt>
      <trkpt lat="50.05574" lon="4.20888">
        <ele>220</ele>
        <time>2024-04-26T15:19:47Z</time>
      </trkpt>
      <trkpt lat="50.05569" lon="4.20893">
        <ele>220.2</ele>
        <time>2024-04-26T15:19:48Z</time>
      </trkpt>
      <trkpt lat="50.05564" lon="4.20897">
        <ele>220.6</ele>
        <time>2024-04-26T15:19:49Z</time>
      </trkpt>
      <trkpt lat="50.05559" lon="4.20901">
        <ele>221</ele>
        <time>2024-04-26T15:19:50Z</time>
      </trkpt>
      <trkpt lat="50.05554" lon="4.20905">
        <ele>221</ele>
        <time>2024-04-26T15:19:51Z</time>
      </trkpt>
      <trkpt lat="50.05549" lon="4.20909">
        <ele>221.4</ele>
        <time>2024-04-26T15:19:52Z</time>
      </trkpt>
      <trkpt lat="50.05543" lon="4.20913">
        <ele>221.6</ele>
        <time>2024-04-26T15:19:53Z</time>
      </trkpt>
      <trkpt lat="50.05538" lon="4.20917">
        <ele>221.8</ele>
        <time>2024-04-26T15:19:54Z</time>
      </trkpt>
      <trkpt lat="50.05533" lon="4.20921">
        <ele>222.2</ele>
        <time>2024-04-26T15:19:55Z</time>
      </trkpt>
      <trkpt lat="50.05528" lon="4.20925">
        <ele>222.4</ele>
        <time>2024-04-26T15:19:56Z</time>
      </trkpt>
      <trkpt lat="50.05523" lon="4.20929">
        <ele>222.8</ele>
        <time>2024-04-26T15:19:57Z</time>
      </trkpt>
      <trkpt lat="50.05518" lon="4.20933">
        <ele>223</ele>
        <time>2024-04-26T15:19:58Z</time>
      </trkpt>
      <trkpt lat="50.05513" lon="4.20937">
        <ele>223</ele>
        <time>2024-04-26T15:19:59Z</time>
      </trkpt>
      <trkpt lat="50.05508" lon="4.20941">
        <ele>223.4</ele>
        <time>2024-04-26T15:20:00Z</time>
      </trkpt>
      <trkpt lat="50.05503" lon="4.20945">
        <ele>223.8</ele>
        <time>2024-04-26T15:20:01Z</time>
      </trkpt>
      <trkpt lat="50.05498" lon="4.20949">
        <ele>224</ele>
        <time>2024-04-26T15:20:02Z</time>
      </trkpt>
      <trkpt lat="50.05493" lon="4.20953">
        <ele>224.4</ele>
        <time>2024-04-26T15:20:03Z</time>
      </trkpt>
      <trkpt lat="50.05487" lon="4.20957">
        <ele>224.4</ele>
        <time>2024-04-26T15:20:04Z</time>
      </trkpt>
      <trkpt lat="50.05482" lon="4.20961">
        <ele>224.6</ele>
        <time>2024-04-26T15:20:05Z</time>
      </trkpt>
      <trkpt lat="50.05477" lon="4.20965">
        <ele>224.6</ele>
        <time>2024-04-26T15:20:06Z</time>
      </trkpt>
      <trkpt lat="50.05472" lon="4.20968">
        <ele>224.6</ele>
        <time>2024-04-26T15:20:07Z</time>
      </trkpt>
      <trkpt lat="50.05467" lon="4.20972">
        <ele>224.6</ele>
        <time>2024-04-26T15:20:08Z</time>
      </trkpt>
      <trkpt lat="50.05462" lon="4.20977">
        <ele>224.6</ele>
        <time>2024-04-26T15:20:09Z</time>
      </trkpt>
      <trkpt lat="50.05457" lon="4.20981">
        <ele>224.8</ele>
        <time>2024-04-26T15:20:10Z</time>
      </trkpt>
      <trkpt lat="50.05452" lon="4.20986">
        <ele>224.6</ele>
        <time>2024-04-26T15:20:11Z</time>
      </trkpt>
      <trkpt lat="50.05446" lon="4.20989">
        <ele>224.8</ele>
        <time>2024-04-26T15:20:12Z</time>
      </trkpt>
      <trkpt lat="50.0544" lon="4.20992">
        <ele>224.8</ele>
        <time>2024-04-26T15:20:13Z</time>
      </trkpt>
      <trkpt lat="50.05433" lon="4.20994">
        <ele>224.8</ele>
        <time>2024-04-26T15:20:14Z</time>
      </trkpt>
      <trkpt lat="50.05427" lon="4.20994">
        <ele>224.8</ele>
        <time>2024-04-26T15:20:15Z</time>
      </trkpt>
      <trkpt lat="50.0542" lon="4.20993">
        <ele>224.4</ele>
        <time>2024-04-26T15:20:16Z</time>
      </trkpt>
      <trkpt lat="50.05413" lon="4.20993">
        <ele>224.2</ele>
        <time>2024-04-26T15:20:17Z</time>
      </trkpt>
      <trkpt lat="50.05405" lon="4.20992">
        <ele>224.2</ele>
        <time>2024-04-26T15:20:18Z</time>
      </trkpt>
      <trkpt lat="50.05398" lon="4.20992">
        <ele>223.4</ele>
        <time>2024-04-26T15:20:19Z</time>
      </trkpt>
      <trkpt lat="50.05391" lon="4.20992">
        <ele>223.4</ele>
        <time>2024-04-26T15:20:20Z</time>
      </trkpt>
      <trkpt lat="50.05383" lon="4.20991">
        <ele>223.2</ele>
        <time>2024-04-26T15:20:21Z</time>
      </trkpt>
      <trkpt lat="50.05376" lon="4.20991">
        <ele>223</ele>
        <time>2024-04-26T15:20:22Z</time>
      </trkpt>
      <trkpt lat="50.05368" lon="4.2099">
        <ele>222.8</ele>
        <time>2024-04-26T15:20:23Z</time>
      </trkpt>
      <trkpt lat="50.05361" lon="4.2099">
        <ele>223</ele>
        <time>2024-04-26T15:20:24Z</time>
      </trkpt>
      <trkpt lat="50.05353" lon="4.2099">
        <ele>222.8</ele>
        <time>2024-04-26T15:20:25Z</time>
      </trkpt>
      <trkpt lat="50.05346" lon="4.2099">
        <ele>222.6</ele>
        <time>2024-04-26T15:20:26Z</time>
      </trkpt>
      <trkpt lat="50.05338" lon="4.20991">
        <ele>222.2</ele>
        <time>2024-04-26T15:20:27Z</time>
      </trkpt>
      <trkpt lat="50.0533" lon="4.20992">
        <ele>221.8</ele>
        <time>2024-04-26T15:20:28Z</time>
      </trkpt>
      <trkpt lat="50.05323" lon="4.20993">
        <ele>221.4</ele>
        <time>2024-04-26T15:20:29Z</time>
      </trkpt>
      <trkpt lat="50.05315" lon="4.20993">
        <ele>221.2</ele>
        <time>2024-04-26T15:20:30Z</time>
      </trkpt>
      <trkpt lat="50.05308" lon="4.20994">
        <ele>220.8</ele>
        <time>2024-04-26T15:20:31Z</time>
      </trkpt>
      <trkpt lat="50.05301" lon="4.20995">
        <ele>220.6</ele>
        <time>2024-04-26T15:20:32Z</time>
      </trkpt>
      <trkpt lat="50.05295" lon="4.20996">
        <ele>220.2</ele>
        <time>2024-04-26T15:20:33Z</time>
      </trkpt>
      <trkpt lat="50.05288" lon="4.20996">
        <ele>219.6</ele>
        <time>2024-04-26T15:20:34Z</time>
      </trkpt>
      <trkpt lat="50.05281" lon="4.20997">
        <ele>219.6</ele>
        <time>2024-04-26T15:20:35Z</time>
      </trkpt>
      <trkpt lat="50.05275" lon="4.20997">
        <ele>219.4</ele>
        <time>2024-04-26T15:20:36Z</time>
      </trkpt>
      <trkpt lat="50.05269" lon="4.20998">
        <ele>219.2</ele>
        <time>2024-04-26T15:20:37Z</time>
      </trkpt>
      <trkpt lat="50.05263" lon="4.20998">
        <ele>219.2</ele>
        <time>2024-04-26T15:20:38Z</time>
      </trkpt>
      <trkpt lat="50.05257" lon="4.20998">
        <ele>219.2</ele>
        <time>2024-04-26T15:20:39Z</time>
      </trkpt>
      <trkpt lat="50.05251" lon="4.20998">
        <ele>219</ele>
        <time>2024-04-26T15:20:40Z</time>
      </trkpt>
      <trkpt lat="50.05245" lon="4.20998">
        <ele>219</ele>
        <time>2024-04-26T15:20:41Z</time>
      </trkpt>
      <trkpt lat="50.05239" lon="4.20999">
        <ele>218.8</ele>
        <time>2024-04-26T15:20:42Z</time>
      </trkpt>
      <trkpt lat="50.05234" lon="4.21">
        <ele>218.8</ele>
        <time>2024-04-26T15:20:43Z</time>
      </trkpt>
      <trkpt lat="50.05229" lon="4.21001">
        <ele>218.8</ele>
        <time>2024-04-26T15:20:44Z</time>
      </trkpt>
      <trkpt lat="50.05224" lon="4.21003">
        <ele>218.8</ele>
        <time>2024-04-26T15:20:45Z</time>
      </trkpt>
      <trkpt lat="50.05219" lon="4.21004">
        <ele>218.8</ele>
        <time>2024-04-26T15:20:46Z</time>
      </trkpt>
      <trkpt lat="50.05213" lon="4.21005">
        <ele>218.6</ele>
        <time>2024-04-26T15:20:47Z</time>
      </trkpt>
      <trkpt lat="50.05207" lon="4.21005">
        <ele>218.8</ele>
        <time>2024-04-26T15:20:48Z</time>
      </trkpt>
      <trkpt lat="50.052" lon="4.21005">
        <ele>218.6</ele>
        <time>2024-04-26T15:20:49Z</time>
      </trkpt>
      <trkpt lat="50.05193" lon="4.21006">
        <ele>218.6</ele>
        <time>2024-04-26T15:20:50Z</time>
      </trkpt>
      <trkpt lat="50.05185" lon="4.21006">
        <ele>218.6</ele>
        <time>2024-04-26T15:20:51Z</time>
      </trkpt>
      <trkpt lat="50.05177" lon="4.21006">
        <ele>218.8</ele>
        <time>2024-04-26T15:20:52Z</time>
      </trkpt>
      <trkpt lat="50.05168" lon="4.21003">
        <ele>218.4</ele>
        <time>2024-04-26T15:20:53Z</time>
      </trkpt>
      <trkpt lat="50.0516" lon="4.20999">
        <ele>218.4</ele>
        <time>2024-04-26T15:20:54Z</time>
      </trkpt>
      <trkpt lat="50.05152" lon="4.20993">
        <ele>218.4</ele>
        <time>2024-04-26T15:20:55Z</time>
      </trkpt>
      <trkpt lat="50.05144" lon="4.20987">
        <ele>218.4</ele>
        <time>2024-04-26T15:20:56Z</time>
      </trkpt>
      <trkpt lat="50.05135" lon="4.20979">
        <ele>218.4</ele>
        <time>2024-04-26T15:20:57Z</time>
      </trkpt>
      <trkpt lat="50.05127" lon="4.20971">
        <ele>218.4</ele>
        <time>2024-04-26T15:20:58Z</time>
      </trkpt>
      <trkpt lat="50.05119" lon="4.20962">
        <ele>218.4</ele>
        <time>2024-04-26T15:20:59Z</time>
      </trkpt>
      <trkpt lat="50.05112" lon="4.20954">
        <ele>218.2</ele>
        <time>2024-04-26T15:21:00Z</time>
      </trkpt>
      <trkpt lat="50.05104" lon="4.20945">
        <ele>217.6</ele>
        <time>2024-04-26T15:21:01Z</time>
      </trkpt>
      <trkpt lat="50.05097" lon="4.20935">
        <ele>216.4</ele>
        <time>2024-04-26T15:21:02Z</time>
      </trkpt>
      <trkpt lat="50.0509" lon="4.20926">
        <ele>215.8</ele>
        <time>2024-04-26T15:21:03Z</time>
      </trkpt>
      <trkpt lat="50.05085" lon="4.20917">
        <ele>215.2</ele>
        <time>2024-04-26T15:21:04Z</time>
      </trkpt>
      <trkpt lat="50.05081" lon="4.20909">
        <ele>214.6</ele>
        <time>2024-04-26T15:21:05Z</time>
      </trkpt>
      <trkpt lat="50.05078" lon="4.20902">
        <ele>214.4</ele>
        <time>2024-04-26T15:21:06Z</time>
      </trkpt>
      <trkpt lat="50.05073" lon="4.20897">
        <ele>214.2</ele>
        <time>2024-04-26T15:21:07Z</time>
      </trkpt>
      <trkpt lat="50.05068" lon="4.20896">
        <ele>214.2</ele>
        <time>2024-04-26T15:21:08Z</time>
      </trkpt>
      <trkpt lat="50.05062" lon="4.20896">
        <ele>214</ele>
        <time>2024-04-26T15:21:09Z</time>
      </trkpt>
      <trkpt lat="50.05056" lon="4.20895">
        <ele>213.8</ele>
        <time>2024-04-26T15:21:10Z</time>
      </trkpt>
      <trkpt lat="50.0505" lon="4.20892">
        <ele>213.8</ele>
        <time>2024-04-26T15:21:11Z</time>
      </trkpt>
      <trkpt lat="50.05044" lon="4.20887">
        <ele>213.8</ele>
        <time>2024-04-26T15:21:12Z</time>
      </trkpt>
      <trkpt lat="50.05039" lon="4.20883">
        <ele>213.8</ele>
        <time>2024-04-26T15:21:13Z</time>
      </trkpt>
      <trkpt lat="50.05033" lon="4.20879">
        <ele>213.8</ele>
        <time>2024-04-26T15:21:14Z</time>
      </trkpt>
      <trkpt lat="50.05027" lon="4.20875">
        <ele>213.8</ele>
        <time>2024-04-26T15:21:15Z</time>
      </trkpt>
      <trkpt lat="50.05022" lon="4.20871">
        <ele>213.8</ele>
        <time>2024-04-26T15:21:16Z</time>
      </trkpt>
      <trkpt lat="50.05017" lon="4.20867">
        <ele>214</ele>
        <time>2024-04-26T15:21:17Z</time>
      </trkpt>
      <trkpt lat="50.05012" lon="4.20863">
        <ele>214</ele>
        <time>2024-04-26T15:21:18Z</time>
      </trkpt>
      <trkpt lat="50.05007" lon="4.20859">
        <ele>214</ele>
        <time>2024-04-26T15:21:19Z</time>
      </trkpt>
      <trkpt lat="50.05001" lon="4.20856">
        <ele>214.2</ele>
        <time>2024-04-26T15:21:20Z</time>
      </trkpt>
      <trkpt lat="50.04996" lon="4.20853">
        <ele>214.2</ele>
        <time>2024-04-26T15:21:21Z</time>
      </trkpt>
      <trkpt lat="50.04992" lon="4.2085">
        <ele>214</ele>
        <time>2024-04-26T15:21:22Z</time>
      </trkpt>
      <trkpt lat="50.04987" lon="4.20847">
        <ele>214.2</ele>
        <time>2024-04-26T15:21:23Z</time>
      </trkpt>
      <trkpt lat="50.04982" lon="4.20845">
        <ele>214.2</ele>
        <time>2024-04-26T15:21:24Z</time>
      </trkpt>
      <trkpt lat="50.04977" lon="4.20843">
        <ele>214.2</ele>
        <time>2024-04-26T15:21:25Z</time>
      </trkpt>
      <trkpt lat="50.04972" lon="4.20841">
        <ele>214.6</ele>
        <time>2024-04-26T15:21:26Z</time>
      </trkpt>
      <trkpt lat="50.04967" lon="4.2084">
        <ele>214.8</ele>
        <time>2024-04-26T15:21:27Z</time>
      </trkpt>
      <trkpt lat="50.04963" lon="4.2084">
        <ele>215</ele>
        <time>2024-04-26T15:21:28Z</time>
      </trkpt>
      <trkpt lat="50.04958" lon="4.2084">
        <ele>215.8</ele>
        <time>2024-04-26T15:21:29Z</time>
      </trkpt>
      <trkpt lat="50.04953" lon="4.2084">
        <ele>216</ele>
        <time>2024-04-26T15:21:30Z</time>
      </trkpt>
      <trkpt lat="50.04949" lon="4.20841">
        <ele>216.2</ele>
        <time>2024-04-26T15:21:31Z</time>
      </trkpt>
      <trkpt lat="50.04944" lon="4.20842">
        <ele>216.4</ele>
        <time>2024-04-26T15:21:32Z</time>
      </trkpt>
      <trkpt lat="50.0494" lon="4.20844">
        <ele>216.6</ele>
        <time>2024-04-26T15:21:33Z</time>
      </trkpt>
      <trkpt lat="50.04936" lon="4.20845">
        <ele>217.2</ele>
        <time>2024-04-26T15:21:34Z</time>
      </trkpt>
      <trkpt lat="50.04932" lon="4.20848">
        <ele>217.4</ele>
        <time>2024-04-26T15:21:35Z</time>
      </trkpt>
      <trkpt lat="50.04929" lon="4.20851">
        <ele>217.8</ele>
        <time>2024-04-26T15:21:36Z</time>
      </trkpt>
      <trkpt lat="50.04925" lon="4.20855">
        <ele>218.4</ele>
        <time>2024-04-26T15:21:37Z</time>
      </trkpt>
      <trkpt lat="50.04921" lon="4.20859">
        <ele>218.6</ele>
        <time>2024-04-26T15:21:38Z</time>
      </trkpt>
      <trkpt lat="50.04918" lon="4.20863">
        <ele>219</ele>
        <time>2024-04-26T15:21:39Z</time>
      </trkpt>
      <trkpt lat="50.04914" lon="4.20867">
        <ele>219.6</ele>
        <time>2024-04-26T15:21:40Z</time>
      </trkpt>
      <trkpt lat="50.04911" lon="4.20872">
        <ele>219.6</ele>
        <time>2024-04-26T15:21:41Z</time>
      </trkpt>
      <trkpt lat="50.04908" lon="4.20876">
        <ele>220</ele>
        <time>2024-04-26T15:21:42Z</time>
      </trkpt>
      <trkpt lat="50.04905" lon="4.20882">
        <ele>220.2</ele>
        <time>2024-04-26T15:21:43Z</time>
      </trkpt>
      <trkpt lat="50.04902" lon="4.20887">
        <ele>220.8</ele>
        <time>2024-04-26T15:21:44Z</time>
      </trkpt>
      <trkpt lat="50.04899" lon="4.20892">
        <ele>221.2</ele>
        <time>2024-04-26T15:21:45Z</time>
      </trkpt>
      <trkpt lat="50.04896" lon="4.20897">
        <ele>221.6</ele>
        <time>2024-04-26T15:21:46Z</time>
      </trkpt>
      <trkpt lat="50.04893" lon="4.20902">
        <ele>222.2</ele>
        <time>2024-04-26T15:21:47Z</time>
      </trkpt>
      <trkpt lat="50.0489" lon="4.20907">
        <ele>222.8</ele>
        <time>2024-04-26T15:21:48Z</time>
      </trkpt>
      <trkpt lat="50.04887" lon="4.20911">
        <ele>223</ele>
        <time>2024-04-26T15:21:49Z</time>
      </trkpt>
      <trkpt lat="50.04884" lon="4.20916">
        <ele>223.6</ele>
        <time>2024-04-26T15:21:50Z</time>
      </trkpt>
      <trkpt lat="50.04881" lon="4.20921">
        <ele>224.4</ele>
        <time>2024-04-26T15:21:51Z</time>
      </trkpt>
      <trkpt lat="50.04877" lon="4.20925">
        <ele>225</ele>
        <time>2024-04-26T15:21:52Z</time>
      </trkpt>
      <trkpt lat="50.04874" lon="4.2093">
        <ele>225.4</ele>
        <time>2024-04-26T15:21:53Z</time>
      </trkpt>
      <trkpt lat="50.0487" lon="4.20934">
        <ele>225.6</ele>
        <time>2024-04-26T15:21:54Z</time>
      </trkpt>
      <trkpt lat="50.04867" lon="4.20938">
        <ele>225.8</ele>
        <time>2024-04-26T15:21:55Z</time>
      </trkpt>
      <trkpt lat="50.04863" lon="4.20942">
        <ele>225.6</ele>
        <time>2024-04-26T15:21:56Z</time>
      </trkpt>
      <trkpt lat="50.04859" lon="4.20947">
        <ele>226</ele>
        <time>2024-04-26T15:21:57Z</time>
      </trkpt>
      <trkpt lat="50.04855" lon="4.20951">
        <ele>226.2</ele>
        <time>2024-04-26T15:21:58Z</time>
      </trkpt>
      <trkpt lat="50.04851" lon="4.20955">
        <ele>227</ele>
        <time>2024-04-26T15:21:59Z</time>
      </trkpt>
      <trkpt lat="50.04847" lon="4.2096">
        <ele>227.4</ele>
        <time>2024-04-26T15:22:00Z</time>
      </trkpt>
      <trkpt lat="50.04843" lon="4.20964">
        <ele>227.8</ele>
        <time>2024-04-26T15:22:01Z</time>
      </trkpt>
      <trkpt lat="50.04838" lon="4.20968">
        <ele>228</ele>
        <time>2024-04-26T15:22:02Z</time>
      </trkpt>
      <trkpt lat="50.04834" lon="4.20973">
        <ele>228</ele>
        <time>2024-04-26T15:22:03Z</time>
      </trkpt>
      <trkpt lat="50.04829" lon="4.20977">
        <ele>228.2</ele>
        <time>2024-04-26T15:22:04Z</time>
      </trkpt>
      <trkpt lat="50.04825" lon="4.20982">
        <ele>228.2</ele>
        <time>2024-04-26T15:22:05Z</time>
      </trkpt>
      <trkpt lat="50.0482" lon="4.20986">
        <ele>228.2</ele>
        <time>2024-04-26T15:22:06Z</time>
      </trkpt>
      <trkpt lat="50.04816" lon="4.20991">
        <ele>228.6</ele>
        <time>2024-04-26T15:22:07Z</time>
      </trkpt>
      <trkpt lat="50.04811" lon="4.20995">
        <ele>228.6</ele>
        <time>2024-04-26T15:22:08Z</time>
      </trkpt>
      <trkpt lat="50.04807" lon="4.21">
        <ele>229</ele>
        <time>2024-04-26T15:22:09Z</time>
      </trkpt>
      <trkpt lat="50.04802" lon="4.21004">
        <ele>229</ele>
        <time>2024-04-26T15:22:10Z</time>
      </trkpt>
      <trkpt lat="50.04797" lon="4.21008">
        <ele>229.2</ele>
        <time>2024-04-26T15:22:11Z</time>
      </trkpt>
      <trkpt lat="50.04792" lon="4.21012">
        <ele>229.4</ele>
        <time>2024-04-26T15:22:12Z</time>
      </trkpt>
      <trkpt lat="50.04786" lon="4.21017">
        <ele>229.4</ele>
        <time>2024-04-26T15:22:13Z</time>
      </trkpt>
      <trkpt lat="50.04781" lon="4.21021">
        <ele>229.8</ele>
        <time>2024-04-26T15:22:14Z</time>
      </trkpt>
      <trkpt lat="50.04775" lon="4.21025">
        <ele>230.2</ele>
        <time>2024-04-26T15:22:15Z</time>
      </trkpt>
      <trkpt lat="50.0477" lon="4.21029">
        <ele>230.4</ele>
        <time>2024-04-26T15:22:16Z</time>
      </trkpt>
      <trkpt lat="50.04764" lon="4.21033">
        <ele>230.4</ele>
        <time>2024-04-26T15:22:17Z</time>
      </trkpt>
      <trkpt lat="50.04758" lon="4.21036">
        <ele>230.6</ele>
        <time>2024-04-26T15:22:18Z</time>
      </trkpt>
      <trkpt lat="50.04752" lon="4.2104">
        <ele>230.8</ele>
        <time>2024-04-26T15:22:19Z</time>
      </trkpt>
      <trkpt lat="50.04746" lon="4.21043">
        <ele>230.6</ele>
        <time>2024-04-26T15:22:20Z</time>
      </trkpt>
      <trkpt lat="50.0474" lon="4.21046">
        <ele>230.6</ele>
        <time>2024-04-26T15:22:21Z</time>
      </trkpt>
      <trkpt lat="50.04734" lon="4.21049">
        <ele>230.6</ele>
        <time>2024-04-26T15:22:22Z</time>
      </trkpt>
      <trkpt lat="50.04728" lon="4.21052">
        <ele>230.8</ele>
        <time>2024-04-26T15:22:23Z</time>
      </trkpt>
      <trkpt lat="50.04722" lon="4.21054">
        <ele>230.6</ele>
        <time>2024-04-26T15:22:24Z</time>
      </trkpt>
      <trkpt lat="50.04716" lon="4.21056">
        <ele>230.6</ele>
        <time>2024-04-26T15:22:25Z</time>
      </trkpt>
      <trkpt lat="50.0471" lon="4.21059">
        <ele>230.8</ele>
        <time>2024-04-26T15:22:26Z</time>
      </trkpt>
      <trkpt lat="50.04705" lon="4.21061">
        <ele>231</ele>
        <time>2024-04-26T15:22:27Z</time>
      </trkpt>
      <trkpt lat="50.04699" lon="4.21064">
        <ele>231</ele>
        <time>2024-04-26T15:22:28Z</time>
      </trkpt>
      <trkpt lat="50.04693" lon="4.21066">
        <ele>231.2</ele>
        <time>2024-04-26T15:22:29Z</time>
      </trkpt>
      <trkpt lat="50.04687" lon="4.21068">
        <ele>231.2</ele>
        <time>2024-04-26T15:22:30Z</time>
      </trkpt>
      <trkpt lat="50.04681" lon="4.21071">
        <ele>231.4</ele>
        <time>2024-04-26T15:22:31Z</time>
      </trkpt>
      <trkpt lat="50.04676" lon="4.21073">
        <ele>231.2</ele>
        <time>2024-04-26T15:22:32Z</time>
      </trkpt>
      <trkpt lat="50.0467" lon="4.21076">
        <ele>231.4</ele>
        <time>2024-04-26T15:22:33Z</time>
      </trkpt>
      <trkpt lat="50.04664" lon="4.21078">
        <ele>231.4</ele>
        <time>2024-04-26T15:22:34Z</time>
      </trkpt>
      <trkpt lat="50.04658" lon="4.21081">
        <ele>231.4</ele>
        <time>2024-04-26T15:22:35Z</time>
      </trkpt>
      <trkpt lat="50.04652" lon="4.21084">
        <ele>231.8</ele>
        <time>2024-04-26T15:22:36Z</time>
      </trkpt>
      <trkpt lat="50.04647" lon="4.21087">
        <ele>232</ele>
        <time>2024-04-26T15:22:37Z</time>
      </trkpt>
      <trkpt lat="50.04641" lon="4.21089">
        <ele>232</ele>
        <time>2024-04-26T15:22:38Z</time>
      </trkpt>
      <trkpt lat="50.04635" lon="4.21091">
        <ele>232.4</ele>
        <time>2024-04-26T15:22:39Z</time>
      </trkpt>
      <trkpt lat="50.04628" lon="4.21094">
        <ele>232.6</ele>
        <time>2024-04-26T15:22:40Z</time>
      </trkpt>
      <trkpt lat="50.04622" lon="4.21097">
        <ele>232.8</ele>
        <time>2024-04-26T15:22:41Z</time>
      </trkpt>
      <trkpt lat="50.04616" lon="4.21099">
        <ele>233</ele>
        <time>2024-04-26T15:22:42Z</time>
      </trkpt>
      <trkpt lat="50.04609" lon="4.21102">
        <ele>233.2</ele>
        <time>2024-04-26T15:22:43Z</time>
      </trkpt>
      <trkpt lat="50.04602" lon="4.21105">
        <ele>233</ele>
        <time>2024-04-26T15:22:44Z</time>
      </trkpt>
      <trkpt lat="50.04596" lon="4.21108">
        <ele>233.2</ele>
        <time>2024-04-26T15:22:45Z</time>
      </trkpt>
      <trkpt lat="50.04589" lon="4.21111">
        <ele>233.2</ele>
        <time>2024-04-26T15:22:46Z</time>
      </trkpt>
      <trkpt lat="50.04583" lon="4.21114">
        <ele>233.4</ele>
        <time>2024-04-26T15:22:47Z</time>
      </trkpt>
      <trkpt lat="50.04576" lon="4.21118">
        <ele>233.4</ele>
        <time>2024-04-26T15:22:48Z</time>
      </trkpt>
      <trkpt lat="50.0457" lon="4.21121">
        <ele>233.4</ele>
        <time>2024-04-26T15:22:49Z</time>
      </trkpt>
      <trkpt lat="50.04563" lon="4.21125">
        <ele>233.6</ele>
        <time>2024-04-26T15:22:50Z</time>
      </trkpt>
      <trkpt lat="50.04557" lon="4.2113">
        <ele>233.6</ele>
        <time>2024-04-26T15:22:51Z</time>
      </trkpt>
      <trkpt lat="50.04551" lon="4.21135">
        <ele>233.6</ele>
        <time>2024-04-26T15:22:52Z</time>
      </trkpt>
      <trkpt lat="50.04545" lon="4.21139">
        <ele>233.6</ele>
        <time>2024-04-26T15:22:53Z</time>
      </trkpt>
      <trkpt lat="50.04539" lon="4.21144">
        <ele>233.6</ele>
        <time>2024-04-26T15:22:54Z</time>
      </trkpt>
      <trkpt lat="50.04533" lon="4.21149">
        <ele>233.6</ele>
        <time>2024-04-26T15:22:55Z</time>
      </trkpt>
      <trkpt lat="50.04527" lon="4.21155">
        <ele>233.6</ele>
        <time>2024-04-26T15:22:56Z</time>
      </trkpt>
      <trkpt lat="50.04522" lon="4.21161">
        <ele>233.8</ele>
        <time>2024-04-26T15:22:57Z</time>
      </trkpt>
      <trkpt lat="50.04516" lon="4.21167">
        <ele>233.8</ele>
        <time>2024-04-26T15:22:58Z</time>
      </trkpt>
      <trkpt lat="50.04511" lon="4.21173">
        <ele>233.8</ele>
        <time>2024-04-26T15:22:59Z</time>
      </trkpt>
      <trkpt lat="50.04506" lon="4.21179">
        <ele>233.8</ele>
        <time>2024-04-26T15:23:00Z</time>
      </trkpt>
      <trkpt lat="50.045" lon="4.21186">
        <ele>233.8</ele>
        <time>2024-04-26T15:23:01Z</time>
      </trkpt>
      <trkpt lat="50.04495" lon="4.21193">
        <ele>234</ele>
        <time>2024-04-26T15:23:02Z</time>
      </trkpt>
      <trkpt lat="50.0449" lon="4.21199">
        <ele>234</ele>
        <time>2024-04-26T15:23:03Z</time>
      </trkpt>
      <trkpt lat="50.04485" lon="4.21206">
        <ele>234</ele>
        <time>2024-04-26T15:23:04Z</time>
      </trkpt>
      <trkpt lat="50.04479" lon="4.21212">
        <ele>234</ele>
        <time>2024-04-26T15:23:05Z</time>
      </trkpt>
      <trkpt lat="50.04474" lon="4.21219">
        <ele>234</ele>
        <time>2024-04-26T15:23:06Z</time>
      </trkpt>
      <trkpt lat="50.0447" lon="4.21226">
        <ele>234</ele>
        <time>2024-04-26T15:23:07Z</time>
      </trkpt>
      <trkpt lat="50.04465" lon="4.21233">
        <ele>234.2</ele>
        <time>2024-04-26T15:23:08Z</time>
      </trkpt>
      <trkpt lat="50.04461" lon="4.2124">
        <ele>234.2</ele>
        <time>2024-04-26T15:23:09Z</time>
      </trkpt>
      <trkpt lat="50.04456" lon="4.21247">
        <ele>234.2</ele>
        <time>2024-04-26T15:23:10Z</time>
      </trkpt>
      <trkpt lat="50.04452" lon="4.21255">
        <ele>234.4</ele>
        <time>2024-04-26T15:23:11Z</time>
      </trkpt>
      <trkpt lat="50.04448" lon="4.21262">
        <ele>234.4</ele>
        <time>2024-04-26T15:23:12Z</time>
      </trkpt>
      <trkpt lat="50.04444" lon="4.2127">
        <ele>234.6</ele>
        <time>2024-04-26T15:23:13Z</time>
      </trkpt>
      <trkpt lat="50.04441" lon="4.21278">
        <ele>234.8</ele>
        <time>2024-04-26T15:23:14Z</time>
      </trkpt>
      <trkpt lat="50.04437" lon="4.21286">
        <ele>235</ele>
        <time>2024-04-26T15:23:15Z</time>
      </trkpt>
      <trkpt lat="50.04433" lon="4.21294">
        <ele>235</ele>
        <time>2024-04-26T15:23:16Z</time>
      </trkpt>
      <trkpt lat="50.0443" lon="4.21302">
        <ele>235.2</ele>
        <time>2024-04-26T15:23:17Z</time>
      </trkpt>
      <trkpt lat="50.04426" lon="4.21309">
        <ele>235.4</ele>
        <time>2024-04-26T15:23:18Z</time>
      </trkpt>
      <trkpt lat="50.04423" lon="4.21317">
        <ele>235.6</ele>
        <time>2024-04-26T15:23:19Z</time>
      </trkpt>
      <trkpt lat="50.0442" lon="4.21324">
        <ele>236</ele>
        <time>2024-04-26T15:23:20Z</time>
      </trkpt>
      <trkpt lat="50.04417" lon="4.21332">
        <ele>236.2</ele>
        <time>2024-04-26T15:23:21Z</time>
      </trkpt>
      <trkpt lat="50.04414" lon="4.21339">
        <ele>236.4</ele>
        <time>2024-04-26T15:23:22Z</time>
      </trkpt>
      <trkpt lat="50.04411" lon="4.21346">
        <ele>236.4</ele>
        <time>2024-04-26T15:23:23Z</time>
      </trkpt>
      <trkpt lat="50.04409" lon="4.21353">
        <ele>236.6</ele>
        <time>2024-04-26T15:23:24Z</time>
      </trkpt>
      <trkpt lat="50.04406" lon="4.21359">
        <ele>236.8</ele>
        <time>2024-04-26T15:23:25Z</time>
      </trkpt>
      <trkpt lat="50.04404" lon="4.21366">
        <ele>236.8</ele>
        <time>2024-04-26T15:23:26Z</time>
      </trkpt>
      <trkpt lat="50.04401" lon="4.21373">
        <ele>236.6</ele>
        <time>2024-04-26T15:23:27Z</time>
      </trkpt>
      <trkpt lat="50.04399" lon="4.21379">
        <ele>237</ele>
        <time>2024-04-26T15:23:28Z</time>
      </trkpt>
      <trkpt lat="50.04397" lon="4.21385">
        <ele>237.2</ele>
        <time>2024-04-26T15:23:29Z</time>
      </trkpt>
      <trkpt lat="50.04394" lon="4.21391">
        <ele>237.8</ele>
        <time>2024-04-26T15:23:30Z</time>
      </trkpt>
      <trkpt lat="50.04392" lon="4.21397">
        <ele>238.2</ele>
        <time>2024-04-26T15:23:31Z</time>
      </trkpt>
      <trkpt lat="50.04389" lon="4.21403">
        <ele>238.2</ele>
        <time>2024-04-26T15:23:32Z</time>
      </trkpt>
      <trkpt lat="50.04387" lon="4.21408">
        <ele>238.4</ele>
        <time>2024-04-26T15:23:33Z</time>
      </trkpt>
      <trkpt lat="50.04385" lon="4.21413">
        <ele>238.8</ele>
        <time>2024-04-26T15:23:34Z</time>
      </trkpt>
      <trkpt lat="50.04382" lon="4.21419">
        <ele>238.8</ele>
        <time>2024-04-26T15:23:35Z</time>
      </trkpt>
      <trkpt lat="50.0438" lon="4.21424">
        <ele>239</ele>
        <time>2024-04-26T15:23:36Z</time>
      </trkpt>
      <trkpt lat="50.04377" lon="4.21429">
        <ele>239.2</ele>
        <time>2024-04-26T15:23:37Z</time>
      </trkpt>
      <trkpt lat="50.04375" lon="4.21435">
        <ele>239.2</ele>
        <time>2024-04-26T15:23:38Z</time>
      </trkpt>
      <trkpt lat="50.04372" lon="4.2144">
        <ele>239.6</ele>
        <time>2024-04-26T15:23:39Z</time>
      </trkpt>
      <trkpt lat="50.0437" lon="4.21445">
        <ele>239.8</ele>
        <time>2024-04-26T15:23:40Z</time>
      </trkpt>
      <trkpt lat="50.04367" lon="4.2145">
        <ele>240.2</ele>
        <time>2024-04-26T15:23:41Z</time>
      </trkpt>
      <trkpt lat="50.04365" lon="4.21455">
        <ele>240.6</ele>
        <time>2024-04-26T15:23:42Z</time>
      </trkpt>
      <trkpt lat="50.04362" lon="4.21459">
        <ele>241</ele>
        <time>2024-04-26T15:23:43Z</time>
      </trkpt>
      <trkpt lat="50.04359" lon="4.21464">
        <ele>241.4</ele>
        <time>2024-04-26T15:23:44Z</time>
      </trkpt>
      <trkpt lat="50.04357" lon="4.21468">
        <ele>241.6</ele>
        <time>2024-04-26T15:23:45Z</time>
      </trkpt>
      <trkpt lat="50.04355" lon="4.21472">
        <ele>241.8</ele>
        <time>2024-04-26T15:23:46Z</time>
      </trkpt>
      <trkpt lat="50.04352" lon="4.21477">
        <ele>242.2</ele>
        <time>2024-04-26T15:23:47Z</time>
      </trkpt>
      <trkpt lat="50.0435" lon="4.21481">
        <ele>242.4</ele>
        <time>2024-04-26T15:23:48Z</time>
      </trkpt>
      <trkpt lat="50.04347" lon="4.21485">
        <ele>242.8</ele>
        <time>2024-04-26T15:23:49Z</time>
      </trkpt>
      <trkpt lat="50.04345" lon="4.21489">
        <ele>243</ele>
        <time>2024-04-26T15:23:50Z</time>
      </trkpt>
      <trkpt lat="50.04342" lon="4.21493">
        <ele>243.6</ele>
        <time>2024-04-26T15:23:51Z</time>
      </trkpt>
      <trkpt lat="50.0434" lon="4.21497">
        <ele>244</ele>
        <time>2024-04-26T15:23:52Z</time>
      </trkpt>
      <trkpt lat="50.04338" lon="4.21501">
        <ele>244</ele>
        <time>2024-04-26T15:23:53Z</time>
      </trkpt>
      <trkpt lat="50.04335" lon="4.21505">
        <ele>244.4</ele>
        <time>2024-04-26T15:23:54Z</time>
      </trkpt>
      <trkpt lat="50.04333" lon="4.21509">
        <ele>244.8</ele>
        <time>2024-04-26T15:23:55Z</time>
      </trkpt>
      <trkpt lat="50.0433" lon="4.21513">
        <ele>245.2</ele>
        <time>2024-04-26T15:23:56Z</time>
      </trkpt>
      <trkpt lat="50.04328" lon="4.21517">
        <ele>246</ele>
        <time>2024-04-26T15:23:57Z</time>
      </trkpt>
      <trkpt lat="50.04325" lon="4.21521">
        <ele>246.6</ele>
        <time>2024-04-26T15:23:58Z</time>
      </trkpt>
      <trkpt lat="50.04322" lon="4.21525">
        <ele>247</ele>
        <time>2024-04-26T15:23:59Z</time>
      </trkpt>
      <trkpt lat="50.0432" lon="4.21528">
        <ele>247.2</ele>
        <time>2024-04-26T15:24:00Z</time>
      </trkpt>
      <trkpt lat="50.04317" lon="4.21532">
        <ele>247.4</ele>
        <time>2024-04-26T15:24:01Z</time>
      </trkpt>
      <trkpt lat="50.04314" lon="4.21536">
        <ele>247.6</ele>
        <time>2024-04-26T15:24:02Z</time>
      </trkpt>
      <trkpt lat="50.04311" lon="4.21539">
        <ele>248.2</ele>
        <time>2024-04-26T15:24:03Z</time>
      </trkpt>
      <trkpt lat="50.04308" lon="4.21542">
        <ele>249</ele>
        <time>2024-04-26T15:24:04Z</time>
      </trkpt>
      <trkpt lat="50.04304" lon="4.21544">
        <ele>249.4</ele>
        <time>2024-04-26T15:24:05Z</time>
      </trkpt>
      <trkpt lat="50.04301" lon="4.21545">
        <ele>250</ele>
        <time>2024-04-26T15:24:06Z</time>
      </trkpt>
      <trkpt lat="50.04297" lon="4.21547">
        <ele>250.4</ele>
        <time>2024-04-26T15:24:07Z</time>
      </trkpt>
      <trkpt lat="50.04294" lon="4.21549">
        <ele>250.8</ele>
        <time>2024-04-26T15:24:08Z</time>
      </trkpt>
      <trkpt lat="50.0429" lon="4.2155">
        <ele>251.4</ele>
        <time>2024-04-26T15:24:09Z</time>
      </trkpt>
      <trkpt lat="50.04287" lon="4.21551">
        <ele>251.6</ele>
        <time>2024-04-26T15:24:10Z</time>
      </trkpt>
      <trkpt lat="50.04283" lon="4.21552">
        <ele>251.8</ele>
        <time>2024-04-26T15:24:11Z</time>
      </trkpt>
      <trkpt lat="50.04279" lon="4.21552">
        <ele>252</ele>
        <time>2024-04-26T15:24:12Z</time>
      </trkpt>
      <trkpt lat="50.04275" lon="4.21553">
        <ele>252.2</ele>
        <time>2024-04-26T15:24:13Z</time>
      </trkpt>
      <trkpt lat="50.04272" lon="4.21553">
        <ele>252.2</ele>
        <time>2024-04-26T15:24:14Z</time>
      </trkpt>
      <trkpt lat="50.04268" lon="4.21552">
        <ele>252.6</ele>
        <time>2024-04-26T15:24:15Z</time>
      </trkpt>
      <trkpt lat="50.04264" lon="4.21552">
        <ele>253</ele>
        <time>2024-04-26T15:24:16Z</time>
      </trkpt>
      <trkpt lat="50.0426" lon="4.21552">
        <ele>253.2</ele>
        <time>2024-04-26T15:24:17Z</time>
      </trkpt>
      <trkpt lat="50.04256" lon="4.21552">
        <ele>253.2</ele>
        <time>2024-04-26T15:24:18Z</time>
      </trkpt>
      <trkpt lat="50.04252" lon="4.21552">
        <ele>253.6</ele>
        <time>2024-04-26T15:24:19Z</time>
      </trkpt>
      <trkpt lat="50.04248" lon="4.21552">
        <ele>253.8</ele>
        <time>2024-04-26T15:24:20Z</time>
      </trkpt>
      <trkpt lat="50.04244" lon="4.21552">
        <ele>254</ele>
        <time>2024-04-26T15:24:21Z</time>
      </trkpt>
      <trkpt lat="50.0424" lon="4.21553">
        <ele>254.2</ele>
        <time>2024-04-26T15:24:22Z</time>
      </trkpt>
      <trkpt lat="50.04236" lon="4.21553">
        <ele>254.4</ele>
        <time>2024-04-26T15:24:23Z</time>
      </trkpt>
      <trkpt lat="50.04232" lon="4.21553">
        <ele>254.6</ele>
        <time>2024-04-26T15:24:24Z</time>
      </trkpt>
      <trkpt lat="50.04228" lon="4.21553">
        <ele>255</ele>
        <time>2024-04-26T15:24:25Z</time>
      </trkpt>
      <trkpt lat="50.04224" lon="4.21553">
        <ele>255.2</ele>
        <time>2024-04-26T15:24:26Z</time>
      </trkpt>
      <trkpt lat="50.0422" lon="4.21553">
        <ele>255.4</ele>
        <time>2024-04-26T15:24:27Z</time>
      </trkpt>
      <trkpt lat="50.04216" lon="4.21553">
        <ele>255.8</ele>
        <time>2024-04-26T15:24:28Z</time>
      </trkpt>
      <trkpt lat="50.04213" lon="4.21552">
        <ele>256.2</ele>
        <time>2024-04-26T15:24:29Z</time>
      </trkpt>
      <trkpt lat="50.04209" lon="4.21552">
        <ele>256.2</ele>
        <time>2024-04-26T15:24:30Z</time>
      </trkpt>
      <trkpt lat="50.04205" lon="4.21552">
        <ele>256.6</ele>
        <time>2024-04-26T15:24:31Z</time>
      </trkpt>
      <trkpt lat="50.04201" lon="4.21552">
        <ele>257</ele>
        <time>2024-04-26T15:24:32Z</time>
      </trkpt>
      <trkpt lat="50.04197" lon="4.21552">
        <ele>257.2</ele>
        <time>2024-04-26T15:24:33Z</time>
      </trkpt>
      <trkpt lat="50.04193" lon="4.21552">
        <ele>257.4</ele>
        <time>2024-04-26T15:24:34Z</time>
      </trkpt>
      <trkpt lat="50.04189" lon="4.21552">
        <ele>257.6</ele>
        <time>2024-04-26T15:24:35Z</time>
      </trkpt>
      <trkpt lat="50.04185" lon="4.21551">
        <ele>257.6</ele>
        <time>2024-04-26T15:24:36Z</time>
      </trkpt>
      <trkpt lat="50.04182" lon="4.21551">
        <ele>257.8</ele>
        <time>2024-04-26T15:24:37Z</time>
      </trkpt>
      <trkpt lat="50.04178" lon="4.21551">
        <ele>258</ele>
        <time>2024-04-26T15:24:38Z</time>
      </trkpt>
      <trkpt lat="50.04174" lon="4.21551">
        <ele>258.4</ele>
        <time>2024-04-26T15:24:39Z</time>
      </trkpt>
      <trkpt lat="50.0417" lon="4.21551">
        <ele>258.6</ele>
        <time>2024-04-26T15:24:40Z</time>
      </trkpt>
      <trkpt lat="50.04167" lon="4.21551">
        <ele>258.8</ele>
        <time>2024-04-26T15:24:41Z</time>
      </trkpt>
      <trkpt lat="50.04163" lon="4.2155">
        <ele>259</ele>
        <time>2024-04-26T15:24:42Z</time>
      </trkpt>
      <trkpt lat="50.0416" lon="4.2155">
        <ele>259</ele>
        <time>2024-04-26T15:24:43Z</time>
      </trkpt>
      <trkpt lat="50.04156" lon="4.2155">
        <ele>259.4</ele>
        <time>2024-04-26T15:24:44Z</time>
      </trkpt>
      <trkpt lat="50.04153" lon="4.2155">
        <ele>259.8</ele>
        <time>2024-04-26T15:24:45Z</time>
      </trkpt>
      <trkpt lat="50.04149" lon="4.2155">
        <ele>260.2</ele>
        <time>2024-04-26T15:24:46Z</time>
      </trkpt>
      <trkpt lat="50.04146" lon="4.2155">
        <ele>260.6</ele>
        <time>2024-04-26T15:24:47Z</time>
      </trkpt>
      <trkpt lat="50.04143" lon="4.2155">
        <ele>260.6</ele>
        <time>2024-04-26T15:24:48Z</time>
      </trkpt>
      <trkpt lat="50.04139" lon="4.2155">
        <ele>260.8</ele>
        <time>2024-04-26T15:24:49Z</time>
      </trkpt>
      <trkpt lat="50.04136" lon="4.2155">
        <ele>261</ele>
        <time>2024-04-26T15:24:50Z</time>
      </trkpt>
      <trkpt lat="50.04133" lon="4.21549">
        <ele>261.2</ele>
        <time>2024-04-26T15:24:51Z</time>
      </trkpt>
      <trkpt lat="50.04129" lon="4.21549">
        <ele>261.6</ele>
        <time>2024-04-26T15:24:52Z</time>
      </trkpt>
      <trkpt lat="50.04126" lon="4.21549">
        <ele>261.6</ele>
        <time>2024-04-26T15:24:53Z</time>
      </trkpt>
      <trkpt lat="50.04122" lon="4.21549">
        <ele>261.8</ele>
        <time>2024-04-26T15:24:54Z</time>
      </trkpt>
      <trkpt lat="50.04119" lon="4.21549">
        <ele>262.4</ele>
        <time>2024-04-26T15:24:55Z</time>
      </trkpt>
      <trkpt lat="50.04116" lon="4.21549">
        <ele>263</ele>
        <time>2024-04-26T15:24:56Z</time>
      </trkpt>
      <trkpt lat="50.04112" lon="4.21549">
        <ele>263.4</ele>
        <time>2024-04-26T15:24:57Z</time>
      </trkpt>
      <trkpt lat="50.04109" lon="4.21549">
        <ele>263.4</ele>
        <time>2024-04-26T15:24:58Z</time>
      </trkpt>
      <trkpt lat="50.04105" lon="4.21549">
        <ele>263.8</ele>
        <time>2024-04-26T15:24:59Z</time>
      </trkpt>
      <trkpt lat="50.04102" lon="4.2155">
        <ele>264.6</ele>
        <time>2024-04-26T15:25:00Z</time>
      </trkpt>
      <trkpt lat="50.04098" lon="4.2155">
        <ele>264.8</ele>
        <time>2024-04-26T15:25:01Z</time>
      </trkpt>
      <trkpt lat="50.04095" lon="4.21551">
        <ele>265.2</ele>
        <time>2024-04-26T15:25:02Z</time>
      </trkpt>
      <trkpt lat="50.04092" lon="4.21552">
        <ele>265.4</ele>
        <time>2024-04-26T15:25:03Z</time>
      </trkpt>
      <trkpt lat="50.04088" lon="4.21554">
        <ele>265.6</ele>
        <time>2024-04-26T15:25:04Z</time>
      </trkpt>
      <trkpt lat="50.04084" lon="4.21556">
        <ele>265.8</ele>
        <time>2024-04-26T15:25:05Z</time>
      </trkpt>
      <trkpt lat="50.04081" lon="4.21558">
        <ele>266.2</ele>
        <time>2024-04-26T15:25:06Z</time>
      </trkpt>
      <trkpt lat="50.04077" lon="4.21561">
        <ele>266.4</ele>
        <time>2024-04-26T15:25:07Z</time>
      </trkpt>
      <trkpt lat="50.04073" lon="4.21565">
        <ele>266.6</ele>
        <time>2024-04-26T15:25:08Z</time>
      </trkpt>
      <trkpt lat="50.04069" lon="4.21569">
        <ele>267</ele>
        <time>2024-04-26T15:25:09Z</time>
      </trkpt>
      <trkpt lat="50.04065" lon="4.21573">
        <ele>267.4</ele>
        <time>2024-04-26T15:25:10Z</time>
      </trkpt>
      <trkpt lat="50.04062" lon="4.21577">
        <ele>267.6</ele>
        <time>2024-04-26T15:25:11Z</time>
      </trkpt>
      <trkpt lat="50.04059" lon="4.21581">
        <ele>267.8</ele>
        <time>2024-04-26T15:25:12Z</time>
      </trkpt>
      <trkpt lat="50.04056" lon="4.21586">
        <ele>268</ele>
        <time>2024-04-26T15:25:13Z</time>
      </trkpt>
      <trkpt lat="50.04053" lon="4.2159">
        <ele>268</ele>
        <time>2024-04-26T15:25:14Z</time>
      </trkpt>
      <trkpt lat="50.0405" lon="4.21595">
        <ele>268.2</ele>
        <time>2024-04-26T15:25:15Z</time>
      </trkpt>
      <trkpt lat="50.04047" lon="4.216">
        <ele>268.4</ele>
        <time>2024-04-26T15:25:16Z</time>
      </trkpt>
      <trkpt lat="50.04045" lon="4.21605">
        <ele>268.6</ele>
        <time>2024-04-26T15:25:17Z</time>
      </trkpt>
      <trkpt lat="50.04042" lon="4.21609">
        <ele>268.8</ele>
        <time>2024-04-26T15:25:18Z</time>
      </trkpt>
      <trkpt lat="50.04039" lon="4.21614">
        <ele>268.8</ele>
        <time>2024-04-26T15:25:19Z</time>
      </trkpt>
      <trkpt lat="50.04037" lon="4.21619">
        <ele>268.8</ele>
        <time>2024-04-26T15:25:20Z</time>
      </trkpt>
      <trkpt lat="50.04034" lon="4.21624">
        <ele>268.8</ele>
        <time>2024-04-26T15:25:21Z</time>
      </trkpt>
      <trkpt lat="50.04031" lon="4.21629">
        <ele>269</ele>
        <time>2024-04-26T15:25:22Z</time>
      </trkpt>
      <trkpt lat="50.04028" lon="4.21633">
        <ele>269.2</ele>
        <time>2024-04-26T15:25:23Z</time>
      </trkpt>
      <trkpt lat="50.04025" lon="4.21638">
        <ele>269.2</ele>
        <time>2024-04-26T15:25:24Z</time>
      </trkpt>
      <trkpt lat="50.04021" lon="4.21641">
        <ele>269.2</ele>
        <time>2024-04-26T15:25:25Z</time>
      </trkpt>
      <trkpt lat="50.04018" lon="4.21643">
        <ele>269.2</ele>
        <time>2024-04-26T15:25:26Z</time>
      </trkpt>
      <trkpt lat="50.04014" lon="4.21645">
        <ele>269.2</ele>
        <time>2024-04-26T15:25:27Z</time>
      </trkpt>
      <trkpt lat="50.0401" lon="4.21646">
        <ele>269.4</ele>
        <time>2024-04-26T15:25:28Z</time>
      </trkpt>
      <trkpt lat="50.04006" lon="4.21647">
        <ele>269.4</ele>
        <time>2024-04-26T15:25:29Z</time>
      </trkpt>
      <trkpt lat="50.04002" lon="4.21647">
        <ele>269.4</ele>
        <time>2024-04-26T15:25:30Z</time>
      </trkpt>
      <trkpt lat="50.03999" lon="4.21647">
        <ele>269.4</ele>
        <time>2024-04-26T15:25:31Z</time>
      </trkpt>
      <trkpt lat="50.03995" lon="4.21647">
        <ele>269.6</ele>
        <time>2024-04-26T15:25:32Z</time>
      </trkpt>
      <trkpt lat="50.03991" lon="4.21647">
        <ele>269.8</ele>
        <time>2024-04-26T15:25:33Z</time>
      </trkpt>
      <trkpt lat="50.03987" lon="4.21647">
        <ele>269.8</ele>
        <time>2024-04-26T15:25:34Z</time>
      </trkpt>
      <trkpt lat="50.03984" lon="4.21647">
        <ele>269.8</ele>
        <time>2024-04-26T15:25:35Z</time>
      </trkpt>
      <trkpt lat="50.0398" lon="4.21647">
        <ele>270</ele>
        <time>2024-04-26T15:25:36Z</time>
      </trkpt>
      <trkpt lat="50.03976" lon="4.21647">
        <ele>269.8</ele>
        <time>2024-04-26T15:25:37Z</time>
      </trkpt>
      <trkpt lat="50.03972" lon="4.21647">
        <ele>270</ele>
        <time>2024-04-26T15:25:38Z</time>
      </trkpt>
      <trkpt lat="50.03968" lon="4.21648">
        <ele>270</ele>
        <time>2024-04-26T15:25:39Z</time>
      </trkpt>
      <trkpt lat="50.03965" lon="4.21648">
        <ele>270.6</ele>
        <time>2024-04-26T15:25:40Z</time>
      </trkpt>
      <trkpt lat="50.03961" lon="4.2165">
        <ele>270.8</ele>
        <time>2024-04-26T15:25:41Z</time>
      </trkpt>
      <trkpt lat="50.03958" lon="4.21652">
        <ele>271</ele>
        <time>2024-04-26T15:25:42Z</time>
      </trkpt>
      <trkpt lat="50.03954" lon="4.21654">
        <ele>271</ele>
        <time>2024-04-26T15:25:43Z</time>
      </trkpt>
      <trkpt lat="50.03951" lon="4.21656">
        <ele>271.2</ele>
        <time>2024-04-26T15:25:44Z</time>
      </trkpt>
      <trkpt lat="50.03947" lon="4.2166">
        <ele>271.6</ele>
        <time>2024-04-26T15:25:45Z</time>
      </trkpt>
      <trkpt lat="50.03944" lon="4.21664">
        <ele>271.8</ele>
        <time>2024-04-26T15:25:46Z</time>
      </trkpt>
      <trkpt lat="50.03941" lon="4.21668">
        <ele>271.8</ele>
        <time>2024-04-26T15:25:47Z</time>
      </trkpt>
      <trkpt lat="50.03938" lon="4.21673">
        <ele>271.8</ele>
        <time>2024-04-26T15:25:48Z</time>
      </trkpt>
      <trkpt lat="50.03934" lon="4.21678">
        <ele>271.8</ele>
        <time>2024-04-26T15:25:49Z</time>
      </trkpt>
      <trkpt lat="50.0393" lon="4.21683">
        <ele>272</ele>
        <time>2024-04-26T15:25:50Z</time>
      </trkpt>
      <trkpt lat="50.03927" lon="4.21689">
        <ele>272</ele>
        <time>2024-04-26T15:25:51Z</time>
      </trkpt>
      <trkpt lat="50.03923" lon="4.21695">
        <ele>272</ele>
        <time>2024-04-26T15:25:52Z</time>
      </trkpt>
      <trkpt lat="50.03919" lon="4.21701">
        <ele>272</ele>
        <time>2024-04-26T15:25:53Z</time>
      </trkpt>
      <trkpt lat="50.03915" lon="4.21707">
        <ele>272.2</ele>
        <time>2024-04-26T15:25:54Z</time>
      </trkpt>
      <trkpt lat="50.03911" lon="4.21714">
        <ele>272</ele>
        <time>2024-04-26T15:25:55Z</time>
      </trkpt>
      <trkpt lat="50.03907" lon="4.2172">
        <ele>272</ele>
        <time>2024-04-26T15:25:56Z</time>
      </trkpt>
      <trkpt lat="50.03903" lon="4.21727">
        <ele>272</ele>
        <time>2024-04-26T15:25:57Z</time>
      </trkpt>
      <trkpt lat="50.03899" lon="4.21734">
        <ele>272</ele>
        <time>2024-04-26T15:25:58Z</time>
      </trkpt>
      <trkpt lat="50.03895" lon="4.21741">
        <ele>272</ele>
        <time>2024-04-26T15:25:59Z</time>
      </trkpt>
      <trkpt lat="50.03891" lon="4.21748">
        <ele>272.2</ele>
        <time>2024-04-26T15:26:00Z</time>
      </trkpt>
      <trkpt lat="50.03888" lon="4.21756">
        <ele>272</ele>
        <time>2024-04-26T15:26:01Z</time>
      </trkpt>
      <trkpt lat="50.03884" lon="4.21764">
        <ele>272.2</ele>
        <time>2024-04-26T15:26:02Z</time>
      </trkpt>
      <trkpt lat="50.03881" lon="4.21772">
        <ele>272.2</ele>
        <time>2024-04-26T15:26:03Z</time>
      </trkpt>
      <trkpt lat="50.03877" lon="4.2178">
        <ele>272.2</ele>
        <time>2024-04-26T15:26:04Z</time>
      </trkpt>
      <trkpt lat="50.03875" lon="4.21789">
        <ele>272.2</ele>
        <time>2024-04-26T15:26:05Z</time>
      </trkpt>
      <trkpt lat="50.03872" lon="4.21798">
        <ele>272.2</ele>
        <time>2024-04-26T15:26:06Z</time>
      </trkpt>
      <trkpt lat="50.0387" lon="4.21808">
        <ele>272.2</ele>
        <time>2024-04-26T15:26:07Z</time>
      </trkpt>
      <trkpt lat="50.03868" lon="4.21817">
        <ele>272.4</ele>
        <time>2024-04-26T15:26:08Z</time>
      </trkpt>
      <trkpt lat="50.03866" lon="4.21827">
        <ele>272.6</ele>
        <time>2024-04-26T15:26:09Z</time>
      </trkpt>
      <trkpt lat="50.03865" lon="4.21836">
        <ele>272.6</ele>
        <time>2024-04-26T15:26:10Z</time>
      </trkpt>
      <trkpt lat="50.03863" lon="4.21845">
        <ele>272.8</ele>
        <time>2024-04-26T15:26:11Z</time>
      </trkpt>
      <trkpt lat="50.03862" lon="4.21854">
        <ele>273.2</ele>
        <time>2024-04-26T15:26:12Z</time>
      </trkpt>
      <trkpt lat="50.0386" lon="4.21862">
        <ele>273</ele>
        <time>2024-04-26T15:26:13Z</time>
      </trkpt>
      <trkpt lat="50.03859" lon="4.2187">
        <ele>273.2</ele>
        <time>2024-04-26T15:26:14Z</time>
      </trkpt>
      <trkpt lat="50.03858" lon="4.21878">
        <ele>273.2</ele>
        <time>2024-04-26T15:26:15Z</time>
      </trkpt>
      <trkpt lat="50.03856" lon="4.21886">
        <ele>273.2</ele>
        <time>2024-04-26T15:26:16Z</time>
      </trkpt>
      <trkpt lat="50.03855" lon="4.21894">
        <ele>273.2</ele>
        <time>2024-04-26T15:26:17Z</time>
      </trkpt>
      <trkpt lat="50.03854" lon="4.21902">
        <ele>273.2</ele>
        <time>2024-04-26T15:26:18Z</time>
      </trkpt>
      <trkpt lat="50.03852" lon="4.2191">
        <ele>273.2</ele>
        <time>2024-04-26T15:26:19Z</time>
      </trkpt>
      <trkpt lat="50.03851" lon="4.21918">
        <ele>273.4</ele>
        <time>2024-04-26T15:26:20Z</time>
      </trkpt>
      <trkpt lat="50.03849" lon="4.21927">
        <ele>273.2</ele>
        <time>2024-04-26T15:26:21Z</time>
      </trkpt>
      <trkpt lat="50.03848" lon="4.21935">
        <ele>273.2</ele>
        <time>2024-04-26T15:26:22Z</time>
      </trkpt>
      <trkpt lat="50.03847" lon="4.21943">
        <ele>273.2</ele>
        <time>2024-04-26T15:26:23Z</time>
      </trkpt>
      <trkpt lat="50.03845" lon="4.21952">
        <ele>273.4</ele>
        <time>2024-04-26T15:26:24Z</time>
      </trkpt>
      <trkpt lat="50.03844" lon="4.21961">
        <ele>273.2</ele>
        <time>2024-04-26T15:26:25Z</time>
      </trkpt>
      <trkpt lat="50.03842" lon="4.2197">
        <ele>273.4</ele>
        <time>2024-04-26T15:26:26Z</time>
      </trkpt>
      <trkpt lat="50.03841" lon="4.21979">
        <ele>273.4</ele>
        <time>2024-04-26T15:26:27Z</time>
      </trkpt>
      <trkpt lat="50.03839" lon="4.21988">
        <ele>273</ele>
        <time>2024-04-26T15:26:28Z</time>
      </trkpt>
      <trkpt lat="50.03837" lon="4.21998">
        <ele>273</ele>
        <time>2024-04-26T15:26:29Z</time>
      </trkpt>
      <trkpt lat="50.03835" lon="4.22008">
        <ele>272.8</ele>
        <time>2024-04-26T15:26:30Z</time>
      </trkpt>
      <trkpt lat="50.03833" lon="4.22018">
        <ele>272.8</ele>
        <time>2024-04-26T15:26:31Z</time>
      </trkpt>
      <trkpt lat="50.03831" lon="4.22029">
        <ele>272.6</ele>
        <time>2024-04-26T15:26:32Z</time>
      </trkpt>
      <trkpt lat="50.03829" lon="4.22039">
        <ele>272.6</ele>
        <time>2024-04-26T15:26:33Z</time>
      </trkpt>
      <trkpt lat="50.03827" lon="4.2205">
        <ele>272</ele>
        <time>2024-04-26T15:26:34Z</time>
      </trkpt>
      <trkpt lat="50.03825" lon="4.22061">
        <ele>271.4</ele>
        <time>2024-04-26T15:26:35Z</time>
      </trkpt>
      <trkpt lat="50.03823" lon="4.22072">
        <ele>271</ele>
        <time>2024-04-26T15:26:36Z</time>
      </trkpt>
      <trkpt lat="50.03821" lon="4.22084">
        <ele>270.6</ele>
        <time>2024-04-26T15:26:37Z</time>
      </trkpt>
      <trkpt lat="50.03819" lon="4.22096">
        <ele>270.4</ele>
        <time>2024-04-26T15:26:38Z</time>
      </trkpt>
      <trkpt lat="50.03817" lon="4.22107">
        <ele>270</ele>
        <time>2024-04-26T15:26:39Z</time>
      </trkpt>
      <trkpt lat="50.03814" lon="4.22119">
        <ele>269.6</ele>
        <time>2024-04-26T15:26:40Z</time>
      </trkpt>
      <trkpt lat="50.0381" lon="4.22131">
        <ele>269.2</ele>
        <time>2024-04-26T15:26:41Z</time>
      </trkpt>
      <trkpt lat="50.03806" lon="4.22143">
        <ele>269</ele>
        <time>2024-04-26T15:26:42Z</time>
      </trkpt>
      <trkpt lat="50.03802" lon="4.22155">
        <ele>268.8</ele>
        <time>2024-04-26T15:26:43Z</time>
      </trkpt>
      <trkpt lat="50.03798" lon="4.22167">
        <ele>268.4</ele>
        <time>2024-04-26T15:26:44Z</time>
      </trkpt>
      <trkpt lat="50.03795" lon="4.22181">
        <ele>268.4</ele>
        <time>2024-04-26T15:26:45Z</time>
      </trkpt>
      <trkpt lat="50.03792" lon="4.22194">
        <ele>268</ele>
        <time>2024-04-26T15:26:46Z</time>
      </trkpt>
      <trkpt lat="50.03789" lon="4.22209">
        <ele>267.6</ele>
        <time>2024-04-26T15:26:47Z</time>
      </trkpt>
      <trkpt lat="50.03787" lon="4.22224">
        <ele>267.6</ele>
        <time>2024-04-26T15:26:48Z</time>
      </trkpt>
      <trkpt lat="50.03785" lon="4.2224">
        <ele>267.2</ele>
        <time>2024-04-26T15:26:49Z</time>
      </trkpt>
      <trkpt lat="50.03783" lon="4.22256">
        <ele>266.6</ele>
        <time>2024-04-26T15:26:50Z</time>
      </trkpt>
      <trkpt lat="50.03779" lon="4.22271">
        <ele>266</ele>
        <time>2024-04-26T15:26:51Z</time>
      </trkpt>
      <trkpt lat="50.03773" lon="4.22285">
        <ele>265.2</ele>
        <time>2024-04-26T15:26:52Z</time>
      </trkpt>
      <trkpt lat="50.03766" lon="4.22297">
        <ele>264.2</ele>
        <time>2024-04-26T15:26:53Z</time>
      </trkpt>
      <trkpt lat="50.03757" lon="4.22305">
        <ele>263.8</ele>
        <time>2024-04-26T15:26:54Z</time>
      </trkpt>
      <trkpt lat="50.03747" lon="4.22312">
        <ele>263.2</ele>
        <time>2024-04-26T15:26:55Z</time>
      </trkpt>
      <trkpt lat="50.03737" lon="4.22318">
        <ele>262.2</ele>
        <time>2024-04-26T15:26:56Z</time>
      </trkpt>
      <trkpt lat="50.03728" lon="4.22323">
        <ele>261.4</ele>
        <time>2024-04-26T15:26:57Z</time>
      </trkpt>
      <trkpt lat="50.03719" lon="4.22328">
        <ele>260.6</ele>
        <time>2024-04-26T15:26:58Z</time>
      </trkpt>
      <trkpt lat="50.03711" lon="4.22334">
        <ele>259</ele>
        <time>2024-04-26T15:26:59Z</time>
      </trkpt>
      <trkpt lat="50.03703" lon="4.2234">
        <ele>258.2</ele>
        <time>2024-04-26T15:27:00Z</time>
      </trkpt>
      <trkpt lat="50.03696" lon="4.22346">
        <ele>257.8</ele>
        <time>2024-04-26T15:27:01Z</time>
      </trkpt>
      <trkpt lat="50.0369" lon="4.22352">
        <ele>257.6</ele>
        <time>2024-04-26T15:27:02Z</time>
      </trkpt>
      <trkpt lat="50.03684" lon="4.22358">
        <ele>257.6</ele>
        <time>2024-04-26T15:27:03Z</time>
      </trkpt>
      <trkpt lat="50.03678" lon="4.22365">
        <ele>257.4</ele>
        <time>2024-04-26T15:27:04Z</time>
      </trkpt>
      <trkpt lat="50.03673" lon="4.22371">
        <ele>257.4</ele>
        <time>2024-04-26T15:27:05Z</time>
      </trkpt>
      <trkpt lat="50.03668" lon="4.22378">
        <ele>257.4</ele>
        <time>2024-04-26T15:27:06Z</time>
      </trkpt>
      <trkpt lat="50.03663" lon="4.22384">
        <ele>257.6</ele>
        <time>2024-04-26T15:27:07Z</time>
      </trkpt>
      <trkpt lat="50.03657" lon="4.22391">
        <ele>257.4</ele>
        <time>2024-04-26T15:27:08Z</time>
      </trkpt>
      <trkpt lat="50.03652" lon="4.22398">
        <ele>257.4</ele>
        <time>2024-04-26T15:27:09Z</time>
      </trkpt>
      <trkpt lat="50.03647" lon="4.22404">
        <ele>257.4</ele>
        <time>2024-04-26T15:27:10Z</time>
      </trkpt>
      <trkpt lat="50.03642" lon="4.2241">
        <ele>257.6</ele>
        <time>2024-04-26T15:27:11Z</time>
      </trkpt>
      <trkpt lat="50.03636" lon="4.22416">
        <ele>258.2</ele>
        <time>2024-04-26T15:27:12Z</time>
      </trkpt>
      <trkpt lat="50.0363" lon="4.2242">
        <ele>258.6</ele>
        <time>2024-04-26T15:27:13Z</time>
      </trkpt>
      <trkpt lat="50.03624" lon="4.22421">
        <ele>259</ele>
        <time>2024-04-26T15:27:14Z</time>
      </trkpt>
      <trkpt lat="50.03617" lon="4.2242">
        <ele>259.4</ele>
        <time>2024-04-26T15:27:15Z</time>
      </trkpt>
      <trkpt lat="50.03611" lon="4.22418">
        <ele>259.8</ele>
        <time>2024-04-26T15:27:16Z</time>
      </trkpt>
      <trkpt lat="50.03605" lon="4.22414">
        <ele>259.8</ele>
        <time>2024-04-26T15:27:17Z</time>
      </trkpt>
      <trkpt lat="50.03599" lon="4.2241">
        <ele>260</ele>
        <time>2024-04-26T15:27:18Z</time>
      </trkpt>
      <trkpt lat="50.03593" lon="4.22404">
        <ele>260.2</ele>
        <time>2024-04-26T15:27:19Z</time>
      </trkpt>
      <trkpt lat="50.03588" lon="4.22398">
        <ele>260.2</ele>
        <time>2024-04-26T15:27:20Z</time>
      </trkpt>
      <trkpt lat="50.03583" lon="4.22391">
        <ele>260.2</ele>
        <time>2024-04-26T15:27:21Z</time>
      </trkpt>
      <trkpt lat="50.03577" lon="4.22386">
        <ele>260.4</ele>
        <time>2024-04-26T15:27:22Z</time>
      </trkpt>
      <trkpt lat="50.03571" lon="4.22383">
        <ele>260.2</ele>
        <time>2024-04-26T15:27:23Z</time>
      </trkpt>
      <trkpt lat="50.03565" lon="4.22382">
        <ele>260.4</ele>
        <time>2024-04-26T15:27:24Z</time>
      </trkpt>
      <trkpt lat="50.03559" lon="4.22385">
        <ele>260.6</ele>
        <time>2024-04-26T15:27:25Z</time>
      </trkpt>
      <trkpt lat="50.03553" lon="4.22389">
        <ele>260.4</ele>
        <time>2024-04-26T15:27:26Z</time>
      </trkpt>
      <trkpt lat="50.03549" lon="4.22393">
        <ele>260.4</ele>
        <time>2024-04-26T15:27:27Z</time>
      </trkpt>
      <trkpt lat="50.03544" lon="4.22398">
        <ele>260.6</ele>
        <time>2024-04-26T15:27:28Z</time>
      </trkpt>
      <trkpt lat="50.0354" lon="4.22403">
        <ele>260.4</ele>
        <time>2024-04-26T15:27:29Z</time>
      </trkpt>
      <trkpt lat="50.03535" lon="4.22408">
        <ele>260.6</ele>
        <time>2024-04-26T15:27:30Z</time>
      </trkpt>
      <trkpt lat="50.03531" lon="4.22414">
        <ele>260.6</ele>
        <time>2024-04-26T15:27:31Z</time>
      </trkpt>
      <trkpt lat="50.03528" lon="4.2242">
        <ele>260.6</ele>
        <time>2024-04-26T15:27:32Z</time>
      </trkpt>
      <trkpt lat="50.03524" lon="4.22426">
        <ele>261</ele>
        <time>2024-04-26T15:27:33Z</time>
      </trkpt>
      <trkpt lat="50.03521" lon="4.22432">
        <ele>261.4</ele>
        <time>2024-04-26T15:27:34Z</time>
      </trkpt>
      <trkpt lat="50.03517" lon="4.22438">
        <ele>261.6</ele>
        <time>2024-04-26T15:27:35Z</time>
      </trkpt>
      <trkpt lat="50.03514" lon="4.22443">
        <ele>261.8</ele>
        <time>2024-04-26T15:27:36Z</time>
      </trkpt>
      <trkpt lat="50.0351" lon="4.22448">
        <ele>262.2</ele>
        <time>2024-04-26T15:27:37Z</time>
      </trkpt>
      <trkpt lat="50.03506" lon="4.22453">
        <ele>262.4</ele>
        <time>2024-04-26T15:27:38Z</time>
      </trkpt>
      <trkpt lat="50.03503" lon="4.22457">
        <ele>262.8</ele>
        <time>2024-04-26T15:27:39Z</time>
      </trkpt>
      <trkpt lat="50.03499" lon="4.22461">
        <ele>263</ele>
        <time>2024-04-26T15:27:40Z</time>
      </trkpt>
      <trkpt lat="50.03495" lon="4.22465">
        <ele>263.4</ele>
        <time>2024-04-26T15:27:41Z</time>
      </trkpt>
      <trkpt lat="50.03492" lon="4.22468">
        <ele>263.8</ele>
        <time>2024-04-26T15:27:42Z</time>
      </trkpt>
      <trkpt lat="50.03487" lon="4.2247">
        <ele>264.2</ele>
        <time>2024-04-26T15:27:43Z</time>
      </trkpt>
      <trkpt lat="50.03483" lon="4.22473">
        <ele>264.6</ele>
        <time>2024-04-26T15:27:44Z</time>
      </trkpt>
      <trkpt lat="50.03479" lon="4.22474">
        <ele>264.6</ele>
        <time>2024-04-26T15:27:45Z</time>
      </trkpt>
      <trkpt lat="50.03475" lon="4.22475">
        <ele>265</ele>
        <time>2024-04-26T15:27:46Z</time>
      </trkpt>
      <trkpt lat="50.0347" lon="4.22477">
        <ele>265.2</ele>
        <time>2024-04-26T15:27:47Z</time>
      </trkpt>
      <trkpt lat="50.03466" lon="4.22478">
        <ele>265.6</ele>
        <time>2024-04-26T15:27:48Z</time>
      </trkpt>
      <trkpt lat="50.03462" lon="4.22478">
        <ele>265.8</ele>
        <time>2024-04-26T15:27:49Z</time>
      </trkpt>
      <trkpt lat="50.03458" lon="4.22479">
        <ele>266</ele>
        <time>2024-04-26T15:27:50Z</time>
      </trkpt>
      <trkpt lat="50.03454" lon="4.22479">
        <ele>266.6</ele>
        <time>2024-04-26T15:27:51Z</time>
      </trkpt>
      <trkpt lat="50.0345" lon="4.2248">
        <ele>267</ele>
        <time>2024-04-26T15:27:52Z</time>
      </trkpt>
      <trkpt lat="50.03445" lon="4.2248">
        <ele>267</ele>
        <time>2024-04-26T15:27:53Z</time>
      </trkpt>
      <trkpt lat="50.03441" lon="4.2248">
        <ele>267.2</ele>
        <time>2024-04-26T15:27:54Z</time>
      </trkpt>
      <trkpt lat="50.03437" lon="4.2248">
        <ele>267.4</ele>
        <time>2024-04-26T15:27:55Z</time>
      </trkpt>
      <trkpt lat="50.03432" lon="4.22481">
        <ele>267.8</ele>
        <time>2024-04-26T15:27:56Z</time>
      </trkpt>
      <trkpt lat="50.03428" lon="4.22481">
        <ele>268.8</ele>
        <time>2024-04-26T15:27:57Z</time>
      </trkpt>
      <trkpt lat="50.03423" lon="4.2248">
        <ele>269.6</ele>
        <time>2024-04-26T15:27:58Z</time>
      </trkpt>
      <trkpt lat="50.03418" lon="4.2248">
        <ele>269.8</ele>
        <time>2024-04-26T15:27:59Z</time>
      </trkpt>
      <trkpt lat="50.03414" lon="4.2248">
        <ele>270.4</ele>
        <time>2024-04-26T15:28:00Z</time>
      </trkpt>
      <trkpt lat="50.03409" lon="4.2248">
        <ele>270.6</ele>
        <time>2024-04-26T15:28:01Z</time>
      </trkpt>
      <trkpt lat="50.03404" lon="4.2248">
        <ele>270.8</ele>
        <time>2024-04-26T15:28:02Z</time>
      </trkpt>
      <trkpt lat="50.03399" lon="4.2248">
        <ele>271.2</ele>
        <time>2024-04-26T15:28:03Z</time>
      </trkpt>
      <trkpt lat="50.03394" lon="4.2248">
        <ele>271.6</ele>
        <time>2024-04-26T15:28:04Z</time>
      </trkpt>
      <trkpt lat="50.03389" lon="4.2248">
        <ele>271.8</ele>
        <time>2024-04-26T15:28:05Z</time>
      </trkpt>
      <trkpt lat="50.03384" lon="4.2248">
        <ele>272</ele>
        <time>2024-04-26T15:28:06Z</time>
      </trkpt>
      <trkpt lat="50.03379" lon="4.2248">
        <ele>272</ele>
        <time>2024-04-26T15:28:07Z</time>
      </trkpt>
      <trkpt lat="50.03374" lon="4.2248">
        <ele>272.2</ele>
        <time>2024-04-26T15:28:08Z</time>
      </trkpt>
      <trkpt lat="50.03369" lon="4.22479">
        <ele>272.2</ele>
        <time>2024-04-26T15:28:09Z</time>
      </trkpt>
      <trkpt lat="50.03365" lon="4.22479">
        <ele>272.4</ele>
        <time>2024-04-26T15:28:10Z</time>
      </trkpt>
      <trkpt lat="50.0336" lon="4.22479">
        <ele>272.4</ele>
        <time>2024-04-26T15:28:11Z</time>
      </trkpt>
      <trkpt lat="50.03355" lon="4.22479">
        <ele>272.4</ele>
        <time>2024-04-26T15:28:12Z</time>
      </trkpt>
      <trkpt lat="50.0335" lon="4.22479">
        <ele>272.4</ele>
        <time>2024-04-26T15:28:13Z</time>
      </trkpt>
      <trkpt lat="50.03345" lon="4.2248">
        <ele>272.6</ele>
        <time>2024-04-26T15:28:14Z</time>
      </trkpt>
      <trkpt lat="50.0334" lon="4.2248">
        <ele>272.6</ele>
        <time>2024-04-26T15:28:15Z</time>
      </trkpt>
      <trkpt lat="50.03335" lon="4.2248">
        <ele>272.6</ele>
        <time>2024-04-26T15:28:16Z</time>
      </trkpt>
      <trkpt lat="50.0333" lon="4.22481">
        <ele>273</ele>
        <time>2024-04-26T15:28:17Z</time>
      </trkpt>
      <trkpt lat="50.03326" lon="4.22482">
        <ele>273.2</ele>
        <time>2024-04-26T15:28:18Z</time>
      </trkpt>
      <trkpt lat="50.03321" lon="4.22484">
        <ele>273.4</ele>
        <time>2024-04-26T15:28:19Z</time>
      </trkpt>
      <trkpt lat="50.03317" lon="4.22486">
        <ele>273.6</ele>
        <time>2024-04-26T15:28:20Z</time>
      </trkpt>
      <trkpt lat="50.03313" lon="4.22489">
        <ele>273.6</ele>
        <time>2024-04-26T15:28:21Z</time>
      </trkpt>
      <trkpt lat="50.03309" lon="4.22493">
        <ele>273.8</ele>
        <time>2024-04-26T15:28:22Z</time>
      </trkpt>
      <trkpt lat="50.03305" lon="4.22496">
        <ele>274</ele>
        <time>2024-04-26T15:28:23Z</time>
      </trkpt>
      <trkpt lat="50.03301" lon="4.225">
        <ele>274.2</ele>
        <time>2024-04-26T15:28:24Z</time>
      </trkpt>
      <trkpt lat="50.03297" lon="4.22503">
        <ele>274.4</ele>
        <time>2024-04-26T15:28:25Z</time>
      </trkpt>
      <trkpt lat="50.03293" lon="4.22507">
        <ele>275.2</ele>
        <time>2024-04-26T15:28:26Z</time>
      </trkpt>
      <trkpt lat="50.03289" lon="4.22512">
        <ele>276</ele>
        <time>2024-04-26T15:28:27Z</time>
      </trkpt>
      <trkpt lat="50.03286" lon="4.22516">
        <ele>276.2</ele>
        <time>2024-04-26T15:28:28Z</time>
      </trkpt>
      <trkpt lat="50.03282" lon="4.2252">
        <ele>276.8</ele>
        <time>2024-04-26T15:28:29Z</time>
      </trkpt>
      <trkpt lat="50.03278" lon="4.22524">
        <ele>276.8</ele>
        <time>2024-04-26T15:28:30Z</time>
      </trkpt>
      <trkpt lat="50.03275" lon="4.22529">
        <ele>277</ele>
        <time>2024-04-26T15:28:31Z</time>
      </trkpt>
      <trkpt lat="50.03271" lon="4.22533">
        <ele>277.2</ele>
        <time>2024-04-26T15:28:32Z</time>
      </trkpt>
      <trkpt lat="50.03268" lon="4.22537">
        <ele>278</ele>
        <time>2024-04-26T15:28:33Z</time>
      </trkpt>
      <trkpt lat="50.03264" lon="4.22541">
        <ele>278.4</ele>
        <time>2024-04-26T15:28:34Z</time>
      </trkpt>
      <trkpt lat="50.03261" lon="4.22546">
        <ele>278.6</ele>
        <time>2024-04-26T15:28:35Z</time>
      </trkpt>
      <trkpt lat="50.03257" lon="4.2255">
        <ele>279.2</ele>
        <time>2024-04-26T15:28:36Z</time>
      </trkpt>
      <trkpt lat="50.03253" lon="4.22555">
        <ele>279.2</ele>
        <time>2024-04-26T15:28:37Z</time>
      </trkpt>
      <trkpt lat="50.0325" lon="4.22559">
        <ele>279.2</ele>
        <time>2024-04-26T15:28:38Z</time>
      </trkpt>
      <trkpt lat="50.03246" lon="4.22563">
        <ele>279.8</ele>
        <time>2024-04-26T15:28:39Z</time>
      </trkpt>
      <trkpt lat="50.03242" lon="4.22568">
        <ele>280</ele>
        <time>2024-04-26T15:28:40Z</time>
      </trkpt>
      <trkpt lat="50.03238" lon="4.22572">
        <ele>280.4</ele>
        <time>2024-04-26T15:28:41Z</time>
      </trkpt>
      <trkpt lat="50.03234" lon="4.22577">
        <ele>280.4</ele>
        <time>2024-04-26T15:28:42Z</time>
      </trkpt>
      <trkpt lat="50.0323" lon="4.22582">
        <ele>280.6</ele>
        <time>2024-04-26T15:28:43Z</time>
      </trkpt>
      <trkpt lat="50.03226" lon="4.22587">
        <ele>280.6</ele>
        <time>2024-04-26T15:28:44Z</time>
      </trkpt>
      <trkpt lat="50.03222" lon="4.22591">
        <ele>280.8</ele>
        <time>2024-04-26T15:28:45Z</time>
      </trkpt>
      <trkpt lat="50.03218" lon="4.22596">
        <ele>281</ele>
        <time>2024-04-26T15:28:46Z</time>
      </trkpt>
      <trkpt lat="50.03214" lon="4.22601">
        <ele>281.2</ele>
        <time>2024-04-26T15:28:47Z</time>
      </trkpt>
      <trkpt lat="50.0321" lon="4.22606">
        <ele>281.4</ele>
        <time>2024-04-26T15:28:48Z</time>
      </trkpt>
      <trkpt lat="50.03206" lon="4.22611">
        <ele>281.4</ele>
        <time>2024-04-26T15:28:49Z</time>
      </trkpt>
      <trkpt lat="50.03201" lon="4.22616">
        <ele>281.6</ele>
        <time>2024-04-26T15:28:50Z</time>
      </trkpt>
      <trkpt lat="50.03197" lon="4.22621">
        <ele>281.8</ele>
        <time>2024-04-26T15:28:51Z</time>
      </trkpt>
      <trkpt lat="50.03193" lon="4.22626">
        <ele>282</ele>
        <time>2024-04-26T15:28:52Z</time>
      </trkpt>
      <trkpt lat="50.03189" lon="4.22631">
        <ele>282.2</ele>
        <time>2024-04-26T15:28:53Z</time>
      </trkpt>
      <trkpt lat="50.03184" lon="4.22637">
        <ele>282.2</ele>
        <time>2024-04-26T15:28:54Z</time>
      </trkpt>
      <trkpt lat="50.0318" lon="4.22642">
        <ele>282.6</ele>
        <time>2024-04-26T15:28:55Z</time>
      </trkpt>
      <trkpt lat="50.03175" lon="4.22647">
        <ele>282.8</ele>
        <time>2024-04-26T15:28:56Z</time>
      </trkpt>
      <trkpt lat="50.03171" lon="4.22652">
        <ele>283</ele>
        <time>2024-04-26T15:28:57Z</time>
      </trkpt>
      <trkpt lat="50.03166" lon="4.22657">
        <ele>283.2</ele>
        <time>2024-04-26T15:28:58Z</time>
      </trkpt>
      <trkpt lat="50.03162" lon="4.22662">
        <ele>283.2</ele>
        <time>2024-04-26T15:28:59Z</time>
      </trkpt>
      <trkpt lat="50.03157" lon="4.22667">
        <ele>283.2</ele>
        <time>2024-04-26T15:29:00Z</time>
      </trkpt>
      <trkpt lat="50.03152" lon="4.22671">
        <ele>283.2</ele>
        <time>2024-04-26T15:29:01Z</time>
      </trkpt>
      <trkpt lat="50.03147" lon="4.22675">
        <ele>283.4</ele>
        <time>2024-04-26T15:29:02Z</time>
      </trkpt>
      <trkpt lat="50.03141" lon="4.22678">
        <ele>283.6</ele>
        <time>2024-04-26T15:29:03Z</time>
      </trkpt>
      <trkpt lat="50.03136" lon="4.22681">
        <ele>283.6</ele>
        <time>2024-04-26T15:29:04Z</time>
      </trkpt>
      <trkpt lat="50.0313" lon="4.22684">
        <ele>284</ele>
        <time>2024-04-26T15:29:05Z</time>
      </trkpt>
      <trkpt lat="50.03124" lon="4.22686">
        <ele>284.8</ele>
        <time>2024-04-26T15:29:06Z</time>
      </trkpt>
      <trkpt lat="50.03119" lon="4.22689">
        <ele>285</ele>
        <time>2024-04-26T15:29:07Z</time>
      </trkpt>
      <trkpt lat="50.03114" lon="4.22691">
        <ele>285.4</ele>
        <time>2024-04-26T15:29:08Z</time>
      </trkpt>
      <trkpt lat="50.03109" lon="4.22694">
        <ele>285.4</ele>
        <time>2024-04-26T15:29:09Z</time>
      </trkpt>
      <trkpt lat="50.03103" lon="4.22696">
        <ele>285.6</ele>
        <time>2024-04-26T15:29:10Z</time>
      </trkpt>
      <trkpt lat="50.03097" lon="4.22698">
        <ele>285.8</ele>
        <time>2024-04-26T15:29:11Z</time>
      </trkpt>
      <trkpt lat="50.03092" lon="4.227">
        <ele>285.8</ele>
        <time>2024-04-26T15:29:12Z</time>
      </trkpt>
      <trkpt lat="50.03086" lon="4.22703">
        <ele>286</ele>
        <time>2024-04-26T15:29:13Z</time>
      </trkpt>
      <trkpt lat="50.0308" lon="4.22705">
        <ele>286</ele>
        <time>2024-04-26T15:29:14Z</time>
      </trkpt>
      <trkpt lat="50.03074" lon="4.22708">
        <ele>286</ele>
        <time>2024-04-26T15:29:15Z</time>
      </trkpt>
      <trkpt lat="50.03068" lon="4.22711">
        <ele>286.2</ele>
        <time>2024-04-26T15:29:16Z</time>
      </trkpt>
      <trkpt lat="50.03062" lon="4.22713">
        <ele>286.2</ele>
        <time>2024-04-26T15:29:17Z</time>
      </trkpt>
      <trkpt lat="50.03055" lon="4.22716">
        <ele>286.2</ele>
        <time>2024-04-26T15:29:18Z</time>
      </trkpt>
      <trkpt lat="50.03049" lon="4.22718">
        <ele>286.2</ele>
        <time>2024-04-26T15:29:19Z</time>
      </trkpt>
      <trkpt lat="50.03043" lon="4.22721">
        <ele>286.2</ele>
        <time>2024-04-26T15:29:20Z</time>
      </trkpt>
      <trkpt lat="50.03037" lon="4.22723">
        <ele>286.2</ele>
        <time>2024-04-26T15:29:21Z</time>
      </trkpt>
      <trkpt lat="50.03031" lon="4.22725">
        <ele>286.2</ele>
        <time>2024-04-26T15:29:22Z</time>
      </trkpt>
      <trkpt lat="50.03025" lon="4.22727">
        <ele>286.2</ele>
        <time>2024-04-26T15:29:23Z</time>
      </trkpt>
      <trkpt lat="50.03019" lon="4.22729">
        <ele>286.2</ele>
        <time>2024-04-26T15:29:24Z</time>
      </trkpt>
      <trkpt lat="50.03013" lon="4.22732">
        <ele>286.4</ele>
        <time>2024-04-26T15:29:25Z</time>
      </trkpt>
      <trkpt lat="50.03007" lon="4.22734">
        <ele>286.4</ele>
        <time>2024-04-26T15:29:26Z</time>
      </trkpt>
      <trkpt lat="50.03" lon="4.22737">
        <ele>286.2</ele>
        <time>2024-04-26T15:29:27Z</time>
      </trkpt>
      <trkpt lat="50.02994" lon="4.2274">
        <ele>286.4</ele>
        <time>2024-04-26T15:29:28Z</time>
      </trkpt>
      <trkpt lat="50.02987" lon="4.22743">
        <ele>286.2</ele>
        <time>2024-04-26T15:29:29Z</time>
      </trkpt>
      <trkpt lat="50.02981" lon="4.22745">
        <ele>286.2</ele>
        <time>2024-04-26T15:29:30Z</time>
      </trkpt>
      <trkpt lat="50.02974" lon="4.22748">
        <ele>286.2</ele>
        <time>2024-04-26T15:29:31Z</time>
      </trkpt>
      <trkpt lat="50.02968" lon="4.22751">
        <ele>286</ele>
        <time>2024-04-26T15:29:32Z</time>
      </trkpt>
      <trkpt lat="50.02961" lon="4.22754">
        <ele>286</ele>
        <time>2024-04-26T15:29:33Z</time>
      </trkpt>
      <trkpt lat="50.02955" lon="4.22756">
        <ele>286</ele>
        <time>2024-04-26T15:29:34Z</time>
      </trkpt>
      <trkpt lat="50.02948" lon="4.22759">
        <ele>285.8</ele>
        <time>2024-04-26T15:29:35Z</time>
      </trkpt>
      <trkpt lat="50.02942" lon="4.22761">
        <ele>285.8</ele>
        <time>2024-04-26T15:29:36Z</time>
      </trkpt>
      <trkpt lat="50.02936" lon="4.22764">
        <ele>285.6</ele>
        <time>2024-04-26T15:29:37Z</time>
      </trkpt>
      <trkpt lat="50.02929" lon="4.22766">
        <ele>285.4</ele>
        <time>2024-04-26T15:29:38Z</time>
      </trkpt>
      <trkpt lat="50.02922" lon="4.22769">
        <ele>285.2</ele>
        <time>2024-04-26T15:29:39Z</time>
      </trkpt>
      <trkpt lat="50.02916" lon="4.22772">
        <ele>285.2</ele>
        <time>2024-04-26T15:29:40Z</time>
      </trkpt>
      <trkpt lat="50.02909" lon="4.22774">
        <ele>285</ele>
        <time>2024-04-26T15:29:41Z</time>
      </trkpt>
      <trkpt lat="50.02902" lon="4.22776">
        <ele>284.8</ele>
        <time>2024-04-26T15:29:42Z</time>
      </trkpt>
      <trkpt lat="50.02896" lon="4.22778">
        <ele>284.6</ele>
        <time>2024-04-26T15:29:43Z</time>
      </trkpt>
      <trkpt lat="50.02889" lon="4.22781">
        <ele>284.6</ele>
        <time>2024-04-26T15:29:44Z</time>
      </trkpt>
      <trkpt lat="50.02882" lon="4.22783">
        <ele>284.4</ele>
        <time>2024-04-26T15:29:45Z</time>
      </trkpt>
      <trkpt lat="50.02876" lon="4.22786">
        <ele>284.4</ele>
        <time>2024-04-26T15:29:46Z</time>
      </trkpt>
      <trkpt lat="50.02869" lon="4.2279">
        <ele>284.2</ele>
        <time>2024-04-26T15:29:47Z</time>
      </trkpt>
      <trkpt lat="50.02861" lon="4.22793">
        <ele>284.2</ele>
        <time>2024-04-26T15:29:48Z</time>
      </trkpt>
      <trkpt lat="50.02854" lon="4.22796">
        <ele>284</ele>
        <time>2024-04-26T15:29:49Z</time>
      </trkpt>
      <trkpt lat="50.02847" lon="4.22799">
        <ele>283.8</ele>
        <time>2024-04-26T15:29:50Z</time>
      </trkpt>
      <trkpt lat="50.0284" lon="4.22802">
        <ele>284</ele>
        <time>2024-04-26T15:29:51Z</time>
      </trkpt>
      <trkpt lat="50.02833" lon="4.22806">
        <ele>283.8</ele>
        <time>2024-04-26T15:29:52Z</time>
      </trkpt>
      <trkpt lat="50.02826" lon="4.22808">
        <ele>283.4</ele>
        <time>2024-04-26T15:29:53Z</time>
      </trkpt>
      <trkpt lat="50.02819" lon="4.2281">
        <ele>282.6</ele>
        <time>2024-04-26T15:29:54Z</time>
      </trkpt>
      <trkpt lat="50.02812" lon="4.22812">
        <ele>282.2</ele>
        <time>2024-04-26T15:29:55Z</time>
      </trkpt>
      <trkpt lat="50.02806" lon="4.22814">
        <ele>281.8</ele>
        <time>2024-04-26T15:29:56Z</time>
      </trkpt>
      <trkpt lat="50.02799" lon="4.22816">
        <ele>281.6</ele>
        <time>2024-04-26T15:29:57Z</time>
      </trkpt>
      <trkpt lat="50.02793" lon="4.22818">
        <ele>281.8</ele>
        <time>2024-04-26T15:29:58Z</time>
      </trkpt>
      <trkpt lat="50.02787" lon="4.2282">
        <ele>281.8</ele>
        <time>2024-04-26T15:29:59Z</time>
      </trkpt>
      <trkpt lat="50.0278" lon="4.22822">
        <ele>281.6</ele>
        <time>2024-04-26T15:30:00Z</time>
      </trkpt>
      <trkpt lat="50.02773" lon="4.22824">
        <ele>281.6</ele>
        <time>2024-04-26T15:30:01Z</time>
      </trkpt>
      <trkpt lat="50.02767" lon="4.22826">
        <ele>281.6</ele>
        <time>2024-04-26T15:30:02Z</time>
      </trkpt>
      <trkpt lat="50.0276" lon="4.22828">
        <ele>281.8</ele>
        <time>2024-04-26T15:30:03Z</time>
      </trkpt>
      <trkpt lat="50.02754" lon="4.22831">
        <ele>281.6</ele>
        <time>2024-04-26T15:30:04Z</time>
      </trkpt>
      <trkpt lat="50.02748" lon="4.22833">
        <ele>281.8</ele>
        <time>2024-04-26T15:30:05Z</time>
      </trkpt>
      <trkpt lat="50.02742" lon="4.22835">
        <ele>281.8</ele>
        <time>2024-04-26T15:30:06Z</time>
      </trkpt>
      <trkpt lat="50.02735" lon="4.22837">
        <ele>282</ele>
        <time>2024-04-26T15:30:07Z</time>
      </trkpt>
      <trkpt lat="50.02729" lon="4.22839">
        <ele>282.4</ele>
        <time>2024-04-26T15:30:08Z</time>
      </trkpt>
      <trkpt lat="50.02724" lon="4.22841">
        <ele>282.6</ele>
        <time>2024-04-26T15:30:09Z</time>
      </trkpt>
      <trkpt lat="50.02718" lon="4.22844">
        <ele>282.6</ele>
        <time>2024-04-26T15:30:10Z</time>
      </trkpt>
      <trkpt lat="50.02712" lon="4.22846">
        <ele>282.8</ele>
        <time>2024-04-26T15:30:11Z</time>
      </trkpt>
      <trkpt lat="50.02707" lon="4.22848">
        <ele>283.6</ele>
        <time>2024-04-26T15:30:12Z</time>
      </trkpt>
      <trkpt lat="50.02701" lon="4.2285">
        <ele>283.8</ele>
        <time>2024-04-26T15:30:13Z</time>
      </trkpt>
      <trkpt lat="50.02695" lon="4.22851">
        <ele>284.2</ele>
        <time>2024-04-26T15:30:14Z</time>
      </trkpt>
      <trkpt lat="50.0269" lon="4.22853">
        <ele>284.6</ele>
        <time>2024-04-26T15:30:15Z</time>
      </trkpt>
      <trkpt lat="50.02684" lon="4.22855">
        <ele>285</ele>
        <time>2024-04-26T15:30:16Z</time>
      </trkpt>
      <trkpt lat="50.02678" lon="4.22857">
        <ele>285.2</ele>
        <time>2024-04-26T15:30:17Z</time>
      </trkpt>
      <trkpt lat="50.02672" lon="4.2286">
        <ele>285.4</ele>
        <time>2024-04-26T15:30:18Z</time>
      </trkpt>
      <trkpt lat="50.02666" lon="4.22862">
        <ele>285.6</ele>
        <time>2024-04-26T15:30:19Z</time>
      </trkpt>
      <trkpt lat="50.02661" lon="4.22864">
        <ele>285.8</ele>
        <time>2024-04-26T15:30:20Z</time>
      </trkpt>
      <trkpt lat="50.02655" lon="4.22866">
        <ele>286</ele>
        <time>2024-04-26T15:30:21Z</time>
      </trkpt>
      <trkpt lat="50.0265" lon="4.22869">
        <ele>286.2</ele>
        <time>2024-04-26T15:30:22Z</time>
      </trkpt>
      <trkpt lat="50.02644" lon="4.22871">
        <ele>286.6</ele>
        <time>2024-04-26T15:30:23Z</time>
      </trkpt>
      <trkpt lat="50.02639" lon="4.22874">
        <ele>286.8</ele>
        <time>2024-04-26T15:30:24Z</time>
      </trkpt>
      <trkpt lat="50.02633" lon="4.22876">
        <ele>286.8</ele>
        <time>2024-04-26T15:30:25Z</time>
      </trkpt>
      <trkpt lat="50.02627" lon="4.22878">
        <ele>287.2</ele>
        <time>2024-04-26T15:30:26Z</time>
      </trkpt>
      <trkpt lat="50.02621" lon="4.2288">
        <ele>287.2</ele>
        <time>2024-04-26T15:30:27Z</time>
      </trkpt>
      <trkpt lat="50.02616" lon="4.22881">
        <ele>287.2</ele>
        <time>2024-04-26T15:30:28Z</time>
      </trkpt>
      <trkpt lat="50.0261" lon="4.22882">
        <ele>287.6</ele>
        <time>2024-04-26T15:30:29Z</time>
      </trkpt>
      <trkpt lat="50.02605" lon="4.22884">
        <ele>287.8</ele>
        <time>2024-04-26T15:30:30Z</time>
      </trkpt>
      <trkpt lat="50.02599" lon="4.22887">
        <ele>287.8</ele>
        <time>2024-04-26T15:30:31Z</time>
      </trkpt>
      <trkpt lat="50.02593" lon="4.22889">
        <ele>288.2</ele>
        <time>2024-04-26T15:30:32Z</time>
      </trkpt>
      <trkpt lat="50.02587" lon="4.22891">
        <ele>288.2</ele>
        <time>2024-04-26T15:30:33Z</time>
      </trkpt>
      <trkpt lat="50.02581" lon="4.22894">
        <ele>288.4</ele>
        <time>2024-04-26T15:30:34Z</time>
      </trkpt>
      <trkpt lat="50.02576" lon="4.22896">
        <ele>288.6</ele>
        <time>2024-04-26T15:30:35Z</time>
      </trkpt>
      <trkpt lat="50.0257" lon="4.22898">
        <ele>288.6</ele>
        <time>2024-04-26T15:30:36Z</time>
      </trkpt>
      <trkpt lat="50.02564" lon="4.229">
        <ele>288.8</ele>
        <time>2024-04-26T15:30:37Z</time>
      </trkpt>
      <trkpt lat="50.02558" lon="4.22903">
        <ele>289.2</ele>
        <time>2024-04-26T15:30:38Z</time>
      </trkpt>
      <trkpt lat="50.02552" lon="4.22905">
        <ele>289.4</ele>
        <time>2024-04-26T15:30:39Z</time>
      </trkpt>
      <trkpt lat="50.02546" lon="4.22907">
        <ele>289.4</ele>
        <time>2024-04-26T15:30:40Z</time>
      </trkpt>
      <trkpt lat="50.0254" lon="4.22909">
        <ele>289.4</ele>
        <time>2024-04-26T15:30:41Z</time>
      </trkpt>
      <trkpt lat="50.02534" lon="4.22911">
        <ele>289.6</ele>
        <time>2024-04-26T15:30:42Z</time>
      </trkpt>
      <trkpt lat="50.02528" lon="4.22913">
        <ele>289.8</ele>
        <time>2024-04-26T15:30:43Z</time>
      </trkpt>
      <trkpt lat="50.02521" lon="4.22916">
        <ele>289.8</ele>
        <time>2024-04-26T15:30:44Z</time>
      </trkpt>
      <trkpt lat="50.02515" lon="4.22918">
        <ele>290</ele>
        <time>2024-04-26T15:30:45Z</time>
      </trkpt>
      <trkpt lat="50.02509" lon="4.22921">
        <ele>290</ele>
        <time>2024-04-26T15:30:46Z</time>
      </trkpt>
      <trkpt lat="50.02504" lon="4.22924">
        <ele>290</ele>
        <time>2024-04-26T15:30:47Z</time>
      </trkpt>
      <trkpt lat="50.02498" lon="4.22927">
        <ele>290.2</ele>
        <time>2024-04-26T15:30:48Z</time>
      </trkpt>
      <trkpt lat="50.02492" lon="4.2293">
        <ele>290.2</ele>
        <time>2024-04-26T15:30:49Z</time>
      </trkpt>
      <trkpt lat="50.02486" lon="4.22933">
        <ele>290.4</ele>
        <time>2024-04-26T15:30:50Z</time>
      </trkpt>
      <trkpt lat="50.0248" lon="4.22935">
        <ele>290.4</ele>
        <time>2024-04-26T15:30:51Z</time>
      </trkpt>
      <trkpt lat="50.02474" lon="4.22937">
        <ele>290.4</ele>
        <time>2024-04-26T15:30:52Z</time>
      </trkpt>
      <trkpt lat="50.02468" lon="4.2294">
        <ele>290.4</ele>
        <time>2024-04-26T15:30:53Z</time>
      </trkpt>
      <trkpt lat="50.02462" lon="4.22943">
        <ele>290.4</ele>
        <time>2024-04-26T15:30:54Z</time>
      </trkpt>
      <trkpt lat="50.02456" lon="4.22945">
        <ele>290.4</ele>
        <time>2024-04-26T15:30:55Z</time>
      </trkpt>
      <trkpt lat="50.0245" lon="4.22948">
        <ele>290.6</ele>
        <time>2024-04-26T15:30:56Z</time>
      </trkpt>
      <trkpt lat="50.02445" lon="4.2295">
        <ele>290.4</ele>
        <time>2024-04-26T15:30:57Z</time>
      </trkpt>
      <trkpt lat="50.02439" lon="4.22953">
        <ele>290.4</ele>
        <time>2024-04-26T15:30:58Z</time>
      </trkpt>
      <trkpt lat="50.02433" lon="4.22956">
        <ele>290.6</ele>
        <time>2024-04-26T15:30:59Z</time>
      </trkpt>
      <trkpt lat="50.02427" lon="4.22959">
        <ele>290.6</ele>
        <time>2024-04-26T15:31:00Z</time>
      </trkpt>
      <trkpt lat="50.0242" lon="4.22961">
        <ele>290.6</ele>
        <time>2024-04-26T15:31:01Z</time>
      </trkpt>
      <trkpt lat="50.02414" lon="4.22962">
        <ele>291</ele>
        <time>2024-04-26T15:31:02Z</time>
      </trkpt>
      <trkpt lat="50.02408" lon="4.22964">
        <ele>291</ele>
        <time>2024-04-26T15:31:03Z</time>
      </trkpt>
      <trkpt lat="50.02402" lon="4.22967">
        <ele>291.2</ele>
        <time>2024-04-26T15:31:04Z</time>
      </trkpt>
      <trkpt lat="50.02396" lon="4.22969">
        <ele>291.4</ele>
        <time>2024-04-26T15:31:05Z</time>
      </trkpt>
      <trkpt lat="50.0239" lon="4.22972">
        <ele>291.6</ele>
        <time>2024-04-26T15:31:06Z</time>
      </trkpt>
      <trkpt lat="50.02384" lon="4.22974">
        <ele>291.8</ele>
        <time>2024-04-26T15:31:07Z</time>
      </trkpt>
      <trkpt lat="50.02378" lon="4.22977">
        <ele>291.8</ele>
        <time>2024-04-26T15:31:08Z</time>
      </trkpt>
      <trkpt lat="50.02371" lon="4.2298">
        <ele>292</ele>
        <time>2024-04-26T15:31:09Z</time>
      </trkpt>
      <trkpt lat="50.02364" lon="4.22982">
        <ele>292.2</ele>
        <time>2024-04-26T15:31:10Z</time>
      </trkpt>
      <trkpt lat="50.02357" lon="4.22985">
        <ele>292.2</ele>
        <time>2024-04-26T15:31:11Z</time>
      </trkpt>
      <trkpt lat="50.02351" lon="4.22987">
        <ele>292.2</ele>
        <time>2024-04-26T15:31:12Z</time>
      </trkpt>
      <trkpt lat="50.02345" lon="4.22989">
        <ele>292.2</ele>
        <time>2024-04-26T15:31:13Z</time>
      </trkpt>
      <trkpt lat="50.02339" lon="4.22991">
        <ele>292.2</ele>
        <time>2024-04-26T15:31:14Z</time>
      </trkpt>
      <trkpt lat="50.02332" lon="4.22994">
        <ele>292.4</ele>
        <time>2024-04-26T15:31:15Z</time>
      </trkpt>
      <trkpt lat="50.02326" lon="4.22996">
        <ele>292.4</ele>
        <time>2024-04-26T15:31:16Z</time>
      </trkpt>
      <trkpt lat="50.02319" lon="4.22998">
        <ele>292.6</ele>
        <time>2024-04-26T15:31:17Z</time>
      </trkpt>
      <trkpt lat="50.02312" lon="4.23">
        <ele>293.2</ele>
        <time>2024-04-26T15:31:18Z</time>
      </trkpt>
      <trkpt lat="50.02305" lon="4.23002">
        <ele>293.4</ele>
        <time>2024-04-26T15:31:19Z</time>
      </trkpt>
      <trkpt lat="50.02298" lon="4.23004">
        <ele>293.8</ele>
        <time>2024-04-26T15:31:20Z</time>
      </trkpt>
      <trkpt lat="50.02292" lon="4.23007">
        <ele>294</ele>
        <time>2024-04-26T15:31:21Z</time>
      </trkpt>
      <trkpt lat="50.02285" lon="4.23009">
        <ele>294.2</ele>
        <time>2024-04-26T15:31:22Z</time>
      </trkpt>
      <trkpt lat="50.02279" lon="4.23012">
        <ele>294.4</ele>
        <time>2024-04-26T15:31:23Z</time>
      </trkpt>
      <trkpt lat="50.02272" lon="4.23015">
        <ele>294.4</ele>
        <time>2024-04-26T15:31:24Z</time>
      </trkpt>
      <trkpt lat="50.02266" lon="4.23019">
        <ele>294.4</ele>
        <time>2024-04-26T15:31:25Z</time>
      </trkpt>
      <trkpt lat="50.02259" lon="4.23022">
        <ele>294.6</ele>
        <time>2024-04-26T15:31:26Z</time>
      </trkpt>
      <trkpt lat="50.02252" lon="4.23025">
        <ele>294.8</ele>
        <time>2024-04-26T15:31:27Z</time>
      </trkpt>
      <trkpt lat="50.02246" lon="4.23027">
        <ele>294.8</ele>
        <time>2024-04-26T15:31:28Z</time>
      </trkpt>
      <trkpt lat="50.02239" lon="4.2303">
        <ele>294.8</ele>
        <time>2024-04-26T15:31:29Z</time>
      </trkpt>
      <trkpt lat="50.02233" lon="4.23033">
        <ele>295</ele>
        <time>2024-04-26T15:31:30Z</time>
      </trkpt>
      <trkpt lat="50.02226" lon="4.23036">
        <ele>294.8</ele>
        <time>2024-04-26T15:31:31Z</time>
      </trkpt>
      <trkpt lat="50.0222" lon="4.23039">
        <ele>294.8</ele>
        <time>2024-04-26T15:31:32Z</time>
      </trkpt>
      <trkpt lat="50.02213" lon="4.23042">
        <ele>294.8</ele>
        <time>2024-04-26T15:31:33Z</time>
      </trkpt>
      <trkpt lat="50.02207" lon="4.23045">
        <ele>294.8</ele>
        <time>2024-04-26T15:31:34Z</time>
      </trkpt>
      <trkpt lat="50.022" lon="4.23048">
        <ele>294.8</ele>
        <time>2024-04-26T15:31:35Z</time>
      </trkpt>
      <trkpt lat="50.02194" lon="4.23051">
        <ele>295</ele>
        <time>2024-04-26T15:31:36Z</time>
      </trkpt>
      <trkpt lat="50.02187" lon="4.23053">
        <ele>295</ele>
        <time>2024-04-26T15:31:37Z</time>
      </trkpt>
      <trkpt lat="50.0218" lon="4.23056">
        <ele>295</ele>
        <time>2024-04-26T15:31:38Z</time>
      </trkpt>
      <trkpt lat="50.02173" lon="4.23059">
        <ele>295.2</ele>
        <time>2024-04-26T15:31:39Z</time>
      </trkpt>
      <trkpt lat="50.02167" lon="4.23063">
        <ele>295</ele>
        <time>2024-04-26T15:31:40Z</time>
      </trkpt>
      <trkpt lat="50.0216" lon="4.23065">
        <ele>295.2</ele>
        <time>2024-04-26T15:31:41Z</time>
      </trkpt>
      <trkpt lat="50.02153" lon="4.23068">
        <ele>295.2</ele>
        <time>2024-04-26T15:31:42Z</time>
      </trkpt>
      <trkpt lat="50.02146" lon="4.23071">
        <ele>295.2</ele>
        <time>2024-04-26T15:31:43Z</time>
      </trkpt>
      <trkpt lat="50.02139" lon="4.23074">
        <ele>295.2</ele>
        <time>2024-04-26T15:31:44Z</time>
      </trkpt>
      <trkpt lat="50.02132" lon="4.23077">
        <ele>295.4</ele>
        <time>2024-04-26T15:31:45Z</time>
      </trkpt>
      <trkpt lat="50.02125" lon="4.23079">
        <ele>295.2</ele>
        <time>2024-04-26T15:31:46Z</time>
      </trkpt>
      <trkpt lat="50.02118" lon="4.23082">
        <ele>295.2</ele>
        <time>2024-04-26T15:31:47Z</time>
      </trkpt>
      <trkpt lat="50.02111" lon="4.23085">
        <ele>295.2</ele>
        <time>2024-04-26T15:31:48Z</time>
      </trkpt>
      <trkpt lat="50.02104" lon="4.23088">
        <ele>295.4</ele>
        <time>2024-04-26T15:31:49Z</time>
      </trkpt>
      <trkpt lat="50.02097" lon="4.23091">
        <ele>295.4</ele>
        <time>2024-04-26T15:31:50Z</time>
      </trkpt>
      <trkpt lat="50.0209" lon="4.23093">
        <ele>295.6</ele>
        <time>2024-04-26T15:31:51Z</time>
      </trkpt>
      <trkpt lat="50.02083" lon="4.23096">
        <ele>295.4</ele>
        <time>2024-04-26T15:31:52Z</time>
      </trkpt>
      <trkpt lat="50.02076" lon="4.23098">
        <ele>295.4</ele>
        <time>2024-04-26T15:31:53Z</time>
      </trkpt>
      <trkpt lat="50.02069" lon="4.231">
        <ele>295.4</ele>
        <time>2024-04-26T15:31:54Z</time>
      </trkpt>
      <trkpt lat="50.02062" lon="4.23103">
        <ele>295.6</ele>
        <time>2024-04-26T15:31:55Z</time>
      </trkpt>
      <trkpt lat="50.02056" lon="4.23106">
        <ele>295.4</ele>
        <time>2024-04-26T15:31:56Z</time>
      </trkpt>
      <trkpt lat="50.02049" lon="4.23109">
        <ele>295.4</ele>
        <time>2024-04-26T15:31:57Z</time>
      </trkpt>
      <trkpt lat="50.02042" lon="4.23111">
        <ele>295.4</ele>
        <time>2024-04-26T15:31:58Z</time>
      </trkpt>
      <trkpt lat="50.02036" lon="4.23114">
        <ele>295.4</ele>
        <time>2024-04-26T15:31:59Z</time>
      </trkpt>
      <trkpt lat="50.02029" lon="4.23117">
        <ele>295.4</ele>
        <time>2024-04-26T15:32:00Z</time>
      </trkpt>
      <trkpt lat="50.02022" lon="4.2312">
        <ele>295.6</ele>
        <time>2024-04-26T15:32:01Z</time>
      </trkpt>
      <trkpt lat="50.02015" lon="4.23123">
        <ele>295.4</ele>
        <time>2024-04-26T15:32:02Z</time>
      </trkpt>
      <trkpt lat="50.02008" lon="4.23125">
        <ele>295.4</ele>
        <time>2024-04-26T15:32:03Z</time>
      </trkpt>
      <trkpt lat="50.02001" lon="4.23128">
        <ele>295.4</ele>
        <time>2024-04-26T15:32:04Z</time>
      </trkpt>
      <trkpt lat="50.01994" lon="4.2313">
        <ele>295.4</ele>
        <time>2024-04-26T15:32:05Z</time>
      </trkpt>
      <trkpt lat="50.01987" lon="4.23133">
        <ele>295.4</ele>
        <time>2024-04-26T15:32:06Z</time>
      </trkpt>
      <trkpt lat="50.01981" lon="4.23135">
        <ele>295.4</ele>
        <time>2024-04-26T15:32:07Z</time>
      </trkpt>
      <trkpt lat="50.01974" lon="4.23137">
        <ele>295.4</ele>
        <time>2024-04-26T15:32:08Z</time>
      </trkpt>
      <trkpt lat="50.01967" lon="4.2314">
        <ele>295.2</ele>
        <time>2024-04-26T15:32:09Z</time>
      </trkpt>
      <trkpt lat="50.0196" lon="4.23142">
        <ele>295</ele>
        <time>2024-04-26T15:32:10Z</time>
      </trkpt>
      <trkpt lat="50.01953" lon="4.23145">
        <ele>295</ele>
        <time>2024-04-26T15:32:11Z</time>
      </trkpt>
      <trkpt lat="50.01946" lon="4.23148">
        <ele>295</ele>
        <time>2024-04-26T15:32:12Z</time>
      </trkpt>
      <trkpt lat="50.01939" lon="4.23151">
        <ele>295</ele>
        <time>2024-04-26T15:32:13Z</time>
      </trkpt>
      <trkpt lat="50.01933" lon="4.23154">
        <ele>295</ele>
        <time>2024-04-26T15:32:14Z</time>
      </trkpt>
      <trkpt lat="50.01926" lon="4.23157">
        <ele>295</ele>
        <time>2024-04-26T15:32:15Z</time>
      </trkpt>
      <trkpt lat="50.0192" lon="4.2316">
        <ele>295</ele>
        <time>2024-04-26T15:32:16Z</time>
      </trkpt>
      <trkpt lat="50.01913" lon="4.23164">
        <ele>295</ele>
        <time>2024-04-26T15:32:17Z</time>
      </trkpt>
      <trkpt lat="50.01907" lon="4.23167">
        <ele>294.8</ele>
        <time>2024-04-26T15:32:18Z</time>
      </trkpt>
      <trkpt lat="50.019" lon="4.23171">
        <ele>294.6</ele>
        <time>2024-04-26T15:32:19Z</time>
      </trkpt>
      <trkpt lat="50.01893" lon="4.23176">
        <ele>294.8</ele>
        <time>2024-04-26T15:32:20Z</time>
      </trkpt>
      <trkpt lat="50.01887" lon="4.23181">
        <ele>294.6</ele>
        <time>2024-04-26T15:32:21Z</time>
      </trkpt>
      <trkpt lat="50.01881" lon="4.23187">
        <ele>294.6</ele>
        <time>2024-04-26T15:32:22Z</time>
      </trkpt>
      <trkpt lat="50.01875" lon="4.23193">
        <ele>294.4</ele>
        <time>2024-04-26T15:32:23Z</time>
      </trkpt>
      <trkpt lat="50.0187" lon="4.23201">
        <ele>294.4</ele>
        <time>2024-04-26T15:32:24Z</time>
      </trkpt>
      <trkpt lat="50.01865" lon="4.23209">
        <ele>294.4</ele>
        <time>2024-04-26T15:32:25Z</time>
      </trkpt>
      <trkpt lat="50.0186" lon="4.23218">
        <ele>294.4</ele>
        <time>2024-04-26T15:32:26Z</time>
      </trkpt>
      <trkpt lat="50.01856" lon="4.23227">
        <ele>294.4</ele>
        <time>2024-04-26T15:32:27Z</time>
      </trkpt>
      <trkpt lat="50.01852" lon="4.23237">
        <ele>294.2</ele>
        <time>2024-04-26T15:32:28Z</time>
      </trkpt>
      <trkpt lat="50.01848" lon="4.23247">
        <ele>293.8</ele>
        <time>2024-04-26T15:32:29Z</time>
      </trkpt>
      <trkpt lat="50.01845" lon="4.23259">
        <ele>293.8</ele>
        <time>2024-04-26T15:32:30Z</time>
      </trkpt>
      <trkpt lat="50.01842" lon="4.2327">
        <ele>293.8</ele>
        <time>2024-04-26T15:32:31Z</time>
      </trkpt>
      <trkpt lat="50.01838" lon="4.23282">
        <ele>293.6</ele>
        <time>2024-04-26T15:32:32Z</time>
      </trkpt>
      <trkpt lat="50.01835" lon="4.23294">
        <ele>293.4</ele>
        <time>2024-04-26T15:32:33Z</time>
      </trkpt>
      <trkpt lat="50.01832" lon="4.23306">
        <ele>293.2</ele>
        <time>2024-04-26T15:32:34Z</time>
      </trkpt>
      <trkpt lat="50.01829" lon="4.23318">
        <ele>293</ele>
        <time>2024-04-26T15:32:35Z</time>
      </trkpt>
      <trkpt lat="50.01826" lon="4.2333">
        <ele>292.8</ele>
        <time>2024-04-26T15:32:36Z</time>
      </trkpt>
      <trkpt lat="50.01823" lon="4.23342">
        <ele>292</ele>
        <time>2024-04-26T15:32:37Z</time>
      </trkpt>
      <trkpt lat="50.0182" lon="4.23354">
        <ele>292</ele>
        <time>2024-04-26T15:32:38Z</time>
      </trkpt>
      <trkpt lat="50.01817" lon="4.23367">
        <ele>291.6</ele>
        <time>2024-04-26T15:32:39Z</time>
      </trkpt>
      <trkpt lat="50.01814" lon="4.23379">
        <ele>291.2</ele>
        <time>2024-04-26T15:32:40Z</time>
      </trkpt>
      <trkpt lat="50.01811" lon="4.23392">
        <ele>290.8</ele>
        <time>2024-04-26T15:32:41Z</time>
      </trkpt>
      <trkpt lat="50.01808" lon="4.23404">
        <ele>290.6</ele>
        <time>2024-04-26T15:32:42Z</time>
      </trkpt>
      <trkpt lat="50.01805" lon="4.23417">
        <ele>290.2</ele>
        <time>2024-04-26T15:32:43Z</time>
      </trkpt>
      <trkpt lat="50.01801" lon="4.23429">
        <ele>290</ele>
        <time>2024-04-26T15:32:44Z</time>
      </trkpt>
      <trkpt lat="50.01798" lon="4.23441">
        <ele>289.6</ele>
        <time>2024-04-26T15:32:45Z</time>
      </trkpt>
      <trkpt lat="50.01795" lon="4.23454">
        <ele>288</ele>
        <time>2024-04-26T15:32:46Z</time>
      </trkpt>
      <trkpt lat="50.01791" lon="4.23466">
        <ele>287.4</ele>
        <time>2024-04-26T15:32:47Z</time>
      </trkpt>
      <trkpt lat="50.01788" lon="4.23479">
        <ele>286.8</ele>
        <time>2024-04-26T15:32:48Z</time>
      </trkpt>
      <trkpt lat="50.01785" lon="4.23492">
        <ele>286.4</ele>
        <time>2024-04-26T15:32:49Z</time>
      </trkpt>
      <trkpt lat="50.01781" lon="4.23505">
        <ele>285.4</ele>
        <time>2024-04-26T15:32:50Z</time>
      </trkpt>
      <trkpt lat="50.01778" lon="4.23519">
        <ele>284.8</ele>
        <time>2024-04-26T15:32:51Z</time>
      </trkpt>
      <trkpt lat="50.01775" lon="4.23532">
        <ele>284.2</ele>
        <time>2024-04-26T15:32:52Z</time>
      </trkpt>
      <trkpt lat="50.01772" lon="4.23545">
        <ele>284</ele>
        <time>2024-04-26T15:32:53Z</time>
      </trkpt>
      <trkpt lat="50.01769" lon="4.23558">
        <ele>283.8</ele>
        <time>2024-04-26T15:32:54Z</time>
      </trkpt>
      <trkpt lat="50.01765" lon="4.23571">
        <ele>283.2</ele>
        <time>2024-04-26T15:32:55Z</time>
      </trkpt>
      <trkpt lat="50.01762" lon="4.23585">
        <ele>282.6</ele>
        <time>2024-04-26T15:32:56Z</time>
      </trkpt>
      <trkpt lat="50.01758" lon="4.23597">
        <ele>282.4</ele>
        <time>2024-04-26T15:32:57Z</time>
      </trkpt>
      <trkpt lat="50.01755" lon="4.2361">
        <ele>282</ele>
        <time>2024-04-26T15:32:58Z</time>
      </trkpt>
      <trkpt lat="50.01752" lon="4.23622">
        <ele>282</ele>
        <time>2024-04-26T15:32:59Z</time>
      </trkpt>
      <trkpt lat="50.01749" lon="4.23634">
        <ele>281.6</ele>
        <time>2024-04-26T15:33:00Z</time>
      </trkpt>
      <trkpt lat="50.01745" lon="4.23646">
        <ele>281.4</ele>
        <time>2024-04-26T15:33:01Z</time>
      </trkpt>
      <trkpt lat="50.01742" lon="4.23656">
        <ele>281.2</ele>
        <time>2024-04-26T15:33:02Z</time>
      </trkpt>
      <trkpt lat="50.01738" lon="4.23667">
        <ele>281.4</ele>
        <time>2024-04-26T15:33:03Z</time>
      </trkpt>
      <trkpt lat="50.01735" lon="4.23677">
        <ele>281.2</ele>
        <time>2024-04-26T15:33:04Z</time>
      </trkpt>
      <trkpt lat="50.01731" lon="4.23688">
        <ele>281</ele>
        <time>2024-04-26T15:33:05Z</time>
      </trkpt>
      <trkpt lat="50.01728" lon="4.23698">
        <ele>281.2</ele>
        <time>2024-04-26T15:33:06Z</time>
      </trkpt>
      <trkpt lat="50.01724" lon="4.23708">
        <ele>281</ele>
        <time>2024-04-26T15:33:07Z</time>
      </trkpt>
      <trkpt lat="50.0172" lon="4.23717">
        <ele>281</ele>
        <time>2024-04-26T15:33:08Z</time>
      </trkpt>
      <trkpt lat="50.01717" lon="4.23727">
        <ele>281</ele>
        <time>2024-04-26T15:33:09Z</time>
      </trkpt>
      <trkpt lat="50.01713" lon="4.23737">
        <ele>281</ele>
        <time>2024-04-26T15:33:10Z</time>
      </trkpt>
      <trkpt lat="50.01709" lon="4.23747">
        <ele>281</ele>
        <time>2024-04-26T15:33:11Z</time>
      </trkpt>
      <trkpt lat="50.01705" lon="4.23757">
        <ele>280.8</ele>
        <time>2024-04-26T15:33:12Z</time>
      </trkpt>
      <trkpt lat="50.01702" lon="4.23767">
        <ele>280.8</ele>
        <time>2024-04-26T15:33:13Z</time>
      </trkpt>
      <trkpt lat="50.01698" lon="4.23777">
        <ele>281</ele>
        <time>2024-04-26T15:33:14Z</time>
      </trkpt>
      <trkpt lat="50.01695" lon="4.23788">
        <ele>280.8</ele>
        <time>2024-04-26T15:33:15Z</time>
      </trkpt>
      <trkpt lat="50.01691" lon="4.23798">
        <ele>280.8</ele>
        <time>2024-04-26T15:33:16Z</time>
      </trkpt>
      <trkpt lat="50.01688" lon="4.23809">
        <ele>280.8</ele>
        <time>2024-04-26T15:33:17Z</time>
      </trkpt>
      <trkpt lat="50.01684" lon="4.23819">
        <ele>280.6</ele>
        <time>2024-04-26T15:33:18Z</time>
      </trkpt>
      <trkpt lat="50.01678" lon="4.23827">
        <ele>280.6</ele>
        <time>2024-04-26T15:33:19Z</time>
      </trkpt>
      <trkpt lat="50.01673" lon="4.23835">
        <ele>280.4</ele>
        <time>2024-04-26T15:33:20Z</time>
      </trkpt>
      <trkpt lat="50.01669" lon="4.23842">
        <ele>280.4</ele>
        <time>2024-04-26T15:33:21Z</time>
      </trkpt>
      <trkpt lat="50.01667" lon="4.23852">
        <ele>280.2</ele>
        <time>2024-04-26T15:33:22Z</time>
      </trkpt>
      <trkpt lat="50.01668" lon="4.23862">
        <ele>279.4</ele>
        <time>2024-04-26T15:33:23Z</time>
      </trkpt>
      <trkpt lat="50.01669" lon="4.23872">
        <ele>279</ele>
        <time>2024-04-26T15:33:24Z</time>
      </trkpt>
      <trkpt lat="50.01671" lon="4.23883">
        <ele>278.6</ele>
        <time>2024-04-26T15:33:25Z</time>
      </trkpt>
      <trkpt lat="50.01672" lon="4.23895">
        <ele>278.6</ele>
        <time>2024-04-26T15:33:26Z</time>
      </trkpt>
      <trkpt lat="50.01674" lon="4.23906">
        <ele>278.4</ele>
        <time>2024-04-26T15:33:27Z</time>
      </trkpt>
      <trkpt lat="50.01676" lon="4.23917">
        <ele>278</ele>
        <time>2024-04-26T15:33:28Z</time>
      </trkpt>
      <trkpt lat="50.01678" lon="4.23928">
        <ele>277.8</ele>
        <time>2024-04-26T15:33:29Z</time>
      </trkpt>
      <trkpt lat="50.0168" lon="4.23939">
        <ele>277.6</ele>
        <time>2024-04-26T15:33:30Z</time>
      </trkpt>
      <trkpt lat="50.01682" lon="4.2395">
        <ele>277.8</ele>
        <time>2024-04-26T15:33:31Z</time>
      </trkpt>
      <trkpt lat="50.01683" lon="4.2396">
        <ele>277.6</ele>
        <time>2024-04-26T15:33:32Z</time>
      </trkpt>
      <trkpt lat="50.01686" lon="4.2397">
        <ele>277.6</ele>
        <time>2024-04-26T15:33:33Z</time>
      </trkpt>
      <trkpt lat="50.01688" lon="4.23979">
        <ele>277.6</ele>
        <time>2024-04-26T15:33:34Z</time>
      </trkpt>
      <trkpt lat="50.01691" lon="4.23987">
        <ele>277.6</ele>
        <time>2024-04-26T15:33:35Z</time>
      </trkpt>
      <trkpt lat="50.01694" lon="4.23995">
        <ele>277.4</ele>
        <time>2024-04-26T15:33:36Z</time>
      </trkpt>
      <trkpt lat="50.01697" lon="4.24003">
        <ele>277.6</ele>
        <time>2024-04-26T15:33:37Z</time>
      </trkpt>
      <trkpt lat="50.01701" lon="4.2401">
        <ele>277.6</ele>
        <time>2024-04-26T15:33:38Z</time>
      </trkpt>
      <trkpt lat="50.01704" lon="4.24018">
        <ele>277.4</ele>
        <time>2024-04-26T15:33:39Z</time>
      </trkpt>
      <trkpt lat="50.01707" lon="4.24025">
        <ele>277.8</ele>
        <time>2024-04-26T15:33:40Z</time>
      </trkpt>
      <trkpt lat="50.01711" lon="4.24032">
        <ele>277.6</ele>
        <time>2024-04-26T15:33:41Z</time>
      </trkpt>
      <trkpt lat="50.01714" lon="4.24039">
        <ele>277.8</ele>
        <time>2024-04-26T15:33:42Z</time>
      </trkpt>
      <trkpt lat="50.01718" lon="4.24046">
        <ele>277.8</ele>
        <time>2024-04-26T15:33:43Z</time>
      </trkpt>
      <trkpt lat="50.01721" lon="4.24053">
        <ele>278.2</ele>
        <time>2024-04-26T15:33:44Z</time>
      </trkpt>
      <trkpt lat="50.01725" lon="4.24059">
        <ele>278.6</ele>
        <time>2024-04-26T15:33:45Z</time>
      </trkpt>
      <trkpt lat="50.01728" lon="4.24066">
        <ele>279</ele>
        <time>2024-04-26T15:33:46Z</time>
      </trkpt>
      <trkpt lat="50.01731" lon="4.24072">
        <ele>279.2</ele>
        <time>2024-04-26T15:33:47Z</time>
      </trkpt>
      <trkpt lat="50.01735" lon="4.24078">
        <ele>279.6</ele>
        <time>2024-04-26T15:33:48Z</time>
      </trkpt>
      <trkpt lat="50.01738" lon="4.24084">
        <ele>280</ele>
        <time>2024-04-26T15:33:49Z</time>
      </trkpt>
      <trkpt lat="50.01741" lon="4.24091">
        <ele>280.6</ele>
        <time>2024-04-26T15:33:50Z</time>
      </trkpt>
      <trkpt lat="50.01744" lon="4.24097">
        <ele>280.8</ele>
        <time>2024-04-26T15:33:51Z</time>
      </trkpt>
      <trkpt lat="50.01747" lon="4.24104">
        <ele>281.2</ele>
        <time>2024-04-26T15:33:52Z</time>
      </trkpt>
      <trkpt lat="50.0175" lon="4.2411">
        <ele>281.2</ele>
        <time>2024-04-26T15:33:53Z</time>
      </trkpt>
      <trkpt lat="50.01753" lon="4.24117">
        <ele>281.8</ele>
        <time>2024-04-26T15:33:54Z</time>
      </trkpt>
      <trkpt lat="50.01756" lon="4.24124">
        <ele>282.2</ele>
        <time>2024-04-26T15:33:55Z</time>
      </trkpt>
      <trkpt lat="50.01758" lon="4.24131">
        <ele>282.6</ele>
        <time>2024-04-26T15:33:56Z</time>
      </trkpt>
      <trkpt lat="50.0176" lon="4.24139">
        <ele>283</ele>
        <time>2024-04-26T15:33:57Z</time>
      </trkpt>
      <trkpt lat="50.01763" lon="4.24146">
        <ele>283.4</ele>
        <time>2024-04-26T15:33:58Z</time>
      </trkpt>
      <trkpt lat="50.01765" lon="4.24153">
        <ele>283.6</ele>
        <time>2024-04-26T15:33:59Z</time>
      </trkpt>
      <trkpt lat="50.01767" lon="4.2416">
        <ele>284</ele>
        <time>2024-04-26T15:34:00Z</time>
      </trkpt>
      <trkpt lat="50.01769" lon="4.24168">
        <ele>284</ele>
        <time>2024-04-26T15:34:01Z</time>
      </trkpt>
      <trkpt lat="50.01771" lon="4.24175">
        <ele>284</ele>
        <time>2024-04-26T15:34:02Z</time>
      </trkpt>
      <trkpt lat="50.01772" lon="4.24183">
        <ele>284.4</ele>
        <time>2024-04-26T15:34:03Z</time>
      </trkpt>
      <trkpt lat="50.01774" lon="4.2419">
        <ele>284.6</ele>
        <time>2024-04-26T15:34:04Z</time>
      </trkpt>
      <trkpt lat="50.01776" lon="4.24197">
        <ele>284.6</ele>
        <time>2024-04-26T15:34:05Z</time>
      </trkpt>
      <trkpt lat="50.01778" lon="4.24204">
        <ele>284.8</ele>
        <time>2024-04-26T15:34:06Z</time>
      </trkpt>
      <trkpt lat="50.0178" lon="4.24212">
        <ele>285.2</ele>
        <time>2024-04-26T15:34:07Z</time>
      </trkpt>
      <trkpt lat="50.01783" lon="4.24219">
        <ele>285.4</ele>
        <time>2024-04-26T15:34:08Z</time>
      </trkpt>
      <trkpt lat="50.01785" lon="4.24227">
        <ele>286</ele>
        <time>2024-04-26T15:34:09Z</time>
      </trkpt>
      <trkpt lat="50.01787" lon="4.24235">
        <ele>286.6</ele>
        <time>2024-04-26T15:34:10Z</time>
      </trkpt>
      <trkpt lat="50.01789" lon="4.24243">
        <ele>287</ele>
        <time>2024-04-26T15:34:11Z</time>
      </trkpt>
      <trkpt lat="50.01791" lon="4.24251">
        <ele>287</ele>
        <time>2024-04-26T15:34:12Z</time>
      </trkpt>
      <trkpt lat="50.01794" lon="4.2426">
        <ele>287.2</ele>
        <time>2024-04-26T15:34:13Z</time>
      </trkpt>
      <trkpt lat="50.01796" lon="4.24268">
        <ele>287.6</ele>
        <time>2024-04-26T15:34:14Z</time>
      </trkpt>
      <trkpt lat="50.01799" lon="4.24277">
        <ele>287.6</ele>
        <time>2024-04-26T15:34:15Z</time>
      </trkpt>
      <trkpt lat="50.01801" lon="4.24285">
        <ele>288</ele>
        <time>2024-04-26T15:34:16Z</time>
      </trkpt>
      <trkpt lat="50.01803" lon="4.24294">
        <ele>288.6</ele>
        <time>2024-04-26T15:34:17Z</time>
      </trkpt>
      <trkpt lat="50.01806" lon="4.24303">
        <ele>289</ele>
        <time>2024-04-26T15:34:18Z</time>
      </trkpt>
      <trkpt lat="50.01808" lon="4.24311">
        <ele>289.2</ele>
        <time>2024-04-26T15:34:19Z</time>
      </trkpt>
      <trkpt lat="50.0181" lon="4.2432">
        <ele>289.2</ele>
        <time>2024-04-26T15:34:20Z</time>
      </trkpt>
      <trkpt lat="50.01813" lon="4.24329">
        <ele>289.4</ele>
        <time>2024-04-26T15:34:21Z</time>
      </trkpt>
      <trkpt lat="50.01815" lon="4.24337">
        <ele>289.6</ele>
        <time>2024-04-26T15:34:22Z</time>
      </trkpt>
      <trkpt lat="50.01818" lon="4.24346">
        <ele>289.6</ele>
        <time>2024-04-26T15:34:23Z</time>
      </trkpt>
      <trkpt lat="50.0182" lon="4.24355">
        <ele>289.6</ele>
        <time>2024-04-26T15:34:24Z</time>
      </trkpt>
      <trkpt lat="50.01823" lon="4.24365">
        <ele>289.8</ele>
        <time>2024-04-26T15:34:25Z</time>
      </trkpt>
      <trkpt lat="50.01826" lon="4.24374">
        <ele>290</ele>
        <time>2024-04-26T15:34:26Z</time>
      </trkpt>
      <trkpt lat="50.01829" lon="4.24383">
        <ele>290</ele>
        <time>2024-04-26T15:34:27Z</time>
      </trkpt>
      <trkpt lat="50.01831" lon="4.24393">
        <ele>290.2</ele>
        <time>2024-04-26T15:34:28Z</time>
      </trkpt>
      <trkpt lat="50.01834" lon="4.24402">
        <ele>290.4</ele>
        <time>2024-04-26T15:34:29Z</time>
      </trkpt>
      <trkpt lat="50.01837" lon="4.24412">
        <ele>290.6</ele>
        <time>2024-04-26T15:34:30Z</time>
      </trkpt>
      <trkpt lat="50.01839" lon="4.24421">
        <ele>290.6</ele>
        <time>2024-04-26T15:34:31Z</time>
      </trkpt>
      <trkpt lat="50.01842" lon="4.24431">
        <ele>290.8</ele>
        <time>2024-04-26T15:34:32Z</time>
      </trkpt>
      <trkpt lat="50.01844" lon="4.24441">
        <ele>290.8</ele>
        <time>2024-04-26T15:34:33Z</time>
      </trkpt>
      <trkpt lat="50.01846" lon="4.2445">
        <ele>290.8</ele>
        <time>2024-04-26T15:34:34Z</time>
      </trkpt>
      <trkpt lat="50.01848" lon="4.2446">
        <ele>291</ele>
        <time>2024-04-26T15:34:35Z</time>
      </trkpt>
      <trkpt lat="50.0185" lon="4.2447">
        <ele>290.8</ele>
        <time>2024-04-26T15:34:36Z</time>
      </trkpt>
      <trkpt lat="50.01851" lon="4.24481">
        <ele>291</ele>
        <time>2024-04-26T15:34:37Z</time>
      </trkpt>
      <trkpt lat="50.01853" lon="4.24491">
        <ele>291</ele>
        <time>2024-04-26T15:34:38Z</time>
      </trkpt>
      <trkpt lat="50.01854" lon="4.24501">
        <ele>291</ele>
        <time>2024-04-26T15:34:39Z</time>
      </trkpt>
      <trkpt lat="50.01855" lon="4.24512">
        <ele>291</ele>
        <time>2024-04-26T15:34:40Z</time>
      </trkpt>
      <trkpt lat="50.01855" lon="4.24522">
        <ele>291</ele>
        <time>2024-04-26T15:34:41Z</time>
      </trkpt>
      <trkpt lat="50.01856" lon="4.24533">
        <ele>291.2</ele>
        <time>2024-04-26T15:34:42Z</time>
      </trkpt>
      <trkpt lat="50.01856" lon="4.24543">
        <ele>291.2</ele>
        <time>2024-04-26T15:34:43Z</time>
      </trkpt>
      <trkpt lat="50.01856" lon="4.24553">
        <ele>291.4</ele>
        <time>2024-04-26T15:34:44Z</time>
      </trkpt>
      <trkpt lat="50.01856" lon="4.24564">
        <ele>291.4</ele>
        <time>2024-04-26T15:34:45Z</time>
      </trkpt>
      <trkpt lat="50.01856" lon="4.24574">
        <ele>291.4</ele>
        <time>2024-04-26T15:34:46Z</time>
      </trkpt>
      <trkpt lat="50.01856" lon="4.24584">
        <ele>291.4</ele>
        <time>2024-04-26T15:34:47Z</time>
      </trkpt>
      <trkpt lat="50.01856" lon="4.24595">
        <ele>291.4</ele>
        <time>2024-04-26T15:34:48Z</time>
      </trkpt>
      <trkpt lat="50.01855" lon="4.24605">
        <ele>291.4</ele>
        <time>2024-04-26T15:34:49Z</time>
      </trkpt>
      <trkpt lat="50.01855" lon="4.24615">
        <ele>291.4</ele>
        <time>2024-04-26T15:34:50Z</time>
      </trkpt>
      <trkpt lat="50.01854" lon="4.24626">
        <ele>291.4</ele>
        <time>2024-04-26T15:34:51Z</time>
      </trkpt>
      <trkpt lat="50.01853" lon="4.24636">
        <ele>291.4</ele>
        <time>2024-04-26T15:34:52Z</time>
      </trkpt>
      <trkpt lat="50.01851" lon="4.24646">
        <ele>291.4</ele>
        <time>2024-04-26T15:34:53Z</time>
      </trkpt>
      <trkpt lat="50.01849" lon="4.24656">
        <ele>291.4</ele>
        <time>2024-04-26T15:34:54Z</time>
      </trkpt>
      <trkpt lat="50.01846" lon="4.24666">
        <ele>291.4</ele>
        <time>2024-04-26T15:34:55Z</time>
      </trkpt>
      <trkpt lat="50.01844" lon="4.24675">
        <ele>291.4</ele>
        <time>2024-04-26T15:34:56Z</time>
      </trkpt>
      <trkpt lat="50.01841" lon="4.24685">
        <ele>291.4</ele>
        <time>2024-04-26T15:34:57Z</time>
      </trkpt>
      <trkpt lat="50.01837" lon="4.24693">
        <ele>291.6</ele>
        <time>2024-04-26T15:34:58Z</time>
      </trkpt>
      <trkpt lat="50.01834" lon="4.24702">
        <ele>291.4</ele>
        <time>2024-04-26T15:34:59Z</time>
      </trkpt>
      <trkpt lat="50.0183" lon="4.2471">
        <ele>291.6</ele>
        <time>2024-04-26T15:35:00Z</time>
      </trkpt>
      <trkpt lat="50.01826" lon="4.24718">
        <ele>291.6</ele>
        <time>2024-04-26T15:35:01Z</time>
      </trkpt>
      <trkpt lat="50.01822" lon="4.24726">
        <ele>291.6</ele>
        <time>2024-04-26T15:35:02Z</time>
      </trkpt>
      <trkpt lat="50.01818" lon="4.24733">
        <ele>291.6</ele>
        <time>2024-04-26T15:35:03Z</time>
      </trkpt>
      <trkpt lat="50.01814" lon="4.2474">
        <ele>291.8</ele>
        <time>2024-04-26T15:35:04Z</time>
      </trkpt>
      <trkpt lat="50.01809" lon="4.24747">
        <ele>291.8</ele>
        <time>2024-04-26T15:35:05Z</time>
      </trkpt>
      <trkpt lat="50.01805" lon="4.24754">
        <ele>292.6</ele>
        <time>2024-04-26T15:35:06Z</time>
      </trkpt>
      <trkpt lat="50.01801" lon="4.24761">
        <ele>293.2</ele>
        <time>2024-04-26T15:35:07Z</time>
      </trkpt>
      <trkpt lat="50.01796" lon="4.24768">
        <ele>293.6</ele>
        <time>2024-04-26T15:35:08Z</time>
      </trkpt>
      <trkpt lat="50.01791" lon="4.24774">
        <ele>293.6</ele>
        <time>2024-04-26T15:35:09Z</time>
      </trkpt>
      <trkpt lat="50.01786" lon="4.2478">
        <ele>293.8</ele>
        <time>2024-04-26T15:35:10Z</time>
      </trkpt>
      <trkpt lat="50.01782" lon="4.24787">
        <ele>293.8</ele>
        <time>2024-04-26T15:35:11Z</time>
      </trkpt>
      <trkpt lat="50.01777" lon="4.24793">
        <ele>294</ele>
        <time>2024-04-26T15:35:12Z</time>
      </trkpt>
      <trkpt lat="50.01772" lon="4.24799">
        <ele>294</ele>
        <time>2024-04-26T15:35:13Z</time>
      </trkpt>
      <trkpt lat="50.01767" lon="4.24805">
        <ele>294.2</ele>
        <time>2024-04-26T15:35:14Z</time>
      </trkpt>
      <trkpt lat="50.01761" lon="4.2481">
        <ele>294.2</ele>
        <time>2024-04-26T15:35:15Z</time>
      </trkpt>
      <trkpt lat="50.01756" lon="4.24816">
        <ele>294.6</ele>
        <time>2024-04-26T15:35:16Z</time>
      </trkpt>
      <trkpt lat="50.01751" lon="4.24821">
        <ele>295</ele>
        <time>2024-04-26T15:35:17Z</time>
      </trkpt>
      <trkpt lat="50.01745" lon="4.24827">
        <ele>295.2</ele>
        <time>2024-04-26T15:35:18Z</time>
      </trkpt>
      <trkpt lat="50.0174" lon="4.24832">
        <ele>295.2</ele>
        <time>2024-04-26T15:35:19Z</time>
      </trkpt>
      <trkpt lat="50.01734" lon="4.24838">
        <ele>295.4</ele>
        <time>2024-04-26T15:35:20Z</time>
      </trkpt>
      <trkpt lat="50.01729" lon="4.24843">
        <ele>295.8</ele>
        <time>2024-04-26T15:35:21Z</time>
      </trkpt>
      <trkpt lat="50.01724" lon="4.24849">
        <ele>295.8</ele>
        <time>2024-04-26T15:35:22Z</time>
      </trkpt>
      <trkpt lat="50.01718" lon="4.24855">
        <ele>296</ele>
        <time>2024-04-26T15:35:23Z</time>
      </trkpt>
      <trkpt lat="50.01713" lon="4.24861">
        <ele>296.2</ele>
        <time>2024-04-26T15:35:24Z</time>
      </trkpt>
      <trkpt lat="50.01707" lon="4.24867">
        <ele>296.4</ele>
        <time>2024-04-26T15:35:25Z</time>
      </trkpt>
      <trkpt lat="50.01702" lon="4.24873">
        <ele>296.4</ele>
        <time>2024-04-26T15:35:26Z</time>
      </trkpt>
      <trkpt lat="50.01696" lon="4.2488">
        <ele>296.4</ele>
        <time>2024-04-26T15:35:27Z</time>
      </trkpt>
      <trkpt lat="50.01691" lon="4.24887">
        <ele>296.6</ele>
        <time>2024-04-26T15:35:28Z</time>
      </trkpt>
      <trkpt lat="50.01686" lon="4.24894">
        <ele>296.6</ele>
        <time>2024-04-26T15:35:29Z</time>
      </trkpt>
      <trkpt lat="50.01681" lon="4.24902">
        <ele>296.8</ele>
        <time>2024-04-26T15:35:30Z</time>
      </trkpt>
      <trkpt lat="50.01676" lon="4.2491">
        <ele>296.8</ele>
        <time>2024-04-26T15:35:31Z</time>
      </trkpt>
      <trkpt lat="50.01672" lon="4.24919">
        <ele>297</ele>
        <time>2024-04-26T15:35:32Z</time>
      </trkpt>
      <trkpt lat="50.01667" lon="4.24928">
        <ele>297</ele>
        <time>2024-04-26T15:35:33Z</time>
      </trkpt>
      <trkpt lat="50.01663" lon="4.24937">
        <ele>297</ele>
        <time>2024-04-26T15:35:34Z</time>
      </trkpt>
      <trkpt lat="50.0166" lon="4.24947">
        <ele>297</ele>
        <time>2024-04-26T15:35:35Z</time>
      </trkpt>
      <trkpt lat="50.01656" lon="4.24956">
        <ele>297</ele>
        <time>2024-04-26T15:35:36Z</time>
      </trkpt>
      <trkpt lat="50.01653" lon="4.24966">
        <ele>297</ele>
        <time>2024-04-26T15:35:37Z</time>
      </trkpt>
      <trkpt lat="50.0165" lon="4.24976">
        <ele>296.8</ele>
        <time>2024-04-26T15:35:38Z</time>
      </trkpt>
      <trkpt lat="50.01648" lon="4.24986">
        <ele>296.8</ele>
        <time>2024-04-26T15:35:39Z</time>
      </trkpt>
      <trkpt lat="50.01645" lon="4.24996">
        <ele>296.8</ele>
        <time>2024-04-26T15:35:40Z</time>
      </trkpt>
      <trkpt lat="50.01643" lon="4.25006">
        <ele>296.6</ele>
        <time>2024-04-26T15:35:41Z</time>
      </trkpt>
      <trkpt lat="50.0164" lon="4.25016">
        <ele>296.6</ele>
        <time>2024-04-26T15:35:42Z</time>
      </trkpt>
      <trkpt lat="50.01638" lon="4.25026">
        <ele>296.6</ele>
        <time>2024-04-26T15:35:43Z</time>
      </trkpt>
      <trkpt lat="50.01636" lon="4.25036">
        <ele>296.6</ele>
        <time>2024-04-26T15:35:44Z</time>
      </trkpt>
      <trkpt lat="50.01633" lon="4.25046">
        <ele>296.6</ele>
        <time>2024-04-26T15:35:45Z</time>
      </trkpt>
      <trkpt lat="50.01631" lon="4.25056">
        <ele>296.2</ele>
        <time>2024-04-26T15:35:46Z</time>
      </trkpt>
      <trkpt lat="50.01629" lon="4.25066">
        <ele>296.2</ele>
        <time>2024-04-26T15:35:47Z</time>
      </trkpt>
      <trkpt lat="50.01627" lon="4.25076">
        <ele>296</ele>
        <time>2024-04-26T15:35:48Z</time>
      </trkpt>
      <trkpt lat="50.01625" lon="4.25086">
        <ele>295.8</ele>
        <time>2024-04-26T15:35:49Z</time>
      </trkpt>
      <trkpt lat="50.01623" lon="4.25096">
        <ele>295.8</ele>
        <time>2024-04-26T15:35:50Z</time>
      </trkpt>
      <trkpt lat="50.01621" lon="4.25106">
        <ele>295.6</ele>
        <time>2024-04-26T15:35:51Z</time>
      </trkpt>
      <trkpt lat="50.01618" lon="4.25116">
        <ele>295.4</ele>
        <time>2024-04-26T15:35:52Z</time>
      </trkpt>
      <trkpt lat="50.01616" lon="4.25126">
        <ele>295.4</ele>
        <time>2024-04-26T15:35:53Z</time>
      </trkpt>
      <trkpt lat="50.01614" lon="4.25136">
        <ele>295.2</ele>
        <time>2024-04-26T15:35:54Z</time>
      </trkpt>
      <trkpt lat="50.01612" lon="4.25146">
        <ele>295.2</ele>
        <time>2024-04-26T15:35:55Z</time>
      </trkpt>
      <trkpt lat="50.0161" lon="4.25156">
        <ele>295</ele>
        <time>2024-04-26T15:35:56Z</time>
      </trkpt>
      <trkpt lat="50.01607" lon="4.25166">
        <ele>294.8</ele>
        <time>2024-04-26T15:35:57Z</time>
      </trkpt>
      <trkpt lat="50.01605" lon="4.25176">
        <ele>294.6</ele>
        <time>2024-04-26T15:35:58Z</time>
      </trkpt>
      <trkpt lat="50.01603" lon="4.25186">
        <ele>294.8</ele>
        <time>2024-04-26T15:35:59Z</time>
      </trkpt>
      <trkpt lat="50.01601" lon="4.25196">
        <ele>294.6</ele>
        <time>2024-04-26T15:36:00Z</time>
      </trkpt>
      <trkpt lat="50.01598" lon="4.25206">
        <ele>294.6</ele>
        <time>2024-04-26T15:36:01Z</time>
      </trkpt>
      <trkpt lat="50.01596" lon="4.25216">
        <ele>294.6</ele>
        <time>2024-04-26T15:36:02Z</time>
      </trkpt>
      <trkpt lat="50.01594" lon="4.25226">
        <ele>294.2</ele>
        <time>2024-04-26T15:36:03Z</time>
      </trkpt>
      <trkpt lat="50.01591" lon="4.25237">
        <ele>294.2</ele>
        <time>2024-04-26T15:36:04Z</time>
      </trkpt>
      <trkpt lat="50.01589" lon="4.25247">
        <ele>294.2</ele>
        <time>2024-04-26T15:36:05Z</time>
      </trkpt>
      <trkpt lat="50.01586" lon="4.25258">
        <ele>294</ele>
        <time>2024-04-26T15:36:06Z</time>
      </trkpt>
      <trkpt lat="50.01584" lon="4.25268">
        <ele>293.2</ele>
        <time>2024-04-26T15:36:07Z</time>
      </trkpt>
      <trkpt lat="50.01582" lon="4.25279">
        <ele>292.8</ele>
        <time>2024-04-26T15:36:08Z</time>
      </trkpt>
      <trkpt lat="50.01579" lon="4.2529">
        <ele>292.6</ele>
        <time>2024-04-26T15:36:09Z</time>
      </trkpt>
      <trkpt lat="50.01577" lon="4.25301">
        <ele>292.2</ele>
        <time>2024-04-26T15:36:10Z</time>
      </trkpt>
      <trkpt lat="50.01575" lon="4.25311">
        <ele>291.8</ele>
        <time>2024-04-26T15:36:11Z</time>
      </trkpt>
      <trkpt lat="50.01573" lon="4.25323">
        <ele>291.8</ele>
        <time>2024-04-26T15:36:12Z</time>
      </trkpt>
      <trkpt lat="50.01571" lon="4.25333">
        <ele>291.6</ele>
        <time>2024-04-26T15:36:13Z</time>
      </trkpt>
      <trkpt lat="50.01568" lon="4.25345">
        <ele>291.4</ele>
        <time>2024-04-26T15:36:14Z</time>
      </trkpt>
      <trkpt lat="50.01566" lon="4.25356">
        <ele>291.4</ele>
        <time>2024-04-26T15:36:15Z</time>
      </trkpt>
      <trkpt lat="50.01564" lon="4.25367">
        <ele>291.4</ele>
        <time>2024-04-26T15:36:16Z</time>
      </trkpt>
      <trkpt lat="50.01561" lon="4.25377">
        <ele>291.4</ele>
        <time>2024-04-26T15:36:17Z</time>
      </trkpt>
      <trkpt lat="50.01559" lon="4.25388">
        <ele>291.4</ele>
        <time>2024-04-26T15:36:18Z</time>
      </trkpt>
      <trkpt lat="50.01557" lon="4.25397">
        <ele>291</ele>
        <time>2024-04-26T15:36:19Z</time>
      </trkpt>
      <trkpt lat="50.01555" lon="4.25406">
        <ele>291</ele>
        <time>2024-04-26T15:36:20Z</time>
      </trkpt>
      <trkpt lat="50.01554" lon="4.25415">
        <ele>290.8</ele>
        <time>2024-04-26T15:36:21Z</time>
      </trkpt>
      <trkpt lat="50.01554" lon="4.25423">
        <ele>290.6</ele>
        <time>2024-04-26T15:36:22Z</time>
      </trkpt>
      <trkpt lat="50.01557" lon="4.25431">
        <ele>290.6</ele>
        <time>2024-04-26T15:36:23Z</time>
      </trkpt>
      <trkpt lat="50.0156" lon="4.25439">
        <ele>290.6</ele>
        <time>2024-04-26T15:36:24Z</time>
      </trkpt>
      <trkpt lat="50.01565" lon="4.25446">
        <ele>290.2</ele>
        <time>2024-04-26T15:36:25Z</time>
      </trkpt>
      <trkpt lat="50.01571" lon="4.25453">
        <ele>290.2</ele>
        <time>2024-04-26T15:36:26Z</time>
      </trkpt>
      <trkpt lat="50.01576" lon="4.2546">
        <ele>290.2</ele>
        <time>2024-04-26T15:36:27Z</time>
      </trkpt>
      <trkpt lat="50.01581" lon="4.25469">
        <ele>289.8</ele>
        <time>2024-04-26T15:36:28Z</time>
      </trkpt>
      <trkpt lat="50.01584" lon="4.25479">
        <ele>289.8</ele>
        <time>2024-04-26T15:36:29Z</time>
      </trkpt>
      <trkpt lat="50.01586" lon="4.2549">
        <ele>289.8</ele>
        <time>2024-04-26T15:36:30Z</time>
      </trkpt>
      <trkpt lat="50.01585" lon="4.25501">
        <ele>289.6</ele>
        <time>2024-04-26T15:36:31Z</time>
      </trkpt>
      <trkpt lat="50.01583" lon="4.25512">
        <ele>289.6</ele>
        <time>2024-04-26T15:36:32Z</time>
      </trkpt>
      <trkpt lat="50.0158" lon="4.25522">
        <ele>289.2</ele>
        <time>2024-04-26T15:36:33Z</time>
      </trkpt>
      <trkpt lat="50.01578" lon="4.25533">
        <ele>289.2</ele>
        <time>2024-04-26T15:36:34Z</time>
      </trkpt>
      <trkpt lat="50.01575" lon="4.25543">
        <ele>289.2</ele>
        <time>2024-04-26T15:36:35Z</time>
      </trkpt>
      <trkpt lat="50.01573" lon="4.25554">
        <ele>288.6</ele>
        <time>2024-04-26T15:36:36Z</time>
      </trkpt>
      <trkpt lat="50.0157" lon="4.25565">
        <ele>288.2</ele>
        <time>2024-04-26T15:36:37Z</time>
      </trkpt>
      <trkpt lat="50.01568" lon="4.25576">
        <ele>288</ele>
        <time>2024-04-26T15:36:38Z</time>
      </trkpt>
      <trkpt lat="50.01566" lon="4.25587">
        <ele>287.8</ele>
        <time>2024-04-26T15:36:39Z</time>
      </trkpt>
      <trkpt lat="50.01563" lon="4.25598">
        <ele>287.8</ele>
        <time>2024-04-26T15:36:40Z</time>
      </trkpt>
      <trkpt lat="50.0156" lon="4.25608">
        <ele>287.4</ele>
        <time>2024-04-26T15:36:41Z</time>
      </trkpt>
      <trkpt lat="50.01556" lon="4.25615">
        <ele>287.4</ele>
        <time>2024-04-26T15:36:42Z</time>
      </trkpt>
      <trkpt lat="50.01553" lon="4.25618">
        <ele>286.8</ele>
        <time>2024-04-26T15:36:43Z</time>
      </trkpt>
      <trkpt lat="50.01551" lon="4.2562">
        <ele>286.2</ele>
        <time>2024-04-26T15:36:44Z</time>
      </trkpt>
      <trkpt lat="50.01551" lon="4.2562">
        <ele>285.8</ele>
        <time>2024-04-26T15:36:45Z</time>
      </trkpt>
      <trkpt lat="50.0155" lon="4.2562">
        <ele>285.6</ele>
        <time>2024-04-26T15:36:46Z</time>
      </trkpt>
      <trkpt lat="50.01549" lon="4.25621">
        <ele>285</ele>
        <time>2024-04-26T15:36:47Z</time>
      </trkpt>
      <trkpt lat="50.01547" lon="4.25622">
        <ele>284.8</ele>
        <time>2024-04-26T15:36:48Z</time>
      </trkpt>
      <trkpt lat="50.01544" lon="4.25623">
        <ele>284.4</ele>
        <time>2024-04-26T15:36:49Z</time>
      </trkpt>
      <trkpt lat="50.0154" lon="4.25622">
        <ele>284.2</ele>
        <time>2024-04-26T15:36:50Z</time>
      </trkpt>
      <trkpt lat="50.01536" lon="4.25622">
        <ele>284.4</ele>
        <time>2024-04-26T15:36:51Z</time>
      </trkpt>
      <trkpt lat="50.01531" lon="4.25623">
        <ele>284</ele>
        <time>2024-04-26T15:36:52Z</time>
      </trkpt>
      <trkpt lat="50.01526" lon="4.25627">
        <ele>283.8</ele>
        <time>2024-04-26T15:36:53Z</time>
      </trkpt>
      <trkpt lat="50.01522" lon="4.25634">
        <ele>283.6</ele>
        <time>2024-04-26T15:36:54Z</time>
      </trkpt>
      <trkpt lat="50.01518" lon="4.25642">
        <ele>283.4</ele>
        <time>2024-04-26T15:36:55Z</time>
      </trkpt>
      <trkpt lat="50.01514" lon="4.25651">
        <ele>283.4</ele>
        <time>2024-04-26T15:36:56Z</time>
      </trkpt>
      <trkpt lat="50.0151" lon="4.25661">
        <ele>283</ele>
        <time>2024-04-26T15:36:57Z</time>
      </trkpt>
      <trkpt lat="50.01505" lon="4.25671">
        <ele>282.8</ele>
        <time>2024-04-26T15:36:58Z</time>
      </trkpt>
      <trkpt lat="50.015" lon="4.25682">
        <ele>282.8</ele>
        <time>2024-04-26T15:36:59Z</time>
      </trkpt>
      <trkpt lat="50.01495" lon="4.25692">
        <ele>282.4</ele>
        <time>2024-04-26T15:37:00Z</time>
      </trkpt>
      <trkpt lat="50.01489" lon="4.25703">
        <ele>282</ele>
        <time>2024-04-26T15:37:01Z</time>
      </trkpt>
      <trkpt lat="50.01484" lon="4.25714">
        <ele>282</ele>
        <time>2024-04-26T15:37:02Z</time>
      </trkpt>
      <trkpt lat="50.01479" lon="4.25725">
        <ele>281.8</ele>
        <time>2024-04-26T15:37:03Z</time>
      </trkpt>
      <trkpt lat="50.01474" lon="4.25737">
        <ele>281.4</ele>
        <time>2024-04-26T15:37:04Z</time>
      </trkpt>
      <trkpt lat="50.01469" lon="4.25749">
        <ele>281.2</ele>
        <time>2024-04-26T15:37:05Z</time>
      </trkpt>
      <trkpt lat="50.01465" lon="4.25761">
        <ele>280.8</ele>
        <time>2024-04-26T15:37:06Z</time>
      </trkpt>
      <trkpt lat="50.01462" lon="4.25772">
        <ele>279.8</ele>
        <time>2024-04-26T15:37:07Z</time>
      </trkpt>
      <trkpt lat="50.01459" lon="4.25783">
        <ele>279.2</ele>
        <time>2024-04-26T15:37:08Z</time>
      </trkpt>
      <trkpt lat="50.01457" lon="4.25794">
        <ele>278.8</ele>
        <time>2024-04-26T15:37:09Z</time>
      </trkpt>
      <trkpt lat="50.01455" lon="4.25805">
        <ele>278.2</ele>
        <time>2024-04-26T15:37:10Z</time>
      </trkpt>
      <trkpt lat="50.01454" lon="4.25815">
        <ele>278</ele>
        <time>2024-04-26T15:37:11Z</time>
      </trkpt>
      <trkpt lat="50.01453" lon="4.25825">
        <ele>278</ele>
        <time>2024-04-26T15:37:12Z</time>
      </trkpt>
      <trkpt lat="50.01452" lon="4.25836">
        <ele>278</ele>
        <time>2024-04-26T15:37:13Z</time>
      </trkpt>
      <trkpt lat="50.01451" lon="4.25846">
        <ele>278</ele>
        <time>2024-04-26T15:37:14Z</time>
      </trkpt>
      <trkpt lat="50.0145" lon="4.25856">
        <ele>278</ele>
        <time>2024-04-26T15:37:15Z</time>
      </trkpt>
      <trkpt lat="50.0145" lon="4.25866">
        <ele>278</ele>
        <time>2024-04-26T15:37:16Z</time>
      </trkpt>
      <trkpt lat="50.01449" lon="4.25877">
        <ele>278</ele>
        <time>2024-04-26T15:37:17Z</time>
      </trkpt>
      <trkpt lat="50.01449" lon="4.25887">
        <ele>278</ele>
        <time>2024-04-26T15:37:18Z</time>
      </trkpt>
      <trkpt lat="50.01448" lon="4.25897">
        <ele>278</ele>
        <time>2024-04-26T15:37:19Z</time>
      </trkpt>
      <trkpt lat="50.01448" lon="4.25908">
        <ele>278.2</ele>
        <time>2024-04-26T15:37:20Z</time>
      </trkpt>
      <trkpt lat="50.01447" lon="4.25918">
        <ele>278.4</ele>
        <time>2024-04-26T15:37:21Z</time>
      </trkpt>
      <trkpt lat="50.01447" lon="4.25928">
        <ele>278.8</ele>
        <time>2024-04-26T15:37:22Z</time>
      </trkpt>
      <trkpt lat="50.01446" lon="4.25938">
        <ele>279</ele>
        <time>2024-04-26T15:37:23Z</time>
      </trkpt>
      <trkpt lat="50.01445" lon="4.25948">
        <ele>279</ele>
        <time>2024-04-26T15:37:24Z</time>
      </trkpt>
      <trkpt lat="50.01443" lon="4.25958">
        <ele>279</ele>
        <time>2024-04-26T15:37:25Z</time>
      </trkpt>
      <trkpt lat="50.01442" lon="4.25968">
        <ele>279.2</ele>
        <time>2024-04-26T15:37:26Z</time>
      </trkpt>
      <trkpt lat="50.0144" lon="4.25978">
        <ele>279.2</ele>
        <time>2024-04-26T15:37:27Z</time>
      </trkpt>
      <trkpt lat="50.01438" lon="4.25987">
        <ele>279.2</ele>
        <time>2024-04-26T15:37:28Z</time>
      </trkpt>
      <trkpt lat="50.01435" lon="4.25996">
        <ele>279.2</ele>
        <time>2024-04-26T15:37:29Z</time>
      </trkpt>
      <trkpt lat="50.01432" lon="4.26005">
        <ele>279.4</ele>
        <time>2024-04-26T15:37:30Z</time>
      </trkpt>
      <trkpt lat="50.01429" lon="4.26014">
        <ele>279.6</ele>
        <time>2024-04-26T15:37:31Z</time>
      </trkpt>
      <trkpt lat="50.01426" lon="4.26023">
        <ele>279.8</ele>
        <time>2024-04-26T15:37:32Z</time>
      </trkpt>
      <trkpt lat="50.01423" lon="4.26032">
        <ele>280.2</ele>
        <time>2024-04-26T15:37:33Z</time>
      </trkpt>
      <trkpt lat="50.0142" lon="4.2604">
        <ele>280.4</ele>
        <time>2024-04-26T15:37:34Z</time>
      </trkpt>
      <trkpt lat="50.01417" lon="4.26049">
        <ele>280.8</ele>
        <time>2024-04-26T15:37:35Z</time>
      </trkpt>
      <trkpt lat="50.01414" lon="4.26058">
        <ele>280.8</ele>
        <time>2024-04-26T15:37:36Z</time>
      </trkpt>
      <trkpt lat="50.0141" lon="4.26066">
        <ele>281</ele>
        <time>2024-04-26T15:37:37Z</time>
      </trkpt>
      <trkpt lat="50.01407" lon="4.26075">
        <ele>281</ele>
        <time>2024-04-26T15:37:38Z</time>
      </trkpt>
      <trkpt lat="50.01404" lon="4.26084">
        <ele>281.4</ele>
        <time>2024-04-26T15:37:39Z</time>
      </trkpt>
      <trkpt lat="50.014" lon="4.26092">
        <ele>281.6</ele>
        <time>2024-04-26T15:37:40Z</time>
      </trkpt>
      <trkpt lat="50.01397" lon="4.26101">
        <ele>281.6</ele>
        <time>2024-04-26T15:37:41Z</time>
      </trkpt>
      <trkpt lat="50.01394" lon="4.2611">
        <ele>281.8</ele>
        <time>2024-04-26T15:37:42Z</time>
      </trkpt>
      <trkpt lat="50.0139" lon="4.26119">
        <ele>281.8</ele>
        <time>2024-04-26T15:37:43Z</time>
      </trkpt>
      <trkpt lat="50.01387" lon="4.26128">
        <ele>282</ele>
        <time>2024-04-26T15:37:44Z</time>
      </trkpt>
      <trkpt lat="50.01383" lon="4.26137">
        <ele>282</ele>
        <time>2024-04-26T15:37:45Z</time>
      </trkpt>
      <trkpt lat="50.0138" lon="4.26147">
        <ele>282</ele>
        <time>2024-04-26T15:37:46Z</time>
      </trkpt>
      <trkpt lat="50.01376" lon="4.26156">
        <ele>282.2</ele>
        <time>2024-04-26T15:37:47Z</time>
      </trkpt>
      <trkpt lat="50.01373" lon="4.26166">
        <ele>282.4</ele>
        <time>2024-04-26T15:37:48Z</time>
      </trkpt>
      <trkpt lat="50.01369" lon="4.26176">
        <ele>282.4</ele>
        <time>2024-04-26T15:37:49Z</time>
      </trkpt>
      <trkpt lat="50.01365" lon="4.26186">
        <ele>282.4</ele>
        <time>2024-04-26T15:37:50Z</time>
      </trkpt>
      <trkpt lat="50.01362" lon="4.26196">
        <ele>282.4</ele>
        <time>2024-04-26T15:37:51Z</time>
      </trkpt>
      <trkpt lat="50.01358" lon="4.26206">
        <ele>282.4</ele>
        <time>2024-04-26T15:37:52Z</time>
      </trkpt>
      <trkpt lat="50.01354" lon="4.26216">
        <ele>282.4</ele>
        <time>2024-04-26T15:37:53Z</time>
      </trkpt>
      <trkpt lat="50.0135" lon="4.26226">
        <ele>282.4</ele>
        <time>2024-04-26T15:37:54Z</time>
      </trkpt>
      <trkpt lat="50.01346" lon="4.26236">
        <ele>282.2</ele>
        <time>2024-04-26T15:37:55Z</time>
      </trkpt>
      <trkpt lat="50.01342" lon="4.26246">
        <ele>282.2</ele>
        <time>2024-04-26T15:37:56Z</time>
      </trkpt>
      <trkpt lat="50.01339" lon="4.26257">
        <ele>282.2</ele>
        <time>2024-04-26T15:37:57Z</time>
      </trkpt>
      <trkpt lat="50.01335" lon="4.26267">
        <ele>282</ele>
        <time>2024-04-26T15:37:58Z</time>
      </trkpt>
      <trkpt lat="50.01331" lon="4.26277">
        <ele>282</ele>
        <time>2024-04-26T15:37:59Z</time>
      </trkpt>
      <trkpt lat="50.01328" lon="4.26288">
        <ele>281.8</ele>
        <time>2024-04-26T15:38:00Z</time>
      </trkpt>
      <trkpt lat="50.01324" lon="4.26298">
        <ele>281.2</ele>
        <time>2024-04-26T15:38:01Z</time>
      </trkpt>
      <trkpt lat="50.01321" lon="4.26309">
        <ele>281</ele>
        <time>2024-04-26T15:38:02Z</time>
      </trkpt>
      <trkpt lat="50.01318" lon="4.2632">
        <ele>280.8</ele>
        <time>2024-04-26T15:38:03Z</time>
      </trkpt>
      <trkpt lat="50.01315" lon="4.26331">
        <ele>280.4</ele>
        <time>2024-04-26T15:38:04Z</time>
      </trkpt>
      <trkpt lat="50.01312" lon="4.26342">
        <ele>280.4</ele>
        <time>2024-04-26T15:38:05Z</time>
      </trkpt>
      <trkpt lat="50.0131" lon="4.26353">
        <ele>280.2</ele>
        <time>2024-04-26T15:38:06Z</time>
      </trkpt>
      <trkpt lat="50.01307" lon="4.26364">
        <ele>280.2</ele>
        <time>2024-04-26T15:38:07Z</time>
      </trkpt>
      <trkpt lat="50.01305" lon="4.26376">
        <ele>279.8</ele>
        <time>2024-04-26T15:38:08Z</time>
      </trkpt>
      <trkpt lat="50.01303" lon="4.26387">
        <ele>279.6</ele>
        <time>2024-04-26T15:38:09Z</time>
      </trkpt>
      <trkpt lat="50.01302" lon="4.26398">
        <ele>279.6</ele>
        <time>2024-04-26T15:38:10Z</time>
      </trkpt>
      <trkpt lat="50.013" lon="4.2641">
        <ele>279.4</ele>
        <time>2024-04-26T15:38:11Z</time>
      </trkpt>
      <trkpt lat="50.01298" lon="4.26421">
        <ele>279</ele>
        <time>2024-04-26T15:38:12Z</time>
      </trkpt>
      <trkpt lat="50.01297" lon="4.26432">
        <ele>278.8</ele>
        <time>2024-04-26T15:38:13Z</time>
      </trkpt>
      <trkpt lat="50.01295" lon="4.26443">
        <ele>279</ele>
        <time>2024-04-26T15:38:14Z</time>
      </trkpt>
      <trkpt lat="50.01294" lon="4.26453">
        <ele>278.8</ele>
        <time>2024-04-26T15:38:15Z</time>
      </trkpt>
      <trkpt lat="50.01293" lon="4.26464">
        <ele>278.6</ele>
        <time>2024-04-26T15:38:16Z</time>
      </trkpt>
      <trkpt lat="50.01292" lon="4.26474">
        <ele>278.8</ele>
        <time>2024-04-26T15:38:17Z</time>
      </trkpt>
      <trkpt lat="50.0129" lon="4.26484">
        <ele>278.8</ele>
        <time>2024-04-26T15:38:18Z</time>
      </trkpt>
      <trkpt lat="50.01289" lon="4.26494">
        <ele>278.8</ele>
        <time>2024-04-26T15:38:19Z</time>
      </trkpt>
      <trkpt lat="50.01287" lon="4.26503">
        <ele>278.8</ele>
        <time>2024-04-26T15:38:20Z</time>
      </trkpt>
      <trkpt lat="50.01286" lon="4.26512">
        <ele>278.8</ele>
        <time>2024-04-26T15:38:21Z</time>
      </trkpt>
      <trkpt lat="50.01284" lon="4.26521">
        <ele>278.8</ele>
        <time>2024-04-26T15:38:22Z</time>
      </trkpt>
      <trkpt lat="50.01282" lon="4.2653">
        <ele>278.8</ele>
        <time>2024-04-26T15:38:23Z</time>
      </trkpt>
      <trkpt lat="50.01281" lon="4.26538">
        <ele>278.6</ele>
        <time>2024-04-26T15:38:24Z</time>
      </trkpt>
      <trkpt lat="50.01279" lon="4.26547">
        <ele>279</ele>
        <time>2024-04-26T15:38:25Z</time>
      </trkpt>
      <trkpt lat="50.01276" lon="4.26555">
        <ele>279.4</ele>
        <time>2024-04-26T15:38:26Z</time>
      </trkpt>
      <trkpt lat="50.01274" lon="4.26563">
        <ele>279.6</ele>
        <time>2024-04-26T15:38:27Z</time>
      </trkpt>
      <trkpt lat="50.01272" lon="4.2657">
        <ele>279.8</ele>
        <time>2024-04-26T15:38:28Z</time>
      </trkpt>
      <trkpt lat="50.01269" lon="4.26578">
        <ele>279.8</ele>
        <time>2024-04-26T15:38:29Z</time>
      </trkpt>
      <trkpt lat="50.01267" lon="4.26585">
        <ele>280.2</ele>
        <time>2024-04-26T15:38:30Z</time>
      </trkpt>
      <trkpt lat="50.01264" lon="4.26592">
        <ele>280.6</ele>
        <time>2024-04-26T15:38:31Z</time>
      </trkpt>
      <trkpt lat="50.01262" lon="4.26599">
        <ele>281</ele>
        <time>2024-04-26T15:38:32Z</time>
      </trkpt>
      <trkpt lat="50.01259" lon="4.26606">
        <ele>281</ele>
        <time>2024-04-26T15:38:33Z</time>
      </trkpt>
      <trkpt lat="50.01256" lon="4.26613">
        <ele>281.2</ele>
        <time>2024-04-26T15:38:34Z</time>
      </trkpt>
      <trkpt lat="50.01253" lon="4.2662">
        <ele>281.4</ele>
        <time>2024-04-26T15:38:35Z</time>
      </trkpt>
      <trkpt lat="50.01251" lon="4.26626">
        <ele>281.6</ele>
        <time>2024-04-26T15:38:36Z</time>
      </trkpt>
      <trkpt lat="50.01248" lon="4.26633">
        <ele>281.8</ele>
        <time>2024-04-26T15:38:37Z</time>
      </trkpt>
      <trkpt lat="50.01245" lon="4.2664">
        <ele>282.2</ele>
        <time>2024-04-26T15:38:38Z</time>
      </trkpt>
      <trkpt lat="50.01242" lon="4.26646">
        <ele>282.6</ele>
        <time>2024-04-26T15:38:39Z</time>
      </trkpt>
      <trkpt lat="50.0124" lon="4.26653">
        <ele>283</ele>
        <time>2024-04-26T15:38:40Z</time>
      </trkpt>
      <trkpt lat="50.01237" lon="4.26659">
        <ele>283</ele>
        <time>2024-04-26T15:38:41Z</time>
      </trkpt>
      <trkpt lat="50.01235" lon="4.26666">
        <ele>283.6</ele>
        <time>2024-04-26T15:38:42Z</time>
      </trkpt>
      <trkpt lat="50.01232" lon="4.26672">
        <ele>284.4</ele>
        <time>2024-04-26T15:38:43Z</time>
      </trkpt>
      <trkpt lat="50.01229" lon="4.26679">
        <ele>285</ele>
        <time>2024-04-26T15:38:44Z</time>
      </trkpt>
      <trkpt lat="50.01226" lon="4.26685">
        <ele>285.4</ele>
        <time>2024-04-26T15:38:45Z</time>
      </trkpt>
      <trkpt lat="50.01224" lon="4.26691">
        <ele>285.6</ele>
        <time>2024-04-26T15:38:46Z</time>
      </trkpt>
      <trkpt lat="50.01221" lon="4.26698">
        <ele>286</ele>
        <time>2024-04-26T15:38:47Z</time>
      </trkpt>
      <trkpt lat="50.01219" lon="4.26705">
        <ele>286</ele>
        <time>2024-04-26T15:38:48Z</time>
      </trkpt>
      <trkpt lat="50.01216" lon="4.26711">
        <ele>286.2</ele>
        <time>2024-04-26T15:38:49Z</time>
      </trkpt>
      <trkpt lat="50.01213" lon="4.26718">
        <ele>286.6</ele>
        <time>2024-04-26T15:38:50Z</time>
      </trkpt>
      <trkpt lat="50.01211" lon="4.26724">
        <ele>287.2</ele>
        <time>2024-04-26T15:38:51Z</time>
      </trkpt>
      <trkpt lat="50.01208" lon="4.2673">
        <ele>287.2</ele>
        <time>2024-04-26T15:38:52Z</time>
      </trkpt>
      <trkpt lat="50.01205" lon="4.26737">
        <ele>287.4</ele>
        <time>2024-04-26T15:38:53Z</time>
      </trkpt>
      <trkpt lat="50.01203" lon="4.26743">
        <ele>287.8</ele>
        <time>2024-04-26T15:38:54Z</time>
      </trkpt>
      <trkpt lat="50.012" lon="4.2675">
        <ele>288</ele>
        <time>2024-04-26T15:38:55Z</time>
      </trkpt>
      <trkpt lat="50.01197" lon="4.26757">
        <ele>288.6</ele>
        <time>2024-04-26T15:38:56Z</time>
      </trkpt>
      <trkpt lat="50.01195" lon="4.26763">
        <ele>288.8</ele>
        <time>2024-04-26T15:38:57Z</time>
      </trkpt>
      <trkpt lat="50.01192" lon="4.2677">
        <ele>289</ele>
        <time>2024-04-26T15:38:58Z</time>
      </trkpt>
      <trkpt lat="50.01189" lon="4.26777">
        <ele>289</ele>
        <time>2024-04-26T15:38:59Z</time>
      </trkpt>
      <trkpt lat="50.01186" lon="4.26783">
        <ele>289.4</ele>
        <time>2024-04-26T15:39:00Z</time>
      </trkpt>
      <trkpt lat="50.01184" lon="4.2679">
        <ele>289.8</ele>
        <time>2024-04-26T15:39:01Z</time>
      </trkpt>
      <trkpt lat="50.01181" lon="4.26796">
        <ele>289.8</ele>
        <time>2024-04-26T15:39:02Z</time>
      </trkpt>
      <trkpt lat="50.01179" lon="4.26803">
        <ele>290.2</ele>
        <time>2024-04-26T15:39:03Z</time>
      </trkpt>
      <trkpt lat="50.01176" lon="4.26809">
        <ele>290.6</ele>
        <time>2024-04-26T15:39:04Z</time>
      </trkpt>
      <trkpt lat="50.01173" lon="4.26816">
        <ele>291</ele>
        <time>2024-04-26T15:39:05Z</time>
      </trkpt>
      <trkpt lat="50.0117" lon="4.26822">
        <ele>291.2</ele>
        <time>2024-04-26T15:39:06Z</time>
      </trkpt>
      <trkpt lat="50.01168" lon="4.26829">
        <ele>291.2</ele>
        <time>2024-04-26T15:39:07Z</time>
      </trkpt>
      <trkpt lat="50.01165" lon="4.26835">
        <ele>291.6</ele>
        <time>2024-04-26T15:39:08Z</time>
      </trkpt>
      <trkpt lat="50.01163" lon="4.26842">
        <ele>291.4</ele>
        <time>2024-04-26T15:39:09Z</time>
      </trkpt>
      <trkpt lat="50.0116" lon="4.26848">
        <ele>291.8</ele>
        <time>2024-04-26T15:39:10Z</time>
      </trkpt>
      <trkpt lat="50.01157" lon="4.26855">
        <ele>292</ele>
        <time>2024-04-26T15:39:11Z</time>
      </trkpt>
      <trkpt lat="50.01154" lon="4.26862">
        <ele>292.2</ele>
        <time>2024-04-26T15:39:12Z</time>
      </trkpt>
      <trkpt lat="50.01151" lon="4.26869">
        <ele>292.2</ele>
        <time>2024-04-26T15:39:13Z</time>
      </trkpt>
      <trkpt lat="50.01149" lon="4.26876">
        <ele>292.2</ele>
        <time>2024-04-26T15:39:14Z</time>
      </trkpt>
      <trkpt lat="50.01146" lon="4.26883">
        <ele>292.4</ele>
        <time>2024-04-26T15:39:15Z</time>
      </trkpt>
      <trkpt lat="50.01142" lon="4.2689">
        <ele>292.6</ele>
        <time>2024-04-26T15:39:16Z</time>
      </trkpt>
      <trkpt lat="50.01139" lon="4.26898">
        <ele>292.8</ele>
        <time>2024-04-26T15:39:17Z</time>
      </trkpt>
      <trkpt lat="50.01136" lon="4.26905">
        <ele>293</ele>
        <time>2024-04-26T15:39:18Z</time>
      </trkpt>
      <trkpt lat="50.01133" lon="4.26913">
        <ele>293.2</ele>
        <time>2024-04-26T15:39:19Z</time>
      </trkpt>
      <trkpt lat="50.0113" lon="4.26921">
        <ele>293.4</ele>
        <time>2024-04-26T15:39:20Z</time>
      </trkpt>
      <trkpt lat="50.01127" lon="4.26929">
        <ele>293.6</ele>
        <time>2024-04-26T15:39:21Z</time>
      </trkpt>
      <trkpt lat="50.01123" lon="4.26938">
        <ele>293.8</ele>
        <time>2024-04-26T15:39:22Z</time>
      </trkpt>
      <trkpt lat="50.0112" lon="4.26947">
        <ele>294</ele>
        <time>2024-04-26T15:39:23Z</time>
      </trkpt>
      <trkpt lat="50.01116" lon="4.26955">
        <ele>294.2</ele>
        <time>2024-04-26T15:39:24Z</time>
      </trkpt>
      <trkpt lat="50.01113" lon="4.26964">
        <ele>294.2</ele>
        <time>2024-04-26T15:39:25Z</time>
      </trkpt>
      <trkpt lat="50.0111" lon="4.26972">
        <ele>294.2</ele>
        <time>2024-04-26T15:39:26Z</time>
      </trkpt>
      <trkpt lat="50.01106" lon="4.2698">
        <ele>294.4</ele>
        <time>2024-04-26T15:39:27Z</time>
      </trkpt>
      <trkpt lat="50.01103" lon="4.26988">
        <ele>294.6</ele>
        <time>2024-04-26T15:39:28Z</time>
      </trkpt>
      <trkpt lat="50.011" lon="4.26996">
        <ele>294.4</ele>
        <time>2024-04-26T15:39:29Z</time>
      </trkpt>
      <trkpt lat="50.01097" lon="4.27004">
        <ele>294.6</ele>
        <time>2024-04-26T15:39:30Z</time>
      </trkpt>
      <trkpt lat="50.01095" lon="4.27011">
        <ele>294.4</ele>
        <time>2024-04-26T15:39:31Z</time>
      </trkpt>
      <trkpt lat="50.01092" lon="4.27019">
        <ele>294.6</ele>
        <time>2024-04-26T15:39:32Z</time>
      </trkpt>
      <trkpt lat="50.0109" lon="4.27027">
        <ele>294.6</ele>
        <time>2024-04-26T15:39:33Z</time>
      </trkpt>
      <trkpt lat="50.01087" lon="4.27036">
        <ele>294.6</ele>
        <time>2024-04-26T15:39:34Z</time>
      </trkpt>
      <trkpt lat="50.01085" lon="4.27045">
        <ele>294.6</ele>
        <time>2024-04-26T15:39:35Z</time>
      </trkpt>
      <trkpt lat="50.01083" lon="4.27055">
        <ele>294.6</ele>
        <time>2024-04-26T15:39:36Z</time>
      </trkpt>
      <trkpt lat="50.01081" lon="4.27065">
        <ele>294.6</ele>
        <time>2024-04-26T15:39:37Z</time>
      </trkpt>
      <trkpt lat="50.01079" lon="4.27076">
        <ele>294.6</ele>
        <time>2024-04-26T15:39:38Z</time>
      </trkpt>
      <trkpt lat="50.01077" lon="4.27086">
        <ele>294.6</ele>
        <time>2024-04-26T15:39:39Z</time>
      </trkpt>
      <trkpt lat="50.01075" lon="4.27097">
        <ele>294.6</ele>
        <time>2024-04-26T15:39:40Z</time>
      </trkpt>
      <trkpt lat="50.01074" lon="4.27108">
        <ele>294.4</ele>
        <time>2024-04-26T15:39:41Z</time>
      </trkpt>
      <trkpt lat="50.01073" lon="4.2712">
        <ele>294.4</ele>
        <time>2024-04-26T15:39:42Z</time>
      </trkpt>
      <trkpt lat="50.01072" lon="4.27131">
        <ele>294.4</ele>
        <time>2024-04-26T15:39:43Z</time>
      </trkpt>
      <trkpt lat="50.01072" lon="4.27143">
        <ele>294.4</ele>
        <time>2024-04-26T15:39:44Z</time>
      </trkpt>
      <trkpt lat="50.01072" lon="4.27155">
        <ele>294.2</ele>
        <time>2024-04-26T15:39:45Z</time>
      </trkpt>
      <trkpt lat="50.01072" lon="4.27167">
        <ele>293.8</ele>
        <time>2024-04-26T15:39:46Z</time>
      </trkpt>
      <trkpt lat="50.01073" lon="4.27179">
        <ele>293.6</ele>
        <time>2024-04-26T15:39:47Z</time>
      </trkpt>
      <trkpt lat="50.01073" lon="4.27191">
        <ele>293.4</ele>
        <time>2024-04-26T15:39:48Z</time>
      </trkpt>
      <trkpt lat="50.01074" lon="4.27204">
        <ele>293.2</ele>
        <time>2024-04-26T15:39:49Z</time>
      </trkpt>
      <trkpt lat="50.01076" lon="4.27217">
        <ele>292.6</ele>
        <time>2024-04-26T15:39:50Z</time>
      </trkpt>
      <trkpt lat="50.01078" lon="4.27229">
        <ele>292.4</ele>
        <time>2024-04-26T15:39:51Z</time>
      </trkpt>
      <trkpt lat="50.0108" lon="4.27242">
        <ele>292.4</ele>
        <time>2024-04-26T15:39:52Z</time>
      </trkpt>
      <trkpt lat="50.01082" lon="4.27256">
        <ele>292</ele>
        <time>2024-04-26T15:39:53Z</time>
      </trkpt>
      <trkpt lat="50.01084" lon="4.27269">
        <ele>291.8</ele>
        <time>2024-04-26T15:39:54Z</time>
      </trkpt>
      <trkpt lat="50.01087" lon="4.27282">
        <ele>291.8</ele>
        <time>2024-04-26T15:39:55Z</time>
      </trkpt>
      <trkpt lat="50.0109" lon="4.27295">
        <ele>291.8</ele>
        <time>2024-04-26T15:39:56Z</time>
      </trkpt>
      <trkpt lat="50.01092" lon="4.27308">
        <ele>291.6</ele>
        <time>2024-04-26T15:39:57Z</time>
      </trkpt>
      <trkpt lat="50.01095" lon="4.27322">
        <ele>291.2</ele>
        <time>2024-04-26T15:39:58Z</time>
      </trkpt>
      <trkpt lat="50.01098" lon="4.27335">
        <ele>291</ele>
        <time>2024-04-26T15:39:59Z</time>
      </trkpt>
      <trkpt lat="50.01101" lon="4.27349">
        <ele>290.6</ele>
        <time>2024-04-26T15:40:00Z</time>
      </trkpt>
      <trkpt lat="50.01104" lon="4.27362">
        <ele>290.2</ele>
        <time>2024-04-26T15:40:01Z</time>
      </trkpt>
      <trkpt lat="50.01107" lon="4.27376">
        <ele>289.4</ele>
        <time>2024-04-26T15:40:02Z</time>
      </trkpt>
      <trkpt lat="50.0111" lon="4.27389">
        <ele>289</ele>
        <time>2024-04-26T15:40:03Z</time>
      </trkpt>
      <trkpt lat="50.01112" lon="4.27401">
        <ele>288.8</ele>
        <time>2024-04-26T15:40:04Z</time>
      </trkpt>
      <trkpt lat="50.01115" lon="4.27413">
        <ele>288.4</ele>
        <time>2024-04-26T15:40:05Z</time>
      </trkpt>
      <trkpt lat="50.01118" lon="4.27425">
        <ele>288.2</ele>
        <time>2024-04-26T15:40:06Z</time>
      </trkpt>
      <trkpt lat="50.0112" lon="4.27437">
        <ele>288.2</ele>
        <time>2024-04-26T15:40:07Z</time>
      </trkpt>
      <trkpt lat="50.01123" lon="4.27448">
        <ele>288.2</ele>
        <time>2024-04-26T15:40:08Z</time>
      </trkpt>
      <trkpt lat="50.01125" lon="4.2746">
        <ele>288</ele>
        <time>2024-04-26T15:40:09Z</time>
      </trkpt>
      <trkpt lat="50.01128" lon="4.27471">
        <ele>288.2</ele>
        <time>2024-04-26T15:40:10Z</time>
      </trkpt>
      <trkpt lat="50.0113" lon="4.27482">
        <ele>288.2</ele>
        <time>2024-04-26T15:40:11Z</time>
      </trkpt>
      <trkpt lat="50.01132" lon="4.27493">
        <ele>288.2</ele>
        <time>2024-04-26T15:40:12Z</time>
      </trkpt>
      <trkpt lat="50.01135" lon="4.27503">
        <ele>288</ele>
        <time>2024-04-26T15:40:13Z</time>
      </trkpt>
      <trkpt lat="50.01137" lon="4.27514">
        <ele>288</ele>
        <time>2024-04-26T15:40:14Z</time>
      </trkpt>
      <trkpt lat="50.01139" lon="4.27524">
        <ele>287.8</ele>
        <time>2024-04-26T15:40:15Z</time>
      </trkpt>
      <trkpt lat="50.01141" lon="4.27534">
        <ele>288</ele>
        <time>2024-04-26T15:40:16Z</time>
      </trkpt>
      <trkpt lat="50.01144" lon="4.27545">
        <ele>288</ele>
        <time>2024-04-26T15:40:17Z</time>
      </trkpt>
      <trkpt lat="50.01146" lon="4.27555">
        <ele>288</ele>
        <time>2024-04-26T15:40:18Z</time>
      </trkpt>
      <trkpt lat="50.01148" lon="4.27565">
        <ele>287.8</ele>
        <time>2024-04-26T15:40:19Z</time>
      </trkpt>
      <trkpt lat="50.0115" lon="4.27575">
        <ele>287.8</ele>
        <time>2024-04-26T15:40:20Z</time>
      </trkpt>
      <trkpt lat="50.01152" lon="4.27585">
        <ele>287.8</ele>
        <time>2024-04-26T15:40:21Z</time>
      </trkpt>
      <trkpt lat="50.01155" lon="4.27595">
        <ele>288</ele>
        <time>2024-04-26T15:40:22Z</time>
      </trkpt>
      <trkpt lat="50.01157" lon="4.27605">
        <ele>287.8</ele>
        <time>2024-04-26T15:40:23Z</time>
      </trkpt>
      <trkpt lat="50.01159" lon="4.27616">
        <ele>287.8</ele>
        <time>2024-04-26T15:40:24Z</time>
      </trkpt>
      <trkpt lat="50.01161" lon="4.27626">
        <ele>287.8</ele>
        <time>2024-04-26T15:40:25Z</time>
      </trkpt>
      <trkpt lat="50.01164" lon="4.27636">
        <ele>287.6</ele>
        <time>2024-04-26T15:40:26Z</time>
      </trkpt>
      <trkpt lat="50.01166" lon="4.27646">
        <ele>287.6</ele>
        <time>2024-04-26T15:40:27Z</time>
      </trkpt>
      <trkpt lat="50.01168" lon="4.27656">
        <ele>287.6</ele>
        <time>2024-04-26T15:40:28Z</time>
      </trkpt>
      <trkpt lat="50.0117" lon="4.27666">
        <ele>287.6</ele>
        <time>2024-04-26T15:40:29Z</time>
      </trkpt>
      <trkpt lat="50.01172" lon="4.27676">
        <ele>287.6</ele>
        <time>2024-04-26T15:40:30Z</time>
      </trkpt>
      <trkpt lat="50.01174" lon="4.27686">
        <ele>287.6</ele>
        <time>2024-04-26T15:40:31Z</time>
      </trkpt>
      <trkpt lat="50.01176" lon="4.27697">
        <ele>287.4</ele>
        <time>2024-04-26T15:40:32Z</time>
      </trkpt>
      <trkpt lat="50.01178" lon="4.27707">
        <ele>287.6</ele>
        <time>2024-04-26T15:40:33Z</time>
      </trkpt>
      <trkpt lat="50.0118" lon="4.27717">
        <ele>287.4</ele>
        <time>2024-04-26T15:40:34Z</time>
      </trkpt>
      <trkpt lat="50.01182" lon="4.27728">
        <ele>287.4</ele>
        <time>2024-04-26T15:40:35Z</time>
      </trkpt>
      <trkpt lat="50.01185" lon="4.27738">
        <ele>287.4</ele>
        <time>2024-04-26T15:40:36Z</time>
      </trkpt>
      <trkpt lat="50.01187" lon="4.27748">
        <ele>287.4</ele>
        <time>2024-04-26T15:40:37Z</time>
      </trkpt>
      <trkpt lat="50.01189" lon="4.27759">
        <ele>287.4</ele>
        <time>2024-04-26T15:40:38Z</time>
      </trkpt>
      <trkpt lat="50.01191" lon="4.27768">
        <ele>287.4</ele>
        <time>2024-04-26T15:40:39Z</time>
      </trkpt>
      <trkpt lat="50.01193" lon="4.27778">
        <ele>287.4</ele>
        <time>2024-04-26T15:40:40Z</time>
      </trkpt>
      <trkpt lat="50.01196" lon="4.27788">
        <ele>287.4</ele>
        <time>2024-04-26T15:40:41Z</time>
      </trkpt>
      <trkpt lat="50.01198" lon="4.27799">
        <ele>287.2</ele>
        <time>2024-04-26T15:40:42Z</time>
      </trkpt>
      <trkpt lat="50.01201" lon="4.27809">
        <ele>287.2</ele>
        <time>2024-04-26T15:40:43Z</time>
      </trkpt>
      <trkpt lat="50.01203" lon="4.27819">
        <ele>287.2</ele>
        <time>2024-04-26T15:40:44Z</time>
      </trkpt>
      <trkpt lat="50.01205" lon="4.27829">
        <ele>287.2</ele>
        <time>2024-04-26T15:40:45Z</time>
      </trkpt>
      <trkpt lat="50.01207" lon="4.27839">
        <ele>287.2</ele>
        <time>2024-04-26T15:40:46Z</time>
      </trkpt>
      <trkpt lat="50.01209" lon="4.27849">
        <ele>287.2</ele>
        <time>2024-04-26T15:40:47Z</time>
      </trkpt>
      <trkpt lat="50.01211" lon="4.27859">
        <ele>287.4</ele>
        <time>2024-04-26T15:40:48Z</time>
      </trkpt>
      <trkpt lat="50.01213" lon="4.27868">
        <ele>287.2</ele>
        <time>2024-04-26T15:40:49Z</time>
      </trkpt>
      <trkpt lat="50.01215" lon="4.27879">
        <ele>287.2</ele>
        <time>2024-04-26T15:40:50Z</time>
      </trkpt>
      <trkpt lat="50.01218" lon="4.27889">
        <ele>287.2</ele>
        <time>2024-04-26T15:40:51Z</time>
      </trkpt>
      <trkpt lat="50.0122" lon="4.27899">
        <ele>287.4</ele>
        <time>2024-04-26T15:40:52Z</time>
      </trkpt>
      <trkpt lat="50.01222" lon="4.27908">
        <ele>287.8</ele>
        <time>2024-04-26T15:40:53Z</time>
      </trkpt>
      <trkpt lat="50.01224" lon="4.27918">
        <ele>287.8</ele>
        <time>2024-04-26T15:40:54Z</time>
      </trkpt>
      <trkpt lat="50.01226" lon="4.27928">
        <ele>287.8</ele>
        <time>2024-04-26T15:40:55Z</time>
      </trkpt>
      <trkpt lat="50.01228" lon="4.27938">
        <ele>287.8</ele>
        <time>2024-04-26T15:40:56Z</time>
      </trkpt>
      <trkpt lat="50.0123" lon="4.27948">
        <ele>288</ele>
        <time>2024-04-26T15:40:57Z</time>
      </trkpt>
      <trkpt lat="50.01232" lon="4.27958">
        <ele>288</ele>
        <time>2024-04-26T15:40:58Z</time>
      </trkpt>
      <trkpt lat="50.01234" lon="4.27967">
        <ele>288.2</ele>
        <time>2024-04-26T15:40:59Z</time>
      </trkpt>
      <trkpt lat="50.01236" lon="4.27977">
        <ele>288</ele>
        <time>2024-04-26T15:41:00Z</time>
      </trkpt>
      <trkpt lat="50.01238" lon="4.27987">
        <ele>288</ele>
        <time>2024-04-26T15:41:01Z</time>
      </trkpt>
      <trkpt lat="50.01241" lon="4.27997">
        <ele>288</ele>
        <time>2024-04-26T15:41:02Z</time>
      </trkpt>
      <trkpt lat="50.01243" lon="4.28007">
        <ele>288</ele>
        <time>2024-04-26T15:41:03Z</time>
      </trkpt>
      <trkpt lat="50.01246" lon="4.28017">
        <ele>288</ele>
        <time>2024-04-26T15:41:04Z</time>
      </trkpt>
      <trkpt lat="50.01248" lon="4.28027">
        <ele>288</ele>
        <time>2024-04-26T15:41:05Z</time>
      </trkpt>
      <trkpt lat="50.0125" lon="4.28038">
        <ele>287.8</ele>
        <time>2024-04-26T15:41:06Z</time>
      </trkpt>
      <trkpt lat="50.01253" lon="4.28048">
        <ele>288</ele>
        <time>2024-04-26T15:41:07Z</time>
      </trkpt>
      <trkpt lat="50.01255" lon="4.28058">
        <ele>288</ele>
        <time>2024-04-26T15:41:08Z</time>
      </trkpt>
      <trkpt lat="50.01258" lon="4.28068">
        <ele>287.8</ele>
        <time>2024-04-26T15:41:09Z</time>
      </trkpt>
      <trkpt lat="50.0126" lon="4.28078">
        <ele>287.6</ele>
        <time>2024-04-26T15:41:10Z</time>
      </trkpt>
      <trkpt lat="50.01262" lon="4.28087">
        <ele>287.8</ele>
        <time>2024-04-26T15:41:11Z</time>
      </trkpt>
      <trkpt lat="50.01264" lon="4.28097">
        <ele>287.2</ele>
        <time>2024-04-26T15:41:12Z</time>
      </trkpt>
      <trkpt lat="50.01267" lon="4.28107">
        <ele>287</ele>
        <time>2024-04-26T15:41:13Z</time>
      </trkpt>
      <trkpt lat="50.01269" lon="4.28117">
        <ele>286.8</ele>
        <time>2024-04-26T15:41:14Z</time>
      </trkpt>
      <trkpt lat="50.01271" lon="4.28128">
        <ele>286.6</ele>
        <time>2024-04-26T15:41:15Z</time>
      </trkpt>
      <trkpt lat="50.01274" lon="4.28138">
        <ele>286.4</ele>
        <time>2024-04-26T15:41:16Z</time>
      </trkpt>
      <trkpt lat="50.01276" lon="4.28149">
        <ele>286.4</ele>
        <time>2024-04-26T15:41:17Z</time>
      </trkpt>
      <trkpt lat="50.01279" lon="4.2816">
        <ele>286.4</ele>
        <time>2024-04-26T15:41:18Z</time>
      </trkpt>
      <trkpt lat="50.01281" lon="4.2817">
        <ele>286.2</ele>
        <time>2024-04-26T15:41:19Z</time>
      </trkpt>
      <trkpt lat="50.01283" lon="4.2818">
        <ele>286.4</ele>
        <time>2024-04-26T15:41:20Z</time>
      </trkpt>
      <trkpt lat="50.01286" lon="4.28191">
        <ele>286.4</ele>
        <time>2024-04-26T15:41:21Z</time>
      </trkpt>
      <trkpt lat="50.01287" lon="4.28201">
        <ele>286.2</ele>
        <time>2024-04-26T15:41:22Z</time>
      </trkpt>
      <trkpt lat="50.01289" lon="4.2821">
        <ele>286.2</ele>
        <time>2024-04-26T15:41:23Z</time>
      </trkpt>
      <trkpt lat="50.01292" lon="4.2822">
        <ele>286.4</ele>
        <time>2024-04-26T15:41:24Z</time>
      </trkpt>
      <trkpt lat="50.01293" lon="4.2823">
        <ele>286.4</ele>
        <time>2024-04-26T15:41:25Z</time>
      </trkpt>
      <trkpt lat="50.01296" lon="4.28239">
        <ele>286.2</ele>
        <time>2024-04-26T15:41:26Z</time>
      </trkpt>
      <trkpt lat="50.01298" lon="4.28249">
        <ele>286.2</ele>
        <time>2024-04-26T15:41:27Z</time>
      </trkpt>
      <trkpt lat="50.013" lon="4.28259">
        <ele>286.4</ele>
        <time>2024-04-26T15:41:28Z</time>
      </trkpt>
      <trkpt lat="50.01302" lon="4.28268">
        <ele>286.6</ele>
        <time>2024-04-26T15:41:29Z</time>
      </trkpt>
      <trkpt lat="50.01304" lon="4.28278">
        <ele>286.6</ele>
        <time>2024-04-26T15:41:30Z</time>
      </trkpt>
      <trkpt lat="50.01306" lon="4.28287">
        <ele>286.8</ele>
        <time>2024-04-26T15:41:31Z</time>
      </trkpt>
      <trkpt lat="50.01308" lon="4.28296">
        <ele>287</ele>
        <time>2024-04-26T15:41:32Z</time>
      </trkpt>
      <trkpt lat="50.01311" lon="4.28305">
        <ele>287.4</ele>
        <time>2024-04-26T15:41:33Z</time>
      </trkpt>
      <trkpt lat="50.01313" lon="4.28315">
        <ele>287.8</ele>
        <time>2024-04-26T15:41:34Z</time>
      </trkpt>
      <trkpt lat="50.01315" lon="4.28324">
        <ele>288.4</ele>
        <time>2024-04-26T15:41:35Z</time>
      </trkpt>
      <trkpt lat="50.01317" lon="4.28333">
        <ele>288.8</ele>
        <time>2024-04-26T15:41:36Z</time>
      </trkpt>
      <trkpt lat="50.01319" lon="4.28342">
        <ele>289</ele>
        <time>2024-04-26T15:41:37Z</time>
      </trkpt>
      <trkpt lat="50.01321" lon="4.28351">
        <ele>289.2</ele>
        <time>2024-04-26T15:41:38Z</time>
      </trkpt>
      <trkpt lat="50.01323" lon="4.2836">
        <ele>289.4</ele>
        <time>2024-04-26T15:41:39Z</time>
      </trkpt>
      <trkpt lat="50.01325" lon="4.28369">
        <ele>289.8</ele>
        <time>2024-04-26T15:41:40Z</time>
      </trkpt>
      <trkpt lat="50.01327" lon="4.28378">
        <ele>290</ele>
        <time>2024-04-26T15:41:41Z</time>
      </trkpt>
      <trkpt lat="50.01329" lon="4.28387">
        <ele>290.2</ele>
        <time>2024-04-26T15:41:42Z</time>
      </trkpt>
      <trkpt lat="50.0133" lon="4.28396">
        <ele>290.6</ele>
        <time>2024-04-26T15:41:43Z</time>
      </trkpt>
      <trkpt lat="50.01332" lon="4.28405">
        <ele>290.6</ele>
        <time>2024-04-26T15:41:44Z</time>
      </trkpt>
      <trkpt lat="50.01334" lon="4.28414">
        <ele>290.8</ele>
        <time>2024-04-26T15:41:45Z</time>
      </trkpt>
      <trkpt lat="50.01336" lon="4.28422">
        <ele>291</ele>
        <time>2024-04-26T15:41:46Z</time>
      </trkpt>
      <trkpt lat="50.01338" lon="4.28431">
        <ele>291.2</ele>
        <time>2024-04-26T15:41:47Z</time>
      </trkpt>
      <trkpt lat="50.0134" lon="4.2844">
        <ele>291.2</ele>
        <time>2024-04-26T15:41:48Z</time>
      </trkpt>
      <trkpt lat="50.01342" lon="4.28448">
        <ele>291.4</ele>
        <time>2024-04-26T15:41:49Z</time>
      </trkpt>
      <trkpt lat="50.01343" lon="4.28457">
        <ele>291.4</ele>
        <time>2024-04-26T15:41:50Z</time>
      </trkpt>
      <trkpt lat="50.01345" lon="4.28465">
        <ele>291.6</ele>
        <time>2024-04-26T15:41:51Z</time>
      </trkpt>
      <trkpt lat="50.01347" lon="4.28474">
        <ele>291.8</ele>
        <time>2024-04-26T15:41:52Z</time>
      </trkpt>
      <trkpt lat="50.01349" lon="4.28482">
        <ele>291.8</ele>
        <time>2024-04-26T15:41:53Z</time>
      </trkpt>
      <trkpt lat="50.01351" lon="4.28491">
        <ele>292</ele>
        <time>2024-04-26T15:41:54Z</time>
      </trkpt>
      <trkpt lat="50.01353" lon="4.28499">
        <ele>292</ele>
        <time>2024-04-26T15:41:55Z</time>
      </trkpt>
      <trkpt lat="50.01355" lon="4.28508">
        <ele>292.2</ele>
        <time>2024-04-26T15:41:56Z</time>
      </trkpt>
      <trkpt lat="50.01356" lon="4.28516">
        <ele>292.4</ele>
        <time>2024-04-26T15:41:57Z</time>
      </trkpt>
      <trkpt lat="50.01358" lon="4.28525">
        <ele>292.8</ele>
        <time>2024-04-26T15:41:58Z</time>
      </trkpt>
      <trkpt lat="50.0136" lon="4.28533">
        <ele>292.8</ele>
        <time>2024-04-26T15:41:59Z</time>
      </trkpt>
      <trkpt lat="50.01362" lon="4.28542">
        <ele>293.4</ele>
        <time>2024-04-26T15:42:00Z</time>
      </trkpt>
      <trkpt lat="50.01364" lon="4.2855">
        <ele>294</ele>
        <time>2024-04-26T15:42:01Z</time>
      </trkpt>
      <trkpt lat="50.01366" lon="4.28559">
        <ele>294.2</ele>
        <time>2024-04-26T15:42:02Z</time>
      </trkpt>
      <trkpt lat="50.01368" lon="4.28568">
        <ele>294.4</ele>
        <time>2024-04-26T15:42:03Z</time>
      </trkpt>
      <trkpt lat="50.0137" lon="4.28577">
        <ele>294.6</ele>
        <time>2024-04-26T15:42:04Z</time>
      </trkpt>
      <trkpt lat="50.01372" lon="4.28585">
        <ele>294.8</ele>
        <time>2024-04-26T15:42:05Z</time>
      </trkpt>
      <trkpt lat="50.01373" lon="4.28594">
        <ele>294.6</ele>
        <time>2024-04-26T15:42:06Z</time>
      </trkpt>
      <trkpt lat="50.01375" lon="4.28603">
        <ele>294.6</ele>
        <time>2024-04-26T15:42:07Z</time>
      </trkpt>
      <trkpt lat="50.01377" lon="4.28612">
        <ele>295.2</ele>
        <time>2024-04-26T15:42:08Z</time>
      </trkpt>
      <trkpt lat="50.01379" lon="4.28621">
        <ele>295.4</ele>
        <time>2024-04-26T15:42:09Z</time>
      </trkpt>
      <trkpt lat="50.01381" lon="4.28629">
        <ele>295.8</ele>
        <time>2024-04-26T15:42:10Z</time>
      </trkpt>
      <trkpt lat="50.01383" lon="4.28638">
        <ele>296</ele>
        <time>2024-04-26T15:42:11Z</time>
      </trkpt>
      <trkpt lat="50.01385" lon="4.28647">
        <ele>296</ele>
        <time>2024-04-26T15:42:12Z</time>
      </trkpt>
      <trkpt lat="50.01387" lon="4.28656">
        <ele>296.2</ele>
        <time>2024-04-26T15:42:13Z</time>
      </trkpt>
      <trkpt lat="50.01388" lon="4.28665">
        <ele>296.6</ele>
        <time>2024-04-26T15:42:14Z</time>
      </trkpt>
      <trkpt lat="50.0139" lon="4.28674">
        <ele>297</ele>
        <time>2024-04-26T15:42:15Z</time>
      </trkpt>
      <trkpt lat="50.01392" lon="4.28683">
        <ele>297</ele>
        <time>2024-04-26T15:42:16Z</time>
      </trkpt>
      <trkpt lat="50.01394" lon="4.28693">
        <ele>297.2</ele>
        <time>2024-04-26T15:42:17Z</time>
      </trkpt>
      <trkpt lat="50.01396" lon="4.28702">
        <ele>297.2</ele>
        <time>2024-04-26T15:42:18Z</time>
      </trkpt>
      <trkpt lat="50.01398" lon="4.28712">
        <ele>297.4</ele>
        <time>2024-04-26T15:42:19Z</time>
      </trkpt>
      <trkpt lat="50.01401" lon="4.28721">
        <ele>297.4</ele>
        <time>2024-04-26T15:42:20Z</time>
      </trkpt>
      <trkpt lat="50.01403" lon="4.28731">
        <ele>297.8</ele>
        <time>2024-04-26T15:42:21Z</time>
      </trkpt>
      <trkpt lat="50.01405" lon="4.28741">
        <ele>298</ele>
        <time>2024-04-26T15:42:22Z</time>
      </trkpt>
      <trkpt lat="50.01407" lon="4.2875">
        <ele>298.4</ele>
        <time>2024-04-26T15:42:23Z</time>
      </trkpt>
      <trkpt lat="50.01409" lon="4.2876">
        <ele>298.4</ele>
        <time>2024-04-26T15:42:24Z</time>
      </trkpt>
      <trkpt lat="50.01412" lon="4.2877">
        <ele>298.6</ele>
        <time>2024-04-26T15:42:25Z</time>
      </trkpt>
      <trkpt lat="50.01414" lon="4.2878">
        <ele>299</ele>
        <time>2024-04-26T15:42:26Z</time>
      </trkpt>
      <trkpt lat="50.01416" lon="4.2879">
        <ele>299</ele>
        <time>2024-04-26T15:42:27Z</time>
      </trkpt>
      <trkpt lat="50.01418" lon="4.288">
        <ele>299</ele>
        <time>2024-04-26T15:42:28Z</time>
      </trkpt>
      <trkpt lat="50.0142" lon="4.28811">
        <ele>299</ele>
        <time>2024-04-26T15:42:29Z</time>
      </trkpt>
      <trkpt lat="50.01422" lon="4.28821">
        <ele>299</ele>
        <time>2024-04-26T15:42:30Z</time>
      </trkpt>
      <trkpt lat="50.01425" lon="4.2883">
        <ele>299.2</ele>
        <time>2024-04-26T15:42:31Z</time>
      </trkpt>
      <trkpt lat="50.01427" lon="4.28841">
        <ele>299.4</ele>
        <time>2024-04-26T15:42:32Z</time>
      </trkpt>
      <trkpt lat="50.01429" lon="4.28851">
        <ele>299.4</ele>
        <time>2024-04-26T15:42:33Z</time>
      </trkpt>
      <trkpt lat="50.01431" lon="4.28861">
        <ele>299.4</ele>
        <time>2024-04-26T15:42:34Z</time>
      </trkpt>
      <trkpt lat="50.01433" lon="4.28871">
        <ele>299.6</ele>
        <time>2024-04-26T15:42:35Z</time>
      </trkpt>
      <trkpt lat="50.01435" lon="4.28881">
        <ele>299.4</ele>
        <time>2024-04-26T15:42:36Z</time>
      </trkpt>
      <trkpt lat="50.01438" lon="4.28891">
        <ele>299.6</ele>
        <time>2024-04-26T15:42:37Z</time>
      </trkpt>
      <trkpt lat="50.0144" lon="4.28901">
        <ele>299.6</ele>
        <time>2024-04-26T15:42:38Z</time>
      </trkpt>
      <trkpt lat="50.01442" lon="4.28911">
        <ele>299.8</ele>
        <time>2024-04-26T15:42:39Z</time>
      </trkpt>
      <trkpt lat="50.01444" lon="4.28921">
        <ele>299.8</ele>
        <time>2024-04-26T15:42:40Z</time>
      </trkpt>
      <trkpt lat="50.01446" lon="4.28932">
        <ele>299.8</ele>
        <time>2024-04-26T15:42:41Z</time>
      </trkpt>
      <trkpt lat="50.01448" lon="4.28942">
        <ele>300</ele>
        <time>2024-04-26T15:42:42Z</time>
      </trkpt>
      <trkpt lat="50.0145" lon="4.28952">
        <ele>300</ele>
        <time>2024-04-26T15:42:43Z</time>
      </trkpt>
      <trkpt lat="50.01453" lon="4.28962">
        <ele>300.2</ele>
        <time>2024-04-26T15:42:44Z</time>
      </trkpt>
      <trkpt lat="50.01455" lon="4.28972">
        <ele>300.2</ele>
        <time>2024-04-26T15:42:45Z</time>
      </trkpt>
      <trkpt lat="50.01457" lon="4.28983">
        <ele>300.2</ele>
        <time>2024-04-26T15:42:46Z</time>
      </trkpt>
      <trkpt lat="50.01459" lon="4.28993">
        <ele>300.2</ele>
        <time>2024-04-26T15:42:47Z</time>
      </trkpt>
      <trkpt lat="50.01461" lon="4.29003">
        <ele>300.4</ele>
        <time>2024-04-26T15:42:48Z</time>
      </trkpt>
      <trkpt lat="50.01463" lon="4.29013">
        <ele>300.2</ele>
        <time>2024-04-26T15:42:49Z</time>
      </trkpt>
      <trkpt lat="50.01466" lon="4.29023">
        <ele>300.4</ele>
        <time>2024-04-26T15:42:50Z</time>
      </trkpt>
      <trkpt lat="50.01468" lon="4.29033">
        <ele>300.4</ele>
        <time>2024-04-26T15:42:51Z</time>
      </trkpt>
      <trkpt lat="50.0147" lon="4.29043">
        <ele>300.2</ele>
        <time>2024-04-26T15:42:52Z</time>
      </trkpt>
      <trkpt lat="50.01472" lon="4.29053">
        <ele>300.2</ele>
        <time>2024-04-26T15:42:53Z</time>
      </trkpt>
      <trkpt lat="50.01475" lon="4.29063">
        <ele>300.4</ele>
        <time>2024-04-26T15:42:54Z</time>
      </trkpt>
      <trkpt lat="50.01477" lon="4.29074">
        <ele>300.4</ele>
        <time>2024-04-26T15:42:55Z</time>
      </trkpt>
      <trkpt lat="50.01479" lon="4.29084">
        <ele>300.2</ele>
        <time>2024-04-26T15:42:56Z</time>
      </trkpt>
      <trkpt lat="50.01481" lon="4.29094">
        <ele>300.2</ele>
        <time>2024-04-26T15:42:57Z</time>
      </trkpt>
      <trkpt lat="50.01484" lon="4.29104">
        <ele>300</ele>
        <time>2024-04-26T15:42:58Z</time>
      </trkpt>
      <trkpt lat="50.01486" lon="4.29115">
        <ele>300.2</ele>
        <time>2024-04-26T15:42:59Z</time>
      </trkpt>
      <trkpt lat="50.01488" lon="4.29125">
        <ele>300</ele>
        <time>2024-04-26T15:43:00Z</time>
      </trkpt>
      <trkpt lat="50.01491" lon="4.29135">
        <ele>300</ele>
        <time>2024-04-26T15:43:01Z</time>
      </trkpt>
      <trkpt lat="50.01493" lon="4.29145">
        <ele>300</ele>
        <time>2024-04-26T15:43:02Z</time>
      </trkpt>
      <trkpt lat="50.01495" lon="4.29155">
        <ele>300</ele>
        <time>2024-04-26T15:43:03Z</time>
      </trkpt>
      <trkpt lat="50.01497" lon="4.29165">
        <ele>300</ele>
        <time>2024-04-26T15:43:04Z</time>
      </trkpt>
      <trkpt lat="50.01499" lon="4.29175">
        <ele>300.2</ele>
        <time>2024-04-26T15:43:05Z</time>
      </trkpt>
      <trkpt lat="50.01501" lon="4.29185">
        <ele>300</ele>
        <time>2024-04-26T15:43:06Z</time>
      </trkpt>
      <trkpt lat="50.01503" lon="4.29195">
        <ele>300</ele>
        <time>2024-04-26T15:43:07Z</time>
      </trkpt>
      <trkpt lat="50.01505" lon="4.29205">
        <ele>300.2</ele>
        <time>2024-04-26T15:43:08Z</time>
      </trkpt>
      <trkpt lat="50.01508" lon="4.29215">
        <ele>300.2</ele>
        <time>2024-04-26T15:43:09Z</time>
      </trkpt>
      <trkpt lat="50.0151" lon="4.29226">
        <ele>300.6</ele>
        <time>2024-04-26T15:43:10Z</time>
      </trkpt>
      <trkpt lat="50.01512" lon="4.29236">
        <ele>300.8</ele>
        <time>2024-04-26T15:43:11Z</time>
      </trkpt>
      <trkpt lat="50.01514" lon="4.29246">
        <ele>300.8</ele>
        <time>2024-04-26T15:43:12Z</time>
      </trkpt>
      <trkpt lat="50.01516" lon="4.29256">
        <ele>301</ele>
        <time>2024-04-26T15:43:13Z</time>
      </trkpt>
      <trkpt lat="50.01518" lon="4.29266">
        <ele>301</ele>
        <time>2024-04-26T15:43:14Z</time>
      </trkpt>
      <trkpt lat="50.0152" lon="4.29277">
        <ele>301</ele>
        <time>2024-04-26T15:43:15Z</time>
      </trkpt>
      <trkpt lat="50.01522" lon="4.29287">
        <ele>301</ele>
        <time>2024-04-26T15:43:16Z</time>
      </trkpt>
      <trkpt lat="50.01525" lon="4.29296">
        <ele>301.2</ele>
        <time>2024-04-26T15:43:17Z</time>
      </trkpt>
      <trkpt lat="50.01527" lon="4.29307">
        <ele>301.2</ele>
        <time>2024-04-26T15:43:18Z</time>
      </trkpt>
      <trkpt lat="50.01529" lon="4.29317">
        <ele>301.4</ele>
        <time>2024-04-26T15:43:19Z</time>
      </trkpt>
      <trkpt lat="50.01531" lon="4.29327">
        <ele>301.4</ele>
        <time>2024-04-26T15:43:20Z</time>
      </trkpt>
      <trkpt lat="50.01533" lon="4.29336">
        <ele>301.4</ele>
        <time>2024-04-26T15:43:21Z</time>
      </trkpt>
      <trkpt lat="50.01535" lon="4.29346">
        <ele>301.6</ele>
        <time>2024-04-26T15:43:22Z</time>
      </trkpt>
      <trkpt lat="50.01537" lon="4.29356">
        <ele>301.6</ele>
        <time>2024-04-26T15:43:23Z</time>
      </trkpt>
      <trkpt lat="50.01539" lon="4.29366">
        <ele>301.8</ele>
        <time>2024-04-26T15:43:24Z</time>
      </trkpt>
      <trkpt lat="50.01542" lon="4.29376">
        <ele>301.8</ele>
        <time>2024-04-26T15:43:25Z</time>
      </trkpt>
      <trkpt lat="50.01544" lon="4.29386">
        <ele>301.8</ele>
        <time>2024-04-26T15:43:26Z</time>
      </trkpt>
      <trkpt lat="50.01546" lon="4.29397">
        <ele>302</ele>
        <time>2024-04-26T15:43:27Z</time>
      </trkpt>
      <trkpt lat="50.01548" lon="4.29407">
        <ele>302</ele>
        <time>2024-04-26T15:43:28Z</time>
      </trkpt>
      <trkpt lat="50.0155" lon="4.29417">
        <ele>302</ele>
        <time>2024-04-26T15:43:29Z</time>
      </trkpt>
      <trkpt lat="50.01552" lon="4.29427">
        <ele>302</ele>
        <time>2024-04-26T15:43:30Z</time>
      </trkpt>
      <trkpt lat="50.01555" lon="4.29437">
        <ele>302</ele>
        <time>2024-04-26T15:43:31Z</time>
      </trkpt>
      <trkpt lat="50.01557" lon="4.29447">
        <ele>302</ele>
        <time>2024-04-26T15:43:32Z</time>
      </trkpt>
      <trkpt lat="50.01559" lon="4.29457">
        <ele>302.2</ele>
        <time>2024-04-26T15:43:33Z</time>
      </trkpt>
      <trkpt lat="50.01561" lon="4.29467">
        <ele>302.2</ele>
        <time>2024-04-26T15:43:34Z</time>
      </trkpt>
      <trkpt lat="50.01564" lon="4.29477">
        <ele>302.2</ele>
        <time>2024-04-26T15:43:35Z</time>
      </trkpt>
      <trkpt lat="50.01566" lon="4.29488">
        <ele>302.4</ele>
        <time>2024-04-26T15:43:36Z</time>
      </trkpt>
      <trkpt lat="50.01568" lon="4.29498">
        <ele>302.6</ele>
        <time>2024-04-26T15:43:37Z</time>
      </trkpt>
      <trkpt lat="50.0157" lon="4.29508">
        <ele>302.6</ele>
        <time>2024-04-26T15:43:38Z</time>
      </trkpt>
      <trkpt lat="50.01572" lon="4.29518">
        <ele>302.8</ele>
        <time>2024-04-26T15:43:39Z</time>
      </trkpt>
      <trkpt lat="50.01574" lon="4.29528">
        <ele>302.8</ele>
        <time>2024-04-26T15:43:40Z</time>
      </trkpt>
      <trkpt lat="50.01576" lon="4.29538">
        <ele>302.8</ele>
        <time>2024-04-26T15:43:41Z</time>
      </trkpt>
      <trkpt lat="50.01579" lon="4.29548">
        <ele>303</ele>
        <time>2024-04-26T15:43:42Z</time>
      </trkpt>
      <trkpt lat="50.01581" lon="4.29558">
        <ele>302.8</ele>
        <time>2024-04-26T15:43:43Z</time>
      </trkpt>
      <trkpt lat="50.01583" lon="4.29568">
        <ele>302.8</ele>
        <time>2024-04-26T15:43:44Z</time>
      </trkpt>
      <trkpt lat="50.01585" lon="4.29578">
        <ele>302.8</ele>
        <time>2024-04-26T15:43:45Z</time>
      </trkpt>
      <trkpt lat="50.01587" lon="4.29588">
        <ele>302.8</ele>
        <time>2024-04-26T15:43:46Z</time>
      </trkpt>
      <trkpt lat="50.0159" lon="4.29598">
        <ele>302.8</ele>
        <time>2024-04-26T15:43:47Z</time>
      </trkpt>
      <trkpt lat="50.01592" lon="4.29608">
        <ele>302.8</ele>
        <time>2024-04-26T15:43:48Z</time>
      </trkpt>
      <trkpt lat="50.01594" lon="4.29618">
        <ele>302.8</ele>
        <time>2024-04-26T15:43:49Z</time>
      </trkpt>
      <trkpt lat="50.01596" lon="4.29628">
        <ele>302.8</ele>
        <time>2024-04-26T15:43:50Z</time>
      </trkpt>
      <trkpt lat="50.01598" lon="4.29638">
        <ele>303</ele>
        <time>2024-04-26T15:43:51Z</time>
      </trkpt>
      <trkpt lat="50.016" lon="4.29648">
        <ele>303</ele>
        <time>2024-04-26T15:43:52Z</time>
      </trkpt>
      <trkpt lat="50.01602" lon="4.29658">
        <ele>303</ele>
        <time>2024-04-26T15:43:53Z</time>
      </trkpt>
      <trkpt lat="50.01605" lon="4.29668">
        <ele>303</ele>
        <time>2024-04-26T15:43:54Z</time>
      </trkpt>
      <trkpt lat="50.01607" lon="4.29678">
        <ele>303</ele>
        <time>2024-04-26T15:43:55Z</time>
      </trkpt>
      <trkpt lat="50.01609" lon="4.29688">
        <ele>303</ele>
        <time>2024-04-26T15:43:56Z</time>
      </trkpt>
      <trkpt lat="50.01611" lon="4.29697">
        <ele>303</ele>
        <time>2024-04-26T15:43:57Z</time>
      </trkpt>
      <trkpt lat="50.01613" lon="4.29707">
        <ele>303.2</ele>
        <time>2024-04-26T15:43:58Z</time>
      </trkpt>
      <trkpt lat="50.01615" lon="4.29717">
        <ele>303.2</ele>
        <time>2024-04-26T15:43:59Z</time>
      </trkpt>
      <trkpt lat="50.01618" lon="4.29727">
        <ele>303.2</ele>
        <time>2024-04-26T15:44:00Z</time>
      </trkpt>
      <trkpt lat="50.0162" lon="4.29737">
        <ele>303.2</ele>
        <time>2024-04-26T15:44:01Z</time>
      </trkpt>
      <trkpt lat="50.01622" lon="4.29747">
        <ele>303.2</ele>
        <time>2024-04-26T15:44:02Z</time>
      </trkpt>
      <trkpt lat="50.01624" lon="4.29757">
        <ele>303.4</ele>
        <time>2024-04-26T15:44:03Z</time>
      </trkpt>
      <trkpt lat="50.01626" lon="4.29767">
        <ele>303.6</ele>
        <time>2024-04-26T15:44:04Z</time>
      </trkpt>
      <trkpt lat="50.01628" lon="4.29777">
        <ele>303.6</ele>
        <time>2024-04-26T15:44:05Z</time>
      </trkpt>
      <trkpt lat="50.0163" lon="4.29788">
        <ele>304</ele>
        <time>2024-04-26T15:44:06Z</time>
      </trkpt>
      <trkpt lat="50.01633" lon="4.29799">
        <ele>304</ele>
        <time>2024-04-26T15:44:07Z</time>
      </trkpt>
      <trkpt lat="50.01635" lon="4.29809">
        <ele>304.2</ele>
        <time>2024-04-26T15:44:08Z</time>
      </trkpt>
      <trkpt lat="50.01637" lon="4.29819">
        <ele>304.2</ele>
        <time>2024-04-26T15:44:09Z</time>
      </trkpt>
      <trkpt lat="50.01639" lon="4.29829">
        <ele>304.2</ele>
        <time>2024-04-26T15:44:10Z</time>
      </trkpt>
      <trkpt lat="50.01641" lon="4.2984">
        <ele>304.2</ele>
        <time>2024-04-26T15:44:11Z</time>
      </trkpt>
      <trkpt lat="50.01643" lon="4.2985">
        <ele>304.2</ele>
        <time>2024-04-26T15:44:12Z</time>
      </trkpt>
      <trkpt lat="50.01646" lon="4.2986">
        <ele>304.4</ele>
        <time>2024-04-26T15:44:13Z</time>
      </trkpt>
      <trkpt lat="50.01648" lon="4.2987">
        <ele>304.4</ele>
        <time>2024-04-26T15:44:14Z</time>
      </trkpt>
      <trkpt lat="50.0165" lon="4.29881">
        <ele>304.2</ele>
        <time>2024-04-26T15:44:15Z</time>
      </trkpt>
      <trkpt lat="50.01652" lon="4.29891">
        <ele>304.4</ele>
        <time>2024-04-26T15:44:16Z</time>
      </trkpt>
      <trkpt lat="50.01654" lon="4.29901">
        <ele>304.4</ele>
        <time>2024-04-26T15:44:17Z</time>
      </trkpt>
      <trkpt lat="50.01656" lon="4.29911">
        <ele>304.4</ele>
        <time>2024-04-26T15:44:18Z</time>
      </trkpt>
      <trkpt lat="50.01658" lon="4.29921">
        <ele>304.4</ele>
        <time>2024-04-26T15:44:19Z</time>
      </trkpt>
      <trkpt lat="50.0166" lon="4.29931">
        <ele>304.4</ele>
        <time>2024-04-26T15:44:20Z</time>
      </trkpt>
      <trkpt lat="50.01663" lon="4.29941">
        <ele>304.4</ele>
        <time>2024-04-26T15:44:21Z</time>
      </trkpt>
      <trkpt lat="50.01665" lon="4.29951">
        <ele>304.4</ele>
        <time>2024-04-26T15:44:22Z</time>
      </trkpt>
      <trkpt lat="50.01667" lon="4.29961">
        <ele>304.4</ele>
        <time>2024-04-26T15:44:23Z</time>
      </trkpt>
      <trkpt lat="50.01669" lon="4.29972">
        <ele>304.4</ele>
        <time>2024-04-26T15:44:24Z</time>
      </trkpt>
      <trkpt lat="50.01671" lon="4.29982">
        <ele>304.4</ele>
        <time>2024-04-26T15:44:25Z</time>
      </trkpt>
      <trkpt lat="50.01674" lon="4.29993">
        <ele>304.4</ele>
        <time>2024-04-26T15:44:26Z</time>
      </trkpt>
      <trkpt lat="50.01676" lon="4.30004">
        <ele>304.4</ele>
        <time>2024-04-26T15:44:27Z</time>
      </trkpt>
      <trkpt lat="50.01678" lon="4.30014">
        <ele>304.6</ele>
        <time>2024-04-26T15:44:28Z</time>
      </trkpt>
      <trkpt lat="50.0168" lon="4.30025">
        <ele>304.6</ele>
        <time>2024-04-26T15:44:29Z</time>
      </trkpt>
      <trkpt lat="50.01683" lon="4.30035">
        <ele>304.8</ele>
        <time>2024-04-26T15:44:30Z</time>
      </trkpt>
      <trkpt lat="50.01685" lon="4.30046">
        <ele>305</ele>
        <time>2024-04-26T15:44:31Z</time>
      </trkpt>
      <trkpt lat="50.01687" lon="4.30056">
        <ele>305</ele>
        <time>2024-04-26T15:44:32Z</time>
      </trkpt>
      <trkpt lat="50.01689" lon="4.30066">
        <ele>305</ele>
        <time>2024-04-26T15:44:33Z</time>
      </trkpt>
      <trkpt lat="50.01691" lon="4.30076">
        <ele>305.2</ele>
        <time>2024-04-26T15:44:34Z</time>
      </trkpt>
      <trkpt lat="50.01693" lon="4.30087">
        <ele>305.2</ele>
        <time>2024-04-26T15:44:35Z</time>
      </trkpt>
      <trkpt lat="50.01696" lon="4.30097">
        <ele>305.4</ele>
        <time>2024-04-26T15:44:36Z</time>
      </trkpt>
      <trkpt lat="50.01698" lon="4.30108">
        <ele>305.4</ele>
        <time>2024-04-26T15:44:37Z</time>
      </trkpt>
      <trkpt lat="50.017" lon="4.30118">
        <ele>305.4</ele>
        <time>2024-04-26T15:44:38Z</time>
      </trkpt>
      <trkpt lat="50.01702" lon="4.30128">
        <ele>305.4</ele>
        <time>2024-04-26T15:44:39Z</time>
      </trkpt>
      <trkpt lat="50.01704" lon="4.30138">
        <ele>305.6</ele>
        <time>2024-04-26T15:44:40Z</time>
      </trkpt>
      <trkpt lat="50.01707" lon="4.30148">
        <ele>305.6</ele>
        <time>2024-04-26T15:44:41Z</time>
      </trkpt>
      <trkpt lat="50.01709" lon="4.30158">
        <ele>305.8</ele>
        <time>2024-04-26T15:44:42Z</time>
      </trkpt>
      <trkpt lat="50.01712" lon="4.30168">
        <ele>305.6</ele>
        <time>2024-04-26T15:44:43Z</time>
      </trkpt>
      <trkpt lat="50.01714" lon="4.30178">
        <ele>305.6</ele>
        <time>2024-04-26T15:44:44Z</time>
      </trkpt>
      <trkpt lat="50.01716" lon="4.30188">
        <ele>305.6</ele>
        <time>2024-04-26T15:44:45Z</time>
      </trkpt>
      <trkpt lat="50.01718" lon="4.30199">
        <ele>305.8</ele>
        <time>2024-04-26T15:44:46Z</time>
      </trkpt>
      <trkpt lat="50.0172" lon="4.30208">
        <ele>305.8</ele>
        <time>2024-04-26T15:44:47Z</time>
      </trkpt>
      <trkpt lat="50.01722" lon="4.30218">
        <ele>305.8</ele>
        <time>2024-04-26T15:44:48Z</time>
      </trkpt>
      <trkpt lat="50.01724" lon="4.30228">
        <ele>305.8</ele>
        <time>2024-04-26T15:44:49Z</time>
      </trkpt>
      <trkpt lat="50.01727" lon="4.30238">
        <ele>305.8</ele>
        <time>2024-04-26T15:44:50Z</time>
      </trkpt>
      <trkpt lat="50.01729" lon="4.30248">
        <ele>306</ele>
        <time>2024-04-26T15:44:51Z</time>
      </trkpt>
      <trkpt lat="50.01731" lon="4.30258">
        <ele>306</ele>
        <time>2024-04-26T15:44:52Z</time>
      </trkpt>
      <trkpt lat="50.01734" lon="4.30268">
        <ele>306</ele>
        <time>2024-04-26T15:44:53Z</time>
      </trkpt>
      <trkpt lat="50.01736" lon="4.30279">
        <ele>306</ele>
        <time>2024-04-26T15:44:54Z</time>
      </trkpt>
      <trkpt lat="50.01738" lon="4.30289">
        <ele>306</ele>
        <time>2024-04-26T15:44:55Z</time>
      </trkpt>
      <trkpt lat="50.0174" lon="4.303">
        <ele>306</ele>
        <time>2024-04-26T15:44:56Z</time>
      </trkpt>
      <trkpt lat="50.01742" lon="4.3031">
        <ele>306</ele>
        <time>2024-04-26T15:44:57Z</time>
      </trkpt>
      <trkpt lat="50.01745" lon="4.3032">
        <ele>306.2</ele>
        <time>2024-04-26T15:44:58Z</time>
      </trkpt>
      <trkpt lat="50.01747" lon="4.30331">
        <ele>306.2</ele>
        <time>2024-04-26T15:44:59Z</time>
      </trkpt>
      <trkpt lat="50.01749" lon="4.30341">
        <ele>306.2</ele>
        <time>2024-04-26T15:45:00Z</time>
      </trkpt>
      <trkpt lat="50.01751" lon="4.30351">
        <ele>306</ele>
        <time>2024-04-26T15:45:01Z</time>
      </trkpt>
      <trkpt lat="50.01754" lon="4.30361">
        <ele>306</ele>
        <time>2024-04-26T15:45:02Z</time>
      </trkpt>
      <trkpt lat="50.01756" lon="4.30371">
        <ele>306</ele>
        <time>2024-04-26T15:45:03Z</time>
      </trkpt>
      <trkpt lat="50.01758" lon="4.30382">
        <ele>306</ele>
        <time>2024-04-26T15:45:04Z</time>
      </trkpt>
      <trkpt lat="50.01759" lon="4.30393">
        <ele>306</ele>
        <time>2024-04-26T15:45:05Z</time>
      </trkpt>
      <trkpt lat="50.01758" lon="4.30405">
        <ele>305.8</ele>
        <time>2024-04-26T15:45:06Z</time>
      </trkpt>
      <trkpt lat="50.01757" lon="4.30416">
        <ele>305.8</ele>
        <time>2024-04-26T15:45:07Z</time>
      </trkpt>
      <trkpt lat="50.01755" lon="4.30428">
        <ele>305.8</ele>
        <time>2024-04-26T15:45:08Z</time>
      </trkpt>
      <trkpt lat="50.01753" lon="4.30439">
        <ele>305.8</ele>
        <time>2024-04-26T15:45:09Z</time>
      </trkpt>
      <trkpt lat="50.01751" lon="4.30449">
        <ele>305.6</ele>
        <time>2024-04-26T15:45:10Z</time>
      </trkpt>
      <trkpt lat="50.01748" lon="4.3046">
        <ele>305.2</ele>
        <time>2024-04-26T15:45:11Z</time>
      </trkpt>
      <trkpt lat="50.01746" lon="4.30471">
        <ele>304.6</ele>
        <time>2024-04-26T15:45:12Z</time>
      </trkpt>
      <trkpt lat="50.01744" lon="4.30481">
        <ele>304.2</ele>
        <time>2024-04-26T15:45:13Z</time>
      </trkpt>
      <trkpt lat="50.01742" lon="4.30493">
        <ele>303.8</ele>
        <time>2024-04-26T15:45:14Z</time>
      </trkpt>
      <trkpt lat="50.01739" lon="4.30503">
        <ele>303.8</ele>
        <time>2024-04-26T15:45:15Z</time>
      </trkpt>
      <trkpt lat="50.01737" lon="4.30514">
        <ele>303.6</ele>
        <time>2024-04-26T15:45:16Z</time>
      </trkpt>
      <trkpt lat="50.01735" lon="4.30525">
        <ele>303.4</ele>
        <time>2024-04-26T15:45:17Z</time>
      </trkpt>
      <trkpt lat="50.01733" lon="4.30537">
        <ele>303.2</ele>
        <time>2024-04-26T15:45:18Z</time>
      </trkpt>
      <trkpt lat="50.0173" lon="4.30548">
        <ele>303</ele>
        <time>2024-04-26T15:45:19Z</time>
      </trkpt>
      <trkpt lat="50.01728" lon="4.30558">
        <ele>302.8</ele>
        <time>2024-04-26T15:45:20Z</time>
      </trkpt>
      <trkpt lat="50.01726" lon="4.30569">
        <ele>302.6</ele>
        <time>2024-04-26T15:45:21Z</time>
      </trkpt>
      <trkpt lat="50.01724" lon="4.3058">
        <ele>302.4</ele>
        <time>2024-04-26T15:45:22Z</time>
      </trkpt>
      <trkpt lat="50.01722" lon="4.3059">
        <ele>302.4</ele>
        <time>2024-04-26T15:45:23Z</time>
      </trkpt>
      <trkpt lat="50.01719" lon="4.30601">
        <ele>302.2</ele>
        <time>2024-04-26T15:45:24Z</time>
      </trkpt>
      <trkpt lat="50.01717" lon="4.30612">
        <ele>302.2</ele>
        <time>2024-04-26T15:45:25Z</time>
      </trkpt>
      <trkpt lat="50.01715" lon="4.30622">
        <ele>302</ele>
        <time>2024-04-26T15:45:26Z</time>
      </trkpt>
      <trkpt lat="50.01713" lon="4.30632">
        <ele>302.2</ele>
        <time>2024-04-26T15:45:27Z</time>
      </trkpt>
      <trkpt lat="50.01711" lon="4.30643">
        <ele>301.8</ele>
        <time>2024-04-26T15:45:28Z</time>
      </trkpt>
      <trkpt lat="50.01709" lon="4.30653">
        <ele>301.8</ele>
        <time>2024-04-26T15:45:29Z</time>
      </trkpt>
      <trkpt lat="50.01707" lon="4.30663">
        <ele>301.6</ele>
        <time>2024-04-26T15:45:30Z</time>
      </trkpt>
      <trkpt lat="50.01704" lon="4.30673">
        <ele>301.4</ele>
        <time>2024-04-26T15:45:31Z</time>
      </trkpt>
      <trkpt lat="50.01702" lon="4.30683">
        <ele>301.4</ele>
        <time>2024-04-26T15:45:32Z</time>
      </trkpt>
      <trkpt lat="50.017" lon="4.30692">
        <ele>301.4</ele>
        <time>2024-04-26T15:45:33Z</time>
      </trkpt>
      <trkpt lat="50.01699" lon="4.30702">
        <ele>301.2</ele>
        <time>2024-04-26T15:45:34Z</time>
      </trkpt>
      <trkpt lat="50.01697" lon="4.30712">
        <ele>301.2</ele>
        <time>2024-04-26T15:45:35Z</time>
      </trkpt>
      <trkpt lat="50.01695" lon="4.30722">
        <ele>301.2</ele>
        <time>2024-04-26T15:45:36Z</time>
      </trkpt>
      <trkpt lat="50.01693" lon="4.30732">
        <ele>301.2</ele>
        <time>2024-04-26T15:45:37Z</time>
      </trkpt>
      <trkpt lat="50.01691" lon="4.30742">
        <ele>301</ele>
        <time>2024-04-26T15:45:38Z</time>
      </trkpt>
      <trkpt lat="50.01688" lon="4.30753">
        <ele>301.2</ele>
        <time>2024-04-26T15:45:39Z</time>
      </trkpt>
      <trkpt lat="50.01686" lon="4.30763">
        <ele>301</ele>
        <time>2024-04-26T15:45:40Z</time>
      </trkpt>
      <trkpt lat="50.01684" lon="4.30774">
        <ele>301</ele>
        <time>2024-04-26T15:45:41Z</time>
      </trkpt>
      <trkpt lat="50.01682" lon="4.30784">
        <ele>301</ele>
        <time>2024-04-26T15:45:42Z</time>
      </trkpt>
      <trkpt lat="50.01679" lon="4.30795">
        <ele>301</ele>
        <time>2024-04-26T15:45:43Z</time>
      </trkpt>
      <trkpt lat="50.01677" lon="4.30805">
        <ele>300.8</ele>
        <time>2024-04-26T15:45:44Z</time>
      </trkpt>
      <trkpt lat="50.01675" lon="4.30816">
        <ele>300.8</ele>
        <time>2024-04-26T15:45:45Z</time>
      </trkpt>
      <trkpt lat="50.01672" lon="4.30826">
        <ele>300.6</ele>
        <time>2024-04-26T15:45:46Z</time>
      </trkpt>
      <trkpt lat="50.0167" lon="4.30836">
        <ele>300.6</ele>
        <time>2024-04-26T15:45:47Z</time>
      </trkpt>
      <trkpt lat="50.01668" lon="4.30846">
        <ele>300.4</ele>
        <time>2024-04-26T15:45:48Z</time>
      </trkpt>
      <trkpt lat="50.01666" lon="4.30856">
        <ele>300.2</ele>
        <time>2024-04-26T15:45:49Z</time>
      </trkpt>
      <trkpt lat="50.01664" lon="4.30866">
        <ele>300.4</ele>
        <time>2024-04-26T15:45:50Z</time>
      </trkpt>
      <trkpt lat="50.01661" lon="4.30876">
        <ele>300.2</ele>
        <time>2024-04-26T15:45:51Z</time>
      </trkpt>
      <trkpt lat="50.01659" lon="4.30885">
        <ele>300.2</ele>
        <time>2024-04-26T15:45:52Z</time>
      </trkpt>
      <trkpt lat="50.01657" lon="4.30895">
        <ele>300.2</ele>
        <time>2024-04-26T15:45:53Z</time>
      </trkpt>
      <trkpt lat="50.01655" lon="4.30904">
        <ele>300.2</ele>
        <time>2024-04-26T15:45:54Z</time>
      </trkpt>
      <trkpt lat="50.01654" lon="4.30913">
        <ele>300</ele>
        <time>2024-04-26T15:45:55Z</time>
      </trkpt>
      <trkpt lat="50.01652" lon="4.30922">
        <ele>300.2</ele>
        <time>2024-04-26T15:45:56Z</time>
      </trkpt>
      <trkpt lat="50.01649" lon="4.30932">
        <ele>300.2</ele>
        <time>2024-04-26T15:45:57Z</time>
      </trkpt>
      <trkpt lat="50.01647" lon="4.3094">
        <ele>300.2</ele>
        <time>2024-04-26T15:45:58Z</time>
      </trkpt>
      <trkpt lat="50.01645" lon="4.30949">
        <ele>300</ele>
        <time>2024-04-26T15:45:59Z</time>
      </trkpt>
      <trkpt lat="50.01643" lon="4.30958">
        <ele>300.4</ele>
        <time>2024-04-26T15:46:00Z</time>
      </trkpt>
      <trkpt lat="50.01642" lon="4.30967">
        <ele>300.2</ele>
        <time>2024-04-26T15:46:01Z</time>
      </trkpt>
      <trkpt lat="50.0164" lon="4.30976">
        <ele>300.6</ele>
        <time>2024-04-26T15:46:02Z</time>
      </trkpt>
      <trkpt lat="50.01638" lon="4.30985">
        <ele>300.8</ele>
        <time>2024-04-26T15:46:03Z</time>
      </trkpt>
      <trkpt lat="50.01636" lon="4.30993">
        <ele>301</ele>
        <time>2024-04-26T15:46:04Z</time>
      </trkpt>
      <trkpt lat="50.01634" lon="4.31002">
        <ele>301.4</ele>
        <time>2024-04-26T15:46:05Z</time>
      </trkpt>
      <trkpt lat="50.01632" lon="4.31011">
        <ele>301.4</ele>
        <time>2024-04-26T15:46:06Z</time>
      </trkpt>
      <trkpt lat="50.0163" lon="4.31019">
        <ele>301.6</ele>
        <time>2024-04-26T15:46:07Z</time>
      </trkpt>
      <trkpt lat="50.01628" lon="4.31028">
        <ele>301.6</ele>
        <time>2024-04-26T15:46:08Z</time>
      </trkpt>
      <trkpt lat="50.01627" lon="4.31037">
        <ele>301.6</ele>
        <time>2024-04-26T15:46:09Z</time>
      </trkpt>
      <trkpt lat="50.01625" lon="4.31045">
        <ele>301.8</ele>
        <time>2024-04-26T15:46:10Z</time>
      </trkpt>
      <trkpt lat="50.01623" lon="4.31054">
        <ele>302</ele>
        <time>2024-04-26T15:46:11Z</time>
      </trkpt>
      <trkpt lat="50.01621" lon="4.31063">
        <ele>302.2</ele>
        <time>2024-04-26T15:46:12Z</time>
      </trkpt>
      <trkpt lat="50.01619" lon="4.31071">
        <ele>302.4</ele>
        <time>2024-04-26T15:46:13Z</time>
      </trkpt>
      <trkpt lat="50.01617" lon="4.3108">
        <ele>303</ele>
        <time>2024-04-26T15:46:14Z</time>
      </trkpt>
      <trkpt lat="50.01615" lon="4.31089">
        <ele>303.2</ele>
        <time>2024-04-26T15:46:15Z</time>
      </trkpt>
      <trkpt lat="50.01613" lon="4.31098">
        <ele>303.2</ele>
        <time>2024-04-26T15:46:16Z</time>
      </trkpt>
      <trkpt lat="50.01611" lon="4.31106">
        <ele>303.4</ele>
        <time>2024-04-26T15:46:17Z</time>
      </trkpt>
      <trkpt lat="50.01609" lon="4.31115">
        <ele>303.6</ele>
        <time>2024-04-26T15:46:18Z</time>
      </trkpt>
      <trkpt lat="50.01608" lon="4.31123">
        <ele>303.4</ele>
        <time>2024-04-26T15:46:19Z</time>
      </trkpt>
      <trkpt lat="50.01606" lon="4.31132">
        <ele>303.6</ele>
        <time>2024-04-26T15:46:20Z</time>
      </trkpt>
      <trkpt lat="50.01604" lon="4.31141">
        <ele>303.8</ele>
        <time>2024-04-26T15:46:21Z</time>
      </trkpt>
      <trkpt lat="50.01602" lon="4.31149">
        <ele>304</ele>
        <time>2024-04-26T15:46:22Z</time>
      </trkpt>
      <trkpt lat="50.016" lon="4.31158">
        <ele>304.2</ele>
        <time>2024-04-26T15:46:23Z</time>
      </trkpt>
      <trkpt lat="50.01599" lon="4.31167">
        <ele>304</ele>
        <time>2024-04-26T15:46:24Z</time>
      </trkpt>
      <trkpt lat="50.01597" lon="4.31176">
        <ele>304</ele>
        <time>2024-04-26T15:46:25Z</time>
      </trkpt>
      <trkpt lat="50.01595" lon="4.31184">
        <ele>304.2</ele>
        <time>2024-04-26T15:46:26Z</time>
      </trkpt>
      <trkpt lat="50.01593" lon="4.31193">
        <ele>304.6</ele>
        <time>2024-04-26T15:46:27Z</time>
      </trkpt>
      <trkpt lat="50.01591" lon="4.31202">
        <ele>305</ele>
        <time>2024-04-26T15:46:28Z</time>
      </trkpt>
      <trkpt lat="50.01589" lon="4.31211">
        <ele>305.2</ele>
        <time>2024-04-26T15:46:29Z</time>
      </trkpt>
      <trkpt lat="50.01588" lon="4.31221">
        <ele>305.6</ele>
        <time>2024-04-26T15:46:30Z</time>
      </trkpt>
      <trkpt lat="50.01587" lon="4.3123">
        <ele>305.6</ele>
        <time>2024-04-26T15:46:31Z</time>
      </trkpt>
      <trkpt lat="50.01585" lon="4.3124">
        <ele>306</ele>
        <time>2024-04-26T15:46:32Z</time>
      </trkpt>
      <trkpt lat="50.01585" lon="4.3125">
        <ele>306.2</ele>
        <time>2024-04-26T15:46:33Z</time>
      </trkpt>
      <trkpt lat="50.01584" lon="4.3126">
        <ele>306</ele>
        <time>2024-04-26T15:46:34Z</time>
      </trkpt>
      <trkpt lat="50.01583" lon="4.3127">
        <ele>306.2</ele>
        <time>2024-04-26T15:46:35Z</time>
      </trkpt>
      <trkpt lat="50.01582" lon="4.31281">
        <ele>306.2</ele>
        <time>2024-04-26T15:46:36Z</time>
      </trkpt>
      <trkpt lat="50.01582" lon="4.31291">
        <ele>306.2</ele>
        <time>2024-04-26T15:46:37Z</time>
      </trkpt>
      <trkpt lat="50.01581" lon="4.31302">
        <ele>306.2</ele>
        <time>2024-04-26T15:46:38Z</time>
      </trkpt>
      <trkpt lat="50.0158" lon="4.31312">
        <ele>306</ele>
        <time>2024-04-26T15:46:39Z</time>
      </trkpt>
      <trkpt lat="50.0158" lon="4.31323">
        <ele>306.2</ele>
        <time>2024-04-26T15:46:40Z</time>
      </trkpt>
      <trkpt lat="50.01579" lon="4.31334">
        <ele>306.2</ele>
        <time>2024-04-26T15:46:41Z</time>
      </trkpt>
      <trkpt lat="50.01579" lon="4.31344">
        <ele>306</ele>
        <time>2024-04-26T15:46:42Z</time>
      </trkpt>
      <trkpt lat="50.01578" lon="4.31355">
        <ele>306</ele>
        <time>2024-04-26T15:46:43Z</time>
      </trkpt>
      <trkpt lat="50.01577" lon="4.31365">
        <ele>305.8</ele>
        <time>2024-04-26T15:46:44Z</time>
      </trkpt>
      <trkpt lat="50.01576" lon="4.31376">
        <ele>305.8</ele>
        <time>2024-04-26T15:46:45Z</time>
      </trkpt>
      <trkpt lat="50.01576" lon="4.31387">
        <ele>305.6</ele>
        <time>2024-04-26T15:46:46Z</time>
      </trkpt>
      <trkpt lat="50.01575" lon="4.31398">
        <ele>305.8</ele>
        <time>2024-04-26T15:46:47Z</time>
      </trkpt>
      <trkpt lat="50.01575" lon="4.31408">
        <ele>305.6</ele>
        <time>2024-04-26T15:46:48Z</time>
      </trkpt>
      <trkpt lat="50.01575" lon="4.31419">
        <ele>305.4</ele>
        <time>2024-04-26T15:46:49Z</time>
      </trkpt>
      <trkpt lat="50.01574" lon="4.3143">
        <ele>305.6</ele>
        <time>2024-04-26T15:46:50Z</time>
      </trkpt>
      <trkpt lat="50.01574" lon="4.31441">
        <ele>305.4</ele>
        <time>2024-04-26T15:46:51Z</time>
      </trkpt>
      <trkpt lat="50.01573" lon="4.31452">
        <ele>305.4</ele>
        <time>2024-04-26T15:46:52Z</time>
      </trkpt>
      <trkpt lat="50.01573" lon="4.31463">
        <ele>305.6</ele>
        <time>2024-04-26T15:46:53Z</time>
      </trkpt>
      <trkpt lat="50.01572" lon="4.31473">
        <ele>305.6</ele>
        <time>2024-04-26T15:46:54Z</time>
      </trkpt>
      <trkpt lat="50.01572" lon="4.31484">
        <ele>305.4</ele>
        <time>2024-04-26T15:46:55Z</time>
      </trkpt>
      <trkpt lat="50.01571" lon="4.31495">
        <ele>305.4</ele>
        <time>2024-04-26T15:46:56Z</time>
      </trkpt>
      <trkpt lat="50.0157" lon="4.31506">
        <ele>305.6</ele>
        <time>2024-04-26T15:46:57Z</time>
      </trkpt>
      <trkpt lat="50.0157" lon="4.31517">
        <ele>305.6</ele>
        <time>2024-04-26T15:46:58Z</time>
      </trkpt>
      <trkpt lat="50.01569" lon="4.31528">
        <ele>305.6</ele>
        <time>2024-04-26T15:46:59Z</time>
      </trkpt>
      <trkpt lat="50.01569" lon="4.31539">
        <ele>305.4</ele>
        <time>2024-04-26T15:47:00Z</time>
      </trkpt>
      <trkpt lat="50.01568" lon="4.31549">
        <ele>305.4</ele>
        <time>2024-04-26T15:47:01Z</time>
      </trkpt>
      <trkpt lat="50.01568" lon="4.3156">
        <ele>305.4</ele>
        <time>2024-04-26T15:47:02Z</time>
      </trkpt>
      <trkpt lat="50.01567" lon="4.3157">
        <ele>305.4</ele>
        <time>2024-04-26T15:47:03Z</time>
      </trkpt>
      <trkpt lat="50.01567" lon="4.3158">
        <ele>305.4</ele>
        <time>2024-04-26T15:47:04Z</time>
      </trkpt>
      <trkpt lat="50.01566" lon="4.3159">
        <ele>305.2</ele>
        <time>2024-04-26T15:47:05Z</time>
      </trkpt>
      <trkpt lat="50.01566" lon="4.316">
        <ele>305</ele>
        <time>2024-04-26T15:47:06Z</time>
      </trkpt>
      <trkpt lat="50.01565" lon="4.31609">
        <ele>305</ele>
        <time>2024-04-26T15:47:07Z</time>
      </trkpt>
      <trkpt lat="50.01565" lon="4.31619">
        <ele>305</ele>
        <time>2024-04-26T15:47:08Z</time>
      </trkpt>
      <trkpt lat="50.01564" lon="4.31629">
        <ele>305</ele>
        <time>2024-04-26T15:47:09Z</time>
      </trkpt>
      <trkpt lat="50.01564" lon="4.31638">
        <ele>305</ele>
        <time>2024-04-26T15:47:10Z</time>
      </trkpt>
      <trkpt lat="50.01563" lon="4.31648">
        <ele>305</ele>
        <time>2024-04-26T15:47:11Z</time>
      </trkpt>
      <trkpt lat="50.01563" lon="4.31657">
        <ele>304.8</ele>
        <time>2024-04-26T15:47:12Z</time>
      </trkpt>
      <trkpt lat="50.01563" lon="4.31667">
        <ele>304.8</ele>
        <time>2024-04-26T15:47:13Z</time>
      </trkpt>
      <trkpt lat="50.01562" lon="4.31676">
        <ele>304.8</ele>
        <time>2024-04-26T15:47:14Z</time>
      </trkpt>
      <trkpt lat="50.01562" lon="4.31686">
        <ele>304.8</ele>
        <time>2024-04-26T15:47:15Z</time>
      </trkpt>
      <trkpt lat="50.01562" lon="4.31695">
        <ele>304.6</ele>
        <time>2024-04-26T15:47:16Z</time>
      </trkpt>
      <trkpt lat="50.01561" lon="4.31705">
        <ele>304.8</ele>
        <time>2024-04-26T15:47:17Z</time>
      </trkpt>
      <trkpt lat="50.0156" lon="4.31715">
        <ele>304.6</ele>
        <time>2024-04-26T15:47:18Z</time>
      </trkpt>
      <trkpt lat="50.0156" lon="4.31724">
        <ele>304.6</ele>
        <time>2024-04-26T15:47:19Z</time>
      </trkpt>
      <trkpt lat="50.01559" lon="4.31734">
        <ele>304.4</ele>
        <time>2024-04-26T15:47:20Z</time>
      </trkpt>
      <trkpt lat="50.01559" lon="4.31745">
        <ele>304.4</ele>
        <time>2024-04-26T15:47:21Z</time>
      </trkpt>
      <trkpt lat="50.01559" lon="4.31755">
        <ele>304.4</ele>
        <time>2024-04-26T15:47:22Z</time>
      </trkpt>
      <trkpt lat="50.01558" lon="4.31766">
        <ele>304.4</ele>
        <time>2024-04-26T15:47:23Z</time>
      </trkpt>
      <trkpt lat="50.01558" lon="4.31776">
        <ele>304.2</ele>
        <time>2024-04-26T15:47:24Z</time>
      </trkpt>
      <trkpt lat="50.01557" lon="4.31787">
        <ele>304.2</ele>
        <time>2024-04-26T15:47:25Z</time>
      </trkpt>
      <trkpt lat="50.01557" lon="4.31799">
        <ele>304</ele>
        <time>2024-04-26T15:47:26Z</time>
      </trkpt>
      <trkpt lat="50.01556" lon="4.3181">
        <ele>304</ele>
        <time>2024-04-26T15:47:27Z</time>
      </trkpt>
      <trkpt lat="50.01556" lon="4.31822">
        <ele>304</ele>
        <time>2024-04-26T15:47:28Z</time>
      </trkpt>
      <trkpt lat="50.01555" lon="4.31834">
        <ele>303.8</ele>
        <time>2024-04-26T15:47:29Z</time>
      </trkpt>
      <trkpt lat="50.01554" lon="4.31847">
        <ele>303.4</ele>
        <time>2024-04-26T15:47:30Z</time>
      </trkpt>
      <trkpt lat="50.01554" lon="4.31859">
        <ele>302.4</ele>
        <time>2024-04-26T15:47:31Z</time>
      </trkpt>
      <trkpt lat="50.01553" lon="4.31872">
        <ele>301.8</ele>
        <time>2024-04-26T15:47:32Z</time>
      </trkpt>
      <trkpt lat="50.01553" lon="4.31885">
        <ele>301.4</ele>
        <time>2024-04-26T15:47:33Z</time>
      </trkpt>
      <trkpt lat="50.01552" lon="4.31899">
        <ele>301</ele>
        <time>2024-04-26T15:47:34Z</time>
      </trkpt>
      <trkpt lat="50.01551" lon="4.31912">
        <ele>301</ele>
        <time>2024-04-26T15:47:35Z</time>
      </trkpt>
      <trkpt lat="50.01551" lon="4.31925">
        <ele>301</ele>
        <time>2024-04-26T15:47:36Z</time>
      </trkpt>
      <trkpt lat="50.0155" lon="4.31938">
        <ele>300.4</ele>
        <time>2024-04-26T15:47:37Z</time>
      </trkpt>
      <trkpt lat="50.01549" lon="4.31951">
        <ele>299.8</ele>
        <time>2024-04-26T15:47:38Z</time>
      </trkpt>
      <trkpt lat="50.01548" lon="4.31963">
        <ele>299</ele>
        <time>2024-04-26T15:47:39Z</time>
      </trkpt>
      <trkpt lat="50.01547" lon="4.31975">
        <ele>298.6</ele>
        <time>2024-04-26T15:47:40Z</time>
      </trkpt>
      <trkpt lat="50.01548" lon="4.31986">
        <ele>298.2</ele>
        <time>2024-04-26T15:47:41Z</time>
      </trkpt>
      <trkpt lat="50.0155" lon="4.31997">
        <ele>298</ele>
        <time>2024-04-26T15:47:42Z</time>
      </trkpt>
      <trkpt lat="50.01554" lon="4.32006">
        <ele>298</ele>
        <time>2024-04-26T15:47:43Z</time>
      </trkpt>
      <trkpt lat="50.0156" lon="4.32013">
        <ele>297.8</ele>
        <time>2024-04-26T15:47:44Z</time>
      </trkpt>
      <trkpt lat="50.01566" lon="4.32019">
        <ele>297.4</ele>
        <time>2024-04-26T15:47:45Z</time>
      </trkpt>
      <trkpt lat="50.01573" lon="4.32024">
        <ele>296.8</ele>
        <time>2024-04-26T15:47:46Z</time>
      </trkpt>
      <trkpt lat="50.0158" lon="4.32028">
        <ele>296.4</ele>
        <time>2024-04-26T15:47:47Z</time>
      </trkpt>
      <trkpt lat="50.01587" lon="4.32032">
        <ele>296</ele>
        <time>2024-04-26T15:47:48Z</time>
      </trkpt>
      <trkpt lat="50.01594" lon="4.32036">
        <ele>295.6</ele>
        <time>2024-04-26T15:47:49Z</time>
      </trkpt>
      <trkpt lat="50.01601" lon="4.3204">
        <ele>295.2</ele>
        <time>2024-04-26T15:47:50Z</time>
      </trkpt>
      <trkpt lat="50.01609" lon="4.32043">
        <ele>295</ele>
        <time>2024-04-26T15:47:51Z</time>
      </trkpt>
      <trkpt lat="50.01616" lon="4.32046">
        <ele>295</ele>
        <time>2024-04-26T15:47:52Z</time>
      </trkpt>
      <trkpt lat="50.01623" lon="4.32049">
        <ele>294.8</ele>
        <time>2024-04-26T15:47:53Z</time>
      </trkpt>
      <trkpt lat="50.01631" lon="4.32051">
        <ele>294.6</ele>
        <time>2024-04-26T15:47:54Z</time>
      </trkpt>
      <trkpt lat="50.01638" lon="4.32053">
        <ele>294.6</ele>
        <time>2024-04-26T15:47:55Z</time>
      </trkpt>
      <trkpt lat="50.01646" lon="4.32054">
        <ele>294.6</ele>
        <time>2024-04-26T15:47:56Z</time>
      </trkpt>
      <trkpt lat="50.01653" lon="4.32054">
        <ele>294.6</ele>
        <time>2024-04-26T15:47:57Z</time>
      </trkpt>
      <trkpt lat="50.0166" lon="4.32054">
        <ele>294.4</ele>
        <time>2024-04-26T15:47:58Z</time>
      </trkpt>
      <trkpt lat="50.01667" lon="4.32053">
        <ele>294.2</ele>
        <time>2024-04-26T15:47:59Z</time>
      </trkpt>
      <trkpt lat="50.01674" lon="4.32054">
        <ele>294</ele>
        <time>2024-04-26T15:48:00Z</time>
      </trkpt>
      <trkpt lat="50.0168" lon="4.32053">
        <ele>294</ele>
        <time>2024-04-26T15:48:01Z</time>
      </trkpt>
      <trkpt lat="50.01687" lon="4.32052">
        <ele>294</ele>
        <time>2024-04-26T15:48:02Z</time>
      </trkpt>
      <trkpt lat="50.01694" lon="4.32051">
        <ele>294</ele>
        <time>2024-04-26T15:48:03Z</time>
      </trkpt>
      <trkpt lat="50.01701" lon="4.3205">
        <ele>294</ele>
        <time>2024-04-26T15:48:04Z</time>
      </trkpt>
      <trkpt lat="50.01708" lon="4.32049">
        <ele>293.8</ele>
        <time>2024-04-26T15:48:05Z</time>
      </trkpt>
      <trkpt lat="50.01715" lon="4.32048">
        <ele>293.8</ele>
        <time>2024-04-26T15:48:06Z</time>
      </trkpt>
      <trkpt lat="50.01721" lon="4.32047">
        <ele>293.8</ele>
        <time>2024-04-26T15:48:07Z</time>
      </trkpt>
      <trkpt lat="50.01728" lon="4.32046">
        <ele>293.6</ele>
        <time>2024-04-26T15:48:08Z</time>
      </trkpt>
      <trkpt lat="50.01735" lon="4.32046">
        <ele>293.6</ele>
        <time>2024-04-26T15:48:09Z</time>
      </trkpt>
      <trkpt lat="50.01742" lon="4.32045">
        <ele>293.6</ele>
        <time>2024-04-26T15:48:10Z</time>
      </trkpt>
      <trkpt lat="50.01749" lon="4.32044">
        <ele>293.6</ele>
        <time>2024-04-26T15:48:11Z</time>
      </trkpt>
      <trkpt lat="50.01756" lon="4.32043">
        <ele>293.4</ele>
        <time>2024-04-26T15:48:12Z</time>
      </trkpt>
      <trkpt lat="50.01763" lon="4.32042">
        <ele>293.6</ele>
        <time>2024-04-26T15:48:13Z</time>
      </trkpt>
      <trkpt lat="50.01769" lon="4.3204">
        <ele>293.6</ele>
        <time>2024-04-26T15:48:14Z</time>
      </trkpt>
      <trkpt lat="50.01776" lon="4.32037">
        <ele>293.8</ele>
        <time>2024-04-26T15:48:15Z</time>
      </trkpt>
      <trkpt lat="50.01783" lon="4.32034">
        <ele>294</ele>
        <time>2024-04-26T15:48:16Z</time>
      </trkpt>
      <trkpt lat="50.01789" lon="4.3203">
        <ele>294</ele>
        <time>2024-04-26T15:48:17Z</time>
      </trkpt>
      <trkpt lat="50.01795" lon="4.32026">
        <ele>294</ele>
        <time>2024-04-26T15:48:18Z</time>
      </trkpt>
      <trkpt lat="50.01801" lon="4.32022">
        <ele>294.2</ele>
        <time>2024-04-26T15:48:19Z</time>
      </trkpt>
      <trkpt lat="50.01807" lon="4.32018">
        <ele>294.4</ele>
        <time>2024-04-26T15:48:20Z</time>
      </trkpt>
      <trkpt lat="50.01813" lon="4.32015">
        <ele>294.6</ele>
        <time>2024-04-26T15:48:21Z</time>
      </trkpt>
      <trkpt lat="50.01818" lon="4.32011">
        <ele>294.8</ele>
        <time>2024-04-26T15:48:22Z</time>
      </trkpt>
      <trkpt lat="50.01824" lon="4.32007">
        <ele>294.8</ele>
        <time>2024-04-26T15:48:23Z</time>
      </trkpt>
      <trkpt lat="50.01829" lon="4.32004">
        <ele>294.8</ele>
        <time>2024-04-26T15:48:24Z</time>
      </trkpt>
      <trkpt lat="50.01835" lon="4.32001">
        <ele>295</ele>
        <time>2024-04-26T15:48:25Z</time>
      </trkpt>
      <trkpt lat="50.0184" lon="4.31999">
        <ele>295</ele>
        <time>2024-04-26T15:48:26Z</time>
      </trkpt>
      <trkpt lat="50.01846" lon="4.31996">
        <ele>294.8</ele>
        <time>2024-04-26T15:48:27Z</time>
      </trkpt>
      <trkpt lat="50.01852" lon="4.31993">
        <ele>295</ele>
        <time>2024-04-26T15:48:28Z</time>
      </trkpt>
      <trkpt lat="50.01858" lon="4.31991">
        <ele>295.2</ele>
        <time>2024-04-26T15:48:29Z</time>
      </trkpt>
      <trkpt lat="50.01864" lon="4.31989">
        <ele>295</ele>
        <time>2024-04-26T15:48:30Z</time>
      </trkpt>
      <trkpt lat="50.0187" lon="4.31986">
        <ele>295</ele>
        <time>2024-04-26T15:48:31Z</time>
      </trkpt>
      <trkpt lat="50.01877" lon="4.31985">
        <ele>295.2</ele>
        <time>2024-04-26T15:48:32Z</time>
      </trkpt>
      <trkpt lat="50.01884" lon="4.31984">
        <ele>294.8</ele>
        <time>2024-04-26T15:48:33Z</time>
      </trkpt>
      <trkpt lat="50.01891" lon="4.31983">
        <ele>294.8</ele>
        <time>2024-04-26T15:48:34Z</time>
      </trkpt>
      <trkpt lat="50.01899" lon="4.31983">
        <ele>294.6</ele>
        <time>2024-04-26T15:48:35Z</time>
      </trkpt>
      <trkpt lat="50.01907" lon="4.31982">
        <ele>294.4</ele>
        <time>2024-04-26T15:48:36Z</time>
      </trkpt>
      <trkpt lat="50.01915" lon="4.31982">
        <ele>294.4</ele>
        <time>2024-04-26T15:48:37Z</time>
      </trkpt>
      <trkpt lat="50.01923" lon="4.31981">
        <ele>294</ele>
        <time>2024-04-26T15:48:38Z</time>
      </trkpt>
      <trkpt lat="50.01931" lon="4.31981">
        <ele>293.6</ele>
        <time>2024-04-26T15:48:39Z</time>
      </trkpt>
      <trkpt lat="50.0194" lon="4.31981">
        <ele>293</ele>
        <time>2024-04-26T15:48:40Z</time>
      </trkpt>
      <trkpt lat="50.01949" lon="4.31981">
        <ele>293</ele>
        <time>2024-04-26T15:48:41Z</time>
      </trkpt>
      <trkpt lat="50.01958" lon="4.31981">
        <ele>292.6</ele>
        <time>2024-04-26T15:48:42Z</time>
      </trkpt>
      <trkpt lat="50.01967" lon="4.31981">
        <ele>292.2</ele>
        <time>2024-04-26T15:48:43Z</time>
      </trkpt>
      <trkpt lat="50.01976" lon="4.3198">
        <ele>292</ele>
        <time>2024-04-26T15:48:44Z</time>
      </trkpt>
      <trkpt lat="50.01986" lon="4.3198">
        <ele>291.6</ele>
        <time>2024-04-26T15:48:45Z</time>
      </trkpt>
      <trkpt lat="50.01996" lon="4.31981">
        <ele>291.4</ele>
        <time>2024-04-26T15:48:46Z</time>
      </trkpt>
      <trkpt lat="50.02005" lon="4.31981">
        <ele>290.8</ele>
        <time>2024-04-26T15:48:47Z</time>
      </trkpt>
      <trkpt lat="50.02015" lon="4.31983">
        <ele>290.2</ele>
        <time>2024-04-26T15:48:48Z</time>
      </trkpt>
      <trkpt lat="50.02025" lon="4.31986">
        <ele>289</ele>
        <time>2024-04-26T15:48:49Z</time>
      </trkpt>
      <trkpt lat="50.02034" lon="4.31989">
        <ele>288.4</ele>
        <time>2024-04-26T15:48:50Z</time>
      </trkpt>
      <trkpt lat="50.02044" lon="4.31992">
        <ele>287.8</ele>
        <time>2024-04-26T15:48:51Z</time>
      </trkpt>
      <trkpt lat="50.02054" lon="4.31995">
        <ele>287.2</ele>
        <time>2024-04-26T15:48:52Z</time>
      </trkpt>
      <trkpt lat="50.02064" lon="4.31997">
        <ele>286.6</ele>
        <time>2024-04-26T15:48:53Z</time>
      </trkpt>
      <trkpt lat="50.02074" lon="4.32">
        <ele>286</ele>
        <time>2024-04-26T15:48:54Z</time>
      </trkpt>
      <trkpt lat="50.02084" lon="4.32003">
        <ele>285.6</ele>
        <time>2024-04-26T15:48:55Z</time>
      </trkpt>
      <trkpt lat="50.02095" lon="4.32007">
        <ele>285.2</ele>
        <time>2024-04-26T15:48:56Z</time>
      </trkpt>
      <trkpt lat="50.02105" lon="4.32012">
        <ele>284.6</ele>
        <time>2024-04-26T15:48:57Z</time>
      </trkpt>
      <trkpt lat="50.02116" lon="4.32017">
        <ele>283.8</ele>
        <time>2024-04-26T15:48:58Z</time>
      </trkpt>
      <trkpt lat="50.02127" lon="4.32021">
        <ele>283</ele>
        <time>2024-04-26T15:48:59Z</time>
      </trkpt>
      <trkpt lat="50.02139" lon="4.32025">
        <ele>282.6</ele>
        <time>2024-04-26T15:49:00Z</time>
      </trkpt>
      <trkpt lat="50.02151" lon="4.32029">
        <ele>282.2</ele>
        <time>2024-04-26T15:49:01Z</time>
      </trkpt>
      <trkpt lat="50.02163" lon="4.32033">
        <ele>282.2</ele>
        <time>2024-04-26T15:49:02Z</time>
      </trkpt>
      <trkpt lat="50.02175" lon="4.32037">
        <ele>281.8</ele>
        <time>2024-04-26T15:49:03Z</time>
      </trkpt>
      <trkpt lat="50.02188" lon="4.32043">
        <ele>281.4</ele>
        <time>2024-04-26T15:49:04Z</time>
      </trkpt>
      <trkpt lat="50.022" lon="4.3205">
        <ele>280.8</ele>
        <time>2024-04-26T15:49:05Z</time>
      </trkpt>
      <trkpt lat="50.02212" lon="4.32057">
        <ele>280.2</ele>
        <time>2024-04-26T15:49:06Z</time>
      </trkpt>
      <trkpt lat="50.02224" lon="4.32066">
        <ele>279.6</ele>
        <time>2024-04-26T15:49:07Z</time>
      </trkpt>
      <trkpt lat="50.02234" lon="4.32074">
        <ele>279</ele>
        <time>2024-04-26T15:49:08Z</time>
      </trkpt>
      <trkpt lat="50.02244" lon="4.32082">
        <ele>278</ele>
        <time>2024-04-26T15:49:09Z</time>
      </trkpt>
      <trkpt lat="50.02253" lon="4.32089">
        <ele>276.6</ele>
        <time>2024-04-26T15:49:10Z</time>
      </trkpt>
      <trkpt lat="50.02261" lon="4.32096">
        <ele>275.2</ele>
        <time>2024-04-26T15:49:11Z</time>
      </trkpt>
      <trkpt lat="50.02268" lon="4.32101">
        <ele>273.2</ele>
        <time>2024-04-26T15:49:12Z</time>
      </trkpt>
      <trkpt lat="50.02273" lon="4.32105">
        <ele>271.8</ele>
        <time>2024-04-26T15:49:13Z</time>
      </trkpt>
      <trkpt lat="50.02277" lon="4.32108">
        <ele>270.2</ele>
        <time>2024-04-26T15:49:14Z</time>
      </trkpt>
      <trkpt lat="50.02281" lon="4.32109">
        <ele>268.6</ele>
        <time>2024-04-26T15:49:15Z</time>
      </trkpt>
      <trkpt lat="50.02283" lon="4.32109">
        <ele>267.6</ele>
        <time>2024-04-26T15:49:16Z</time>
      </trkpt>
      <trkpt lat="50.02284" lon="4.32107">
        <ele>266.8</ele>
        <time>2024-04-26T15:49:17Z</time>
      </trkpt>
      <trkpt lat="50.02287" lon="4.32102">
        <ele>266.4</ele>
        <time>2024-04-26T15:49:18Z</time>
      </trkpt>
    </trkseg>
  </trk>
</gpx>